<?xml version="1.0"?>
<gpx
 version="1.1"
 creator="Satmap Active 20"
 xmlns:xsi="http://www.w3.org/2001/XMLSchema-instance"
 xmlns="http://www.topografix.com/GPX/1/1"
 xmlns:satmap="http://www.satmap.com/updates/xmlschemas/GpxExtensions/v2/GpxExtensions_v2.xsd"
 xsi:schemaLocation="http://www.topografix.com/GPX/1/1 http://www.topografix.com/GPX/1/1/gpx.xsd">
<metadata>
<time>2021-10-07T10:03:06Z</time>
<extensions>
<satmap:platform>43</satmap:platform>
<satmap:software version="3.12.831">SM15.exe</satmap:software>
<satmap:username>Jim Grant</satmap:username>
<satmap:network_ids>
<satmap:network_id type="wifi">00-23-A7-EC-D5-78</satmap:network_id>
<satmap:network_id type="bluetooth">80-BB-EB-D7-5B-7C</satmap:network_id>
</satmap:network_ids>
<satmap:snap_type>simple</satmap:snap_type>
</extensions>
</metadata>
<trk>
<name>2021-10-07_1003</name>
<desc>Track 1</desc>
<number>1</number>
<trkseg>
<trkpt lat="53.378553" lon="-1.929448"><ele>224</ele><time>2021-10-07T10:03:06Z</time><name>PT1</name></trkpt>
<trkpt lat="53.378552" lon="-1.929439"><ele>224</ele><time>2021-10-07T10:03:22Z</time><name>PT2</name></trkpt>
<trkpt lat="53.378553" lon="-1.929423"><ele>224</ele><time>2021-10-07T10:03:23Z</time><name>PT3</name></trkpt>
<trkpt lat="53.378561" lon="-1.929408"><ele>224</ele><time>2021-10-07T10:03:24Z</time><name>PT4</name></trkpt>
<trkpt lat="53.378566" lon="-1.929388"><ele>224</ele><time>2021-10-07T10:03:25Z</time><name>PT5</name></trkpt>
<trkpt lat="53.378572" lon="-1.929373"><ele>224</ele><time>2021-10-07T10:03:26Z</time><name>PT6</name></trkpt>
<trkpt lat="53.378576" lon="-1.929361"><ele>224</ele><time>2021-10-07T10:03:27Z</time><name>PT7</name></trkpt>
<trkpt lat="53.378575" lon="-1.929354"><ele>223</ele><time>2021-10-07T10:03:28Z</time><name>PT8</name></trkpt>
<trkpt lat="53.378577" lon="-1.929357"><ele>223</ele><time>2021-10-07T10:03:29Z</time><name>PT9</name></trkpt>
<trkpt lat="53.378577" lon="-1.929352"><ele>223</ele><time>2021-10-07T10:03:30Z</time><name>PT10</name></trkpt>
<trkpt lat="53.378573" lon="-1.929349"><ele>223</ele><time>2021-10-07T10:03:31Z</time><name>PT11</name></trkpt>
<trkpt lat="53.378567" lon="-1.929349"><ele>223</ele><time>2021-10-07T10:03:32Z</time><name>PT12</name></trkpt>
<trkpt lat="53.378569" lon="-1.929358"><ele>223</ele><time>2021-10-07T10:03:33Z</time><name>PT13</name></trkpt>
<trkpt lat="53.378566" lon="-1.929365"><ele>223</ele><time>2021-10-07T10:03:34Z</time><name>PT14</name></trkpt>
<trkpt lat="53.378562" lon="-1.929368"><ele>223</ele><time>2021-10-07T10:03:35Z</time><name>PT15</name></trkpt>
<trkpt lat="53.378561" lon="-1.929369"><ele>223</ele><time>2021-10-07T10:03:36Z</time><name>PT16</name></trkpt>
<trkpt lat="53.378544" lon="-1.929370"><ele>224</ele><time>2021-10-07T10:03:42Z</time><name>PT17</name></trkpt>
<trkpt lat="53.378537" lon="-1.929374"><ele>224</ele><time>2021-10-07T10:03:43Z</time><name>PT18</name></trkpt>
<trkpt lat="53.378529" lon="-1.929378"><ele>224</ele><time>2021-10-07T10:03:44Z</time><name>PT19</name></trkpt>
<trkpt lat="53.378506" lon="-1.929383"><ele>223</ele><time>2021-10-07T10:03:45Z</time><name>PT20</name></trkpt>
<trkpt lat="53.378506" lon="-1.929383"><ele>223</ele><time>2021-10-07T10:03:46Z</time><name>PT21</name></trkpt>
<trkpt lat="53.378502" lon="-1.929375"><ele>223</ele><time>2021-10-07T10:03:47Z</time><name>PT22</name></trkpt>
<trkpt lat="53.378502" lon="-1.929371"><ele>222</ele><time>2021-10-07T10:03:48Z</time><name>PT23</name></trkpt>
<trkpt lat="53.378503" lon="-1.929369"><ele>222</ele><time>2021-10-07T10:03:49Z</time><name>PT24</name></trkpt>
<trkpt lat="53.378501" lon="-1.929361"><ele>222</ele><time>2021-10-07T10:03:50Z</time><name>PT25</name></trkpt>
<trkpt lat="53.378494" lon="-1.929370"><ele>222</ele><time>2021-10-07T10:03:51Z</time><name>PT26</name></trkpt>
<trkpt lat="53.378487" lon="-1.929369"><ele>220</ele><time>2021-10-07T10:03:52Z</time><name>PT27</name></trkpt>
<trkpt lat="53.378487" lon="-1.929366"><ele>219</ele><time>2021-10-07T10:03:53Z</time><name>PT28</name></trkpt>
<trkpt lat="53.378484" lon="-1.929365"><ele>219</ele><time>2021-10-07T10:03:54Z</time><name>PT29</name></trkpt>
<trkpt lat="53.378496" lon="-1.929351"><ele>217</ele><time>2021-10-07T10:04:14Z</time><name>PT30</name></trkpt>
<trkpt lat="53.378496" lon="-1.929344"><ele>216</ele><time>2021-10-07T10:04:15Z</time><name>PT31</name></trkpt>
<trkpt lat="53.378494" lon="-1.929351"><ele>216</ele><time>2021-10-07T10:04:16Z</time><name>PT32</name></trkpt>
<trkpt lat="53.378493" lon="-1.929359"><ele>215</ele><time>2021-10-07T10:04:17Z</time><name>PT33</name></trkpt>
<trkpt lat="53.378489" lon="-1.929366"><ele>215</ele><time>2021-10-07T10:04:26Z</time><name>PT34</name></trkpt>
<trkpt lat="53.378487" lon="-1.929375"><ele>215</ele><time>2021-10-07T10:04:27Z</time><name>PT35</name></trkpt>
<trkpt lat="53.378488" lon="-1.929383"><ele>215</ele><time>2021-10-07T10:04:28Z</time><name>PT36</name></trkpt>
<trkpt lat="53.378484" lon="-1.929383"><ele>215</ele><time>2021-10-07T10:04:31Z</time><name>PT37</name></trkpt>
<trkpt lat="53.378475" lon="-1.929379"><ele>217</ele><time>2021-10-07T10:04:32Z</time><name>PT38</name></trkpt>
<trkpt lat="53.378475" lon="-1.929378"><ele>217</ele><time>2021-10-07T10:04:36Z</time><name>PT39</name></trkpt>
<trkpt lat="53.378472" lon="-1.929388"><ele>218</ele><time>2021-10-07T10:04:37Z</time><name>PT40</name></trkpt>
<trkpt lat="53.378472" lon="-1.929386"><ele>218</ele><time>2021-10-07T10:04:38Z</time><name>PT41</name></trkpt>
<trkpt lat="53.378469" lon="-1.929389"><ele>218</ele><time>2021-10-07T10:04:39Z</time><name>PT42</name></trkpt>
<trkpt lat="53.378506" lon="-1.929402"><ele>219</ele><time>2021-10-07T10:04:43Z</time><name>PT43</name></trkpt>
<trkpt lat="53.378501" lon="-1.929399"><ele>219</ele><time>2021-10-07T10:04:44Z</time><name>PT44</name></trkpt>
<trkpt lat="53.378501" lon="-1.929403"><ele>218</ele><time>2021-10-07T10:04:56Z</time><name>PT45</name></trkpt>
<trkpt lat="53.378492" lon="-1.929406"><ele>218</ele><time>2021-10-07T10:04:57Z</time><name>PT46</name></trkpt>
<trkpt lat="53.378487" lon="-1.929412"><ele>217</ele><time>2021-10-07T10:04:58Z</time><name>PT47</name></trkpt>
<trkpt lat="53.378484" lon="-1.929428"><ele>217</ele><time>2021-10-07T10:04:59Z</time><name>PT48</name></trkpt>
<trkpt lat="53.378482" lon="-1.929431"><ele>217</ele><time>2021-10-07T10:05:00Z</time><name>PT49</name></trkpt>
<trkpt lat="53.378484" lon="-1.929430"><ele>216</ele><time>2021-10-07T10:05:01Z</time><name>PT50</name></trkpt>
<trkpt lat="53.378477" lon="-1.929423"><ele>217</ele><time>2021-10-07T10:05:02Z</time><name>PT51</name></trkpt>
<trkpt lat="53.378477" lon="-1.929412"><ele>216</ele><time>2021-10-07T10:05:03Z</time><name>PT52</name></trkpt>
<trkpt lat="53.378468" lon="-1.929410"><ele>215</ele><time>2021-10-07T10:05:04Z</time><name>PT53</name></trkpt>
<trkpt lat="53.378465" lon="-1.929408"><ele>215</ele><time>2021-10-07T10:05:05Z</time><name>PT54</name></trkpt>
<trkpt lat="53.378466" lon="-1.929400"><ele>214</ele><time>2021-10-07T10:05:06Z</time><name>PT55</name></trkpt>
<trkpt lat="53.378465" lon="-1.929397"><ele>214</ele><time>2021-10-07T10:05:07Z</time><name>PT56</name></trkpt>
<trkpt lat="53.378462" lon="-1.929396"><ele>214</ele><time>2021-10-07T10:05:08Z</time><name>PT57</name></trkpt>
<trkpt lat="53.378459" lon="-1.929395"><ele>214</ele><time>2021-10-07T10:05:09Z</time><name>PT58</name></trkpt>
<trkpt lat="53.378461" lon="-1.929396"><ele>215</ele><time>2021-10-07T10:05:10Z</time><name>PT59</name></trkpt>
<trkpt lat="53.378469" lon="-1.929417"><ele>216</ele><time>2021-10-07T10:05:11Z</time><name>PT60</name></trkpt>
<trkpt lat="53.378469" lon="-1.929411"><ele>216</ele><time>2021-10-07T10:05:12Z</time><name>PT61</name></trkpt>
<trkpt lat="53.378474" lon="-1.929395"><ele>217</ele><time>2021-10-07T10:05:13Z</time><name>PT62</name></trkpt>
<trkpt lat="53.378463" lon="-1.929386"><ele>217</ele><time>2021-10-07T10:05:14Z</time><name>PT63</name></trkpt>
<trkpt lat="53.378473" lon="-1.929388"><ele>218</ele><time>2021-10-07T10:05:15Z</time><name>PT64</name></trkpt>
<trkpt lat="53.378471" lon="-1.929381"><ele>217</ele><time>2021-10-07T10:05:16Z</time><name>PT65</name></trkpt>
<trkpt lat="53.378455" lon="-1.929377"><ele>217</ele><time>2021-10-07T10:05:17Z</time><name>PT66</name></trkpt>
<trkpt lat="53.378456" lon="-1.929377"><ele>216</ele><time>2021-10-07T10:05:18Z</time><name>PT67</name></trkpt>
<trkpt lat="53.378458" lon="-1.929382"><ele>217</ele><time>2021-10-07T10:05:19Z</time><name>PT68</name></trkpt>
<trkpt lat="53.378475" lon="-1.929438"><ele>216</ele><time>2021-10-07T10:05:22Z</time><name>PT69</name></trkpt>
<trkpt lat="53.378458" lon="-1.929485"><ele>215</ele><time>2021-10-07T10:05:26Z</time><name>PT70</name></trkpt>
<trkpt lat="53.378456" lon="-1.929467"><ele>215</ele><time>2021-10-07T10:05:30Z</time><name>PT71</name></trkpt>
<trkpt lat="53.378472" lon="-1.929465"><ele>215</ele><time>2021-10-07T10:05:33Z</time><name>PT72</name></trkpt>
<trkpt lat="53.378474" lon="-1.929460"><ele>216</ele><time>2021-10-07T10:05:37Z</time><name>PT73</name></trkpt>
<trkpt lat="53.378472" lon="-1.929448"><ele>216</ele><time>2021-10-07T10:05:59Z</time><name>PT74</name></trkpt>
<trkpt lat="53.378475" lon="-1.929441"><ele>215</ele><time>2021-10-07T10:06:02Z</time><name>PT75</name></trkpt>
<trkpt lat="53.378470" lon="-1.929444"><ele>217</ele><time>2021-10-07T10:06:26Z</time><name>PT76</name></trkpt>
<trkpt lat="53.378461" lon="-1.929490"><ele>218</ele><time>2021-10-07T10:06:29Z</time><name>PT77</name></trkpt>
<trkpt lat="53.378467" lon="-1.929501"><ele>215</ele><time>2021-10-07T10:06:41Z</time><name>PT78</name></trkpt>
<trkpt lat="53.378474" lon="-1.929467"><ele>212</ele><time>2021-10-07T10:06:45Z</time><name>PT79</name></trkpt>
<trkpt lat="53.378485" lon="-1.929462"><ele>212</ele><time>2021-10-07T10:06:49Z</time><name>PT80</name></trkpt>
<trkpt lat="53.378503" lon="-1.929501"><ele>211</ele><time>2021-10-07T10:07:20Z</time><name>PT81</name></trkpt>
<trkpt lat="53.378564" lon="-1.929528"><ele>209</ele><time>2021-10-07T10:07:24Z</time><name>PT82</name></trkpt>
<trkpt lat="53.378573" lon="-1.929525"><ele>212</ele><time>2021-10-07T10:07:28Z</time><name>PT83</name></trkpt>
<trkpt lat="53.378589" lon="-1.929525"><ele>213</ele><time>2021-10-07T10:07:32Z</time><name>PT84</name></trkpt>
<trkpt lat="53.378584" lon="-1.929461"><ele>217</ele><time>2021-10-07T10:07:53Z</time><name>PT85</name></trkpt>
<trkpt lat="53.378536" lon="-1.929450"><ele>218</ele><time>2021-10-07T10:08:45Z</time><name>PT86</name></trkpt>
<trkpt lat="53.378518" lon="-1.929452"><ele>218</ele><time>2021-10-07T10:08:48Z</time><name>PT87</name></trkpt>
<trkpt lat="53.378507" lon="-1.929458"><ele>219</ele><time>2021-10-07T10:08:52Z</time><name>PT88</name></trkpt>
<trkpt lat="53.378506" lon="-1.929461"><ele>219</ele><time>2021-10-07T10:08:55Z</time><name>PT89</name></trkpt>
<trkpt lat="53.378512" lon="-1.929480"><ele>220</ele><time>2021-10-07T10:08:59Z</time><name>PT90</name></trkpt>
<trkpt lat="53.378504" lon="-1.929494"><ele>220</ele><time>2021-10-07T10:09:03Z</time><name>PT91</name></trkpt>
<trkpt lat="53.378500" lon="-1.929517"><ele>220</ele><time>2021-10-07T10:09:07Z</time><name>PT92</name></trkpt>
<trkpt lat="53.378500" lon="-1.929502"><ele>222</ele><time>2021-10-07T10:09:11Z</time><name>PT93</name></trkpt>
<trkpt lat="53.378496" lon="-1.929507"><ele>222</ele><time>2021-10-07T10:09:15Z</time><name>PT94</name></trkpt>
<trkpt lat="53.378515" lon="-1.929508"><ele>223</ele><time>2021-10-07T10:09:19Z</time><name>PT95</name></trkpt>
<trkpt lat="53.378515" lon="-1.929517"><ele>226</ele><time>2021-10-07T10:09:23Z</time><name>PT96</name></trkpt>
<trkpt lat="53.378513" lon="-1.929512"><ele>226</ele><time>2021-10-07T10:09:27Z</time><name>PT97</name></trkpt>
<trkpt lat="53.378491" lon="-1.929500"><ele>224</ele><time>2021-10-07T10:09:31Z</time><name>PT98</name></trkpt>
<trkpt lat="53.378453" lon="-1.929505"><ele>224</ele><time>2021-10-07T10:09:35Z</time><name>PT99</name></trkpt>
<trkpt lat="53.378453" lon="-1.929492"><ele>225</ele><time>2021-10-07T10:09:39Z</time><name>PT100</name></trkpt>
<trkpt lat="53.378437" lon="-1.929443"><ele>227</ele><time>2021-10-07T10:09:55Z</time><name>PT101</name></trkpt>
<trkpt lat="53.378435" lon="-1.929424"><ele>226</ele><time>2021-10-07T10:09:59Z</time><name>PT102</name></trkpt>
<trkpt lat="53.378469" lon="-1.929388"><ele>223</ele><time>2021-10-07T10:10:31Z</time><name>PT103</name></trkpt>
<trkpt lat="53.378478" lon="-1.929371"><ele>223</ele><time>2021-10-07T10:10:35Z</time><name>PT104</name></trkpt>
<trkpt lat="53.378483" lon="-1.929344"><ele>223</ele><time>2021-10-07T10:11:35Z</time><name>PT105</name></trkpt>
<trkpt lat="53.378516" lon="-1.929320"><ele>222</ele><time>2021-10-07T10:11:39Z</time><name>PT106</name></trkpt>
<trkpt lat="53.378528" lon="-1.929322"><ele>222</ele><time>2021-10-07T10:11:43Z</time><name>PT107</name></trkpt>
<trkpt lat="53.378516" lon="-1.929339"><ele>223</ele><time>2021-10-07T10:11:51Z</time><name>PT108</name></trkpt>
<trkpt lat="53.378514" lon="-1.929333"><ele>223</ele><time>2021-10-07T10:11:55Z</time><name>PT109</name></trkpt>
<trkpt lat="53.378514" lon="-1.929318"><ele>222</ele><time>2021-10-07T10:11:59Z</time><name>PT110</name></trkpt>
<trkpt lat="53.378493" lon="-1.929329"><ele>224</ele><time>2021-10-07T10:12:03Z</time><name>PT111</name></trkpt>
<trkpt lat="53.378494" lon="-1.929330"><ele>224</ele><time>2021-10-07T10:12:51Z</time><name>PT112</name></trkpt>
<trkpt lat="53.378515" lon="-1.929316"><ele>223</ele><time>2021-10-07T10:12:55Z</time><name>PT113</name></trkpt>
<trkpt lat="53.378550" lon="-1.929286"><ele>223</ele><time>2021-10-07T10:12:59Z</time><name>PT114</name></trkpt>
<trkpt lat="53.378583" lon="-1.929240"><ele>220</ele><time>2021-10-07T10:13:03Z</time><name>PT115</name></trkpt>
<trkpt lat="53.378602" lon="-1.929234"><ele>219</ele><time>2021-10-07T10:13:07Z</time><name>PT116</name></trkpt>
<trkpt lat="53.378629" lon="-1.929183"><ele>217</ele><time>2021-10-07T10:13:11Z</time><name>PT117</name></trkpt>
<trkpt lat="53.378643" lon="-1.929149"><ele>216</ele><time>2021-10-07T10:13:15Z</time><name>PT118</name></trkpt>
<trkpt lat="53.378656" lon="-1.929112"><ele>215</ele><time>2021-10-07T10:13:19Z</time><name>PT119</name></trkpt>
<trkpt lat="53.378712" lon="-1.929031"><ele>212</ele><time>2021-10-07T10:13:23Z</time><name>PT120</name></trkpt>
<trkpt lat="53.378743" lon="-1.928966"><ele>208</ele><time>2021-10-07T10:13:27Z</time><name>PT121</name></trkpt>
<trkpt lat="53.378772" lon="-1.928959"><ele>205</ele><time>2021-10-07T10:13:31Z</time><name>PT122</name></trkpt>
<trkpt lat="53.378788" lon="-1.928924"><ele>204</ele><time>2021-10-07T10:13:34Z</time><name>PT123</name></trkpt>
<trkpt lat="53.378802" lon="-1.928882"><ele>206</ele><time>2021-10-07T10:13:38Z</time><name>PT124</name></trkpt>
<trkpt lat="53.378827" lon="-1.928860"><ele>204</ele><time>2021-10-07T10:13:41Z</time><name>PT125</name></trkpt>
<trkpt lat="53.378840" lon="-1.928810"><ele>204</ele><time>2021-10-07T10:13:45Z</time><name>PT126</name></trkpt>
<trkpt lat="53.378876" lon="-1.928775"><ele>203</ele><time>2021-10-07T10:13:49Z</time><name>PT127</name></trkpt>
<trkpt lat="53.378901" lon="-1.928755"><ele>201</ele><time>2021-10-07T10:13:53Z</time><name>PT128</name></trkpt>
<trkpt lat="53.378920" lon="-1.928651"><ele>199</ele><time>2021-10-07T10:13:57Z</time><name>PT129</name></trkpt>
<trkpt lat="53.378949" lon="-1.928564"><ele>199</ele><time>2021-10-07T10:14:01Z</time><name>PT130</name></trkpt>
<trkpt lat="53.378995" lon="-1.928511"><ele>199</ele><time>2021-10-07T10:14:05Z</time><name>PT131</name></trkpt>
<trkpt lat="53.379020" lon="-1.928434"><ele>198</ele><time>2021-10-07T10:14:09Z</time><name>PT132</name></trkpt>
<trkpt lat="53.379062" lon="-1.928414"><ele>199</ele><time>2021-10-07T10:14:13Z</time><name>PT133</name></trkpt>
<trkpt lat="53.379082" lon="-1.928360"><ele>198</ele><time>2021-10-07T10:14:17Z</time><name>PT134</name></trkpt>
<trkpt lat="53.379125" lon="-1.928321"><ele>199</ele><time>2021-10-07T10:14:21Z</time><name>PT135</name></trkpt>
<trkpt lat="53.379162" lon="-1.928289"><ele>200</ele><time>2021-10-07T10:14:25Z</time><name>PT136</name></trkpt>
<trkpt lat="53.379175" lon="-1.928284"><ele>199</ele><time>2021-10-07T10:14:29Z</time><name>PT137</name></trkpt>
<trkpt lat="53.379191" lon="-1.928269"><ele>201</ele><time>2021-10-07T10:14:32Z</time><name>PT138</name></trkpt>
<trkpt lat="53.379231" lon="-1.928232"><ele>203</ele><time>2021-10-07T10:14:36Z</time><name>PT139</name></trkpt>
<trkpt lat="53.379257" lon="-1.928169"><ele>204</ele><time>2021-10-07T10:14:40Z</time><name>PT140</name></trkpt>
<trkpt lat="53.379291" lon="-1.928161"><ele>203</ele><time>2021-10-07T10:14:44Z</time><name>PT141</name></trkpt>
<trkpt lat="53.379323" lon="-1.928092"><ele>203</ele><time>2021-10-07T10:14:48Z</time><name>PT142</name></trkpt>
<trkpt lat="53.379380" lon="-1.928101"><ele>204</ele><time>2021-10-07T10:14:52Z</time><name>PT143</name></trkpt>
<trkpt lat="53.379417" lon="-1.928046"><ele>203</ele><time>2021-10-07T10:14:56Z</time><name>PT144</name></trkpt>
<trkpt lat="53.379479" lon="-1.928035"><ele>204</ele><time>2021-10-07T10:15:00Z</time><name>PT145</name></trkpt>
<trkpt lat="53.379512" lon="-1.927942"><ele>206</ele><time>2021-10-07T10:15:04Z</time><name>PT146</name></trkpt>
<trkpt lat="53.379526" lon="-1.927899"><ele>204</ele><time>2021-10-07T10:15:08Z</time><name>PT147</name></trkpt>
<trkpt lat="53.379569" lon="-1.927886"><ele>205</ele><time>2021-10-07T10:15:12Z</time><name>PT148</name></trkpt>
<trkpt lat="53.379614" lon="-1.927843"><ele>208</ele><time>2021-10-07T10:15:16Z</time><name>PT149</name></trkpt>
<trkpt lat="53.379646" lon="-1.927808"><ele>202</ele><time>2021-10-07T10:15:20Z</time><name>PT150</name></trkpt>
<trkpt lat="53.379695" lon="-1.927773"><ele>200</ele><time>2021-10-07T10:15:24Z</time><name>PT151</name></trkpt>
<trkpt lat="53.379712" lon="-1.927706"><ele>199</ele><time>2021-10-07T10:15:28Z</time><name>PT152</name></trkpt>
<trkpt lat="53.379760" lon="-1.927611"><ele>204</ele><time>2021-10-07T10:15:32Z</time><name>PT153</name></trkpt>
<trkpt lat="53.379799" lon="-1.927553"><ele>202</ele><time>2021-10-07T10:15:36Z</time><name>PT154</name></trkpt>
<trkpt lat="53.379821" lon="-1.927493"><ele>202</ele><time>2021-10-07T10:15:40Z</time><name>PT155</name></trkpt>
<trkpt lat="53.379828" lon="-1.927455"><ele>204</ele><time>2021-10-07T10:15:44Z</time><name>PT156</name></trkpt>
<trkpt lat="53.379831" lon="-1.927447"><ele>204</ele><time>2021-10-07T10:15:48Z</time><name>PT157</name></trkpt>
<trkpt lat="53.379845" lon="-1.927425"><ele>203</ele><time>2021-10-07T10:15:56Z</time><name>PT158</name></trkpt>
<trkpt lat="53.379880" lon="-1.927368"><ele>199</ele><time>2021-10-07T10:16:00Z</time><name>PT159</name></trkpt>
<trkpt lat="53.379910" lon="-1.927324"><ele>195</ele><time>2021-10-07T10:16:04Z</time><name>PT160</name></trkpt>
<trkpt lat="53.379945" lon="-1.927289"><ele>193</ele><time>2021-10-07T10:16:08Z</time><name>PT161</name></trkpt>
<trkpt lat="53.379985" lon="-1.927272"><ele>193</ele><time>2021-10-07T10:16:12Z</time><name>PT162</name></trkpt>
<trkpt lat="53.380019" lon="-1.927223"><ele>193</ele><time>2021-10-07T10:16:16Z</time><name>PT163</name></trkpt>
<trkpt lat="53.380031" lon="-1.927203"><ele>195</ele><time>2021-10-07T10:16:20Z</time><name>PT164</name></trkpt>
<trkpt lat="53.380066" lon="-1.927146"><ele>197</ele><time>2021-10-07T10:17:04Z</time><name>PT165</name></trkpt>
<trkpt lat="53.380122" lon="-1.927107"><ele>198</ele><time>2021-10-07T10:17:08Z</time><name>PT166</name></trkpt>
<trkpt lat="53.380152" lon="-1.927057"><ele>198</ele><time>2021-10-07T10:17:12Z</time><name>PT167</name></trkpt>
<trkpt lat="53.380196" lon="-1.926997"><ele>198</ele><time>2021-10-07T10:17:16Z</time><name>PT168</name></trkpt>
<trkpt lat="53.380259" lon="-1.926952"><ele>201</ele><time>2021-10-07T10:17:20Z</time><name>PT169</name></trkpt>
<trkpt lat="53.380300" lon="-1.926928"><ele>201</ele><time>2021-10-07T10:17:24Z</time><name>PT170</name></trkpt>
<trkpt lat="53.380334" lon="-1.926870"><ele>198</ele><time>2021-10-07T10:17:28Z</time><name>PT171</name></trkpt>
<trkpt lat="53.380324" lon="-1.926843"><ele>198</ele><time>2021-10-07T10:17:32Z</time><name>PT172</name></trkpt>
<trkpt lat="53.380339" lon="-1.926803"><ele>197</ele><time>2021-10-07T10:17:36Z</time><name>PT173</name></trkpt>
<trkpt lat="53.380378" lon="-1.926769"><ele>198</ele><time>2021-10-07T10:17:40Z</time><name>PT174</name></trkpt>
<trkpt lat="53.380426" lon="-1.926692"><ele>202</ele><time>2021-10-07T10:17:44Z</time><name>PT175</name></trkpt>
<trkpt lat="53.380465" lon="-1.926631"><ele>202</ele><time>2021-10-07T10:17:48Z</time><name>PT176</name></trkpt>
<trkpt lat="53.380509" lon="-1.926569"><ele>204</ele><time>2021-10-07T10:17:52Z</time><name>PT177</name></trkpt>
<trkpt lat="53.380566" lon="-1.926465"><ele>212</ele><time>2021-10-07T10:17:57Z</time><name>PT178</name></trkpt>
<trkpt lat="53.380577" lon="-1.926447"><ele>214</ele><time>2021-10-07T10:17:57Z</time><name>PT179</name></trkpt>
<trkpt lat="53.380590" lon="-1.926431"><ele>213</ele><time>2021-10-07T10:17:58Z</time><name>PT180</name></trkpt>
<trkpt lat="53.380605" lon="-1.926412"><ele>215</ele><time>2021-10-07T10:17:59Z</time><name>PT181</name></trkpt>
<trkpt lat="53.380622" lon="-1.926398"><ele>215</ele><time>2021-10-07T10:18:00Z</time><name>PT182</name></trkpt>
<trkpt lat="53.380629" lon="-1.926390"><ele>215</ele><time>2021-10-07T10:18:01Z</time><name>PT183</name></trkpt>
<trkpt lat="53.380635" lon="-1.926383"><ele>215</ele><time>2021-10-07T10:18:02Z</time><name>PT184</name></trkpt>
<trkpt lat="53.380641" lon="-1.926371"><ele>215</ele><time>2021-10-07T10:18:03Z</time><name>PT185</name></trkpt>
<trkpt lat="53.380644" lon="-1.926358"><ele>215</ele><time>2021-10-07T10:18:04Z</time><name>PT186</name></trkpt>
<trkpt lat="53.380645" lon="-1.926345"><ele>215</ele><time>2021-10-07T10:18:05Z</time><name>PT187</name></trkpt>
<trkpt lat="53.380658" lon="-1.926336"><ele>216</ele><time>2021-10-07T10:18:06Z</time><name>PT188</name></trkpt>
<trkpt lat="53.380673" lon="-1.926326"><ele>216</ele><time>2021-10-07T10:18:07Z</time><name>PT189</name></trkpt>
<trkpt lat="53.380681" lon="-1.926312"><ele>216</ele><time>2021-10-07T10:18:08Z</time><name>PT190</name></trkpt>
<trkpt lat="53.380690" lon="-1.926314"><ele>214</ele><time>2021-10-07T10:18:09Z</time><name>PT191</name></trkpt>
<trkpt lat="53.380698" lon="-1.926294"><ele>215</ele><time>2021-10-07T10:18:10Z</time><name>PT192</name></trkpt>
<trkpt lat="53.380709" lon="-1.926290"><ele>215</ele><time>2021-10-07T10:18:11Z</time><name>PT193</name></trkpt>
<trkpt lat="53.380721" lon="-1.926276"><ele>215</ele><time>2021-10-07T10:18:12Z</time><name>PT194</name></trkpt>
<trkpt lat="53.380731" lon="-1.926260"><ele>216</ele><time>2021-10-07T10:18:13Z</time><name>PT195</name></trkpt>
<trkpt lat="53.380739" lon="-1.926255"><ele>215</ele><time>2021-10-07T10:18:14Z</time><name>PT196</name></trkpt>
<trkpt lat="53.380753" lon="-1.926241"><ele>216</ele><time>2021-10-07T10:18:15Z</time><name>PT197</name></trkpt>
<trkpt lat="53.380763" lon="-1.926229"><ele>216</ele><time>2021-10-07T10:18:16Z</time><name>PT198</name></trkpt>
<trkpt lat="53.380773" lon="-1.926218"><ele>217</ele><time>2021-10-07T10:18:17Z</time><name>PT199</name></trkpt>
<trkpt lat="53.380781" lon="-1.926206"><ele>217</ele><time>2021-10-07T10:18:18Z</time><name>PT200</name></trkpt>
<trkpt lat="53.380787" lon="-1.926191"><ele>217</ele><time>2021-10-07T10:18:19Z</time><name>PT201</name></trkpt>
<trkpt lat="53.380798" lon="-1.926189"><ele>216</ele><time>2021-10-07T10:18:20Z</time><name>PT202</name></trkpt>
<trkpt lat="53.380804" lon="-1.926172"><ele>216</ele><time>2021-10-07T10:18:21Z</time><name>PT203</name></trkpt>
<trkpt lat="53.380812" lon="-1.926165"><ele>215</ele><time>2021-10-07T10:18:22Z</time><name>PT204</name></trkpt>
<trkpt lat="53.380819" lon="-1.926150"><ele>216</ele><time>2021-10-07T10:18:23Z</time><name>PT205</name></trkpt>
<trkpt lat="53.380828" lon="-1.926134"><ele>217</ele><time>2021-10-07T10:18:24Z</time><name>PT206</name></trkpt>
<trkpt lat="53.380840" lon="-1.926118"><ele>218</ele><time>2021-10-07T10:18:25Z</time><name>PT207</name></trkpt>
<trkpt lat="53.380857" lon="-1.926082"><ele>221</ele><time>2021-10-07T10:18:26Z</time><name>PT208</name></trkpt>
<trkpt lat="53.380865" lon="-1.926067"><ele>220</ele><time>2021-10-07T10:18:27Z</time><name>PT209</name></trkpt>
<trkpt lat="53.380877" lon="-1.926043"><ele>221</ele><time>2021-10-07T10:18:28Z</time><name>PT210</name></trkpt>
<trkpt lat="53.380889" lon="-1.926027"><ele>221</ele><time>2021-10-07T10:18:29Z</time><name>PT211</name></trkpt>
<trkpt lat="53.380900" lon="-1.926014"><ele>222</ele><time>2021-10-07T10:18:30Z</time><name>PT212</name></trkpt>
<trkpt lat="53.380912" lon="-1.926008"><ele>222</ele><time>2021-10-07T10:18:31Z</time><name>PT213</name></trkpt>
<trkpt lat="53.380921" lon="-1.925995"><ele>223</ele><time>2021-10-07T10:18:32Z</time><name>PT214</name></trkpt>
<trkpt lat="53.380937" lon="-1.925985"><ele>223</ele><time>2021-10-07T10:18:33Z</time><name>PT215</name></trkpt>
<trkpt lat="53.380949" lon="-1.925967"><ele>224</ele><time>2021-10-07T10:18:34Z</time><name>PT216</name></trkpt>
<trkpt lat="53.380953" lon="-1.925938"><ele>224</ele><time>2021-10-07T10:18:35Z</time><name>PT217</name></trkpt>
<trkpt lat="53.380966" lon="-1.925926"><ele>224</ele><time>2021-10-07T10:18:36Z</time><name>PT218</name></trkpt>
<trkpt lat="53.380978" lon="-1.925919"><ele>224</ele><time>2021-10-07T10:18:37Z</time><name>PT219</name></trkpt>
<trkpt lat="53.380990" lon="-1.925910"><ele>224</ele><time>2021-10-07T10:18:38Z</time><name>PT220</name></trkpt>
<trkpt lat="53.381003" lon="-1.925894"><ele>225</ele><time>2021-10-07T10:18:39Z</time><name>PT221</name></trkpt>
<trkpt lat="53.381015" lon="-1.925886"><ele>224</ele><time>2021-10-07T10:18:40Z</time><name>PT222</name></trkpt>
<trkpt lat="53.381024" lon="-1.925875"><ele>225</ele><time>2021-10-07T10:18:41Z</time><name>PT223</name></trkpt>
<trkpt lat="53.381041" lon="-1.925865"><ele>223</ele><time>2021-10-07T10:18:42Z</time><name>PT224</name></trkpt>
<trkpt lat="53.381054" lon="-1.925860"><ele>223</ele><time>2021-10-07T10:18:43Z</time><name>PT225</name></trkpt>
<trkpt lat="53.381066" lon="-1.925854"><ele>222</ele><time>2021-10-07T10:18:44Z</time><name>PT226</name></trkpt>
<trkpt lat="53.381075" lon="-1.925846"><ele>222</ele><time>2021-10-07T10:18:45Z</time><name>PT227</name></trkpt>
<trkpt lat="53.381091" lon="-1.925828"><ele>221</ele><time>2021-10-07T10:18:46Z</time><name>PT228</name></trkpt>
<trkpt lat="53.381107" lon="-1.925828"><ele>221</ele><time>2021-10-07T10:18:47Z</time><name>PT229</name></trkpt>
<trkpt lat="53.381115" lon="-1.925820"><ele>220</ele><time>2021-10-07T10:18:48Z</time><name>PT230</name></trkpt>
<trkpt lat="53.381122" lon="-1.925803"><ele>220</ele><time>2021-10-07T10:18:49Z</time><name>PT231</name></trkpt>
<trkpt lat="53.381131" lon="-1.925789"><ele>219</ele><time>2021-10-07T10:18:50Z</time><name>PT232</name></trkpt>
<trkpt lat="53.381132" lon="-1.925777"><ele>220</ele><time>2021-10-07T10:18:51Z</time><name>PT233</name></trkpt>
<trkpt lat="53.381141" lon="-1.925767"><ele>220</ele><time>2021-10-07T10:18:52Z</time><name>PT234</name></trkpt>
<trkpt lat="53.381149" lon="-1.925738"><ele>220</ele><time>2021-10-07T10:18:53Z</time><name>PT235</name></trkpt>
<trkpt lat="53.381154" lon="-1.925723"><ele>220</ele><time>2021-10-07T10:18:54Z</time><name>PT236</name></trkpt>
<trkpt lat="53.381164" lon="-1.925708"><ele>220</ele><time>2021-10-07T10:18:55Z</time><name>PT237</name></trkpt>
<trkpt lat="53.381171" lon="-1.925666"><ele>221</ele><time>2021-10-07T10:18:56Z</time><name>PT238</name></trkpt>
<trkpt lat="53.381189" lon="-1.925662"><ele>219</ele><time>2021-10-07T10:18:57Z</time><name>PT239</name></trkpt>
<trkpt lat="53.381202" lon="-1.925651"><ele>219</ele><time>2021-10-07T10:18:58Z</time><name>PT240</name></trkpt>
<trkpt lat="53.381212" lon="-1.925647"><ele>218</ele><time>2021-10-07T10:18:59Z</time><name>PT241</name></trkpt>
<trkpt lat="53.381227" lon="-1.925646"><ele>219</ele><time>2021-10-07T10:19:00Z</time><name>PT242</name></trkpt>
<trkpt lat="53.381237" lon="-1.925633"><ele>219</ele><time>2021-10-07T10:19:01Z</time><name>PT243</name></trkpt>
<trkpt lat="53.381248" lon="-1.925615"><ele>218</ele><time>2021-10-07T10:19:02Z</time><name>PT244</name></trkpt>
<trkpt lat="53.381254" lon="-1.925614"><ele>216</ele><time>2021-10-07T10:19:03Z</time><name>PT245</name></trkpt>
<trkpt lat="53.381266" lon="-1.925602"><ele>217</ele><time>2021-10-07T10:19:04Z</time><name>PT246</name></trkpt>
<trkpt lat="53.381280" lon="-1.925587"><ele>218</ele><time>2021-10-07T10:19:05Z</time><name>PT247</name></trkpt>
<trkpt lat="53.381294" lon="-1.925579"><ele>218</ele><time>2021-10-07T10:19:06Z</time><name>PT248</name></trkpt>
<trkpt lat="53.381305" lon="-1.925568"><ele>217</ele><time>2021-10-07T10:19:07Z</time><name>PT249</name></trkpt>
<trkpt lat="53.381316" lon="-1.925554"><ele>217</ele><time>2021-10-07T10:19:08Z</time><name>PT250</name></trkpt>
<trkpt lat="53.381327" lon="-1.925554"><ele>217</ele><time>2021-10-07T10:19:09Z</time><name>PT251</name></trkpt>
<trkpt lat="53.381347" lon="-1.925553"><ele>217</ele><time>2021-10-07T10:19:10Z</time><name>PT252</name></trkpt>
<trkpt lat="53.381358" lon="-1.925544"><ele>218</ele><time>2021-10-07T10:19:11Z</time><name>PT253</name></trkpt>
<trkpt lat="53.381374" lon="-1.925528"><ele>218</ele><time>2021-10-07T10:19:12Z</time><name>PT254</name></trkpt>
<trkpt lat="53.381387" lon="-1.925517"><ele>218</ele><time>2021-10-07T10:19:13Z</time><name>PT255</name></trkpt>
<trkpt lat="53.381399" lon="-1.925508"><ele>217</ele><time>2021-10-07T10:19:14Z</time><name>PT256</name></trkpt>
<trkpt lat="53.381416" lon="-1.925505"><ele>218</ele><time>2021-10-07T10:19:15Z</time><name>PT257</name></trkpt>
<trkpt lat="53.381430" lon="-1.925498"><ele>218</ele><time>2021-10-07T10:19:16Z</time><name>PT258</name></trkpt>
<trkpt lat="53.381443" lon="-1.925482"><ele>218</ele><time>2021-10-07T10:19:17Z</time><name>PT259</name></trkpt>
<trkpt lat="53.381455" lon="-1.925460"><ele>219</ele><time>2021-10-07T10:19:18Z</time><name>PT260</name></trkpt>
<trkpt lat="53.381464" lon="-1.925440"><ele>219</ele><time>2021-10-07T10:19:19Z</time><name>PT261</name></trkpt>
<trkpt lat="53.381475" lon="-1.925438"><ele>219</ele><time>2021-10-07T10:19:20Z</time><name>PT262</name></trkpt>
<trkpt lat="53.381494" lon="-1.925447"><ele>220</ele><time>2021-10-07T10:19:21Z</time><name>PT263</name></trkpt>
<trkpt lat="53.381506" lon="-1.925446"><ele>221</ele><time>2021-10-07T10:19:22Z</time><name>PT264</name></trkpt>
<trkpt lat="53.381519" lon="-1.925439"><ele>221</ele><time>2021-10-07T10:19:23Z</time><name>PT265</name></trkpt>
<trkpt lat="53.381524" lon="-1.925419"><ele>221</ele><time>2021-10-07T10:19:24Z</time><name>PT266</name></trkpt>
<trkpt lat="53.381540" lon="-1.925415"><ele>222</ele><time>2021-10-07T10:19:25Z</time><name>PT267</name></trkpt>
<trkpt lat="53.381553" lon="-1.925411"><ele>223</ele><time>2021-10-07T10:19:26Z</time><name>PT268</name></trkpt>
<trkpt lat="53.381566" lon="-1.925402"><ele>224</ele><time>2021-10-07T10:19:27Z</time><name>PT269</name></trkpt>
<trkpt lat="53.381576" lon="-1.925387"><ele>224</ele><time>2021-10-07T10:19:28Z</time><name>PT270</name></trkpt>
<trkpt lat="53.381589" lon="-1.925386"><ele>223</ele><time>2021-10-07T10:19:29Z</time><name>PT271</name></trkpt>
<trkpt lat="53.381599" lon="-1.925377"><ele>223</ele><time>2021-10-07T10:19:30Z</time><name>PT272</name></trkpt>
<trkpt lat="53.381608" lon="-1.925375"><ele>222</ele><time>2021-10-07T10:19:31Z</time><name>PT273</name></trkpt>
<trkpt lat="53.381624" lon="-1.925361"><ele>222</ele><time>2021-10-07T10:19:32Z</time><name>PT274</name></trkpt>
<trkpt lat="53.381639" lon="-1.925360"><ele>222</ele><time>2021-10-07T10:19:33Z</time><name>PT275</name></trkpt>
<trkpt lat="53.381656" lon="-1.925355"><ele>223</ele><time>2021-10-07T10:19:34Z</time><name>PT276</name></trkpt>
<trkpt lat="53.381666" lon="-1.925351"><ele>222</ele><time>2021-10-07T10:19:35Z</time><name>PT277</name></trkpt>
<trkpt lat="53.381663" lon="-1.925342"><ele>222</ele><time>2021-10-07T10:19:36Z</time><name>PT278</name></trkpt>
<trkpt lat="53.381663" lon="-1.925311"><ele>223</ele><time>2021-10-07T10:19:37Z</time><name>PT279</name></trkpt>
<trkpt lat="53.381675" lon="-1.925297"><ele>223</ele><time>2021-10-07T10:19:38Z</time><name>PT280</name></trkpt>
<trkpt lat="53.381685" lon="-1.925293"><ele>223</ele><time>2021-10-07T10:19:39Z</time><name>PT281</name></trkpt>
<trkpt lat="53.381694" lon="-1.925278"><ele>224</ele><time>2021-10-07T10:19:40Z</time><name>PT282</name></trkpt>
<trkpt lat="53.381714" lon="-1.925295"><ele>224</ele><time>2021-10-07T10:19:41Z</time><name>PT283</name></trkpt>
<trkpt lat="53.381723" lon="-1.925292"><ele>224</ele><time>2021-10-07T10:19:42Z</time><name>PT284</name></trkpt>
<trkpt lat="53.381733" lon="-1.925284"><ele>223</ele><time>2021-10-07T10:19:43Z</time><name>PT285</name></trkpt>
<trkpt lat="53.381747" lon="-1.925252"><ele>226</ele><time>2021-10-07T10:19:44Z</time><name>PT286</name></trkpt>
<trkpt lat="53.381763" lon="-1.925252"><ele>225</ele><time>2021-10-07T10:19:45Z</time><name>PT287</name></trkpt>
<trkpt lat="53.381772" lon="-1.925233"><ele>225</ele><time>2021-10-07T10:19:46Z</time><name>PT288</name></trkpt>
<trkpt lat="53.381783" lon="-1.925228"><ele>224</ele><time>2021-10-07T10:19:47Z</time><name>PT289</name></trkpt>
<trkpt lat="53.381795" lon="-1.925221"><ele>223</ele><time>2021-10-07T10:19:48Z</time><name>PT290</name></trkpt>
<trkpt lat="53.381803" lon="-1.925189"><ele>225</ele><time>2021-10-07T10:19:49Z</time><name>PT291</name></trkpt>
<trkpt lat="53.381816" lon="-1.925176"><ele>225</ele><time>2021-10-07T10:19:50Z</time><name>PT292</name></trkpt>
<trkpt lat="53.381826" lon="-1.925164"><ele>225</ele><time>2021-10-07T10:19:51Z</time><name>PT293</name></trkpt>
<trkpt lat="53.381833" lon="-1.925150"><ele>225</ele><time>2021-10-07T10:19:52Z</time><name>PT294</name></trkpt>
<trkpt lat="53.381843" lon="-1.925139"><ele>224</ele><time>2021-10-07T10:19:53Z</time><name>PT295</name></trkpt>
<trkpt lat="53.381850" lon="-1.925132"><ele>223</ele><time>2021-10-07T10:19:54Z</time><name>PT296</name></trkpt>
<trkpt lat="53.381863" lon="-1.925123"><ele>223</ele><time>2021-10-07T10:19:55Z</time><name>PT297</name></trkpt>
<trkpt lat="53.381888" lon="-1.925113"><ele>221</ele><time>2021-10-07T10:19:56Z</time><name>PT298</name></trkpt>
<trkpt lat="53.381927" lon="-1.925078"><ele>220</ele><time>2021-10-07T10:20:00Z</time><name>PT299</name></trkpt>
<trkpt lat="53.381973" lon="-1.925064"><ele>220</ele><time>2021-10-07T10:20:04Z</time><name>PT300</name></trkpt>
<trkpt lat="53.382012" lon="-1.925034"><ele>221</ele><time>2021-10-07T10:20:08Z</time><name>PT301</name></trkpt>
<trkpt lat="53.382058" lon="-1.925000"><ele>222</ele><time>2021-10-07T10:20:12Z</time><name>PT302</name></trkpt>
<trkpt lat="53.382100" lon="-1.924956"><ele>224</ele><time>2021-10-07T10:20:16Z</time><name>PT303</name></trkpt>
<trkpt lat="53.382152" lon="-1.924936"><ele>224</ele><time>2021-10-07T10:20:20Z</time><name>PT304</name></trkpt>
<trkpt lat="53.382196" lon="-1.924917"><ele>223</ele><time>2021-10-07T10:20:24Z</time><name>PT305</name></trkpt>
<trkpt lat="53.382236" lon="-1.924892"><ele>222</ele><time>2021-10-07T10:20:28Z</time><name>PT306</name></trkpt>
<trkpt lat="53.382285" lon="-1.924882"><ele>221</ele><time>2021-10-07T10:20:32Z</time><name>PT307</name></trkpt>
<trkpt lat="53.382343" lon="-1.924834"><ele>225</ele><time>2021-10-07T10:20:36Z</time><name>PT308</name></trkpt>
<trkpt lat="53.382393" lon="-1.924820"><ele>222</ele><time>2021-10-07T10:20:40Z</time><name>PT309</name></trkpt>
<trkpt lat="53.382453" lon="-1.924801"><ele>220</ele><time>2021-10-07T10:20:44Z</time><name>PT310</name></trkpt>
<trkpt lat="53.382507" lon="-1.924789"><ele>221</ele><time>2021-10-07T10:20:48Z</time><name>PT311</name></trkpt>
<trkpt lat="53.382544" lon="-1.924786"><ele>221</ele><time>2021-10-07T10:20:52Z</time><name>PT312</name></trkpt>
<trkpt lat="53.382612" lon="-1.924775"><ele>223</ele><time>2021-10-07T10:20:56Z</time><name>PT313</name></trkpt>
<trkpt lat="53.382662" lon="-1.924746"><ele>225</ele><time>2021-10-07T10:21:00Z</time><name>PT314</name></trkpt>
<trkpt lat="53.382705" lon="-1.924712"><ele>227</ele><time>2021-10-07T10:21:04Z</time><name>PT315</name></trkpt>
<trkpt lat="53.382707" lon="-1.924690"><ele>231</ele><time>2021-10-07T10:21:08Z</time><name>PT316</name></trkpt>
<trkpt lat="53.382704" lon="-1.924689"><ele>230</ele><time>2021-10-07T10:21:12Z</time><name>PT317</name></trkpt>
<trkpt lat="53.382706" lon="-1.924697"><ele>230</ele><time>2021-10-07T10:21:20Z</time><name>PT318</name></trkpt>
<trkpt lat="53.382731" lon="-1.924676"><ele>229</ele><time>2021-10-07T10:21:24Z</time><name>PT319</name></trkpt>
<trkpt lat="53.382774" lon="-1.924679"><ele>229</ele><time>2021-10-07T10:21:28Z</time><name>PT320</name></trkpt>
<trkpt lat="53.382826" lon="-1.924694"><ele>228</ele><time>2021-10-07T10:21:32Z</time><name>PT321</name></trkpt>
<trkpt lat="53.382880" lon="-1.924716"><ele>226</ele><time>2021-10-07T10:21:36Z</time><name>PT322</name></trkpt>
<trkpt lat="53.382923" lon="-1.924723"><ele>225</ele><time>2021-10-07T10:21:40Z</time><name>PT323</name></trkpt>
<trkpt lat="53.382952" lon="-1.924701"><ele>224</ele><time>2021-10-07T10:21:44Z</time><name>PT324</name></trkpt>
<trkpt lat="53.382999" lon="-1.924743"><ele>218</ele><time>2021-10-07T10:21:48Z</time><name>PT325</name></trkpt>
<trkpt lat="53.383031" lon="-1.924730"><ele>216</ele><time>2021-10-07T10:21:52Z</time><name>PT326</name></trkpt>
<trkpt lat="53.383066" lon="-1.924735"><ele>214</ele><time>2021-10-07T10:21:56Z</time><name>PT327</name></trkpt>
<trkpt lat="53.383139" lon="-1.924736"><ele>219</ele><time>2021-10-07T10:22:00Z</time><name>PT328</name></trkpt>
<trkpt lat="53.383203" lon="-1.924748"><ele>221</ele><time>2021-10-07T10:22:04Z</time><name>PT329</name></trkpt>
<trkpt lat="53.383239" lon="-1.924770"><ele>218</ele><time>2021-10-07T10:22:08Z</time><name>PT330</name></trkpt>
<trkpt lat="53.383283" lon="-1.924787"><ele>219</ele><time>2021-10-07T10:22:12Z</time><name>PT331</name></trkpt>
<trkpt lat="53.383320" lon="-1.924776"><ele>219</ele><time>2021-10-07T10:22:16Z</time><name>PT332</name></trkpt>
<trkpt lat="53.383357" lon="-1.924798"><ele>221</ele><time>2021-10-07T10:22:20Z</time><name>PT333</name></trkpt>
<trkpt lat="53.383406" lon="-1.924826"><ele>222</ele><time>2021-10-07T10:22:24Z</time><name>PT334</name></trkpt>
<trkpt lat="53.383451" lon="-1.924858"><ele>225</ele><time>2021-10-07T10:22:28Z</time><name>PT335</name></trkpt>
<trkpt lat="53.383508" lon="-1.924844"><ele>226</ele><time>2021-10-07T10:22:32Z</time><name>PT336</name></trkpt>
<trkpt lat="53.383554" lon="-1.924871"><ele>227</ele><time>2021-10-07T10:22:36Z</time><name>PT337</name></trkpt>
<trkpt lat="53.383596" lon="-1.924875"><ele>229</ele><time>2021-10-07T10:22:40Z</time><name>PT338</name></trkpt>
<trkpt lat="53.383641" lon="-1.924886"><ele>229</ele><time>2021-10-07T10:22:44Z</time><name>PT339</name></trkpt>
<trkpt lat="53.383688" lon="-1.924910"><ele>227</ele><time>2021-10-07T10:22:48Z</time><name>PT340</name></trkpt>
<trkpt lat="53.383778" lon="-1.924911"><ele>235</ele><time>2021-10-07T10:22:52Z</time><name>PT341</name></trkpt>
<trkpt lat="53.383826" lon="-1.924908"><ele>236</ele><time>2021-10-07T10:22:56Z</time><name>PT342</name></trkpt>
<trkpt lat="53.383874" lon="-1.924891"><ele>234</ele><time>2021-10-07T10:23:00Z</time><name>PT343</name></trkpt>
<trkpt lat="53.383882" lon="-1.924874"><ele>228</ele><time>2021-10-07T10:23:04Z</time><name>PT344</name></trkpt>
<trkpt lat="53.383951" lon="-1.924886"><ele>229</ele><time>2021-10-07T10:23:08Z</time><name>PT345</name></trkpt>
<trkpt lat="53.384012" lon="-1.924881"><ele>229</ele><time>2021-10-07T10:23:12Z</time><name>PT346</name></trkpt>
<trkpt lat="53.384085" lon="-1.924862"><ele>232</ele><time>2021-10-07T10:23:16Z</time><name>PT347</name></trkpt>
<trkpt lat="53.384160" lon="-1.924836"><ele>238</ele><time>2021-10-07T10:23:20Z</time><name>PT348</name></trkpt>
<trkpt lat="53.384241" lon="-1.924809"><ele>242</ele><time>2021-10-07T10:23:24Z</time><name>PT349</name></trkpt>
<trkpt lat="53.384298" lon="-1.924760"><ele>246</ele><time>2021-10-07T10:23:28Z</time><name>PT350</name></trkpt>
<trkpt lat="53.384347" lon="-1.924730"><ele>247</ele><time>2021-10-07T10:23:32Z</time><name>PT351</name></trkpt>
<trkpt lat="53.384412" lon="-1.924712"><ele>247</ele><time>2021-10-07T10:23:36Z</time><name>PT352</name></trkpt>
<trkpt lat="53.384430" lon="-1.924692"><ele>242</ele><time>2021-10-07T10:23:40Z</time><name>PT353</name></trkpt>
<trkpt lat="53.384472" lon="-1.924681"><ele>241</ele><time>2021-10-07T10:23:44Z</time><name>PT354</name></trkpt>
<trkpt lat="53.384516" lon="-1.924651"><ele>241</ele><time>2021-10-07T10:23:48Z</time><name>PT355</name></trkpt>
<trkpt lat="53.384552" lon="-1.924647"><ele>236</ele><time>2021-10-07T10:23:52Z</time><name>PT356</name></trkpt>
<trkpt lat="53.384600" lon="-1.924651"><ele>234</ele><time>2021-10-07T10:23:56Z</time><name>PT357</name></trkpt>
<trkpt lat="53.384650" lon="-1.924636"><ele>235</ele><time>2021-10-07T10:24:00Z</time><name>PT358</name></trkpt>
<trkpt lat="53.384702" lon="-1.924631"><ele>234</ele><time>2021-10-07T10:24:04Z</time><name>PT359</name></trkpt>
<trkpt lat="53.384741" lon="-1.924609"><ele>233</ele><time>2021-10-07T10:24:08Z</time><name>PT360</name></trkpt>
<trkpt lat="53.384804" lon="-1.924599"><ele>234</ele><time>2021-10-07T10:24:12Z</time><name>PT361</name></trkpt>
<trkpt lat="53.384859" lon="-1.924562"><ele>235</ele><time>2021-10-07T10:24:16Z</time><name>PT362</name></trkpt>
<trkpt lat="53.384941" lon="-1.924568"><ele>237</ele><time>2021-10-07T10:24:20Z</time><name>PT363</name></trkpt>
<trkpt lat="53.384995" lon="-1.924536"><ele>239</ele><time>2021-10-07T10:24:24Z</time><name>PT364</name></trkpt>
<trkpt lat="53.385048" lon="-1.924509"><ele>239</ele><time>2021-10-07T10:24:28Z</time><name>PT365</name></trkpt>
<trkpt lat="53.385122" lon="-1.924489"><ele>242</ele><time>2021-10-07T10:24:32Z</time><name>PT366</name></trkpt>
<trkpt lat="53.385162" lon="-1.924468"><ele>245</ele><time>2021-10-07T10:24:36Z</time><name>PT367</name></trkpt>
<trkpt lat="53.385207" lon="-1.924476"><ele>248</ele><time>2021-10-07T10:24:40Z</time><name>PT368</name></trkpt>
<trkpt lat="53.385260" lon="-1.924469"><ele>249</ele><time>2021-10-07T10:24:44Z</time><name>PT369</name></trkpt>
<trkpt lat="53.385318" lon="-1.924497"><ele>247</ele><time>2021-10-07T10:24:48Z</time><name>PT370</name></trkpt>
<trkpt lat="53.385358" lon="-1.924488"><ele>245</ele><time>2021-10-07T10:24:52Z</time><name>PT371</name></trkpt>
<trkpt lat="53.385391" lon="-1.924468"><ele>242</ele><time>2021-10-07T10:24:56Z</time><name>PT372</name></trkpt>
<trkpt lat="53.385451" lon="-1.924450"><ele>244</ele><time>2021-10-07T10:25:00Z</time><name>PT373</name></trkpt>
<trkpt lat="53.385504" lon="-1.924465"><ele>241</ele><time>2021-10-07T10:25:04Z</time><name>PT374</name></trkpt>
<trkpt lat="53.385558" lon="-1.924447"><ele>243</ele><time>2021-10-07T10:25:08Z</time><name>PT375</name></trkpt>
<trkpt lat="53.385587" lon="-1.924445"><ele>243</ele><time>2021-10-07T10:25:12Z</time><name>PT376</name></trkpt>
<trkpt lat="53.385656" lon="-1.924439"><ele>242</ele><time>2021-10-07T10:25:16Z</time><name>PT377</name></trkpt>
<trkpt lat="53.385703" lon="-1.924424"><ele>243</ele><time>2021-10-07T10:25:18Z</time><name>PT378</name></trkpt>
<trkpt lat="53.385720" lon="-1.924415"><ele>243</ele><time>2021-10-07T10:25:19Z</time><name>PT379</name></trkpt>
<trkpt lat="53.385730" lon="-1.924413"><ele>244</ele><time>2021-10-07T10:25:20Z</time><name>PT380</name></trkpt>
<trkpt lat="53.385743" lon="-1.924407"><ele>243</ele><time>2021-10-07T10:25:21Z</time><name>PT381</name></trkpt>
<trkpt lat="53.385757" lon="-1.924398"><ele>243</ele><time>2021-10-07T10:25:22Z</time><name>PT382</name></trkpt>
<trkpt lat="53.385766" lon="-1.924385"><ele>244</ele><time>2021-10-07T10:25:23Z</time><name>PT383</name></trkpt>
<trkpt lat="53.385779" lon="-1.924377"><ele>244</ele><time>2021-10-07T10:25:24Z</time><name>PT384</name></trkpt>
<trkpt lat="53.385791" lon="-1.924373"><ele>244</ele><time>2021-10-07T10:25:25Z</time><name>PT385</name></trkpt>
<trkpt lat="53.385805" lon="-1.924371"><ele>243</ele><time>2021-10-07T10:25:26Z</time><name>PT386</name></trkpt>
<trkpt lat="53.385821" lon="-1.924364"><ele>245</ele><time>2021-10-07T10:25:27Z</time><name>PT387</name></trkpt>
<trkpt lat="53.385829" lon="-1.924358"><ele>244</ele><time>2021-10-07T10:25:28Z</time><name>PT388</name></trkpt>
<trkpt lat="53.385837" lon="-1.924357"><ele>244</ele><time>2021-10-07T10:25:29Z</time><name>PT389</name></trkpt>
<trkpt lat="53.385848" lon="-1.924355"><ele>244</ele><time>2021-10-07T10:25:30Z</time><name>PT390</name></trkpt>
<trkpt lat="53.385850" lon="-1.924348"><ele>245</ele><time>2021-10-07T10:25:31Z</time><name>PT391</name></trkpt>
<trkpt lat="53.385856" lon="-1.924341"><ele>245</ele><time>2021-10-07T10:25:32Z</time><name>PT392</name></trkpt>
<trkpt lat="53.385866" lon="-1.924336"><ele>245</ele><time>2021-10-07T10:25:33Z</time><name>PT393</name></trkpt>
<trkpt lat="53.385874" lon="-1.924330"><ele>246</ele><time>2021-10-07T10:25:34Z</time><name>PT394</name></trkpt>
<trkpt lat="53.385878" lon="-1.924335"><ele>246</ele><time>2021-10-07T10:25:35Z</time><name>PT395</name></trkpt>
<trkpt lat="53.385884" lon="-1.924331"><ele>246</ele><time>2021-10-07T10:25:36Z</time><name>PT396</name></trkpt>
<trkpt lat="53.385892" lon="-1.924334"><ele>247</ele><time>2021-10-07T10:25:37Z</time><name>PT397</name></trkpt>
<trkpt lat="53.385904" lon="-1.924338"><ele>247</ele><time>2021-10-07T10:25:38Z</time><name>PT398</name></trkpt>
<trkpt lat="53.385914" lon="-1.924334"><ele>248</ele><time>2021-10-07T10:25:39Z</time><name>PT399</name></trkpt>
<trkpt lat="53.385915" lon="-1.924335"><ele>247</ele><time>2021-10-07T10:25:40Z</time><name>PT400</name></trkpt>
<trkpt lat="53.385923" lon="-1.924337"><ele>246</ele><time>2021-10-07T10:25:41Z</time><name>PT401</name></trkpt>
<trkpt lat="53.385932" lon="-1.924345"><ele>247</ele><time>2021-10-07T10:25:42Z</time><name>PT402</name></trkpt>
<trkpt lat="53.385941" lon="-1.924350"><ele>243</ele><time>2021-10-07T10:25:43Z</time><name>PT403</name></trkpt>
<trkpt lat="53.385953" lon="-1.924351"><ele>243</ele><time>2021-10-07T10:25:44Z</time><name>PT404</name></trkpt>
<trkpt lat="53.385971" lon="-1.924342"><ele>243</ele><time>2021-10-07T10:25:45Z</time><name>PT405</name></trkpt>
<trkpt lat="53.385985" lon="-1.924334"><ele>245</ele><time>2021-10-07T10:25:46Z</time><name>PT406</name></trkpt>
<trkpt lat="53.385994" lon="-1.924335"><ele>245</ele><time>2021-10-07T10:25:47Z</time><name>PT407</name></trkpt>
<trkpt lat="53.386005" lon="-1.924342"><ele>244</ele><time>2021-10-07T10:25:48Z</time><name>PT408</name></trkpt>
<trkpt lat="53.386017" lon="-1.924349"><ele>244</ele><time>2021-10-07T10:25:49Z</time><name>PT409</name></trkpt>
<trkpt lat="53.386036" lon="-1.924344"><ele>245</ele><time>2021-10-07T10:25:50Z</time><name>PT410</name></trkpt>
<trkpt lat="53.386045" lon="-1.924339"><ele>245</ele><time>2021-10-07T10:25:51Z</time><name>PT411</name></trkpt>
<trkpt lat="53.386054" lon="-1.924329"><ele>245</ele><time>2021-10-07T10:25:52Z</time><name>PT412</name></trkpt>
<trkpt lat="53.386068" lon="-1.924320"><ele>246</ele><time>2021-10-07T10:25:53Z</time><name>PT413</name></trkpt>
<trkpt lat="53.386078" lon="-1.924306"><ele>246</ele><time>2021-10-07T10:25:54Z</time><name>PT414</name></trkpt>
<trkpt lat="53.386098" lon="-1.924305"><ele>248</ele><time>2021-10-07T10:25:55Z</time><name>PT415</name></trkpt>
<trkpt lat="53.386113" lon="-1.924312"><ele>248</ele><time>2021-10-07T10:25:56Z</time><name>PT416</name></trkpt>
<trkpt lat="53.386132" lon="-1.924319"><ele>247</ele><time>2021-10-07T10:25:57Z</time><name>PT417</name></trkpt>
<trkpt lat="53.386149" lon="-1.924322"><ele>247</ele><time>2021-10-07T10:25:58Z</time><name>PT418</name></trkpt>
<trkpt lat="53.386154" lon="-1.924318"><ele>246</ele><time>2021-10-07T10:25:59Z</time><name>PT419</name></trkpt>
<trkpt lat="53.386163" lon="-1.924297"><ele>247</ele><time>2021-10-07T10:26:00Z</time><name>PT420</name></trkpt>
<trkpt lat="53.386164" lon="-1.924278"><ele>246</ele><time>2021-10-07T10:26:01Z</time><name>PT421</name></trkpt>
<trkpt lat="53.386183" lon="-1.924300"><ele>247</ele><time>2021-10-07T10:26:02Z</time><name>PT422</name></trkpt>
<trkpt lat="53.386195" lon="-1.924304"><ele>246</ele><time>2021-10-07T10:26:03Z</time><name>PT423</name></trkpt>
<trkpt lat="53.386205" lon="-1.924298"><ele>247</ele><time>2021-10-07T10:26:04Z</time><name>PT424</name></trkpt>
<trkpt lat="53.386220" lon="-1.924294"><ele>245</ele><time>2021-10-07T10:26:05Z</time><name>PT425</name></trkpt>
<trkpt lat="53.386231" lon="-1.924292"><ele>245</ele><time>2021-10-07T10:26:06Z</time><name>PT426</name></trkpt>
<trkpt lat="53.386246" lon="-1.924276"><ele>247</ele><time>2021-10-07T10:26:07Z</time><name>PT427</name></trkpt>
<trkpt lat="53.386256" lon="-1.924256"><ele>247</ele><time>2021-10-07T10:26:08Z</time><name>PT428</name></trkpt>
<trkpt lat="53.386269" lon="-1.924262"><ele>245</ele><time>2021-10-07T10:26:09Z</time><name>PT429</name></trkpt>
<trkpt lat="53.386277" lon="-1.924258"><ele>244</ele><time>2021-10-07T10:26:10Z</time><name>PT430</name></trkpt>
<trkpt lat="53.386291" lon="-1.924242"><ele>245</ele><time>2021-10-07T10:26:11Z</time><name>PT431</name></trkpt>
<trkpt lat="53.386302" lon="-1.924236"><ele>244</ele><time>2021-10-07T10:26:12Z</time><name>PT432</name></trkpt>
<trkpt lat="53.386311" lon="-1.924234"><ele>244</ele><time>2021-10-07T10:26:13Z</time><name>PT433</name></trkpt>
<trkpt lat="53.386317" lon="-1.924233"><ele>243</ele><time>2021-10-07T10:26:14Z</time><name>PT434</name></trkpt>
<trkpt lat="53.386332" lon="-1.924222"><ele>244</ele><time>2021-10-07T10:26:15Z</time><name>PT435</name></trkpt>
<trkpt lat="53.386341" lon="-1.924214"><ele>242</ele><time>2021-10-07T10:26:16Z</time><name>PT436</name></trkpt>
<trkpt lat="53.386354" lon="-1.924204"><ele>241</ele><time>2021-10-07T10:26:17Z</time><name>PT437</name></trkpt>
<trkpt lat="53.386375" lon="-1.924197"><ele>240</ele><time>2021-10-07T10:26:18Z</time><name>PT438</name></trkpt>
<trkpt lat="53.386396" lon="-1.924189"><ele>240</ele><time>2021-10-07T10:26:19Z</time><name>PT439</name></trkpt>
<trkpt lat="53.386414" lon="-1.924174"><ele>239</ele><time>2021-10-07T10:26:20Z</time><name>PT440</name></trkpt>
<trkpt lat="53.386424" lon="-1.924170"><ele>239</ele><time>2021-10-07T10:26:21Z</time><name>PT441</name></trkpt>
<trkpt lat="53.386447" lon="-1.924170"><ele>238</ele><time>2021-10-07T10:26:22Z</time><name>PT442</name></trkpt>
<trkpt lat="53.386460" lon="-1.924160"><ele>237</ele><time>2021-10-07T10:26:23Z</time><name>PT443</name></trkpt>
<trkpt lat="53.386467" lon="-1.924139"><ele>237</ele><time>2021-10-07T10:26:24Z</time><name>PT444</name></trkpt>
<trkpt lat="53.386477" lon="-1.924116"><ele>237</ele><time>2021-10-07T10:26:25Z</time><name>PT445</name></trkpt>
<trkpt lat="53.386485" lon="-1.924112"><ele>237</ele><time>2021-10-07T10:26:26Z</time><name>PT446</name></trkpt>
<trkpt lat="53.386494" lon="-1.924105"><ele>237</ele><time>2021-10-07T10:26:27Z</time><name>PT447</name></trkpt>
<trkpt lat="53.386505" lon="-1.924093"><ele>237</ele><time>2021-10-07T10:26:28Z</time><name>PT448</name></trkpt>
<trkpt lat="53.386517" lon="-1.924087"><ele>238</ele><time>2021-10-07T10:26:29Z</time><name>PT449</name></trkpt>
<trkpt lat="53.386524" lon="-1.924082"><ele>239</ele><time>2021-10-07T10:26:30Z</time><name>PT450</name></trkpt>
<trkpt lat="53.386534" lon="-1.924070"><ele>239</ele><time>2021-10-07T10:26:31Z</time><name>PT451</name></trkpt>
<trkpt lat="53.386544" lon="-1.924045"><ele>240</ele><time>2021-10-07T10:26:32Z</time><name>PT452</name></trkpt>
<trkpt lat="53.386555" lon="-1.924040"><ele>242</ele><time>2021-10-07T10:26:33Z</time><name>PT453</name></trkpt>
<trkpt lat="53.386571" lon="-1.924023"><ele>243</ele><time>2021-10-07T10:26:34Z</time><name>PT454</name></trkpt>
<trkpt lat="53.386586" lon="-1.924009"><ele>243</ele><time>2021-10-07T10:26:35Z</time><name>PT455</name></trkpt>
<trkpt lat="53.386605" lon="-1.924011"><ele>240</ele><time>2021-10-07T10:26:36Z</time><name>PT456</name></trkpt>
<trkpt lat="53.386616" lon="-1.924005"><ele>239</ele><time>2021-10-07T10:26:37Z</time><name>PT457</name></trkpt>
<trkpt lat="53.386632" lon="-1.923991"><ele>238</ele><time>2021-10-07T10:26:38Z</time><name>PT458</name></trkpt>
<trkpt lat="53.386645" lon="-1.923983"><ele>236</ele><time>2021-10-07T10:26:39Z</time><name>PT459</name></trkpt>
<trkpt lat="53.386657" lon="-1.923982"><ele>236</ele><time>2021-10-07T10:26:40Z</time><name>PT460</name></trkpt>
<trkpt lat="53.386665" lon="-1.923972"><ele>235</ele><time>2021-10-07T10:26:41Z</time><name>PT461</name></trkpt>
<trkpt lat="53.386678" lon="-1.923962"><ele>235</ele><time>2021-10-07T10:26:42Z</time><name>PT462</name></trkpt>
<trkpt lat="53.386704" lon="-1.923948"><ele>237</ele><time>2021-10-07T10:26:43Z</time><name>PT463</name></trkpt>
<trkpt lat="53.386719" lon="-1.923944"><ele>237</ele><time>2021-10-07T10:26:44Z</time><name>PT464</name></trkpt>
<trkpt lat="53.386736" lon="-1.923944"><ele>237</ele><time>2021-10-07T10:26:45Z</time><name>PT465</name></trkpt>
<trkpt lat="53.386748" lon="-1.923933"><ele>238</ele><time>2021-10-07T10:26:46Z</time><name>PT466</name></trkpt>
<trkpt lat="53.386758" lon="-1.923919"><ele>239</ele><time>2021-10-07T10:26:47Z</time><name>PT467</name></trkpt>
<trkpt lat="53.386769" lon="-1.923906"><ele>238</ele><time>2021-10-07T10:26:48Z</time><name>PT468</name></trkpt>
<trkpt lat="53.386771" lon="-1.923893"><ele>237</ele><time>2021-10-07T10:26:49Z</time><name>PT469</name></trkpt>
<trkpt lat="53.386778" lon="-1.923891"><ele>236</ele><time>2021-10-07T10:26:50Z</time><name>PT470</name></trkpt>
<trkpt lat="53.386791" lon="-1.923889"><ele>236</ele><time>2021-10-07T10:26:51Z</time><name>PT471</name></trkpt>
<trkpt lat="53.386805" lon="-1.923880"><ele>236</ele><time>2021-10-07T10:26:52Z</time><name>PT472</name></trkpt>
<trkpt lat="53.386815" lon="-1.923871"><ele>235</ele><time>2021-10-07T10:26:53Z</time><name>PT473</name></trkpt>
<trkpt lat="53.386823" lon="-1.923869"><ele>235</ele><time>2021-10-07T10:26:54Z</time><name>PT474</name></trkpt>
<trkpt lat="53.386830" lon="-1.923868"><ele>234</ele><time>2021-10-07T10:26:55Z</time><name>PT475</name></trkpt>
<trkpt lat="53.386846" lon="-1.923866"><ele>235</ele><time>2021-10-07T10:26:56Z</time><name>PT476</name></trkpt>
<trkpt lat="53.386852" lon="-1.923861"><ele>236</ele><time>2021-10-07T10:26:57Z</time><name>PT477</name></trkpt>
<trkpt lat="53.386856" lon="-1.923859"><ele>235</ele><time>2021-10-07T10:26:58Z</time><name>PT478</name></trkpt>
<trkpt lat="53.386864" lon="-1.923857"><ele>235</ele><time>2021-10-07T10:26:59Z</time><name>PT479</name></trkpt>
<trkpt lat="53.386871" lon="-1.923833"><ele>238</ele><time>2021-10-07T10:27:00Z</time><name>PT480</name></trkpt>
<trkpt lat="53.386889" lon="-1.923830"><ele>238</ele><time>2021-10-07T10:27:01Z</time><name>PT481</name></trkpt>
<trkpt lat="53.386903" lon="-1.923827"><ele>239</ele><time>2021-10-07T10:27:02Z</time><name>PT482</name></trkpt>
<trkpt lat="53.386916" lon="-1.923818"><ele>238</ele><time>2021-10-07T10:27:03Z</time><name>PT483</name></trkpt>
<trkpt lat="53.386928" lon="-1.923813"><ele>238</ele><time>2021-10-07T10:27:04Z</time><name>PT484</name></trkpt>
<trkpt lat="53.386954" lon="-1.923801"><ele>241</ele><time>2021-10-07T10:27:05Z</time><name>PT485</name></trkpt>
<trkpt lat="53.386969" lon="-1.923796"><ele>241</ele><time>2021-10-07T10:27:06Z</time><name>PT486</name></trkpt>
<trkpt lat="53.386987" lon="-1.923783"><ele>241</ele><time>2021-10-07T10:27:07Z</time><name>PT487</name></trkpt>
<trkpt lat="53.387002" lon="-1.923770"><ele>241</ele><time>2021-10-07T10:27:08Z</time><name>PT488</name></trkpt>
<trkpt lat="53.387011" lon="-1.923764"><ele>241</ele><time>2021-10-07T10:27:09Z</time><name>PT489</name></trkpt>
<trkpt lat="53.387026" lon="-1.923754"><ele>241</ele><time>2021-10-07T10:27:10Z</time><name>PT490</name></trkpt>
<trkpt lat="53.387039" lon="-1.923743"><ele>240</ele><time>2021-10-07T10:27:11Z</time><name>PT491</name></trkpt>
<trkpt lat="53.387042" lon="-1.923733"><ele>240</ele><time>2021-10-07T10:27:12Z</time><name>PT492</name></trkpt>
<trkpt lat="53.387057" lon="-1.923734"><ele>240</ele><time>2021-10-07T10:27:13Z</time><name>PT493</name></trkpt>
<trkpt lat="53.387080" lon="-1.923704"><ele>243</ele><time>2021-10-07T10:27:14Z</time><name>PT494</name></trkpt>
<trkpt lat="53.387099" lon="-1.923692"><ele>242</ele><time>2021-10-07T10:27:15Z</time><name>PT495</name></trkpt>
<trkpt lat="53.387109" lon="-1.923679"><ele>242</ele><time>2021-10-07T10:27:16Z</time><name>PT496</name></trkpt>
<trkpt lat="53.387127" lon="-1.923664"><ele>243</ele><time>2021-10-07T10:27:17Z</time><name>PT497</name></trkpt>
<trkpt lat="53.387165" lon="-1.923644"><ele>242</ele><time>2021-10-07T10:27:20Z</time><name>PT498</name></trkpt>
<trkpt lat="53.387209" lon="-1.923620"><ele>244</ele><time>2021-10-07T10:27:24Z</time><name>PT499</name></trkpt>
<trkpt lat="53.387247" lon="-1.923588"><ele>245</ele><time>2021-10-07T10:27:28Z</time><name>PT500</name></trkpt>
<trkpt lat="53.387280" lon="-1.923572"><ele>246</ele><time>2021-10-07T10:27:32Z</time><name>PT501</name></trkpt>
<trkpt lat="53.387319" lon="-1.923518"><ele>244</ele><time>2021-10-07T10:27:36Z</time><name>PT502</name></trkpt>
<trkpt lat="53.387373" lon="-1.923481"><ele>243</ele><time>2021-10-07T10:27:40Z</time><name>PT503</name></trkpt>
<trkpt lat="53.387413" lon="-1.923465"><ele>242</ele><time>2021-10-07T10:27:44Z</time><name>PT504</name></trkpt>
<trkpt lat="53.387467" lon="-1.923426"><ele>242</ele><time>2021-10-07T10:27:48Z</time><name>PT505</name></trkpt>
<trkpt lat="53.387514" lon="-1.923385"><ele>241</ele><time>2021-10-07T10:27:52Z</time><name>PT506</name></trkpt>
<trkpt lat="53.387556" lon="-1.923397"><ele>235</ele><time>2021-10-07T10:27:56Z</time><name>PT507</name></trkpt>
<trkpt lat="53.387609" lon="-1.923358"><ele>233</ele><time>2021-10-07T10:28:00Z</time><name>PT508</name></trkpt>
<trkpt lat="53.387669" lon="-1.923320"><ele>233</ele><time>2021-10-07T10:28:04Z</time><name>PT509</name></trkpt>
<trkpt lat="53.387728" lon="-1.923290"><ele>235</ele><time>2021-10-07T10:28:08Z</time><name>PT510</name></trkpt>
<trkpt lat="53.387804" lon="-1.923258"><ele>240</ele><time>2021-10-07T10:28:12Z</time><name>PT511</name></trkpt>
<trkpt lat="53.387848" lon="-1.923222"><ele>240</ele><time>2021-10-07T10:28:16Z</time><name>PT512</name></trkpt>
<trkpt lat="53.387905" lon="-1.923204"><ele>239</ele><time>2021-10-07T10:28:20Z</time><name>PT513</name></trkpt>
<trkpt lat="53.387962" lon="-1.923179"><ele>237</ele><time>2021-10-07T10:28:24Z</time><name>PT514</name></trkpt>
<trkpt lat="53.388018" lon="-1.923157"><ele>236</ele><time>2021-10-07T10:28:28Z</time><name>PT515</name></trkpt>
<trkpt lat="53.388067" lon="-1.923157"><ele>233</ele><time>2021-10-07T10:28:32Z</time><name>PT516</name></trkpt>
<trkpt lat="53.388106" lon="-1.923107"><ele>235</ele><time>2021-10-07T10:28:36Z</time><name>PT517</name></trkpt>
<trkpt lat="53.388145" lon="-1.923042"><ele>235</ele><time>2021-10-07T10:28:40Z</time><name>PT518</name></trkpt>
<trkpt lat="53.388184" lon="-1.922984"><ele>237</ele><time>2021-10-07T10:28:44Z</time><name>PT519</name></trkpt>
<trkpt lat="53.388230" lon="-1.922919"><ele>240</ele><time>2021-10-07T10:28:48Z</time><name>PT520</name></trkpt>
<trkpt lat="53.388270" lon="-1.922886"><ele>242</ele><time>2021-10-07T10:28:51Z</time><name>PT521</name></trkpt>
<trkpt lat="53.388280" lon="-1.922867"><ele>244</ele><time>2021-10-07T10:28:51Z</time><name>PT522</name></trkpt>
<trkpt lat="53.388304" lon="-1.922861"><ele>243</ele><time>2021-10-07T10:28:52Z</time><name>PT523</name></trkpt>
<trkpt lat="53.388322" lon="-1.922852"><ele>244</ele><time>2021-10-07T10:28:53Z</time><name>PT524</name></trkpt>
<trkpt lat="53.388335" lon="-1.922827"><ele>247</ele><time>2021-10-07T10:28:54Z</time><name>PT525</name></trkpt>
<trkpt lat="53.388351" lon="-1.922815"><ele>248</ele><time>2021-10-07T10:28:55Z</time><name>PT526</name></trkpt>
<trkpt lat="53.388368" lon="-1.922806"><ele>248</ele><time>2021-10-07T10:28:56Z</time><name>PT527</name></trkpt>
<trkpt lat="53.388374" lon="-1.922804"><ele>248</ele><time>2021-10-07T10:28:57Z</time><name>PT528</name></trkpt>
<trkpt lat="53.388378" lon="-1.922802"><ele>248</ele><time>2021-10-07T10:28:58Z</time><name>PT529</name></trkpt>
<trkpt lat="53.388389" lon="-1.922811"><ele>248</ele><time>2021-10-07T10:28:59Z</time><name>PT530</name></trkpt>
<trkpt lat="53.388397" lon="-1.922807"><ele>248</ele><time>2021-10-07T10:29:00Z</time><name>PT531</name></trkpt>
<trkpt lat="53.388400" lon="-1.922802"><ele>248</ele><time>2021-10-07T10:29:01Z</time><name>PT532</name></trkpt>
<trkpt lat="53.388404" lon="-1.922802"><ele>247</ele><time>2021-10-07T10:29:02Z</time><name>PT533</name></trkpt>
<trkpt lat="53.388413" lon="-1.922802"><ele>246</ele><time>2021-10-07T10:29:03Z</time><name>PT534</name></trkpt>
<trkpt lat="53.388418" lon="-1.922794"><ele>247</ele><time>2021-10-07T10:29:04Z</time><name>PT535</name></trkpt>
<trkpt lat="53.388429" lon="-1.922793"><ele>246</ele><time>2021-10-07T10:29:05Z</time><name>PT536</name></trkpt>
<trkpt lat="53.388441" lon="-1.922791"><ele>246</ele><time>2021-10-07T10:29:06Z</time><name>PT537</name></trkpt>
<trkpt lat="53.388453" lon="-1.922785"><ele>247</ele><time>2021-10-07T10:29:07Z</time><name>PT538</name></trkpt>
<trkpt lat="53.388464" lon="-1.922785"><ele>247</ele><time>2021-10-07T10:29:08Z</time><name>PT539</name></trkpt>
<trkpt lat="53.388473" lon="-1.922778"><ele>248</ele><time>2021-10-07T10:29:09Z</time><name>PT540</name></trkpt>
<trkpt lat="53.388486" lon="-1.922771"><ele>250</ele><time>2021-10-07T10:29:10Z</time><name>PT541</name></trkpt>
<trkpt lat="53.388495" lon="-1.922757"><ele>250</ele><time>2021-10-07T10:29:11Z</time><name>PT542</name></trkpt>
<trkpt lat="53.388507" lon="-1.922741"><ele>251</ele><time>2021-10-07T10:29:12Z</time><name>PT543</name></trkpt>
<trkpt lat="53.388523" lon="-1.922718"><ele>252</ele><time>2021-10-07T10:29:13Z</time><name>PT544</name></trkpt>
<trkpt lat="53.388532" lon="-1.922710"><ele>252</ele><time>2021-10-07T10:29:14Z</time><name>PT545</name></trkpt>
<trkpt lat="53.388547" lon="-1.922694"><ele>255</ele><time>2021-10-07T10:29:15Z</time><name>PT546</name></trkpt>
<trkpt lat="53.388556" lon="-1.922680"><ele>256</ele><time>2021-10-07T10:29:16Z</time><name>PT547</name></trkpt>
<trkpt lat="53.388562" lon="-1.922669"><ele>255</ele><time>2021-10-07T10:29:17Z</time><name>PT548</name></trkpt>
<trkpt lat="53.388570" lon="-1.922659"><ele>254</ele><time>2021-10-07T10:29:18Z</time><name>PT549</name></trkpt>
<trkpt lat="53.388575" lon="-1.922636"><ele>254</ele><time>2021-10-07T10:29:19Z</time><name>PT550</name></trkpt>
<trkpt lat="53.388580" lon="-1.922626"><ele>254</ele><time>2021-10-07T10:29:20Z</time><name>PT551</name></trkpt>
<trkpt lat="53.388587" lon="-1.922618"><ele>254</ele><time>2021-10-07T10:29:21Z</time><name>PT552</name></trkpt>
<trkpt lat="53.388597" lon="-1.922616"><ele>253</ele><time>2021-10-07T10:29:22Z</time><name>PT553</name></trkpt>
<trkpt lat="53.388608" lon="-1.922617"><ele>252</ele><time>2021-10-07T10:29:23Z</time><name>PT554</name></trkpt>
<trkpt lat="53.388619" lon="-1.922608"><ele>252</ele><time>2021-10-07T10:29:24Z</time><name>PT555</name></trkpt>
<trkpt lat="53.388630" lon="-1.922602"><ele>252</ele><time>2021-10-07T10:29:25Z</time><name>PT556</name></trkpt>
<trkpt lat="53.388639" lon="-1.922598"><ele>251</ele><time>2021-10-07T10:29:26Z</time><name>PT557</name></trkpt>
<trkpt lat="53.388651" lon="-1.922596"><ele>251</ele><time>2021-10-07T10:29:27Z</time><name>PT558</name></trkpt>
<trkpt lat="53.388664" lon="-1.922594"><ele>249</ele><time>2021-10-07T10:29:28Z</time><name>PT559</name></trkpt>
<trkpt lat="53.388676" lon="-1.922582"><ele>250</ele><time>2021-10-07T10:29:29Z</time><name>PT560</name></trkpt>
<trkpt lat="53.388684" lon="-1.922566"><ele>250</ele><time>2021-10-07T10:29:30Z</time><name>PT561</name></trkpt>
<trkpt lat="53.388690" lon="-1.922554"><ele>250</ele><time>2021-10-07T10:29:31Z</time><name>PT562</name></trkpt>
<trkpt lat="53.388712" lon="-1.922537"><ele>250</ele><time>2021-10-07T10:29:32Z</time><name>PT563</name></trkpt>
<trkpt lat="53.388719" lon="-1.922531"><ele>250</ele><time>2021-10-07T10:29:33Z</time><name>PT564</name></trkpt>
<trkpt lat="53.388735" lon="-1.922529"><ele>249</ele><time>2021-10-07T10:29:34Z</time><name>PT565</name></trkpt>
<trkpt lat="53.388750" lon="-1.922525"><ele>249</ele><time>2021-10-07T10:29:35Z</time><name>PT566</name></trkpt>
<trkpt lat="53.388758" lon="-1.922520"><ele>249</ele><time>2021-10-07T10:29:36Z</time><name>PT567</name></trkpt>
<trkpt lat="53.388769" lon="-1.922504"><ele>248</ele><time>2021-10-07T10:29:37Z</time><name>PT568</name></trkpt>
<trkpt lat="53.388781" lon="-1.922489"><ele>248</ele><time>2021-10-07T10:29:38Z</time><name>PT569</name></trkpt>
<trkpt lat="53.388791" lon="-1.922480"><ele>248</ele><time>2021-10-07T10:29:39Z</time><name>PT570</name></trkpt>
<trkpt lat="53.388801" lon="-1.922476"><ele>249</ele><time>2021-10-07T10:29:40Z</time><name>PT571</name></trkpt>
<trkpt lat="53.388808" lon="-1.922473"><ele>249</ele><time>2021-10-07T10:29:41Z</time><name>PT572</name></trkpt>
<trkpt lat="53.388814" lon="-1.922469"><ele>249</ele><time>2021-10-07T10:29:42Z</time><name>PT573</name></trkpt>
<trkpt lat="53.388825" lon="-1.922469"><ele>250</ele><time>2021-10-07T10:29:43Z</time><name>PT574</name></trkpt>
<trkpt lat="53.388831" lon="-1.922474"><ele>249</ele><time>2021-10-07T10:29:44Z</time><name>PT575</name></trkpt>
<trkpt lat="53.388839" lon="-1.922476"><ele>249</ele><time>2021-10-07T10:29:45Z</time><name>PT576</name></trkpt>
<trkpt lat="53.388848" lon="-1.922479"><ele>248</ele><time>2021-10-07T10:29:46Z</time><name>PT577</name></trkpt>
<trkpt lat="53.388854" lon="-1.922475"><ele>248</ele><time>2021-10-07T10:29:47Z</time><name>PT578</name></trkpt>
<trkpt lat="53.388858" lon="-1.922479"><ele>248</ele><time>2021-10-07T10:29:48Z</time><name>PT579</name></trkpt>
<trkpt lat="53.388861" lon="-1.922480"><ele>248</ele><time>2021-10-07T10:29:49Z</time><name>PT580</name></trkpt>
<trkpt lat="53.388862" lon="-1.922488"><ele>248</ele><time>2021-10-07T10:29:50Z</time><name>PT581</name></trkpt>
<trkpt lat="53.388861" lon="-1.922491"><ele>248</ele><time>2021-10-07T10:29:51Z</time><name>PT582</name></trkpt>
<trkpt lat="53.388861" lon="-1.922489"><ele>247</ele><time>2021-10-07T10:29:52Z</time><name>PT583</name></trkpt>
<trkpt lat="53.388863" lon="-1.922491"><ele>247</ele><time>2021-10-07T10:29:53Z</time><name>PT584</name></trkpt>
<trkpt lat="53.388863" lon="-1.922489"><ele>247</ele><time>2021-10-07T10:29:54Z</time><name>PT585</name></trkpt>
<trkpt lat="53.388866" lon="-1.922488"><ele>247</ele><time>2021-10-07T10:29:55Z</time><name>PT586</name></trkpt>
<trkpt lat="53.388868" lon="-1.922488"><ele>247</ele><time>2021-10-07T10:29:56Z</time><name>PT587</name></trkpt>
<trkpt lat="53.388870" lon="-1.922487"><ele>246</ele><time>2021-10-07T10:29:57Z</time><name>PT588</name></trkpt>
<trkpt lat="53.388871" lon="-1.922484"><ele>247</ele><time>2021-10-07T10:29:58Z</time><name>PT589</name></trkpt>
<trkpt lat="53.388872" lon="-1.922484"><ele>246</ele><time>2021-10-07T10:29:59Z</time><name>PT590</name></trkpt>
<trkpt lat="53.388874" lon="-1.922483"><ele>245</ele><time>2021-10-07T10:30:07Z</time><name>PT591</name></trkpt>
<trkpt lat="53.388873" lon="-1.922485"><ele>245</ele><time>2021-10-07T10:30:08Z</time><name>PT592</name></trkpt>
<trkpt lat="53.388873" lon="-1.922489"><ele>245</ele><time>2021-10-07T10:30:09Z</time><name>PT593</name></trkpt>
<trkpt lat="53.388870" lon="-1.922482"><ele>245</ele><time>2021-10-07T10:30:23Z</time><name>PT594</name></trkpt>
<trkpt lat="53.388865" lon="-1.922488"><ele>245</ele><time>2021-10-07T10:30:24Z</time><name>PT595</name></trkpt>
<trkpt lat="53.388861" lon="-1.922489"><ele>245</ele><time>2021-10-07T10:30:25Z</time><name>PT596</name></trkpt>
<trkpt lat="53.388858" lon="-1.922490"><ele>246</ele><time>2021-10-07T10:30:26Z</time><name>PT597</name></trkpt>
<trkpt lat="53.388856" lon="-1.922479"><ele>246</ele><time>2021-10-07T10:30:27Z</time><name>PT598</name></trkpt>
<trkpt lat="53.388859" lon="-1.922469"><ele>246</ele><time>2021-10-07T10:30:28Z</time><name>PT599</name></trkpt>
<trkpt lat="53.388859" lon="-1.922464"><ele>247</ele><time>2021-10-07T10:30:29Z</time><name>PT600</name></trkpt>
<trkpt lat="53.388865" lon="-1.922455"><ele>247</ele><time>2021-10-07T10:30:30Z</time><name>PT601</name></trkpt>
<trkpt lat="53.388869" lon="-1.922449"><ele>247</ele><time>2021-10-07T10:30:31Z</time><name>PT602</name></trkpt>
<trkpt lat="53.388871" lon="-1.922449"><ele>247</ele><time>2021-10-07T10:30:32Z</time><name>PT603</name></trkpt>
<trkpt lat="53.388871" lon="-1.922459"><ele>247</ele><time>2021-10-07T10:30:33Z</time><name>PT604</name></trkpt>
<trkpt lat="53.388872" lon="-1.922465"><ele>247</ele><time>2021-10-07T10:30:34Z</time><name>PT605</name></trkpt>
<trkpt lat="53.388868" lon="-1.922469"><ele>248</ele><time>2021-10-07T10:30:35Z</time><name>PT606</name></trkpt>
<trkpt lat="53.388869" lon="-1.922475"><ele>248</ele><time>2021-10-07T10:30:36Z</time><name>PT607</name></trkpt>
<trkpt lat="53.388871" lon="-1.922477"><ele>249</ele><time>2021-10-07T10:30:37Z</time><name>PT608</name></trkpt>
<trkpt lat="53.388878" lon="-1.922480"><ele>249</ele><time>2021-10-07T10:30:38Z</time><name>PT609</name></trkpt>
<trkpt lat="53.388899" lon="-1.922463"><ele>250</ele><time>2021-10-07T10:30:39Z</time><name>PT610</name></trkpt>
<trkpt lat="53.388913" lon="-1.922459"><ele>250</ele><time>2021-10-07T10:30:40Z</time><name>PT611</name></trkpt>
<trkpt lat="53.388917" lon="-1.922461"><ele>250</ele><time>2021-10-07T10:30:41Z</time><name>PT612</name></trkpt>
<trkpt lat="53.388919" lon="-1.922462"><ele>250</ele><time>2021-10-07T10:30:42Z</time><name>PT613</name></trkpt>
<trkpt lat="53.388924" lon="-1.922469"><ele>251</ele><time>2021-10-07T10:30:43Z</time><name>PT614</name></trkpt>
<trkpt lat="53.388922" lon="-1.922470"><ele>251</ele><time>2021-10-07T10:30:44Z</time><name>PT615</name></trkpt>
<trkpt lat="53.388946" lon="-1.922454"><ele>250</ele><time>2021-10-07T10:30:45Z</time><name>PT616</name></trkpt>
<trkpt lat="53.388953" lon="-1.922446"><ele>250</ele><time>2021-10-07T10:30:46Z</time><name>PT617</name></trkpt>
<trkpt lat="53.388961" lon="-1.922442"><ele>250</ele><time>2021-10-07T10:30:47Z</time><name>PT618</name></trkpt>
<trkpt lat="53.388966" lon="-1.922445"><ele>249</ele><time>2021-10-07T10:30:48Z</time><name>PT619</name></trkpt>
<trkpt lat="53.388970" lon="-1.922446"><ele>249</ele><time>2021-10-07T10:30:49Z</time><name>PT620</name></trkpt>
<trkpt lat="53.388986" lon="-1.922439"><ele>250</ele><time>2021-10-07T10:30:52Z</time><name>PT621</name></trkpt>
<trkpt lat="53.389010" lon="-1.922438"><ele>252</ele><time>2021-10-07T10:30:56Z</time><name>PT622</name></trkpt>
<trkpt lat="53.389030" lon="-1.922424"><ele>254</ele><time>2021-10-07T10:31:00Z</time><name>PT623</name></trkpt>
<trkpt lat="53.389057" lon="-1.922399"><ele>255</ele><time>2021-10-07T10:31:04Z</time><name>PT624</name></trkpt>
<trkpt lat="53.389115" lon="-1.922358"><ele>253</ele><time>2021-10-07T10:31:08Z</time><name>PT625</name></trkpt>
<trkpt lat="53.389151" lon="-1.922317"><ele>256</ele><time>2021-10-07T10:31:12Z</time><name>PT626</name></trkpt>
<trkpt lat="53.389184" lon="-1.922289"><ele>259</ele><time>2021-10-07T10:31:16Z</time><name>PT627</name></trkpt>
<trkpt lat="53.389224" lon="-1.922282"><ele>260</ele><time>2021-10-07T10:31:20Z</time><name>PT628</name></trkpt>
<trkpt lat="53.389282" lon="-1.922274"><ele>256</ele><time>2021-10-07T10:31:24Z</time><name>PT629</name></trkpt>
<trkpt lat="53.389302" lon="-1.922248"><ele>257</ele><time>2021-10-07T10:31:28Z</time><name>PT630</name></trkpt>
<trkpt lat="53.389338" lon="-1.922206"><ele>257</ele><time>2021-10-07T10:31:32Z</time><name>PT631</name></trkpt>
<trkpt lat="53.389378" lon="-1.922171"><ele>257</ele><time>2021-10-07T10:31:36Z</time><name>PT632</name></trkpt>
<trkpt lat="53.389426" lon="-1.922135"><ele>258</ele><time>2021-10-07T10:31:40Z</time><name>PT633</name></trkpt>
<trkpt lat="53.389461" lon="-1.922121"><ele>257</ele><time>2021-10-07T10:31:44Z</time><name>PT634</name></trkpt>
<trkpt lat="53.389509" lon="-1.922089"><ele>256</ele><time>2021-10-07T10:31:48Z</time><name>PT635</name></trkpt>
<trkpt lat="53.389541" lon="-1.922088"><ele>258</ele><time>2021-10-07T10:31:52Z</time><name>PT636</name></trkpt>
<trkpt lat="53.389580" lon="-1.922076"><ele>259</ele><time>2021-10-07T10:31:56Z</time><name>PT637</name></trkpt>
<trkpt lat="53.389624" lon="-1.922074"><ele>259</ele><time>2021-10-07T10:32:00Z</time><name>PT638</name></trkpt>
<trkpt lat="53.389664" lon="-1.922070"><ele>260</ele><time>2021-10-07T10:32:04Z</time><name>PT639</name></trkpt>
<trkpt lat="53.389695" lon="-1.922050"><ele>262</ele><time>2021-10-07T10:32:08Z</time><name>PT640</name></trkpt>
<trkpt lat="53.389730" lon="-1.922027"><ele>262</ele><time>2021-10-07T10:32:12Z</time><name>PT641</name></trkpt>
<trkpt lat="53.389762" lon="-1.922005"><ele>262</ele><time>2021-10-07T10:32:16Z</time><name>PT642</name></trkpt>
<trkpt lat="53.389784" lon="-1.921993"><ele>262</ele><time>2021-10-07T10:32:20Z</time><name>PT643</name></trkpt>
<trkpt lat="53.389797" lon="-1.921972"><ele>263</ele><time>2021-10-07T10:32:24Z</time><name>PT644</name></trkpt>
<trkpt lat="53.389817" lon="-1.921956"><ele>266</ele><time>2021-10-07T10:32:28Z</time><name>PT645</name></trkpt>
<trkpt lat="53.389842" lon="-1.921942"><ele>267</ele><time>2021-10-07T10:32:32Z</time><name>PT646</name></trkpt>
<trkpt lat="53.389872" lon="-1.921905"><ele>271</ele><time>2021-10-07T10:32:36Z</time><name>PT647</name></trkpt>
<trkpt lat="53.389896" lon="-1.921866"><ele>274</ele><time>2021-10-07T10:32:40Z</time><name>PT648</name></trkpt>
<trkpt lat="53.389934" lon="-1.921839"><ele>273</ele><time>2021-10-07T10:32:44Z</time><name>PT649</name></trkpt>
<trkpt lat="53.389969" lon="-1.921792"><ele>274</ele><time>2021-10-07T10:32:48Z</time><name>PT650</name></trkpt>
<trkpt lat="53.390011" lon="-1.921760"><ele>274</ele><time>2021-10-07T10:32:52Z</time><name>PT651</name></trkpt>
<trkpt lat="53.390033" lon="-1.921711"><ele>277</ele><time>2021-10-07T10:32:56Z</time><name>PT652</name></trkpt>
<trkpt lat="53.390069" lon="-1.921687"><ele>279</ele><time>2021-10-07T10:33:00Z</time><name>PT653</name></trkpt>
<trkpt lat="53.390096" lon="-1.921674"><ele>280</ele><time>2021-10-07T10:33:04Z</time><name>PT654</name></trkpt>
<trkpt lat="53.390121" lon="-1.921655"><ele>280</ele><time>2021-10-07T10:33:08Z</time><name>PT655</name></trkpt>
<trkpt lat="53.390143" lon="-1.921625"><ele>281</ele><time>2021-10-07T10:33:12Z</time><name>PT656</name></trkpt>
<trkpt lat="53.390156" lon="-1.921569"><ele>287</ele><time>2021-10-07T10:33:16Z</time><name>PT657</name></trkpt>
<trkpt lat="53.390197" lon="-1.921542"><ele>287</ele><time>2021-10-07T10:33:20Z</time><name>PT658</name></trkpt>
<trkpt lat="53.390223" lon="-1.921520"><ele>285</ele><time>2021-10-07T10:33:24Z</time><name>PT659</name></trkpt>
<trkpt lat="53.390245" lon="-1.921504"><ele>287</ele><time>2021-10-07T10:33:28Z</time><name>PT660</name></trkpt>
<trkpt lat="53.390270" lon="-1.921478"><ele>286</ele><time>2021-10-07T10:33:32Z</time><name>PT661</name></trkpt>
<trkpt lat="53.390295" lon="-1.921462"><ele>286</ele><time>2021-10-07T10:33:36Z</time><name>PT662</name></trkpt>
<trkpt lat="53.390316" lon="-1.921442"><ele>287</ele><time>2021-10-07T10:33:40Z</time><name>PT663</name></trkpt>
<trkpt lat="53.390345" lon="-1.921413"><ele>288</ele><time>2021-10-07T10:33:44Z</time><name>PT664</name></trkpt>
<trkpt lat="53.390366" lon="-1.921386"><ele>289</ele><time>2021-10-07T10:33:48Z</time><name>PT665</name></trkpt>
<trkpt lat="53.390388" lon="-1.921345"><ele>289</ele><time>2021-10-07T10:33:52Z</time><name>PT666</name></trkpt>
<trkpt lat="53.390402" lon="-1.921291"><ele>290</ele><time>2021-10-07T10:33:56Z</time><name>PT667</name></trkpt>
<trkpt lat="53.390435" lon="-1.921238"><ele>291</ele><time>2021-10-07T10:34:00Z</time><name>PT668</name></trkpt>
<trkpt lat="53.390458" lon="-1.921174"><ele>291</ele><time>2021-10-07T10:34:04Z</time><name>PT669</name></trkpt>
<trkpt lat="53.390474" lon="-1.921108"><ele>292</ele><time>2021-10-07T10:34:08Z</time><name>PT670</name></trkpt>
<trkpt lat="53.390492" lon="-1.921064"><ele>293</ele><time>2021-10-07T10:34:12Z</time><name>PT671</name></trkpt>
<trkpt lat="53.390517" lon="-1.921021"><ele>293</ele><time>2021-10-07T10:34:16Z</time><name>PT672</name></trkpt>
<trkpt lat="53.390537" lon="-1.920961"><ele>294</ele><time>2021-10-07T10:34:20Z</time><name>PT673</name></trkpt>
<trkpt lat="53.390552" lon="-1.920909"><ele>296</ele><time>2021-10-07T10:34:24Z</time><name>PT674</name></trkpt>
<trkpt lat="53.390565" lon="-1.920863"><ele>295</ele><time>2021-10-07T10:34:28Z</time><name>PT675</name></trkpt>
<trkpt lat="53.390582" lon="-1.920793"><ele>296</ele><time>2021-10-07T10:34:32Z</time><name>PT676</name></trkpt>
<trkpt lat="53.390599" lon="-1.920727"><ele>299</ele><time>2021-10-07T10:34:36Z</time><name>PT677</name></trkpt>
<trkpt lat="53.390614" lon="-1.920694"><ele>299</ele><time>2021-10-07T10:34:40Z</time><name>PT678</name></trkpt>
<trkpt lat="53.390622" lon="-1.920640"><ele>301</ele><time>2021-10-07T10:34:44Z</time><name>PT679</name></trkpt>
<trkpt lat="53.390634" lon="-1.920586"><ele>300</ele><time>2021-10-07T10:34:48Z</time><name>PT680</name></trkpt>
<trkpt lat="53.390666" lon="-1.920539"><ele>300</ele><time>2021-10-07T10:34:52Z</time><name>PT681</name></trkpt>
<trkpt lat="53.390690" lon="-1.920448"><ele>302</ele><time>2021-10-07T10:34:56Z</time><name>PT682</name></trkpt>
<trkpt lat="53.390716" lon="-1.920392"><ele>300</ele><time>2021-10-07T10:35:00Z</time><name>PT683</name></trkpt>
<trkpt lat="53.390739" lon="-1.920309"><ele>301</ele><time>2021-10-07T10:35:04Z</time><name>PT684</name></trkpt>
<trkpt lat="53.390760" lon="-1.920236"><ele>300</ele><time>2021-10-07T10:35:08Z</time><name>PT685</name></trkpt>
<trkpt lat="53.390750" lon="-1.920172"><ele>304</ele><time>2021-10-07T10:35:12Z</time><name>PT686</name></trkpt>
<trkpt lat="53.390775" lon="-1.920116"><ele>303</ele><time>2021-10-07T10:35:16Z</time><name>PT687</name></trkpt>
<trkpt lat="53.390796" lon="-1.920057"><ele>302</ele><time>2021-10-07T10:35:20Z</time><name>PT688</name></trkpt>
<trkpt lat="53.390828" lon="-1.920010"><ele>300</ele><time>2021-10-07T10:35:24Z</time><name>PT689</name></trkpt>
<trkpt lat="53.390857" lon="-1.919970"><ele>298</ele><time>2021-10-07T10:35:28Z</time><name>PT690</name></trkpt>
<trkpt lat="53.390871" lon="-1.919918"><ele>299</ele><time>2021-10-07T10:35:32Z</time><name>PT691</name></trkpt>
<trkpt lat="53.390896" lon="-1.919868"><ele>298</ele><time>2021-10-07T10:35:36Z</time><name>PT692</name></trkpt>
<trkpt lat="53.390899" lon="-1.919853"><ele>299</ele><time>2021-10-07T10:35:40Z</time><name>PT693</name></trkpt>
<trkpt lat="53.390933" lon="-1.919789"><ele>300</ele><time>2021-10-07T10:35:56Z</time><name>PT694</name></trkpt>
<trkpt lat="53.390960" lon="-1.919727"><ele>302</ele><time>2021-10-07T10:36:00Z</time><name>PT695</name></trkpt>
<trkpt lat="53.390968" lon="-1.919674"><ele>300</ele><time>2021-10-07T10:36:04Z</time><name>PT696</name></trkpt>
<trkpt lat="53.390990" lon="-1.919616"><ele>294</ele><time>2021-10-07T10:36:08Z</time><name>PT697</name></trkpt>
<trkpt lat="53.391003" lon="-1.919574"><ele>294</ele><time>2021-10-07T10:36:12Z</time><name>PT698</name></trkpt>
<trkpt lat="53.391028" lon="-1.919490"><ele>295</ele><time>2021-10-07T10:36:16Z</time><name>PT699</name></trkpt>
<trkpt lat="53.391052" lon="-1.919417"><ele>295</ele><time>2021-10-07T10:36:20Z</time><name>PT700</name></trkpt>
<trkpt lat="53.391075" lon="-1.919338"><ele>294</ele><time>2021-10-07T10:36:24Z</time><name>PT701</name></trkpt>
<trkpt lat="53.391098" lon="-1.919290"><ele>294</ele><time>2021-10-07T10:36:28Z</time><name>PT702</name></trkpt>
<trkpt lat="53.391122" lon="-1.919236"><ele>294</ele><time>2021-10-07T10:36:32Z</time><name>PT703</name></trkpt>
<trkpt lat="53.391150" lon="-1.919207"><ele>290</ele><time>2021-10-07T10:36:36Z</time><name>PT704</name></trkpt>
<trkpt lat="53.391177" lon="-1.919180"><ele>289</ele><time>2021-10-07T10:36:40Z</time><name>PT705</name></trkpt>
<trkpt lat="53.391197" lon="-1.919131"><ele>291</ele><time>2021-10-07T10:36:44Z</time><name>PT706</name></trkpt>
<trkpt lat="53.391236" lon="-1.919084"><ele>292</ele><time>2021-10-07T10:36:48Z</time><name>PT707</name></trkpt>
<trkpt lat="53.391257" lon="-1.919033"><ele>293</ele><time>2021-10-07T10:36:52Z</time><name>PT708</name></trkpt>
<trkpt lat="53.391293" lon="-1.919025"><ele>292</ele><time>2021-10-07T10:36:56Z</time><name>PT709</name></trkpt>
<trkpt lat="53.391321" lon="-1.918956"><ele>290</ele><time>2021-10-07T10:37:01Z</time><name>PT710</name></trkpt>
<trkpt lat="53.391337" lon="-1.918878"><ele>292</ele><time>2021-10-07T10:37:04Z</time><name>PT711</name></trkpt>
<trkpt lat="53.391357" lon="-1.918792"><ele>295</ele><time>2021-10-07T10:37:08Z</time><name>PT712</name></trkpt>
<trkpt lat="53.391370" lon="-1.918701"><ele>296</ele><time>2021-10-07T10:37:12Z</time><name>PT713</name></trkpt>
<trkpt lat="53.391378" lon="-1.918616"><ele>298</ele><time>2021-10-07T10:37:16Z</time><name>PT714</name></trkpt>
<trkpt lat="53.391386" lon="-1.918525"><ele>302</ele><time>2021-10-07T10:37:20Z</time><name>PT715</name></trkpt>
<trkpt lat="53.391424" lon="-1.918461"><ele>300</ele><time>2021-10-07T10:37:24Z</time><name>PT716</name></trkpt>
<trkpt lat="53.391422" lon="-1.918410"><ele>300</ele><time>2021-10-07T10:37:28Z</time><name>PT717</name></trkpt>
<trkpt lat="53.391456" lon="-1.918338"><ele>299</ele><time>2021-10-07T10:37:32Z</time><name>PT718</name></trkpt>
<trkpt lat="53.391473" lon="-1.918284"><ele>299</ele><time>2021-10-07T10:37:36Z</time><name>PT719</name></trkpt>
<trkpt lat="53.391491" lon="-1.918232"><ele>299</ele><time>2021-10-07T10:37:40Z</time><name>PT720</name></trkpt>
<trkpt lat="53.391521" lon="-1.918178"><ele>296</ele><time>2021-10-07T10:37:44Z</time><name>PT721</name></trkpt>
<trkpt lat="53.391560" lon="-1.918130"><ele>299</ele><time>2021-10-07T10:37:48Z</time><name>PT722</name></trkpt>
<trkpt lat="53.391589" lon="-1.918065"><ele>298</ele><time>2021-10-07T10:37:52Z</time><name>PT723</name></trkpt>
<trkpt lat="53.391589" lon="-1.918007"><ele>298</ele><time>2021-10-07T10:37:56Z</time><name>PT724</name></trkpt>
<trkpt lat="53.391608" lon="-1.917966"><ele>300</ele><time>2021-10-07T10:38:00Z</time><name>PT725</name></trkpt>
<trkpt lat="53.391605" lon="-1.917917"><ele>299</ele><time>2021-10-07T10:38:04Z</time><name>PT726</name></trkpt>
<trkpt lat="53.391615" lon="-1.917895"><ele>300</ele><time>2021-10-07T10:38:08Z</time><name>PT727</name></trkpt>
<trkpt lat="53.391636" lon="-1.917822"><ele>301</ele><time>2021-10-07T10:38:12Z</time><name>PT728</name></trkpt>
<trkpt lat="53.391639" lon="-1.917746"><ele>305</ele><time>2021-10-07T10:38:16Z</time><name>PT729</name></trkpt>
<trkpt lat="53.391659" lon="-1.917672"><ele>305</ele><time>2021-10-07T10:38:20Z</time><name>PT730</name></trkpt>
<trkpt lat="53.391662" lon="-1.917608"><ele>304</ele><time>2021-10-07T10:38:24Z</time><name>PT731</name></trkpt>
<trkpt lat="53.391663" lon="-1.917567"><ele>305</ele><time>2021-10-07T10:38:28Z</time><name>PT732</name></trkpt>
<trkpt lat="53.391663" lon="-1.917542"><ele>307</ele><time>2021-10-07T10:38:32Z</time><name>PT733</name></trkpt>
<trkpt lat="53.391654" lon="-1.917528"><ele>307</ele><time>2021-10-07T10:38:36Z</time><name>PT734</name></trkpt>
<trkpt lat="53.391631" lon="-1.917519"><ele>308</ele><time>2021-10-07T10:38:40Z</time><name>PT735</name></trkpt>
<trkpt lat="53.391630" lon="-1.917477"><ele>306</ele><time>2021-10-07T10:38:44Z</time><name>PT736</name></trkpt>
<trkpt lat="53.391623" lon="-1.917413"><ele>303</ele><time>2021-10-07T10:38:48Z</time><name>PT737</name></trkpt>
<trkpt lat="53.391601" lon="-1.917360"><ele>304</ele><time>2021-10-07T10:38:52Z</time><name>PT738</name></trkpt>
<trkpt lat="53.391584" lon="-1.917273"><ele>305</ele><time>2021-10-07T10:38:56Z</time><name>PT739</name></trkpt>
<trkpt lat="53.391579" lon="-1.917183"><ele>304</ele><time>2021-10-07T10:39:00Z</time><name>PT740</name></trkpt>
<trkpt lat="53.391553" lon="-1.917107"><ele>306</ele><time>2021-10-07T10:39:04Z</time><name>PT741</name></trkpt>
<trkpt lat="53.391553" lon="-1.917037"><ele>304</ele><time>2021-10-07T10:39:08Z</time><name>PT742</name></trkpt>
<trkpt lat="53.391552" lon="-1.916971"><ele>303</ele><time>2021-10-07T10:39:12Z</time><name>PT743</name></trkpt>
<trkpt lat="53.391545" lon="-1.916902"><ele>304</ele><time>2021-10-07T10:39:16Z</time><name>PT744</name></trkpt>
<trkpt lat="53.391548" lon="-1.916822"><ele>303</ele><time>2021-10-07T10:39:20Z</time><name>PT745</name></trkpt>
<trkpt lat="53.391560" lon="-1.916757"><ele>302</ele><time>2021-10-07T10:39:24Z</time><name>PT746</name></trkpt>
<trkpt lat="53.391552" lon="-1.916667"><ele>301</ele><time>2021-10-07T10:39:28Z</time><name>PT747</name></trkpt>
<trkpt lat="53.391553" lon="-1.916597"><ele>300</ele><time>2021-10-07T10:39:32Z</time><name>PT748</name></trkpt>
<trkpt lat="53.391546" lon="-1.916506"><ele>299</ele><time>2021-10-07T10:39:36Z</time><name>PT749</name></trkpt>
<trkpt lat="53.391555" lon="-1.916438"><ele>298</ele><time>2021-10-07T10:39:40Z</time><name>PT750</name></trkpt>
<trkpt lat="53.391569" lon="-1.916381"><ele>294</ele><time>2021-10-07T10:39:44Z</time><name>PT751</name></trkpt>
<trkpt lat="53.391560" lon="-1.916293"><ele>294</ele><time>2021-10-07T10:39:48Z</time><name>PT752</name></trkpt>
<trkpt lat="53.391561" lon="-1.916211"><ele>293</ele><time>2021-10-07T10:39:52Z</time><name>PT753</name></trkpt>
<trkpt lat="53.391559" lon="-1.916142"><ele>292</ele><time>2021-10-07T10:39:56Z</time><name>PT754</name></trkpt>
<trkpt lat="53.391567" lon="-1.916077"><ele>289</ele><time>2021-10-07T10:40:00Z</time><name>PT755</name></trkpt>
<trkpt lat="53.391548" lon="-1.915982"><ele>288</ele><time>2021-10-07T10:40:04Z</time><name>PT756</name></trkpt>
<trkpt lat="53.391570" lon="-1.915861"><ele>285</ele><time>2021-10-07T10:40:08Z</time><name>PT757</name></trkpt>
<trkpt lat="53.391572" lon="-1.915773"><ele>288</ele><time>2021-10-07T10:40:12Z</time><name>PT758</name></trkpt>
<trkpt lat="53.391601" lon="-1.915703"><ele>286</ele><time>2021-10-07T10:40:16Z</time><name>PT759</name></trkpt>
<trkpt lat="53.391630" lon="-1.915630"><ele>286</ele><time>2021-10-07T10:40:20Z</time><name>PT760</name></trkpt>
<trkpt lat="53.391645" lon="-1.915536"><ele>287</ele><time>2021-10-07T10:40:24Z</time><name>PT761</name></trkpt>
<trkpt lat="53.391652" lon="-1.915452"><ele>290</ele><time>2021-10-07T10:40:28Z</time><name>PT762</name></trkpt>
<trkpt lat="53.391667" lon="-1.915384"><ele>291</ele><time>2021-10-07T10:40:32Z</time><name>PT763</name></trkpt>
<trkpt lat="53.391698" lon="-1.915323"><ele>292</ele><time>2021-10-07T10:40:36Z</time><name>PT764</name></trkpt>
<trkpt lat="53.391736" lon="-1.915254"><ele>289</ele><time>2021-10-07T10:40:40Z</time><name>PT765</name></trkpt>
<trkpt lat="53.391772" lon="-1.915176"><ele>289</ele><time>2021-10-07T10:40:44Z</time><name>PT766</name></trkpt>
<trkpt lat="53.391794" lon="-1.915088"><ele>290</ele><time>2021-10-07T10:40:48Z</time><name>PT767</name></trkpt>
<trkpt lat="53.391824" lon="-1.915024"><ele>289</ele><time>2021-10-07T10:40:52Z</time><name>PT768</name></trkpt>
<trkpt lat="53.391841" lon="-1.914941"><ele>290</ele><time>2021-10-07T10:40:56Z</time><name>PT769</name></trkpt>
<trkpt lat="53.391856" lon="-1.914871"><ele>290</ele><time>2021-10-07T10:41:00Z</time><name>PT770</name></trkpt>
<trkpt lat="53.391864" lon="-1.914786"><ele>293</ele><time>2021-10-07T10:41:04Z</time><name>PT771</name></trkpt>
<trkpt lat="53.391878" lon="-1.914697"><ele>294</ele><time>2021-10-07T10:41:08Z</time><name>PT772</name></trkpt>
<trkpt lat="53.391910" lon="-1.914620"><ele>293</ele><time>2021-10-07T10:41:12Z</time><name>PT773</name></trkpt>
<trkpt lat="53.391929" lon="-1.914524"><ele>294</ele><time>2021-10-07T10:41:16Z</time><name>PT774</name></trkpt>
<trkpt lat="53.391966" lon="-1.914480"><ele>293</ele><time>2021-10-07T10:41:20Z</time><name>PT775</name></trkpt>
<trkpt lat="53.392001" lon="-1.914412"><ele>291</ele><time>2021-10-07T10:41:24Z</time><name>PT776</name></trkpt>
<trkpt lat="53.392021" lon="-1.914328"><ele>290</ele><time>2021-10-07T10:41:28Z</time><name>PT777</name></trkpt>
<trkpt lat="53.392056" lon="-1.914269"><ele>290</ele><time>2021-10-07T10:41:32Z</time><name>PT778</name></trkpt>
<trkpt lat="53.392082" lon="-1.914179"><ele>291</ele><time>2021-10-07T10:41:36Z</time><name>PT779</name></trkpt>
<trkpt lat="53.392090" lon="-1.914093"><ele>292</ele><time>2021-10-07T10:41:40Z</time><name>PT780</name></trkpt>
<trkpt lat="53.392115" lon="-1.914023"><ele>292</ele><time>2021-10-07T10:41:44Z</time><name>PT781</name></trkpt>
<trkpt lat="53.392130" lon="-1.913946"><ele>295</ele><time>2021-10-07T10:41:48Z</time><name>PT782</name></trkpt>
<trkpt lat="53.392173" lon="-1.913902"><ele>290</ele><time>2021-10-07T10:41:52Z</time><name>PT783</name></trkpt>
<trkpt lat="53.392199" lon="-1.913844"><ele>291</ele><time>2021-10-07T10:41:56Z</time><name>PT784</name></trkpt>
<trkpt lat="53.392222" lon="-1.913780"><ele>290</ele><time>2021-10-07T10:42:00Z</time><name>PT785</name></trkpt>
<trkpt lat="53.392254" lon="-1.913725"><ele>288</ele><time>2021-10-07T10:42:04Z</time><name>PT786</name></trkpt>
<trkpt lat="53.392265" lon="-1.913635"><ele>291</ele><time>2021-10-07T10:42:08Z</time><name>PT787</name></trkpt>
<trkpt lat="53.392280" lon="-1.913523"><ele>294</ele><time>2021-10-07T10:42:12Z</time><name>PT788</name></trkpt>
<trkpt lat="53.392316" lon="-1.913486"><ele>291</ele><time>2021-10-07T10:42:16Z</time><name>PT789</name></trkpt>
<trkpt lat="53.392339" lon="-1.913406"><ele>291</ele><time>2021-10-07T10:42:20Z</time><name>PT790</name></trkpt>
<trkpt lat="53.392358" lon="-1.913304"><ele>292</ele><time>2021-10-07T10:42:24Z</time><name>PT791</name></trkpt>
<trkpt lat="53.392372" lon="-1.913242"><ele>291</ele><time>2021-10-07T10:42:28Z</time><name>PT792</name></trkpt>
<trkpt lat="53.392391" lon="-1.913168"><ele>293</ele><time>2021-10-07T10:42:32Z</time><name>PT793</name></trkpt>
<trkpt lat="53.392418" lon="-1.913092"><ele>293</ele><time>2021-10-07T10:42:36Z</time><name>PT794</name></trkpt>
<trkpt lat="53.392442" lon="-1.913034"><ele>292</ele><time>2021-10-07T10:42:40Z</time><name>PT795</name></trkpt>
<trkpt lat="53.392465" lon="-1.912957"><ele>293</ele><time>2021-10-07T10:42:44Z</time><name>PT796</name></trkpt>
<trkpt lat="53.392487" lon="-1.912881"><ele>292</ele><time>2021-10-07T10:42:48Z</time><name>PT797</name></trkpt>
<trkpt lat="53.392515" lon="-1.912801"><ele>292</ele><time>2021-10-07T10:42:52Z</time><name>PT798</name></trkpt>
<trkpt lat="53.392534" lon="-1.912734"><ele>295</ele><time>2021-10-07T10:42:56Z</time><name>PT799</name></trkpt>
<trkpt lat="53.392573" lon="-1.912660"><ele>295</ele><time>2021-10-07T10:43:00Z</time><name>PT800</name></trkpt>
<trkpt lat="53.392626" lon="-1.912628"><ele>290</ele><time>2021-10-07T10:43:04Z</time><name>PT801</name></trkpt>
<trkpt lat="53.392658" lon="-1.912559"><ele>291</ele><time>2021-10-07T10:43:08Z</time><name>PT802</name></trkpt>
<trkpt lat="53.392709" lon="-1.912531"><ele>289</ele><time>2021-10-07T10:43:12Z</time><name>PT803</name></trkpt>
<trkpt lat="53.392757" lon="-1.912487"><ele>288</ele><time>2021-10-07T10:43:16Z</time><name>PT804</name></trkpt>
<trkpt lat="53.392809" lon="-1.912441"><ele>289</ele><time>2021-10-07T10:43:20Z</time><name>PT805</name></trkpt>
<trkpt lat="53.392850" lon="-1.912395"><ele>290</ele><time>2021-10-07T10:43:24Z</time><name>PT806</name></trkpt>
<trkpt lat="53.392898" lon="-1.912359"><ele>291</ele><time>2021-10-07T10:43:28Z</time><name>PT807</name></trkpt>
<trkpt lat="53.392945" lon="-1.912318"><ele>290</ele><time>2021-10-07T10:43:32Z</time><name>PT808</name></trkpt>
<trkpt lat="53.392984" lon="-1.912293"><ele>292</ele><time>2021-10-07T10:43:36Z</time><name>PT809</name></trkpt>
<trkpt lat="53.393026" lon="-1.912290"><ele>292</ele><time>2021-10-07T10:43:40Z</time><name>PT810</name></trkpt>
<trkpt lat="53.393080" lon="-1.912295"><ele>291</ele><time>2021-10-07T10:43:44Z</time><name>PT811</name></trkpt>
<trkpt lat="53.393131" lon="-1.912283"><ele>292</ele><time>2021-10-07T10:43:49Z</time><name>PT812</name></trkpt>
<trkpt lat="53.393141" lon="-1.912274"><ele>292</ele><time>2021-10-07T10:43:49Z</time><name>PT813</name></trkpt>
<trkpt lat="53.393144" lon="-1.912278"><ele>292</ele><time>2021-10-07T10:43:50Z</time><name>PT814</name></trkpt>
<trkpt lat="53.393156" lon="-1.912278"><ele>292</ele><time>2021-10-07T10:43:51Z</time><name>PT815</name></trkpt>
<trkpt lat="53.393168" lon="-1.912276"><ele>292</ele><time>2021-10-07T10:43:52Z</time><name>PT816</name></trkpt>
<trkpt lat="53.393179" lon="-1.912276"><ele>292</ele><time>2021-10-07T10:43:53Z</time><name>PT817</name></trkpt>
<trkpt lat="53.393190" lon="-1.912278"><ele>292</ele><time>2021-10-07T10:43:54Z</time><name>PT818</name></trkpt>
<trkpt lat="53.393201" lon="-1.912281"><ele>292</ele><time>2021-10-07T10:43:55Z</time><name>PT819</name></trkpt>
<trkpt lat="53.393209" lon="-1.912281"><ele>292</ele><time>2021-10-07T10:43:56Z</time><name>PT820</name></trkpt>
<trkpt lat="53.393219" lon="-1.912284"><ele>292</ele><time>2021-10-07T10:43:57Z</time><name>PT821</name></trkpt>
<trkpt lat="53.393231" lon="-1.912284"><ele>292</ele><time>2021-10-07T10:43:58Z</time><name>PT822</name></trkpt>
<trkpt lat="53.393243" lon="-1.912288"><ele>292</ele><time>2021-10-07T10:43:59Z</time><name>PT823</name></trkpt>
<trkpt lat="53.393256" lon="-1.912289"><ele>292</ele><time>2021-10-07T10:44:00Z</time><name>PT824</name></trkpt>
<trkpt lat="53.393268" lon="-1.912291"><ele>292</ele><time>2021-10-07T10:44:01Z</time><name>PT825</name></trkpt>
<trkpt lat="53.393280" lon="-1.912293"><ele>292</ele><time>2021-10-07T10:44:02Z</time><name>PT826</name></trkpt>
<trkpt lat="53.393295" lon="-1.912298"><ele>291</ele><time>2021-10-07T10:44:03Z</time><name>PT827</name></trkpt>
<trkpt lat="53.393304" lon="-1.912298"><ele>291</ele><time>2021-10-07T10:44:04Z</time><name>PT828</name></trkpt>
<trkpt lat="53.393318" lon="-1.912298"><ele>290</ele><time>2021-10-07T10:44:05Z</time><name>PT829</name></trkpt>
<trkpt lat="53.393332" lon="-1.912300"><ele>289</ele><time>2021-10-07T10:44:06Z</time><name>PT830</name></trkpt>
<trkpt lat="53.393343" lon="-1.912298"><ele>289</ele><time>2021-10-07T10:44:07Z</time><name>PT831</name></trkpt>
<trkpt lat="53.393354" lon="-1.912302"><ele>289</ele><time>2021-10-07T10:44:08Z</time><name>PT832</name></trkpt>
<trkpt lat="53.393360" lon="-1.912311"><ele>289</ele><time>2021-10-07T10:44:09Z</time><name>PT833</name></trkpt>
<trkpt lat="53.393367" lon="-1.912317"><ele>289</ele><time>2021-10-07T10:44:10Z</time><name>PT834</name></trkpt>
<trkpt lat="53.393374" lon="-1.912320"><ele>288</ele><time>2021-10-07T10:44:11Z</time><name>PT835</name></trkpt>
<trkpt lat="53.393379" lon="-1.912323"><ele>288</ele><time>2021-10-07T10:44:12Z</time><name>PT836</name></trkpt>
<trkpt lat="53.393392" lon="-1.912329"><ele>287</ele><time>2021-10-07T10:44:13Z</time><name>PT837</name></trkpt>
<trkpt lat="53.393402" lon="-1.912338"><ele>286</ele><time>2021-10-07T10:44:14Z</time><name>PT838</name></trkpt>
<trkpt lat="53.393414" lon="-1.912335"><ele>286</ele><time>2021-10-07T10:44:15Z</time><name>PT839</name></trkpt>
<trkpt lat="53.393424" lon="-1.912332"><ele>287</ele><time>2021-10-07T10:44:16Z</time><name>PT840</name></trkpt>
<trkpt lat="53.393432" lon="-1.912332"><ele>288</ele><time>2021-10-07T10:44:17Z</time><name>PT841</name></trkpt>
<trkpt lat="53.393442" lon="-1.912331"><ele>287</ele><time>2021-10-07T10:44:18Z</time><name>PT842</name></trkpt>
<trkpt lat="53.393451" lon="-1.912332"><ele>287</ele><time>2021-10-07T10:44:19Z</time><name>PT843</name></trkpt>
<trkpt lat="53.393456" lon="-1.912332"><ele>287</ele><time>2021-10-07T10:44:20Z</time><name>PT844</name></trkpt>
<trkpt lat="53.393470" lon="-1.912328"><ele>286</ele><time>2021-10-07T10:44:21Z</time><name>PT845</name></trkpt>
<trkpt lat="53.393490" lon="-1.912320"><ele>287</ele><time>2021-10-07T10:44:22Z</time><name>PT846</name></trkpt>
<trkpt lat="53.393504" lon="-1.912320"><ele>288</ele><time>2021-10-07T10:44:23Z</time><name>PT847</name></trkpt>
<trkpt lat="53.393515" lon="-1.912324"><ele>288</ele><time>2021-10-07T10:44:24Z</time><name>PT848</name></trkpt>
<trkpt lat="53.393529" lon="-1.912325"><ele>288</ele><time>2021-10-07T10:44:25Z</time><name>PT849</name></trkpt>
<trkpt lat="53.393543" lon="-1.912324"><ele>288</ele><time>2021-10-07T10:44:26Z</time><name>PT850</name></trkpt>
<trkpt lat="53.393557" lon="-1.912326"><ele>288</ele><time>2021-10-07T10:44:27Z</time><name>PT851</name></trkpt>
<trkpt lat="53.393576" lon="-1.912326"><ele>288</ele><time>2021-10-07T10:44:28Z</time><name>PT852</name></trkpt>
<trkpt lat="53.393593" lon="-1.912325"><ele>288</ele><time>2021-10-07T10:44:29Z</time><name>PT853</name></trkpt>
<trkpt lat="53.393604" lon="-1.912327"><ele>288</ele><time>2021-10-07T10:44:30Z</time><name>PT854</name></trkpt>
<trkpt lat="53.393623" lon="-1.912337"><ele>288</ele><time>2021-10-07T10:44:31Z</time><name>PT855</name></trkpt>
<trkpt lat="53.393636" lon="-1.912342"><ele>288</ele><time>2021-10-07T10:44:32Z</time><name>PT856</name></trkpt>
<trkpt lat="53.393646" lon="-1.912343"><ele>288</ele><time>2021-10-07T10:44:33Z</time><name>PT857</name></trkpt>
<trkpt lat="53.393657" lon="-1.912345"><ele>287</ele><time>2021-10-07T10:44:34Z</time><name>PT858</name></trkpt>
<trkpt lat="53.393674" lon="-1.912343"><ele>288</ele><time>2021-10-07T10:44:35Z</time><name>PT859</name></trkpt>
<trkpt lat="53.393684" lon="-1.912347"><ele>287</ele><time>2021-10-07T10:44:36Z</time><name>PT860</name></trkpt>
<trkpt lat="53.393694" lon="-1.912346"><ele>287</ele><time>2021-10-07T10:44:37Z</time><name>PT861</name></trkpt>
<trkpt lat="53.393714" lon="-1.912345"><ele>286</ele><time>2021-10-07T10:44:38Z</time><name>PT862</name></trkpt>
<trkpt lat="53.393732" lon="-1.912346"><ele>285</ele><time>2021-10-07T10:44:39Z</time><name>PT863</name></trkpt>
<trkpt lat="53.393745" lon="-1.912345"><ele>285</ele><time>2021-10-07T10:44:40Z</time><name>PT864</name></trkpt>
<trkpt lat="53.393761" lon="-1.912339"><ele>284</ele><time>2021-10-07T10:44:41Z</time><name>PT865</name></trkpt>
<trkpt lat="53.393774" lon="-1.912333"><ele>284</ele><time>2021-10-07T10:44:42Z</time><name>PT866</name></trkpt>
<trkpt lat="53.393787" lon="-1.912331"><ele>283</ele><time>2021-10-07T10:44:43Z</time><name>PT867</name></trkpt>
<trkpt lat="53.393800" lon="-1.912333"><ele>283</ele><time>2021-10-07T10:44:44Z</time><name>PT868</name></trkpt>
<trkpt lat="53.393822" lon="-1.912329"><ele>282</ele><time>2021-10-07T10:44:45Z</time><name>PT869</name></trkpt>
<trkpt lat="53.393836" lon="-1.912329"><ele>281</ele><time>2021-10-07T10:44:46Z</time><name>PT870</name></trkpt>
<trkpt lat="53.393851" lon="-1.912326"><ele>281</ele><time>2021-10-07T10:44:47Z</time><name>PT871</name></trkpt>
<trkpt lat="53.393871" lon="-1.912318"><ele>281</ele><time>2021-10-07T10:44:48Z</time><name>PT872</name></trkpt>
<trkpt lat="53.393884" lon="-1.912317"><ele>280</ele><time>2021-10-07T10:44:49Z</time><name>PT873</name></trkpt>
<trkpt lat="53.393897" lon="-1.912317"><ele>281</ele><time>2021-10-07T10:44:50Z</time><name>PT874</name></trkpt>
<trkpt lat="53.393909" lon="-1.912321"><ele>280</ele><time>2021-10-07T10:44:51Z</time><name>PT875</name></trkpt>
<trkpt lat="53.393923" lon="-1.912323"><ele>280</ele><time>2021-10-07T10:44:52Z</time><name>PT876</name></trkpt>
<trkpt lat="53.393936" lon="-1.912320"><ele>280</ele><time>2021-10-07T10:44:53Z</time><name>PT877</name></trkpt>
<trkpt lat="53.393943" lon="-1.912316"><ele>278</ele><time>2021-10-07T10:44:54Z</time><name>PT878</name></trkpt>
<trkpt lat="53.393946" lon="-1.912320"><ele>277</ele><time>2021-10-07T10:44:55Z</time><name>PT879</name></trkpt>
<trkpt lat="53.393949" lon="-1.912323"><ele>277</ele><time>2021-10-07T10:44:56Z</time><name>PT880</name></trkpt>
<trkpt lat="53.393953" lon="-1.912325"><ele>276</ele><time>2021-10-07T10:44:57Z</time><name>PT881</name></trkpt>
<trkpt lat="53.393970" lon="-1.912328"><ele>278</ele><time>2021-10-07T10:44:58Z</time><name>PT882</name></trkpt>
<trkpt lat="53.393977" lon="-1.912329"><ele>279</ele><time>2021-10-07T10:44:59Z</time><name>PT883</name></trkpt>
<trkpt lat="53.393983" lon="-1.912329"><ele>280</ele><time>2021-10-07T10:45:00Z</time><name>PT884</name></trkpt>
<trkpt lat="53.393987" lon="-1.912331"><ele>280</ele><time>2021-10-07T10:45:01Z</time><name>PT885</name></trkpt>
<trkpt lat="53.393989" lon="-1.912333"><ele>280</ele><time>2021-10-07T10:45:02Z</time><name>PT886</name></trkpt>
<trkpt lat="53.393992" lon="-1.912334"><ele>280</ele><time>2021-10-07T10:45:03Z</time><name>PT887</name></trkpt>
<trkpt lat="53.393992" lon="-1.912339"><ele>280</ele><time>2021-10-07T10:45:04Z</time><name>PT888</name></trkpt>
<trkpt lat="53.393991" lon="-1.912338"><ele>280</ele><time>2021-10-07T10:45:05Z</time><name>PT889</name></trkpt>
<trkpt lat="53.393994" lon="-1.912332"><ele>281</ele><time>2021-10-07T10:45:06Z</time><name>PT890</name></trkpt>
<trkpt lat="53.394012" lon="-1.912325"><ele>283</ele><time>2021-10-07T10:45:07Z</time><name>PT891</name></trkpt>
<trkpt lat="53.394022" lon="-1.912331"><ele>283</ele><time>2021-10-07T10:45:24Z</time><name>PT892</name></trkpt>
<trkpt lat="53.394033" lon="-1.912328"><ele>282</ele><time>2021-10-07T10:45:25Z</time><name>PT893</name></trkpt>
<trkpt lat="53.394051" lon="-1.912326"><ele>282</ele><time>2021-10-07T10:45:26Z</time><name>PT894</name></trkpt>
<trkpt lat="53.394060" lon="-1.912317"><ele>281</ele><time>2021-10-07T10:45:27Z</time><name>PT895</name></trkpt>
<trkpt lat="53.394069" lon="-1.912315"><ele>282</ele><time>2021-10-07T10:45:28Z</time><name>PT896</name></trkpt>
<trkpt lat="53.394077" lon="-1.912317"><ele>281</ele><time>2021-10-07T10:45:29Z</time><name>PT897</name></trkpt>
<trkpt lat="53.394089" lon="-1.912316"><ele>282</ele><time>2021-10-07T10:45:30Z</time><name>PT898</name></trkpt>
<trkpt lat="53.394100" lon="-1.912316"><ele>282</ele><time>2021-10-07T10:45:31Z</time><name>PT899</name></trkpt>
<trkpt lat="53.394112" lon="-1.912312"><ele>282</ele><time>2021-10-07T10:45:32Z</time><name>PT900</name></trkpt>
<trkpt lat="53.394125" lon="-1.912303"><ele>282</ele><time>2021-10-07T10:45:33Z</time><name>PT901</name></trkpt>
<trkpt lat="53.394135" lon="-1.912303"><ele>282</ele><time>2021-10-07T10:45:34Z</time><name>PT902</name></trkpt>
<trkpt lat="53.394150" lon="-1.912298"><ele>282</ele><time>2021-10-07T10:45:35Z</time><name>PT903</name></trkpt>
<trkpt lat="53.394165" lon="-1.912292"><ele>283</ele><time>2021-10-07T10:45:36Z</time><name>PT904</name></trkpt>
<trkpt lat="53.394173" lon="-1.912294"><ele>282</ele><time>2021-10-07T10:45:37Z</time><name>PT905</name></trkpt>
<trkpt lat="53.394183" lon="-1.912290"><ele>282</ele><time>2021-10-07T10:45:38Z</time><name>PT906</name></trkpt>
<trkpt lat="53.394195" lon="-1.912282"><ele>282</ele><time>2021-10-07T10:45:39Z</time><name>PT907</name></trkpt>
<trkpt lat="53.394207" lon="-1.912274"><ele>282</ele><time>2021-10-07T10:45:40Z</time><name>PT908</name></trkpt>
<trkpt lat="53.394217" lon="-1.912270"><ele>282</ele><time>2021-10-07T10:45:41Z</time><name>PT909</name></trkpt>
<trkpt lat="53.394226" lon="-1.912271"><ele>282</ele><time>2021-10-07T10:45:42Z</time><name>PT910</name></trkpt>
<trkpt lat="53.394239" lon="-1.912270"><ele>282</ele><time>2021-10-07T10:45:43Z</time><name>PT911</name></trkpt>
<trkpt lat="53.394250" lon="-1.912267"><ele>282</ele><time>2021-10-07T10:45:44Z</time><name>PT912</name></trkpt>
<trkpt lat="53.394263" lon="-1.912262"><ele>282</ele><time>2021-10-07T10:45:45Z</time><name>PT913</name></trkpt>
<trkpt lat="53.394277" lon="-1.912254"><ele>283</ele><time>2021-10-07T10:45:46Z</time><name>PT914</name></trkpt>
<trkpt lat="53.394286" lon="-1.912254"><ele>282</ele><time>2021-10-07T10:45:47Z</time><name>PT915</name></trkpt>
<trkpt lat="53.394325" lon="-1.912250"><ele>282</ele><time>2021-10-07T10:45:50Z</time><name>PT916</name></trkpt>
<trkpt lat="53.394372" lon="-1.912240"><ele>283</ele><time>2021-10-07T10:45:54Z</time><name>PT917</name></trkpt>
<trkpt lat="53.394405" lon="-1.912240"><ele>280</ele><time>2021-10-07T10:45:58Z</time><name>PT918</name></trkpt>
<trkpt lat="53.394459" lon="-1.912224"><ele>280</ele><time>2021-10-07T10:46:02Z</time><name>PT919</name></trkpt>
<trkpt lat="53.394506" lon="-1.912211"><ele>280</ele><time>2021-10-07T10:46:06Z</time><name>PT920</name></trkpt>
<trkpt lat="53.394561" lon="-1.912202"><ele>280</ele><time>2021-10-07T10:46:10Z</time><name>PT921</name></trkpt>
<trkpt lat="53.394615" lon="-1.912192"><ele>280</ele><time>2021-10-07T10:46:14Z</time><name>PT922</name></trkpt>
<trkpt lat="53.394662" lon="-1.912181"><ele>279</ele><time>2021-10-07T10:46:18Z</time><name>PT923</name></trkpt>
<trkpt lat="53.394706" lon="-1.912176"><ele>279</ele><time>2021-10-07T10:46:22Z</time><name>PT924</name></trkpt>
<trkpt lat="53.394746" lon="-1.912182"><ele>279</ele><time>2021-10-07T10:46:26Z</time><name>PT925</name></trkpt>
<trkpt lat="53.394777" lon="-1.912178"><ele>279</ele><time>2021-10-07T10:46:30Z</time><name>PT926</name></trkpt>
<trkpt lat="53.394825" lon="-1.912171"><ele>279</ele><time>2021-10-07T10:46:34Z</time><name>PT927</name></trkpt>
<trkpt lat="53.394872" lon="-1.912153"><ele>281</ele><time>2021-10-07T10:46:38Z</time><name>PT928</name></trkpt>
<trkpt lat="53.394917" lon="-1.912128"><ele>281</ele><time>2021-10-07T10:46:42Z</time><name>PT929</name></trkpt>
<trkpt lat="53.394970" lon="-1.912102"><ele>282</ele><time>2021-10-07T10:46:46Z</time><name>PT930</name></trkpt>
<trkpt lat="53.395015" lon="-1.912091"><ele>280</ele><time>2021-10-07T10:46:50Z</time><name>PT931</name></trkpt>
<trkpt lat="53.395051" lon="-1.912079"><ele>281</ele><time>2021-10-07T10:46:54Z</time><name>PT932</name></trkpt>
<trkpt lat="53.395096" lon="-1.912069"><ele>283</ele><time>2021-10-07T10:46:58Z</time><name>PT933</name></trkpt>
<trkpt lat="53.395143" lon="-1.912031"><ele>284</ele><time>2021-10-07T10:47:02Z</time><name>PT934</name></trkpt>
<trkpt lat="53.395189" lon="-1.912001"><ele>284</ele><time>2021-10-07T10:47:06Z</time><name>PT935</name></trkpt>
<trkpt lat="53.395227" lon="-1.911965"><ele>286</ele><time>2021-10-07T10:47:10Z</time><name>PT936</name></trkpt>
<trkpt lat="53.395271" lon="-1.911942"><ele>287</ele><time>2021-10-07T10:47:14Z</time><name>PT937</name></trkpt>
<trkpt lat="53.395309" lon="-1.911913"><ele>287</ele><time>2021-10-07T10:47:18Z</time><name>PT938</name></trkpt>
<trkpt lat="53.395341" lon="-1.911906"><ele>287</ele><time>2021-10-07T10:47:22Z</time><name>PT939</name></trkpt>
<trkpt lat="53.395372" lon="-1.911854"><ele>289</ele><time>2021-10-07T10:47:26Z</time><name>PT940</name></trkpt>
<trkpt lat="53.395397" lon="-1.911819"><ele>289</ele><time>2021-10-07T10:47:30Z</time><name>PT941</name></trkpt>
<trkpt lat="53.395428" lon="-1.911777"><ele>289</ele><time>2021-10-07T10:47:34Z</time><name>PT942</name></trkpt>
<trkpt lat="53.395456" lon="-1.911723"><ele>289</ele><time>2021-10-07T10:47:38Z</time><name>PT943</name></trkpt>
<trkpt lat="53.395485" lon="-1.911667"><ele>289</ele><time>2021-10-07T10:47:42Z</time><name>PT944</name></trkpt>
<trkpt lat="53.395514" lon="-1.911652"><ele>289</ele><time>2021-10-07T10:47:46Z</time><name>PT945</name></trkpt>
<trkpt lat="53.395515" lon="-1.911654"><ele>289</ele><time>2021-10-07T10:47:47Z</time><name>PT946</name></trkpt>
<trkpt lat="53.395521" lon="-1.911648"><ele>289</ele><time>2021-10-07T10:47:48Z</time><name>PT947</name></trkpt>
<trkpt lat="53.395523" lon="-1.911652"><ele>289</ele><time>2021-10-07T10:47:49Z</time><name>PT948</name></trkpt>
<trkpt lat="53.395527" lon="-1.911652"><ele>289</ele><time>2021-10-07T10:47:50Z</time><name>PT949</name></trkpt>
<trkpt lat="53.395529" lon="-1.911654"><ele>289</ele><time>2021-10-07T10:47:51Z</time><name>PT950</name></trkpt>
<trkpt lat="53.395532" lon="-1.911650"><ele>289</ele><time>2021-10-07T10:48:03Z</time><name>PT951</name></trkpt>
<trkpt lat="53.395540" lon="-1.911648"><ele>289</ele><time>2021-10-07T10:48:04Z</time><name>PT952</name></trkpt>
<trkpt lat="53.395550" lon="-1.911649"><ele>289</ele><time>2021-10-07T10:48:05Z</time><name>PT953</name></trkpt>
<trkpt lat="53.395565" lon="-1.911649"><ele>290</ele><time>2021-10-07T10:48:07Z</time><name>PT954</name></trkpt>
<trkpt lat="53.395577" lon="-1.911654"><ele>290</ele><time>2021-10-07T10:48:07Z</time><name>PT955</name></trkpt>
<trkpt lat="53.395583" lon="-1.911656"><ele>290</ele><time>2021-10-07T10:48:08Z</time><name>PT956</name></trkpt>
<trkpt lat="53.395587" lon="-1.911649"><ele>290</ele><time>2021-10-07T10:48:09Z</time><name>PT957</name></trkpt>
<trkpt lat="53.395596" lon="-1.911643"><ele>289</ele><time>2021-10-07T10:48:10Z</time><name>PT958</name></trkpt>
<trkpt lat="53.395607" lon="-1.911647"><ele>290</ele><time>2021-10-07T10:48:11Z</time><name>PT959</name></trkpt>
<trkpt lat="53.395616" lon="-1.911652"><ele>289</ele><time>2021-10-07T10:48:12Z</time><name>PT960</name></trkpt>
<trkpt lat="53.395625" lon="-1.911657"><ele>290</ele><time>2021-10-07T10:48:13Z</time><name>PT961</name></trkpt>
<trkpt lat="53.395633" lon="-1.911659"><ele>289</ele><time>2021-10-07T10:48:14Z</time><name>PT962</name></trkpt>
<trkpt lat="53.395640" lon="-1.911659"><ele>290</ele><time>2021-10-07T10:48:15Z</time><name>PT963</name></trkpt>
<trkpt lat="53.395650" lon="-1.911657"><ele>290</ele><time>2021-10-07T10:48:16Z</time><name>PT964</name></trkpt>
<trkpt lat="53.395658" lon="-1.911654"><ele>291</ele><time>2021-10-07T10:48:17Z</time><name>PT965</name></trkpt>
<trkpt lat="53.395669" lon="-1.911650"><ele>291</ele><time>2021-10-07T10:48:18Z</time><name>PT966</name></trkpt>
<trkpt lat="53.395679" lon="-1.911643"><ele>291</ele><time>2021-10-07T10:48:19Z</time><name>PT967</name></trkpt>
<trkpt lat="53.395698" lon="-1.911626"><ele>292</ele><time>2021-10-07T10:48:20Z</time><name>PT968</name></trkpt>
<trkpt lat="53.395711" lon="-1.911617"><ele>291</ele><time>2021-10-07T10:48:21Z</time><name>PT969</name></trkpt>
<trkpt lat="53.395726" lon="-1.911608"><ele>292</ele><time>2021-10-07T10:48:22Z</time><name>PT970</name></trkpt>
<trkpt lat="53.395735" lon="-1.911610"><ele>291</ele><time>2021-10-07T10:48:23Z</time><name>PT971</name></trkpt>
<trkpt lat="53.395748" lon="-1.911608"><ele>292</ele><time>2021-10-07T10:48:24Z</time><name>PT972</name></trkpt>
<trkpt lat="53.395759" lon="-1.911602"><ele>291</ele><time>2021-10-07T10:48:25Z</time><name>PT973</name></trkpt>
<trkpt lat="53.395768" lon="-1.911608"><ele>291</ele><time>2021-10-07T10:48:26Z</time><name>PT974</name></trkpt>
<trkpt lat="53.395778" lon="-1.911613"><ele>291</ele><time>2021-10-07T10:48:27Z</time><name>PT975</name></trkpt>
<trkpt lat="53.395787" lon="-1.911613"><ele>291</ele><time>2021-10-07T10:48:28Z</time><name>PT976</name></trkpt>
<trkpt lat="53.395796" lon="-1.911613"><ele>291</ele><time>2021-10-07T10:48:29Z</time><name>PT977</name></trkpt>
<trkpt lat="53.395808" lon="-1.911614"><ele>292</ele><time>2021-10-07T10:48:30Z</time><name>PT978</name></trkpt>
<trkpt lat="53.395816" lon="-1.911617"><ele>292</ele><time>2021-10-07T10:48:31Z</time><name>PT979</name></trkpt>
<trkpt lat="53.395826" lon="-1.911620"><ele>293</ele><time>2021-10-07T10:48:32Z</time><name>PT980</name></trkpt>
<trkpt lat="53.395833" lon="-1.911615"><ele>293</ele><time>2021-10-07T10:48:33Z</time><name>PT981</name></trkpt>
<trkpt lat="53.395844" lon="-1.911613"><ele>293</ele><time>2021-10-07T10:48:34Z</time><name>PT982</name></trkpt>
<trkpt lat="53.395856" lon="-1.911611"><ele>293</ele><time>2021-10-07T10:48:35Z</time><name>PT983</name></trkpt>
<trkpt lat="53.395865" lon="-1.911612"><ele>293</ele><time>2021-10-07T10:48:36Z</time><name>PT984</name></trkpt>
<trkpt lat="53.395875" lon="-1.911613"><ele>293</ele><time>2021-10-07T10:48:37Z</time><name>PT985</name></trkpt>
<trkpt lat="53.395887" lon="-1.911618"><ele>293</ele><time>2021-10-07T10:48:38Z</time><name>PT986</name></trkpt>
<trkpt lat="53.395895" lon="-1.911620"><ele>294</ele><time>2021-10-07T10:48:39Z</time><name>PT987</name></trkpt>
<trkpt lat="53.395903" lon="-1.911621"><ele>294</ele><time>2021-10-07T10:48:40Z</time><name>PT988</name></trkpt>
<trkpt lat="53.395917" lon="-1.911615"><ele>294</ele><time>2021-10-07T10:48:41Z</time><name>PT989</name></trkpt>
<trkpt lat="53.395925" lon="-1.911614"><ele>294</ele><time>2021-10-07T10:48:42Z</time><name>PT990</name></trkpt>
<trkpt lat="53.395938" lon="-1.911612"><ele>293</ele><time>2021-10-07T10:48:43Z</time><name>PT991</name></trkpt>
<trkpt lat="53.395948" lon="-1.911611"><ele>293</ele><time>2021-10-07T10:48:44Z</time><name>PT992</name></trkpt>
<trkpt lat="53.395965" lon="-1.911602"><ele>293</ele><time>2021-10-07T10:48:45Z</time><name>PT993</name></trkpt>
<trkpt lat="53.395975" lon="-1.911599"><ele>294</ele><time>2021-10-07T10:48:46Z</time><name>PT994</name></trkpt>
<trkpt lat="53.395986" lon="-1.911599"><ele>294</ele><time>2021-10-07T10:48:47Z</time><name>PT995</name></trkpt>
<trkpt lat="53.395997" lon="-1.911597"><ele>294</ele><time>2021-10-07T10:48:48Z</time><name>PT996</name></trkpt>
<trkpt lat="53.396011" lon="-1.911595"><ele>295</ele><time>2021-10-07T10:48:49Z</time><name>PT997</name></trkpt>
<trkpt lat="53.396023" lon="-1.911593"><ele>294</ele><time>2021-10-07T10:48:50Z</time><name>PT998</name></trkpt>
<trkpt lat="53.396035" lon="-1.911587"><ele>295</ele><time>2021-10-07T10:48:51Z</time><name>PT999</name></trkpt>
<trkpt lat="53.396046" lon="-1.911579"><ele>295</ele><time>2021-10-07T10:48:52Z</time><name>PT1000</name></trkpt>
<trkpt lat="53.396056" lon="-1.911577"><ele>295</ele><time>2021-10-07T10:48:53Z</time><name>PT1001</name></trkpt>
<trkpt lat="53.396067" lon="-1.911573"><ele>295</ele><time>2021-10-07T10:48:54Z</time><name>PT1002</name></trkpt>
<trkpt lat="53.396078" lon="-1.911570"><ele>295</ele><time>2021-10-07T10:48:55Z</time><name>PT1003</name></trkpt>
<trkpt lat="53.396090" lon="-1.911565"><ele>295</ele><time>2021-10-07T10:48:56Z</time><name>PT1004</name></trkpt>
<trkpt lat="53.396098" lon="-1.911561"><ele>295</ele><time>2021-10-07T10:48:57Z</time><name>PT1005</name></trkpt>
<trkpt lat="53.396106" lon="-1.911560"><ele>295</ele><time>2021-10-07T10:48:58Z</time><name>PT1006</name></trkpt>
<trkpt lat="53.396116" lon="-1.911552"><ele>295</ele><time>2021-10-07T10:48:59Z</time><name>PT1007</name></trkpt>
<trkpt lat="53.396125" lon="-1.911552"><ele>295</ele><time>2021-10-07T10:49:00Z</time><name>PT1008</name></trkpt>
<trkpt lat="53.396136" lon="-1.911553"><ele>295</ele><time>2021-10-07T10:49:01Z</time><name>PT1009</name></trkpt>
<trkpt lat="53.396146" lon="-1.911550"><ele>294</ele><time>2021-10-07T10:49:02Z</time><name>PT1010</name></trkpt>
<trkpt lat="53.396151" lon="-1.911543"><ele>296</ele><time>2021-10-07T10:49:03Z</time><name>PT1011</name></trkpt>
<trkpt lat="53.396159" lon="-1.911539"><ele>297</ele><time>2021-10-07T10:49:04Z</time><name>PT1012</name></trkpt>
<trkpt lat="53.396170" lon="-1.911539"><ele>297</ele><time>2021-10-07T10:49:05Z</time><name>PT1013</name></trkpt>
<trkpt lat="53.396184" lon="-1.911541"><ele>297</ele><time>2021-10-07T10:49:06Z</time><name>PT1014</name></trkpt>
<trkpt lat="53.396193" lon="-1.911541"><ele>296</ele><time>2021-10-07T10:49:07Z</time><name>PT1015</name></trkpt>
<trkpt lat="53.396207" lon="-1.911536"><ele>297</ele><time>2021-10-07T10:49:08Z</time><name>PT1016</name></trkpt>
<trkpt lat="53.396216" lon="-1.911540"><ele>297</ele><time>2021-10-07T10:49:09Z</time><name>PT1017</name></trkpt>
<trkpt lat="53.396225" lon="-1.911538"><ele>297</ele><time>2021-10-07T10:49:10Z</time><name>PT1018</name></trkpt>
<trkpt lat="53.396239" lon="-1.911536"><ele>297</ele><time>2021-10-07T10:49:11Z</time><name>PT1019</name></trkpt>
<trkpt lat="53.396254" lon="-1.911540"><ele>297</ele><time>2021-10-07T10:49:12Z</time><name>PT1020</name></trkpt>
<trkpt lat="53.396268" lon="-1.911540"><ele>297</ele><time>2021-10-07T10:49:13Z</time><name>PT1021</name></trkpt>
<trkpt lat="53.396282" lon="-1.911550"><ele>297</ele><time>2021-10-07T10:49:14Z</time><name>PT1022</name></trkpt>
<trkpt lat="53.396294" lon="-1.911560"><ele>297</ele><time>2021-10-07T10:49:15Z</time><name>PT1023</name></trkpt>
<trkpt lat="53.396306" lon="-1.911563"><ele>297</ele><time>2021-10-07T10:49:16Z</time><name>PT1024</name></trkpt>
<trkpt lat="53.396319" lon="-1.911568"><ele>297</ele><time>2021-10-07T10:49:17Z</time><name>PT1025</name></trkpt>
<trkpt lat="53.396327" lon="-1.911577"><ele>298</ele><time>2021-10-07T10:49:18Z</time><name>PT1026</name></trkpt>
<trkpt lat="53.396336" lon="-1.911582"><ele>298</ele><time>2021-10-07T10:49:19Z</time><name>PT1027</name></trkpt>
<trkpt lat="53.396346" lon="-1.911583"><ele>297</ele><time>2021-10-07T10:49:20Z</time><name>PT1028</name></trkpt>
<trkpt lat="53.396351" lon="-1.911585"><ele>298</ele><time>2021-10-07T10:49:21Z</time><name>PT1029</name></trkpt>
<trkpt lat="53.396360" lon="-1.911589"><ele>298</ele><time>2021-10-07T10:49:22Z</time><name>PT1030</name></trkpt>
<trkpt lat="53.396369" lon="-1.911590"><ele>298</ele><time>2021-10-07T10:49:23Z</time><name>PT1031</name></trkpt>
<trkpt lat="53.396379" lon="-1.911592"><ele>299</ele><time>2021-10-07T10:49:24Z</time><name>PT1032</name></trkpt>
<trkpt lat="53.396390" lon="-1.911599"><ele>298</ele><time>2021-10-07T10:49:25Z</time><name>PT1033</name></trkpt>
<trkpt lat="53.396404" lon="-1.911602"><ele>299</ele><time>2021-10-07T10:49:26Z</time><name>PT1034</name></trkpt>
<trkpt lat="53.396417" lon="-1.911607"><ele>300</ele><time>2021-10-07T10:49:27Z</time><name>PT1035</name></trkpt>
<trkpt lat="53.396422" lon="-1.911610"><ele>299</ele><time>2021-10-07T10:49:28Z</time><name>PT1036</name></trkpt>
<trkpt lat="53.396431" lon="-1.911614"><ele>299</ele><time>2021-10-07T10:49:29Z</time><name>PT1037</name></trkpt>
<trkpt lat="53.396442" lon="-1.911615"><ele>298</ele><time>2021-10-07T10:49:30Z</time><name>PT1038</name></trkpt>
<trkpt lat="53.396453" lon="-1.911619"><ele>298</ele><time>2021-10-07T10:49:31Z</time><name>PT1039</name></trkpt>
<trkpt lat="53.396463" lon="-1.911623"><ele>298</ele><time>2021-10-07T10:49:32Z</time><name>PT1040</name></trkpt>
<trkpt lat="53.396473" lon="-1.911627"><ele>298</ele><time>2021-10-07T10:49:33Z</time><name>PT1041</name></trkpt>
<trkpt lat="53.396478" lon="-1.911631"><ele>297</ele><time>2021-10-07T10:49:34Z</time><name>PT1042</name></trkpt>
<trkpt lat="53.396485" lon="-1.911636"><ele>298</ele><time>2021-10-07T10:49:35Z</time><name>PT1043</name></trkpt>
<trkpt lat="53.396495" lon="-1.911639"><ele>298</ele><time>2021-10-07T10:49:36Z</time><name>PT1044</name></trkpt>
<trkpt lat="53.396506" lon="-1.911637"><ele>298</ele><time>2021-10-07T10:49:37Z</time><name>PT1045</name></trkpt>
<trkpt lat="53.396514" lon="-1.911639"><ele>298</ele><time>2021-10-07T10:49:38Z</time><name>PT1046</name></trkpt>
<trkpt lat="53.396525" lon="-1.911650"><ele>298</ele><time>2021-10-07T10:49:39Z</time><name>PT1047</name></trkpt>
<trkpt lat="53.396539" lon="-1.911656"><ele>298</ele><time>2021-10-07T10:49:40Z</time><name>PT1048</name></trkpt>
<trkpt lat="53.396550" lon="-1.911665"><ele>298</ele><time>2021-10-07T10:49:41Z</time><name>PT1049</name></trkpt>
<trkpt lat="53.396562" lon="-1.911676"><ele>298</ele><time>2021-10-07T10:49:42Z</time><name>PT1050</name></trkpt>
<trkpt lat="53.396575" lon="-1.911682"><ele>299</ele><time>2021-10-07T10:49:43Z</time><name>PT1051</name></trkpt>
<trkpt lat="53.396584" lon="-1.911694"><ele>298</ele><time>2021-10-07T10:49:44Z</time><name>PT1052</name></trkpt>
<trkpt lat="53.396595" lon="-1.911697"><ele>297</ele><time>2021-10-07T10:49:45Z</time><name>PT1053</name></trkpt>
<trkpt lat="53.396610" lon="-1.911701"><ele>298</ele><time>2021-10-07T10:49:46Z</time><name>PT1054</name></trkpt>
<trkpt lat="53.396644" lon="-1.911731"><ele>296</ele><time>2021-10-07T10:49:50Z</time><name>PT1055</name></trkpt>
<trkpt lat="53.396686" lon="-1.911746"><ele>296</ele><time>2021-10-07T10:49:54Z</time><name>PT1056</name></trkpt>
<trkpt lat="53.396732" lon="-1.911740"><ele>298</ele><time>2021-10-07T10:49:58Z</time><name>PT1057</name></trkpt>
<trkpt lat="53.396771" lon="-1.911771"><ele>301</ele><time>2021-10-07T10:50:02Z</time><name>PT1058</name></trkpt>
<trkpt lat="53.396800" lon="-1.911821"><ele>301</ele><time>2021-10-07T10:50:06Z</time><name>PT1059</name></trkpt>
<trkpt lat="53.396839" lon="-1.911866"><ele>302</ele><time>2021-10-07T10:50:10Z</time><name>PT1060</name></trkpt>
<trkpt lat="53.396874" lon="-1.911892"><ele>304</ele><time>2021-10-07T10:50:14Z</time><name>PT1061</name></trkpt>
<trkpt lat="53.396907" lon="-1.911941"><ele>303</ele><time>2021-10-07T10:50:18Z</time><name>PT1062</name></trkpt>
<trkpt lat="53.396936" lon="-1.911968"><ele>302</ele><time>2021-10-07T10:50:22Z</time><name>PT1063</name></trkpt>
<trkpt lat="53.396962" lon="-1.911993"><ele>302</ele><time>2021-10-07T10:50:26Z</time><name>PT1064</name></trkpt>
<trkpt lat="53.396992" lon="-1.912028"><ele>298</ele><time>2021-10-07T10:50:30Z</time><name>PT1065</name></trkpt>
<trkpt lat="53.397028" lon="-1.912042"><ele>297</ele><time>2021-10-07T10:50:34Z</time><name>PT1066</name></trkpt>
<trkpt lat="53.397068" lon="-1.912069"><ele>299</ele><time>2021-10-07T10:50:38Z</time><name>PT1067</name></trkpt>
<trkpt lat="53.397109" lon="-1.912107"><ele>296</ele><time>2021-10-07T10:50:42Z</time><name>PT1068</name></trkpt>
<trkpt lat="53.397139" lon="-1.912130"><ele>296</ele><time>2021-10-07T10:50:46Z</time><name>PT1069</name></trkpt>
<trkpt lat="53.397181" lon="-1.912148"><ele>296</ele><time>2021-10-07T10:50:50Z</time><name>PT1070</name></trkpt>
<trkpt lat="53.397210" lon="-1.912165"><ele>297</ele><time>2021-10-07T10:50:54Z</time><name>PT1071</name></trkpt>
<trkpt lat="53.397251" lon="-1.912207"><ele>300</ele><time>2021-10-07T10:50:58Z</time><name>PT1072</name></trkpt>
<trkpt lat="53.397286" lon="-1.912238"><ele>299</ele><time>2021-10-07T10:51:02Z</time><name>PT1073</name></trkpt>
<trkpt lat="53.397307" lon="-1.912266"><ele>299</ele><time>2021-10-07T10:51:06Z</time><name>PT1074</name></trkpt>
<trkpt lat="53.397315" lon="-1.912284"><ele>301</ele><time>2021-10-07T10:51:10Z</time><name>PT1075</name></trkpt>
<trkpt lat="53.397354" lon="-1.912265"><ele>304</ele><time>2021-10-07T10:51:14Z</time><name>PT1076</name></trkpt>
<trkpt lat="53.397386" lon="-1.912267"><ele>305</ele><time>2021-10-07T10:51:18Z</time><name>PT1077</name></trkpt>
<trkpt lat="53.397420" lon="-1.912288"><ele>306</ele><time>2021-10-07T10:51:22Z</time><name>PT1078</name></trkpt>
<trkpt lat="53.397445" lon="-1.912275"><ele>309</ele><time>2021-10-07T10:51:26Z</time><name>PT1079</name></trkpt>
<trkpt lat="53.397474" lon="-1.912257"><ele>309</ele><time>2021-10-07T10:51:30Z</time><name>PT1080</name></trkpt>
<trkpt lat="53.397505" lon="-1.912240"><ele>307</ele><time>2021-10-07T10:51:34Z</time><name>PT1081</name></trkpt>
<trkpt lat="53.397542" lon="-1.912225"><ele>308</ele><time>2021-10-07T10:51:38Z</time><name>PT1082</name></trkpt>
<trkpt lat="53.397582" lon="-1.912222"><ele>308</ele><time>2021-10-07T10:51:42Z</time><name>PT1083</name></trkpt>
<trkpt lat="53.397626" lon="-1.912206"><ele>308</ele><time>2021-10-07T10:51:46Z</time><name>PT1084</name></trkpt>
<trkpt lat="53.397662" lon="-1.912217"><ele>309</ele><time>2021-10-07T10:51:50Z</time><name>PT1085</name></trkpt>
<trkpt lat="53.397709" lon="-1.912222"><ele>310</ele><time>2021-10-07T10:51:54Z</time><name>PT1086</name></trkpt>
<trkpt lat="53.397742" lon="-1.912222"><ele>310</ele><time>2021-10-07T10:51:58Z</time><name>PT1087</name></trkpt>
<trkpt lat="53.397784" lon="-1.912200"><ele>311</ele><time>2021-10-07T10:52:02Z</time><name>PT1088</name></trkpt>
<trkpt lat="53.397825" lon="-1.912199"><ele>311</ele><time>2021-10-07T10:52:06Z</time><name>PT1089</name></trkpt>
<trkpt lat="53.397876" lon="-1.912200"><ele>312</ele><time>2021-10-07T10:52:10Z</time><name>PT1090</name></trkpt>
<trkpt lat="53.397921" lon="-1.912193"><ele>311</ele><time>2021-10-07T10:52:14Z</time><name>PT1091</name></trkpt>
<trkpt lat="53.397964" lon="-1.912183"><ele>311</ele><time>2021-10-07T10:52:18Z</time><name>PT1092</name></trkpt>
<trkpt lat="53.398009" lon="-1.912160"><ele>310</ele><time>2021-10-07T10:52:22Z</time><name>PT1093</name></trkpt>
<trkpt lat="53.398051" lon="-1.912142"><ele>310</ele><time>2021-10-07T10:52:26Z</time><name>PT1094</name></trkpt>
<trkpt lat="53.398089" lon="-1.912120"><ele>312</ele><time>2021-10-07T10:52:30Z</time><name>PT1095</name></trkpt>
<trkpt lat="53.398121" lon="-1.912098"><ele>313</ele><time>2021-10-07T10:52:34Z</time><name>PT1096</name></trkpt>
<trkpt lat="53.398129" lon="-1.912118"><ele>313</ele><time>2021-10-07T10:52:38Z</time><name>PT1097</name></trkpt>
<trkpt lat="53.398148" lon="-1.912140"><ele>312</ele><time>2021-10-07T10:52:42Z</time><name>PT1098</name></trkpt>
<trkpt lat="53.398188" lon="-1.912163"><ele>314</ele><time>2021-10-07T10:52:46Z</time><name>PT1099</name></trkpt>
<trkpt lat="53.398223" lon="-1.912164"><ele>317</ele><time>2021-10-07T10:52:50Z</time><name>PT1100</name></trkpt>
<trkpt lat="53.398261" lon="-1.912154"><ele>318</ele><time>2021-10-07T10:52:54Z</time><name>PT1101</name></trkpt>
<trkpt lat="53.398296" lon="-1.912137"><ele>319</ele><time>2021-10-07T10:52:58Z</time><name>PT1102</name></trkpt>
<trkpt lat="53.398325" lon="-1.912139"><ele>319</ele><time>2021-10-07T10:53:02Z</time><name>PT1103</name></trkpt>
<trkpt lat="53.398347" lon="-1.912109"><ele>319</ele><time>2021-10-07T10:53:06Z</time><name>PT1104</name></trkpt>
<trkpt lat="53.398376" lon="-1.912118"><ele>321</ele><time>2021-10-07T10:53:10Z</time><name>PT1105</name></trkpt>
<trkpt lat="53.398411" lon="-1.912116"><ele>322</ele><time>2021-10-07T10:53:14Z</time><name>PT1106</name></trkpt>
<trkpt lat="53.398460" lon="-1.912096"><ele>320</ele><time>2021-10-07T10:53:18Z</time><name>PT1107</name></trkpt>
<trkpt lat="53.398492" lon="-1.912056"><ele>321</ele><time>2021-10-07T10:53:22Z</time><name>PT1108</name></trkpt>
<trkpt lat="53.398518" lon="-1.912026"><ele>322</ele><time>2021-10-07T10:53:26Z</time><name>PT1109</name></trkpt>
<trkpt lat="53.398539" lon="-1.912003"><ele>322</ele><time>2021-10-07T10:53:30Z</time><name>PT1110</name></trkpt>
<trkpt lat="53.398566" lon="-1.911977"><ele>322</ele><time>2021-10-07T10:53:34Z</time><name>PT1111</name></trkpt>
<trkpt lat="53.398585" lon="-1.911947"><ele>322</ele><time>2021-10-07T10:53:38Z</time><name>PT1112</name></trkpt>
<trkpt lat="53.398611" lon="-1.911937"><ele>322</ele><time>2021-10-07T10:53:42Z</time><name>PT1113</name></trkpt>
<trkpt lat="53.398641" lon="-1.911921"><ele>322</ele><time>2021-10-07T10:53:46Z</time><name>PT1114</name></trkpt>
<trkpt lat="53.398680" lon="-1.911910"><ele>324</ele><time>2021-10-07T10:53:50Z</time><name>PT1115</name></trkpt>
<trkpt lat="53.398734" lon="-1.911904"><ele>325</ele><time>2021-10-07T10:53:54Z</time><name>PT1116</name></trkpt>
<trkpt lat="53.398776" lon="-1.911897"><ele>327</ele><time>2021-10-07T10:53:58Z</time><name>PT1117</name></trkpt>
<trkpt lat="53.398821" lon="-1.911882"><ele>325</ele><time>2021-10-07T10:54:02Z</time><name>PT1118</name></trkpt>
<trkpt lat="53.398857" lon="-1.911849"><ele>324</ele><time>2021-10-07T10:54:06Z</time><name>PT1119</name></trkpt>
<trkpt lat="53.398891" lon="-1.911809"><ele>326</ele><time>2021-10-07T10:54:10Z</time><name>PT1120</name></trkpt>
<trkpt lat="53.398923" lon="-1.911782"><ele>326</ele><time>2021-10-07T10:54:14Z</time><name>PT1121</name></trkpt>
<trkpt lat="53.398967" lon="-1.911769"><ele>325</ele><time>2021-10-07T10:54:18Z</time><name>PT1122</name></trkpt>
<trkpt lat="53.398997" lon="-1.911736"><ele>323</ele><time>2021-10-07T10:54:22Z</time><name>PT1123</name></trkpt>
<trkpt lat="53.399035" lon="-1.911698"><ele>324</ele><time>2021-10-07T10:54:26Z</time><name>PT1124</name></trkpt>
<trkpt lat="53.399041" lon="-1.911662"><ele>324</ele><time>2021-10-07T10:54:30Z</time><name>PT1125</name></trkpt>
<trkpt lat="53.399064" lon="-1.911610"><ele>324</ele><time>2021-10-07T10:54:34Z</time><name>PT1126</name></trkpt>
<trkpt lat="53.399086" lon="-1.911562"><ele>324</ele><time>2021-10-07T10:54:38Z</time><name>PT1127</name></trkpt>
<trkpt lat="53.399115" lon="-1.911540"><ele>324</ele><time>2021-10-07T10:54:42Z</time><name>PT1128</name></trkpt>
<trkpt lat="53.399143" lon="-1.911484"><ele>320</ele><time>2021-10-07T10:54:46Z</time><name>PT1129</name></trkpt>
<trkpt lat="53.399169" lon="-1.911466"><ele>320</ele><time>2021-10-07T10:54:50Z</time><name>PT1130</name></trkpt>
<trkpt lat="53.399201" lon="-1.911434"><ele>321</ele><time>2021-10-07T10:54:54Z</time><name>PT1131</name></trkpt>
<trkpt lat="53.399227" lon="-1.911400"><ele>321</ele><time>2021-10-07T10:54:58Z</time><name>PT1132</name></trkpt>
<trkpt lat="53.399253" lon="-1.911364"><ele>323</ele><time>2021-10-07T10:55:02Z</time><name>PT1133</name></trkpt>
<trkpt lat="53.399282" lon="-1.911327"><ele>327</ele><time>2021-10-07T10:55:06Z</time><name>PT1134</name></trkpt>
<trkpt lat="53.399297" lon="-1.911281"><ele>326</ele><time>2021-10-07T10:55:10Z</time><name>PT1135</name></trkpt>
<trkpt lat="53.399312" lon="-1.911254"><ele>328</ele><time>2021-10-07T10:55:14Z</time><name>PT1136</name></trkpt>
<trkpt lat="53.399324" lon="-1.911240"><ele>329</ele><time>2021-10-07T10:55:18Z</time><name>PT1137</name></trkpt>
<trkpt lat="53.399338" lon="-1.911211"><ele>328</ele><time>2021-10-07T10:55:22Z</time><name>PT1138</name></trkpt>
<trkpt lat="53.399355" lon="-1.911185"><ele>331</ele><time>2021-10-07T10:55:26Z</time><name>PT1139</name></trkpt>
<trkpt lat="53.399395" lon="-1.911147"><ele>332</ele><time>2021-10-07T10:55:30Z</time><name>PT1140</name></trkpt>
<trkpt lat="53.399413" lon="-1.911118"><ele>333</ele><time>2021-10-07T10:55:34Z</time><name>PT1141</name></trkpt>
<trkpt lat="53.399441" lon="-1.911092"><ele>335</ele><time>2021-10-07T10:55:38Z</time><name>PT1142</name></trkpt>
<trkpt lat="53.399467" lon="-1.911062"><ele>335</ele><time>2021-10-07T10:55:42Z</time><name>PT1143</name></trkpt>
<trkpt lat="53.399477" lon="-1.911030"><ele>334</ele><time>2021-10-07T10:55:46Z</time><name>PT1144</name></trkpt>
<trkpt lat="53.399493" lon="-1.911013"><ele>335</ele><time>2021-10-07T10:55:50Z</time><name>PT1145</name></trkpt>
<trkpt lat="53.399497" lon="-1.911006"><ele>335</ele><time>2021-10-07T10:55:51Z</time><name>PT1146</name></trkpt>
<trkpt lat="53.399500" lon="-1.911006"><ele>334</ele><time>2021-10-07T10:55:52Z</time><name>PT1147</name></trkpt>
<trkpt lat="53.399506" lon="-1.911001"><ele>334</ele><time>2021-10-07T10:55:53Z</time><name>PT1148</name></trkpt>
<trkpt lat="53.399509" lon="-1.911002"><ele>334</ele><time>2021-10-07T10:55:54Z</time><name>PT1149</name></trkpt>
<trkpt lat="53.399513" lon="-1.910998"><ele>334</ele><time>2021-10-07T10:55:55Z</time><name>PT1150</name></trkpt>
<trkpt lat="53.399513" lon="-1.910998"><ele>334</ele><time>2021-10-07T10:55:56Z</time><name>PT1151</name></trkpt>
<trkpt lat="53.399512" lon="-1.911000"><ele>334</ele><time>2021-10-07T10:55:58Z</time><name>PT1152</name></trkpt>
<trkpt lat="53.399519" lon="-1.910996"><ele>335</ele><time>2021-10-07T10:55:59Z</time><name>PT1153</name></trkpt>
<trkpt lat="53.399534" lon="-1.910997"><ele>334</ele><time>2021-10-07T10:56:00Z</time><name>PT1154</name></trkpt>
<trkpt lat="53.399543" lon="-1.910994"><ele>333</ele><time>2021-10-07T10:56:01Z</time><name>PT1155</name></trkpt>
<trkpt lat="53.399550" lon="-1.910989"><ele>333</ele><time>2021-10-07T10:56:02Z</time><name>PT1156</name></trkpt>
<trkpt lat="53.399560" lon="-1.910974"><ele>333</ele><time>2021-10-07T10:56:03Z</time><name>PT1157</name></trkpt>
<trkpt lat="53.399565" lon="-1.910971"><ele>333</ele><time>2021-10-07T10:56:04Z</time><name>PT1158</name></trkpt>
<trkpt lat="53.399567" lon="-1.910971"><ele>333</ele><time>2021-10-07T10:56:05Z</time><name>PT1159</name></trkpt>
<trkpt lat="53.399568" lon="-1.910968"><ele>333</ele><time>2021-10-07T10:56:06Z</time><name>PT1160</name></trkpt>
<trkpt lat="53.399570" lon="-1.910967"><ele>334</ele><time>2021-10-07T10:56:07Z</time><name>PT1161</name></trkpt>
<trkpt lat="53.399573" lon="-1.910969"><ele>334</ele><time>2021-10-07T10:56:08Z</time><name>PT1162</name></trkpt>
<trkpt lat="53.399576" lon="-1.910972"><ele>334</ele><time>2021-10-07T10:56:09Z</time><name>PT1163</name></trkpt>
<trkpt lat="53.399581" lon="-1.910974"><ele>334</ele><time>2021-10-07T10:56:10Z</time><name>PT1164</name></trkpt>
<trkpt lat="53.399588" lon="-1.910980"><ele>334</ele><time>2021-10-07T10:56:11Z</time><name>PT1165</name></trkpt>
<trkpt lat="53.399586" lon="-1.910983"><ele>333</ele><time>2021-10-07T10:56:12Z</time><name>PT1166</name></trkpt>
<trkpt lat="53.399585" lon="-1.910991"><ele>333</ele><time>2021-10-07T10:56:13Z</time><name>PT1167</name></trkpt>
<trkpt lat="53.399581" lon="-1.910995"><ele>333</ele><time>2021-10-07T10:56:14Z</time><name>PT1168</name></trkpt>
<trkpt lat="53.399579" lon="-1.911007"><ele>333</ele><time>2021-10-07T10:56:15Z</time><name>PT1169</name></trkpt>
<trkpt lat="53.399579" lon="-1.911016"><ele>333</ele><time>2021-10-07T10:56:16Z</time><name>PT1170</name></trkpt>
<trkpt lat="53.399587" lon="-1.911022"><ele>334</ele><time>2021-10-07T10:56:17Z</time><name>PT1171</name></trkpt>
<trkpt lat="53.399593" lon="-1.911028"><ele>334</ele><time>2021-10-07T10:56:18Z</time><name>PT1172</name></trkpt>
<trkpt lat="53.399601" lon="-1.911029"><ele>334</ele><time>2021-10-07T10:56:19Z</time><name>PT1173</name></trkpt>
<trkpt lat="53.399611" lon="-1.911029"><ele>334</ele><time>2021-10-07T10:56:20Z</time><name>PT1174</name></trkpt>
<trkpt lat="53.399620" lon="-1.911032"><ele>334</ele><time>2021-10-07T10:56:21Z</time><name>PT1175</name></trkpt>
<trkpt lat="53.399633" lon="-1.911025"><ele>337</ele><time>2021-10-07T10:56:22Z</time><name>PT1176</name></trkpt>
<trkpt lat="53.399640" lon="-1.911028"><ele>337</ele><time>2021-10-07T10:56:23Z</time><name>PT1177</name></trkpt>
<trkpt lat="53.399643" lon="-1.911030"><ele>336</ele><time>2021-10-07T10:56:24Z</time><name>PT1178</name></trkpt>
<trkpt lat="53.399649" lon="-1.911029"><ele>336</ele><time>2021-10-07T10:56:25Z</time><name>PT1179</name></trkpt>
<trkpt lat="53.399657" lon="-1.911026"><ele>337</ele><time>2021-10-07T10:56:26Z</time><name>PT1180</name></trkpt>
<trkpt lat="53.399660" lon="-1.911028"><ele>337</ele><time>2021-10-07T10:56:27Z</time><name>PT1181</name></trkpt>
<trkpt lat="53.399667" lon="-1.911021"><ele>337</ele><time>2021-10-07T10:56:28Z</time><name>PT1182</name></trkpt>
<trkpt lat="53.399674" lon="-1.911014"><ele>338</ele><time>2021-10-07T10:56:29Z</time><name>PT1183</name></trkpt>
<trkpt lat="53.399686" lon="-1.911014"><ele>337</ele><time>2021-10-07T10:56:30Z</time><name>PT1184</name></trkpt>
<trkpt lat="53.399698" lon="-1.911008"><ele>337</ele><time>2021-10-07T10:56:31Z</time><name>PT1185</name></trkpt>
<trkpt lat="53.399710" lon="-1.911002"><ele>337</ele><time>2021-10-07T10:56:32Z</time><name>PT1186</name></trkpt>
<trkpt lat="53.399718" lon="-1.911003"><ele>337</ele><time>2021-10-07T10:56:33Z</time><name>PT1187</name></trkpt>
<trkpt lat="53.399725" lon="-1.911001"><ele>337</ele><time>2021-10-07T10:56:34Z</time><name>PT1188</name></trkpt>
<trkpt lat="53.399736" lon="-1.910992"><ele>337</ele><time>2021-10-07T10:56:35Z</time><name>PT1189</name></trkpt>
<trkpt lat="53.399744" lon="-1.910985"><ele>337</ele><time>2021-10-07T10:56:36Z</time><name>PT1190</name></trkpt>
<trkpt lat="53.399752" lon="-1.910979"><ele>337</ele><time>2021-10-07T10:56:37Z</time><name>PT1191</name></trkpt>
<trkpt lat="53.399762" lon="-1.910971"><ele>337</ele><time>2021-10-07T10:56:38Z</time><name>PT1192</name></trkpt>
<trkpt lat="53.399776" lon="-1.910960"><ele>337</ele><time>2021-10-07T10:56:39Z</time><name>PT1193</name></trkpt>
<trkpt lat="53.399787" lon="-1.910956"><ele>337</ele><time>2021-10-07T10:56:40Z</time><name>PT1194</name></trkpt>
<trkpt lat="53.399794" lon="-1.910951"><ele>338</ele><time>2021-10-07T10:56:41Z</time><name>PT1195</name></trkpt>
<trkpt lat="53.399803" lon="-1.910945"><ele>337</ele><time>2021-10-07T10:56:42Z</time><name>PT1196</name></trkpt>
<trkpt lat="53.399812" lon="-1.910940"><ele>337</ele><time>2021-10-07T10:56:43Z</time><name>PT1197</name></trkpt>
<trkpt lat="53.399823" lon="-1.910932"><ele>336</ele><time>2021-10-07T10:56:44Z</time><name>PT1198</name></trkpt>
<trkpt lat="53.399833" lon="-1.910921"><ele>337</ele><time>2021-10-07T10:56:45Z</time><name>PT1199</name></trkpt>
<trkpt lat="53.399844" lon="-1.910910"><ele>337</ele><time>2021-10-07T10:56:46Z</time><name>PT1200</name></trkpt>
<trkpt lat="53.399851" lon="-1.910900"><ele>337</ele><time>2021-10-07T10:56:47Z</time><name>PT1201</name></trkpt>
<trkpt lat="53.399863" lon="-1.910886"><ele>337</ele><time>2021-10-07T10:56:48Z</time><name>PT1202</name></trkpt>
<trkpt lat="53.399871" lon="-1.910875"><ele>337</ele><time>2021-10-07T10:56:49Z</time><name>PT1203</name></trkpt>
<trkpt lat="53.399877" lon="-1.910871"><ele>337</ele><time>2021-10-07T10:56:50Z</time><name>PT1204</name></trkpt>
<trkpt lat="53.399887" lon="-1.910861"><ele>338</ele><time>2021-10-07T10:56:51Z</time><name>PT1205</name></trkpt>
<trkpt lat="53.399897" lon="-1.910849"><ele>338</ele><time>2021-10-07T10:56:52Z</time><name>PT1206</name></trkpt>
<trkpt lat="53.399904" lon="-1.910842"><ele>339</ele><time>2021-10-07T10:56:53Z</time><name>PT1207</name></trkpt>
<trkpt lat="53.399914" lon="-1.910829"><ele>340</ele><time>2021-10-07T10:56:54Z</time><name>PT1208</name></trkpt>
<trkpt lat="53.399922" lon="-1.910815"><ele>341</ele><time>2021-10-07T10:56:55Z</time><name>PT1209</name></trkpt>
<trkpt lat="53.399934" lon="-1.910797"><ele>341</ele><time>2021-10-07T10:56:56Z</time><name>PT1210</name></trkpt>
<trkpt lat="53.399943" lon="-1.910782"><ele>342</ele><time>2021-10-07T10:56:57Z</time><name>PT1211</name></trkpt>
<trkpt lat="53.399950" lon="-1.910775"><ele>342</ele><time>2021-10-07T10:56:58Z</time><name>PT1212</name></trkpt>
<trkpt lat="53.399959" lon="-1.910776"><ele>343</ele><time>2021-10-07T10:56:59Z</time><name>PT1213</name></trkpt>
<trkpt lat="53.399967" lon="-1.910773"><ele>342</ele><time>2021-10-07T10:57:00Z</time><name>PT1214</name></trkpt>
<trkpt lat="53.399973" lon="-1.910767"><ele>343</ele><time>2021-10-07T10:57:01Z</time><name>PT1215</name></trkpt>
<trkpt lat="53.399980" lon="-1.910767"><ele>343</ele><time>2021-10-07T10:57:02Z</time><name>PT1216</name></trkpt>
<trkpt lat="53.399989" lon="-1.910765"><ele>345</ele><time>2021-10-07T10:57:03Z</time><name>PT1217</name></trkpt>
<trkpt lat="53.399999" lon="-1.910757"><ele>345</ele><time>2021-10-07T10:57:04Z</time><name>PT1218</name></trkpt>
<trkpt lat="53.400007" lon="-1.910753"><ele>345</ele><time>2021-10-07T10:57:05Z</time><name>PT1219</name></trkpt>
<trkpt lat="53.400019" lon="-1.910746"><ele>344</ele><time>2021-10-07T10:57:06Z</time><name>PT1220</name></trkpt>
<trkpt lat="53.400026" lon="-1.910741"><ele>344</ele><time>2021-10-07T10:57:07Z</time><name>PT1221</name></trkpt>
<trkpt lat="53.400036" lon="-1.910731"><ele>345</ele><time>2021-10-07T10:57:08Z</time><name>PT1222</name></trkpt>
<trkpt lat="53.400044" lon="-1.910723"><ele>344</ele><time>2021-10-07T10:57:09Z</time><name>PT1223</name></trkpt>
<trkpt lat="53.400051" lon="-1.910718"><ele>344</ele><time>2021-10-07T10:57:10Z</time><name>PT1224</name></trkpt>
<trkpt lat="53.400058" lon="-1.910717"><ele>344</ele><time>2021-10-07T10:57:11Z</time><name>PT1225</name></trkpt>
<trkpt lat="53.400065" lon="-1.910712"><ele>344</ele><time>2021-10-07T10:57:12Z</time><name>PT1226</name></trkpt>
<trkpt lat="53.400071" lon="-1.910706"><ele>343</ele><time>2021-10-07T10:57:13Z</time><name>PT1227</name></trkpt>
<trkpt lat="53.400079" lon="-1.910703"><ele>343</ele><time>2021-10-07T10:57:14Z</time><name>PT1228</name></trkpt>
<trkpt lat="53.400086" lon="-1.910700"><ele>343</ele><time>2021-10-07T10:57:15Z</time><name>PT1229</name></trkpt>
<trkpt lat="53.400093" lon="-1.910696"><ele>342</ele><time>2021-10-07T10:57:16Z</time><name>PT1230</name></trkpt>
<trkpt lat="53.400100" lon="-1.910692"><ele>342</ele><time>2021-10-07T10:57:17Z</time><name>PT1231</name></trkpt>
<trkpt lat="53.400105" lon="-1.910687"><ele>342</ele><time>2021-10-07T10:57:18Z</time><name>PT1232</name></trkpt>
<trkpt lat="53.400110" lon="-1.910682"><ele>343</ele><time>2021-10-07T10:57:19Z</time><name>PT1233</name></trkpt>
<trkpt lat="53.400105" lon="-1.910674"><ele>343</ele><time>2021-10-07T10:57:22Z</time><name>PT1234</name></trkpt>
<trkpt lat="53.400106" lon="-1.910660"><ele>343</ele><time>2021-10-07T10:57:23Z</time><name>PT1235</name></trkpt>
<trkpt lat="53.400107" lon="-1.910653"><ele>342</ele><time>2021-10-07T10:57:24Z</time><name>PT1236</name></trkpt>
<trkpt lat="53.400108" lon="-1.910645"><ele>342</ele><time>2021-10-07T10:57:25Z</time><name>PT1237</name></trkpt>
<trkpt lat="53.400116" lon="-1.910638"><ele>342</ele><time>2021-10-07T10:57:26Z</time><name>PT1238</name></trkpt>
<trkpt lat="53.400123" lon="-1.910627"><ele>343</ele><time>2021-10-07T10:57:27Z</time><name>PT1239</name></trkpt>
<trkpt lat="53.400132" lon="-1.910620"><ele>342</ele><time>2021-10-07T10:57:28Z</time><name>PT1240</name></trkpt>
<trkpt lat="53.400138" lon="-1.910620"><ele>342</ele><time>2021-10-07T10:57:29Z</time><name>PT1241</name></trkpt>
<trkpt lat="53.400150" lon="-1.910622"><ele>342</ele><time>2021-10-07T10:57:30Z</time><name>PT1242</name></trkpt>
<trkpt lat="53.400159" lon="-1.910620"><ele>342</ele><time>2021-10-07T10:57:31Z</time><name>PT1243</name></trkpt>
<trkpt lat="53.400168" lon="-1.910620"><ele>343</ele><time>2021-10-07T10:57:32Z</time><name>PT1244</name></trkpt>
<trkpt lat="53.400175" lon="-1.910620"><ele>344</ele><time>2021-10-07T10:57:33Z</time><name>PT1245</name></trkpt>
<trkpt lat="53.400182" lon="-1.910615"><ele>344</ele><time>2021-10-07T10:57:34Z</time><name>PT1246</name></trkpt>
<trkpt lat="53.400188" lon="-1.910614"><ele>344</ele><time>2021-10-07T10:57:35Z</time><name>PT1247</name></trkpt>
<trkpt lat="53.400192" lon="-1.910612"><ele>344</ele><time>2021-10-07T10:57:36Z</time><name>PT1248</name></trkpt>
<trkpt lat="53.400201" lon="-1.910608"><ele>344</ele><time>2021-10-07T10:57:37Z</time><name>PT1249</name></trkpt>
<trkpt lat="53.400207" lon="-1.910607"><ele>344</ele><time>2021-10-07T10:57:38Z</time><name>PT1250</name></trkpt>
<trkpt lat="53.400215" lon="-1.910601"><ele>344</ele><time>2021-10-07T10:57:39Z</time><name>PT1251</name></trkpt>
<trkpt lat="53.400218" lon="-1.910601"><ele>344</ele><time>2021-10-07T10:57:40Z</time><name>PT1252</name></trkpt>
<trkpt lat="53.400224" lon="-1.910602"><ele>344</ele><time>2021-10-07T10:57:41Z</time><name>PT1253</name></trkpt>
<trkpt lat="53.400231" lon="-1.910604"><ele>345</ele><time>2021-10-07T10:57:42Z</time><name>PT1254</name></trkpt>
<trkpt lat="53.400240" lon="-1.910600"><ele>346</ele><time>2021-10-07T10:57:43Z</time><name>PT1255</name></trkpt>
<trkpt lat="53.400246" lon="-1.910592"><ele>347</ele><time>2021-10-07T10:57:44Z</time><name>PT1256</name></trkpt>
<trkpt lat="53.400248" lon="-1.910580"><ele>347</ele><time>2021-10-07T10:57:45Z</time><name>PT1257</name></trkpt>
<trkpt lat="53.400248" lon="-1.910569"><ele>347</ele><time>2021-10-07T10:57:46Z</time><name>PT1258</name></trkpt>
<trkpt lat="53.400248" lon="-1.910559"><ele>347</ele><time>2021-10-07T10:57:47Z</time><name>PT1259</name></trkpt>
<trkpt lat="53.400253" lon="-1.910553"><ele>347</ele><time>2021-10-07T10:57:48Z</time><name>PT1260</name></trkpt>
<trkpt lat="53.400262" lon="-1.910543"><ele>348</ele><time>2021-10-07T10:57:49Z</time><name>PT1261</name></trkpt>
<trkpt lat="53.400280" lon="-1.910522"><ele>348</ele><time>2021-10-07T10:57:52Z</time><name>PT1262</name></trkpt>
<trkpt lat="53.400286" lon="-1.910523"><ele>347</ele><time>2021-10-07T10:57:56Z</time><name>PT1263</name></trkpt>
<trkpt lat="53.400307" lon="-1.910519"><ele>348</ele><time>2021-10-07T10:58:04Z</time><name>PT1264</name></trkpt>
<trkpt lat="53.400321" lon="-1.910485"><ele>351</ele><time>2021-10-07T10:58:08Z</time><name>PT1265</name></trkpt>
<trkpt lat="53.400351" lon="-1.910465"><ele>350</ele><time>2021-10-07T10:58:12Z</time><name>PT1266</name></trkpt>
<trkpt lat="53.400371" lon="-1.910435"><ele>352</ele><time>2021-10-07T10:58:16Z</time><name>PT1267</name></trkpt>
<trkpt lat="53.400382" lon="-1.910430"><ele>352</ele><time>2021-10-07T10:58:18Z</time><name>PT1268</name></trkpt>
<trkpt lat="53.400387" lon="-1.910420"><ele>352</ele><time>2021-10-07T10:58:19Z</time><name>PT1269</name></trkpt>
<trkpt lat="53.400389" lon="-1.910410"><ele>352</ele><time>2021-10-07T10:58:20Z</time><name>PT1270</name></trkpt>
<trkpt lat="53.400387" lon="-1.910405"><ele>353</ele><time>2021-10-07T10:58:21Z</time><name>PT1271</name></trkpt>
<trkpt lat="53.400392" lon="-1.910399"><ele>354</ele><time>2021-10-07T10:58:22Z</time><name>PT1272</name></trkpt>
<trkpt lat="53.400396" lon="-1.910394"><ele>354</ele><time>2021-10-07T10:58:23Z</time><name>PT1273</name></trkpt>
<trkpt lat="53.400403" lon="-1.910384"><ele>355</ele><time>2021-10-07T10:58:24Z</time><name>PT1274</name></trkpt>
<trkpt lat="53.400405" lon="-1.910381"><ele>355</ele><time>2021-10-07T10:58:25Z</time><name>PT1275</name></trkpt>
<trkpt lat="53.400407" lon="-1.910376"><ele>356</ele><time>2021-10-07T10:58:26Z</time><name>PT1276</name></trkpt>
<trkpt lat="53.400411" lon="-1.910371"><ele>356</ele><time>2021-10-07T10:58:27Z</time><name>PT1277</name></trkpt>
<trkpt lat="53.400415" lon="-1.910364"><ele>356</ele><time>2021-10-07T10:58:28Z</time><name>PT1278</name></trkpt>
<trkpt lat="53.400416" lon="-1.910360"><ele>356</ele><time>2021-10-07T10:58:29Z</time><name>PT1279</name></trkpt>
<trkpt lat="53.400418" lon="-1.910354"><ele>356</ele><time>2021-10-07T10:58:30Z</time><name>PT1280</name></trkpt>
<trkpt lat="53.400421" lon="-1.910350"><ele>356</ele><time>2021-10-07T10:58:31Z</time><name>PT1281</name></trkpt>
<trkpt lat="53.400424" lon="-1.910343"><ele>356</ele><time>2021-10-07T10:58:32Z</time><name>PT1282</name></trkpt>
<trkpt lat="53.400428" lon="-1.910336"><ele>356</ele><time>2021-10-07T10:58:33Z</time><name>PT1283</name></trkpt>
<trkpt lat="53.400430" lon="-1.910326"><ele>355</ele><time>2021-10-07T10:58:34Z</time><name>PT1284</name></trkpt>
<trkpt lat="53.400430" lon="-1.910321"><ele>355</ele><time>2021-10-07T10:58:35Z</time><name>PT1285</name></trkpt>
<trkpt lat="53.400430" lon="-1.910320"><ele>355</ele><time>2021-10-07T10:58:36Z</time><name>PT1286</name></trkpt>
<trkpt lat="53.400429" lon="-1.910317"><ele>356</ele><time>2021-10-07T10:58:37Z</time><name>PT1287</name></trkpt>
<trkpt lat="53.400432" lon="-1.910307"><ele>356</ele><time>2021-10-07T10:58:38Z</time><name>PT1288</name></trkpt>
<trkpt lat="53.400436" lon="-1.910297"><ele>356</ele><time>2021-10-07T10:58:39Z</time><name>PT1289</name></trkpt>
<trkpt lat="53.400439" lon="-1.910289"><ele>356</ele><time>2021-10-07T10:58:40Z</time><name>PT1290</name></trkpt>
<trkpt lat="53.400438" lon="-1.910276"><ele>356</ele><time>2021-10-07T10:58:41Z</time><name>PT1291</name></trkpt>
<trkpt lat="53.400439" lon="-1.910268"><ele>357</ele><time>2021-10-07T10:58:42Z</time><name>PT1292</name></trkpt>
<trkpt lat="53.400438" lon="-1.910266"><ele>357</ele><time>2021-10-07T10:58:43Z</time><name>PT1293</name></trkpt>
<trkpt lat="53.400442" lon="-1.910258"><ele>357</ele><time>2021-10-07T10:58:44Z</time><name>PT1294</name></trkpt>
<trkpt lat="53.400446" lon="-1.910252"><ele>357</ele><time>2021-10-07T10:58:45Z</time><name>PT1295</name></trkpt>
<trkpt lat="53.400451" lon="-1.910253"><ele>356</ele><time>2021-10-07T10:58:46Z</time><name>PT1296</name></trkpt>
<trkpt lat="53.400454" lon="-1.910258"><ele>357</ele><time>2021-10-07T10:58:47Z</time><name>PT1297</name></trkpt>
<trkpt lat="53.400458" lon="-1.910258"><ele>357</ele><time>2021-10-07T10:58:48Z</time><name>PT1298</name></trkpt>
<trkpt lat="53.400464" lon="-1.910256"><ele>358</ele><time>2021-10-07T10:58:49Z</time><name>PT1299</name></trkpt>
<trkpt lat="53.400469" lon="-1.910259"><ele>357</ele><time>2021-10-07T10:58:50Z</time><name>PT1300</name></trkpt>
<trkpt lat="53.400477" lon="-1.910248"><ele>358</ele><time>2021-10-07T10:58:51Z</time><name>PT1301</name></trkpt>
<trkpt lat="53.400484" lon="-1.910247"><ele>358</ele><time>2021-10-07T10:58:52Z</time><name>PT1302</name></trkpt>
<trkpt lat="53.400490" lon="-1.910251"><ele>358</ele><time>2021-10-07T10:58:53Z</time><name>PT1303</name></trkpt>
<trkpt lat="53.400497" lon="-1.910244"><ele>357</ele><time>2021-10-07T10:58:54Z</time><name>PT1304</name></trkpt>
<trkpt lat="53.400505" lon="-1.910244"><ele>357</ele><time>2021-10-07T10:58:55Z</time><name>PT1305</name></trkpt>
<trkpt lat="53.400513" lon="-1.910245"><ele>358</ele><time>2021-10-07T10:58:56Z</time><name>PT1306</name></trkpt>
<trkpt lat="53.400518" lon="-1.910241"><ele>358</ele><time>2021-10-07T10:58:57Z</time><name>PT1307</name></trkpt>
<trkpt lat="53.400519" lon="-1.910235"><ele>358</ele><time>2021-10-07T10:58:58Z</time><name>PT1308</name></trkpt>
<trkpt lat="53.400524" lon="-1.910230"><ele>358</ele><time>2021-10-07T10:58:59Z</time><name>PT1309</name></trkpt>
<trkpt lat="53.400526" lon="-1.910228"><ele>358</ele><time>2021-10-07T10:59:00Z</time><name>PT1310</name></trkpt>
<trkpt lat="53.400529" lon="-1.910224"><ele>358</ele><time>2021-10-07T10:59:01Z</time><name>PT1311</name></trkpt>
<trkpt lat="53.400534" lon="-1.910214"><ele>358</ele><time>2021-10-07T10:59:02Z</time><name>PT1312</name></trkpt>
<trkpt lat="53.400538" lon="-1.910197"><ele>359</ele><time>2021-10-07T10:59:03Z</time><name>PT1313</name></trkpt>
<trkpt lat="53.400542" lon="-1.910188"><ele>359</ele><time>2021-10-07T10:59:04Z</time><name>PT1314</name></trkpt>
<trkpt lat="53.400543" lon="-1.910184"><ele>361</ele><time>2021-10-07T10:59:05Z</time><name>PT1315</name></trkpt>
<trkpt lat="53.400550" lon="-1.910174"><ele>361</ele><time>2021-10-07T10:59:06Z</time><name>PT1316</name></trkpt>
<trkpt lat="53.400556" lon="-1.910168"><ele>361</ele><time>2021-10-07T10:59:07Z</time><name>PT1317</name></trkpt>
<trkpt lat="53.400563" lon="-1.910165"><ele>361</ele><time>2021-10-07T10:59:08Z</time><name>PT1318</name></trkpt>
<trkpt lat="53.400565" lon="-1.910174"><ele>362</ele><time>2021-10-07T10:59:09Z</time><name>PT1319</name></trkpt>
<trkpt lat="53.400570" lon="-1.910172"><ele>362</ele><time>2021-10-07T10:59:10Z</time><name>PT1320</name></trkpt>
<trkpt lat="53.400575" lon="-1.910173"><ele>362</ele><time>2021-10-07T10:59:11Z</time><name>PT1321</name></trkpt>
<trkpt lat="53.400580" lon="-1.910168"><ele>363</ele><time>2021-10-07T10:59:12Z</time><name>PT1322</name></trkpt>
<trkpt lat="53.400585" lon="-1.910161"><ele>363</ele><time>2021-10-07T10:59:13Z</time><name>PT1323</name></trkpt>
<trkpt lat="53.400594" lon="-1.910158"><ele>363</ele><time>2021-10-07T10:59:14Z</time><name>PT1324</name></trkpt>
<trkpt lat="53.400600" lon="-1.910156"><ele>363</ele><time>2021-10-07T10:59:15Z</time><name>PT1325</name></trkpt>
<trkpt lat="53.400610" lon="-1.910154"><ele>363</ele><time>2021-10-07T10:59:16Z</time><name>PT1326</name></trkpt>
<trkpt lat="53.400615" lon="-1.910159"><ele>363</ele><time>2021-10-07T10:59:17Z</time><name>PT1327</name></trkpt>
<trkpt lat="53.400626" lon="-1.910156"><ele>363</ele><time>2021-10-07T10:59:18Z</time><name>PT1328</name></trkpt>
<trkpt lat="53.400633" lon="-1.910154"><ele>364</ele><time>2021-10-07T10:59:19Z</time><name>PT1329</name></trkpt>
<trkpt lat="53.400641" lon="-1.910145"><ele>364</ele><time>2021-10-07T10:59:20Z</time><name>PT1330</name></trkpt>
<trkpt lat="53.400648" lon="-1.910140"><ele>364</ele><time>2021-10-07T10:59:21Z</time><name>PT1331</name></trkpt>
<trkpt lat="53.400656" lon="-1.910141"><ele>364</ele><time>2021-10-07T10:59:22Z</time><name>PT1332</name></trkpt>
<trkpt lat="53.400670" lon="-1.910140"><ele>365</ele><time>2021-10-07T10:59:23Z</time><name>PT1333</name></trkpt>
<trkpt lat="53.400684" lon="-1.910142"><ele>365</ele><time>2021-10-07T10:59:24Z</time><name>PT1334</name></trkpt>
<trkpt lat="53.400698" lon="-1.910144"><ele>365</ele><time>2021-10-07T10:59:25Z</time><name>PT1335</name></trkpt>
<trkpt lat="53.400713" lon="-1.910138"><ele>365</ele><time>2021-10-07T10:59:26Z</time><name>PT1336</name></trkpt>
<trkpt lat="53.400721" lon="-1.910132"><ele>365</ele><time>2021-10-07T10:59:27Z</time><name>PT1337</name></trkpt>
<trkpt lat="53.400731" lon="-1.910130"><ele>365</ele><time>2021-10-07T10:59:28Z</time><name>PT1338</name></trkpt>
<trkpt lat="53.400743" lon="-1.910124"><ele>365</ele><time>2021-10-07T10:59:29Z</time><name>PT1339</name></trkpt>
<trkpt lat="53.400751" lon="-1.910119"><ele>365</ele><time>2021-10-07T10:59:30Z</time><name>PT1340</name></trkpt>
<trkpt lat="53.400761" lon="-1.910110"><ele>366</ele><time>2021-10-07T10:59:31Z</time><name>PT1341</name></trkpt>
<trkpt lat="53.400765" lon="-1.910100"><ele>367</ele><time>2021-10-07T10:59:32Z</time><name>PT1342</name></trkpt>
<trkpt lat="53.400773" lon="-1.910084"><ele>366</ele><time>2021-10-07T10:59:33Z</time><name>PT1343</name></trkpt>
<trkpt lat="53.400780" lon="-1.910077"><ele>366</ele><time>2021-10-07T10:59:34Z</time><name>PT1344</name></trkpt>
<trkpt lat="53.400786" lon="-1.910070"><ele>367</ele><time>2021-10-07T10:59:35Z</time><name>PT1345</name></trkpt>
<trkpt lat="53.400787" lon="-1.910071"><ele>367</ele><time>2021-10-07T10:59:36Z</time><name>PT1346</name></trkpt>
<trkpt lat="53.400795" lon="-1.910069"><ele>366</ele><time>2021-10-07T10:59:37Z</time><name>PT1347</name></trkpt>
<trkpt lat="53.400798" lon="-1.910077"><ele>366</ele><time>2021-10-07T10:59:38Z</time><name>PT1348</name></trkpt>
<trkpt lat="53.400802" lon="-1.910081"><ele>367</ele><time>2021-10-07T10:59:39Z</time><name>PT1349</name></trkpt>
<trkpt lat="53.400811" lon="-1.910083"><ele>366</ele><time>2021-10-07T10:59:40Z</time><name>PT1350</name></trkpt>
<trkpt lat="53.400823" lon="-1.910082"><ele>366</ele><time>2021-10-07T10:59:41Z</time><name>PT1351</name></trkpt>
<trkpt lat="53.400835" lon="-1.910074"><ele>366</ele><time>2021-10-07T10:59:42Z</time><name>PT1352</name></trkpt>
<trkpt lat="53.400847" lon="-1.910070"><ele>366</ele><time>2021-10-07T10:59:43Z</time><name>PT1353</name></trkpt>
<trkpt lat="53.400859" lon="-1.910064"><ele>366</ele><time>2021-10-07T10:59:44Z</time><name>PT1354</name></trkpt>
<trkpt lat="53.400872" lon="-1.910062"><ele>366</ele><time>2021-10-07T10:59:45Z</time><name>PT1355</name></trkpt>
<trkpt lat="53.400883" lon="-1.910058"><ele>366</ele><time>2021-10-07T10:59:46Z</time><name>PT1356</name></trkpt>
<trkpt lat="53.400892" lon="-1.910053"><ele>365</ele><time>2021-10-07T10:59:47Z</time><name>PT1357</name></trkpt>
<trkpt lat="53.400905" lon="-1.910049"><ele>364</ele><time>2021-10-07T10:59:48Z</time><name>PT1358</name></trkpt>
<trkpt lat="53.400917" lon="-1.910049"><ele>364</ele><time>2021-10-07T10:59:49Z</time><name>PT1359</name></trkpt>
<trkpt lat="53.400926" lon="-1.910048"><ele>364</ele><time>2021-10-07T10:59:50Z</time><name>PT1360</name></trkpt>
<trkpt lat="53.400937" lon="-1.910043"><ele>364</ele><time>2021-10-07T10:59:51Z</time><name>PT1361</name></trkpt>
<trkpt lat="53.400947" lon="-1.910035"><ele>363</ele><time>2021-10-07T10:59:52Z</time><name>PT1362</name></trkpt>
<trkpt lat="53.400959" lon="-1.910027"><ele>363</ele><time>2021-10-07T10:59:53Z</time><name>PT1363</name></trkpt>
<trkpt lat="53.400969" lon="-1.910021"><ele>363</ele><time>2021-10-07T10:59:54Z</time><name>PT1364</name></trkpt>
<trkpt lat="53.400980" lon="-1.910014"><ele>364</ele><time>2021-10-07T10:59:55Z</time><name>PT1365</name></trkpt>
<trkpt lat="53.400994" lon="-1.910006"><ele>365</ele><time>2021-10-07T10:59:56Z</time><name>PT1366</name></trkpt>
<trkpt lat="53.401007" lon="-1.909999"><ele>364</ele><time>2021-10-07T10:59:57Z</time><name>PT1367</name></trkpt>
<trkpt lat="53.401016" lon="-1.909994"><ele>364</ele><time>2021-10-07T10:59:58Z</time><name>PT1368</name></trkpt>
<trkpt lat="53.401029" lon="-1.909988"><ele>365</ele><time>2021-10-07T10:59:59Z</time><name>PT1369</name></trkpt>
<trkpt lat="53.401040" lon="-1.909982"><ele>364</ele><time>2021-10-07T11:00:00Z</time><name>PT1370</name></trkpt>
<trkpt lat="53.401049" lon="-1.909975"><ele>364</ele><time>2021-10-07T11:00:01Z</time><name>PT1371</name></trkpt>
<trkpt lat="53.401060" lon="-1.909966"><ele>364</ele><time>2021-10-07T11:00:02Z</time><name>PT1372</name></trkpt>
<trkpt lat="53.401070" lon="-1.909958"><ele>364</ele><time>2021-10-07T11:00:03Z</time><name>PT1373</name></trkpt>
<trkpt lat="53.401077" lon="-1.909951"><ele>365</ele><time>2021-10-07T11:00:04Z</time><name>PT1374</name></trkpt>
<trkpt lat="53.401086" lon="-1.909943"><ele>365</ele><time>2021-10-07T11:00:05Z</time><name>PT1375</name></trkpt>
<trkpt lat="53.401096" lon="-1.909933"><ele>365</ele><time>2021-10-07T11:00:06Z</time><name>PT1376</name></trkpt>
<trkpt lat="53.401105" lon="-1.909920"><ele>366</ele><time>2021-10-07T11:00:07Z</time><name>PT1377</name></trkpt>
<trkpt lat="53.401113" lon="-1.909907"><ele>365</ele><time>2021-10-07T11:00:08Z</time><name>PT1378</name></trkpt>
<trkpt lat="53.401119" lon="-1.909891"><ele>365</ele><time>2021-10-07T11:00:09Z</time><name>PT1379</name></trkpt>
<trkpt lat="53.401124" lon="-1.909883"><ele>365</ele><time>2021-10-07T11:00:10Z</time><name>PT1380</name></trkpt>
<trkpt lat="53.401134" lon="-1.909879"><ele>367</ele><time>2021-10-07T11:00:11Z</time><name>PT1381</name></trkpt>
<trkpt lat="53.401143" lon="-1.909872"><ele>367</ele><time>2021-10-07T11:00:12Z</time><name>PT1382</name></trkpt>
<trkpt lat="53.401154" lon="-1.909862"><ele>367</ele><time>2021-10-07T11:00:13Z</time><name>PT1383</name></trkpt>
<trkpt lat="53.401161" lon="-1.909855"><ele>367</ele><time>2021-10-07T11:00:14Z</time><name>PT1384</name></trkpt>
<trkpt lat="53.401167" lon="-1.909850"><ele>366</ele><time>2021-10-07T11:00:15Z</time><name>PT1385</name></trkpt>
<trkpt lat="53.401172" lon="-1.909841"><ele>366</ele><time>2021-10-07T11:00:16Z</time><name>PT1386</name></trkpt>
<trkpt lat="53.401177" lon="-1.909831"><ele>367</ele><time>2021-10-07T11:00:17Z</time><name>PT1387</name></trkpt>
<trkpt lat="53.401199" lon="-1.909810"><ele>367</ele><time>2021-10-07T11:00:20Z</time><name>PT1388</name></trkpt>
<trkpt lat="53.401226" lon="-1.909789"><ele>369</ele><time>2021-10-07T11:00:24Z</time><name>PT1389</name></trkpt>
<trkpt lat="53.401231" lon="-1.909784"><ele>370</ele><time>2021-10-07T11:00:25Z</time><name>PT1390</name></trkpt>
<trkpt lat="53.401230" lon="-1.909779"><ele>370</ele><time>2021-10-07T11:00:26Z</time><name>PT1391</name></trkpt>
<trkpt lat="53.401223" lon="-1.909774"><ele>370</ele><time>2021-10-07T11:00:27Z</time><name>PT1392</name></trkpt>
<trkpt lat="53.401225" lon="-1.909766"><ele>370</ele><time>2021-10-07T11:00:28Z</time><name>PT1393</name></trkpt>
<trkpt lat="53.401226" lon="-1.909765"><ele>368</ele><time>2021-10-07T11:00:29Z</time><name>PT1394</name></trkpt>
<trkpt lat="53.401224" lon="-1.909753"><ele>370</ele><time>2021-10-07T11:00:30Z</time><name>PT1395</name></trkpt>
<trkpt lat="53.401230" lon="-1.909740"><ele>369</ele><time>2021-10-07T11:00:31Z</time><name>PT1396</name></trkpt>
<trkpt lat="53.401230" lon="-1.909743"><ele>368</ele><time>2021-10-07T11:00:32Z</time><name>PT1397</name></trkpt>
<trkpt lat="53.401233" lon="-1.909742"><ele>368</ele><time>2021-10-07T11:00:33Z</time><name>PT1398</name></trkpt>
<trkpt lat="53.401233" lon="-1.909742"><ele>369</ele><time>2021-10-07T11:00:34Z</time><name>PT1399</name></trkpt>
<trkpt lat="53.401236" lon="-1.909743"><ele>369</ele><time>2021-10-07T11:00:35Z</time><name>PT1400</name></trkpt>
<trkpt lat="53.401235" lon="-1.909745"><ele>368</ele><time>2021-10-07T11:00:36Z</time><name>PT1401</name></trkpt>
<trkpt lat="53.401237" lon="-1.909772"><ele>367</ele><time>2021-10-07T11:00:54Z</time><name>PT1402</name></trkpt>
<trkpt lat="53.401249" lon="-1.909775"><ele>367</ele><time>2021-10-07T11:00:55Z</time><name>PT1403</name></trkpt>
<trkpt lat="53.401260" lon="-1.909778"><ele>367</ele><time>2021-10-07T11:00:56Z</time><name>PT1404</name></trkpt>
<trkpt lat="53.401274" lon="-1.909762"><ele>367</ele><time>2021-10-07T11:00:57Z</time><name>PT1405</name></trkpt>
<trkpt lat="53.401286" lon="-1.909745"><ele>367</ele><time>2021-10-07T11:00:58Z</time><name>PT1406</name></trkpt>
<trkpt lat="53.401297" lon="-1.909736"><ele>367</ele><time>2021-10-07T11:00:59Z</time><name>PT1407</name></trkpt>
<trkpt lat="53.401309" lon="-1.909721"><ele>368</ele><time>2021-10-07T11:01:00Z</time><name>PT1408</name></trkpt>
<trkpt lat="53.401324" lon="-1.909711"><ele>368</ele><time>2021-10-07T11:01:01Z</time><name>PT1409</name></trkpt>
<trkpt lat="53.401337" lon="-1.909699"><ele>368</ele><time>2021-10-07T11:01:02Z</time><name>PT1410</name></trkpt>
<trkpt lat="53.401347" lon="-1.909694"><ele>368</ele><time>2021-10-07T11:01:03Z</time><name>PT1411</name></trkpt>
<trkpt lat="53.401361" lon="-1.909686"><ele>368</ele><time>2021-10-07T11:01:04Z</time><name>PT1412</name></trkpt>
<trkpt lat="53.401377" lon="-1.909672"><ele>367</ele><time>2021-10-07T11:01:05Z</time><name>PT1413</name></trkpt>
<trkpt lat="53.401387" lon="-1.909658"><ele>368</ele><time>2021-10-07T11:01:06Z</time><name>PT1414</name></trkpt>
<trkpt lat="53.401392" lon="-1.909649"><ele>368</ele><time>2021-10-07T11:01:07Z</time><name>PT1415</name></trkpt>
<trkpt lat="53.401400" lon="-1.909640"><ele>367</ele><time>2021-10-07T11:01:08Z</time><name>PT1416</name></trkpt>
<trkpt lat="53.401408" lon="-1.909638"><ele>367</ele><time>2021-10-07T11:01:09Z</time><name>PT1417</name></trkpt>
<trkpt lat="53.401410" lon="-1.909641"><ele>367</ele><time>2021-10-07T11:01:10Z</time><name>PT1418</name></trkpt>
<trkpt lat="53.401418" lon="-1.909648"><ele>367</ele><time>2021-10-07T11:01:11Z</time><name>PT1419</name></trkpt>
<trkpt lat="53.401431" lon="-1.909641"><ele>366</ele><time>2021-10-07T11:01:12Z</time><name>PT1420</name></trkpt>
<trkpt lat="53.401440" lon="-1.909640"><ele>367</ele><time>2021-10-07T11:01:13Z</time><name>PT1421</name></trkpt>
<trkpt lat="53.401452" lon="-1.909634"><ele>366</ele><time>2021-10-07T11:01:14Z</time><name>PT1422</name></trkpt>
<trkpt lat="53.401463" lon="-1.909629"><ele>366</ele><time>2021-10-07T11:01:15Z</time><name>PT1423</name></trkpt>
<trkpt lat="53.401472" lon="-1.909619"><ele>366</ele><time>2021-10-07T11:01:16Z</time><name>PT1424</name></trkpt>
<trkpt lat="53.401484" lon="-1.909609"><ele>366</ele><time>2021-10-07T11:01:17Z</time><name>PT1425</name></trkpt>
<trkpt lat="53.401495" lon="-1.909613"><ele>366</ele><time>2021-10-07T11:01:18Z</time><name>PT1426</name></trkpt>
<trkpt lat="53.401507" lon="-1.909614"><ele>366</ele><time>2021-10-07T11:01:19Z</time><name>PT1427</name></trkpt>
<trkpt lat="53.401516" lon="-1.909617"><ele>366</ele><time>2021-10-07T11:01:20Z</time><name>PT1428</name></trkpt>
<trkpt lat="53.401528" lon="-1.909618"><ele>366</ele><time>2021-10-07T11:01:21Z</time><name>PT1429</name></trkpt>
<trkpt lat="53.401540" lon="-1.909614"><ele>366</ele><time>2021-10-07T11:01:22Z</time><name>PT1430</name></trkpt>
<trkpt lat="53.401548" lon="-1.909608"><ele>366</ele><time>2021-10-07T11:01:23Z</time><name>PT1431</name></trkpt>
<trkpt lat="53.401555" lon="-1.909605"><ele>366</ele><time>2021-10-07T11:01:24Z</time><name>PT1432</name></trkpt>
<trkpt lat="53.401565" lon="-1.909608"><ele>366</ele><time>2021-10-07T11:01:25Z</time><name>PT1433</name></trkpt>
<trkpt lat="53.401575" lon="-1.909610"><ele>366</ele><time>2021-10-07T11:01:26Z</time><name>PT1434</name></trkpt>
<trkpt lat="53.401583" lon="-1.909609"><ele>365</ele><time>2021-10-07T11:01:27Z</time><name>PT1435</name></trkpt>
<trkpt lat="53.401592" lon="-1.909610"><ele>365</ele><time>2021-10-07T11:01:28Z</time><name>PT1436</name></trkpt>
<trkpt lat="53.401604" lon="-1.909613"><ele>365</ele><time>2021-10-07T11:01:29Z</time><name>PT1437</name></trkpt>
<trkpt lat="53.401616" lon="-1.909613"><ele>365</ele><time>2021-10-07T11:01:30Z</time><name>PT1438</name></trkpt>
<trkpt lat="53.401626" lon="-1.909620"><ele>364</ele><time>2021-10-07T11:01:31Z</time><name>PT1439</name></trkpt>
<trkpt lat="53.401636" lon="-1.909627"><ele>364</ele><time>2021-10-07T11:01:32Z</time><name>PT1440</name></trkpt>
<trkpt lat="53.401646" lon="-1.909634"><ele>364</ele><time>2021-10-07T11:01:33Z</time><name>PT1441</name></trkpt>
<trkpt lat="53.401663" lon="-1.909632"><ele>366</ele><time>2021-10-07T11:01:34Z</time><name>PT1442</name></trkpt>
<trkpt lat="53.401679" lon="-1.909625"><ele>366</ele><time>2021-10-07T11:01:35Z</time><name>PT1443</name></trkpt>
<trkpt lat="53.401688" lon="-1.909626"><ele>364</ele><time>2021-10-07T11:01:36Z</time><name>PT1444</name></trkpt>
<trkpt lat="53.401694" lon="-1.909628"><ele>364</ele><time>2021-10-07T11:01:37Z</time><name>PT1445</name></trkpt>
<trkpt lat="53.401700" lon="-1.909633"><ele>363</ele><time>2021-10-07T11:01:38Z</time><name>PT1446</name></trkpt>
<trkpt lat="53.401707" lon="-1.909639"><ele>363</ele><time>2021-10-07T11:01:39Z</time><name>PT1447</name></trkpt>
<trkpt lat="53.401722" lon="-1.909639"><ele>363</ele><time>2021-10-07T11:01:40Z</time><name>PT1448</name></trkpt>
<trkpt lat="53.401736" lon="-1.909634"><ele>364</ele><time>2021-10-07T11:01:41Z</time><name>PT1449</name></trkpt>
<trkpt lat="53.401751" lon="-1.909627"><ele>365</ele><time>2021-10-07T11:01:42Z</time><name>PT1450</name></trkpt>
<trkpt lat="53.401762" lon="-1.909621"><ele>364</ele><time>2021-10-07T11:01:43Z</time><name>PT1451</name></trkpt>
<trkpt lat="53.401770" lon="-1.909622"><ele>364</ele><time>2021-10-07T11:01:44Z</time><name>PT1452</name></trkpt>
<trkpt lat="53.401778" lon="-1.909622"><ele>365</ele><time>2021-10-07T11:01:45Z</time><name>PT1453</name></trkpt>
<trkpt lat="53.401791" lon="-1.909620"><ele>365</ele><time>2021-10-07T11:01:46Z</time><name>PT1454</name></trkpt>
<trkpt lat="53.401801" lon="-1.909626"><ele>365</ele><time>2021-10-07T11:01:47Z</time><name>PT1455</name></trkpt>
<trkpt lat="53.401808" lon="-1.909623"><ele>365</ele><time>2021-10-07T11:01:48Z</time><name>PT1456</name></trkpt>
<trkpt lat="53.401809" lon="-1.909622"><ele>365</ele><time>2021-10-07T11:01:49Z</time><name>PT1457</name></trkpt>
<trkpt lat="53.401813" lon="-1.909619"><ele>365</ele><time>2021-10-07T11:01:50Z</time><name>PT1458</name></trkpt>
<trkpt lat="53.401818" lon="-1.909612"><ele>365</ele><time>2021-10-07T11:01:51Z</time><name>PT1459</name></trkpt>
<trkpt lat="53.401831" lon="-1.909606"><ele>367</ele><time>2021-10-07T11:01:52Z</time><name>PT1460</name></trkpt>
<trkpt lat="53.401834" lon="-1.909598"><ele>367</ele><time>2021-10-07T11:01:53Z</time><name>PT1461</name></trkpt>
<trkpt lat="53.401838" lon="-1.909588"><ele>366</ele><time>2021-10-07T11:01:54Z</time><name>PT1462</name></trkpt>
<trkpt lat="53.401842" lon="-1.909584"><ele>366</ele><time>2021-10-07T11:01:55Z</time><name>PT1463</name></trkpt>
<trkpt lat="53.401851" lon="-1.909576"><ele>367</ele><time>2021-10-07T11:01:56Z</time><name>PT1464</name></trkpt>
<trkpt lat="53.401859" lon="-1.909565"><ele>367</ele><time>2021-10-07T11:01:57Z</time><name>PT1465</name></trkpt>
<trkpt lat="53.401865" lon="-1.909554"><ele>368</ele><time>2021-10-07T11:01:58Z</time><name>PT1466</name></trkpt>
<trkpt lat="53.401873" lon="-1.909550"><ele>368</ele><time>2021-10-07T11:01:59Z</time><name>PT1467</name></trkpt>
<trkpt lat="53.401882" lon="-1.909550"><ele>369</ele><time>2021-10-07T11:02:00Z</time><name>PT1468</name></trkpt>
<trkpt lat="53.401886" lon="-1.909546"><ele>368</ele><time>2021-10-07T11:02:01Z</time><name>PT1469</name></trkpt>
<trkpt lat="53.401894" lon="-1.909543"><ele>369</ele><time>2021-10-07T11:02:02Z</time><name>PT1470</name></trkpt>
<trkpt lat="53.401904" lon="-1.909544"><ele>368</ele><time>2021-10-07T11:02:03Z</time><name>PT1471</name></trkpt>
<trkpt lat="53.401909" lon="-1.909548"><ele>367</ele><time>2021-10-07T11:02:04Z</time><name>PT1472</name></trkpt>
<trkpt lat="53.401920" lon="-1.909552"><ele>368</ele><time>2021-10-07T11:02:05Z</time><name>PT1473</name></trkpt>
<trkpt lat="53.401930" lon="-1.909553"><ele>368</ele><time>2021-10-07T11:02:06Z</time><name>PT1474</name></trkpt>
<trkpt lat="53.401936" lon="-1.909550"><ele>368</ele><time>2021-10-07T11:02:07Z</time><name>PT1475</name></trkpt>
<trkpt lat="53.401945" lon="-1.909545"><ele>367</ele><time>2021-10-07T11:02:08Z</time><name>PT1476</name></trkpt>
<trkpt lat="53.401954" lon="-1.909540"><ele>367</ele><time>2021-10-07T11:02:09Z</time><name>PT1477</name></trkpt>
<trkpt lat="53.401963" lon="-1.909535"><ele>368</ele><time>2021-10-07T11:02:10Z</time><name>PT1478</name></trkpt>
<trkpt lat="53.401973" lon="-1.909527"><ele>368</ele><time>2021-10-07T11:02:11Z</time><name>PT1479</name></trkpt>
<trkpt lat="53.401982" lon="-1.909523"><ele>368</ele><time>2021-10-07T11:02:12Z</time><name>PT1480</name></trkpt>
<trkpt lat="53.401990" lon="-1.909517"><ele>368</ele><time>2021-10-07T11:02:13Z</time><name>PT1481</name></trkpt>
<trkpt lat="53.401996" lon="-1.909512"><ele>369</ele><time>2021-10-07T11:02:14Z</time><name>PT1482</name></trkpt>
<trkpt lat="53.402004" lon="-1.909510"><ele>369</ele><time>2021-10-07T11:02:15Z</time><name>PT1483</name></trkpt>
<trkpt lat="53.402009" lon="-1.909505"><ele>369</ele><time>2021-10-07T11:02:16Z</time><name>PT1484</name></trkpt>
<trkpt lat="53.402016" lon="-1.909504"><ele>369</ele><time>2021-10-07T11:02:17Z</time><name>PT1485</name></trkpt>
<trkpt lat="53.402025" lon="-1.909503"><ele>368</ele><time>2021-10-07T11:02:18Z</time><name>PT1486</name></trkpt>
<trkpt lat="53.402036" lon="-1.909497"><ele>370</ele><time>2021-10-07T11:02:19Z</time><name>PT1487</name></trkpt>
<trkpt lat="53.402045" lon="-1.909496"><ele>370</ele><time>2021-10-07T11:02:20Z</time><name>PT1488</name></trkpt>
<trkpt lat="53.402052" lon="-1.909494"><ele>370</ele><time>2021-10-07T11:02:21Z</time><name>PT1489</name></trkpt>
<trkpt lat="53.402057" lon="-1.909496"><ele>370</ele><time>2021-10-07T11:02:22Z</time><name>PT1490</name></trkpt>
<trkpt lat="53.402062" lon="-1.909492"><ele>369</ele><time>2021-10-07T11:02:23Z</time><name>PT1491</name></trkpt>
<trkpt lat="53.402093" lon="-1.909486"><ele>371</ele><time>2021-10-07T11:02:26Z</time><name>PT1492</name></trkpt>
<trkpt lat="53.402136" lon="-1.909464"><ele>371</ele><time>2021-10-07T11:02:30Z</time><name>PT1493</name></trkpt>
<trkpt lat="53.402175" lon="-1.909446"><ele>372</ele><time>2021-10-07T11:02:34Z</time><name>PT1494</name></trkpt>
<trkpt lat="53.402204" lon="-1.909460"><ele>371</ele><time>2021-10-07T11:02:38Z</time><name>PT1495</name></trkpt>
<trkpt lat="53.402235" lon="-1.909439"><ele>372</ele><time>2021-10-07T11:02:42Z</time><name>PT1496</name></trkpt>
<trkpt lat="53.402266" lon="-1.909434"><ele>374</ele><time>2021-10-07T11:02:46Z</time><name>PT1497</name></trkpt>
<trkpt lat="53.402303" lon="-1.909417"><ele>375</ele><time>2021-10-07T11:02:50Z</time><name>PT1498</name></trkpt>
<trkpt lat="53.402333" lon="-1.909407"><ele>376</ele><time>2021-10-07T11:02:54Z</time><name>PT1499</name></trkpt>
<trkpt lat="53.402370" lon="-1.909395"><ele>378</ele><time>2021-10-07T11:02:58Z</time><name>PT1500</name></trkpt>
<trkpt lat="53.402409" lon="-1.909343"><ele>380</ele><time>2021-10-07T11:03:02Z</time><name>PT1501</name></trkpt>
<trkpt lat="53.402447" lon="-1.909320"><ele>380</ele><time>2021-10-07T11:03:06Z</time><name>PT1502</name></trkpt>
<trkpt lat="53.402477" lon="-1.909283"><ele>380</ele><time>2021-10-07T11:03:10Z</time><name>PT1503</name></trkpt>
<trkpt lat="53.402508" lon="-1.909251"><ele>380</ele><time>2021-10-07T11:03:14Z</time><name>PT1504</name></trkpt>
<trkpt lat="53.402541" lon="-1.909229"><ele>380</ele><time>2021-10-07T11:03:18Z</time><name>PT1505</name></trkpt>
<trkpt lat="53.402571" lon="-1.909212"><ele>380</ele><time>2021-10-07T11:03:22Z</time><name>PT1506</name></trkpt>
<trkpt lat="53.402614" lon="-1.909182"><ele>380</ele><time>2021-10-07T11:03:26Z</time><name>PT1507</name></trkpt>
<trkpt lat="53.402646" lon="-1.909149"><ele>383</ele><time>2021-10-07T11:03:30Z</time><name>PT1508</name></trkpt>
<trkpt lat="53.402672" lon="-1.909125"><ele>384</ele><time>2021-10-07T11:03:34Z</time><name>PT1509</name></trkpt>
<trkpt lat="53.402687" lon="-1.909088"><ele>385</ele><time>2021-10-07T11:03:38Z</time><name>PT1510</name></trkpt>
<trkpt lat="53.402710" lon="-1.909063"><ele>385</ele><time>2021-10-07T11:03:42Z</time><name>PT1511</name></trkpt>
<trkpt lat="53.402726" lon="-1.909044"><ele>384</ele><time>2021-10-07T11:03:46Z</time><name>PT1512</name></trkpt>
<trkpt lat="53.402741" lon="-1.909019"><ele>385</ele><time>2021-10-07T11:03:50Z</time><name>PT1513</name></trkpt>
<trkpt lat="53.402769" lon="-1.908996"><ele>385</ele><time>2021-10-07T11:03:54Z</time><name>PT1514</name></trkpt>
<trkpt lat="53.402787" lon="-1.909000"><ele>386</ele><time>2021-10-07T11:03:58Z</time><name>PT1515</name></trkpt>
<trkpt lat="53.402802" lon="-1.909005"><ele>384</ele><time>2021-10-07T11:04:02Z</time><name>PT1516</name></trkpt>
<trkpt lat="53.402819" lon="-1.909000"><ele>385</ele><time>2021-10-07T11:04:06Z</time><name>PT1517</name></trkpt>
<trkpt lat="53.402847" lon="-1.908987"><ele>386</ele><time>2021-10-07T11:04:10Z</time><name>PT1518</name></trkpt>
<trkpt lat="53.402888" lon="-1.908947"><ele>388</ele><time>2021-10-07T11:04:14Z</time><name>PT1519</name></trkpt>
<trkpt lat="53.402915" lon="-1.908921"><ele>388</ele><time>2021-10-07T11:04:18Z</time><name>PT1520</name></trkpt>
<trkpt lat="53.402939" lon="-1.908908"><ele>389</ele><time>2021-10-07T11:04:22Z</time><name>PT1521</name></trkpt>
<trkpt lat="53.402959" lon="-1.908890"><ele>389</ele><time>2021-10-07T11:04:26Z</time><name>PT1522</name></trkpt>
<trkpt lat="53.402981" lon="-1.908855"><ele>389</ele><time>2021-10-07T11:04:30Z</time><name>PT1523</name></trkpt>
<trkpt lat="53.403016" lon="-1.908838"><ele>389</ele><time>2021-10-07T11:04:34Z</time><name>PT1524</name></trkpt>
<trkpt lat="53.403048" lon="-1.908828"><ele>387</ele><time>2021-10-07T11:04:38Z</time><name>PT1525</name></trkpt>
<trkpt lat="53.403084" lon="-1.908816"><ele>386</ele><time>2021-10-07T11:04:42Z</time><name>PT1526</name></trkpt>
<trkpt lat="53.403108" lon="-1.908829"><ele>384</ele><time>2021-10-07T11:04:46Z</time><name>PT1527</name></trkpt>
<trkpt lat="53.403153" lon="-1.908808"><ele>384</ele><time>2021-10-07T11:04:50Z</time><name>PT1528</name></trkpt>
<trkpt lat="53.403191" lon="-1.908814"><ele>385</ele><time>2021-10-07T11:04:54Z</time><name>PT1529</name></trkpt>
<trkpt lat="53.403243" lon="-1.908790"><ele>387</ele><time>2021-10-07T11:04:58Z</time><name>PT1530</name></trkpt>
<trkpt lat="53.403282" lon="-1.908785"><ele>388</ele><time>2021-10-07T11:05:02Z</time><name>PT1531</name></trkpt>
<trkpt lat="53.403322" lon="-1.908767"><ele>390</ele><time>2021-10-07T11:05:06Z</time><name>PT1532</name></trkpt>
<trkpt lat="53.403346" lon="-1.908774"><ele>392</ele><time>2021-10-07T11:05:10Z</time><name>PT1533</name></trkpt>
<trkpt lat="53.403370" lon="-1.908774"><ele>390</ele><time>2021-10-07T11:05:14Z</time><name>PT1534</name></trkpt>
<trkpt lat="53.403406" lon="-1.908765"><ele>392</ele><time>2021-10-07T11:05:18Z</time><name>PT1535</name></trkpt>
<trkpt lat="53.403450" lon="-1.908743"><ele>394</ele><time>2021-10-07T11:05:22Z</time><name>PT1536</name></trkpt>
<trkpt lat="53.403475" lon="-1.908740"><ele>392</ele><time>2021-10-07T11:05:26Z</time><name>PT1537</name></trkpt>
<trkpt lat="53.403501" lon="-1.908753"><ele>392</ele><time>2021-10-07T11:05:30Z</time><name>PT1538</name></trkpt>
<trkpt lat="53.403538" lon="-1.908735"><ele>395</ele><time>2021-10-07T11:05:34Z</time><name>PT1539</name></trkpt>
<trkpt lat="53.403568" lon="-1.908732"><ele>395</ele><time>2021-10-07T11:05:38Z</time><name>PT1540</name></trkpt>
<trkpt lat="53.403596" lon="-1.908738"><ele>394</ele><time>2021-10-07T11:05:42Z</time><name>PT1541</name></trkpt>
<trkpt lat="53.403612" lon="-1.908731"><ele>394</ele><time>2021-10-07T11:05:46Z</time><name>PT1542</name></trkpt>
<trkpt lat="53.403642" lon="-1.908714"><ele>395</ele><time>2021-10-07T11:05:50Z</time><name>PT1543</name></trkpt>
<trkpt lat="53.403683" lon="-1.908706"><ele>395</ele><time>2021-10-07T11:05:54Z</time><name>PT1544</name></trkpt>
<trkpt lat="53.403710" lon="-1.908712"><ele>395</ele><time>2021-10-07T11:05:58Z</time><name>PT1545</name></trkpt>
<trkpt lat="53.403739" lon="-1.908695"><ele>397</ele><time>2021-10-07T11:06:02Z</time><name>PT1546</name></trkpt>
<trkpt lat="53.403774" lon="-1.908669"><ele>398</ele><time>2021-10-07T11:06:06Z</time><name>PT1547</name></trkpt>
<trkpt lat="53.403811" lon="-1.908629"><ele>398</ele><time>2021-10-07T11:06:10Z</time><name>PT1548</name></trkpt>
<trkpt lat="53.403844" lon="-1.908598"><ele>399</ele><time>2021-10-07T11:06:14Z</time><name>PT1549</name></trkpt>
<trkpt lat="53.403862" lon="-1.908586"><ele>400</ele><time>2021-10-07T11:06:18Z</time><name>PT1550</name></trkpt>
<trkpt lat="53.403904" lon="-1.908558"><ele>400</ele><time>2021-10-07T11:06:22Z</time><name>PT1551</name></trkpt>
<trkpt lat="53.403938" lon="-1.908545"><ele>400</ele><time>2021-10-07T11:06:26Z</time><name>PT1552</name></trkpt>
<trkpt lat="53.403953" lon="-1.908520"><ele>401</ele><time>2021-10-07T11:06:30Z</time><name>PT1553</name></trkpt>
<trkpt lat="53.403971" lon="-1.908486"><ele>401</ele><time>2021-10-07T11:06:34Z</time><name>PT1554</name></trkpt>
<trkpt lat="53.403989" lon="-1.908460"><ele>401</ele><time>2021-10-07T11:06:38Z</time><name>PT1555</name></trkpt>
<trkpt lat="53.404015" lon="-1.908430"><ele>402</ele><time>2021-10-07T11:06:42Z</time><name>PT1556</name></trkpt>
<trkpt lat="53.404035" lon="-1.908413"><ele>400</ele><time>2021-10-07T11:06:46Z</time><name>PT1557</name></trkpt>
<trkpt lat="53.404048" lon="-1.908391"><ele>401</ele><time>2021-10-07T11:06:50Z</time><name>PT1558</name></trkpt>
<trkpt lat="53.404062" lon="-1.908388"><ele>400</ele><time>2021-10-07T11:06:54Z</time><name>PT1559</name></trkpt>
<trkpt lat="53.404079" lon="-1.908376"><ele>401</ele><time>2021-10-07T11:06:58Z</time><name>PT1560</name></trkpt>
<trkpt lat="53.404085" lon="-1.908377"><ele>402</ele><time>2021-10-07T11:07:02Z</time><name>PT1561</name></trkpt>
<trkpt lat="53.404088" lon="-1.908369"><ele>402</ele><time>2021-10-07T11:07:10Z</time><name>PT1562</name></trkpt>
<trkpt lat="53.404092" lon="-1.908368"><ele>403</ele><time>2021-10-07T11:07:14Z</time><name>PT1563</name></trkpt>
<trkpt lat="53.404098" lon="-1.908359"><ele>404</ele><time>2021-10-07T11:07:18Z</time><name>PT1564</name></trkpt>
<trkpt lat="53.404110" lon="-1.908314"><ele>403</ele><time>2021-10-07T11:07:22Z</time><name>PT1565</name></trkpt>
<trkpt lat="53.404107" lon="-1.908286"><ele>403</ele><time>2021-10-07T11:07:26Z</time><name>PT1566</name></trkpt>
<trkpt lat="53.404106" lon="-1.908285"><ele>403</ele><time>2021-10-07T11:07:30Z</time><name>PT1567</name></trkpt>
<trkpt lat="53.404110" lon="-1.908277"><ele>404</ele><time>2021-10-07T11:07:38Z</time><name>PT1568</name></trkpt>
<trkpt lat="53.404135" lon="-1.908225"><ele>404</ele><time>2021-10-07T11:07:42Z</time><name>PT1569</name></trkpt>
<trkpt lat="53.404151" lon="-1.908182"><ele>404</ele><time>2021-10-07T11:07:46Z</time><name>PT1570</name></trkpt>
<trkpt lat="53.404171" lon="-1.908144"><ele>403</ele><time>2021-10-07T11:07:50Z</time><name>PT1571</name></trkpt>
<trkpt lat="53.404188" lon="-1.908122"><ele>404</ele><time>2021-10-07T11:07:54Z</time><name>PT1572</name></trkpt>
<trkpt lat="53.404207" lon="-1.908093"><ele>406</ele><time>2021-10-07T11:07:58Z</time><name>PT1573</name></trkpt>
<trkpt lat="53.404228" lon="-1.908058"><ele>406</ele><time>2021-10-07T11:08:02Z</time><name>PT1574</name></trkpt>
<trkpt lat="53.404251" lon="-1.908019"><ele>406</ele><time>2021-10-07T11:08:06Z</time><name>PT1575</name></trkpt>
<trkpt lat="53.404284" lon="-1.908012"><ele>406</ele><time>2021-10-07T11:08:10Z</time><name>PT1576</name></trkpt>
<trkpt lat="53.404313" lon="-1.907982"><ele>407</ele><time>2021-10-07T11:08:14Z</time><name>PT1577</name></trkpt>
<trkpt lat="53.404341" lon="-1.907975"><ele>406</ele><time>2021-10-07T11:08:18Z</time><name>PT1578</name></trkpt>
<trkpt lat="53.404361" lon="-1.907939"><ele>408</ele><time>2021-10-07T11:08:22Z</time><name>PT1579</name></trkpt>
<trkpt lat="53.404384" lon="-1.907916"><ele>408</ele><time>2021-10-07T11:08:26Z</time><name>PT1580</name></trkpt>
<trkpt lat="53.404401" lon="-1.907886"><ele>410</ele><time>2021-10-07T11:08:30Z</time><name>PT1581</name></trkpt>
<trkpt lat="53.404410" lon="-1.907853"><ele>412</ele><time>2021-10-07T11:08:34Z</time><name>PT1582</name></trkpt>
<trkpt lat="53.404412" lon="-1.907847"><ele>413</ele><time>2021-10-07T11:08:35Z</time><name>PT1583</name></trkpt>
<trkpt lat="53.404412" lon="-1.907847"><ele>413</ele><time>2021-10-07T11:08:36Z</time><name>PT1584</name></trkpt>
<trkpt lat="53.404414" lon="-1.907838"><ele>413</ele><time>2021-10-07T11:08:37Z</time><name>PT1585</name></trkpt>
<trkpt lat="53.404414" lon="-1.907828"><ele>415</ele><time>2021-10-07T11:08:38Z</time><name>PT1586</name></trkpt>
<trkpt lat="53.404413" lon="-1.907820"><ele>415</ele><time>2021-10-07T11:08:39Z</time><name>PT1587</name></trkpt>
<trkpt lat="53.404413" lon="-1.907811"><ele>415</ele><time>2021-10-07T11:08:41Z</time><name>PT1588</name></trkpt>
<trkpt lat="53.404411" lon="-1.907807"><ele>415</ele><time>2021-10-07T11:08:41Z</time><name>PT1589</name></trkpt>
<trkpt lat="53.404411" lon="-1.907800"><ele>415</ele><time>2021-10-07T11:08:42Z</time><name>PT1590</name></trkpt>
<trkpt lat="53.404413" lon="-1.907789"><ele>415</ele><time>2021-10-07T11:08:43Z</time><name>PT1591</name></trkpt>
<trkpt lat="53.404417" lon="-1.907780"><ele>415</ele><time>2021-10-07T11:08:44Z</time><name>PT1592</name></trkpt>
<trkpt lat="53.404421" lon="-1.907778"><ele>414</ele><time>2021-10-07T11:08:45Z</time><name>PT1593</name></trkpt>
<trkpt lat="53.404427" lon="-1.907774"><ele>414</ele><time>2021-10-07T11:08:46Z</time><name>PT1594</name></trkpt>
<trkpt lat="53.404435" lon="-1.907762"><ele>414</ele><time>2021-10-07T11:08:47Z</time><name>PT1595</name></trkpt>
<trkpt lat="53.404440" lon="-1.907753"><ele>412</ele><time>2021-10-07T11:08:48Z</time><name>PT1596</name></trkpt>
<trkpt lat="53.404446" lon="-1.907747"><ele>412</ele><time>2021-10-07T11:08:49Z</time><name>PT1597</name></trkpt>
<trkpt lat="53.404450" lon="-1.907741"><ele>412</ele><time>2021-10-07T11:08:50Z</time><name>PT1598</name></trkpt>
<trkpt lat="53.404457" lon="-1.907731"><ele>413</ele><time>2021-10-07T11:08:51Z</time><name>PT1599</name></trkpt>
<trkpt lat="53.404461" lon="-1.907718"><ele>413</ele><time>2021-10-07T11:08:52Z</time><name>PT1600</name></trkpt>
<trkpt lat="53.404463" lon="-1.907702"><ele>413</ele><time>2021-10-07T11:08:53Z</time><name>PT1601</name></trkpt>
<trkpt lat="53.404466" lon="-1.907687"><ele>413</ele><time>2021-10-07T11:08:54Z</time><name>PT1602</name></trkpt>
<trkpt lat="53.404470" lon="-1.907674"><ele>412</ele><time>2021-10-07T11:08:55Z</time><name>PT1603</name></trkpt>
<trkpt lat="53.404476" lon="-1.907666"><ele>412</ele><time>2021-10-07T11:08:56Z</time><name>PT1604</name></trkpt>
<trkpt lat="53.404484" lon="-1.907653"><ele>412</ele><time>2021-10-07T11:08:57Z</time><name>PT1605</name></trkpt>
<trkpt lat="53.404488" lon="-1.907643"><ele>412</ele><time>2021-10-07T11:08:58Z</time><name>PT1606</name></trkpt>
<trkpt lat="53.404493" lon="-1.907630"><ele>413</ele><time>2021-10-07T11:08:59Z</time><name>PT1607</name></trkpt>
<trkpt lat="53.404497" lon="-1.907618"><ele>413</ele><time>2021-10-07T11:09:00Z</time><name>PT1608</name></trkpt>
<trkpt lat="53.404501" lon="-1.907610"><ele>413</ele><time>2021-10-07T11:09:01Z</time><name>PT1609</name></trkpt>
<trkpt lat="53.404499" lon="-1.907599"><ele>413</ele><time>2021-10-07T11:09:02Z</time><name>PT1610</name></trkpt>
<trkpt lat="53.404506" lon="-1.907591"><ele>413</ele><time>2021-10-07T11:09:03Z</time><name>PT1611</name></trkpt>
<trkpt lat="53.404513" lon="-1.907587"><ele>413</ele><time>2021-10-07T11:09:04Z</time><name>PT1612</name></trkpt>
<trkpt lat="53.404519" lon="-1.907575"><ele>413</ele><time>2021-10-07T11:09:05Z</time><name>PT1613</name></trkpt>
<trkpt lat="53.404522" lon="-1.907567"><ele>414</ele><time>2021-10-07T11:09:06Z</time><name>PT1614</name></trkpt>
<trkpt lat="53.404526" lon="-1.907559"><ele>414</ele><time>2021-10-07T11:09:07Z</time><name>PT1615</name></trkpt>
<trkpt lat="53.404526" lon="-1.907555"><ele>413</ele><time>2021-10-07T11:09:08Z</time><name>PT1616</name></trkpt>
<trkpt lat="53.404529" lon="-1.907545"><ele>414</ele><time>2021-10-07T11:09:09Z</time><name>PT1617</name></trkpt>
<trkpt lat="53.404534" lon="-1.907539"><ele>413</ele><time>2021-10-07T11:09:10Z</time><name>PT1618</name></trkpt>
<trkpt lat="53.404537" lon="-1.907528"><ele>413</ele><time>2021-10-07T11:09:11Z</time><name>PT1619</name></trkpt>
<trkpt lat="53.404544" lon="-1.907519"><ele>414</ele><time>2021-10-07T11:09:12Z</time><name>PT1620</name></trkpt>
<trkpt lat="53.404549" lon="-1.907513"><ele>413</ele><time>2021-10-07T11:09:13Z</time><name>PT1621</name></trkpt>
<trkpt lat="53.404554" lon="-1.907502"><ele>413</ele><time>2021-10-07T11:09:14Z</time><name>PT1622</name></trkpt>
<trkpt lat="53.404559" lon="-1.907493"><ele>413</ele><time>2021-10-07T11:09:15Z</time><name>PT1623</name></trkpt>
<trkpt lat="53.404562" lon="-1.907486"><ele>413</ele><time>2021-10-07T11:09:16Z</time><name>PT1624</name></trkpt>
<trkpt lat="53.404569" lon="-1.907475"><ele>414</ele><time>2021-10-07T11:09:17Z</time><name>PT1625</name></trkpt>
<trkpt lat="53.404572" lon="-1.907468"><ele>415</ele><time>2021-10-07T11:09:18Z</time><name>PT1626</name></trkpt>
<trkpt lat="53.404577" lon="-1.907460"><ele>415</ele><time>2021-10-07T11:09:19Z</time><name>PT1627</name></trkpt>
<trkpt lat="53.404584" lon="-1.907450"><ele>414</ele><time>2021-10-07T11:09:20Z</time><name>PT1628</name></trkpt>
<trkpt lat="53.404593" lon="-1.907441"><ele>416</ele><time>2021-10-07T11:09:21Z</time><name>PT1629</name></trkpt>
<trkpt lat="53.404606" lon="-1.907435"><ele>418</ele><time>2021-10-07T11:09:22Z</time><name>PT1630</name></trkpt>
<trkpt lat="53.404611" lon="-1.907429"><ele>418</ele><time>2021-10-07T11:09:23Z</time><name>PT1631</name></trkpt>
<trkpt lat="53.404618" lon="-1.907421"><ele>419</ele><time>2021-10-07T11:09:24Z</time><name>PT1632</name></trkpt>
<trkpt lat="53.404621" lon="-1.907417"><ele>420</ele><time>2021-10-07T11:09:25Z</time><name>PT1633</name></trkpt>
<trkpt lat="53.404620" lon="-1.907410"><ele>419</ele><time>2021-10-07T11:09:26Z</time><name>PT1634</name></trkpt>
<trkpt lat="53.404627" lon="-1.907400"><ele>419</ele><time>2021-10-07T11:09:27Z</time><name>PT1635</name></trkpt>
<trkpt lat="53.404628" lon="-1.907392"><ele>418</ele><time>2021-10-07T11:09:28Z</time><name>PT1636</name></trkpt>
<trkpt lat="53.404632" lon="-1.907385"><ele>418</ele><time>2021-10-07T11:09:29Z</time><name>PT1637</name></trkpt>
<trkpt lat="53.404633" lon="-1.907379"><ele>417</ele><time>2021-10-07T11:09:30Z</time><name>PT1638</name></trkpt>
<trkpt lat="53.404639" lon="-1.907382"><ele>417</ele><time>2021-10-07T11:09:31Z</time><name>PT1639</name></trkpt>
<trkpt lat="53.404646" lon="-1.907376"><ele>418</ele><time>2021-10-07T11:09:32Z</time><name>PT1640</name></trkpt>
<trkpt lat="53.404653" lon="-1.907365"><ele>419</ele><time>2021-10-07T11:09:33Z</time><name>PT1641</name></trkpt>
<trkpt lat="53.404655" lon="-1.907354"><ele>418</ele><time>2021-10-07T11:09:34Z</time><name>PT1642</name></trkpt>
<trkpt lat="53.404659" lon="-1.907347"><ele>419</ele><time>2021-10-07T11:09:35Z</time><name>PT1643</name></trkpt>
<trkpt lat="53.404663" lon="-1.907344"><ele>420</ele><time>2021-10-07T11:09:36Z</time><name>PT1644</name></trkpt>
<trkpt lat="53.404666" lon="-1.907337"><ele>419</ele><time>2021-10-07T11:09:37Z</time><name>PT1645</name></trkpt>
<trkpt lat="53.404667" lon="-1.907329"><ele>418</ele><time>2021-10-07T11:09:38Z</time><name>PT1646</name></trkpt>
<trkpt lat="53.404672" lon="-1.907316"><ele>418</ele><time>2021-10-07T11:09:39Z</time><name>PT1647</name></trkpt>
<trkpt lat="53.404673" lon="-1.907309"><ele>417</ele><time>2021-10-07T11:09:40Z</time><name>PT1648</name></trkpt>
<trkpt lat="53.404676" lon="-1.907298"><ele>416</ele><time>2021-10-07T11:09:41Z</time><name>PT1649</name></trkpt>
<trkpt lat="53.404682" lon="-1.907290"><ele>418</ele><time>2021-10-07T11:09:42Z</time><name>PT1650</name></trkpt>
<trkpt lat="53.404682" lon="-1.907287"><ele>419</ele><time>2021-10-07T11:09:43Z</time><name>PT1651</name></trkpt>
<trkpt lat="53.404685" lon="-1.907281"><ele>420</ele><time>2021-10-07T11:09:44Z</time><name>PT1652</name></trkpt>
<trkpt lat="53.404689" lon="-1.907273"><ele>420</ele><time>2021-10-07T11:09:45Z</time><name>PT1653</name></trkpt>
<trkpt lat="53.404702" lon="-1.907260"><ele>422</ele><time>2021-10-07T11:09:46Z</time><name>PT1654</name></trkpt>
<trkpt lat="53.404709" lon="-1.907257"><ele>422</ele><time>2021-10-07T11:09:47Z</time><name>PT1655</name></trkpt>
<trkpt lat="53.404713" lon="-1.907254"><ele>423</ele><time>2021-10-07T11:09:48Z</time><name>PT1656</name></trkpt>
<trkpt lat="53.404716" lon="-1.907251"><ele>422</ele><time>2021-10-07T11:09:49Z</time><name>PT1657</name></trkpt>
<trkpt lat="53.404718" lon="-1.907244"><ele>423</ele><time>2021-10-07T11:09:50Z</time><name>PT1658</name></trkpt>
<trkpt lat="53.404720" lon="-1.907238"><ele>423</ele><time>2021-10-07T11:09:51Z</time><name>PT1659</name></trkpt>
<trkpt lat="53.404725" lon="-1.907239"><ele>423</ele><time>2021-10-07T11:09:52Z</time><name>PT1660</name></trkpt>
<trkpt lat="53.404727" lon="-1.907239"><ele>423</ele><time>2021-10-07T11:09:53Z</time><name>PT1661</name></trkpt>
<trkpt lat="53.404730" lon="-1.907235"><ele>424</ele><time>2021-10-07T11:09:54Z</time><name>PT1662</name></trkpt>
<trkpt lat="53.404733" lon="-1.907226"><ele>426</ele><time>2021-10-07T11:09:55Z</time><name>PT1663</name></trkpt>
<trkpt lat="53.404728" lon="-1.907220"><ele>426</ele><time>2021-10-07T11:10:04Z</time><name>PT1664</name></trkpt>
<trkpt lat="53.404732" lon="-1.907203"><ele>426</ele><time>2021-10-07T11:10:05Z</time><name>PT1665</name></trkpt>
<trkpt lat="53.404734" lon="-1.907196"><ele>426</ele><time>2021-10-07T11:10:06Z</time><name>PT1666</name></trkpt>
<trkpt lat="53.404742" lon="-1.907188"><ele>426</ele><time>2021-10-07T11:10:07Z</time><name>PT1667</name></trkpt>
<trkpt lat="53.404747" lon="-1.907188"><ele>427</ele><time>2021-10-07T11:10:08Z</time><name>PT1668</name></trkpt>
<trkpt lat="53.404751" lon="-1.907183"><ele>427</ele><time>2021-10-07T11:10:09Z</time><name>PT1669</name></trkpt>
<trkpt lat="53.404759" lon="-1.907174"><ele>428</ele><time>2021-10-07T11:10:10Z</time><name>PT1670</name></trkpt>
<trkpt lat="53.404762" lon="-1.907166"><ele>428</ele><time>2021-10-07T11:10:11Z</time><name>PT1671</name></trkpt>
<trkpt lat="53.404762" lon="-1.907158"><ele>428</ele><time>2021-10-07T11:10:12Z</time><name>PT1672</name></trkpt>
<trkpt lat="53.404761" lon="-1.907146"><ele>428</ele><time>2021-10-07T11:10:13Z</time><name>PT1673</name></trkpt>
<trkpt lat="53.404765" lon="-1.907138"><ele>428</ele><time>2021-10-07T11:10:14Z</time><name>PT1674</name></trkpt>
<trkpt lat="53.404771" lon="-1.907132"><ele>429</ele><time>2021-10-07T11:10:15Z</time><name>PT1675</name></trkpt>
<trkpt lat="53.404776" lon="-1.907127"><ele>430</ele><time>2021-10-07T11:10:16Z</time><name>PT1676</name></trkpt>
<trkpt lat="53.404776" lon="-1.907123"><ele>430</ele><time>2021-10-07T11:10:17Z</time><name>PT1677</name></trkpt>
<trkpt lat="53.404776" lon="-1.907119"><ele>430</ele><time>2021-10-07T11:10:18Z</time><name>PT1678</name></trkpt>
<trkpt lat="53.404781" lon="-1.907116"><ele>431</ele><time>2021-10-07T11:10:19Z</time><name>PT1679</name></trkpt>
<trkpt lat="53.404790" lon="-1.907116"><ele>431</ele><time>2021-10-07T11:10:20Z</time><name>PT1680</name></trkpt>
<trkpt lat="53.404795" lon="-1.907112"><ele>433</ele><time>2021-10-07T11:10:21Z</time><name>PT1681</name></trkpt>
<trkpt lat="53.404801" lon="-1.907103"><ele>434</ele><time>2021-10-07T11:10:22Z</time><name>PT1682</name></trkpt>
<trkpt lat="53.404808" lon="-1.907096"><ele>434</ele><time>2021-10-07T11:10:23Z</time><name>PT1683</name></trkpt>
<trkpt lat="53.404814" lon="-1.907092"><ele>435</ele><time>2021-10-07T11:10:24Z</time><name>PT1684</name></trkpt>
<trkpt lat="53.404819" lon="-1.907088"><ele>435</ele><time>2021-10-07T11:10:25Z</time><name>PT1685</name></trkpt>
<trkpt lat="53.404834" lon="-1.907085"><ele>436</ele><time>2021-10-07T11:10:26Z</time><name>PT1686</name></trkpt>
<trkpt lat="53.404845" lon="-1.907076"><ele>436</ele><time>2021-10-07T11:10:27Z</time><name>PT1687</name></trkpt>
<trkpt lat="53.404852" lon="-1.907066"><ele>436</ele><time>2021-10-07T11:10:28Z</time><name>PT1688</name></trkpt>
<trkpt lat="53.404852" lon="-1.907065"><ele>436</ele><time>2021-10-07T11:10:29Z</time><name>PT1689</name></trkpt>
<trkpt lat="53.404858" lon="-1.907068"><ele>436</ele><time>2021-10-07T11:10:30Z</time><name>PT1690</name></trkpt>
<trkpt lat="53.404864" lon="-1.907058"><ele>436</ele><time>2021-10-07T11:10:31Z</time><name>PT1691</name></trkpt>
<trkpt lat="53.404870" lon="-1.907053"><ele>437</ele><time>2021-10-07T11:10:32Z</time><name>PT1692</name></trkpt>
<trkpt lat="53.404874" lon="-1.907052"><ele>437</ele><time>2021-10-07T11:10:33Z</time><name>PT1693</name></trkpt>
<trkpt lat="53.404874" lon="-1.907052"><ele>435</ele><time>2021-10-07T11:10:34Z</time><name>PT1694</name></trkpt>
<trkpt lat="53.404877" lon="-1.907054"><ele>436</ele><time>2021-10-07T11:10:35Z</time><name>PT1695</name></trkpt>
<trkpt lat="53.404889" lon="-1.907056"><ele>435</ele><time>2021-10-07T11:10:38Z</time><name>PT1696</name></trkpt>
<trkpt lat="53.404913" lon="-1.907039"><ele>435</ele><time>2021-10-07T11:10:42Z</time><name>PT1697</name></trkpt>
<trkpt lat="53.404932" lon="-1.907008"><ele>433</ele><time>2021-10-07T11:10:46Z</time><name>PT1698</name></trkpt>
<trkpt lat="53.404956" lon="-1.906998"><ele>432</ele><time>2021-10-07T11:10:50Z</time><name>PT1699</name></trkpt>
<trkpt lat="53.404978" lon="-1.906977"><ele>430</ele><time>2021-10-07T11:10:54Z</time><name>PT1700</name></trkpt>
<trkpt lat="53.405000" lon="-1.906953"><ele>432</ele><time>2021-10-07T11:10:58Z</time><name>PT1701</name></trkpt>
<trkpt lat="53.405023" lon="-1.906949"><ele>434</ele><time>2021-10-07T11:11:02Z</time><name>PT1702</name></trkpt>
<trkpt lat="53.405044" lon="-1.906926"><ele>435</ele><time>2021-10-07T11:11:06Z</time><name>PT1703</name></trkpt>
<trkpt lat="53.405062" lon="-1.906887"><ele>436</ele><time>2021-10-07T11:11:10Z</time><name>PT1704</name></trkpt>
<trkpt lat="53.405085" lon="-1.906861"><ele>437</ele><time>2021-10-07T11:11:14Z</time><name>PT1705</name></trkpt>
<trkpt lat="53.405103" lon="-1.906832"><ele>439</ele><time>2021-10-07T11:11:18Z</time><name>PT1706</name></trkpt>
<trkpt lat="53.405123" lon="-1.906810"><ele>442</ele><time>2021-10-07T11:11:22Z</time><name>PT1707</name></trkpt>
<trkpt lat="53.405143" lon="-1.906798"><ele>444</ele><time>2021-10-07T11:11:26Z</time><name>PT1708</name></trkpt>
<trkpt lat="53.405167" lon="-1.906749"><ele>442</ele><time>2021-10-07T11:11:30Z</time><name>PT1709</name></trkpt>
<trkpt lat="53.405188" lon="-1.906708"><ele>442</ele><time>2021-10-07T11:11:34Z</time><name>PT1710</name></trkpt>
<trkpt lat="53.405218" lon="-1.906670"><ele>443</ele><time>2021-10-07T11:11:38Z</time><name>PT1711</name></trkpt>
<trkpt lat="53.405239" lon="-1.906643"><ele>442</ele><time>2021-10-07T11:11:42Z</time><name>PT1712</name></trkpt>
<trkpt lat="53.405268" lon="-1.906611"><ele>445</ele><time>2021-10-07T11:11:46Z</time><name>PT1713</name></trkpt>
<trkpt lat="53.405286" lon="-1.906592"><ele>446</ele><time>2021-10-07T11:11:50Z</time><name>PT1714</name></trkpt>
<trkpt lat="53.405302" lon="-1.906568"><ele>448</ele><time>2021-10-07T11:11:54Z</time><name>PT1715</name></trkpt>
<trkpt lat="53.405323" lon="-1.906544"><ele>449</ele><time>2021-10-07T11:11:58Z</time><name>PT1716</name></trkpt>
<trkpt lat="53.405347" lon="-1.906530"><ele>449</ele><time>2021-10-07T11:12:02Z</time><name>PT1717</name></trkpt>
<trkpt lat="53.405372" lon="-1.906487"><ele>447</ele><time>2021-10-07T11:12:06Z</time><name>PT1718</name></trkpt>
<trkpt lat="53.405401" lon="-1.906455"><ele>449</ele><time>2021-10-07T11:12:10Z</time><name>PT1719</name></trkpt>
<trkpt lat="53.405431" lon="-1.906430"><ele>449</ele><time>2021-10-07T11:12:14Z</time><name>PT1720</name></trkpt>
<trkpt lat="53.405449" lon="-1.906422"><ele>448</ele><time>2021-10-07T11:12:18Z</time><name>PT1721</name></trkpt>
<trkpt lat="53.405469" lon="-1.906410"><ele>447</ele><time>2021-10-07T11:12:22Z</time><name>PT1722</name></trkpt>
<trkpt lat="53.405494" lon="-1.906382"><ele>448</ele><time>2021-10-07T11:12:26Z</time><name>PT1723</name></trkpt>
<trkpt lat="53.405529" lon="-1.906346"><ele>452</ele><time>2021-10-07T11:12:30Z</time><name>PT1724</name></trkpt>
<trkpt lat="53.405548" lon="-1.906333"><ele>453</ele><time>2021-10-07T11:12:34Z</time><name>PT1725</name></trkpt>
<trkpt lat="53.405561" lon="-1.906313"><ele>453</ele><time>2021-10-07T11:12:38Z</time><name>PT1726</name></trkpt>
<trkpt lat="53.405584" lon="-1.906290"><ele>456</ele><time>2021-10-07T11:12:42Z</time><name>PT1727</name></trkpt>
<trkpt lat="53.405612" lon="-1.906268"><ele>457</ele><time>2021-10-07T11:12:46Z</time><name>PT1728</name></trkpt>
<trkpt lat="53.405614" lon="-1.906248"><ele>456</ele><time>2021-10-07T11:12:50Z</time><name>PT1729</name></trkpt>
<trkpt lat="53.405631" lon="-1.906223"><ele>458</ele><time>2021-10-07T11:12:54Z</time><name>PT1730</name></trkpt>
<trkpt lat="53.405664" lon="-1.906187"><ele>459</ele><time>2021-10-07T11:12:58Z</time><name>PT1731</name></trkpt>
<trkpt lat="53.405699" lon="-1.906157"><ele>460</ele><time>2021-10-07T11:13:02Z</time><name>PT1732</name></trkpt>
<trkpt lat="53.405721" lon="-1.906116"><ele>460</ele><time>2021-10-07T11:13:06Z</time><name>PT1733</name></trkpt>
<trkpt lat="53.405739" lon="-1.906084"><ele>460</ele><time>2021-10-07T11:13:10Z</time><name>PT1734</name></trkpt>
<trkpt lat="53.405754" lon="-1.906064"><ele>461</ele><time>2021-10-07T11:13:14Z</time><name>PT1735</name></trkpt>
<trkpt lat="53.405766" lon="-1.906067"><ele>461</ele><time>2021-10-07T11:13:18Z</time><name>PT1736</name></trkpt>
<trkpt lat="53.405770" lon="-1.906050"><ele>462</ele><time>2021-10-07T11:13:22Z</time><name>PT1737</name></trkpt>
<trkpt lat="53.405780" lon="-1.906045"><ele>460</ele><time>2021-10-07T11:13:26Z</time><name>PT1738</name></trkpt>
<trkpt lat="53.405803" lon="-1.906024"><ele>462</ele><time>2021-10-07T11:13:30Z</time><name>PT1739</name></trkpt>
<trkpt lat="53.405817" lon="-1.905998"><ele>463</ele><time>2021-10-07T11:13:34Z</time><name>PT1740</name></trkpt>
<trkpt lat="53.405835" lon="-1.905982"><ele>463</ele><time>2021-10-07T11:13:38Z</time><name>PT1741</name></trkpt>
<trkpt lat="53.405847" lon="-1.905959"><ele>464</ele><time>2021-10-07T11:13:42Z</time><name>PT1742</name></trkpt>
<trkpt lat="53.405862" lon="-1.905957"><ele>465</ele><time>2021-10-07T11:13:46Z</time><name>PT1743</name></trkpt>
<trkpt lat="53.405889" lon="-1.905948"><ele>467</ele><time>2021-10-07T11:13:50Z</time><name>PT1744</name></trkpt>
<trkpt lat="53.405907" lon="-1.905929"><ele>469</ele><time>2021-10-07T11:13:54Z</time><name>PT1745</name></trkpt>
<trkpt lat="53.405920" lon="-1.905909"><ele>470</ele><time>2021-10-07T11:13:58Z</time><name>PT1746</name></trkpt>
<trkpt lat="53.405933" lon="-1.905886"><ele>471</ele><time>2021-10-07T11:14:02Z</time><name>PT1747</name></trkpt>
<trkpt lat="53.405949" lon="-1.905863"><ele>474</ele><time>2021-10-07T11:14:06Z</time><name>PT1748</name></trkpt>
<trkpt lat="53.405959" lon="-1.905828"><ele>474</ele><time>2021-10-07T11:14:10Z</time><name>PT1749</name></trkpt>
<trkpt lat="53.405966" lon="-1.905792"><ele>477</ele><time>2021-10-07T11:14:14Z</time><name>PT1750</name></trkpt>
<trkpt lat="53.405979" lon="-1.905754"><ele>478</ele><time>2021-10-07T11:14:18Z</time><name>PT1751</name></trkpt>
<trkpt lat="53.405990" lon="-1.905746"><ele>478</ele><time>2021-10-07T11:14:22Z</time><name>PT1752</name></trkpt>
<trkpt lat="53.406001" lon="-1.905711"><ele>481</ele><time>2021-10-07T11:14:26Z</time><name>PT1753</name></trkpt>
<trkpt lat="53.406015" lon="-1.905682"><ele>481</ele><time>2021-10-07T11:14:30Z</time><name>PT1754</name></trkpt>
<trkpt lat="53.406025" lon="-1.905656"><ele>480</ele><time>2021-10-07T11:14:34Z</time><name>PT1755</name></trkpt>
<trkpt lat="53.406037" lon="-1.905655"><ele>479</ele><time>2021-10-07T11:14:38Z</time><name>PT1756</name></trkpt>
<trkpt lat="53.406047" lon="-1.905648"><ele>479</ele><time>2021-10-07T11:14:42Z</time><name>PT1757</name></trkpt>
<trkpt lat="53.406064" lon="-1.905637"><ele>478</ele><time>2021-10-07T11:14:46Z</time><name>PT1758</name></trkpt>
<trkpt lat="53.406091" lon="-1.905644"><ele>477</ele><time>2021-10-07T11:14:50Z</time><name>PT1759</name></trkpt>
<trkpt lat="53.406115" lon="-1.905661"><ele>478</ele><time>2021-10-07T11:14:54Z</time><name>PT1760</name></trkpt>
<trkpt lat="53.406132" lon="-1.905661"><ele>480</ele><time>2021-10-07T11:14:58Z</time><name>PT1761</name></trkpt>
<trkpt lat="53.406151" lon="-1.905655"><ele>481</ele><time>2021-10-07T11:15:02Z</time><name>PT1762</name></trkpt>
<trkpt lat="53.406171" lon="-1.905654"><ele>481</ele><time>2021-10-07T11:15:06Z</time><name>PT1763</name></trkpt>
<trkpt lat="53.406194" lon="-1.905646"><ele>482</ele><time>2021-10-07T11:15:10Z</time><name>PT1764</name></trkpt>
<trkpt lat="53.406199" lon="-1.905646"><ele>482</ele><time>2021-10-07T11:15:14Z</time><name>PT1765</name></trkpt>
<trkpt lat="53.406200" lon="-1.905635"><ele>483</ele><time>2021-10-07T11:15:18Z</time><name>PT1766</name></trkpt>
<trkpt lat="53.406239" lon="-1.905627"><ele>483</ele><time>2021-10-07T11:15:22Z</time><name>PT1767</name></trkpt>
<trkpt lat="53.406271" lon="-1.905615"><ele>484</ele><time>2021-10-07T11:15:26Z</time><name>PT1768</name></trkpt>
<trkpt lat="53.406296" lon="-1.905614"><ele>485</ele><time>2021-10-07T11:15:30Z</time><name>PT1769</name></trkpt>
<trkpt lat="53.406320" lon="-1.905607"><ele>486</ele><time>2021-10-07T11:15:34Z</time><name>PT1770</name></trkpt>
<trkpt lat="53.406348" lon="-1.905609"><ele>488</ele><time>2021-10-07T11:15:38Z</time><name>PT1771</name></trkpt>
<trkpt lat="53.406383" lon="-1.905604"><ele>489</ele><time>2021-10-07T11:15:42Z</time><name>PT1772</name></trkpt>
<trkpt lat="53.406401" lon="-1.905593"><ele>490</ele><time>2021-10-07T11:15:46Z</time><name>PT1773</name></trkpt>
<trkpt lat="53.406405" lon="-1.905591"><ele>490</ele><time>2021-10-07T11:15:50Z</time><name>PT1774</name></trkpt>
<trkpt lat="53.406433" lon="-1.905581"><ele>491</ele><time>2021-10-07T11:15:54Z</time><name>PT1775</name></trkpt>
<trkpt lat="53.406454" lon="-1.905565"><ele>490</ele><time>2021-10-07T11:15:58Z</time><name>PT1776</name></trkpt>
<trkpt lat="53.406481" lon="-1.905549"><ele>491</ele><time>2021-10-07T11:16:02Z</time><name>PT1777</name></trkpt>
<trkpt lat="53.406490" lon="-1.905544"><ele>492</ele><time>2021-10-07T11:16:06Z</time><name>PT1778</name></trkpt>
<trkpt lat="53.406492" lon="-1.905547"><ele>492</ele><time>2021-10-07T11:16:10Z</time><name>PT1779</name></trkpt>
<trkpt lat="53.406526" lon="-1.905556"><ele>492</ele><time>2021-10-07T11:16:14Z</time><name>PT1780</name></trkpt>
<trkpt lat="53.406558" lon="-1.905550"><ele>493</ele><time>2021-10-07T11:16:17Z</time><name>PT1781</name></trkpt>
<trkpt lat="53.406567" lon="-1.905549"><ele>493</ele><time>2021-10-07T11:16:18Z</time><name>PT1782</name></trkpt>
<trkpt lat="53.406578" lon="-1.905543"><ele>493</ele><time>2021-10-07T11:16:19Z</time><name>PT1783</name></trkpt>
<trkpt lat="53.406585" lon="-1.905533"><ele>494</ele><time>2021-10-07T11:16:20Z</time><name>PT1784</name></trkpt>
<trkpt lat="53.406590" lon="-1.905529"><ele>495</ele><time>2021-10-07T11:16:21Z</time><name>PT1785</name></trkpt>
<trkpt lat="53.406591" lon="-1.905525"><ele>495</ele><time>2021-10-07T11:16:22Z</time><name>PT1786</name></trkpt>
<trkpt lat="53.406597" lon="-1.905519"><ele>494</ele><time>2021-10-07T11:16:23Z</time><name>PT1787</name></trkpt>
<trkpt lat="53.406606" lon="-1.905512"><ele>494</ele><time>2021-10-07T11:16:24Z</time><name>PT1788</name></trkpt>
<trkpt lat="53.406617" lon="-1.905507"><ele>495</ele><time>2021-10-07T11:16:25Z</time><name>PT1789</name></trkpt>
<trkpt lat="53.406626" lon="-1.905503"><ele>495</ele><time>2021-10-07T11:16:26Z</time><name>PT1790</name></trkpt>
<trkpt lat="53.406633" lon="-1.905497"><ele>495</ele><time>2021-10-07T11:16:27Z</time><name>PT1791</name></trkpt>
<trkpt lat="53.406642" lon="-1.905490"><ele>496</ele><time>2021-10-07T11:16:28Z</time><name>PT1792</name></trkpt>
<trkpt lat="53.406649" lon="-1.905482"><ele>496</ele><time>2021-10-07T11:16:29Z</time><name>PT1793</name></trkpt>
<trkpt lat="53.406658" lon="-1.905475"><ele>497</ele><time>2021-10-07T11:16:30Z</time><name>PT1794</name></trkpt>
<trkpt lat="53.406665" lon="-1.905469"><ele>497</ele><time>2021-10-07T11:16:31Z</time><name>PT1795</name></trkpt>
<trkpt lat="53.406673" lon="-1.905467"><ele>498</ele><time>2021-10-07T11:16:32Z</time><name>PT1796</name></trkpt>
<trkpt lat="53.406682" lon="-1.905464"><ele>498</ele><time>2021-10-07T11:16:33Z</time><name>PT1797</name></trkpt>
<trkpt lat="53.406687" lon="-1.905461"><ele>498</ele><time>2021-10-07T11:16:34Z</time><name>PT1798</name></trkpt>
<trkpt lat="53.406694" lon="-1.905463"><ele>498</ele><time>2021-10-07T11:16:35Z</time><name>PT1799</name></trkpt>
<trkpt lat="53.406702" lon="-1.905462"><ele>498</ele><time>2021-10-07T11:16:36Z</time><name>PT1800</name></trkpt>
<trkpt lat="53.406713" lon="-1.905462"><ele>497</ele><time>2021-10-07T11:16:37Z</time><name>PT1801</name></trkpt>
<trkpt lat="53.406721" lon="-1.905462"><ele>498</ele><time>2021-10-07T11:16:38Z</time><name>PT1802</name></trkpt>
<trkpt lat="53.406729" lon="-1.905463"><ele>498</ele><time>2021-10-07T11:16:39Z</time><name>PT1803</name></trkpt>
<trkpt lat="53.406738" lon="-1.905459"><ele>498</ele><time>2021-10-07T11:16:40Z</time><name>PT1804</name></trkpt>
<trkpt lat="53.406748" lon="-1.905456"><ele>498</ele><time>2021-10-07T11:16:41Z</time><name>PT1805</name></trkpt>
<trkpt lat="53.406757" lon="-1.905455"><ele>497</ele><time>2021-10-07T11:16:42Z</time><name>PT1806</name></trkpt>
<trkpt lat="53.406766" lon="-1.905452"><ele>497</ele><time>2021-10-07T11:16:43Z</time><name>PT1807</name></trkpt>
<trkpt lat="53.406775" lon="-1.905443"><ele>498</ele><time>2021-10-07T11:16:44Z</time><name>PT1808</name></trkpt>
<trkpt lat="53.406781" lon="-1.905436"><ele>498</ele><time>2021-10-07T11:16:45Z</time><name>PT1809</name></trkpt>
<trkpt lat="53.406790" lon="-1.905432"><ele>498</ele><time>2021-10-07T11:16:46Z</time><name>PT1810</name></trkpt>
<trkpt lat="53.406803" lon="-1.905425"><ele>499</ele><time>2021-10-07T11:16:47Z</time><name>PT1811</name></trkpt>
<trkpt lat="53.406812" lon="-1.905418"><ele>499</ele><time>2021-10-07T11:16:48Z</time><name>PT1812</name></trkpt>
<trkpt lat="53.406822" lon="-1.905414"><ele>499</ele><time>2021-10-07T11:16:49Z</time><name>PT1813</name></trkpt>
<trkpt lat="53.406832" lon="-1.905414"><ele>499</ele><time>2021-10-07T11:16:50Z</time><name>PT1814</name></trkpt>
<trkpt lat="53.406840" lon="-1.905406"><ele>500</ele><time>2021-10-07T11:16:51Z</time><name>PT1815</name></trkpt>
<trkpt lat="53.406847" lon="-1.905400"><ele>500</ele><time>2021-10-07T11:16:52Z</time><name>PT1816</name></trkpt>
<trkpt lat="53.406856" lon="-1.905395"><ele>500</ele><time>2021-10-07T11:16:53Z</time><name>PT1817</name></trkpt>
<trkpt lat="53.406865" lon="-1.905391"><ele>501</ele><time>2021-10-07T11:16:54Z</time><name>PT1818</name></trkpt>
<trkpt lat="53.406875" lon="-1.905382"><ele>501</ele><time>2021-10-07T11:16:55Z</time><name>PT1819</name></trkpt>
<trkpt lat="53.406883" lon="-1.905371"><ele>502</ele><time>2021-10-07T11:16:56Z</time><name>PT1820</name></trkpt>
<trkpt lat="53.406889" lon="-1.905361"><ele>502</ele><time>2021-10-07T11:16:57Z</time><name>PT1821</name></trkpt>
<trkpt lat="53.406899" lon="-1.905353"><ele>502</ele><time>2021-10-07T11:16:58Z</time><name>PT1822</name></trkpt>
<trkpt lat="53.406909" lon="-1.905348"><ele>502</ele><time>2021-10-07T11:16:59Z</time><name>PT1823</name></trkpt>
<trkpt lat="53.406916" lon="-1.905342"><ele>502</ele><time>2021-10-07T11:17:00Z</time><name>PT1824</name></trkpt>
<trkpt lat="53.406925" lon="-1.905336"><ele>502</ele><time>2021-10-07T11:17:01Z</time><name>PT1825</name></trkpt>
<trkpt lat="53.406936" lon="-1.905333"><ele>502</ele><time>2021-10-07T11:17:02Z</time><name>PT1826</name></trkpt>
<trkpt lat="53.406944" lon="-1.905328"><ele>502</ele><time>2021-10-07T11:17:03Z</time><name>PT1827</name></trkpt>
<trkpt lat="53.406952" lon="-1.905318"><ele>502</ele><time>2021-10-07T11:17:04Z</time><name>PT1828</name></trkpt>
<trkpt lat="53.406959" lon="-1.905311"><ele>502</ele><time>2021-10-07T11:17:05Z</time><name>PT1829</name></trkpt>
<trkpt lat="53.406969" lon="-1.905306"><ele>502</ele><time>2021-10-07T11:17:06Z</time><name>PT1830</name></trkpt>
<trkpt lat="53.406977" lon="-1.905297"><ele>503</ele><time>2021-10-07T11:17:07Z</time><name>PT1831</name></trkpt>
<trkpt lat="53.406986" lon="-1.905291"><ele>503</ele><time>2021-10-07T11:17:08Z</time><name>PT1832</name></trkpt>
<trkpt lat="53.406994" lon="-1.905286"><ele>503</ele><time>2021-10-07T11:17:09Z</time><name>PT1833</name></trkpt>
<trkpt lat="53.407001" lon="-1.905279"><ele>503</ele><time>2021-10-07T11:17:10Z</time><name>PT1834</name></trkpt>
<trkpt lat="53.407009" lon="-1.905270"><ele>503</ele><time>2021-10-07T11:17:11Z</time><name>PT1835</name></trkpt>
<trkpt lat="53.407017" lon="-1.905265"><ele>503</ele><time>2021-10-07T11:17:12Z</time><name>PT1836</name></trkpt>
<trkpt lat="53.407023" lon="-1.905259"><ele>503</ele><time>2021-10-07T11:17:13Z</time><name>PT1837</name></trkpt>
<trkpt lat="53.407031" lon="-1.905247"><ele>503</ele><time>2021-10-07T11:17:14Z</time><name>PT1838</name></trkpt>
<trkpt lat="53.407038" lon="-1.905233"><ele>503</ele><time>2021-10-07T11:17:15Z</time><name>PT1839</name></trkpt>
<trkpt lat="53.407039" lon="-1.905225"><ele>504</ele><time>2021-10-07T11:17:16Z</time><name>PT1840</name></trkpt>
<trkpt lat="53.407043" lon="-1.905217"><ele>504</ele><time>2021-10-07T11:17:17Z</time><name>PT1841</name></trkpt>
<trkpt lat="53.407044" lon="-1.905213"><ele>504</ele><time>2021-10-07T11:17:18Z</time><name>PT1842</name></trkpt>
<trkpt lat="53.407047" lon="-1.905214"><ele>504</ele><time>2021-10-07T11:17:19Z</time><name>PT1843</name></trkpt>
<trkpt lat="53.407047" lon="-1.905214"><ele>504</ele><time>2021-10-07T11:17:20Z</time><name>PT1844</name></trkpt>
<trkpt lat="53.407048" lon="-1.905210"><ele>504</ele><time>2021-10-07T11:17:21Z</time><name>PT1845</name></trkpt>
<trkpt lat="53.407049" lon="-1.905211"><ele>504</ele><time>2021-10-07T11:17:22Z</time><name>PT1846</name></trkpt>
<trkpt lat="53.407049" lon="-1.905213"><ele>504</ele><time>2021-10-07T11:17:45Z</time><name>PT1847</name></trkpt>
<trkpt lat="53.407049" lon="-1.905214"><ele>504</ele><time>2021-10-07T11:17:46Z</time><name>PT1848</name></trkpt>
<trkpt lat="53.407050" lon="-1.905216"><ele>505</ele><time>2021-10-07T11:17:54Z</time><name>PT1849</name></trkpt>
<trkpt lat="53.407047" lon="-1.905216"><ele>504</ele><time>2021-10-07T11:17:55Z</time><name>PT1850</name></trkpt>
<trkpt lat="53.407047" lon="-1.905208"><ele>504</ele><time>2021-10-07T11:17:56Z</time><name>PT1851</name></trkpt>
<trkpt lat="53.407047" lon="-1.905206"><ele>504</ele><time>2021-10-07T11:17:57Z</time><name>PT1852</name></trkpt>
<trkpt lat="53.407044" lon="-1.905201"><ele>505</ele><time>2021-10-07T11:18:23Z</time><name>PT1853</name></trkpt>
<trkpt lat="53.407045" lon="-1.905193"><ele>505</ele><time>2021-10-07T11:18:24Z</time><name>PT1854</name></trkpt>
<trkpt lat="53.407043" lon="-1.905198"><ele>506</ele><time>2021-10-07T11:18:25Z</time><name>PT1855</name></trkpt>
<trkpt lat="53.407042" lon="-1.905202"><ele>506</ele><time>2021-10-07T11:18:26Z</time><name>PT1856</name></trkpt>
<trkpt lat="53.407045" lon="-1.905200"><ele>506</ele><time>2021-10-07T11:18:27Z</time><name>PT1857</name></trkpt>
<trkpt lat="53.407046" lon="-1.905200"><ele>506</ele><time>2021-10-07T11:18:28Z</time><name>PT1858</name></trkpt>
<trkpt lat="53.407046" lon="-1.905199"><ele>505</ele><time>2021-10-07T11:18:29Z</time><name>PT1859</name></trkpt>
<trkpt lat="53.407047" lon="-1.905200"><ele>505</ele><time>2021-10-07T11:18:30Z</time><name>PT1860</name></trkpt>
<trkpt lat="53.407045" lon="-1.905194"><ele>506</ele><time>2021-10-07T11:18:37Z</time><name>PT1861</name></trkpt>
<trkpt lat="53.407045" lon="-1.905183"><ele>506</ele><time>2021-10-07T11:18:38Z</time><name>PT1862</name></trkpt>
<trkpt lat="53.407047" lon="-1.905170"><ele>506</ele><time>2021-10-07T11:18:39Z</time><name>PT1863</name></trkpt>
<trkpt lat="53.407048" lon="-1.905154"><ele>506</ele><time>2021-10-07T11:18:40Z</time><name>PT1864</name></trkpt>
<trkpt lat="53.407049" lon="-1.905150"><ele>505</ele><time>2021-10-07T11:18:41Z</time><name>PT1865</name></trkpt>
<trkpt lat="53.407050" lon="-1.905146"><ele>505</ele><time>2021-10-07T11:18:42Z</time><name>PT1866</name></trkpt>
<trkpt lat="53.407050" lon="-1.905142"><ele>505</ele><time>2021-10-07T11:18:43Z</time><name>PT1867</name></trkpt>
<trkpt lat="53.407054" lon="-1.905138"><ele>505</ele><time>2021-10-07T11:19:12Z</time><name>PT1868</name></trkpt>
<trkpt lat="53.407053" lon="-1.905120"><ele>505</ele><time>2021-10-07T11:19:13Z</time><name>PT1869</name></trkpt>
<trkpt lat="53.407055" lon="-1.905102"><ele>505</ele><time>2021-10-07T11:19:14Z</time><name>PT1870</name></trkpt>
<trkpt lat="53.407061" lon="-1.905083"><ele>505</ele><time>2021-10-07T11:19:15Z</time><name>PT1871</name></trkpt>
<trkpt lat="53.407063" lon="-1.905064"><ele>505</ele><time>2021-10-07T11:19:16Z</time><name>PT1872</name></trkpt>
<trkpt lat="53.407065" lon="-1.905047"><ele>505</ele><time>2021-10-07T11:19:17Z</time><name>PT1873</name></trkpt>
<trkpt lat="53.407068" lon="-1.905029"><ele>505</ele><time>2021-10-07T11:19:18Z</time><name>PT1874</name></trkpt>
<trkpt lat="53.407072" lon="-1.905011"><ele>505</ele><time>2021-10-07T11:19:19Z</time><name>PT1875</name></trkpt>
<trkpt lat="53.407073" lon="-1.904992"><ele>505</ele><time>2021-10-07T11:19:20Z</time><name>PT1876</name></trkpt>
<trkpt lat="53.407073" lon="-1.904977"><ele>504</ele><time>2021-10-07T11:19:21Z</time><name>PT1877</name></trkpt>
<trkpt lat="53.407072" lon="-1.904956"><ele>505</ele><time>2021-10-07T11:19:22Z</time><name>PT1878</name></trkpt>
<trkpt lat="53.407070" lon="-1.904931"><ele>505</ele><time>2021-10-07T11:19:23Z</time><name>PT1879</name></trkpt>
<trkpt lat="53.407071" lon="-1.904909"><ele>505</ele><time>2021-10-07T11:19:24Z</time><name>PT1880</name></trkpt>
<trkpt lat="53.407073" lon="-1.904889"><ele>505</ele><time>2021-10-07T11:19:25Z</time><name>PT1881</name></trkpt>
<trkpt lat="53.407072" lon="-1.904869"><ele>505</ele><time>2021-10-07T11:19:26Z</time><name>PT1882</name></trkpt>
<trkpt lat="53.407071" lon="-1.904854"><ele>504</ele><time>2021-10-07T11:19:27Z</time><name>PT1883</name></trkpt>
<trkpt lat="53.407071" lon="-1.904834"><ele>504</ele><time>2021-10-07T11:19:28Z</time><name>PT1884</name></trkpt>
<trkpt lat="53.407070" lon="-1.904820"><ele>504</ele><time>2021-10-07T11:19:29Z</time><name>PT1885</name></trkpt>
<trkpt lat="53.407072" lon="-1.904806"><ele>503</ele><time>2021-10-07T11:19:30Z</time><name>PT1886</name></trkpt>
<trkpt lat="53.407071" lon="-1.904778"><ele>503</ele><time>2021-10-07T11:19:31Z</time><name>PT1887</name></trkpt>
<trkpt lat="53.407070" lon="-1.904758"><ele>503</ele><time>2021-10-07T11:19:32Z</time><name>PT1888</name></trkpt>
<trkpt lat="53.407069" lon="-1.904739"><ele>503</ele><time>2021-10-07T11:19:33Z</time><name>PT1889</name></trkpt>
<trkpt lat="53.407070" lon="-1.904723"><ele>503</ele><time>2021-10-07T11:19:34Z</time><name>PT1890</name></trkpt>
<trkpt lat="53.407071" lon="-1.904710"><ele>503</ele><time>2021-10-07T11:19:35Z</time><name>PT1891</name></trkpt>
<trkpt lat="53.407072" lon="-1.904694"><ele>502</ele><time>2021-10-07T11:19:36Z</time><name>PT1892</name></trkpt>
<trkpt lat="53.407070" lon="-1.904678"><ele>502</ele><time>2021-10-07T11:19:37Z</time><name>PT1893</name></trkpt>
<trkpt lat="53.407069" lon="-1.904661"><ele>502</ele><time>2021-10-07T11:19:38Z</time><name>PT1894</name></trkpt>
<trkpt lat="53.407069" lon="-1.904644"><ele>502</ele><time>2021-10-07T11:19:39Z</time><name>PT1895</name></trkpt>
<trkpt lat="53.407069" lon="-1.904626"><ele>502</ele><time>2021-10-07T11:19:40Z</time><name>PT1896</name></trkpt>
<trkpt lat="53.407071" lon="-1.904614"><ele>502</ele><time>2021-10-07T11:19:41Z</time><name>PT1897</name></trkpt>
<trkpt lat="53.407070" lon="-1.904600"><ele>502</ele><time>2021-10-07T11:19:42Z</time><name>PT1898</name></trkpt>
<trkpt lat="53.407070" lon="-1.904586"><ele>502</ele><time>2021-10-07T11:19:43Z</time><name>PT1899</name></trkpt>
<trkpt lat="53.407071" lon="-1.904572"><ele>502</ele><time>2021-10-07T11:19:44Z</time><name>PT1900</name></trkpt>
<trkpt lat="53.407070" lon="-1.904559"><ele>502</ele><time>2021-10-07T11:19:45Z</time><name>PT1901</name></trkpt>
<trkpt lat="53.407070" lon="-1.904545"><ele>502</ele><time>2021-10-07T11:19:46Z</time><name>PT1902</name></trkpt>
<trkpt lat="53.407071" lon="-1.904525"><ele>503</ele><time>2021-10-07T11:19:47Z</time><name>PT1903</name></trkpt>
<trkpt lat="53.407074" lon="-1.904509"><ele>503</ele><time>2021-10-07T11:19:48Z</time><name>PT1904</name></trkpt>
<trkpt lat="53.407076" lon="-1.904495"><ele>503</ele><time>2021-10-07T11:19:49Z</time><name>PT1905</name></trkpt>
<trkpt lat="53.407075" lon="-1.904477"><ele>502</ele><time>2021-10-07T11:19:50Z</time><name>PT1906</name></trkpt>
<trkpt lat="53.407074" lon="-1.904453"><ele>503</ele><time>2021-10-07T11:19:51Z</time><name>PT1907</name></trkpt>
<trkpt lat="53.407072" lon="-1.904432"><ele>503</ele><time>2021-10-07T11:19:52Z</time><name>PT1908</name></trkpt>
<trkpt lat="53.407072" lon="-1.904414"><ele>503</ele><time>2021-10-07T11:19:53Z</time><name>PT1909</name></trkpt>
<trkpt lat="53.407076" lon="-1.904400"><ele>503</ele><time>2021-10-07T11:19:54Z</time><name>PT1910</name></trkpt>
<trkpt lat="53.407082" lon="-1.904385"><ele>503</ele><time>2021-10-07T11:19:55Z</time><name>PT1911</name></trkpt>
<trkpt lat="53.407087" lon="-1.904368"><ele>504</ele><time>2021-10-07T11:19:56Z</time><name>PT1912</name></trkpt>
<trkpt lat="53.407093" lon="-1.904352"><ele>504</ele><time>2021-10-07T11:19:57Z</time><name>PT1913</name></trkpt>
<trkpt lat="53.407101" lon="-1.904337"><ele>504</ele><time>2021-10-07T11:19:58Z</time><name>PT1914</name></trkpt>
<trkpt lat="53.407115" lon="-1.904289"><ele>505</ele><time>2021-10-07T11:20:01Z</time><name>PT1915</name></trkpt>
<trkpt lat="53.407112" lon="-1.904232"><ele>505</ele><time>2021-10-07T11:20:05Z</time><name>PT1916</name></trkpt>
<trkpt lat="53.407112" lon="-1.904221"><ele>505</ele><time>2021-10-07T11:20:09Z</time><name>PT1917</name></trkpt>
<trkpt lat="53.407119" lon="-1.904157"><ele>506</ele><time>2021-10-07T11:20:17Z</time><name>PT1918</name></trkpt>
<trkpt lat="53.407111" lon="-1.904077"><ele>506</ele><time>2021-10-07T11:20:21Z</time><name>PT1919</name></trkpt>
<trkpt lat="53.407106" lon="-1.904061"><ele>506</ele><time>2021-10-07T11:20:24Z</time><name>PT1920</name></trkpt>
<trkpt lat="53.407108" lon="-1.904034"><ele>506</ele><time>2021-10-07T11:20:28Z</time><name>PT1921</name></trkpt>
<trkpt lat="53.407108" lon="-1.903988"><ele>506</ele><time>2021-10-07T11:20:31Z</time><name>PT1922</name></trkpt>
<trkpt lat="53.407110" lon="-1.903939"><ele>506</ele><time>2021-10-07T11:20:35Z</time><name>PT1923</name></trkpt>
<trkpt lat="53.407109" lon="-1.903908"><ele>507</ele><time>2021-10-07T11:20:39Z</time><name>PT1924</name></trkpt>
<trkpt lat="53.407109" lon="-1.903849"><ele>506</ele><time>2021-10-07T11:20:43Z</time><name>PT1925</name></trkpt>
<trkpt lat="53.407110" lon="-1.903769"><ele>506</ele><time>2021-10-07T11:20:47Z</time><name>PT1926</name></trkpt>
<trkpt lat="53.407111" lon="-1.903700"><ele>506</ele><time>2021-10-07T11:20:51Z</time><name>PT1927</name></trkpt>
<trkpt lat="53.407109" lon="-1.903634"><ele>507</ele><time>2021-10-07T11:20:55Z</time><name>PT1928</name></trkpt>
<trkpt lat="53.407102" lon="-1.903558"><ele>507</ele><time>2021-10-07T11:20:59Z</time><name>PT1929</name></trkpt>
<trkpt lat="53.407099" lon="-1.903494"><ele>508</ele><time>2021-10-07T11:21:03Z</time><name>PT1930</name></trkpt>
<trkpt lat="53.407102" lon="-1.903454"><ele>508</ele><time>2021-10-07T11:21:07Z</time><name>PT1931</name></trkpt>
<trkpt lat="53.407114" lon="-1.903383"><ele>508</ele><time>2021-10-07T11:21:10Z</time><name>PT1932</name></trkpt>
<trkpt lat="53.407129" lon="-1.903324"><ele>508</ele><time>2021-10-07T11:21:14Z</time><name>PT1933</name></trkpt>
<trkpt lat="53.407121" lon="-1.903286"><ele>509</ele><time>2021-10-07T11:21:18Z</time><name>PT1934</name></trkpt>
<trkpt lat="53.407112" lon="-1.903254"><ele>509</ele><time>2021-10-07T11:21:21Z</time><name>PT1935</name></trkpt>
<trkpt lat="53.407094" lon="-1.903205"><ele>510</ele><time>2021-10-07T11:21:25Z</time><name>PT1936</name></trkpt>
<trkpt lat="53.407082" lon="-1.903168"><ele>510</ele><time>2021-10-07T11:21:28Z</time><name>PT1937</name></trkpt>
<trkpt lat="53.407073" lon="-1.903132"><ele>510</ele><time>2021-10-07T11:21:32Z</time><name>PT1938</name></trkpt>
<trkpt lat="53.407059" lon="-1.903081"><ele>511</ele><time>2021-10-07T11:21:35Z</time><name>PT1939</name></trkpt>
<trkpt lat="53.407047" lon="-1.903056"><ele>511</ele><time>2021-10-07T11:21:39Z</time><name>PT1940</name></trkpt>
<trkpt lat="53.407026" lon="-1.903006"><ele>512</ele><time>2021-10-07T11:21:42Z</time><name>PT1941</name></trkpt>
<trkpt lat="53.407008" lon="-1.902958"><ele>513</ele><time>2021-10-07T11:21:46Z</time><name>PT1942</name></trkpt>
<trkpt lat="53.406998" lon="-1.902918"><ele>514</ele><time>2021-10-07T11:21:50Z</time><name>PT1943</name></trkpt>
<trkpt lat="53.406988" lon="-1.902877"><ele>514</ele><time>2021-10-07T11:21:54Z</time><name>PT1944</name></trkpt>
<trkpt lat="53.406979" lon="-1.902852"><ele>515</ele><time>2021-10-07T11:21:57Z</time><name>PT1945</name></trkpt>
<trkpt lat="53.406963" lon="-1.902804"><ele>515</ele><time>2021-10-07T11:22:01Z</time><name>PT1946</name></trkpt>
<trkpt lat="53.406952" lon="-1.902768"><ele>517</ele><time>2021-10-07T11:22:05Z</time><name>PT1947</name></trkpt>
<trkpt lat="53.406952" lon="-1.902747"><ele>517</ele><time>2021-10-07T11:22:09Z</time><name>PT1948</name></trkpt>
<trkpt lat="53.406949" lon="-1.902718"><ele>517</ele><time>2021-10-07T11:22:12Z</time><name>PT1949</name></trkpt>
<trkpt lat="53.406937" lon="-1.902682"><ele>519</ele><time>2021-10-07T11:22:24Z</time><name>PT1950</name></trkpt>
<trkpt lat="53.406933" lon="-1.902648"><ele>520</ele><time>2021-10-07T11:22:28Z</time><name>PT1951</name></trkpt>
<trkpt lat="53.406933" lon="-1.902617"><ele>520</ele><time>2021-10-07T11:22:32Z</time><name>PT1952</name></trkpt>
<trkpt lat="53.406919" lon="-1.902580"><ele>520</ele><time>2021-10-07T11:22:36Z</time><name>PT1953</name></trkpt>
<trkpt lat="53.406909" lon="-1.902543"><ele>521</ele><time>2021-10-07T11:22:40Z</time><name>PT1954</name></trkpt>
<trkpt lat="53.406909" lon="-1.902508"><ele>522</ele><time>2021-10-07T11:22:44Z</time><name>PT1955</name></trkpt>
<trkpt lat="53.406897" lon="-1.902471"><ele>522</ele><time>2021-10-07T11:22:48Z</time><name>PT1956</name></trkpt>
<trkpt lat="53.406888" lon="-1.902441"><ele>523</ele><time>2021-10-07T11:22:51Z</time><name>PT1957</name></trkpt>
<trkpt lat="53.406877" lon="-1.902411"><ele>523</ele><time>2021-10-07T11:22:55Z</time><name>PT1958</name></trkpt>
<trkpt lat="53.406864" lon="-1.902373"><ele>524</ele><time>2021-10-07T11:22:59Z</time><name>PT1959</name></trkpt>
<trkpt lat="53.406860" lon="-1.902353"><ele>525</ele><time>2021-10-07T11:23:03Z</time><name>PT1960</name></trkpt>
<trkpt lat="53.406852" lon="-1.902333"><ele>525</ele><time>2021-10-07T11:23:06Z</time><name>PT1961</name></trkpt>
<trkpt lat="53.406849" lon="-1.902325"><ele>525</ele><time>2021-10-07T11:23:07Z</time><name>PT1962</name></trkpt>
<trkpt lat="53.406848" lon="-1.902321"><ele>526</ele><time>2021-10-07T11:23:08Z</time><name>PT1963</name></trkpt>
<trkpt lat="53.406848" lon="-1.902318"><ele>526</ele><time>2021-10-07T11:23:09Z</time><name>PT1964</name></trkpt>
<trkpt lat="53.406845" lon="-1.902309"><ele>526</ele><time>2021-10-07T11:23:10Z</time><name>PT1965</name></trkpt>
<trkpt lat="53.406844" lon="-1.902298"><ele>527</ele><time>2021-10-07T11:23:11Z</time><name>PT1966</name></trkpt>
<trkpt lat="53.406843" lon="-1.902292"><ele>527</ele><time>2021-10-07T11:23:12Z</time><name>PT1967</name></trkpt>
<trkpt lat="53.406839" lon="-1.902285"><ele>527</ele><time>2021-10-07T11:23:13Z</time><name>PT1968</name></trkpt>
<trkpt lat="53.406836" lon="-1.902279"><ele>527</ele><time>2021-10-07T11:23:14Z</time><name>PT1969</name></trkpt>
<trkpt lat="53.406833" lon="-1.902274"><ele>527</ele><time>2021-10-07T11:23:15Z</time><name>PT1970</name></trkpt>
<trkpt lat="53.406831" lon="-1.902271"><ele>528</ele><time>2021-10-07T11:23:16Z</time><name>PT1971</name></trkpt>
<trkpt lat="53.406827" lon="-1.902264"><ele>528</ele><time>2021-10-07T11:23:17Z</time><name>PT1972</name></trkpt>
<trkpt lat="53.406825" lon="-1.902263"><ele>528</ele><time>2021-10-07T11:23:18Z</time><name>PT1973</name></trkpt>
<trkpt lat="53.406823" lon="-1.902260"><ele>528</ele><time>2021-10-07T11:23:19Z</time><name>PT1974</name></trkpt>
<trkpt lat="53.406823" lon="-1.902255"><ele>529</ele><time>2021-10-07T11:23:23Z</time><name>PT1975</name></trkpt>
<trkpt lat="53.406818" lon="-1.902248"><ele>529</ele><time>2021-10-07T11:23:24Z</time><name>PT1976</name></trkpt>
<trkpt lat="53.406816" lon="-1.902242"><ele>529</ele><time>2021-10-07T11:23:25Z</time><name>PT1977</name></trkpt>
<trkpt lat="53.406812" lon="-1.902236"><ele>529</ele><time>2021-10-07T11:23:26Z</time><name>PT1978</name></trkpt>
<trkpt lat="53.406808" lon="-1.902229"><ele>530</ele><time>2021-10-07T11:23:27Z</time><name>PT1979</name></trkpt>
<trkpt lat="53.406806" lon="-1.902219"><ele>530</ele><time>2021-10-07T11:23:28Z</time><name>PT1980</name></trkpt>
<trkpt lat="53.406803" lon="-1.902210"><ele>530</ele><time>2021-10-07T11:23:29Z</time><name>PT1981</name></trkpt>
<trkpt lat="53.406801" lon="-1.902198"><ele>530</ele><time>2021-10-07T11:23:30Z</time><name>PT1982</name></trkpt>
<trkpt lat="53.406796" lon="-1.902187"><ele>531</ele><time>2021-10-07T11:23:31Z</time><name>PT1983</name></trkpt>
<trkpt lat="53.406794" lon="-1.902176"><ele>531</ele><time>2021-10-07T11:23:32Z</time><name>PT1984</name></trkpt>
<trkpt lat="53.406793" lon="-1.902172"><ele>531</ele><time>2021-10-07T11:23:33Z</time><name>PT1985</name></trkpt>
<trkpt lat="53.406792" lon="-1.902164"><ele>531</ele><time>2021-10-07T11:23:34Z</time><name>PT1986</name></trkpt>
<trkpt lat="53.406791" lon="-1.902157"><ele>531</ele><time>2021-10-07T11:23:35Z</time><name>PT1987</name></trkpt>
<trkpt lat="53.406792" lon="-1.902150"><ele>532</ele><time>2021-10-07T11:23:36Z</time><name>PT1988</name></trkpt>
<trkpt lat="53.406791" lon="-1.902146"><ele>532</ele><time>2021-10-07T11:23:37Z</time><name>PT1989</name></trkpt>
<trkpt lat="53.406790" lon="-1.902142"><ele>532</ele><time>2021-10-07T11:23:38Z</time><name>PT1990</name></trkpt>
<trkpt lat="53.406791" lon="-1.902136"><ele>532</ele><time>2021-10-07T11:23:39Z</time><name>PT1991</name></trkpt>
<trkpt lat="53.406790" lon="-1.902129"><ele>532</ele><time>2021-10-07T11:23:40Z</time><name>PT1992</name></trkpt>
<trkpt lat="53.406789" lon="-1.902120"><ele>532</ele><time>2021-10-07T11:23:41Z</time><name>PT1993</name></trkpt>
<trkpt lat="53.406788" lon="-1.902112"><ele>533</ele><time>2021-10-07T11:23:42Z</time><name>PT1994</name></trkpt>
<trkpt lat="53.406787" lon="-1.902107"><ele>533</ele><time>2021-10-07T11:23:43Z</time><name>PT1995</name></trkpt>
<trkpt lat="53.406787" lon="-1.902104"><ele>533</ele><time>2021-10-07T11:23:44Z</time><name>PT1996</name></trkpt>
<trkpt lat="53.406787" lon="-1.902106"><ele>533</ele><time>2021-10-07T11:23:45Z</time><name>PT1997</name></trkpt>
<trkpt lat="53.406786" lon="-1.902104"><ele>533</ele><time>2021-10-07T11:23:46Z</time><name>PT1998</name></trkpt>
<trkpt lat="53.406783" lon="-1.902101"><ele>533</ele><time>2021-10-07T11:23:47Z</time><name>PT1999</name></trkpt>
<trkpt lat="53.406781" lon="-1.902100"><ele>533</ele><time>2021-10-07T11:23:48Z</time><name>PT2000</name></trkpt>
<trkpt lat="53.406782" lon="-1.902096"><ele>533</ele><time>2021-10-07T11:23:49Z</time><name>PT2001</name></trkpt>
<trkpt lat="53.406782" lon="-1.902090"><ele>534</ele><time>2021-10-07T11:23:50Z</time><name>PT2002</name></trkpt>
<trkpt lat="53.406782" lon="-1.902085"><ele>534</ele><time>2021-10-07T11:23:51Z</time><name>PT2003</name></trkpt>
<trkpt lat="53.406783" lon="-1.902078"><ele>534</ele><time>2021-10-07T11:23:52Z</time><name>PT2004</name></trkpt>
<trkpt lat="53.406787" lon="-1.902082"><ele>534</ele><time>2021-10-07T11:23:58Z</time><name>PT2005</name></trkpt>
<trkpt lat="53.406785" lon="-1.902073"><ele>534</ele><time>2021-10-07T11:23:59Z</time><name>PT2006</name></trkpt>
<trkpt lat="53.406782" lon="-1.902066"><ele>534</ele><time>2021-10-07T11:24:00Z</time><name>PT2007</name></trkpt>
<trkpt lat="53.406777" lon="-1.902052"><ele>535</ele><time>2021-10-07T11:24:01Z</time><name>PT2008</name></trkpt>
<trkpt lat="53.406774" lon="-1.902043"><ele>535</ele><time>2021-10-07T11:24:02Z</time><name>PT2009</name></trkpt>
<trkpt lat="53.406770" lon="-1.902032"><ele>535</ele><time>2021-10-07T11:24:03Z</time><name>PT2010</name></trkpt>
<trkpt lat="53.406767" lon="-1.902020"><ele>535</ele><time>2021-10-07T11:24:04Z</time><name>PT2011</name></trkpt>
<trkpt lat="53.406767" lon="-1.902014"><ele>535</ele><time>2021-10-07T11:24:05Z</time><name>PT2012</name></trkpt>
<trkpt lat="53.406767" lon="-1.902008"><ele>535</ele><time>2021-10-07T11:24:06Z</time><name>PT2013</name></trkpt>
<trkpt lat="53.406766" lon="-1.901999"><ele>535</ele><time>2021-10-07T11:24:07Z</time><name>PT2014</name></trkpt>
<trkpt lat="53.406766" lon="-1.901990"><ele>535</ele><time>2021-10-07T11:24:08Z</time><name>PT2015</name></trkpt>
<trkpt lat="53.406763" lon="-1.901981"><ele>535</ele><time>2021-10-07T11:24:09Z</time><name>PT2016</name></trkpt>
<trkpt lat="53.406762" lon="-1.901977"><ele>536</ele><time>2021-10-07T11:24:10Z</time><name>PT2017</name></trkpt>
<trkpt lat="53.406764" lon="-1.901972"><ele>536</ele><time>2021-10-07T11:24:11Z</time><name>PT2018</name></trkpt>
<trkpt lat="53.406763" lon="-1.901967"><ele>536</ele><time>2021-10-07T11:24:12Z</time><name>PT2019</name></trkpt>
<trkpt lat="53.406761" lon="-1.901959"><ele>536</ele><time>2021-10-07T11:24:16Z</time><name>PT2020</name></trkpt>
<trkpt lat="53.406762" lon="-1.901954"><ele>536</ele><time>2021-10-07T11:24:17Z</time><name>PT2021</name></trkpt>
<trkpt lat="53.406759" lon="-1.901949"><ele>536</ele><time>2021-10-07T11:24:18Z</time><name>PT2022</name></trkpt>
<trkpt lat="53.406760" lon="-1.901948"><ele>536</ele><time>2021-10-07T11:24:19Z</time><name>PT2023</name></trkpt>
<trkpt lat="53.406761" lon="-1.901943"><ele>537</ele><time>2021-10-07T11:24:20Z</time><name>PT2024</name></trkpt>
<trkpt lat="53.406762" lon="-1.901935"><ele>537</ele><time>2021-10-07T11:24:21Z</time><name>PT2025</name></trkpt>
<trkpt lat="53.406763" lon="-1.901929"><ele>537</ele><time>2021-10-07T11:24:22Z</time><name>PT2026</name></trkpt>
<trkpt lat="53.406757" lon="-1.901925"><ele>537</ele><time>2021-10-07T11:24:27Z</time><name>PT2027</name></trkpt>
<trkpt lat="53.406753" lon="-1.901916"><ele>537</ele><time>2021-10-07T11:24:28Z</time><name>PT2028</name></trkpt>
<trkpt lat="53.406752" lon="-1.901907"><ele>538</ele><time>2021-10-07T11:24:29Z</time><name>PT2029</name></trkpt>
<trkpt lat="53.406747" lon="-1.901897"><ele>538</ele><time>2021-10-07T11:24:30Z</time><name>PT2030</name></trkpt>
<trkpt lat="53.406743" lon="-1.901895"><ele>538</ele><time>2021-10-07T11:24:31Z</time><name>PT2031</name></trkpt>
<trkpt lat="53.406741" lon="-1.901888"><ele>538</ele><time>2021-10-07T11:24:32Z</time><name>PT2032</name></trkpt>
<trkpt lat="53.406737" lon="-1.901881"><ele>539</ele><time>2021-10-07T11:24:33Z</time><name>PT2033</name></trkpt>
<trkpt lat="53.406736" lon="-1.901873"><ele>539</ele><time>2021-10-07T11:24:34Z</time><name>PT2034</name></trkpt>
<trkpt lat="53.406737" lon="-1.901863"><ele>540</ele><time>2021-10-07T11:24:35Z</time><name>PT2035</name></trkpt>
<trkpt lat="53.406735" lon="-1.901865"><ele>541</ele><time>2021-10-07T11:24:36Z</time><name>PT2036</name></trkpt>
<trkpt lat="53.406734" lon="-1.901863"><ele>541</ele><time>2021-10-07T11:24:37Z</time><name>PT2037</name></trkpt>
<trkpt lat="53.406729" lon="-1.901855"><ele>540</ele><time>2021-10-07T11:24:38Z</time><name>PT2038</name></trkpt>
<trkpt lat="53.406726" lon="-1.901849"><ele>541</ele><time>2021-10-07T11:24:39Z</time><name>PT2039</name></trkpt>
<trkpt lat="53.406727" lon="-1.901836"><ele>541</ele><time>2021-10-07T11:24:41Z</time><name>PT2040</name></trkpt>
<trkpt lat="53.406725" lon="-1.901827"><ele>541</ele><time>2021-10-07T11:24:41Z</time><name>PT2041</name></trkpt>
<trkpt lat="53.406723" lon="-1.901821"><ele>541</ele><time>2021-10-07T11:24:42Z</time><name>PT2042</name></trkpt>
<trkpt lat="53.406722" lon="-1.901816"><ele>542</ele><time>2021-10-07T11:24:43Z</time><name>PT2043</name></trkpt>
<trkpt lat="53.406719" lon="-1.901812"><ele>542</ele><time>2021-10-07T11:24:44Z</time><name>PT2044</name></trkpt>
<trkpt lat="53.406715" lon="-1.901807"><ele>542</ele><time>2021-10-07T11:24:45Z</time><name>PT2045</name></trkpt>
<trkpt lat="53.406714" lon="-1.901804"><ele>542</ele><time>2021-10-07T11:24:46Z</time><name>PT2046</name></trkpt>
<trkpt lat="53.406709" lon="-1.901794"><ele>543</ele><time>2021-10-07T11:24:52Z</time><name>PT2047</name></trkpt>
<trkpt lat="53.406705" lon="-1.901794"><ele>543</ele><time>2021-10-07T11:24:53Z</time><name>PT2048</name></trkpt>
<trkpt lat="53.406702" lon="-1.901786"><ele>543</ele><time>2021-10-07T11:24:54Z</time><name>PT2049</name></trkpt>
<trkpt lat="53.406698" lon="-1.901782"><ele>543</ele><time>2021-10-07T11:24:55Z</time><name>PT2050</name></trkpt>
<trkpt lat="53.406695" lon="-1.901772"><ele>544</ele><time>2021-10-07T11:24:56Z</time><name>PT2051</name></trkpt>
<trkpt lat="53.406694" lon="-1.901770"><ele>544</ele><time>2021-10-07T11:24:58Z</time><name>PT2052</name></trkpt>
<trkpt lat="53.406693" lon="-1.901765"><ele>544</ele><time>2021-10-07T11:24:59Z</time><name>PT2053</name></trkpt>
<trkpt lat="53.406691" lon="-1.901760"><ele>544</ele><time>2021-10-07T11:25:00Z</time><name>PT2054</name></trkpt>
<trkpt lat="53.406689" lon="-1.901751"><ele>544</ele><time>2021-10-07T11:25:01Z</time><name>PT2055</name></trkpt>
<trkpt lat="53.406685" lon="-1.901744"><ele>545</ele><time>2021-10-07T11:25:02Z</time><name>PT2056</name></trkpt>
<trkpt lat="53.406684" lon="-1.901739"><ele>545</ele><time>2021-10-07T11:25:03Z</time><name>PT2057</name></trkpt>
<trkpt lat="53.406683" lon="-1.901734"><ele>545</ele><time>2021-10-07T11:25:04Z</time><name>PT2058</name></trkpt>
<trkpt lat="53.406684" lon="-1.901728"><ele>545</ele><time>2021-10-07T11:25:05Z</time><name>PT2059</name></trkpt>
<trkpt lat="53.406687" lon="-1.901713"><ele>546</ele><time>2021-10-07T11:25:08Z</time><name>PT2060</name></trkpt>
<trkpt lat="53.406692" lon="-1.901705"><ele>546</ele><time>2021-10-07T11:25:12Z</time><name>PT2061</name></trkpt>
<trkpt lat="53.406694" lon="-1.901687"><ele>547</ele><time>2021-10-07T11:25:15Z</time><name>PT2062</name></trkpt>
<trkpt lat="53.406692" lon="-1.901682"><ele>547</ele><time>2021-10-07T11:25:16Z</time><name>PT2063</name></trkpt>
<trkpt lat="53.406689" lon="-1.901675"><ele>547</ele><time>2021-10-07T11:25:17Z</time><name>PT2064</name></trkpt>
<trkpt lat="53.406687" lon="-1.901668"><ele>547</ele><time>2021-10-07T11:25:21Z</time><name>PT2065</name></trkpt>
<trkpt lat="53.406686" lon="-1.901662"><ele>548</ele><time>2021-10-07T11:25:22Z</time><name>PT2066</name></trkpt>
<trkpt lat="53.406682" lon="-1.901657"><ele>548</ele><time>2021-10-07T11:25:23Z</time><name>PT2067</name></trkpt>
<trkpt lat="53.406676" lon="-1.901653"><ele>548</ele><time>2021-10-07T11:25:24Z</time><name>PT2068</name></trkpt>
<trkpt lat="53.406673" lon="-1.901651"><ele>548</ele><time>2021-10-07T11:25:25Z</time><name>PT2069</name></trkpt>
<trkpt lat="53.406673" lon="-1.901644"><ele>548</ele><time>2021-10-07T11:25:26Z</time><name>PT2070</name></trkpt>
<trkpt lat="53.406673" lon="-1.901641"><ele>548</ele><time>2021-10-07T11:25:27Z</time><name>PT2071</name></trkpt>
<trkpt lat="53.406669" lon="-1.901641"><ele>548</ele><time>2021-10-07T11:25:28Z</time><name>PT2072</name></trkpt>
<trkpt lat="53.406668" lon="-1.901634"><ele>548</ele><time>2021-10-07T11:25:29Z</time><name>PT2073</name></trkpt>
<trkpt lat="53.406667" lon="-1.901632"><ele>548</ele><time>2021-10-07T11:25:30Z</time><name>PT2074</name></trkpt>
<trkpt lat="53.406664" lon="-1.901633"><ele>548</ele><time>2021-10-07T11:25:31Z</time><name>PT2075</name></trkpt>
<trkpt lat="53.406662" lon="-1.901630"><ele>548</ele><time>2021-10-07T11:25:32Z</time><name>PT2076</name></trkpt>
<trkpt lat="53.406660" lon="-1.901614"><ele>548</ele><time>2021-10-07T11:25:34Z</time><name>PT2077</name></trkpt>
<trkpt lat="53.406658" lon="-1.901608"><ele>548</ele><time>2021-10-07T11:25:35Z</time><name>PT2078</name></trkpt>
<trkpt lat="53.406659" lon="-1.901609"><ele>547</ele><time>2021-10-07T11:25:36Z</time><name>PT2079</name></trkpt>
<trkpt lat="53.406657" lon="-1.901608"><ele>547</ele><time>2021-10-07T11:25:37Z</time><name>PT2080</name></trkpt>
<trkpt lat="53.406653" lon="-1.901609"><ele>547</ele><time>2021-10-07T11:25:38Z</time><name>PT2081</name></trkpt>
<trkpt lat="53.406647" lon="-1.901607"><ele>548</ele><time>2021-10-07T11:25:39Z</time><name>PT2082</name></trkpt>
<trkpt lat="53.406645" lon="-1.901600"><ele>548</ele><time>2021-10-07T11:25:40Z</time><name>PT2083</name></trkpt>
<trkpt lat="53.406643" lon="-1.901596"><ele>548</ele><time>2021-10-07T11:25:41Z</time><name>PT2084</name></trkpt>
<trkpt lat="53.406641" lon="-1.901591"><ele>549</ele><time>2021-10-07T11:25:42Z</time><name>PT2085</name></trkpt>
<trkpt lat="53.406638" lon="-1.901584"><ele>548</ele><time>2021-10-07T11:25:43Z</time><name>PT2086</name></trkpt>
<trkpt lat="53.406636" lon="-1.901577"><ele>549</ele><time>2021-10-07T11:25:44Z</time><name>PT2087</name></trkpt>
<trkpt lat="53.406636" lon="-1.901573"><ele>549</ele><time>2021-10-07T11:25:45Z</time><name>PT2088</name></trkpt>
<trkpt lat="53.406636" lon="-1.901567"><ele>549</ele><time>2021-10-07T11:25:46Z</time><name>PT2089</name></trkpt>
<trkpt lat="53.406635" lon="-1.901560"><ele>549</ele><time>2021-10-07T11:25:47Z</time><name>PT2090</name></trkpt>
<trkpt lat="53.406632" lon="-1.901559"><ele>549</ele><time>2021-10-07T11:25:48Z</time><name>PT2091</name></trkpt>
<trkpt lat="53.406630" lon="-1.901556"><ele>549</ele><time>2021-10-07T11:25:49Z</time><name>PT2092</name></trkpt>
<trkpt lat="53.406627" lon="-1.901553"><ele>550</ele><time>2021-10-07T11:25:50Z</time><name>PT2093</name></trkpt>
<trkpt lat="53.406623" lon="-1.901544"><ele>550</ele><time>2021-10-07T11:25:53Z</time><name>PT2094</name></trkpt>
<trkpt lat="53.406622" lon="-1.901536"><ele>551</ele><time>2021-10-07T11:25:54Z</time><name>PT2095</name></trkpt>
<trkpt lat="53.406619" lon="-1.901533"><ele>551</ele><time>2021-10-07T11:25:55Z</time><name>PT2096</name></trkpt>
<trkpt lat="53.406617" lon="-1.901529"><ele>551</ele><time>2021-10-07T11:25:56Z</time><name>PT2097</name></trkpt>
<trkpt lat="53.406614" lon="-1.901526"><ele>551</ele><time>2021-10-07T11:25:57Z</time><name>PT2098</name></trkpt>
<trkpt lat="53.406609" lon="-1.901528"><ele>552</ele><time>2021-10-07T11:26:02Z</time><name>PT2099</name></trkpt>
<trkpt lat="53.406602" lon="-1.901525"><ele>553</ele><time>2021-10-07T11:26:03Z</time><name>PT2100</name></trkpt>
<trkpt lat="53.406599" lon="-1.901514"><ele>553</ele><time>2021-10-07T11:26:04Z</time><name>PT2101</name></trkpt>
<trkpt lat="53.406595" lon="-1.901503"><ele>553</ele><time>2021-10-07T11:26:05Z</time><name>PT2102</name></trkpt>
<trkpt lat="53.406588" lon="-1.901495"><ele>553</ele><time>2021-10-07T11:26:06Z</time><name>PT2103</name></trkpt>
<trkpt lat="53.406585" lon="-1.901490"><ele>554</ele><time>2021-10-07T11:26:07Z</time><name>PT2104</name></trkpt>
<trkpt lat="53.406582" lon="-1.901480"><ele>555</ele><time>2021-10-07T11:26:08Z</time><name>PT2105</name></trkpt>
<trkpt lat="53.406583" lon="-1.901469"><ele>555</ele><time>2021-10-07T11:26:09Z</time><name>PT2106</name></trkpt>
<trkpt lat="53.406580" lon="-1.901463"><ele>555</ele><time>2021-10-07T11:26:10Z</time><name>PT2107</name></trkpt>
<trkpt lat="53.406577" lon="-1.901455"><ele>555</ele><time>2021-10-07T11:26:11Z</time><name>PT2108</name></trkpt>
<trkpt lat="53.406574" lon="-1.901446"><ele>556</ele><time>2021-10-07T11:26:12Z</time><name>PT2109</name></trkpt>
<trkpt lat="53.406571" lon="-1.901442"><ele>556</ele><time>2021-10-07T11:26:13Z</time><name>PT2110</name></trkpt>
<trkpt lat="53.406566" lon="-1.901439"><ele>556</ele><time>2021-10-07T11:26:14Z</time><name>PT2111</name></trkpt>
<trkpt lat="53.406562" lon="-1.901435"><ele>556</ele><time>2021-10-07T11:26:15Z</time><name>PT2112</name></trkpt>
<trkpt lat="53.406561" lon="-1.901430"><ele>556</ele><time>2021-10-07T11:26:16Z</time><name>PT2113</name></trkpt>
<trkpt lat="53.406560" lon="-1.901426"><ele>556</ele><time>2021-10-07T11:26:17Z</time><name>PT2114</name></trkpt>
<trkpt lat="53.406557" lon="-1.901417"><ele>556</ele><time>2021-10-07T11:26:18Z</time><name>PT2115</name></trkpt>
<trkpt lat="53.406555" lon="-1.901411"><ele>556</ele><time>2021-10-07T11:26:19Z</time><name>PT2116</name></trkpt>
<trkpt lat="53.406554" lon="-1.901403"><ele>556</ele><time>2021-10-07T11:26:20Z</time><name>PT2117</name></trkpt>
<trkpt lat="53.406553" lon="-1.901399"><ele>556</ele><time>2021-10-07T11:26:21Z</time><name>PT2118</name></trkpt>
<trkpt lat="53.406552" lon="-1.901394"><ele>556</ele><time>2021-10-07T11:26:22Z</time><name>PT2119</name></trkpt>
<trkpt lat="53.406549" lon="-1.901390"><ele>556</ele><time>2021-10-07T11:26:23Z</time><name>PT2120</name></trkpt>
<trkpt lat="53.406545" lon="-1.901385"><ele>557</ele><time>2021-10-07T11:26:24Z</time><name>PT2121</name></trkpt>
<trkpt lat="53.406541" lon="-1.901383"><ele>557</ele><time>2021-10-07T11:26:25Z</time><name>PT2122</name></trkpt>
<trkpt lat="53.406537" lon="-1.901377"><ele>557</ele><time>2021-10-07T11:26:26Z</time><name>PT2123</name></trkpt>
<trkpt lat="53.406535" lon="-1.901374"><ele>557</ele><time>2021-10-07T11:26:27Z</time><name>PT2124</name></trkpt>
<trkpt lat="53.406534" lon="-1.901367"><ele>557</ele><time>2021-10-07T11:26:31Z</time><name>PT2125</name></trkpt>
<trkpt lat="53.406528" lon="-1.901356"><ele>558</ele><time>2021-10-07T11:26:32Z</time><name>PT2126</name></trkpt>
<trkpt lat="53.406528" lon="-1.901346"><ele>558</ele><time>2021-10-07T11:26:33Z</time><name>PT2127</name></trkpt>
<trkpt lat="53.406525" lon="-1.901340"><ele>557</ele><time>2021-10-07T11:26:34Z</time><name>PT2128</name></trkpt>
<trkpt lat="53.406521" lon="-1.901332"><ele>558</ele><time>2021-10-07T11:26:35Z</time><name>PT2129</name></trkpt>
<trkpt lat="53.406521" lon="-1.901326"><ele>558</ele><time>2021-10-07T11:26:36Z</time><name>PT2130</name></trkpt>
<trkpt lat="53.406515" lon="-1.901324"><ele>559</ele><time>2021-10-07T11:26:37Z</time><name>PT2131</name></trkpt>
<trkpt lat="53.406510" lon="-1.901321"><ele>559</ele><time>2021-10-07T11:26:38Z</time><name>PT2132</name></trkpt>
<trkpt lat="53.406503" lon="-1.901316"><ele>560</ele><time>2021-10-07T11:26:39Z</time><name>PT2133</name></trkpt>
<trkpt lat="53.406500" lon="-1.901308"><ele>560</ele><time>2021-10-07T11:26:40Z</time><name>PT2134</name></trkpt>
<trkpt lat="53.406495" lon="-1.901308"><ele>560</ele><time>2021-10-07T11:26:41Z</time><name>PT2135</name></trkpt>
<trkpt lat="53.406491" lon="-1.901305"><ele>561</ele><time>2021-10-07T11:26:42Z</time><name>PT2136</name></trkpt>
<trkpt lat="53.406486" lon="-1.901296"><ele>561</ele><time>2021-10-07T11:26:43Z</time><name>PT2137</name></trkpt>
<trkpt lat="53.406481" lon="-1.901282"><ele>561</ele><time>2021-10-07T11:26:44Z</time><name>PT2138</name></trkpt>
<trkpt lat="53.406479" lon="-1.901271"><ele>561</ele><time>2021-10-07T11:26:45Z</time><name>PT2139</name></trkpt>
<trkpt lat="53.406476" lon="-1.901264"><ele>562</ele><time>2021-10-07T11:26:46Z</time><name>PT2140</name></trkpt>
<trkpt lat="53.406473" lon="-1.901257"><ele>562</ele><time>2021-10-07T11:26:47Z</time><name>PT2141</name></trkpt>
<trkpt lat="53.406472" lon="-1.901250"><ele>562</ele><time>2021-10-07T11:26:48Z</time><name>PT2142</name></trkpt>
<trkpt lat="53.406471" lon="-1.901241"><ele>562</ele><time>2021-10-07T11:26:49Z</time><name>PT2143</name></trkpt>
<trkpt lat="53.406468" lon="-1.901235"><ele>562</ele><time>2021-10-07T11:26:50Z</time><name>PT2144</name></trkpt>
<trkpt lat="53.406460" lon="-1.901227"><ele>563</ele><time>2021-10-07T11:26:57Z</time><name>PT2145</name></trkpt>
<trkpt lat="53.406453" lon="-1.901218"><ele>563</ele><time>2021-10-07T11:26:58Z</time><name>PT2146</name></trkpt>
<trkpt lat="53.406444" lon="-1.901206"><ele>563</ele><time>2021-10-07T11:26:59Z</time><name>PT2147</name></trkpt>
<trkpt lat="53.406439" lon="-1.901197"><ele>563</ele><time>2021-10-07T11:27:00Z</time><name>PT2148</name></trkpt>
<trkpt lat="53.406436" lon="-1.901187"><ele>563</ele><time>2021-10-07T11:27:02Z</time><name>PT2149</name></trkpt>
<trkpt lat="53.406432" lon="-1.901178"><ele>563</ele><time>2021-10-07T11:27:02Z</time><name>PT2150</name></trkpt>
<trkpt lat="53.406428" lon="-1.901170"><ele>563</ele><time>2021-10-07T11:27:03Z</time><name>PT2151</name></trkpt>
<trkpt lat="53.406423" lon="-1.901162"><ele>563</ele><time>2021-10-07T11:27:05Z</time><name>PT2152</name></trkpt>
<trkpt lat="53.406420" lon="-1.901154"><ele>563</ele><time>2021-10-07T11:27:05Z</time><name>PT2153</name></trkpt>
<trkpt lat="53.406415" lon="-1.901151"><ele>563</ele><time>2021-10-07T11:27:06Z</time><name>PT2154</name></trkpt>
<trkpt lat="53.406409" lon="-1.901147"><ele>564</ele><time>2021-10-07T11:27:07Z</time><name>PT2155</name></trkpt>
<trkpt lat="53.406403" lon="-1.901136"><ele>564</ele><time>2021-10-07T11:27:08Z</time><name>PT2156</name></trkpt>
<trkpt lat="53.406402" lon="-1.901131"><ele>564</ele><time>2021-10-07T11:27:10Z</time><name>PT2157</name></trkpt>
<trkpt lat="53.406395" lon="-1.901126"><ele>564</ele><time>2021-10-07T11:27:11Z</time><name>PT2158</name></trkpt>
<trkpt lat="53.406389" lon="-1.901122"><ele>564</ele><time>2021-10-07T11:27:12Z</time><name>PT2159</name></trkpt>
<trkpt lat="53.406382" lon="-1.901118"><ele>565</ele><time>2021-10-07T11:27:13Z</time><name>PT2160</name></trkpt>
<trkpt lat="53.406376" lon="-1.901108"><ele>565</ele><time>2021-10-07T11:27:14Z</time><name>PT2161</name></trkpt>
<trkpt lat="53.406371" lon="-1.901106"><ele>565</ele><time>2021-10-07T11:27:15Z</time><name>PT2162</name></trkpt>
<trkpt lat="53.406363" lon="-1.901100"><ele>565</ele><time>2021-10-07T11:27:16Z</time><name>PT2163</name></trkpt>
<trkpt lat="53.406357" lon="-1.901094"><ele>565</ele><time>2021-10-07T11:27:17Z</time><name>PT2164</name></trkpt>
<trkpt lat="53.406350" lon="-1.901086"><ele>565</ele><time>2021-10-07T11:27:18Z</time><name>PT2165</name></trkpt>
<trkpt lat="53.406343" lon="-1.901080"><ele>565</ele><time>2021-10-07T11:27:19Z</time><name>PT2166</name></trkpt>
<trkpt lat="53.406336" lon="-1.901076"><ele>566</ele><time>2021-10-07T11:27:20Z</time><name>PT2167</name></trkpt>
<trkpt lat="53.406329" lon="-1.901072"><ele>565</ele><time>2021-10-07T11:27:21Z</time><name>PT2168</name></trkpt>
<trkpt lat="53.406321" lon="-1.901066"><ele>566</ele><time>2021-10-07T11:27:22Z</time><name>PT2169</name></trkpt>
<trkpt lat="53.406317" lon="-1.901059"><ele>566</ele><time>2021-10-07T11:27:23Z</time><name>PT2170</name></trkpt>
<trkpt lat="53.406312" lon="-1.901049"><ele>566</ele><time>2021-10-07T11:27:24Z</time><name>PT2171</name></trkpt>
<trkpt lat="53.406309" lon="-1.901045"><ele>566</ele><time>2021-10-07T11:27:25Z</time><name>PT2172</name></trkpt>
<trkpt lat="53.406303" lon="-1.901036"><ele>566</ele><time>2021-10-07T11:27:26Z</time><name>PT2173</name></trkpt>
<trkpt lat="53.406295" lon="-1.901028"><ele>567</ele><time>2021-10-07T11:27:28Z</time><name>PT2174</name></trkpt>
<trkpt lat="53.406290" lon="-1.901023"><ele>567</ele><time>2021-10-07T11:27:28Z</time><name>PT2175</name></trkpt>
<trkpt lat="53.406286" lon="-1.901017"><ele>568</ele><time>2021-10-07T11:27:29Z</time><name>PT2176</name></trkpt>
<trkpt lat="53.406280" lon="-1.901015"><ele>568</ele><time>2021-10-07T11:27:30Z</time><name>PT2177</name></trkpt>
<trkpt lat="53.406275" lon="-1.901009"><ele>568</ele><time>2021-10-07T11:27:31Z</time><name>PT2178</name></trkpt>
<trkpt lat="53.406269" lon="-1.901000"><ele>568</ele><time>2021-10-07T11:27:32Z</time><name>PT2179</name></trkpt>
<trkpt lat="53.406262" lon="-1.900993"><ele>568</ele><time>2021-10-07T11:27:33Z</time><name>PT2180</name></trkpt>
<trkpt lat="53.406254" lon="-1.900988"><ele>568</ele><time>2021-10-07T11:27:34Z</time><name>PT2181</name></trkpt>
<trkpt lat="53.406247" lon="-1.900981"><ele>568</ele><time>2021-10-07T11:27:35Z</time><name>PT2182</name></trkpt>
<trkpt lat="53.406238" lon="-1.900974"><ele>568</ele><time>2021-10-07T11:27:37Z</time><name>PT2183</name></trkpt>
<trkpt lat="53.406231" lon="-1.900966"><ele>568</ele><time>2021-10-07T11:27:37Z</time><name>PT2184</name></trkpt>
<trkpt lat="53.406224" lon="-1.900960"><ele>568</ele><time>2021-10-07T11:27:38Z</time><name>PT2185</name></trkpt>
<trkpt lat="53.406216" lon="-1.900953"><ele>568</ele><time>2021-10-07T11:27:39Z</time><name>PT2186</name></trkpt>
<trkpt lat="53.406212" lon="-1.900954"><ele>569</ele><time>2021-10-07T11:27:40Z</time><name>PT2187</name></trkpt>
<trkpt lat="53.406209" lon="-1.900953"><ele>568</ele><time>2021-10-07T11:27:41Z</time><name>PT2188</name></trkpt>
<trkpt lat="53.406209" lon="-1.900956"><ele>568</ele><time>2021-10-07T11:27:42Z</time><name>PT2189</name></trkpt>
<trkpt lat="53.406207" lon="-1.900955"><ele>569</ele><time>2021-10-07T11:27:43Z</time><name>PT2190</name></trkpt>
<trkpt lat="53.406199" lon="-1.900957"><ele>569</ele><time>2021-10-07T11:28:10Z</time><name>PT2191</name></trkpt>
<trkpt lat="53.406189" lon="-1.900956"><ele>570</ele><time>2021-10-07T11:28:11Z</time><name>PT2192</name></trkpt>
<trkpt lat="53.406187" lon="-1.900954"><ele>570</ele><time>2021-10-07T11:28:12Z</time><name>PT2193</name></trkpt>
<trkpt lat="53.406186" lon="-1.900953"><ele>570</ele><time>2021-10-07T11:28:13Z</time><name>PT2194</name></trkpt>
<trkpt lat="53.406185" lon="-1.900953"><ele>569</ele><time>2021-10-07T11:28:14Z</time><name>PT2195</name></trkpt>
<trkpt lat="53.406182" lon="-1.900952"><ele>570</ele><time>2021-10-07T11:28:44Z</time><name>PT2196</name></trkpt>
<trkpt lat="53.406173" lon="-1.900948"><ele>570</ele><time>2021-10-07T11:28:45Z</time><name>PT2197</name></trkpt>
<trkpt lat="53.406160" lon="-1.900943"><ele>570</ele><time>2021-10-07T11:28:46Z</time><name>PT2198</name></trkpt>
<trkpt lat="53.406147" lon="-1.900941"><ele>570</ele><time>2021-10-07T11:28:47Z</time><name>PT2199</name></trkpt>
<trkpt lat="53.406141" lon="-1.900932"><ele>570</ele><time>2021-10-07T11:28:48Z</time><name>PT2200</name></trkpt>
<trkpt lat="53.406133" lon="-1.900926"><ele>569</ele><time>2021-10-07T11:28:49Z</time><name>PT2201</name></trkpt>
<trkpt lat="53.406123" lon="-1.900919"><ele>570</ele><time>2021-10-07T11:28:51Z</time><name>PT2202</name></trkpt>
<trkpt lat="53.406115" lon="-1.900911"><ele>570</ele><time>2021-10-07T11:28:51Z</time><name>PT2203</name></trkpt>
<trkpt lat="53.406107" lon="-1.900906"><ele>570</ele><time>2021-10-07T11:28:52Z</time><name>PT2204</name></trkpt>
<trkpt lat="53.406101" lon="-1.900900"><ele>570</ele><time>2021-10-07T11:28:53Z</time><name>PT2205</name></trkpt>
<trkpt lat="53.406092" lon="-1.900892"><ele>570</ele><time>2021-10-07T11:28:54Z</time><name>PT2206</name></trkpt>
<trkpt lat="53.406057" lon="-1.900890"><ele>570</ele><time>2021-10-07T11:28:57Z</time><name>PT2207</name></trkpt>
<trkpt lat="53.406015" lon="-1.900878"><ele>569</ele><time>2021-10-07T11:29:01Z</time><name>PT2208</name></trkpt>
<trkpt lat="53.405981" lon="-1.900850"><ele>570</ele><time>2021-10-07T11:29:05Z</time><name>PT2209</name></trkpt>
<trkpt lat="53.405945" lon="-1.900832"><ele>570</ele><time>2021-10-07T11:29:09Z</time><name>PT2210</name></trkpt>
<trkpt lat="53.405919" lon="-1.900814"><ele>570</ele><time>2021-10-07T11:29:12Z</time><name>PT2211</name></trkpt>
<trkpt lat="53.405878" lon="-1.900786"><ele>571</ele><time>2021-10-07T11:29:16Z</time><name>PT2212</name></trkpt>
<trkpt lat="53.405843" lon="-1.900741"><ele>572</ele><time>2021-10-07T11:29:20Z</time><name>PT2213</name></trkpt>
<trkpt lat="53.405796" lon="-1.900716"><ele>572</ele><time>2021-10-07T11:29:24Z</time><name>PT2214</name></trkpt>
<trkpt lat="53.405767" lon="-1.900701"><ele>572</ele><time>2021-10-07T11:29:27Z</time><name>PT2215</name></trkpt>
<trkpt lat="53.405730" lon="-1.900698"><ele>573</ele><time>2021-10-07T11:29:31Z</time><name>PT2216</name></trkpt>
<trkpt lat="53.405690" lon="-1.900700"><ele>573</ele><time>2021-10-07T11:29:35Z</time><name>PT2217</name></trkpt>
<trkpt lat="53.405657" lon="-1.900698"><ele>573</ele><time>2021-10-07T11:29:39Z</time><name>PT2218</name></trkpt>
<trkpt lat="53.405617" lon="-1.900695"><ele>574</ele><time>2021-10-07T11:29:43Z</time><name>PT2219</name></trkpt>
<trkpt lat="53.405576" lon="-1.900681"><ele>574</ele><time>2021-10-07T11:29:48Z</time><name>PT2220</name></trkpt>
<trkpt lat="53.405541" lon="-1.900668"><ele>574</ele><time>2021-10-07T11:29:51Z</time><name>PT2221</name></trkpt>
<trkpt lat="53.405510" lon="-1.900661"><ele>575</ele><time>2021-10-07T11:29:55Z</time><name>PT2222</name></trkpt>
<trkpt lat="53.405470" lon="-1.900657"><ele>575</ele><time>2021-10-07T11:29:58Z</time><name>PT2223</name></trkpt>
<trkpt lat="53.405437" lon="-1.900640"><ele>576</ele><time>2021-10-07T11:30:02Z</time><name>PT2224</name></trkpt>
<trkpt lat="53.405411" lon="-1.900633"><ele>576</ele><time>2021-10-07T11:30:05Z</time><name>PT2225</name></trkpt>
<trkpt lat="53.405370" lon="-1.900630"><ele>575</ele><time>2021-10-07T11:30:09Z</time><name>PT2226</name></trkpt>
<trkpt lat="53.405343" lon="-1.900614"><ele>576</ele><time>2021-10-07T11:30:13Z</time><name>PT2227</name></trkpt>
<trkpt lat="53.405304" lon="-1.900590"><ele>576</ele><time>2021-10-07T11:30:16Z</time><name>PT2228</name></trkpt>
<trkpt lat="53.405276" lon="-1.900570"><ele>576</ele><time>2021-10-07T11:30:19Z</time><name>PT2229</name></trkpt>
<trkpt lat="53.405243" lon="-1.900539"><ele>576</ele><time>2021-10-07T11:30:23Z</time><name>PT2230</name></trkpt>
<trkpt lat="53.405206" lon="-1.900516"><ele>577</ele><time>2021-10-07T11:30:27Z</time><name>PT2231</name></trkpt>
<trkpt lat="53.405174" lon="-1.900508"><ele>578</ele><time>2021-10-07T11:30:31Z</time><name>PT2232</name></trkpt>
<trkpt lat="53.405147" lon="-1.900498"><ele>579</ele><time>2021-10-07T11:30:35Z</time><name>PT2233</name></trkpt>
<trkpt lat="53.405119" lon="-1.900490"><ele>578</ele><time>2021-10-07T11:30:39Z</time><name>PT2234</name></trkpt>
<trkpt lat="53.405095" lon="-1.900482"><ele>579</ele><time>2021-10-07T11:30:43Z</time><name>PT2235</name></trkpt>
<trkpt lat="53.405059" lon="-1.900478"><ele>580</ele><time>2021-10-07T11:30:47Z</time><name>PT2236</name></trkpt>
<trkpt lat="53.405022" lon="-1.900490"><ele>581</ele><time>2021-10-07T11:30:51Z</time><name>PT2237</name></trkpt>
<trkpt lat="53.404994" lon="-1.900480"><ele>580</ele><time>2021-10-07T11:30:55Z</time><name>PT2238</name></trkpt>
<trkpt lat="53.404961" lon="-1.900483"><ele>580</ele><time>2021-10-07T11:30:59Z</time><name>PT2239</name></trkpt>
<trkpt lat="53.404928" lon="-1.900472"><ele>580</ele><time>2021-10-07T11:31:03Z</time><name>PT2240</name></trkpt>
<trkpt lat="53.404897" lon="-1.900456"><ele>580</ele><time>2021-10-07T11:31:07Z</time><name>PT2241</name></trkpt>
<trkpt lat="53.404873" lon="-1.900456"><ele>580</ele><time>2021-10-07T11:31:10Z</time><name>PT2242</name></trkpt>
<trkpt lat="53.404840" lon="-1.900462"><ele>581</ele><time>2021-10-07T11:31:14Z</time><name>PT2243</name></trkpt>
<trkpt lat="53.404812" lon="-1.900456"><ele>582</ele><time>2021-10-07T11:31:18Z</time><name>PT2244</name></trkpt>
<trkpt lat="53.404787" lon="-1.900450"><ele>583</ele><time>2021-10-07T11:31:22Z</time><name>PT2245</name></trkpt>
<trkpt lat="53.404754" lon="-1.900450"><ele>583</ele><time>2021-10-07T11:31:26Z</time><name>PT2246</name></trkpt>
<trkpt lat="53.404729" lon="-1.900452"><ele>584</ele><time>2021-10-07T11:31:30Z</time><name>PT2247</name></trkpt>
<trkpt lat="53.404709" lon="-1.900444"><ele>585</ele><time>2021-10-07T11:31:34Z</time><name>PT2248</name></trkpt>
<trkpt lat="53.404684" lon="-1.900430"><ele>586</ele><time>2021-10-07T11:31:37Z</time><name>PT2249</name></trkpt>
<trkpt lat="53.404652" lon="-1.900426"><ele>586</ele><time>2021-10-07T11:31:41Z</time><name>PT2250</name></trkpt>
<trkpt lat="53.404623" lon="-1.900421"><ele>587</ele><time>2021-10-07T11:31:45Z</time><name>PT2251</name></trkpt>
<trkpt lat="53.404595" lon="-1.900425"><ele>587</ele><time>2021-10-07T11:31:48Z</time><name>PT2252</name></trkpt>
<trkpt lat="53.404557" lon="-1.900422"><ele>588</ele><time>2021-10-07T11:31:52Z</time><name>PT2253</name></trkpt>
<trkpt lat="53.404513" lon="-1.900419"><ele>589</ele><time>2021-10-07T11:31:56Z</time><name>PT2254</name></trkpt>
<trkpt lat="53.404476" lon="-1.900407"><ele>589</ele><time>2021-10-07T11:32:00Z</time><name>PT2255</name></trkpt>
<trkpt lat="53.404452" lon="-1.900379"><ele>590</ele><time>2021-10-07T11:32:04Z</time><name>PT2256</name></trkpt>
<trkpt lat="53.404422" lon="-1.900344"><ele>590</ele><time>2021-10-07T11:32:08Z</time><name>PT2257</name></trkpt>
<trkpt lat="53.404400" lon="-1.900325"><ele>590</ele><time>2021-10-07T11:32:11Z</time><name>PT2258</name></trkpt>
<trkpt lat="53.404375" lon="-1.900302"><ele>589</ele><time>2021-10-07T11:32:16Z</time><name>PT2259</name></trkpt>
<trkpt lat="53.404370" lon="-1.900289"><ele>590</ele><time>2021-10-07T11:32:17Z</time><name>PT2260</name></trkpt>
<trkpt lat="53.404365" lon="-1.900281"><ele>590</ele><time>2021-10-07T11:32:17Z</time><name>PT2261</name></trkpt>
<trkpt lat="53.404358" lon="-1.900271"><ele>590</ele><time>2021-10-07T11:32:18Z</time><name>PT2262</name></trkpt>
<trkpt lat="53.404350" lon="-1.900260"><ele>591</ele><time>2021-10-07T11:32:19Z</time><name>PT2263</name></trkpt>
<trkpt lat="53.404340" lon="-1.900255"><ele>590</ele><time>2021-10-07T11:32:20Z</time><name>PT2264</name></trkpt>
<trkpt lat="53.404332" lon="-1.900247"><ele>590</ele><time>2021-10-07T11:32:22Z</time><name>PT2265</name></trkpt>
<trkpt lat="53.404326" lon="-1.900237"><ele>590</ele><time>2021-10-07T11:32:22Z</time><name>PT2266</name></trkpt>
<trkpt lat="53.404320" lon="-1.900230"><ele>590</ele><time>2021-10-07T11:32:23Z</time><name>PT2267</name></trkpt>
<trkpt lat="53.404310" lon="-1.900223"><ele>590</ele><time>2021-10-07T11:32:25Z</time><name>PT2268</name></trkpt>
<trkpt lat="53.404301" lon="-1.900216"><ele>591</ele><time>2021-10-07T11:32:25Z</time><name>PT2269</name></trkpt>
<trkpt lat="53.404286" lon="-1.900209"><ele>591</ele><time>2021-10-07T11:32:26Z</time><name>PT2270</name></trkpt>
<trkpt lat="53.404276" lon="-1.900204"><ele>591</ele><time>2021-10-07T11:32:27Z</time><name>PT2271</name></trkpt>
<trkpt lat="53.404271" lon="-1.900197"><ele>591</ele><time>2021-10-07T11:32:28Z</time><name>PT2272</name></trkpt>
<trkpt lat="53.404267" lon="-1.900188"><ele>592</ele><time>2021-10-07T11:32:30Z</time><name>PT2273</name></trkpt>
<trkpt lat="53.404262" lon="-1.900182"><ele>591</ele><time>2021-10-07T11:32:30Z</time><name>PT2274</name></trkpt>
<trkpt lat="53.404255" lon="-1.900173"><ele>591</ele><time>2021-10-07T11:32:31Z</time><name>PT2275</name></trkpt>
<trkpt lat="53.404246" lon="-1.900167"><ele>592</ele><time>2021-10-07T11:32:33Z</time><name>PT2276</name></trkpt>
<trkpt lat="53.404240" lon="-1.900162"><ele>592</ele><time>2021-10-07T11:32:34Z</time><name>PT2277</name></trkpt>
<trkpt lat="53.404236" lon="-1.900156"><ele>592</ele><time>2021-10-07T11:32:35Z</time><name>PT2278</name></trkpt>
<trkpt lat="53.404230" lon="-1.900149"><ele>592</ele><time>2021-10-07T11:32:35Z</time><name>PT2279</name></trkpt>
<trkpt lat="53.404225" lon="-1.900144"><ele>592</ele><time>2021-10-07T11:32:36Z</time><name>PT2280</name></trkpt>
<trkpt lat="53.404220" lon="-1.900139"><ele>592</ele><time>2021-10-07T11:32:37Z</time><name>PT2281</name></trkpt>
<trkpt lat="53.404212" lon="-1.900130"><ele>592</ele><time>2021-10-07T11:32:38Z</time><name>PT2282</name></trkpt>
<trkpt lat="53.404207" lon="-1.900119"><ele>592</ele><time>2021-10-07T11:32:40Z</time><name>PT2283</name></trkpt>
<trkpt lat="53.404202" lon="-1.900111"><ele>592</ele><time>2021-10-07T11:32:40Z</time><name>PT2284</name></trkpt>
<trkpt lat="53.404200" lon="-1.900102"><ele>592</ele><time>2021-10-07T11:32:41Z</time><name>PT2285</name></trkpt>
<trkpt lat="53.404198" lon="-1.900100"><ele>592</ele><time>2021-10-07T11:32:43Z</time><name>PT2286</name></trkpt>
<trkpt lat="53.404198" lon="-1.900099"><ele>592</ele><time>2021-10-07T11:32:43Z</time><name>PT2287</name></trkpt>
<trkpt lat="53.404199" lon="-1.900099"><ele>593</ele><time>2021-10-07T11:32:44Z</time><name>PT2288</name></trkpt>
<trkpt lat="53.404201" lon="-1.900097"><ele>593</ele><time>2021-10-07T11:32:45Z</time><name>PT2289</name></trkpt>
<trkpt lat="53.404203" lon="-1.900093"><ele>593</ele><time>2021-10-07T11:32:46Z</time><name>PT2290</name></trkpt>
<trkpt lat="53.404206" lon="-1.900084"><ele>593</ele><time>2021-10-07T11:32:47Z</time><name>PT2291</name></trkpt>
<trkpt lat="53.404209" lon="-1.900080"><ele>593</ele><time>2021-10-07T11:32:49Z</time><name>PT2292</name></trkpt>
<trkpt lat="53.404212" lon="-1.900077"><ele>593</ele><time>2021-10-07T11:32:50Z</time><name>PT2293</name></trkpt>
<trkpt lat="53.404214" lon="-1.900074"><ele>593</ele><time>2021-10-07T11:32:50Z</time><name>PT2294</name></trkpt>
<trkpt lat="53.404214" lon="-1.900070"><ele>593</ele><time>2021-10-07T11:32:51Z</time><name>PT2295</name></trkpt>
<trkpt lat="53.404214" lon="-1.900064"><ele>593</ele><time>2021-10-07T11:32:52Z</time><name>PT2296</name></trkpt>
<trkpt lat="53.404211" lon="-1.900057"><ele>593</ele><time>2021-10-07T11:32:54Z</time><name>PT2297</name></trkpt>
<trkpt lat="53.404206" lon="-1.900053"><ele>593</ele><time>2021-10-07T11:32:54Z</time><name>PT2298</name></trkpt>
<trkpt lat="53.404203" lon="-1.900047"><ele>593</ele><time>2021-10-07T11:32:55Z</time><name>PT2299</name></trkpt>
<trkpt lat="53.404199" lon="-1.900037"><ele>593</ele><time>2021-10-07T11:32:57Z</time><name>PT2300</name></trkpt>
<trkpt lat="53.404197" lon="-1.900029"><ele>594</ele><time>2021-10-07T11:32:57Z</time><name>PT2301</name></trkpt>
<trkpt lat="53.404195" lon="-1.900020"><ele>594</ele><time>2021-10-07T11:32:58Z</time><name>PT2302</name></trkpt>
<trkpt lat="53.404197" lon="-1.900008"><ele>594</ele><time>2021-10-07T11:32:59Z</time><name>PT2303</name></trkpt>
<trkpt lat="53.404201" lon="-1.899998"><ele>594</ele><time>2021-10-07T11:33:00Z</time><name>PT2304</name></trkpt>
<trkpt lat="53.404208" lon="-1.899986"><ele>595</ele><time>2021-10-07T11:33:01Z</time><name>PT2305</name></trkpt>
<trkpt lat="53.404213" lon="-1.899974"><ele>595</ele><time>2021-10-07T11:33:02Z</time><name>PT2306</name></trkpt>
<trkpt lat="53.404219" lon="-1.899963"><ele>595</ele><time>2021-10-07T11:33:03Z</time><name>PT2307</name></trkpt>
<trkpt lat="53.404226" lon="-1.899953"><ele>595</ele><time>2021-10-07T11:33:04Z</time><name>PT2308</name></trkpt>
<trkpt lat="53.404234" lon="-1.899946"><ele>595</ele><time>2021-10-07T11:33:05Z</time><name>PT2309</name></trkpt>
<trkpt lat="53.404241" lon="-1.899945"><ele>595</ele><time>2021-10-07T11:33:06Z</time><name>PT2310</name></trkpt>
<trkpt lat="53.404246" lon="-1.899944"><ele>595</ele><time>2021-10-07T11:33:07Z</time><name>PT2311</name></trkpt>
<trkpt lat="53.404253" lon="-1.899943"><ele>594</ele><time>2021-10-07T11:33:08Z</time><name>PT2312</name></trkpt>
<trkpt lat="53.404259" lon="-1.899940"><ele>595</ele><time>2021-10-07T11:33:09Z</time><name>PT2313</name></trkpt>
<trkpt lat="53.404266" lon="-1.899930"><ele>595</ele><time>2021-10-07T11:33:10Z</time><name>PT2314</name></trkpt>
<trkpt lat="53.404275" lon="-1.899920"><ele>595</ele><time>2021-10-07T11:33:11Z</time><name>PT2315</name></trkpt>
<trkpt lat="53.404281" lon="-1.899916"><ele>595</ele><time>2021-10-07T11:33:12Z</time><name>PT2316</name></trkpt>
<trkpt lat="53.404286" lon="-1.899917"><ele>595</ele><time>2021-10-07T11:33:13Z</time><name>PT2317</name></trkpt>
<trkpt lat="53.404288" lon="-1.899917"><ele>595</ele><time>2021-10-07T11:33:14Z</time><name>PT2318</name></trkpt>
<trkpt lat="53.404295" lon="-1.899915"><ele>595</ele><time>2021-10-07T11:33:15Z</time><name>PT2319</name></trkpt>
<trkpt lat="53.404304" lon="-1.899918"><ele>595</ele><time>2021-10-07T11:33:16Z</time><name>PT2320</name></trkpt>
<trkpt lat="53.404312" lon="-1.899919"><ele>595</ele><time>2021-10-07T11:33:17Z</time><name>PT2321</name></trkpt>
<trkpt lat="53.404322" lon="-1.899924"><ele>595</ele><time>2021-10-07T11:33:18Z</time><name>PT2322</name></trkpt>
<trkpt lat="53.404329" lon="-1.899925"><ele>595</ele><time>2021-10-07T11:33:19Z</time><name>PT2323</name></trkpt>
<trkpt lat="53.404336" lon="-1.899923"><ele>595</ele><time>2021-10-07T11:33:20Z</time><name>PT2324</name></trkpt>
<trkpt lat="53.404347" lon="-1.899919"><ele>595</ele><time>2021-10-07T11:33:21Z</time><name>PT2325</name></trkpt>
<trkpt lat="53.404353" lon="-1.899917"><ele>594</ele><time>2021-10-07T11:33:22Z</time><name>PT2326</name></trkpt>
<trkpt lat="53.404359" lon="-1.899914"><ele>594</ele><time>2021-10-07T11:33:23Z</time><name>PT2327</name></trkpt>
<trkpt lat="53.404365" lon="-1.899910"><ele>594</ele><time>2021-10-07T11:33:24Z</time><name>PT2328</name></trkpt>
<trkpt lat="53.404373" lon="-1.899914"><ele>594</ele><time>2021-10-07T11:33:25Z</time><name>PT2329</name></trkpt>
<trkpt lat="53.404382" lon="-1.899915"><ele>594</ele><time>2021-10-07T11:33:26Z</time><name>PT2330</name></trkpt>
<trkpt lat="53.404389" lon="-1.899915"><ele>594</ele><time>2021-10-07T11:33:27Z</time><name>PT2331</name></trkpt>
<trkpt lat="53.404396" lon="-1.899916"><ele>594</ele><time>2021-10-07T11:33:28Z</time><name>PT2332</name></trkpt>
<trkpt lat="53.404404" lon="-1.899916"><ele>594</ele><time>2021-10-07T11:33:29Z</time><name>PT2333</name></trkpt>
<trkpt lat="53.404406" lon="-1.899916"><ele>594</ele><time>2021-10-07T11:33:30Z</time><name>PT2334</name></trkpt>
<trkpt lat="53.404410" lon="-1.899915"><ele>595</ele><time>2021-10-07T11:33:31Z</time><name>PT2335</name></trkpt>
<trkpt lat="53.404416" lon="-1.899913"><ele>595</ele><time>2021-10-07T11:33:32Z</time><name>PT2336</name></trkpt>
<trkpt lat="53.404420" lon="-1.899910"><ele>595</ele><time>2021-10-07T11:33:33Z</time><name>PT2337</name></trkpt>
<trkpt lat="53.404425" lon="-1.899906"><ele>595</ele><time>2021-10-07T11:33:34Z</time><name>PT2338</name></trkpt>
<trkpt lat="53.404431" lon="-1.899906"><ele>595</ele><time>2021-10-07T11:33:35Z</time><name>PT2339</name></trkpt>
<trkpt lat="53.404440" lon="-1.899909"><ele>596</ele><time>2021-10-07T11:33:36Z</time><name>PT2340</name></trkpt>
<trkpt lat="53.404445" lon="-1.899911"><ele>596</ele><time>2021-10-07T11:33:37Z</time><name>PT2341</name></trkpt>
<trkpt lat="53.404454" lon="-1.899915"><ele>596</ele><time>2021-10-07T11:33:38Z</time><name>PT2342</name></trkpt>
<trkpt lat="53.404462" lon="-1.899917"><ele>596</ele><time>2021-10-07T11:33:39Z</time><name>PT2343</name></trkpt>
<trkpt lat="53.404466" lon="-1.899918"><ele>596</ele><time>2021-10-07T11:33:40Z</time><name>PT2344</name></trkpt>
<trkpt lat="53.404470" lon="-1.899912"><ele>596</ele><time>2021-10-07T11:33:41Z</time><name>PT2345</name></trkpt>
<trkpt lat="53.404474" lon="-1.899907"><ele>596</ele><time>2021-10-07T11:33:42Z</time><name>PT2346</name></trkpt>
<trkpt lat="53.404479" lon="-1.899906"><ele>596</ele><time>2021-10-07T11:33:43Z</time><name>PT2347</name></trkpt>
<trkpt lat="53.404487" lon="-1.899902"><ele>596</ele><time>2021-10-07T11:33:44Z</time><name>PT2348</name></trkpt>
<trkpt lat="53.404496" lon="-1.899899"><ele>596</ele><time>2021-10-07T11:33:45Z</time><name>PT2349</name></trkpt>
<trkpt lat="53.404503" lon="-1.899893"><ele>596</ele><time>2021-10-07T11:33:46Z</time><name>PT2350</name></trkpt>
<trkpt lat="53.404510" lon="-1.899886"><ele>596</ele><time>2021-10-07T11:33:47Z</time><name>PT2351</name></trkpt>
<trkpt lat="53.404516" lon="-1.899883"><ele>596</ele><time>2021-10-07T11:33:48Z</time><name>PT2352</name></trkpt>
<trkpt lat="53.404522" lon="-1.899883"><ele>596</ele><time>2021-10-07T11:33:50Z</time><name>PT2353</name></trkpt>
<trkpt lat="53.404530" lon="-1.899880"><ele>596</ele><time>2021-10-07T11:33:50Z</time><name>PT2354</name></trkpt>
<trkpt lat="53.404536" lon="-1.899878"><ele>596</ele><time>2021-10-07T11:33:51Z</time><name>PT2355</name></trkpt>
<trkpt lat="53.404542" lon="-1.899868"><ele>595</ele><time>2021-10-07T11:33:52Z</time><name>PT2356</name></trkpt>
<trkpt lat="53.404544" lon="-1.899856"><ele>595</ele><time>2021-10-07T11:33:53Z</time><name>PT2357</name></trkpt>
<trkpt lat="53.404545" lon="-1.899843"><ele>595</ele><time>2021-10-07T11:33:54Z</time><name>PT2358</name></trkpt>
<trkpt lat="53.404546" lon="-1.899834"><ele>595</ele><time>2021-10-07T11:33:55Z</time><name>PT2359</name></trkpt>
<trkpt lat="53.404548" lon="-1.899829"><ele>595</ele><time>2021-10-07T11:33:56Z</time><name>PT2360</name></trkpt>
<trkpt lat="53.404548" lon="-1.899828"><ele>595</ele><time>2021-10-07T11:33:57Z</time><name>PT2361</name></trkpt>
<trkpt lat="53.404550" lon="-1.899827"><ele>596</ele><time>2021-10-07T11:33:58Z</time><name>PT2362</name></trkpt>
<trkpt lat="53.404550" lon="-1.899839"><ele>596</ele><time>2021-10-07T11:34:02Z</time><name>PT2363</name></trkpt>
<trkpt lat="53.404546" lon="-1.899852"><ele>596</ele><time>2021-10-07T11:34:03Z</time><name>PT2364</name></trkpt>
<trkpt lat="53.404542" lon="-1.899852"><ele>596</ele><time>2021-10-07T11:34:04Z</time><name>PT2365</name></trkpt>
<trkpt lat="53.404544" lon="-1.899860"><ele>596</ele><time>2021-10-07T11:34:05Z</time><name>PT2366</name></trkpt>
<trkpt lat="53.404543" lon="-1.899861"><ele>596</ele><time>2021-10-07T11:34:06Z</time><name>PT2367</name></trkpt>
<trkpt lat="53.404540" lon="-1.899865"><ele>595</ele><time>2021-10-07T11:34:07Z</time><name>PT2368</name></trkpt>
<trkpt lat="53.404536" lon="-1.899869"><ele>595</ele><time>2021-10-07T11:34:08Z</time><name>PT2369</name></trkpt>
<trkpt lat="53.404535" lon="-1.899869"><ele>595</ele><time>2021-10-07T11:34:09Z</time><name>PT2370</name></trkpt>
<trkpt lat="53.404533" lon="-1.899869"><ele>595</ele><time>2021-10-07T11:34:11Z</time><name>PT2371</name></trkpt>
<trkpt lat="53.404533" lon="-1.899868"><ele>595</ele><time>2021-10-07T11:34:11Z</time><name>PT2372</name></trkpt>
<trkpt lat="53.404533" lon="-1.899867"><ele>595</ele><time>2021-10-07T11:34:50Z</time><name>PT2373</name></trkpt>
<trkpt lat="53.404531" lon="-1.899864"><ele>595</ele><time>2021-10-07T11:34:50Z</time><name>PT2374</name></trkpt>
<trkpt lat="53.404529" lon="-1.899865"><ele>596</ele><time>2021-10-07T11:34:51Z</time><name>PT2375</name></trkpt>
<trkpt lat="53.404530" lon="-1.899862"><ele>596</ele><time>2021-10-07T11:34:57Z</time><name>PT2376</name></trkpt>
<trkpt lat="53.404530" lon="-1.899848"><ele>596</ele><time>2021-10-07T11:34:58Z</time><name>PT2377</name></trkpt>
<trkpt lat="53.404534" lon="-1.899843"><ele>596</ele><time>2021-10-07T11:34:59Z</time><name>PT2378</name></trkpt>
<trkpt lat="53.404553" lon="-1.899866"><ele>596</ele><time>2021-10-07T11:35:00Z</time><name>PT2379</name></trkpt>
<trkpt lat="53.404554" lon="-1.899866"><ele>596</ele><time>2021-10-07T11:35:01Z</time><name>PT2380</name></trkpt>
<trkpt lat="53.404553" lon="-1.899861"><ele>595</ele><time>2021-10-07T11:35:11Z</time><name>PT2381</name></trkpt>
<trkpt lat="53.404550" lon="-1.899849"><ele>595</ele><time>2021-10-07T11:35:12Z</time><name>PT2382</name></trkpt>
<trkpt lat="53.404550" lon="-1.899841"><ele>596</ele><time>2021-10-07T11:35:13Z</time><name>PT2383</name></trkpt>
<trkpt lat="53.404548" lon="-1.899837"><ele>595</ele><time>2021-10-07T11:35:15Z</time><name>PT2384</name></trkpt>
<trkpt lat="53.404548" lon="-1.899834"><ele>595</ele><time>2021-10-07T11:35:15Z</time><name>PT2385</name></trkpt>
<trkpt lat="53.404550" lon="-1.899830"><ele>595</ele><time>2021-10-07T11:35:16Z</time><name>PT2386</name></trkpt>
<trkpt lat="53.404553" lon="-1.899833"><ele>595</ele><time>2021-10-07T11:35:21Z</time><name>PT2387</name></trkpt>
<trkpt lat="53.404552" lon="-1.899836"><ele>595</ele><time>2021-10-07T11:35:22Z</time><name>PT2388</name></trkpt>
<trkpt lat="53.404549" lon="-1.899836"><ele>596</ele><time>2021-10-07T11:35:23Z</time><name>PT2389</name></trkpt>
<trkpt lat="53.404545" lon="-1.899834"><ele>596</ele><time>2021-10-07T11:35:24Z</time><name>PT2390</name></trkpt>
<trkpt lat="53.404544" lon="-1.899833"><ele>595</ele><time>2021-10-07T11:35:54Z</time><name>PT2391</name></trkpt>
<trkpt lat="53.404542" lon="-1.899831"><ele>595</ele><time>2021-10-07T11:35:55Z</time><name>PT2392</name></trkpt>
<trkpt lat="53.404539" lon="-1.899828"><ele>595</ele><time>2021-10-07T11:36:07Z</time><name>PT2393</name></trkpt>
<trkpt lat="53.404542" lon="-1.899829"><ele>596</ele><time>2021-10-07T11:36:08Z</time><name>PT2394</name></trkpt>
<trkpt lat="53.404546" lon="-1.899829"><ele>596</ele><time>2021-10-07T11:36:09Z</time><name>PT2395</name></trkpt>
<trkpt lat="53.404541" lon="-1.899825"><ele>596</ele><time>2021-10-07T11:36:21Z</time><name>PT2396</name></trkpt>
<trkpt lat="53.404535" lon="-1.899823"><ele>596</ele><time>2021-10-07T11:36:22Z</time><name>PT2397</name></trkpt>
<trkpt lat="53.404532" lon="-1.899821"><ele>595</ele><time>2021-10-07T11:36:23Z</time><name>PT2398</name></trkpt>
<trkpt lat="53.404528" lon="-1.899820"><ele>595</ele><time>2021-10-07T11:36:24Z</time><name>PT2399</name></trkpt>
<trkpt lat="53.404529" lon="-1.899820"><ele>595</ele><time>2021-10-07T11:36:25Z</time><name>PT2400</name></trkpt>
<trkpt lat="53.404527" lon="-1.899818"><ele>595</ele><time>2021-10-07T11:36:26Z</time><name>PT2401</name></trkpt>
<trkpt lat="53.404525" lon="-1.899816"><ele>595</ele><time>2021-10-07T11:36:27Z</time><name>PT2402</name></trkpt>
<trkpt lat="53.404529" lon="-1.899813"><ele>596</ele><time>2021-10-07T11:36:56Z</time><name>PT2403</name></trkpt>
<trkpt lat="53.404531" lon="-1.899805"><ele>598</ele><time>2021-10-07T11:37:28Z</time><name>PT2404</name></trkpt>
<trkpt lat="53.404526" lon="-1.899804"><ele>597</ele><time>2021-10-07T11:37:52Z</time><name>PT2405</name></trkpt>
<trkpt lat="53.404526" lon="-1.899805"><ele>597</ele><time>2021-10-07T11:37:56Z</time><name>PT2406</name></trkpt>
<trkpt lat="53.404522" lon="-1.899814"><ele>597</ele><time>2021-10-07T11:38:08Z</time><name>PT2407</name></trkpt>
<trkpt lat="53.404528" lon="-1.899806"><ele>598</ele><time>2021-10-07T11:38:20Z</time><name>PT2408</name></trkpt>
<trkpt lat="53.404534" lon="-1.899799"><ele>597</ele><time>2021-10-07T11:38:24Z</time><name>PT2409</name></trkpt>
<trkpt lat="53.404534" lon="-1.899796"><ele>597</ele><time>2021-10-07T11:38:28Z</time><name>PT2410</name></trkpt>
<trkpt lat="53.404541" lon="-1.899801"><ele>597</ele><time>2021-10-07T11:38:51Z</time><name>PT2411</name></trkpt>
<trkpt lat="53.404540" lon="-1.899795"><ele>598</ele><time>2021-10-07T11:38:53Z</time><name>PT2412</name></trkpt>
<trkpt lat="53.404544" lon="-1.899795"><ele>598</ele><time>2021-10-07T11:38:53Z</time><name>PT2413</name></trkpt>
<trkpt lat="53.404547" lon="-1.899789"><ele>598</ele><time>2021-10-07T11:38:54Z</time><name>PT2414</name></trkpt>
<trkpt lat="53.404553" lon="-1.899788"><ele>598</ele><time>2021-10-07T11:38:55Z</time><name>PT2415</name></trkpt>
<trkpt lat="53.404552" lon="-1.899778"><ele>599</ele><time>2021-10-07T11:38:56Z</time><name>PT2416</name></trkpt>
<trkpt lat="53.404556" lon="-1.899772"><ele>599</ele><time>2021-10-07T11:38:57Z</time><name>PT2417</name></trkpt>
<trkpt lat="53.404561" lon="-1.899764"><ele>600</ele><time>2021-10-07T11:38:58Z</time><name>PT2418</name></trkpt>
<trkpt lat="53.404561" lon="-1.899762"><ele>600</ele><time>2021-10-07T11:39:03Z</time><name>PT2419</name></trkpt>
<trkpt lat="53.404561" lon="-1.899769"><ele>600</ele><time>2021-10-07T11:39:04Z</time><name>PT2420</name></trkpt>
<trkpt lat="53.404553" lon="-1.899767"><ele>601</ele><time>2021-10-07T11:39:05Z</time><name>PT2421</name></trkpt>
<trkpt lat="53.404555" lon="-1.899765"><ele>602</ele><time>2021-10-07T11:39:06Z</time><name>PT2422</name></trkpt>
<trkpt lat="53.404548" lon="-1.899761"><ele>602</ele><time>2021-10-07T11:39:07Z</time><name>PT2423</name></trkpt>
<trkpt lat="53.404557" lon="-1.899770"><ele>602</ele><time>2021-10-07T11:39:08Z</time><name>PT2424</name></trkpt>
<trkpt lat="53.404553" lon="-1.899761"><ele>603</ele><time>2021-10-07T11:39:09Z</time><name>PT2425</name></trkpt>
<trkpt lat="53.404557" lon="-1.899767"><ele>603</ele><time>2021-10-07T11:39:10Z</time><name>PT2426</name></trkpt>
<trkpt lat="53.404556" lon="-1.899766"><ele>602</ele><time>2021-10-07T11:39:11Z</time><name>PT2427</name></trkpt>
<trkpt lat="53.404560" lon="-1.899760"><ele>602</ele><time>2021-10-07T11:39:12Z</time><name>PT2428</name></trkpt>
<trkpt lat="53.404559" lon="-1.899764"><ele>602</ele><time>2021-10-07T11:39:13Z</time><name>PT2429</name></trkpt>
<trkpt lat="53.404555" lon="-1.899766"><ele>601</ele><time>2021-10-07T11:39:14Z</time><name>PT2430</name></trkpt>
<trkpt lat="53.404556" lon="-1.899773"><ele>600</ele><time>2021-10-07T11:39:15Z</time><name>PT2431</name></trkpt>
<trkpt lat="53.404555" lon="-1.899783"><ele>601</ele><time>2021-10-07T11:39:30Z</time><name>PT2432</name></trkpt>
<trkpt lat="53.404557" lon="-1.899787"><ele>601</ele><time>2021-10-07T11:39:31Z</time><name>PT2433</name></trkpt>
<trkpt lat="53.404558" lon="-1.899788"><ele>601</ele><time>2021-10-07T11:39:32Z</time><name>PT2434</name></trkpt>
<trkpt lat="53.404559" lon="-1.899790"><ele>602</ele><time>2021-10-07T11:39:33Z</time><name>PT2435</name></trkpt>
<trkpt lat="53.404558" lon="-1.899790"><ele>602</ele><time>2021-10-07T11:39:34Z</time><name>PT2436</name></trkpt>
<trkpt lat="53.404551" lon="-1.899794"><ele>602</ele><time>2021-10-07T11:39:35Z</time><name>PT2437</name></trkpt>
<trkpt lat="53.404548" lon="-1.899795"><ele>601</ele><time>2021-10-07T11:39:36Z</time><name>PT2438</name></trkpt>
<trkpt lat="53.404545" lon="-1.899795"><ele>601</ele><time>2021-10-07T11:39:37Z</time><name>PT2439</name></trkpt>
<trkpt lat="53.404539" lon="-1.899793"><ele>601</ele><time>2021-10-07T11:39:38Z</time><name>PT2440</name></trkpt>
<trkpt lat="53.404537" lon="-1.899780"><ele>601</ele><time>2021-10-07T11:39:46Z</time><name>PT2441</name></trkpt>
<trkpt lat="53.404531" lon="-1.899784"><ele>601</ele><time>2021-10-07T11:39:47Z</time><name>PT2442</name></trkpt>
<trkpt lat="53.404524" lon="-1.899785"><ele>602</ele><time>2021-10-07T11:39:48Z</time><name>PT2443</name></trkpt>
<trkpt lat="53.404521" lon="-1.899782"><ele>602</ele><time>2021-10-07T11:39:49Z</time><name>PT2444</name></trkpt>
<trkpt lat="53.404527" lon="-1.899778"><ele>602</ele><time>2021-10-07T11:39:50Z</time><name>PT2445</name></trkpt>
<trkpt lat="53.404519" lon="-1.899777"><ele>602</ele><time>2021-10-07T11:39:51Z</time><name>PT2446</name></trkpt>
<trkpt lat="53.404514" lon="-1.899787"><ele>602</ele><time>2021-10-07T11:39:52Z</time><name>PT2447</name></trkpt>
<trkpt lat="53.404516" lon="-1.899788"><ele>602</ele><time>2021-10-07T11:39:53Z</time><name>PT2448</name></trkpt>
<trkpt lat="53.404515" lon="-1.899791"><ele>602</ele><time>2021-10-07T11:39:54Z</time><name>PT2449</name></trkpt>
<trkpt lat="53.404514" lon="-1.899793"><ele>602</ele><time>2021-10-07T11:39:55Z</time><name>PT2450</name></trkpt>
<trkpt lat="53.404521" lon="-1.899793"><ele>601</ele><time>2021-10-07T11:39:59Z</time><name>PT2451</name></trkpt>
<trkpt lat="53.404523" lon="-1.899786"><ele>601</ele><time>2021-10-07T11:40:00Z</time><name>PT2452</name></trkpt>
<trkpt lat="53.404527" lon="-1.899789"><ele>600</ele><time>2021-10-07T11:40:01Z</time><name>PT2453</name></trkpt>
<trkpt lat="53.404533" lon="-1.899787"><ele>600</ele><time>2021-10-07T11:40:02Z</time><name>PT2454</name></trkpt>
<trkpt lat="53.404539" lon="-1.899774"><ele>599</ele><time>2021-10-07T11:40:03Z</time><name>PT2455</name></trkpt>
<trkpt lat="53.404535" lon="-1.899771"><ele>598</ele><time>2021-10-07T11:40:04Z</time><name>PT2456</name></trkpt>
<trkpt lat="53.404533" lon="-1.899767"><ele>597</ele><time>2021-10-07T11:40:05Z</time><name>PT2457</name></trkpt>
<trkpt lat="53.404528" lon="-1.899763"><ele>597</ele><time>2021-10-07T11:40:06Z</time><name>PT2458</name></trkpt>
<trkpt lat="53.404527" lon="-1.899761"><ele>596</ele><time>2021-10-07T11:40:07Z</time><name>PT2459</name></trkpt>
<trkpt lat="53.404524" lon="-1.899757"><ele>595</ele><time>2021-10-07T11:40:08Z</time><name>PT2460</name></trkpt>
<trkpt lat="53.404527" lon="-1.899759"><ele>596</ele><time>2021-10-07T11:40:09Z</time><name>PT2461</name></trkpt>
<trkpt lat="53.404529" lon="-1.899756"><ele>595</ele><time>2021-10-07T11:40:10Z</time><name>PT2462</name></trkpt>
<trkpt lat="53.404538" lon="-1.899754"><ele>595</ele><time>2021-10-07T11:40:11Z</time><name>PT2463</name></trkpt>
<trkpt lat="53.404533" lon="-1.899753"><ele>595</ele><time>2021-10-07T11:40:12Z</time><name>PT2464</name></trkpt>
<trkpt lat="53.404527" lon="-1.899755"><ele>594</ele><time>2021-10-07T11:40:13Z</time><name>PT2465</name></trkpt>
<trkpt lat="53.404530" lon="-1.899754"><ele>594</ele><time>2021-10-07T11:40:14Z</time><name>PT2466</name></trkpt>
<trkpt lat="53.404529" lon="-1.899751"><ele>593</ele><time>2021-10-07T11:40:15Z</time><name>PT2467</name></trkpt>
<trkpt lat="53.404532" lon="-1.899747"><ele>593</ele><time>2021-10-07T11:40:16Z</time><name>PT2468</name></trkpt>
<trkpt lat="53.404533" lon="-1.899740"><ele>592</ele><time>2021-10-07T11:40:17Z</time><name>PT2469</name></trkpt>
<trkpt lat="53.404537" lon="-1.899735"><ele>592</ele><time>2021-10-07T11:40:18Z</time><name>PT2470</name></trkpt>
<trkpt lat="53.404540" lon="-1.899729"><ele>592</ele><time>2021-10-07T11:40:19Z</time><name>PT2471</name></trkpt>
<trkpt lat="53.404542" lon="-1.899724"><ele>592</ele><time>2021-10-07T11:40:20Z</time><name>PT2472</name></trkpt>
<trkpt lat="53.404543" lon="-1.899717"><ele>591</ele><time>2021-10-07T11:40:21Z</time><name>PT2473</name></trkpt>
<trkpt lat="53.404542" lon="-1.899712"><ele>589</ele><time>2021-10-07T11:40:22Z</time><name>PT2474</name></trkpt>
<trkpt lat="53.404535" lon="-1.899719"><ele>590</ele><time>2021-10-07T11:40:23Z</time><name>PT2475</name></trkpt>
<trkpt lat="53.404531" lon="-1.899725"><ele>590</ele><time>2021-10-07T11:40:24Z</time><name>PT2476</name></trkpt>
<trkpt lat="53.404531" lon="-1.899726"><ele>590</ele><time>2021-10-07T11:40:25Z</time><name>PT2477</name></trkpt>
<trkpt lat="53.404528" lon="-1.899723"><ele>589</ele><time>2021-10-07T11:40:26Z</time><name>PT2478</name></trkpt>
<trkpt lat="53.404529" lon="-1.899723"><ele>589</ele><time>2021-10-07T11:40:27Z</time><name>PT2479</name></trkpt>
<trkpt lat="53.404528" lon="-1.899726"><ele>589</ele><time>2021-10-07T11:40:32Z</time><name>PT2480</name></trkpt>
<trkpt lat="53.404526" lon="-1.899730"><ele>589</ele><time>2021-10-07T11:40:33Z</time><name>PT2481</name></trkpt>
<trkpt lat="53.404524" lon="-1.899736"><ele>589</ele><time>2021-10-07T11:40:34Z</time><name>PT2482</name></trkpt>
<trkpt lat="53.404523" lon="-1.899737"><ele>589</ele><time>2021-10-07T11:40:35Z</time><name>PT2483</name></trkpt>
<trkpt lat="53.404521" lon="-1.899739"><ele>589</ele><time>2021-10-07T11:40:36Z</time><name>PT2484</name></trkpt>
<trkpt lat="53.404519" lon="-1.899745"><ele>589</ele><time>2021-10-07T11:40:40Z</time><name>PT2485</name></trkpt>
<trkpt lat="53.404515" lon="-1.899751"><ele>589</ele><time>2021-10-07T11:40:41Z</time><name>PT2486</name></trkpt>
<trkpt lat="53.404512" lon="-1.899755"><ele>589</ele><time>2021-10-07T11:40:43Z</time><name>PT2487</name></trkpt>
<trkpt lat="53.404514" lon="-1.899765"><ele>588</ele><time>2021-10-07T11:40:44Z</time><name>PT2488</name></trkpt>
<trkpt lat="53.404516" lon="-1.899773"><ele>588</ele><time>2021-10-07T11:40:45Z</time><name>PT2489</name></trkpt>
<trkpt lat="53.404514" lon="-1.899783"><ele>589</ele><time>2021-10-07T11:40:48Z</time><name>PT2490</name></trkpt>
<trkpt lat="53.404514" lon="-1.899789"><ele>589</ele><time>2021-10-07T11:40:52Z</time><name>PT2491</name></trkpt>
<trkpt lat="53.404520" lon="-1.899784"><ele>589</ele><time>2021-10-07T11:40:56Z</time><name>PT2492</name></trkpt>
<trkpt lat="53.404515" lon="-1.899783"><ele>589</ele><time>2021-10-07T11:41:16Z</time><name>PT2493</name></trkpt>
<trkpt lat="53.404510" lon="-1.899783"><ele>589</ele><time>2021-10-07T11:41:20Z</time><name>PT2494</name></trkpt>
<trkpt lat="53.404507" lon="-1.899782"><ele>590</ele><time>2021-10-07T11:41:32Z</time><name>PT2495</name></trkpt>
<trkpt lat="53.404508" lon="-1.899781"><ele>590</ele><time>2021-10-07T11:41:36Z</time><name>PT2496</name></trkpt>
<trkpt lat="53.404507" lon="-1.899786"><ele>591</ele><time>2021-10-07T11:41:40Z</time><name>PT2497</name></trkpt>
<trkpt lat="53.404521" lon="-1.899788"><ele>592</ele><time>2021-10-07T11:41:44Z</time><name>PT2498</name></trkpt>
<trkpt lat="53.404505" lon="-1.899782"><ele>596</ele><time>2021-10-07T11:41:48Z</time><name>PT2499</name></trkpt>
<trkpt lat="53.404508" lon="-1.899788"><ele>595</ele><time>2021-10-07T11:41:52Z</time><name>PT2500</name></trkpt>
<trkpt lat="53.404497" lon="-1.899773"><ele>595</ele><time>2021-10-07T11:42:00Z</time><name>PT2501</name></trkpt>
<trkpt lat="53.404501" lon="-1.899771"><ele>597</ele><time>2021-10-07T11:42:16Z</time><name>PT2502</name></trkpt>
<trkpt lat="53.404503" lon="-1.899773"><ele>597</ele><time>2021-10-07T11:42:20Z</time><name>PT2503</name></trkpt>
<trkpt lat="53.404502" lon="-1.899771"><ele>598</ele><time>2021-10-07T11:43:36Z</time><name>PT2504</name></trkpt>
<trkpt lat="53.404504" lon="-1.899766"><ele>598</ele><time>2021-10-07T11:43:40Z</time><name>PT2505</name></trkpt>
<trkpt lat="53.404510" lon="-1.899736"><ele>598</ele><time>2021-10-07T11:44:16Z</time><name>PT2506</name></trkpt>
<trkpt lat="53.404456" lon="-1.899732"><ele>599</ele><time>2021-10-07T11:44:20Z</time><name>PT2507</name></trkpt>
<trkpt lat="53.404423" lon="-1.899741"><ele>597</ele><time>2021-10-07T11:44:24Z</time><name>PT2508</name></trkpt>
<trkpt lat="53.404474" lon="-1.899789"><ele>591</ele><time>2021-10-07T11:44:44Z</time><name>PT2509</name></trkpt>
<trkpt lat="53.404502" lon="-1.899769"><ele>590</ele><time>2021-10-07T11:44:48Z</time><name>PT2510</name></trkpt>
<trkpt lat="53.404510" lon="-1.899777"><ele>591</ele><time>2021-10-07T11:44:56Z</time><name>PT2511</name></trkpt>
<trkpt lat="53.404518" lon="-1.899776"><ele>592</ele><time>2021-10-07T11:45:00Z</time><name>PT2512</name></trkpt>
<trkpt lat="53.404520" lon="-1.899768"><ele>592</ele><time>2021-10-07T11:45:16Z</time><name>PT2513</name></trkpt>
<trkpt lat="53.404518" lon="-1.899770"><ele>593</ele><time>2021-10-07T11:45:20Z</time><name>PT2514</name></trkpt>
<trkpt lat="53.404517" lon="-1.899784"><ele>593</ele><time>2021-10-07T11:45:23Z</time><name>PT2515</name></trkpt>
<trkpt lat="53.404521" lon="-1.899786"><ele>593</ele><time>2021-10-07T11:45:37Z</time><name>PT2516</name></trkpt>
<trkpt lat="53.404522" lon="-1.899786"><ele>593</ele><time>2021-10-07T11:45:38Z</time><name>PT2517</name></trkpt>
<trkpt lat="53.404526" lon="-1.899799"><ele>595</ele><time>2021-10-07T11:46:38Z</time><name>PT2518</name></trkpt>
<trkpt lat="53.404529" lon="-1.899798"><ele>594</ele><time>2021-10-07T11:46:39Z</time><name>PT2519</name></trkpt>
<trkpt lat="53.404531" lon="-1.899799"><ele>595</ele><time>2021-10-07T11:46:40Z</time><name>PT2520</name></trkpt>
<trkpt lat="53.404536" lon="-1.899799"><ele>594</ele><time>2021-10-07T11:46:41Z</time><name>PT2521</name></trkpt>
<trkpt lat="53.404542" lon="-1.899809"><ele>595</ele><time>2021-10-07T11:46:45Z</time><name>PT2522</name></trkpt>
<trkpt lat="53.404544" lon="-1.899801"><ele>594</ele><time>2021-10-07T11:46:46Z</time><name>PT2523</name></trkpt>
<trkpt lat="53.404545" lon="-1.899805"><ele>594</ele><time>2021-10-07T11:46:47Z</time><name>PT2524</name></trkpt>
<trkpt lat="53.404546" lon="-1.899807"><ele>594</ele><time>2021-10-07T11:46:48Z</time><name>PT2525</name></trkpt>
<trkpt lat="53.404545" lon="-1.899808"><ele>594</ele><time>2021-10-07T11:47:28Z</time><name>PT2526</name></trkpt>
<trkpt lat="53.404551" lon="-1.899804"><ele>594</ele><time>2021-10-07T11:47:29Z</time><name>PT2527</name></trkpt>
<trkpt lat="53.404551" lon="-1.899796"><ele>594</ele><time>2021-10-07T11:47:30Z</time><name>PT2528</name></trkpt>
<trkpt lat="53.404550" lon="-1.899793"><ele>594</ele><time>2021-10-07T11:47:31Z</time><name>PT2529</name></trkpt>
<trkpt lat="53.404548" lon="-1.899792"><ele>594</ele><time>2021-10-07T11:47:32Z</time><name>PT2530</name></trkpt>
<trkpt lat="53.404548" lon="-1.899793"><ele>595</ele><time>2021-10-07T11:47:33Z</time><name>PT2531</name></trkpt>
<trkpt lat="53.404549" lon="-1.899793"><ele>595</ele><time>2021-10-07T11:47:43Z</time><name>PT2532</name></trkpt>
<trkpt lat="53.404552" lon="-1.899780"><ele>595</ele><time>2021-10-07T11:47:44Z</time><name>PT2533</name></trkpt>
<trkpt lat="53.404549" lon="-1.899771"><ele>595</ele><time>2021-10-07T11:47:45Z</time><name>PT2534</name></trkpt>
<trkpt lat="53.404548" lon="-1.899766"><ele>595</ele><time>2021-10-07T11:47:46Z</time><name>PT2535</name></trkpt>
<trkpt lat="53.404548" lon="-1.899760"><ele>596</ele><time>2021-10-07T11:47:47Z</time><name>PT2536</name></trkpt>
<trkpt lat="53.404548" lon="-1.899753"><ele>595</ele><time>2021-10-07T11:47:48Z</time><name>PT2537</name></trkpt>
<trkpt lat="53.404545" lon="-1.899747"><ele>595</ele><time>2021-10-07T11:47:49Z</time><name>PT2538</name></trkpt>
<trkpt lat="53.404541" lon="-1.899740"><ele>595</ele><time>2021-10-07T11:47:50Z</time><name>PT2539</name></trkpt>
<trkpt lat="53.404535" lon="-1.899740"><ele>596</ele><time>2021-10-07T11:47:51Z</time><name>PT2540</name></trkpt>
<trkpt lat="53.404528" lon="-1.899740"><ele>596</ele><time>2021-10-07T11:47:52Z</time><name>PT2541</name></trkpt>
<trkpt lat="53.404524" lon="-1.899730"><ele>596</ele><time>2021-10-07T11:47:54Z</time><name>PT2542</name></trkpt>
<trkpt lat="53.404518" lon="-1.899725"><ele>596</ele><time>2021-10-07T11:47:54Z</time><name>PT2543</name></trkpt>
<trkpt lat="53.404513" lon="-1.899724"><ele>596</ele><time>2021-10-07T11:47:55Z</time><name>PT2544</name></trkpt>
<trkpt lat="53.404507" lon="-1.899723"><ele>596</ele><time>2021-10-07T11:47:57Z</time><name>PT2545</name></trkpt>
<trkpt lat="53.404498" lon="-1.899722"><ele>596</ele><time>2021-10-07T11:47:57Z</time><name>PT2546</name></trkpt>
<trkpt lat="53.404489" lon="-1.899729"><ele>595</ele><time>2021-10-07T11:47:58Z</time><name>PT2547</name></trkpt>
<trkpt lat="53.404480" lon="-1.899735"><ele>595</ele><time>2021-10-07T11:47:59Z</time><name>PT2548</name></trkpt>
<trkpt lat="53.404471" lon="-1.899739"><ele>596</ele><time>2021-10-07T11:48:00Z</time><name>PT2549</name></trkpt>
<trkpt lat="53.404463" lon="-1.899744"><ele>596</ele><time>2021-10-07T11:48:02Z</time><name>PT2550</name></trkpt>
<trkpt lat="53.404456" lon="-1.899748"><ele>596</ele><time>2021-10-07T11:48:02Z</time><name>PT2551</name></trkpt>
<trkpt lat="53.404449" lon="-1.899752"><ele>596</ele><time>2021-10-07T11:48:03Z</time><name>PT2552</name></trkpt>
<trkpt lat="53.404445" lon="-1.899756"><ele>596</ele><time>2021-10-07T11:48:04Z</time><name>PT2553</name></trkpt>
<trkpt lat="53.404440" lon="-1.899754"><ele>596</ele><time>2021-10-07T11:48:05Z</time><name>PT2554</name></trkpt>
<trkpt lat="53.404437" lon="-1.899754"><ele>596</ele><time>2021-10-07T11:48:06Z</time><name>PT2555</name></trkpt>
<trkpt lat="53.404436" lon="-1.899755"><ele>596</ele><time>2021-10-07T11:48:07Z</time><name>PT2556</name></trkpt>
<trkpt lat="53.404432" lon="-1.899757"><ele>596</ele><time>2021-10-07T11:48:08Z</time><name>PT2557</name></trkpt>
<trkpt lat="53.404426" lon="-1.899759"><ele>596</ele><time>2021-10-07T11:48:09Z</time><name>PT2558</name></trkpt>
<trkpt lat="53.404418" lon="-1.899759"><ele>596</ele><time>2021-10-07T11:48:10Z</time><name>PT2559</name></trkpt>
<trkpt lat="53.404409" lon="-1.899761"><ele>596</ele><time>2021-10-07T11:48:11Z</time><name>PT2560</name></trkpt>
<trkpt lat="53.404399" lon="-1.899759"><ele>596</ele><time>2021-10-07T11:48:12Z</time><name>PT2561</name></trkpt>
<trkpt lat="53.404389" lon="-1.899758"><ele>596</ele><time>2021-10-07T11:48:13Z</time><name>PT2562</name></trkpt>
<trkpt lat="53.404377" lon="-1.899756"><ele>596</ele><time>2021-10-07T11:48:14Z</time><name>PT2563</name></trkpt>
<trkpt lat="53.404366" lon="-1.899751"><ele>596</ele><time>2021-10-07T11:48:15Z</time><name>PT2564</name></trkpt>
<trkpt lat="53.404357" lon="-1.899745"><ele>596</ele><time>2021-10-07T11:48:16Z</time><name>PT2565</name></trkpt>
<trkpt lat="53.404347" lon="-1.899739"><ele>596</ele><time>2021-10-07T11:48:17Z</time><name>PT2566</name></trkpt>
<trkpt lat="53.404335" lon="-1.899735"><ele>596</ele><time>2021-10-07T11:48:18Z</time><name>PT2567</name></trkpt>
<trkpt lat="53.404324" lon="-1.899731"><ele>596</ele><time>2021-10-07T11:48:19Z</time><name>PT2568</name></trkpt>
<trkpt lat="53.404313" lon="-1.899728"><ele>596</ele><time>2021-10-07T11:48:20Z</time><name>PT2569</name></trkpt>
<trkpt lat="53.404301" lon="-1.899725"><ele>596</ele><time>2021-10-07T11:48:21Z</time><name>PT2570</name></trkpt>
<trkpt lat="53.404293" lon="-1.899719"><ele>596</ele><time>2021-10-07T11:48:22Z</time><name>PT2571</name></trkpt>
<trkpt lat="53.404275" lon="-1.899708"><ele>596</ele><time>2021-10-07T11:48:24Z</time><name>PT2572</name></trkpt>
<trkpt lat="53.404265" lon="-1.899704"><ele>596</ele><time>2021-10-07T11:48:25Z</time><name>PT2573</name></trkpt>
<trkpt lat="53.404253" lon="-1.899703"><ele>597</ele><time>2021-10-07T11:48:27Z</time><name>PT2574</name></trkpt>
<trkpt lat="53.404239" lon="-1.899705"><ele>597</ele><time>2021-10-07T11:48:27Z</time><name>PT2575</name></trkpt>
<trkpt lat="53.404229" lon="-1.899710"><ele>597</ele><time>2021-10-07T11:48:28Z</time><name>PT2576</name></trkpt>
<trkpt lat="53.404216" lon="-1.899714"><ele>597</ele><time>2021-10-07T11:48:29Z</time><name>PT2577</name></trkpt>
<trkpt lat="53.404206" lon="-1.899717"><ele>597</ele><time>2021-10-07T11:48:30Z</time><name>PT2578</name></trkpt>
<trkpt lat="53.404194" lon="-1.899723"><ele>597</ele><time>2021-10-07T11:48:31Z</time><name>PT2579</name></trkpt>
<trkpt lat="53.404181" lon="-1.899727"><ele>596</ele><time>2021-10-07T11:48:32Z</time><name>PT2580</name></trkpt>
<trkpt lat="53.404169" lon="-1.899726"><ele>596</ele><time>2021-10-07T11:48:33Z</time><name>PT2581</name></trkpt>
<trkpt lat="53.404160" lon="-1.899720"><ele>596</ele><time>2021-10-07T11:48:34Z</time><name>PT2582</name></trkpt>
<trkpt lat="53.404156" lon="-1.899721"><ele>597</ele><time>2021-10-07T11:48:35Z</time><name>PT2583</name></trkpt>
<trkpt lat="53.404146" lon="-1.899719"><ele>597</ele><time>2021-10-07T11:48:36Z</time><name>PT2584</name></trkpt>
<trkpt lat="53.404137" lon="-1.899716"><ele>596</ele><time>2021-10-07T11:48:37Z</time><name>PT2585</name></trkpt>
<trkpt lat="53.404129" lon="-1.899712"><ele>597</ele><time>2021-10-07T11:48:39Z</time><name>PT2586</name></trkpt>
<trkpt lat="53.404121" lon="-1.899709"><ele>597</ele><time>2021-10-07T11:48:39Z</time><name>PT2587</name></trkpt>
<trkpt lat="53.404115" lon="-1.899702"><ele>597</ele><time>2021-10-07T11:48:40Z</time><name>PT2588</name></trkpt>
<trkpt lat="53.404108" lon="-1.899697"><ele>596</ele><time>2021-10-07T11:48:41Z</time><name>PT2589</name></trkpt>
<trkpt lat="53.404099" lon="-1.899694"><ele>596</ele><time>2021-10-07T11:48:42Z</time><name>PT2590</name></trkpt>
<trkpt lat="53.404087" lon="-1.899691"><ele>595</ele><time>2021-10-07T11:48:43Z</time><name>PT2591</name></trkpt>
<trkpt lat="53.404074" lon="-1.899687"><ele>595</ele><time>2021-10-07T11:48:44Z</time><name>PT2592</name></trkpt>
<trkpt lat="53.404061" lon="-1.899684"><ele>595</ele><time>2021-10-07T11:48:45Z</time><name>PT2593</name></trkpt>
<trkpt lat="53.404050" lon="-1.899680"><ele>595</ele><time>2021-10-07T11:48:46Z</time><name>PT2594</name></trkpt>
<trkpt lat="53.404037" lon="-1.899683"><ele>595</ele><time>2021-10-07T11:48:48Z</time><name>PT2595</name></trkpt>
<trkpt lat="53.404028" lon="-1.899687"><ele>595</ele><time>2021-10-07T11:48:48Z</time><name>PT2596</name></trkpt>
<trkpt lat="53.404019" lon="-1.899693"><ele>595</ele><time>2021-10-07T11:48:49Z</time><name>PT2597</name></trkpt>
<trkpt lat="53.404009" lon="-1.899698"><ele>595</ele><time>2021-10-07T11:48:50Z</time><name>PT2598</name></trkpt>
<trkpt lat="53.404001" lon="-1.899699"><ele>595</ele><time>2021-10-07T11:48:51Z</time><name>PT2599</name></trkpt>
<trkpt lat="53.403990" lon="-1.899694"><ele>595</ele><time>2021-10-07T11:48:52Z</time><name>PT2600</name></trkpt>
<trkpt lat="53.403978" lon="-1.899692"><ele>595</ele><time>2021-10-07T11:48:53Z</time><name>PT2601</name></trkpt>
<trkpt lat="53.403967" lon="-1.899692"><ele>595</ele><time>2021-10-07T11:48:54Z</time><name>PT2602</name></trkpt>
<trkpt lat="53.403955" lon="-1.899692"><ele>595</ele><time>2021-10-07T11:48:55Z</time><name>PT2603</name></trkpt>
<trkpt lat="53.403946" lon="-1.899690"><ele>595</ele><time>2021-10-07T11:48:56Z</time><name>PT2604</name></trkpt>
<trkpt lat="53.403935" lon="-1.899690"><ele>594</ele><time>2021-10-07T11:48:57Z</time><name>PT2605</name></trkpt>
<trkpt lat="53.403926" lon="-1.899690"><ele>594</ele><time>2021-10-07T11:48:58Z</time><name>PT2606</name></trkpt>
<trkpt lat="53.403917" lon="-1.899686"><ele>594</ele><time>2021-10-07T11:48:59Z</time><name>PT2607</name></trkpt>
<trkpt lat="53.403910" lon="-1.899680"><ele>594</ele><time>2021-10-07T11:49:00Z</time><name>PT2608</name></trkpt>
<trkpt lat="53.403904" lon="-1.899671"><ele>594</ele><time>2021-10-07T11:49:01Z</time><name>PT2609</name></trkpt>
<trkpt lat="53.403897" lon="-1.899665"><ele>594</ele><time>2021-10-07T11:49:03Z</time><name>PT2610</name></trkpt>
<trkpt lat="53.403892" lon="-1.899659"><ele>594</ele><time>2021-10-07T11:49:03Z</time><name>PT2611</name></trkpt>
<trkpt lat="53.403885" lon="-1.899660"><ele>594</ele><time>2021-10-07T11:49:04Z</time><name>PT2612</name></trkpt>
<trkpt lat="53.403876" lon="-1.899661"><ele>593</ele><time>2021-10-07T11:49:05Z</time><name>PT2613</name></trkpt>
<trkpt lat="53.403870" lon="-1.899656"><ele>593</ele><time>2021-10-07T11:49:06Z</time><name>PT2614</name></trkpt>
<trkpt lat="53.403863" lon="-1.899646"><ele>593</ele><time>2021-10-07T11:49:07Z</time><name>PT2615</name></trkpt>
<trkpt lat="53.403852" lon="-1.899631"><ele>593</ele><time>2021-10-07T11:49:08Z</time><name>PT2616</name></trkpt>
<trkpt lat="53.403841" lon="-1.899622"><ele>593</ele><time>2021-10-07T11:49:09Z</time><name>PT2617</name></trkpt>
<trkpt lat="53.403838" lon="-1.899607"><ele>593</ele><time>2021-10-07T11:49:10Z</time><name>PT2618</name></trkpt>
<trkpt lat="53.403831" lon="-1.899600"><ele>593</ele><time>2021-10-07T11:49:11Z</time><name>PT2619</name></trkpt>
<trkpt lat="53.403821" lon="-1.899593"><ele>593</ele><time>2021-10-07T11:49:12Z</time><name>PT2620</name></trkpt>
<trkpt lat="53.403813" lon="-1.899583"><ele>593</ele><time>2021-10-07T11:49:13Z</time><name>PT2621</name></trkpt>
<trkpt lat="53.403801" lon="-1.899571"><ele>593</ele><time>2021-10-07T11:49:14Z</time><name>PT2622</name></trkpt>
<trkpt lat="53.403788" lon="-1.899563"><ele>592</ele><time>2021-10-07T11:49:15Z</time><name>PT2623</name></trkpt>
<trkpt lat="53.403777" lon="-1.899558"><ele>592</ele><time>2021-10-07T11:49:16Z</time><name>PT2624</name></trkpt>
<trkpt lat="53.403769" lon="-1.899551"><ele>592</ele><time>2021-10-07T11:49:17Z</time><name>PT2625</name></trkpt>
<trkpt lat="53.403761" lon="-1.899540"><ele>592</ele><time>2021-10-07T11:49:18Z</time><name>PT2626</name></trkpt>
<trkpt lat="53.403755" lon="-1.899525"><ele>592</ele><time>2021-10-07T11:49:19Z</time><name>PT2627</name></trkpt>
<trkpt lat="53.403749" lon="-1.899513"><ele>592</ele><time>2021-10-07T11:49:20Z</time><name>PT2628</name></trkpt>
<trkpt lat="53.403743" lon="-1.899500"><ele>592</ele><time>2021-10-07T11:49:21Z</time><name>PT2629</name></trkpt>
<trkpt lat="53.403739" lon="-1.899484"><ele>592</ele><time>2021-10-07T11:49:22Z</time><name>PT2630</name></trkpt>
<trkpt lat="53.403734" lon="-1.899473"><ele>592</ele><time>2021-10-07T11:49:23Z</time><name>PT2631</name></trkpt>
<trkpt lat="53.403728" lon="-1.899469"><ele>592</ele><time>2021-10-07T11:49:24Z</time><name>PT2632</name></trkpt>
<trkpt lat="53.403718" lon="-1.899461"><ele>591</ele><time>2021-10-07T11:49:25Z</time><name>PT2633</name></trkpt>
<trkpt lat="53.403711" lon="-1.899453"><ele>590</ele><time>2021-10-07T11:49:26Z</time><name>PT2634</name></trkpt>
<trkpt lat="53.403703" lon="-1.899446"><ele>590</ele><time>2021-10-07T11:49:27Z</time><name>PT2635</name></trkpt>
<trkpt lat="53.403692" lon="-1.899435"><ele>590</ele><time>2021-10-07T11:49:28Z</time><name>PT2636</name></trkpt>
<trkpt lat="53.403684" lon="-1.899425"><ele>590</ele><time>2021-10-07T11:49:29Z</time><name>PT2637</name></trkpt>
<trkpt lat="53.403679" lon="-1.899415"><ele>590</ele><time>2021-10-07T11:49:30Z</time><name>PT2638</name></trkpt>
<trkpt lat="53.403674" lon="-1.899403"><ele>590</ele><time>2021-10-07T11:49:32Z</time><name>PT2639</name></trkpt>
<trkpt lat="53.403668" lon="-1.899391"><ele>590</ele><time>2021-10-07T11:49:32Z</time><name>PT2640</name></trkpt>
<trkpt lat="53.403661" lon="-1.899381"><ele>590</ele><time>2021-10-07T11:49:33Z</time><name>PT2641</name></trkpt>
<trkpt lat="53.403657" lon="-1.899370"><ele>590</ele><time>2021-10-07T11:49:34Z</time><name>PT2642</name></trkpt>
<trkpt lat="53.403654" lon="-1.899356"><ele>590</ele><time>2021-10-07T11:49:35Z</time><name>PT2643</name></trkpt>
<trkpt lat="53.403650" lon="-1.899344"><ele>590</ele><time>2021-10-07T11:49:36Z</time><name>PT2644</name></trkpt>
<trkpt lat="53.403642" lon="-1.899327"><ele>590</ele><time>2021-10-07T11:49:37Z</time><name>PT2645</name></trkpt>
<trkpt lat="53.403635" lon="-1.899313"><ele>589</ele><time>2021-10-07T11:49:38Z</time><name>PT2646</name></trkpt>
<trkpt lat="53.403631" lon="-1.899302"><ele>589</ele><time>2021-10-07T11:49:39Z</time><name>PT2647</name></trkpt>
<trkpt lat="53.403625" lon="-1.899288"><ele>589</ele><time>2021-10-07T11:49:40Z</time><name>PT2648</name></trkpt>
<trkpt lat="53.403620" lon="-1.899276"><ele>589</ele><time>2021-10-07T11:49:41Z</time><name>PT2649</name></trkpt>
<trkpt lat="53.403616" lon="-1.899269"><ele>589</ele><time>2021-10-07T11:49:42Z</time><name>PT2650</name></trkpt>
<trkpt lat="53.403613" lon="-1.899261"><ele>589</ele><time>2021-10-07T11:49:43Z</time><name>PT2651</name></trkpt>
<trkpt lat="53.403608" lon="-1.899245"><ele>589</ele><time>2021-10-07T11:49:44Z</time><name>PT2652</name></trkpt>
<trkpt lat="53.403602" lon="-1.899232"><ele>589</ele><time>2021-10-07T11:49:45Z</time><name>PT2653</name></trkpt>
<trkpt lat="53.403596" lon="-1.899215"><ele>589</ele><time>2021-10-07T11:49:46Z</time><name>PT2654</name></trkpt>
<trkpt lat="53.403590" lon="-1.899195"><ele>589</ele><time>2021-10-07T11:49:47Z</time><name>PT2655</name></trkpt>
<trkpt lat="53.403586" lon="-1.899183"><ele>589</ele><time>2021-10-07T11:49:48Z</time><name>PT2656</name></trkpt>
<trkpt lat="53.403580" lon="-1.899169"><ele>589</ele><time>2021-10-07T11:49:49Z</time><name>PT2657</name></trkpt>
<trkpt lat="53.403575" lon="-1.899154"><ele>588</ele><time>2021-10-07T11:49:50Z</time><name>PT2658</name></trkpt>
<trkpt lat="53.403566" lon="-1.899139"><ele>589</ele><time>2021-10-07T11:49:51Z</time><name>PT2659</name></trkpt>
<trkpt lat="53.403557" lon="-1.899123"><ele>589</ele><time>2021-10-07T11:49:53Z</time><name>PT2660</name></trkpt>
<trkpt lat="53.403552" lon="-1.899109"><ele>589</ele><time>2021-10-07T11:49:53Z</time><name>PT2661</name></trkpt>
<trkpt lat="53.403545" lon="-1.899091"><ele>589</ele><time>2021-10-07T11:49:54Z</time><name>PT2662</name></trkpt>
<trkpt lat="53.403540" lon="-1.899080"><ele>589</ele><time>2021-10-07T11:49:55Z</time><name>PT2663</name></trkpt>
<trkpt lat="53.403533" lon="-1.899064"><ele>589</ele><time>2021-10-07T11:49:56Z</time><name>PT2664</name></trkpt>
<trkpt lat="53.403531" lon="-1.899048"><ele>589</ele><time>2021-10-07T11:49:57Z</time><name>PT2665</name></trkpt>
<trkpt lat="53.403527" lon="-1.899030"><ele>589</ele><time>2021-10-07T11:49:58Z</time><name>PT2666</name></trkpt>
<trkpt lat="53.403523" lon="-1.899016"><ele>589</ele><time>2021-10-07T11:49:59Z</time><name>PT2667</name></trkpt>
<trkpt lat="53.403519" lon="-1.899003"><ele>588</ele><time>2021-10-07T11:50:00Z</time><name>PT2668</name></trkpt>
<trkpt lat="53.403513" lon="-1.898983"><ele>589</ele><time>2021-10-07T11:50:02Z</time><name>PT2669</name></trkpt>
<trkpt lat="53.403509" lon="-1.898971"><ele>588</ele><time>2021-10-07T11:50:02Z</time><name>PT2670</name></trkpt>
<trkpt lat="53.403502" lon="-1.898954"><ele>588</ele><time>2021-10-07T11:50:03Z</time><name>PT2671</name></trkpt>
<trkpt lat="53.403496" lon="-1.898940"><ele>588</ele><time>2021-10-07T11:50:04Z</time><name>PT2672</name></trkpt>
<trkpt lat="53.403489" lon="-1.898924"><ele>588</ele><time>2021-10-07T11:50:05Z</time><name>PT2673</name></trkpt>
<trkpt lat="53.403483" lon="-1.898905"><ele>588</ele><time>2021-10-07T11:50:06Z</time><name>PT2674</name></trkpt>
<trkpt lat="53.403480" lon="-1.898890"><ele>588</ele><time>2021-10-07T11:50:07Z</time><name>PT2675</name></trkpt>
<trkpt lat="53.403477" lon="-1.898874"><ele>588</ele><time>2021-10-07T11:50:08Z</time><name>PT2676</name></trkpt>
<trkpt lat="53.403474" lon="-1.898854"><ele>588</ele><time>2021-10-07T11:50:09Z</time><name>PT2677</name></trkpt>
<trkpt lat="53.403471" lon="-1.898837"><ele>588</ele><time>2021-10-07T11:50:10Z</time><name>PT2678</name></trkpt>
<trkpt lat="53.403469" lon="-1.898820"><ele>588</ele><time>2021-10-07T11:50:11Z</time><name>PT2679</name></trkpt>
<trkpt lat="53.403467" lon="-1.898801"><ele>588</ele><time>2021-10-07T11:50:12Z</time><name>PT2680</name></trkpt>
<trkpt lat="53.403467" lon="-1.898785"><ele>588</ele><time>2021-10-07T11:50:13Z</time><name>PT2681</name></trkpt>
<trkpt lat="53.403465" lon="-1.898776"><ele>587</ele><time>2021-10-07T11:50:14Z</time><name>PT2682</name></trkpt>
<trkpt lat="53.403463" lon="-1.898761"><ele>587</ele><time>2021-10-07T11:50:15Z</time><name>PT2683</name></trkpt>
<trkpt lat="53.403462" lon="-1.898748"><ele>588</ele><time>2021-10-07T11:50:16Z</time><name>PT2684</name></trkpt>
<trkpt lat="53.403460" lon="-1.898734"><ele>588</ele><time>2021-10-07T11:50:17Z</time><name>PT2685</name></trkpt>
<trkpt lat="53.403458" lon="-1.898726"><ele>587</ele><time>2021-10-07T11:50:18Z</time><name>PT2686</name></trkpt>
<trkpt lat="53.403453" lon="-1.898713"><ele>588</ele><time>2021-10-07T11:50:19Z</time><name>PT2687</name></trkpt>
<trkpt lat="53.403446" lon="-1.898694"><ele>588</ele><time>2021-10-07T11:50:20Z</time><name>PT2688</name></trkpt>
<trkpt lat="53.403442" lon="-1.898682"><ele>588</ele><time>2021-10-07T11:50:21Z</time><name>PT2689</name></trkpt>
<trkpt lat="53.403440" lon="-1.898667"><ele>588</ele><time>2021-10-07T11:50:22Z</time><name>PT2690</name></trkpt>
<trkpt lat="53.403422" lon="-1.898629"><ele>589</ele><time>2021-10-07T11:50:25Z</time><name>PT2691</name></trkpt>
<trkpt lat="53.403400" lon="-1.898575"><ele>589</ele><time>2021-10-07T11:50:29Z</time><name>PT2692</name></trkpt>
<trkpt lat="53.403388" lon="-1.898533"><ele>589</ele><time>2021-10-07T11:50:33Z</time><name>PT2693</name></trkpt>
<trkpt lat="53.403379" lon="-1.898481"><ele>590</ele><time>2021-10-07T11:50:36Z</time><name>PT2694</name></trkpt>
<trkpt lat="53.403365" lon="-1.898425"><ele>590</ele><time>2021-10-07T11:50:40Z</time><name>PT2695</name></trkpt>
<trkpt lat="53.403345" lon="-1.898355"><ele>590</ele><time>2021-10-07T11:50:44Z</time><name>PT2696</name></trkpt>
<trkpt lat="53.403325" lon="-1.898285"><ele>591</ele><time>2021-10-07T11:50:48Z</time><name>PT2697</name></trkpt>
<trkpt lat="53.403313" lon="-1.898228"><ele>591</ele><time>2021-10-07T11:50:51Z</time><name>PT2698</name></trkpt>
<trkpt lat="53.403296" lon="-1.898149"><ele>591</ele><time>2021-10-07T11:50:55Z</time><name>PT2699</name></trkpt>
<trkpt lat="53.403284" lon="-1.898071"><ele>590</ele><time>2021-10-07T11:50:59Z</time><name>PT2700</name></trkpt>
<trkpt lat="53.403273" lon="-1.898001"><ele>590</ele><time>2021-10-07T11:51:03Z</time><name>PT2701</name></trkpt>
<trkpt lat="53.403259" lon="-1.897936"><ele>591</ele><time>2021-10-07T11:51:07Z</time><name>PT2702</name></trkpt>
<trkpt lat="53.403238" lon="-1.897860"><ele>591</ele><time>2021-10-07T11:51:11Z</time><name>PT2703</name></trkpt>
<trkpt lat="53.403228" lon="-1.897807"><ele>592</ele><time>2021-10-07T11:51:14Z</time><name>PT2704</name></trkpt>
<trkpt lat="53.403220" lon="-1.897755"><ele>592</ele><time>2021-10-07T11:51:18Z</time><name>PT2705</name></trkpt>
<trkpt lat="53.403212" lon="-1.897681"><ele>591</ele><time>2021-10-07T11:51:21Z</time><name>PT2706</name></trkpt>
<trkpt lat="53.403199" lon="-1.897615"><ele>591</ele><time>2021-10-07T11:51:25Z</time><name>PT2707</name></trkpt>
<trkpt lat="53.403181" lon="-1.897554"><ele>591</ele><time>2021-10-07T11:51:29Z</time><name>PT2708</name></trkpt>
<trkpt lat="53.403165" lon="-1.897503"><ele>591</ele><time>2021-10-07T11:51:33Z</time><name>PT2709</name></trkpt>
<trkpt lat="53.403148" lon="-1.897438"><ele>590</ele><time>2021-10-07T11:51:37Z</time><name>PT2710</name></trkpt>
<trkpt lat="53.403135" lon="-1.897382"><ele>590</ele><time>2021-10-07T11:51:41Z</time><name>PT2711</name></trkpt>
<trkpt lat="53.403119" lon="-1.897320"><ele>589</ele><time>2021-10-07T11:51:45Z</time><name>PT2712</name></trkpt>
<trkpt lat="53.403099" lon="-1.897265"><ele>590</ele><time>2021-10-07T11:51:49Z</time><name>PT2713</name></trkpt>
<trkpt lat="53.403088" lon="-1.897220"><ele>591</ele><time>2021-10-07T11:51:53Z</time><name>PT2714</name></trkpt>
<trkpt lat="53.403076" lon="-1.897185"><ele>591</ele><time>2021-10-07T11:51:56Z</time><name>PT2715</name></trkpt>
<trkpt lat="53.403064" lon="-1.897136"><ele>593</ele><time>2021-10-07T11:52:00Z</time><name>PT2716</name></trkpt>
<trkpt lat="53.403054" lon="-1.897089"><ele>593</ele><time>2021-10-07T11:52:04Z</time><name>PT2717</name></trkpt>
<trkpt lat="53.403043" lon="-1.897064"><ele>594</ele><time>2021-10-07T11:52:07Z</time><name>PT2718</name></trkpt>
<trkpt lat="53.403020" lon="-1.897028"><ele>594</ele><time>2021-10-07T11:52:11Z</time><name>PT2719</name></trkpt>
<trkpt lat="53.402978" lon="-1.896996"><ele>595</ele><time>2021-10-07T11:52:15Z</time><name>PT2720</name></trkpt>
<trkpt lat="53.402957" lon="-1.896957"><ele>594</ele><time>2021-10-07T11:52:19Z</time><name>PT2721</name></trkpt>
<trkpt lat="53.402933" lon="-1.896919"><ele>595</ele><time>2021-10-07T11:52:22Z</time><name>PT2722</name></trkpt>
<trkpt lat="53.402896" lon="-1.896862"><ele>595</ele><time>2021-10-07T11:52:26Z</time><name>PT2723</name></trkpt>
<trkpt lat="53.402868" lon="-1.896806"><ele>595</ele><time>2021-10-07T11:52:30Z</time><name>PT2724</name></trkpt>
<trkpt lat="53.402848" lon="-1.896758"><ele>595</ele><time>2021-10-07T11:52:33Z</time><name>PT2725</name></trkpt>
<trkpt lat="53.402838" lon="-1.896709"><ele>595</ele><time>2021-10-07T11:52:37Z</time><name>PT2726</name></trkpt>
<trkpt lat="53.402812" lon="-1.896654"><ele>595</ele><time>2021-10-07T11:52:40Z</time><name>PT2727</name></trkpt>
<trkpt lat="53.402784" lon="-1.896608"><ele>595</ele><time>2021-10-07T11:52:44Z</time><name>PT2728</name></trkpt>
<trkpt lat="53.402778" lon="-1.896560"><ele>596</ele><time>2021-10-07T11:52:48Z</time><name>PT2729</name></trkpt>
<trkpt lat="53.402757" lon="-1.896514"><ele>596</ele><time>2021-10-07T11:52:51Z</time><name>PT2730</name></trkpt>
<trkpt lat="53.402733" lon="-1.896464"><ele>596</ele><time>2021-10-07T11:52:54Z</time><name>PT2731</name></trkpt>
<trkpt lat="53.402708" lon="-1.896430"><ele>597</ele><time>2021-10-07T11:52:58Z</time><name>PT2732</name></trkpt>
<trkpt lat="53.402684" lon="-1.896383"><ele>599</ele><time>2021-10-07T11:53:02Z</time><name>PT2733</name></trkpt>
<trkpt lat="53.402664" lon="-1.896337"><ele>598</ele><time>2021-10-07T11:53:06Z</time><name>PT2734</name></trkpt>
<trkpt lat="53.402642" lon="-1.896301"><ele>598</ele><time>2021-10-07T11:53:09Z</time><name>PT2735</name></trkpt>
<trkpt lat="53.402624" lon="-1.896236"><ele>598</ele><time>2021-10-07T11:53:13Z</time><name>PT2736</name></trkpt>
<trkpt lat="53.402601" lon="-1.896179"><ele>597</ele><time>2021-10-07T11:53:17Z</time><name>PT2737</name></trkpt>
<trkpt lat="53.402579" lon="-1.896134"><ele>596</ele><time>2021-10-07T11:53:20Z</time><name>PT2738</name></trkpt>
<trkpt lat="53.402552" lon="-1.896063"><ele>596</ele><time>2021-10-07T11:53:24Z</time><name>PT2739</name></trkpt>
<trkpt lat="53.402531" lon="-1.895992"><ele>596</ele><time>2021-10-07T11:53:28Z</time><name>PT2740</name></trkpt>
<trkpt lat="53.402512" lon="-1.895923"><ele>596</ele><time>2021-10-07T11:53:32Z</time><name>PT2741</name></trkpt>
<trkpt lat="53.402485" lon="-1.895859"><ele>596</ele><time>2021-10-07T11:53:36Z</time><name>PT2742</name></trkpt>
<trkpt lat="53.402474" lon="-1.895811"><ele>595</ele><time>2021-10-07T11:53:40Z</time><name>PT2743</name></trkpt>
<trkpt lat="53.402466" lon="-1.895742"><ele>595</ele><time>2021-10-07T11:53:43Z</time><name>PT2744</name></trkpt>
<trkpt lat="53.402431" lon="-1.895694"><ele>596</ele><time>2021-10-07T11:53:47Z</time><name>PT2745</name></trkpt>
<trkpt lat="53.402404" lon="-1.895667"><ele>598</ele><time>2021-10-07T11:53:51Z</time><name>PT2746</name></trkpt>
<trkpt lat="53.402370" lon="-1.895638"><ele>598</ele><time>2021-10-07T11:53:55Z</time><name>PT2747</name></trkpt>
<trkpt lat="53.402343" lon="-1.895615"><ele>599</ele><time>2021-10-07T11:53:59Z</time><name>PT2748</name></trkpt>
<trkpt lat="53.402307" lon="-1.895599"><ele>599</ele><time>2021-10-07T11:54:03Z</time><name>PT2749</name></trkpt>
<trkpt lat="53.402276" lon="-1.895575"><ele>600</ele><time>2021-10-07T11:54:07Z</time><name>PT2750</name></trkpt>
<trkpt lat="53.402254" lon="-1.895533"><ele>601</ele><time>2021-10-07T11:54:11Z</time><name>PT2751</name></trkpt>
<trkpt lat="53.402247" lon="-1.895487"><ele>601</ele><time>2021-10-07T11:54:16Z</time><name>PT2752</name></trkpt>
<trkpt lat="53.402240" lon="-1.895450"><ele>602</ele><time>2021-10-07T11:54:19Z</time><name>PT2753</name></trkpt>
<trkpt lat="53.402239" lon="-1.895411"><ele>603</ele><time>2021-10-07T11:54:23Z</time><name>PT2754</name></trkpt>
<trkpt lat="53.402223" lon="-1.895383"><ele>604</ele><time>2021-10-07T11:54:26Z</time><name>PT2755</name></trkpt>
<trkpt lat="53.402200" lon="-1.895343"><ele>604</ele><time>2021-10-07T11:54:30Z</time><name>PT2756</name></trkpt>
<trkpt lat="53.402171" lon="-1.895328"><ele>604</ele><time>2021-10-07T11:54:33Z</time><name>PT2757</name></trkpt>
<trkpt lat="53.402144" lon="-1.895316"><ele>603</ele><time>2021-10-07T11:54:37Z</time><name>PT2758</name></trkpt>
<trkpt lat="53.402117" lon="-1.895318"><ele>602</ele><time>2021-10-07T11:54:41Z</time><name>PT2759</name></trkpt>
<trkpt lat="53.402097" lon="-1.895314"><ele>602</ele><time>2021-10-07T11:54:45Z</time><name>PT2760</name></trkpt>
<trkpt lat="53.402074" lon="-1.895292"><ele>601</ele><time>2021-10-07T11:54:49Z</time><name>PT2761</name></trkpt>
<trkpt lat="53.402032" lon="-1.895263"><ele>602</ele><time>2021-10-07T11:54:53Z</time><name>PT2762</name></trkpt>
<trkpt lat="53.402008" lon="-1.895256"><ele>601</ele><time>2021-10-07T11:54:56Z</time><name>PT2763</name></trkpt>
<trkpt lat="53.401975" lon="-1.895258"><ele>601</ele><time>2021-10-07T11:55:00Z</time><name>PT2764</name></trkpt>
<trkpt lat="53.401931" lon="-1.895276"><ele>600</ele><time>2021-10-07T11:55:04Z</time><name>PT2765</name></trkpt>
<trkpt lat="53.401888" lon="-1.895292"><ele>601</ele><time>2021-10-07T11:55:08Z</time><name>PT2766</name></trkpt>
<trkpt lat="53.401845" lon="-1.895294"><ele>601</ele><time>2021-10-07T11:55:12Z</time><name>PT2767</name></trkpt>
<trkpt lat="53.401804" lon="-1.895285"><ele>601</ele><time>2021-10-07T11:55:16Z</time><name>PT2768</name></trkpt>
<trkpt lat="53.401767" lon="-1.895268"><ele>602</ele><time>2021-10-07T11:55:20Z</time><name>PT2769</name></trkpt>
<trkpt lat="53.401730" lon="-1.895268"><ele>601</ele><time>2021-10-07T11:55:24Z</time><name>PT2770</name></trkpt>
<trkpt lat="53.401685" lon="-1.895251"><ele>602</ele><time>2021-10-07T11:55:28Z</time><name>PT2771</name></trkpt>
<trkpt lat="53.401651" lon="-1.895251"><ele>601</ele><time>2021-10-07T11:55:32Z</time><name>PT2772</name></trkpt>
<trkpt lat="53.401600" lon="-1.895239"><ele>601</ele><time>2021-10-07T11:55:35Z</time><name>PT2773</name></trkpt>
<trkpt lat="53.401569" lon="-1.895219"><ele>601</ele><time>2021-10-07T11:55:39Z</time><name>PT2774</name></trkpt>
<trkpt lat="53.401547" lon="-1.895203"><ele>600</ele><time>2021-10-07T11:55:43Z</time><name>PT2775</name></trkpt>
<trkpt lat="53.401503" lon="-1.895190"><ele>599</ele><time>2021-10-07T11:55:47Z</time><name>PT2776</name></trkpt>
<trkpt lat="53.401469" lon="-1.895184"><ele>599</ele><time>2021-10-07T11:55:51Z</time><name>PT2777</name></trkpt>
<trkpt lat="53.401446" lon="-1.895184"><ele>598</ele><time>2021-10-07T11:55:55Z</time><name>PT2778</name></trkpt>
<trkpt lat="53.401422" lon="-1.895175"><ele>598</ele><time>2021-10-07T11:55:58Z</time><name>PT2779</name></trkpt>
<trkpt lat="53.401391" lon="-1.895155"><ele>598</ele><time>2021-10-07T11:56:02Z</time><name>PT2780</name></trkpt>
<trkpt lat="53.401358" lon="-1.895132"><ele>598</ele><time>2021-10-07T11:56:06Z</time><name>PT2781</name></trkpt>
<trkpt lat="53.401321" lon="-1.895116"><ele>598</ele><time>2021-10-07T11:56:10Z</time><name>PT2782</name></trkpt>
<trkpt lat="53.401275" lon="-1.895110"><ele>597</ele><time>2021-10-07T11:56:14Z</time><name>PT2783</name></trkpt>
<trkpt lat="53.401247" lon="-1.895107"><ele>598</ele><time>2021-10-07T11:56:18Z</time><name>PT2784</name></trkpt>
<trkpt lat="53.401217" lon="-1.895117"><ele>598</ele><time>2021-10-07T11:56:22Z</time><name>PT2785</name></trkpt>
<trkpt lat="53.401181" lon="-1.895129"><ele>598</ele><time>2021-10-07T11:56:26Z</time><name>PT2786</name></trkpt>
<trkpt lat="53.401143" lon="-1.895147"><ele>598</ele><time>2021-10-07T11:56:30Z</time><name>PT2787</name></trkpt>
<trkpt lat="53.401108" lon="-1.895186"><ele>599</ele><time>2021-10-07T11:56:34Z</time><name>PT2788</name></trkpt>
<trkpt lat="53.401081" lon="-1.895224"><ele>599</ele><time>2021-10-07T11:56:37Z</time><name>PT2789</name></trkpt>
<trkpt lat="53.401049" lon="-1.895247"><ele>597</ele><time>2021-10-07T11:56:41Z</time><name>PT2790</name></trkpt>
<trkpt lat="53.401007" lon="-1.895278"><ele>597</ele><time>2021-10-07T11:56:45Z</time><name>PT2791</name></trkpt>
<trkpt lat="53.400980" lon="-1.895294"><ele>597</ele><time>2021-10-07T11:56:48Z</time><name>PT2792</name></trkpt>
<trkpt lat="53.400935" lon="-1.895319"><ele>597</ele><time>2021-10-07T11:56:52Z</time><name>PT2793</name></trkpt>
<trkpt lat="53.400910" lon="-1.895315"><ele>598</ele><time>2021-10-07T11:56:55Z</time><name>PT2794</name></trkpt>
<trkpt lat="53.400867" lon="-1.895310"><ele>598</ele><time>2021-10-07T11:56:59Z</time><name>PT2795</name></trkpt>
<trkpt lat="53.400818" lon="-1.895297"><ele>599</ele><time>2021-10-07T11:57:03Z</time><name>PT2796</name></trkpt>
<trkpt lat="53.400786" lon="-1.895299"><ele>599</ele><time>2021-10-07T11:57:07Z</time><name>PT2797</name></trkpt>
<trkpt lat="53.400738" lon="-1.895295"><ele>599</ele><time>2021-10-07T11:57:10Z</time><name>PT2798</name></trkpt>
<trkpt lat="53.400702" lon="-1.895305"><ele>599</ele><time>2021-10-07T11:57:14Z</time><name>PT2799</name></trkpt>
<trkpt lat="53.400666" lon="-1.895288"><ele>599</ele><time>2021-10-07T11:57:18Z</time><name>PT2800</name></trkpt>
<trkpt lat="53.400622" lon="-1.895287"><ele>600</ele><time>2021-10-07T11:57:22Z</time><name>PT2801</name></trkpt>
<trkpt lat="53.400590" lon="-1.895286"><ele>600</ele><time>2021-10-07T11:57:25Z</time><name>PT2802</name></trkpt>
<trkpt lat="53.400556" lon="-1.895285"><ele>600</ele><time>2021-10-07T11:57:29Z</time><name>PT2803</name></trkpt>
<trkpt lat="53.400541" lon="-1.895271"><ele>601</ele><time>2021-10-07T11:57:33Z</time><name>PT2804</name></trkpt>
<trkpt lat="53.400527" lon="-1.895241"><ele>602</ele><time>2021-10-07T11:57:37Z</time><name>PT2805</name></trkpt>
<trkpt lat="53.400518" lon="-1.895226"><ele>602</ele><time>2021-10-07T11:57:41Z</time><name>PT2806</name></trkpt>
<trkpt lat="53.400519" lon="-1.895229"><ele>602</ele><time>2021-10-07T11:57:45Z</time><name>PT2807</name></trkpt>
<trkpt lat="53.400519" lon="-1.895237"><ele>603</ele><time>2021-10-07T11:57:49Z</time><name>PT2808</name></trkpt>
<trkpt lat="53.400519" lon="-1.895236"><ele>602</ele><time>2021-10-07T11:57:53Z</time><name>PT2809</name></trkpt>
<trkpt lat="53.400525" lon="-1.895167"><ele>602</ele><time>2021-10-07T11:57:56Z</time><name>PT2810</name></trkpt>
<trkpt lat="53.400528" lon="-1.895092"><ele>601</ele><time>2021-10-07T11:58:00Z</time><name>PT2811</name></trkpt>
<trkpt lat="53.400530" lon="-1.895033"><ele>601</ele><time>2021-10-07T11:58:04Z</time><name>PT2812</name></trkpt>
<trkpt lat="53.400528" lon="-1.895022"><ele>601</ele><time>2021-10-07T11:58:05Z</time><name>PT2813</name></trkpt>
<trkpt lat="53.400530" lon="-1.895014"><ele>601</ele><time>2021-10-07T11:58:06Z</time><name>PT2814</name></trkpt>
<trkpt lat="53.400531" lon="-1.895012"><ele>602</ele><time>2021-10-07T11:58:07Z</time><name>PT2815</name></trkpt>
<trkpt lat="53.400531" lon="-1.895014"><ele>602</ele><time>2021-10-07T11:58:08Z</time><name>PT2816</name></trkpt>
<trkpt lat="53.400530" lon="-1.895007"><ele>602</ele><time>2021-10-07T11:58:21Z</time><name>PT2817</name></trkpt>
<trkpt lat="53.400533" lon="-1.894987"><ele>602</ele><time>2021-10-07T11:58:22Z</time><name>PT2818</name></trkpt>
<trkpt lat="53.400533" lon="-1.894964"><ele>602</ele><time>2021-10-07T11:58:23Z</time><name>PT2819</name></trkpt>
<trkpt lat="53.400534" lon="-1.894941"><ele>601</ele><time>2021-10-07T11:58:24Z</time><name>PT2820</name></trkpt>
<trkpt lat="53.400538" lon="-1.894920"><ele>601</ele><time>2021-10-07T11:58:25Z</time><name>PT2821</name></trkpt>
<trkpt lat="53.400542" lon="-1.894900"><ele>601</ele><time>2021-10-07T11:58:26Z</time><name>PT2822</name></trkpt>
<trkpt lat="53.400546" lon="-1.894873"><ele>601</ele><time>2021-10-07T11:58:27Z</time><name>PT2823</name></trkpt>
<trkpt lat="53.400551" lon="-1.894839"><ele>601</ele><time>2021-10-07T11:58:28Z</time><name>PT2824</name></trkpt>
<trkpt lat="53.400556" lon="-1.894822"><ele>601</ele><time>2021-10-07T11:58:29Z</time><name>PT2825</name></trkpt>
<trkpt lat="53.400562" lon="-1.894798"><ele>601</ele><time>2021-10-07T11:58:30Z</time><name>PT2826</name></trkpt>
<trkpt lat="53.400568" lon="-1.894779"><ele>601</ele><time>2021-10-07T11:58:31Z</time><name>PT2827</name></trkpt>
<trkpt lat="53.400573" lon="-1.894756"><ele>600</ele><time>2021-10-07T11:58:32Z</time><name>PT2828</name></trkpt>
<trkpt lat="53.400578" lon="-1.894736"><ele>601</ele><time>2021-10-07T11:58:33Z</time><name>PT2829</name></trkpt>
<trkpt lat="53.400584" lon="-1.894710"><ele>601</ele><time>2021-10-07T11:58:34Z</time><name>PT2830</name></trkpt>
<trkpt lat="53.400587" lon="-1.894687"><ele>601</ele><time>2021-10-07T11:58:35Z</time><name>PT2831</name></trkpt>
<trkpt lat="53.400591" lon="-1.894667"><ele>601</ele><time>2021-10-07T11:58:36Z</time><name>PT2832</name></trkpt>
<trkpt lat="53.400595" lon="-1.894648"><ele>600</ele><time>2021-10-07T11:58:37Z</time><name>PT2833</name></trkpt>
<trkpt lat="53.400600" lon="-1.894631"><ele>600</ele><time>2021-10-07T11:58:38Z</time><name>PT2834</name></trkpt>
<trkpt lat="53.400603" lon="-1.894609"><ele>600</ele><time>2021-10-07T11:58:39Z</time><name>PT2835</name></trkpt>
<trkpt lat="53.400600" lon="-1.894587"><ele>600</ele><time>2021-10-07T11:58:40Z</time><name>PT2836</name></trkpt>
<trkpt lat="53.400597" lon="-1.894564"><ele>599</ele><time>2021-10-07T11:58:41Z</time><name>PT2837</name></trkpt>
<trkpt lat="53.400595" lon="-1.894546"><ele>599</ele><time>2021-10-07T11:58:42Z</time><name>PT2838</name></trkpt>
<trkpt lat="53.400591" lon="-1.894528"><ele>599</ele><time>2021-10-07T11:58:43Z</time><name>PT2839</name></trkpt>
<trkpt lat="53.400589" lon="-1.894509"><ele>599</ele><time>2021-10-07T11:58:44Z</time><name>PT2840</name></trkpt>
<trkpt lat="53.400590" lon="-1.894489"><ele>599</ele><time>2021-10-07T11:58:45Z</time><name>PT2841</name></trkpt>
<trkpt lat="53.400590" lon="-1.894474"><ele>600</ele><time>2021-10-07T11:58:46Z</time><name>PT2842</name></trkpt>
<trkpt lat="53.400589" lon="-1.894457"><ele>600</ele><time>2021-10-07T11:58:47Z</time><name>PT2843</name></trkpt>
<trkpt lat="53.400591" lon="-1.894443"><ele>601</ele><time>2021-10-07T11:58:48Z</time><name>PT2844</name></trkpt>
<trkpt lat="53.400592" lon="-1.894428"><ele>601</ele><time>2021-10-07T11:58:49Z</time><name>PT2845</name></trkpt>
<trkpt lat="53.400593" lon="-1.894415"><ele>601</ele><time>2021-10-07T11:58:50Z</time><name>PT2846</name></trkpt>
<trkpt lat="53.400593" lon="-1.894406"><ele>601</ele><time>2021-10-07T11:58:51Z</time><name>PT2847</name></trkpt>
<trkpt lat="53.400593" lon="-1.894403"><ele>601</ele><time>2021-10-07T11:58:52Z</time><name>PT2848</name></trkpt>
<trkpt lat="53.400593" lon="-1.894407"><ele>600</ele><time>2021-10-07T11:58:53Z</time><name>PT2849</name></trkpt>
<trkpt lat="53.400596" lon="-1.894394"><ele>600</ele><time>2021-10-07T11:59:03Z</time><name>PT2850</name></trkpt>
<trkpt lat="53.400595" lon="-1.894380"><ele>601</ele><time>2021-10-07T11:59:04Z</time><name>PT2851</name></trkpt>
<trkpt lat="53.400598" lon="-1.894366"><ele>601</ele><time>2021-10-07T11:59:05Z</time><name>PT2852</name></trkpt>
<trkpt lat="53.400600" lon="-1.894354"><ele>601</ele><time>2021-10-07T11:59:06Z</time><name>PT2853</name></trkpt>
<trkpt lat="53.400602" lon="-1.894333"><ele>602</ele><time>2021-10-07T11:59:07Z</time><name>PT2854</name></trkpt>
<trkpt lat="53.400606" lon="-1.894318"><ele>602</ele><time>2021-10-07T11:59:08Z</time><name>PT2855</name></trkpt>
<trkpt lat="53.400607" lon="-1.894305"><ele>602</ele><time>2021-10-07T11:59:09Z</time><name>PT2856</name></trkpt>
<trkpt lat="53.400609" lon="-1.894292"><ele>602</ele><time>2021-10-07T11:59:10Z</time><name>PT2857</name></trkpt>
<trkpt lat="53.400604" lon="-1.894275"><ele>602</ele><time>2021-10-07T11:59:11Z</time><name>PT2858</name></trkpt>
<trkpt lat="53.400606" lon="-1.894260"><ele>602</ele><time>2021-10-07T11:59:12Z</time><name>PT2859</name></trkpt>
<trkpt lat="53.400606" lon="-1.894245"><ele>602</ele><time>2021-10-07T11:59:13Z</time><name>PT2860</name></trkpt>
<trkpt lat="53.400606" lon="-1.894226"><ele>602</ele><time>2021-10-07T11:59:14Z</time><name>PT2861</name></trkpt>
<trkpt lat="53.400609" lon="-1.894214"><ele>602</ele><time>2021-10-07T11:59:15Z</time><name>PT2862</name></trkpt>
<trkpt lat="53.400613" lon="-1.894199"><ele>602</ele><time>2021-10-07T11:59:16Z</time><name>PT2863</name></trkpt>
<trkpt lat="53.400616" lon="-1.894182"><ele>602</ele><time>2021-10-07T11:59:17Z</time><name>PT2864</name></trkpt>
<trkpt lat="53.400615" lon="-1.894168"><ele>602</ele><time>2021-10-07T11:59:18Z</time><name>PT2865</name></trkpt>
<trkpt lat="53.400615" lon="-1.894159"><ele>603</ele><time>2021-10-07T11:59:19Z</time><name>PT2866</name></trkpt>
<trkpt lat="53.400614" lon="-1.894145"><ele>603</ele><time>2021-10-07T11:59:20Z</time><name>PT2867</name></trkpt>
<trkpt lat="53.400612" lon="-1.894124"><ele>604</ele><time>2021-10-07T11:59:21Z</time><name>PT2868</name></trkpt>
<trkpt lat="53.400614" lon="-1.894108"><ele>603</ele><time>2021-10-07T11:59:22Z</time><name>PT2869</name></trkpt>
<trkpt lat="53.400617" lon="-1.894091"><ele>603</ele><time>2021-10-07T11:59:23Z</time><name>PT2870</name></trkpt>
<trkpt lat="53.400619" lon="-1.894075"><ele>604</ele><time>2021-10-07T11:59:24Z</time><name>PT2871</name></trkpt>
<trkpt lat="53.400621" lon="-1.894057"><ele>604</ele><time>2021-10-07T11:59:25Z</time><name>PT2872</name></trkpt>
<trkpt lat="53.400623" lon="-1.894038"><ele>604</ele><time>2021-10-07T11:59:26Z</time><name>PT2873</name></trkpt>
<trkpt lat="53.400624" lon="-1.894021"><ele>604</ele><time>2021-10-07T11:59:27Z</time><name>PT2874</name></trkpt>
<trkpt lat="53.400624" lon="-1.894003"><ele>604</ele><time>2021-10-07T11:59:28Z</time><name>PT2875</name></trkpt>
<trkpt lat="53.400622" lon="-1.893989"><ele>603</ele><time>2021-10-07T11:59:29Z</time><name>PT2876</name></trkpt>
<trkpt lat="53.400620" lon="-1.893975"><ele>603</ele><time>2021-10-07T11:59:30Z</time><name>PT2877</name></trkpt>
<trkpt lat="53.400619" lon="-1.893962"><ele>603</ele><time>2021-10-07T11:59:31Z</time><name>PT2878</name></trkpt>
<trkpt lat="53.400615" lon="-1.893950"><ele>603</ele><time>2021-10-07T11:59:32Z</time><name>PT2879</name></trkpt>
<trkpt lat="53.400613" lon="-1.893938"><ele>604</ele><time>2021-10-07T11:59:33Z</time><name>PT2880</name></trkpt>
<trkpt lat="53.400612" lon="-1.893930"><ele>604</ele><time>2021-10-07T11:59:34Z</time><name>PT2881</name></trkpt>
<trkpt lat="53.400613" lon="-1.893917"><ele>604</ele><time>2021-10-07T11:59:35Z</time><name>PT2882</name></trkpt>
<trkpt lat="53.400612" lon="-1.893904"><ele>604</ele><time>2021-10-07T11:59:37Z</time><name>PT2883</name></trkpt>
<trkpt lat="53.400612" lon="-1.893889"><ele>604</ele><time>2021-10-07T11:59:37Z</time><name>PT2884</name></trkpt>
<trkpt lat="53.400610" lon="-1.893874"><ele>605</ele><time>2021-10-07T11:59:38Z</time><name>PT2885</name></trkpt>
<trkpt lat="53.400605" lon="-1.893860"><ele>605</ele><time>2021-10-07T11:59:39Z</time><name>PT2886</name></trkpt>
<trkpt lat="53.400598" lon="-1.893843"><ele>605</ele><time>2021-10-07T11:59:40Z</time><name>PT2887</name></trkpt>
<trkpt lat="53.400591" lon="-1.893824"><ele>605</ele><time>2021-10-07T11:59:41Z</time><name>PT2888</name></trkpt>
<trkpt lat="53.400586" lon="-1.893798"><ele>605</ele><time>2021-10-07T11:59:42Z</time><name>PT2889</name></trkpt>
<trkpt lat="53.400581" lon="-1.893778"><ele>605</ele><time>2021-10-07T11:59:43Z</time><name>PT2890</name></trkpt>
<trkpt lat="53.400576" lon="-1.893762"><ele>606</ele><time>2021-10-07T11:59:44Z</time><name>PT2891</name></trkpt>
<trkpt lat="53.400575" lon="-1.893749"><ele>606</ele><time>2021-10-07T11:59:45Z</time><name>PT2892</name></trkpt>
<trkpt lat="53.400574" lon="-1.893737"><ele>606</ele><time>2021-10-07T11:59:46Z</time><name>PT2893</name></trkpt>
<trkpt lat="53.400573" lon="-1.893725"><ele>606</ele><time>2021-10-07T11:59:47Z</time><name>PT2894</name></trkpt>
<trkpt lat="53.400573" lon="-1.893711"><ele>606</ele><time>2021-10-07T11:59:48Z</time><name>PT2895</name></trkpt>
<trkpt lat="53.400573" lon="-1.893696"><ele>606</ele><time>2021-10-07T11:59:49Z</time><name>PT2896</name></trkpt>
<trkpt lat="53.400573" lon="-1.893676"><ele>607</ele><time>2021-10-07T11:59:50Z</time><name>PT2897</name></trkpt>
<trkpt lat="53.400570" lon="-1.893661"><ele>606</ele><time>2021-10-07T11:59:51Z</time><name>PT2898</name></trkpt>
<trkpt lat="53.400566" lon="-1.893642"><ele>607</ele><time>2021-10-07T11:59:52Z</time><name>PT2899</name></trkpt>
<trkpt lat="53.400561" lon="-1.893630"><ele>606</ele><time>2021-10-07T11:59:53Z</time><name>PT2900</name></trkpt>
<trkpt lat="53.400556" lon="-1.893607"><ele>606</ele><time>2021-10-07T11:59:54Z</time><name>PT2901</name></trkpt>
<trkpt lat="53.400555" lon="-1.893590"><ele>606</ele><time>2021-10-07T11:59:55Z</time><name>PT2902</name></trkpt>
<trkpt lat="53.400553" lon="-1.893575"><ele>606</ele><time>2021-10-07T11:59:56Z</time><name>PT2903</name></trkpt>
<trkpt lat="53.400548" lon="-1.893556"><ele>606</ele><time>2021-10-07T11:59:57Z</time><name>PT2904</name></trkpt>
<trkpt lat="53.400545" lon="-1.893537"><ele>607</ele><time>2021-10-07T11:59:58Z</time><name>PT2905</name></trkpt>
<trkpt lat="53.400541" lon="-1.893522"><ele>607</ele><time>2021-10-07T11:59:59Z</time><name>PT2906</name></trkpt>
<trkpt lat="53.400539" lon="-1.893505"><ele>607</ele><time>2021-10-07T12:00:00Z</time><name>PT2907</name></trkpt>
<trkpt lat="53.400537" lon="-1.893490"><ele>607</ele><time>2021-10-07T12:00:02Z</time><name>PT2908</name></trkpt>
<trkpt lat="53.400536" lon="-1.893472"><ele>607</ele><time>2021-10-07T12:00:02Z</time><name>PT2909</name></trkpt>
<trkpt lat="53.400536" lon="-1.893458"><ele>607</ele><time>2021-10-07T12:00:03Z</time><name>PT2910</name></trkpt>
<trkpt lat="53.400535" lon="-1.893445"><ele>607</ele><time>2021-10-07T12:00:04Z</time><name>PT2911</name></trkpt>
<trkpt lat="53.400532" lon="-1.893406"><ele>607</ele><time>2021-10-07T12:00:07Z</time><name>PT2912</name></trkpt>
<trkpt lat="53.400510" lon="-1.893340"><ele>608</ele><time>2021-10-07T12:00:11Z</time><name>PT2913</name></trkpt>
<trkpt lat="53.400483" lon="-1.893286"><ele>608</ele><time>2021-10-07T12:00:15Z</time><name>PT2914</name></trkpt>
<trkpt lat="53.400456" lon="-1.893234"><ele>609</ele><time>2021-10-07T12:00:19Z</time><name>PT2915</name></trkpt>
<trkpt lat="53.400428" lon="-1.893182"><ele>609</ele><time>2021-10-07T12:00:23Z</time><name>PT2916</name></trkpt>
<trkpt lat="53.400398" lon="-1.893136"><ele>610</ele><time>2021-10-07T12:00:27Z</time><name>PT2917</name></trkpt>
<trkpt lat="53.400372" lon="-1.893073"><ele>609</ele><time>2021-10-07T12:00:31Z</time><name>PT2918</name></trkpt>
<trkpt lat="53.400353" lon="-1.893014"><ele>609</ele><time>2021-10-07T12:00:35Z</time><name>PT2919</name></trkpt>
<trkpt lat="53.400329" lon="-1.892951"><ele>609</ele><time>2021-10-07T12:00:39Z</time><name>PT2920</name></trkpt>
<trkpt lat="53.400302" lon="-1.892901"><ele>610</ele><time>2021-10-07T12:00:43Z</time><name>PT2921</name></trkpt>
<trkpt lat="53.400280" lon="-1.892847"><ele>610</ele><time>2021-10-07T12:00:47Z</time><name>PT2922</name></trkpt>
<trkpt lat="53.400269" lon="-1.892804"><ele>610</ele><time>2021-10-07T12:00:50Z</time><name>PT2923</name></trkpt>
<trkpt lat="53.400248" lon="-1.892737"><ele>610</ele><time>2021-10-07T12:00:54Z</time><name>PT2924</name></trkpt>
<trkpt lat="53.400227" lon="-1.892702"><ele>610</ele><time>2021-10-07T12:00:58Z</time><name>PT2925</name></trkpt>
<trkpt lat="53.400226" lon="-1.892692"><ele>610</ele><time>2021-10-07T12:01:02Z</time><name>PT2926</name></trkpt>
<trkpt lat="53.400218" lon="-1.892662"><ele>609</ele><time>2021-10-07T12:01:06Z</time><name>PT2927</name></trkpt>
<trkpt lat="53.400201" lon="-1.892591"><ele>609</ele><time>2021-10-07T12:01:10Z</time><name>PT2928</name></trkpt>
<trkpt lat="53.400180" lon="-1.892505"><ele>609</ele><time>2021-10-07T12:01:14Z</time><name>PT2929</name></trkpt>
<trkpt lat="53.400137" lon="-1.892466"><ele>608</ele><time>2021-10-07T12:01:18Z</time><name>PT2930</name></trkpt>
<trkpt lat="53.400102" lon="-1.892415"><ele>609</ele><time>2021-10-07T12:01:22Z</time><name>PT2931</name></trkpt>
<trkpt lat="53.400085" lon="-1.892374"><ele>610</ele><time>2021-10-07T12:01:26Z</time><name>PT2932</name></trkpt>
<trkpt lat="53.400070" lon="-1.892318"><ele>611</ele><time>2021-10-07T12:01:30Z</time><name>PT2933</name></trkpt>
<trkpt lat="53.400054" lon="-1.892262"><ele>610</ele><time>2021-10-07T12:01:34Z</time><name>PT2934</name></trkpt>
<trkpt lat="53.400033" lon="-1.892210"><ele>611</ele><time>2021-10-07T12:01:38Z</time><name>PT2935</name></trkpt>
<trkpt lat="53.400021" lon="-1.892175"><ele>611</ele><time>2021-10-07T12:01:41Z</time><name>PT2936</name></trkpt>
<trkpt lat="53.400013" lon="-1.892129"><ele>610</ele><time>2021-10-07T12:01:44Z</time><name>PT2937</name></trkpt>
<trkpt lat="53.399996" lon="-1.892082"><ele>610</ele><time>2021-10-07T12:01:48Z</time><name>PT2938</name></trkpt>
<trkpt lat="53.399979" lon="-1.892017"><ele>610</ele><time>2021-10-07T12:01:51Z</time><name>PT2939</name></trkpt>
<trkpt lat="53.399972" lon="-1.891959"><ele>610</ele><time>2021-10-07T12:01:55Z</time><name>PT2940</name></trkpt>
<trkpt lat="53.399969" lon="-1.891914"><ele>612</ele><time>2021-10-07T12:01:59Z</time><name>PT2941</name></trkpt>
<trkpt lat="53.399969" lon="-1.891875"><ele>612</ele><time>2021-10-07T12:02:02Z</time><name>PT2942</name></trkpt>
<trkpt lat="53.399975" lon="-1.891812"><ele>612</ele><time>2021-10-07T12:02:06Z</time><name>PT2943</name></trkpt>
<trkpt lat="53.399970" lon="-1.891743"><ele>613</ele><time>2021-10-07T12:02:10Z</time><name>PT2944</name></trkpt>
<trkpt lat="53.399965" lon="-1.891675"><ele>614</ele><time>2021-10-07T12:02:14Z</time><name>PT2945</name></trkpt>
<trkpt lat="53.399962" lon="-1.891610"><ele>614</ele><time>2021-10-07T12:02:17Z</time><name>PT2946</name></trkpt>
<trkpt lat="53.399963" lon="-1.891542"><ele>615</ele><time>2021-10-07T12:02:21Z</time><name>PT2947</name></trkpt>
<trkpt lat="53.399953" lon="-1.891490"><ele>616</ele><time>2021-10-07T12:02:25Z</time><name>PT2948</name></trkpt>
<trkpt lat="53.399938" lon="-1.891452"><ele>616</ele><time>2021-10-07T12:02:29Z</time><name>PT2949</name></trkpt>
<trkpt lat="53.399923" lon="-1.891387"><ele>617</ele><time>2021-10-07T12:02:32Z</time><name>PT2950</name></trkpt>
<trkpt lat="53.399910" lon="-1.891320"><ele>617</ele><time>2021-10-07T12:02:36Z</time><name>PT2951</name></trkpt>
<trkpt lat="53.399904" lon="-1.891250"><ele>618</ele><time>2021-10-07T12:02:40Z</time><name>PT2952</name></trkpt>
<trkpt lat="53.399887" lon="-1.891184"><ele>618</ele><time>2021-10-07T12:02:44Z</time><name>PT2953</name></trkpt>
<trkpt lat="53.399869" lon="-1.891126"><ele>617</ele><time>2021-10-07T12:02:47Z</time><name>PT2954</name></trkpt>
<trkpt lat="53.399846" lon="-1.891065"><ele>618</ele><time>2021-10-07T12:02:51Z</time><name>PT2955</name></trkpt>
<trkpt lat="53.399829" lon="-1.891018"><ele>618</ele><time>2021-10-07T12:02:55Z</time><name>PT2956</name></trkpt>
<trkpt lat="53.399813" lon="-1.890968"><ele>618</ele><time>2021-10-07T12:02:58Z</time><name>PT2957</name></trkpt>
<trkpt lat="53.399797" lon="-1.890913"><ele>618</ele><time>2021-10-07T12:03:02Z</time><name>PT2958</name></trkpt>
<trkpt lat="53.399774" lon="-1.890844"><ele>618</ele><time>2021-10-07T12:03:05Z</time><name>PT2959</name></trkpt>
<trkpt lat="53.399753" lon="-1.890781"><ele>618</ele><time>2021-10-07T12:03:09Z</time><name>PT2960</name></trkpt>
<trkpt lat="53.399733" lon="-1.890723"><ele>619</ele><time>2021-10-07T12:03:13Z</time><name>PT2961</name></trkpt>
<trkpt lat="53.399707" lon="-1.890643"><ele>618</ele><time>2021-10-07T12:03:17Z</time><name>PT2962</name></trkpt>
<trkpt lat="53.399696" lon="-1.890577"><ele>619</ele><time>2021-10-07T12:03:21Z</time><name>PT2963</name></trkpt>
<trkpt lat="53.399679" lon="-1.890501"><ele>618</ele><time>2021-10-07T12:03:25Z</time><name>PT2964</name></trkpt>
<trkpt lat="53.399654" lon="-1.890400"><ele>619</ele><time>2021-10-07T12:03:29Z</time><name>PT2965</name></trkpt>
<trkpt lat="53.399637" lon="-1.890337"><ele>619</ele><time>2021-10-07T12:03:33Z</time><name>PT2966</name></trkpt>
<trkpt lat="53.399625" lon="-1.890286"><ele>619</ele><time>2021-10-07T12:03:36Z</time><name>PT2967</name></trkpt>
<trkpt lat="53.399617" lon="-1.890218"><ele>618</ele><time>2021-10-07T12:03:40Z</time><name>PT2968</name></trkpt>
<trkpt lat="53.399615" lon="-1.890187"><ele>618</ele><time>2021-10-07T12:03:43Z</time><name>PT2969</name></trkpt>
<trkpt lat="53.399625" lon="-1.890135"><ele>619</ele><time>2021-10-07T12:03:47Z</time><name>PT2970</name></trkpt>
<trkpt lat="53.399628" lon="-1.890089"><ele>618</ele><time>2021-10-07T12:03:51Z</time><name>PT2971</name></trkpt>
<trkpt lat="53.399631" lon="-1.890031"><ele>618</ele><time>2021-10-07T12:03:55Z</time><name>PT2972</name></trkpt>
<trkpt lat="53.399620" lon="-1.889986"><ele>617</ele><time>2021-10-07T12:03:59Z</time><name>PT2973</name></trkpt>
<trkpt lat="53.399606" lon="-1.889933"><ele>616</ele><time>2021-10-07T12:04:03Z</time><name>PT2974</name></trkpt>
<trkpt lat="53.399583" lon="-1.889936"><ele>615</ele><time>2021-10-07T12:04:07Z</time><name>PT2975</name></trkpt>
<trkpt lat="53.399555" lon="-1.889935"><ele>612</ele><time>2021-10-07T12:04:11Z</time><name>PT2976</name></trkpt>
<trkpt lat="53.399535" lon="-1.889925"><ele>611</ele><time>2021-10-07T12:04:15Z</time><name>PT2977</name></trkpt>
<trkpt lat="53.399515" lon="-1.889893"><ele>610</ele><time>2021-10-07T12:04:19Z</time><name>PT2978</name></trkpt>
<trkpt lat="53.399505" lon="-1.889824"><ele>609</ele><time>2021-10-07T12:04:23Z</time><name>PT2979</name></trkpt>
<trkpt lat="53.399508" lon="-1.889749"><ele>608</ele><time>2021-10-07T12:04:27Z</time><name>PT2980</name></trkpt>
<trkpt lat="53.399525" lon="-1.889681"><ele>608</ele><time>2021-10-07T12:04:31Z</time><name>PT2981</name></trkpt>
<trkpt lat="53.399514" lon="-1.889649"><ele>609</ele><time>2021-10-07T12:04:35Z</time><name>PT2982</name></trkpt>
<trkpt lat="53.399511" lon="-1.889644"><ele>609</ele><time>2021-10-07T12:04:39Z</time><name>PT2983</name></trkpt>
<trkpt lat="53.399514" lon="-1.889625"><ele>609</ele><time>2021-10-07T12:04:47Z</time><name>PT2984</name></trkpt>
<trkpt lat="53.399519" lon="-1.889626"><ele>609</ele><time>2021-10-07T12:04:51Z</time><name>PT2985</name></trkpt>
<trkpt lat="53.399519" lon="-1.889573"><ele>609</ele><time>2021-10-07T12:04:55Z</time><name>PT2986</name></trkpt>
<trkpt lat="53.399521" lon="-1.889513"><ele>610</ele><time>2021-10-07T12:04:59Z</time><name>PT2987</name></trkpt>
<trkpt lat="53.399532" lon="-1.889466"><ele>609</ele><time>2021-10-07T12:05:03Z</time><name>PT2988</name></trkpt>
<trkpt lat="53.399545" lon="-1.889400"><ele>610</ele><time>2021-10-07T12:05:07Z</time><name>PT2989</name></trkpt>
<trkpt lat="53.399556" lon="-1.889336"><ele>609</ele><time>2021-10-07T12:05:11Z</time><name>PT2990</name></trkpt>
<trkpt lat="53.399569" lon="-1.889276"><ele>609</ele><time>2021-10-07T12:05:15Z</time><name>PT2991</name></trkpt>
<trkpt lat="53.399576" lon="-1.889228"><ele>609</ele><time>2021-10-07T12:05:18Z</time><name>PT2992</name></trkpt>
<trkpt lat="53.399581" lon="-1.889170"><ele>608</ele><time>2021-10-07T12:05:22Z</time><name>PT2993</name></trkpt>
<trkpt lat="53.399591" lon="-1.889123"><ele>608</ele><time>2021-10-07T12:05:26Z</time><name>PT2994</name></trkpt>
<trkpt lat="53.399603" lon="-1.889072"><ele>607</ele><time>2021-10-07T12:05:30Z</time><name>PT2995</name></trkpt>
<trkpt lat="53.399613" lon="-1.889012"><ele>608</ele><time>2021-10-07T12:05:34Z</time><name>PT2996</name></trkpt>
<trkpt lat="53.399620" lon="-1.888964"><ele>608</ele><time>2021-10-07T12:05:38Z</time><name>PT2997</name></trkpt>
<trkpt lat="53.399633" lon="-1.888902"><ele>607</ele><time>2021-10-07T12:05:42Z</time><name>PT2998</name></trkpt>
<trkpt lat="53.399641" lon="-1.888819"><ele>607</ele><time>2021-10-07T12:05:46Z</time><name>PT2999</name></trkpt>
<trkpt lat="53.399649" lon="-1.888760"><ele>607</ele><time>2021-10-07T12:05:50Z</time><name>PT3000</name></trkpt>
<trkpt lat="53.399662" lon="-1.888677"><ele>608</ele><time>2021-10-07T12:05:54Z</time><name>PT3001</name></trkpt>
<trkpt lat="53.399667" lon="-1.888587"><ele>608</ele><time>2021-10-07T12:05:58Z</time><name>PT3002</name></trkpt>
<trkpt lat="53.399665" lon="-1.888511"><ele>608</ele><time>2021-10-07T12:06:02Z</time><name>PT3003</name></trkpt>
<trkpt lat="53.399659" lon="-1.888434"><ele>608</ele><time>2021-10-07T12:06:06Z</time><name>PT3004</name></trkpt>
<trkpt lat="53.399653" lon="-1.888349"><ele>608</ele><time>2021-10-07T12:06:10Z</time><name>PT3005</name></trkpt>
<trkpt lat="53.399657" lon="-1.888274"><ele>607</ele><time>2021-10-07T12:06:14Z</time><name>PT3006</name></trkpt>
<trkpt lat="53.399655" lon="-1.888214"><ele>606</ele><time>2021-10-07T12:06:18Z</time><name>PT3007</name></trkpt>
<trkpt lat="53.399651" lon="-1.888143"><ele>606</ele><time>2021-10-07T12:06:22Z</time><name>PT3008</name></trkpt>
<trkpt lat="53.399642" lon="-1.888054"><ele>605</ele><time>2021-10-07T12:06:26Z</time><name>PT3009</name></trkpt>
<trkpt lat="53.399637" lon="-1.887987"><ele>605</ele><time>2021-10-07T12:06:30Z</time><name>PT3010</name></trkpt>
<trkpt lat="53.399630" lon="-1.887912"><ele>604</ele><time>2021-10-07T12:06:34Z</time><name>PT3011</name></trkpt>
<trkpt lat="53.399620" lon="-1.887830"><ele>603</ele><time>2021-10-07T12:06:38Z</time><name>PT3012</name></trkpt>
<trkpt lat="53.399603" lon="-1.887763"><ele>603</ele><time>2021-10-07T12:06:42Z</time><name>PT3013</name></trkpt>
<trkpt lat="53.399591" lon="-1.887705"><ele>602</ele><time>2021-10-07T12:06:46Z</time><name>PT3014</name></trkpt>
<trkpt lat="53.399574" lon="-1.887657"><ele>601</ele><time>2021-10-07T12:06:50Z</time><name>PT3015</name></trkpt>
<trkpt lat="53.399557" lon="-1.887600"><ele>601</ele><time>2021-10-07T12:06:54Z</time><name>PT3016</name></trkpt>
<trkpt lat="53.399545" lon="-1.887533"><ele>601</ele><time>2021-10-07T12:06:58Z</time><name>PT3017</name></trkpt>
<trkpt lat="53.399521" lon="-1.887457"><ele>600</ele><time>2021-10-07T12:07:02Z</time><name>PT3018</name></trkpt>
<trkpt lat="53.399499" lon="-1.887385"><ele>600</ele><time>2021-10-07T12:07:06Z</time><name>PT3019</name></trkpt>
<trkpt lat="53.399476" lon="-1.887324"><ele>600</ele><time>2021-10-07T12:07:10Z</time><name>PT3020</name></trkpt>
<trkpt lat="53.399449" lon="-1.887262"><ele>600</ele><time>2021-10-07T12:07:14Z</time><name>PT3021</name></trkpt>
<trkpt lat="53.399436" lon="-1.887195"><ele>601</ele><time>2021-10-07T12:07:18Z</time><name>PT3022</name></trkpt>
<trkpt lat="53.399424" lon="-1.887136"><ele>602</ele><time>2021-10-07T12:07:22Z</time><name>PT3023</name></trkpt>
<trkpt lat="53.399417" lon="-1.887086"><ele>601</ele><time>2021-10-07T12:07:26Z</time><name>PT3024</name></trkpt>
<trkpt lat="53.399398" lon="-1.887019"><ele>601</ele><time>2021-10-07T12:07:30Z</time><name>PT3025</name></trkpt>
<trkpt lat="53.399381" lon="-1.886958"><ele>602</ele><time>2021-10-07T12:07:34Z</time><name>PT3026</name></trkpt>
<trkpt lat="53.399368" lon="-1.886920"><ele>601</ele><time>2021-10-07T12:07:37Z</time><name>PT3027</name></trkpt>
<trkpt lat="53.399345" lon="-1.886871"><ele>602</ele><time>2021-10-07T12:07:41Z</time><name>PT3028</name></trkpt>
<trkpt lat="53.399319" lon="-1.886825"><ele>601</ele><time>2021-10-07T12:07:45Z</time><name>PT3029</name></trkpt>
<trkpt lat="53.399304" lon="-1.886766"><ele>601</ele><time>2021-10-07T12:07:49Z</time><name>PT3030</name></trkpt>
<trkpt lat="53.399295" lon="-1.886728"><ele>603</ele><time>2021-10-07T12:07:53Z</time><name>PT3031</name></trkpt>
<trkpt lat="53.399286" lon="-1.886708"><ele>604</ele><time>2021-10-07T12:07:57Z</time><name>PT3032</name></trkpt>
<trkpt lat="53.399289" lon="-1.886659"><ele>605</ele><time>2021-10-07T12:08:01Z</time><name>PT3033</name></trkpt>
<trkpt lat="53.399295" lon="-1.886614"><ele>605</ele><time>2021-10-07T12:08:05Z</time><name>PT3034</name></trkpt>
<trkpt lat="53.399293" lon="-1.886580"><ele>606</ele><time>2021-10-07T12:08:09Z</time><name>PT3035</name></trkpt>
<trkpt lat="53.399273" lon="-1.886510"><ele>605</ele><time>2021-10-07T12:08:13Z</time><name>PT3036</name></trkpt>
<trkpt lat="53.399253" lon="-1.886450"><ele>603</ele><time>2021-10-07T12:08:17Z</time><name>PT3037</name></trkpt>
<trkpt lat="53.399239" lon="-1.886385"><ele>605</ele><time>2021-10-07T12:08:21Z</time><name>PT3038</name></trkpt>
<trkpt lat="53.399224" lon="-1.886322"><ele>606</ele><time>2021-10-07T12:08:25Z</time><name>PT3039</name></trkpt>
<trkpt lat="53.399216" lon="-1.886262"><ele>607</ele><time>2021-10-07T12:08:29Z</time><name>PT3040</name></trkpt>
<trkpt lat="53.399216" lon="-1.886205"><ele>608</ele><time>2021-10-07T12:08:33Z</time><name>PT3041</name></trkpt>
<trkpt lat="53.399208" lon="-1.886158"><ele>609</ele><time>2021-10-07T12:08:37Z</time><name>PT3042</name></trkpt>
<trkpt lat="53.399200" lon="-1.886098"><ele>610</ele><time>2021-10-07T12:08:41Z</time><name>PT3043</name></trkpt>
<trkpt lat="53.399190" lon="-1.886049"><ele>610</ele><time>2021-10-07T12:08:45Z</time><name>PT3044</name></trkpt>
<trkpt lat="53.399179" lon="-1.885986"><ele>610</ele><time>2021-10-07T12:08:49Z</time><name>PT3045</name></trkpt>
<trkpt lat="53.399145" lon="-1.885943"><ele>611</ele><time>2021-10-07T12:08:53Z</time><name>PT3046</name></trkpt>
<trkpt lat="53.399122" lon="-1.885885"><ele>610</ele><time>2021-10-07T12:08:57Z</time><name>PT3047</name></trkpt>
<trkpt lat="53.399103" lon="-1.885833"><ele>611</ele><time>2021-10-07T12:09:01Z</time><name>PT3048</name></trkpt>
<trkpt lat="53.399088" lon="-1.885763"><ele>611</ele><time>2021-10-07T12:09:04Z</time><name>PT3049</name></trkpt>
<trkpt lat="53.399054" lon="-1.885694"><ele>611</ele><time>2021-10-07T12:09:08Z</time><name>PT3050</name></trkpt>
<trkpt lat="53.399037" lon="-1.885667"><ele>612</ele><time>2021-10-07T12:09:12Z</time><name>PT3051</name></trkpt>
<trkpt lat="53.399017" lon="-1.885603"><ele>611</ele><time>2021-10-07T12:09:15Z</time><name>PT3052</name></trkpt>
<trkpt lat="53.398977" lon="-1.885571"><ele>610</ele><time>2021-10-07T12:09:19Z</time><name>PT3053</name></trkpt>
<trkpt lat="53.398945" lon="-1.885507"><ele>609</ele><time>2021-10-07T12:09:23Z</time><name>PT3054</name></trkpt>
<trkpt lat="53.398928" lon="-1.885464"><ele>609</ele><time>2021-10-07T12:09:26Z</time><name>PT3055</name></trkpt>
<trkpt lat="53.398902" lon="-1.885409"><ele>609</ele><time>2021-10-07T12:09:30Z</time><name>PT3056</name></trkpt>
<trkpt lat="53.398889" lon="-1.885342"><ele>610</ele><time>2021-10-07T12:09:34Z</time><name>PT3057</name></trkpt>
<trkpt lat="53.398871" lon="-1.885271"><ele>610</ele><time>2021-10-07T12:09:38Z</time><name>PT3058</name></trkpt>
<trkpt lat="53.398870" lon="-1.885200"><ele>611</ele><time>2021-10-07T12:09:42Z</time><name>PT3059</name></trkpt>
<trkpt lat="53.398854" lon="-1.885156"><ele>610</ele><time>2021-10-07T12:09:46Z</time><name>PT3060</name></trkpt>
<trkpt lat="53.398822" lon="-1.885088"><ele>611</ele><time>2021-10-07T12:09:49Z</time><name>PT3061</name></trkpt>
<trkpt lat="53.398802" lon="-1.885040"><ele>611</ele><time>2021-10-07T12:09:52Z</time><name>PT3062</name></trkpt>
<trkpt lat="53.398795" lon="-1.884990"><ele>613</ele><time>2021-10-07T12:09:56Z</time><name>PT3063</name></trkpt>
<trkpt lat="53.398782" lon="-1.884936"><ele>613</ele><time>2021-10-07T12:09:59Z</time><name>PT3064</name></trkpt>
<trkpt lat="53.398760" lon="-1.884871"><ele>613</ele><time>2021-10-07T12:10:02Z</time><name>PT3065</name></trkpt>
<trkpt lat="53.398738" lon="-1.884822"><ele>614</ele><time>2021-10-07T12:10:05Z</time><name>PT3066</name></trkpt>
<trkpt lat="53.398703" lon="-1.884757"><ele>613</ele><time>2021-10-07T12:10:09Z</time><name>PT3067</name></trkpt>
<trkpt lat="53.398673" lon="-1.884699"><ele>613</ele><time>2021-10-07T12:10:13Z</time><name>PT3068</name></trkpt>
<trkpt lat="53.398659" lon="-1.884654"><ele>614</ele><time>2021-10-07T12:10:17Z</time><name>PT3069</name></trkpt>
<trkpt lat="53.398635" lon="-1.884605"><ele>614</ele><time>2021-10-07T12:10:20Z</time><name>PT3070</name></trkpt>
<trkpt lat="53.398622" lon="-1.884556"><ele>614</ele><time>2021-10-07T12:10:24Z</time><name>PT3071</name></trkpt>
<trkpt lat="53.398611" lon="-1.884494"><ele>615</ele><time>2021-10-07T12:10:27Z</time><name>PT3072</name></trkpt>
<trkpt lat="53.398587" lon="-1.884445"><ele>615</ele><time>2021-10-07T12:10:30Z</time><name>PT3073</name></trkpt>
<trkpt lat="53.398569" lon="-1.884395"><ele>616</ele><time>2021-10-07T12:10:34Z</time><name>PT3074</name></trkpt>
<trkpt lat="53.398558" lon="-1.884319"><ele>616</ele><time>2021-10-07T12:10:37Z</time><name>PT3075</name></trkpt>
<trkpt lat="53.398535" lon="-1.884268"><ele>616</ele><time>2021-10-07T12:10:41Z</time><name>PT3076</name></trkpt>
<trkpt lat="53.398512" lon="-1.884215"><ele>616</ele><time>2021-10-07T12:10:45Z</time><name>PT3077</name></trkpt>
<trkpt lat="53.398490" lon="-1.884157"><ele>616</ele><time>2021-10-07T12:10:48Z</time><name>PT3078</name></trkpt>
<trkpt lat="53.398475" lon="-1.884092"><ele>616</ele><time>2021-10-07T12:10:52Z</time><name>PT3079</name></trkpt>
<trkpt lat="53.398451" lon="-1.884026"><ele>615</ele><time>2021-10-07T12:10:56Z</time><name>PT3080</name></trkpt>
<trkpt lat="53.398443" lon="-1.883973"><ele>615</ele><time>2021-10-07T12:10:59Z</time><name>PT3081</name></trkpt>
<trkpt lat="53.398424" lon="-1.883909"><ele>615</ele><time>2021-10-07T12:11:04Z</time><name>PT3082</name></trkpt>
<trkpt lat="53.398420" lon="-1.883844"><ele>614</ele><time>2021-10-07T12:11:07Z</time><name>PT3083</name></trkpt>
<trkpt lat="53.398429" lon="-1.883803"><ele>615</ele><time>2021-10-07T12:11:10Z</time><name>PT3084</name></trkpt>
<trkpt lat="53.398426" lon="-1.883753"><ele>613</ele><time>2021-10-07T12:11:13Z</time><name>PT3085</name></trkpt>
<trkpt lat="53.398424" lon="-1.883707"><ele>613</ele><time>2021-10-07T12:11:17Z</time><name>PT3086</name></trkpt>
<trkpt lat="53.398396" lon="-1.883642"><ele>612</ele><time>2021-10-07T12:11:20Z</time><name>PT3087</name></trkpt>
<trkpt lat="53.398366" lon="-1.883586"><ele>611</ele><time>2021-10-07T12:11:24Z</time><name>PT3088</name></trkpt>
<trkpt lat="53.398350" lon="-1.883537"><ele>611</ele><time>2021-10-07T12:11:27Z</time><name>PT3089</name></trkpt>
<trkpt lat="53.398344" lon="-1.883491"><ele>610</ele><time>2021-10-07T12:11:30Z</time><name>PT3090</name></trkpt>
<trkpt lat="53.398340" lon="-1.883435"><ele>609</ele><time>2021-10-07T12:11:34Z</time><name>PT3091</name></trkpt>
<trkpt lat="53.398320" lon="-1.883391"><ele>609</ele><time>2021-10-07T12:11:37Z</time><name>PT3092</name></trkpt>
<trkpt lat="53.398297" lon="-1.883349"><ele>609</ele><time>2021-10-07T12:11:40Z</time><name>PT3093</name></trkpt>
<trkpt lat="53.398268" lon="-1.883303"><ele>609</ele><time>2021-10-07T12:11:44Z</time><name>PT3094</name></trkpt>
<trkpt lat="53.398241" lon="-1.883248"><ele>608</ele><time>2021-10-07T12:11:48Z</time><name>PT3095</name></trkpt>
<trkpt lat="53.398222" lon="-1.883184"><ele>608</ele><time>2021-10-07T12:11:52Z</time><name>PT3096</name></trkpt>
<trkpt lat="53.398211" lon="-1.883104"><ele>607</ele><time>2021-10-07T12:11:56Z</time><name>PT3097</name></trkpt>
<trkpt lat="53.398186" lon="-1.883051"><ele>607</ele><time>2021-10-07T12:12:00Z</time><name>PT3098</name></trkpt>
<trkpt lat="53.398172" lon="-1.882993"><ele>608</ele><time>2021-10-07T12:12:03Z</time><name>PT3099</name></trkpt>
<trkpt lat="53.398146" lon="-1.882941"><ele>608</ele><time>2021-10-07T12:12:07Z</time><name>PT3100</name></trkpt>
<trkpt lat="53.398123" lon="-1.882906"><ele>608</ele><time>2021-10-07T12:12:11Z</time><name>PT3101</name></trkpt>
<trkpt lat="53.398099" lon="-1.882853"><ele>609</ele><time>2021-10-07T12:12:14Z</time><name>PT3102</name></trkpt>
<trkpt lat="53.398076" lon="-1.882799"><ele>609</ele><time>2021-10-07T12:12:18Z</time><name>PT3103</name></trkpt>
<trkpt lat="53.398055" lon="-1.882743"><ele>610</ele><time>2021-10-07T12:12:22Z</time><name>PT3104</name></trkpt>
<trkpt lat="53.398040" lon="-1.882683"><ele>609</ele><time>2021-10-07T12:12:26Z</time><name>PT3105</name></trkpt>
<trkpt lat="53.398035" lon="-1.882613"><ele>608</ele><time>2021-10-07T12:12:30Z</time><name>PT3106</name></trkpt>
<trkpt lat="53.398023" lon="-1.882543"><ele>609</ele><time>2021-10-07T12:12:34Z</time><name>PT3107</name></trkpt>
<trkpt lat="53.398002" lon="-1.882488"><ele>608</ele><time>2021-10-07T12:12:38Z</time><name>PT3108</name></trkpt>
<trkpt lat="53.397988" lon="-1.882441"><ele>609</ele><time>2021-10-07T12:12:41Z</time><name>PT3109</name></trkpt>
<trkpt lat="53.397966" lon="-1.882401"><ele>608</ele><time>2021-10-07T12:12:45Z</time><name>PT3110</name></trkpt>
<trkpt lat="53.397957" lon="-1.882361"><ele>608</ele><time>2021-10-07T12:12:48Z</time><name>PT3111</name></trkpt>
<trkpt lat="53.397940" lon="-1.882316"><ele>607</ele><time>2021-10-07T12:12:51Z</time><name>PT3112</name></trkpt>
<trkpt lat="53.397937" lon="-1.882274"><ele>608</ele><time>2021-10-07T12:12:54Z</time><name>PT3113</name></trkpt>
<trkpt lat="53.397920" lon="-1.882229"><ele>607</ele><time>2021-10-07T12:12:58Z</time><name>PT3114</name></trkpt>
<trkpt lat="53.397900" lon="-1.882197"><ele>606</ele><time>2021-10-07T12:13:02Z</time><name>PT3115</name></trkpt>
<trkpt lat="53.397875" lon="-1.882140"><ele>605</ele><time>2021-10-07T12:13:06Z</time><name>PT3116</name></trkpt>
<trkpt lat="53.397854" lon="-1.882092"><ele>605</ele><time>2021-10-07T12:13:10Z</time><name>PT3117</name></trkpt>
<trkpt lat="53.397841" lon="-1.882055"><ele>605</ele><time>2021-10-07T12:13:13Z</time><name>PT3118</name></trkpt>
<trkpt lat="53.397827" lon="-1.882018"><ele>606</ele><time>2021-10-07T12:13:17Z</time><name>PT3119</name></trkpt>
<trkpt lat="53.397827" lon="-1.882025"><ele>606</ele><time>2021-10-07T12:13:21Z</time><name>PT3120</name></trkpt>
<trkpt lat="53.397818" lon="-1.881991"><ele>605</ele><time>2021-10-07T12:13:51Z</time><name>PT3121</name></trkpt>
<trkpt lat="53.397798" lon="-1.881958"><ele>606</ele><time>2021-10-07T12:13:54Z</time><name>PT3122</name></trkpt>
<trkpt lat="53.397779" lon="-1.881909"><ele>606</ele><time>2021-10-07T12:13:58Z</time><name>PT3123</name></trkpt>
<trkpt lat="53.397759" lon="-1.881865"><ele>606</ele><time>2021-10-07T12:14:02Z</time><name>PT3124</name></trkpt>
<trkpt lat="53.397748" lon="-1.881812"><ele>606</ele><time>2021-10-07T12:14:05Z</time><name>PT3125</name></trkpt>
<trkpt lat="53.397740" lon="-1.881747"><ele>606</ele><time>2021-10-07T12:14:09Z</time><name>PT3126</name></trkpt>
<trkpt lat="53.397744" lon="-1.881702"><ele>606</ele><time>2021-10-07T12:14:13Z</time><name>PT3127</name></trkpt>
<trkpt lat="53.397742" lon="-1.881659"><ele>605</ele><time>2021-10-07T12:14:16Z</time><name>PT3128</name></trkpt>
<trkpt lat="53.397748" lon="-1.881589"><ele>606</ele><time>2021-10-07T12:14:19Z</time><name>PT3129</name></trkpt>
<trkpt lat="53.397746" lon="-1.881533"><ele>606</ele><time>2021-10-07T12:14:23Z</time><name>PT3130</name></trkpt>
<trkpt lat="53.397734" lon="-1.881466"><ele>606</ele><time>2021-10-07T12:14:27Z</time><name>PT3131</name></trkpt>
<trkpt lat="53.397726" lon="-1.881412"><ele>606</ele><time>2021-10-07T12:14:31Z</time><name>PT3132</name></trkpt>
<trkpt lat="53.397721" lon="-1.881357"><ele>607</ele><time>2021-10-07T12:14:35Z</time><name>PT3133</name></trkpt>
<trkpt lat="53.397726" lon="-1.881295"><ele>607</ele><time>2021-10-07T12:14:39Z</time><name>PT3134</name></trkpt>
<trkpt lat="53.397740" lon="-1.881253"><ele>607</ele><time>2021-10-07T12:14:43Z</time><name>PT3135</name></trkpt>
<trkpt lat="53.397754" lon="-1.881211"><ele>609</ele><time>2021-10-07T12:14:47Z</time><name>PT3136</name></trkpt>
<trkpt lat="53.397766" lon="-1.881174"><ele>610</ele><time>2021-10-07T12:14:50Z</time><name>PT3137</name></trkpt>
<trkpt lat="53.397773" lon="-1.881108"><ele>609</ele><time>2021-10-07T12:14:54Z</time><name>PT3138</name></trkpt>
<trkpt lat="53.397775" lon="-1.881059"><ele>610</ele><time>2021-10-07T12:14:57Z</time><name>PT3139</name></trkpt>
<trkpt lat="53.397775" lon="-1.881009"><ele>610</ele><time>2021-10-07T12:15:01Z</time><name>PT3140</name></trkpt>
<trkpt lat="53.397763" lon="-1.880955"><ele>610</ele><time>2021-10-07T12:15:05Z</time><name>PT3141</name></trkpt>
<trkpt lat="53.397737" lon="-1.880945"><ele>610</ele><time>2021-10-07T12:15:09Z</time><name>PT3142</name></trkpt>
<trkpt lat="53.397728" lon="-1.880944"><ele>610</ele><time>2021-10-07T12:15:13Z</time><name>PT3143</name></trkpt>
<trkpt lat="53.397727" lon="-1.880894"><ele>609</ele><time>2021-10-07T12:15:16Z</time><name>PT3144</name></trkpt>
<trkpt lat="53.397716" lon="-1.880843"><ele>609</ele><time>2021-10-07T12:15:20Z</time><name>PT3145</name></trkpt>
<trkpt lat="53.397701" lon="-1.880809"><ele>608</ele><time>2021-10-07T12:15:24Z</time><name>PT3146</name></trkpt>
<trkpt lat="53.397690" lon="-1.880763"><ele>608</ele><time>2021-10-07T12:15:28Z</time><name>PT3147</name></trkpt>
<trkpt lat="53.397683" lon="-1.880720"><ele>608</ele><time>2021-10-07T12:15:32Z</time><name>PT3148</name></trkpt>
<trkpt lat="53.397679" lon="-1.880701"><ele>608</ele><time>2021-10-07T12:15:36Z</time><name>PT3149</name></trkpt>
<trkpt lat="53.397674" lon="-1.880675"><ele>607</ele><time>2021-10-07T12:15:39Z</time><name>PT3150</name></trkpt>
<trkpt lat="53.397665" lon="-1.880659"><ele>607</ele><time>2021-10-07T12:15:43Z</time><name>PT3151</name></trkpt>
<trkpt lat="53.397642" lon="-1.880630"><ele>606</ele><time>2021-10-07T12:15:46Z</time><name>PT3152</name></trkpt>
<trkpt lat="53.397602" lon="-1.880582"><ele>606</ele><time>2021-10-07T12:15:50Z</time><name>PT3153</name></trkpt>
<trkpt lat="53.397564" lon="-1.880561"><ele>605</ele><time>2021-10-07T12:15:54Z</time><name>PT3154</name></trkpt>
<trkpt lat="53.397528" lon="-1.880520"><ele>605</ele><time>2021-10-07T12:15:58Z</time><name>PT3155</name></trkpt>
<trkpt lat="53.397514" lon="-1.880476"><ele>605</ele><time>2021-10-07T12:16:01Z</time><name>PT3156</name></trkpt>
<trkpt lat="53.397501" lon="-1.880433"><ele>605</ele><time>2021-10-07T12:16:04Z</time><name>PT3157</name></trkpt>
<trkpt lat="53.397491" lon="-1.880384"><ele>605</ele><time>2021-10-07T12:16:08Z</time><name>PT3158</name></trkpt>
<trkpt lat="53.397484" lon="-1.880329"><ele>605</ele><time>2021-10-07T12:16:12Z</time><name>PT3159</name></trkpt>
<trkpt lat="53.397471" lon="-1.880277"><ele>606</ele><time>2021-10-07T12:16:16Z</time><name>PT3160</name></trkpt>
<trkpt lat="53.397442" lon="-1.880233"><ele>605</ele><time>2021-10-07T12:16:20Z</time><name>PT3161</name></trkpt>
<trkpt lat="53.397427" lon="-1.880202"><ele>605</ele><time>2021-10-07T12:16:24Z</time><name>PT3162</name></trkpt>
<trkpt lat="53.397401" lon="-1.880155"><ele>605</ele><time>2021-10-07T12:16:28Z</time><name>PT3163</name></trkpt>
<trkpt lat="53.397384" lon="-1.880130"><ele>605</ele><time>2021-10-07T12:16:32Z</time><name>PT3164</name></trkpt>
<trkpt lat="53.397359" lon="-1.880068"><ele>604</ele><time>2021-10-07T12:16:35Z</time><name>PT3165</name></trkpt>
<trkpt lat="53.397349" lon="-1.880017"><ele>604</ele><time>2021-10-07T12:16:39Z</time><name>PT3166</name></trkpt>
<trkpt lat="53.397342" lon="-1.880000"><ele>604</ele><time>2021-10-07T12:16:43Z</time><name>PT3167</name></trkpt>
<trkpt lat="53.397341" lon="-1.879999"><ele>604</ele><time>2021-10-07T12:16:46Z</time><name>PT3168</name></trkpt>
<trkpt lat="53.397345" lon="-1.879996"><ele>605</ele><time>2021-10-07T12:17:02Z</time><name>PT3169</name></trkpt>
<trkpt lat="53.397327" lon="-1.879947"><ele>605</ele><time>2021-10-07T12:17:06Z</time><name>PT3170</name></trkpt>
<trkpt lat="53.397326" lon="-1.879893"><ele>605</ele><time>2021-10-07T12:17:10Z</time><name>PT3171</name></trkpt>
<trkpt lat="53.397325" lon="-1.879850"><ele>605</ele><time>2021-10-07T12:17:14Z</time><name>PT3172</name></trkpt>
<trkpt lat="53.397306" lon="-1.879772"><ele>606</ele><time>2021-10-07T12:17:17Z</time><name>PT3173</name></trkpt>
<trkpt lat="53.397297" lon="-1.879718"><ele>605</ele><time>2021-10-07T12:17:21Z</time><name>PT3174</name></trkpt>
<trkpt lat="53.397293" lon="-1.879644"><ele>605</ele><time>2021-10-07T12:17:24Z</time><name>PT3175</name></trkpt>
<trkpt lat="53.397289" lon="-1.879575"><ele>606</ele><time>2021-10-07T12:17:28Z</time><name>PT3176</name></trkpt>
<trkpt lat="53.397284" lon="-1.879514"><ele>606</ele><time>2021-10-07T12:17:32Z</time><name>PT3177</name></trkpt>
<trkpt lat="53.397278" lon="-1.879445"><ele>606</ele><time>2021-10-07T12:17:36Z</time><name>PT3178</name></trkpt>
<trkpt lat="53.397278" lon="-1.879377"><ele>606</ele><time>2021-10-07T12:17:40Z</time><name>PT3179</name></trkpt>
<trkpt lat="53.397264" lon="-1.879313"><ele>606</ele><time>2021-10-07T12:17:44Z</time><name>PT3180</name></trkpt>
<trkpt lat="53.397269" lon="-1.879237"><ele>605</ele><time>2021-10-07T12:17:48Z</time><name>PT3181</name></trkpt>
<trkpt lat="53.397291" lon="-1.879194"><ele>604</ele><time>2021-10-07T12:17:52Z</time><name>PT3182</name></trkpt>
<trkpt lat="53.397306" lon="-1.879129"><ele>603</ele><time>2021-10-07T12:17:56Z</time><name>PT3183</name></trkpt>
<trkpt lat="53.397319" lon="-1.879066"><ele>603</ele><time>2021-10-07T12:18:00Z</time><name>PT3184</name></trkpt>
<trkpt lat="53.397312" lon="-1.878992"><ele>603</ele><time>2021-10-07T12:18:04Z</time><name>PT3185</name></trkpt>
<trkpt lat="53.397317" lon="-1.878958"><ele>603</ele><time>2021-10-07T12:18:08Z</time><name>PT3186</name></trkpt>
<trkpt lat="53.397326" lon="-1.878921"><ele>603</ele><time>2021-10-07T12:18:12Z</time><name>PT3187</name></trkpt>
<trkpt lat="53.397337" lon="-1.878860"><ele>604</ele><time>2021-10-07T12:18:15Z</time><name>PT3188</name></trkpt>
<trkpt lat="53.397345" lon="-1.878807"><ele>604</ele><time>2021-10-07T12:18:19Z</time><name>PT3189</name></trkpt>
<trkpt lat="53.397346" lon="-1.878752"><ele>604</ele><time>2021-10-07T12:18:23Z</time><name>PT3190</name></trkpt>
<trkpt lat="53.397352" lon="-1.878694"><ele>603</ele><time>2021-10-07T12:18:27Z</time><name>PT3191</name></trkpt>
<trkpt lat="53.397328" lon="-1.878640"><ele>604</ele><time>2021-10-07T12:18:31Z</time><name>PT3192</name></trkpt>
<trkpt lat="53.397305" lon="-1.878595"><ele>604</ele><time>2021-10-07T12:18:35Z</time><name>PT3193</name></trkpt>
<trkpt lat="53.397307" lon="-1.878542"><ele>604</ele><time>2021-10-07T12:18:39Z</time><name>PT3194</name></trkpt>
<trkpt lat="53.397316" lon="-1.878491"><ele>605</ele><time>2021-10-07T12:18:43Z</time><name>PT3195</name></trkpt>
<trkpt lat="53.397302" lon="-1.878438"><ele>605</ele><time>2021-10-07T12:18:46Z</time><name>PT3196</name></trkpt>
<trkpt lat="53.397297" lon="-1.878389"><ele>605</ele><time>2021-10-07T12:18:50Z</time><name>PT3197</name></trkpt>
<trkpt lat="53.397293" lon="-1.878336"><ele>604</ele><time>2021-10-07T12:18:54Z</time><name>PT3198</name></trkpt>
<trkpt lat="53.397295" lon="-1.878280"><ele>605</ele><time>2021-10-07T12:18:57Z</time><name>PT3199</name></trkpt>
<trkpt lat="53.397288" lon="-1.878210"><ele>606</ele><time>2021-10-07T12:19:01Z</time><name>PT3200</name></trkpt>
<trkpt lat="53.397281" lon="-1.878154"><ele>606</ele><time>2021-10-07T12:19:05Z</time><name>PT3201</name></trkpt>
<trkpt lat="53.397260" lon="-1.878080"><ele>606</ele><time>2021-10-07T12:19:08Z</time><name>PT3202</name></trkpt>
<trkpt lat="53.397243" lon="-1.878007"><ele>606</ele><time>2021-10-07T12:19:12Z</time><name>PT3203</name></trkpt>
<trkpt lat="53.397230" lon="-1.877950"><ele>606</ele><time>2021-10-07T12:19:15Z</time><name>PT3204</name></trkpt>
<trkpt lat="53.397213" lon="-1.877870"><ele>607</ele><time>2021-10-07T12:19:19Z</time><name>PT3205</name></trkpt>
<trkpt lat="53.397203" lon="-1.877812"><ele>607</ele><time>2021-10-07T12:19:23Z</time><name>PT3206</name></trkpt>
<trkpt lat="53.397200" lon="-1.877775"><ele>607</ele><time>2021-10-07T12:19:27Z</time><name>PT3207</name></trkpt>
<trkpt lat="53.397208" lon="-1.877751"><ele>607</ele><time>2021-10-07T12:19:31Z</time><name>PT3208</name></trkpt>
<trkpt lat="53.397212" lon="-1.877677"><ele>606</ele><time>2021-10-07T12:19:34Z</time><name>PT3209</name></trkpt>
<trkpt lat="53.397215" lon="-1.877604"><ele>607</ele><time>2021-10-07T12:19:38Z</time><name>PT3210</name></trkpt>
<trkpt lat="53.397203" lon="-1.877530"><ele>607</ele><time>2021-10-07T12:19:42Z</time><name>PT3211</name></trkpt>
<trkpt lat="53.397181" lon="-1.877457"><ele>608</ele><time>2021-10-07T12:19:46Z</time><name>PT3212</name></trkpt>
<trkpt lat="53.397160" lon="-1.877403"><ele>608</ele><time>2021-10-07T12:19:49Z</time><name>PT3213</name></trkpt>
<trkpt lat="53.397136" lon="-1.877331"><ele>608</ele><time>2021-10-07T12:19:53Z</time><name>PT3214</name></trkpt>
<trkpt lat="53.397122" lon="-1.877293"><ele>607</ele><time>2021-10-07T12:19:57Z</time><name>PT3215</name></trkpt>
<trkpt lat="53.397117" lon="-1.877277"><ele>607</ele><time>2021-10-07T12:20:01Z</time><name>PT3216</name></trkpt>
<trkpt lat="53.397117" lon="-1.877274"><ele>607</ele><time>2021-10-07T12:20:05Z</time><name>PT3217</name></trkpt>
<trkpt lat="53.397136" lon="-1.877224"><ele>607</ele><time>2021-10-07T12:20:13Z</time><name>PT3218</name></trkpt>
<trkpt lat="53.397148" lon="-1.877162"><ele>607</ele><time>2021-10-07T12:20:16Z</time><name>PT3219</name></trkpt>
<trkpt lat="53.397163" lon="-1.877103"><ele>606</ele><time>2021-10-07T12:20:20Z</time><name>PT3220</name></trkpt>
<trkpt lat="53.397177" lon="-1.877053"><ele>606</ele><time>2021-10-07T12:20:24Z</time><name>PT3221</name></trkpt>
<trkpt lat="53.397181" lon="-1.876996"><ele>607</ele><time>2021-10-07T12:20:28Z</time><name>PT3222</name></trkpt>
<trkpt lat="53.397182" lon="-1.876940"><ele>607</ele><time>2021-10-07T12:20:32Z</time><name>PT3223</name></trkpt>
<trkpt lat="53.397168" lon="-1.876895"><ele>607</ele><time>2021-10-07T12:20:36Z</time><name>PT3224</name></trkpt>
<trkpt lat="53.397176" lon="-1.876842"><ele>607</ele><time>2021-10-07T12:20:40Z</time><name>PT3225</name></trkpt>
<trkpt lat="53.397197" lon="-1.876808"><ele>607</ele><time>2021-10-07T12:20:44Z</time><name>PT3226</name></trkpt>
<trkpt lat="53.397200" lon="-1.876758"><ele>607</ele><time>2021-10-07T12:20:49Z</time><name>PT3227</name></trkpt>
<trkpt lat="53.397199" lon="-1.876753"><ele>608</ele><time>2021-10-07T12:20:52Z</time><name>PT3228</name></trkpt>
<trkpt lat="53.397203" lon="-1.876739"><ele>608</ele><time>2021-10-07T12:21:03Z</time><name>PT3229</name></trkpt>
<trkpt lat="53.397203" lon="-1.876736"><ele>608</ele><time>2021-10-07T12:21:06Z</time><name>PT3230</name></trkpt>
<trkpt lat="53.397206" lon="-1.876737"><ele>608</ele><time>2021-10-07T12:21:44Z</time><name>PT3231</name></trkpt>
<trkpt lat="53.397208" lon="-1.876727"><ele>607</ele><time>2021-10-07T12:21:44Z</time><name>PT3232</name></trkpt>
<trkpt lat="53.397213" lon="-1.876717"><ele>607</ele><time>2021-10-07T12:21:45Z</time><name>PT3233</name></trkpt>
<trkpt lat="53.397213" lon="-1.876717"><ele>607</ele><time>2021-10-07T12:21:46Z</time><name>PT3234</name></trkpt>
<trkpt lat="53.397214" lon="-1.876717"><ele>607</ele><time>2021-10-07T12:24:18Z</time><name>PT3235</name></trkpt>
<trkpt lat="53.397216" lon="-1.876718"><ele>607</ele><time>2021-10-07T12:24:19Z</time><name>PT3236</name></trkpt>
<trkpt lat="53.397216" lon="-1.876713"><ele>607</ele><time>2021-10-07T12:24:20Z</time><name>PT3237</name></trkpt>
<trkpt lat="53.397214" lon="-1.876705"><ele>606</ele><time>2021-10-07T12:24:21Z</time><name>PT3238</name></trkpt>
<trkpt lat="53.397214" lon="-1.876704"><ele>606</ele><time>2021-10-07T12:24:22Z</time><name>PT3239</name></trkpt>
<trkpt lat="53.397213" lon="-1.876701"><ele>606</ele><time>2021-10-07T12:24:23Z</time><name>PT3240</name></trkpt>
<trkpt lat="53.397216" lon="-1.876690"><ele>605</ele><time>2021-10-07T12:25:11Z</time><name>PT3241</name></trkpt>
<trkpt lat="53.397214" lon="-1.876682"><ele>605</ele><time>2021-10-07T12:25:12Z</time><name>PT3242</name></trkpt>
<trkpt lat="53.397218" lon="-1.876668"><ele>604</ele><time>2021-10-07T12:25:13Z</time><name>PT3243</name></trkpt>
<trkpt lat="53.397219" lon="-1.876660"><ele>604</ele><time>2021-10-07T12:25:19Z</time><name>PT3244</name></trkpt>
<trkpt lat="53.397226" lon="-1.876660"><ele>605</ele><time>2021-10-07T12:25:20Z</time><name>PT3245</name></trkpt>
<trkpt lat="53.397234" lon="-1.876656"><ele>605</ele><time>2021-10-07T12:25:21Z</time><name>PT3246</name></trkpt>
<trkpt lat="53.397241" lon="-1.876658"><ele>605</ele><time>2021-10-07T12:25:22Z</time><name>PT3247</name></trkpt>
<trkpt lat="53.397249" lon="-1.876662"><ele>606</ele><time>2021-10-07T12:25:23Z</time><name>PT3248</name></trkpt>
<trkpt lat="53.397256" lon="-1.876659"><ele>605</ele><time>2021-10-07T12:25:24Z</time><name>PT3249</name></trkpt>
<trkpt lat="53.397266" lon="-1.876654"><ele>606</ele><time>2021-10-07T12:25:25Z</time><name>PT3250</name></trkpt>
<trkpt lat="53.397273" lon="-1.876644"><ele>606</ele><time>2021-10-07T12:25:26Z</time><name>PT3251</name></trkpt>
<trkpt lat="53.397282" lon="-1.876635"><ele>607</ele><time>2021-10-07T12:25:27Z</time><name>PT3252</name></trkpt>
<trkpt lat="53.397286" lon="-1.876624"><ele>607</ele><time>2021-10-07T12:25:28Z</time><name>PT3253</name></trkpt>
<trkpt lat="53.397291" lon="-1.876608"><ele>607</ele><time>2021-10-07T12:25:29Z</time><name>PT3254</name></trkpt>
<trkpt lat="53.397296" lon="-1.876602"><ele>607</ele><time>2021-10-07T12:25:30Z</time><name>PT3255</name></trkpt>
<trkpt lat="53.397299" lon="-1.876591"><ele>607</ele><time>2021-10-07T12:25:31Z</time><name>PT3256</name></trkpt>
<trkpt lat="53.397305" lon="-1.876584"><ele>607</ele><time>2021-10-07T12:25:32Z</time><name>PT3257</name></trkpt>
<trkpt lat="53.397316" lon="-1.876581"><ele>608</ele><time>2021-10-07T12:25:33Z</time><name>PT3258</name></trkpt>
<trkpt lat="53.397322" lon="-1.876572"><ele>608</ele><time>2021-10-07T12:25:34Z</time><name>PT3259</name></trkpt>
<trkpt lat="53.397327" lon="-1.876556"><ele>608</ele><time>2021-10-07T12:25:35Z</time><name>PT3260</name></trkpt>
<trkpt lat="53.397335" lon="-1.876546"><ele>608</ele><time>2021-10-07T12:25:36Z</time><name>PT3261</name></trkpt>
<trkpt lat="53.397342" lon="-1.876535"><ele>608</ele><time>2021-10-07T12:25:37Z</time><name>PT3262</name></trkpt>
<trkpt lat="53.397349" lon="-1.876521"><ele>609</ele><time>2021-10-07T12:25:38Z</time><name>PT3263</name></trkpt>
<trkpt lat="53.397355" lon="-1.876506"><ele>608</ele><time>2021-10-07T12:25:39Z</time><name>PT3264</name></trkpt>
<trkpt lat="53.397358" lon="-1.876494"><ele>608</ele><time>2021-10-07T12:25:40Z</time><name>PT3265</name></trkpt>
<trkpt lat="53.397361" lon="-1.876485"><ele>608</ele><time>2021-10-07T12:25:41Z</time><name>PT3266</name></trkpt>
<trkpt lat="53.397361" lon="-1.876475"><ele>608</ele><time>2021-10-07T12:25:42Z</time><name>PT3267</name></trkpt>
<trkpt lat="53.397360" lon="-1.876467"><ele>607</ele><time>2021-10-07T12:25:43Z</time><name>PT3268</name></trkpt>
<trkpt lat="53.397357" lon="-1.876458"><ele>607</ele><time>2021-10-07T12:25:44Z</time><name>PT3269</name></trkpt>
<trkpt lat="53.397355" lon="-1.876446"><ele>607</ele><time>2021-10-07T12:25:45Z</time><name>PT3270</name></trkpt>
<trkpt lat="53.397354" lon="-1.876438"><ele>606</ele><time>2021-10-07T12:25:46Z</time><name>PT3271</name></trkpt>
<trkpt lat="53.397351" lon="-1.876437"><ele>606</ele><time>2021-10-07T12:25:47Z</time><name>PT3272</name></trkpt>
<trkpt lat="53.397351" lon="-1.876427"><ele>606</ele><time>2021-10-07T12:25:48Z</time><name>PT3273</name></trkpt>
<trkpt lat="53.397351" lon="-1.876417"><ele>606</ele><time>2021-10-07T12:25:49Z</time><name>PT3274</name></trkpt>
<trkpt lat="53.397350" lon="-1.876397"><ele>606</ele><time>2021-10-07T12:25:50Z</time><name>PT3275</name></trkpt>
<trkpt lat="53.397353" lon="-1.876382"><ele>605</ele><time>2021-10-07T12:25:51Z</time><name>PT3276</name></trkpt>
<trkpt lat="53.397351" lon="-1.876366"><ele>605</ele><time>2021-10-07T12:25:52Z</time><name>PT3277</name></trkpt>
<trkpt lat="53.397348" lon="-1.876356"><ele>605</ele><time>2021-10-07T12:25:53Z</time><name>PT3278</name></trkpt>
<trkpt lat="53.397342" lon="-1.876342"><ele>604</ele><time>2021-10-07T12:25:54Z</time><name>PT3279</name></trkpt>
<trkpt lat="53.397340" lon="-1.876332"><ele>604</ele><time>2021-10-07T12:25:55Z</time><name>PT3280</name></trkpt>
<trkpt lat="53.397337" lon="-1.876324"><ele>604</ele><time>2021-10-07T12:25:56Z</time><name>PT3281</name></trkpt>
<trkpt lat="53.397335" lon="-1.876324"><ele>604</ele><time>2021-10-07T12:25:57Z</time><name>PT3282</name></trkpt>
<trkpt lat="53.397334" lon="-1.876316"><ele>604</ele><time>2021-10-07T12:25:59Z</time><name>PT3283</name></trkpt>
<trkpt lat="53.397331" lon="-1.876312"><ele>604</ele><time>2021-10-07T12:25:59Z</time><name>PT3284</name></trkpt>
<trkpt lat="53.397325" lon="-1.876308"><ele>604</ele><time>2021-10-07T12:26:00Z</time><name>PT3285</name></trkpt>
<trkpt lat="53.397318" lon="-1.876308"><ele>604</ele><time>2021-10-07T12:26:01Z</time><name>PT3286</name></trkpt>
<trkpt lat="53.397309" lon="-1.876317"><ele>603</ele><time>2021-10-07T12:26:02Z</time><name>PT3287</name></trkpt>
<trkpt lat="53.397302" lon="-1.876317"><ele>604</ele><time>2021-10-07T12:26:03Z</time><name>PT3288</name></trkpt>
<trkpt lat="53.397295" lon="-1.876319"><ele>604</ele><time>2021-10-07T12:26:04Z</time><name>PT3289</name></trkpt>
<trkpt lat="53.397290" lon="-1.876315"><ele>604</ele><time>2021-10-07T12:26:05Z</time><name>PT3290</name></trkpt>
<trkpt lat="53.397284" lon="-1.876318"><ele>604</ele><time>2021-10-07T12:26:06Z</time><name>PT3291</name></trkpt>
<trkpt lat="53.397277" lon="-1.876318"><ele>604</ele><time>2021-10-07T12:26:07Z</time><name>PT3292</name></trkpt>
<trkpt lat="53.397271" lon="-1.876318"><ele>604</ele><time>2021-10-07T12:26:08Z</time><name>PT3293</name></trkpt>
<trkpt lat="53.397271" lon="-1.876321"><ele>604</ele><time>2021-10-07T12:26:09Z</time><name>PT3294</name></trkpt>
<trkpt lat="53.397270" lon="-1.876324"><ele>604</ele><time>2021-10-07T12:26:10Z</time><name>PT3295</name></trkpt>
<trkpt lat="53.397269" lon="-1.876323"><ele>605</ele><time>2021-10-07T12:26:11Z</time><name>PT3296</name></trkpt>
<trkpt lat="53.397267" lon="-1.876324"><ele>604</ele><time>2021-10-07T12:26:12Z</time><name>PT3297</name></trkpt>
<trkpt lat="53.397268" lon="-1.876320"><ele>605</ele><time>2021-10-07T12:26:15Z</time><name>PT3298</name></trkpt>
<trkpt lat="53.397257" lon="-1.876329"><ele>605</ele><time>2021-10-07T12:26:16Z</time><name>PT3299</name></trkpt>
<trkpt lat="53.397248" lon="-1.876342"><ele>605</ele><time>2021-10-07T12:26:18Z</time><name>PT3300</name></trkpt>
<trkpt lat="53.397240" lon="-1.876357"><ele>605</ele><time>2021-10-07T12:26:18Z</time><name>PT3301</name></trkpt>
<trkpt lat="53.397233" lon="-1.876366"><ele>605</ele><time>2021-10-07T12:26:19Z</time><name>PT3302</name></trkpt>
<trkpt lat="53.397222" lon="-1.876370"><ele>605</ele><time>2021-10-07T12:26:20Z</time><name>PT3303</name></trkpt>
<trkpt lat="53.397214" lon="-1.876373"><ele>604</ele><time>2021-10-07T12:26:21Z</time><name>PT3304</name></trkpt>
<trkpt lat="53.397204" lon="-1.876379"><ele>604</ele><time>2021-10-07T12:26:23Z</time><name>PT3305</name></trkpt>
<trkpt lat="53.397197" lon="-1.876381"><ele>604</ele><time>2021-10-07T12:26:23Z</time><name>PT3306</name></trkpt>
<trkpt lat="53.397191" lon="-1.876383"><ele>603</ele><time>2021-10-07T12:26:24Z</time><name>PT3307</name></trkpt>
<trkpt lat="53.397188" lon="-1.876390"><ele>603</ele><time>2021-10-07T12:26:26Z</time><name>PT3308</name></trkpt>
<trkpt lat="53.397184" lon="-1.876400"><ele>604</ele><time>2021-10-07T12:26:26Z</time><name>PT3309</name></trkpt>
<trkpt lat="53.397177" lon="-1.876406"><ele>604</ele><time>2021-10-07T12:26:27Z</time><name>PT3310</name></trkpt>
<trkpt lat="53.397170" lon="-1.876410"><ele>604</ele><time>2021-10-07T12:26:28Z</time><name>PT3311</name></trkpt>
<trkpt lat="53.397163" lon="-1.876415"><ele>604</ele><time>2021-10-07T12:26:29Z</time><name>PT3312</name></trkpt>
<trkpt lat="53.397158" lon="-1.876419"><ele>604</ele><time>2021-10-07T12:26:30Z</time><name>PT3313</name></trkpt>
<trkpt lat="53.397152" lon="-1.876424"><ele>604</ele><time>2021-10-07T12:26:31Z</time><name>PT3314</name></trkpt>
<trkpt lat="53.397146" lon="-1.876436"><ele>604</ele><time>2021-10-07T12:26:32Z</time><name>PT3315</name></trkpt>
<trkpt lat="53.397140" lon="-1.876447"><ele>604</ele><time>2021-10-07T12:26:33Z</time><name>PT3316</name></trkpt>
<trkpt lat="53.397137" lon="-1.876455"><ele>604</ele><time>2021-10-07T12:26:34Z</time><name>PT3317</name></trkpt>
<trkpt lat="53.397136" lon="-1.876468"><ele>604</ele><time>2021-10-07T12:26:35Z</time><name>PT3318</name></trkpt>
<trkpt lat="53.397131" lon="-1.876476"><ele>604</ele><time>2021-10-07T12:26:36Z</time><name>PT3319</name></trkpt>
<trkpt lat="53.397121" lon="-1.876485"><ele>604</ele><time>2021-10-07T12:26:37Z</time><name>PT3320</name></trkpt>
<trkpt lat="53.397114" lon="-1.876493"><ele>605</ele><time>2021-10-07T12:26:38Z</time><name>PT3321</name></trkpt>
<trkpt lat="53.397103" lon="-1.876495"><ele>605</ele><time>2021-10-07T12:26:39Z</time><name>PT3322</name></trkpt>
<trkpt lat="53.397092" lon="-1.876504"><ele>606</ele><time>2021-10-07T12:26:40Z</time><name>PT3323</name></trkpt>
<trkpt lat="53.397084" lon="-1.876503"><ele>606</ele><time>2021-10-07T12:26:41Z</time><name>PT3324</name></trkpt>
<trkpt lat="53.397075" lon="-1.876503"><ele>607</ele><time>2021-10-07T12:26:42Z</time><name>PT3325</name></trkpt>
<trkpt lat="53.397068" lon="-1.876508"><ele>606</ele><time>2021-10-07T12:26:43Z</time><name>PT3326</name></trkpt>
<trkpt lat="53.397061" lon="-1.876515"><ele>607</ele><time>2021-10-07T12:26:44Z</time><name>PT3327</name></trkpt>
<trkpt lat="53.397051" lon="-1.876524"><ele>607</ele><time>2021-10-07T12:26:45Z</time><name>PT3328</name></trkpt>
<trkpt lat="53.397038" lon="-1.876534"><ele>607</ele><time>2021-10-07T12:26:46Z</time><name>PT3329</name></trkpt>
<trkpt lat="53.397028" lon="-1.876541"><ele>607</ele><time>2021-10-07T12:26:47Z</time><name>PT3330</name></trkpt>
<trkpt lat="53.397019" lon="-1.876549"><ele>607</ele><time>2021-10-07T12:26:48Z</time><name>PT3331</name></trkpt>
<trkpt lat="53.397010" lon="-1.876563"><ele>606</ele><time>2021-10-07T12:26:49Z</time><name>PT3332</name></trkpt>
<trkpt lat="53.397006" lon="-1.876577"><ele>606</ele><time>2021-10-07T12:26:50Z</time><name>PT3333</name></trkpt>
<trkpt lat="53.396998" lon="-1.876588"><ele>606</ele><time>2021-10-07T12:26:51Z</time><name>PT3334</name></trkpt>
<trkpt lat="53.396988" lon="-1.876605"><ele>606</ele><time>2021-10-07T12:26:52Z</time><name>PT3335</name></trkpt>
<trkpt lat="53.396980" lon="-1.876620"><ele>606</ele><time>2021-10-07T12:26:53Z</time><name>PT3336</name></trkpt>
<trkpt lat="53.396969" lon="-1.876638"><ele>606</ele><time>2021-10-07T12:26:54Z</time><name>PT3337</name></trkpt>
<trkpt lat="53.396964" lon="-1.876647"><ele>607</ele><time>2021-10-07T12:26:55Z</time><name>PT3338</name></trkpt>
<trkpt lat="53.396959" lon="-1.876657"><ele>607</ele><time>2021-10-07T12:26:56Z</time><name>PT3339</name></trkpt>
<trkpt lat="53.396958" lon="-1.876673"><ele>607</ele><time>2021-10-07T12:26:57Z</time><name>PT3340</name></trkpt>
<trkpt lat="53.396954" lon="-1.876684"><ele>607</ele><time>2021-10-07T12:26:58Z</time><name>PT3341</name></trkpt>
<trkpt lat="53.396948" lon="-1.876694"><ele>607</ele><time>2021-10-07T12:26:59Z</time><name>PT3342</name></trkpt>
<trkpt lat="53.396939" lon="-1.876698"><ele>607</ele><time>2021-10-07T12:27:00Z</time><name>PT3343</name></trkpt>
<trkpt lat="53.396930" lon="-1.876696"><ele>607</ele><time>2021-10-07T12:27:01Z</time><name>PT3344</name></trkpt>
<trkpt lat="53.396923" lon="-1.876691"><ele>607</ele><time>2021-10-07T12:27:02Z</time><name>PT3345</name></trkpt>
<trkpt lat="53.396913" lon="-1.876698"><ele>608</ele><time>2021-10-07T12:27:03Z</time><name>PT3346</name></trkpt>
<trkpt lat="53.396903" lon="-1.876712"><ele>608</ele><time>2021-10-07T12:27:04Z</time><name>PT3347</name></trkpt>
<trkpt lat="53.396893" lon="-1.876728"><ele>608</ele><time>2021-10-07T12:27:05Z</time><name>PT3348</name></trkpt>
<trkpt lat="53.396883" lon="-1.876741"><ele>608</ele><time>2021-10-07T12:27:06Z</time><name>PT3349</name></trkpt>
<trkpt lat="53.396875" lon="-1.876750"><ele>608</ele><time>2021-10-07T12:27:07Z</time><name>PT3350</name></trkpt>
<trkpt lat="53.396870" lon="-1.876765"><ele>608</ele><time>2021-10-07T12:27:08Z</time><name>PT3351</name></trkpt>
<trkpt lat="53.396870" lon="-1.876775"><ele>608</ele><time>2021-10-07T12:27:09Z</time><name>PT3352</name></trkpt>
<trkpt lat="53.396868" lon="-1.876790"><ele>608</ele><time>2021-10-07T12:27:10Z</time><name>PT3353</name></trkpt>
<trkpt lat="53.396865" lon="-1.876809"><ele>608</ele><time>2021-10-07T12:27:11Z</time><name>PT3354</name></trkpt>
<trkpt lat="53.396861" lon="-1.876820"><ele>608</ele><time>2021-10-07T12:27:12Z</time><name>PT3355</name></trkpt>
<trkpt lat="53.396856" lon="-1.876827"><ele>608</ele><time>2021-10-07T12:27:13Z</time><name>PT3356</name></trkpt>
<trkpt lat="53.396854" lon="-1.876832"><ele>608</ele><time>2021-10-07T12:27:15Z</time><name>PT3357</name></trkpt>
<trkpt lat="53.396852" lon="-1.876836"><ele>608</ele><time>2021-10-07T12:27:15Z</time><name>PT3358</name></trkpt>
<trkpt lat="53.396847" lon="-1.876840"><ele>608</ele><time>2021-10-07T12:27:16Z</time><name>PT3359</name></trkpt>
<trkpt lat="53.396839" lon="-1.876845"><ele>608</ele><time>2021-10-07T12:27:17Z</time><name>PT3360</name></trkpt>
<trkpt lat="53.396831" lon="-1.876852"><ele>608</ele><time>2021-10-07T12:27:18Z</time><name>PT3361</name></trkpt>
<trkpt lat="53.396824" lon="-1.876855"><ele>608</ele><time>2021-10-07T12:27:19Z</time><name>PT3362</name></trkpt>
<trkpt lat="53.396818" lon="-1.876858"><ele>608</ele><time>2021-10-07T12:27:20Z</time><name>PT3363</name></trkpt>
<trkpt lat="53.396804" lon="-1.876866"><ele>608</ele><time>2021-10-07T12:27:21Z</time><name>PT3364</name></trkpt>
<trkpt lat="53.396794" lon="-1.876873"><ele>609</ele><time>2021-10-07T12:27:22Z</time><name>PT3365</name></trkpt>
<trkpt lat="53.396789" lon="-1.876878"><ele>609</ele><time>2021-10-07T12:27:23Z</time><name>PT3366</name></trkpt>
<trkpt lat="53.396785" lon="-1.876879"><ele>609</ele><time>2021-10-07T12:27:24Z</time><name>PT3367</name></trkpt>
<trkpt lat="53.396782" lon="-1.876878"><ele>609</ele><time>2021-10-07T12:27:25Z</time><name>PT3368</name></trkpt>
<trkpt lat="53.396783" lon="-1.876877"><ele>609</ele><time>2021-10-07T12:27:26Z</time><name>PT3369</name></trkpt>
<trkpt lat="53.396781" lon="-1.876876"><ele>609</ele><time>2021-10-07T12:27:28Z</time><name>PT3370</name></trkpt>
<trkpt lat="53.396781" lon="-1.876875"><ele>609</ele><time>2021-10-07T12:27:28Z</time><name>PT3371</name></trkpt>
<trkpt lat="53.396781" lon="-1.876873"><ele>608</ele><time>2021-10-07T12:27:29Z</time><name>PT3372</name></trkpt>
<trkpt lat="53.396782" lon="-1.876873"><ele>608</ele><time>2021-10-07T12:27:30Z</time><name>PT3373</name></trkpt>
<trkpt lat="53.396782" lon="-1.876876"><ele>608</ele><time>2021-10-07T12:27:31Z</time><name>PT3374</name></trkpt>
<trkpt lat="53.396782" lon="-1.876878"><ele>608</ele><time>2021-10-07T12:27:32Z</time><name>PT3375</name></trkpt>
<trkpt lat="53.396770" lon="-1.876887"><ele>607</ele><time>2021-10-07T12:27:47Z</time><name>PT3376</name></trkpt>
<trkpt lat="53.396753" lon="-1.876910"><ele>607</ele><time>2021-10-07T12:27:50Z</time><name>PT3377</name></trkpt>
<trkpt lat="53.396748" lon="-1.876922"><ele>605</ele><time>2021-10-07T12:27:53Z</time><name>PT3378</name></trkpt>
<trkpt lat="53.396734" lon="-1.876943"><ele>605</ele><time>2021-10-07T12:27:57Z</time><name>PT3379</name></trkpt>
<trkpt lat="53.396691" lon="-1.876940"><ele>604</ele><time>2021-10-07T12:28:00Z</time><name>PT3380</name></trkpt>
<trkpt lat="53.396667" lon="-1.876946"><ele>604</ele><time>2021-10-07T12:28:04Z</time><name>PT3381</name></trkpt>
<trkpt lat="53.396678" lon="-1.876982"><ele>603</ele><time>2021-10-07T12:28:07Z</time><name>PT3382</name></trkpt>
<trkpt lat="53.396682" lon="-1.876996"><ele>603</ele><time>2021-10-07T12:28:11Z</time><name>PT3383</name></trkpt>
<trkpt lat="53.396683" lon="-1.877008"><ele>603</ele><time>2021-10-07T12:28:15Z</time><name>PT3384</name></trkpt>
<trkpt lat="53.396674" lon="-1.877019"><ele>602</ele><time>2021-10-07T12:28:19Z</time><name>PT3385</name></trkpt>
<trkpt lat="53.396658" lon="-1.877039"><ele>601</ele><time>2021-10-07T12:28:23Z</time><name>PT3386</name></trkpt>
<trkpt lat="53.396646" lon="-1.877077"><ele>600</ele><time>2021-10-07T12:28:27Z</time><name>PT3387</name></trkpt>
<trkpt lat="53.396633" lon="-1.877084"><ele>599</ele><time>2021-10-07T12:28:31Z</time><name>PT3388</name></trkpt>
<trkpt lat="53.396613" lon="-1.877104"><ele>598</ele><time>2021-10-07T12:28:35Z</time><name>PT3389</name></trkpt>
<trkpt lat="53.396596" lon="-1.877114"><ele>595</ele><time>2021-10-07T12:28:39Z</time><name>PT3390</name></trkpt>
<trkpt lat="53.396589" lon="-1.877092"><ele>594</ele><time>2021-10-07T12:28:43Z</time><name>PT3391</name></trkpt>
<trkpt lat="53.396569" lon="-1.877078"><ele>594</ele><time>2021-10-07T12:28:47Z</time><name>PT3392</name></trkpt>
<trkpt lat="53.396549" lon="-1.877073"><ele>595</ele><time>2021-10-07T12:28:51Z</time><name>PT3393</name></trkpt>
<trkpt lat="53.396531" lon="-1.877051"><ele>596</ele><time>2021-10-07T12:28:55Z</time><name>PT3394</name></trkpt>
<trkpt lat="53.396499" lon="-1.877055"><ele>597</ele><time>2021-10-07T12:28:59Z</time><name>PT3395</name></trkpt>
<trkpt lat="53.396465" lon="-1.877061"><ele>598</ele><time>2021-10-07T12:29:03Z</time><name>PT3396</name></trkpt>
<trkpt lat="53.396447" lon="-1.877083"><ele>601</ele><time>2021-10-07T12:29:07Z</time><name>PT3397</name></trkpt>
<trkpt lat="53.396416" lon="-1.877101"><ele>600</ele><time>2021-10-07T12:29:15Z</time><name>PT3398</name></trkpt>
<trkpt lat="53.396407" lon="-1.877128"><ele>598</ele><time>2021-10-07T12:29:19Z</time><name>PT3399</name></trkpt>
<trkpt lat="53.396398" lon="-1.877127"><ele>598</ele><time>2021-10-07T12:29:23Z</time><name>PT3400</name></trkpt>
<trkpt lat="53.396375" lon="-1.877132"><ele>598</ele><time>2021-10-07T12:29:27Z</time><name>PT3401</name></trkpt>
<trkpt lat="53.396374" lon="-1.877129"><ele>598</ele><time>2021-10-07T12:29:31Z</time><name>PT3402</name></trkpt>
<trkpt lat="53.396360" lon="-1.877125"><ele>598</ele><time>2021-10-07T12:29:35Z</time><name>PT3403</name></trkpt>
<trkpt lat="53.396346" lon="-1.877153"><ele>596</ele><time>2021-10-07T12:29:39Z</time><name>PT3404</name></trkpt>
<trkpt lat="53.396334" lon="-1.877171"><ele>595</ele><time>2021-10-07T12:29:43Z</time><name>PT3405</name></trkpt>
<trkpt lat="53.396337" lon="-1.877184"><ele>594</ele><time>2021-10-07T12:29:47Z</time><name>PT3406</name></trkpt>
<trkpt lat="53.396344" lon="-1.877183"><ele>594</ele><time>2021-10-07T12:29:51Z</time><name>PT3407</name></trkpt>
<trkpt lat="53.396368" lon="-1.877212"><ele>593</ele><time>2021-10-07T12:29:55Z</time><name>PT3408</name></trkpt>
<trkpt lat="53.396369" lon="-1.877215"><ele>592</ele><time>2021-10-07T12:29:59Z</time><name>PT3409</name></trkpt>
<trkpt lat="53.396377" lon="-1.877237"><ele>592</ele><time>2021-10-07T12:30:01Z</time><name>PT3410</name></trkpt>
<trkpt lat="53.396375" lon="-1.877242"><ele>592</ele><time>2021-10-07T12:30:02Z</time><name>PT3411</name></trkpt>
<trkpt lat="53.396375" lon="-1.877244"><ele>592</ele><time>2021-10-07T12:30:03Z</time><name>PT3412</name></trkpt>
<trkpt lat="53.396375" lon="-1.877247"><ele>592</ele><time>2021-10-07T12:30:04Z</time><name>PT3413</name></trkpt>
<trkpt lat="53.396369" lon="-1.877250"><ele>593</ele><time>2021-10-07T12:30:46Z</time><name>PT3414</name></trkpt>
<trkpt lat="53.396370" lon="-1.877251"><ele>593</ele><time>2021-10-07T12:30:47Z</time><name>PT3415</name></trkpt>
<trkpt lat="53.396371" lon="-1.877256"><ele>593</ele><time>2021-10-07T12:31:26Z</time><name>PT3416</name></trkpt>
<trkpt lat="53.396371" lon="-1.877254"><ele>593</ele><time>2021-10-07T12:31:27Z</time><name>PT3417</name></trkpt>
<trkpt lat="53.396370" lon="-1.877253"><ele>592</ele><time>2021-10-07T12:31:28Z</time><name>PT3418</name></trkpt>
<trkpt lat="53.396376" lon="-1.877258"><ele>592</ele><time>2021-10-07T12:31:32Z</time><name>PT3419</name></trkpt>
<trkpt lat="53.396376" lon="-1.877249"><ele>593</ele><time>2021-10-07T12:31:33Z</time><name>PT3420</name></trkpt>
<trkpt lat="53.396380" lon="-1.877245"><ele>593</ele><time>2021-10-07T12:31:34Z</time><name>PT3421</name></trkpt>
<trkpt lat="53.396383" lon="-1.877240"><ele>593</ele><time>2021-10-07T12:31:35Z</time><name>PT3422</name></trkpt>
<trkpt lat="53.396385" lon="-1.877239"><ele>593</ele><time>2021-10-07T12:31:36Z</time><name>PT3423</name></trkpt>
<trkpt lat="53.396389" lon="-1.877236"><ele>594</ele><time>2021-10-07T12:31:37Z</time><name>PT3424</name></trkpt>
<trkpt lat="53.396392" lon="-1.877236"><ele>594</ele><time>2021-10-07T12:31:38Z</time><name>PT3425</name></trkpt>
<trkpt lat="53.396392" lon="-1.877230"><ele>594</ele><time>2021-10-07T12:31:39Z</time><name>PT3426</name></trkpt>
<trkpt lat="53.396388" lon="-1.877228"><ele>594</ele><time>2021-10-07T12:31:40Z</time><name>PT3427</name></trkpt>
<trkpt lat="53.396385" lon="-1.877218"><ele>594</ele><time>2021-10-07T12:31:41Z</time><name>PT3428</name></trkpt>
<trkpt lat="53.396377" lon="-1.877219"><ele>594</ele><time>2021-10-07T12:31:42Z</time><name>PT3429</name></trkpt>
<trkpt lat="53.396376" lon="-1.877220"><ele>594</ele><time>2021-10-07T12:31:43Z</time><name>PT3430</name></trkpt>
<trkpt lat="53.396372" lon="-1.877218"><ele>594</ele><time>2021-10-07T12:31:44Z</time><name>PT3431</name></trkpt>
<trkpt lat="53.396365" lon="-1.877218"><ele>594</ele><time>2021-10-07T12:31:46Z</time><name>PT3432</name></trkpt>
<trkpt lat="53.396361" lon="-1.877222"><ele>594</ele><time>2021-10-07T12:31:47Z</time><name>PT3433</name></trkpt>
<trkpt lat="53.396363" lon="-1.877211"><ele>594</ele><time>2021-10-07T12:31:49Z</time><name>PT3434</name></trkpt>
<trkpt lat="53.396364" lon="-1.877205"><ele>594</ele><time>2021-10-07T12:31:49Z</time><name>PT3435</name></trkpt>
<trkpt lat="53.396359" lon="-1.877196"><ele>594</ele><time>2021-10-07T12:31:51Z</time><name>PT3436</name></trkpt>
<trkpt lat="53.396359" lon="-1.877192"><ele>594</ele><time>2021-10-07T12:31:52Z</time><name>PT3437</name></trkpt>
<trkpt lat="53.396356" lon="-1.877187"><ele>594</ele><time>2021-10-07T12:31:53Z</time><name>PT3438</name></trkpt>
<trkpt lat="53.396353" lon="-1.877181"><ele>593</ele><time>2021-10-07T12:31:54Z</time><name>PT3439</name></trkpt>
<trkpt lat="53.396349" lon="-1.877177"><ele>594</ele><time>2021-10-07T12:31:55Z</time><name>PT3440</name></trkpt>
<trkpt lat="53.396347" lon="-1.877170"><ele>594</ele><time>2021-10-07T12:31:56Z</time><name>PT3441</name></trkpt>
<trkpt lat="53.396350" lon="-1.877161"><ele>594</ele><time>2021-10-07T12:31:57Z</time><name>PT3442</name></trkpt>
<trkpt lat="53.396353" lon="-1.877144"><ele>595</ele><time>2021-10-07T12:31:58Z</time><name>PT3443</name></trkpt>
<trkpt lat="53.396355" lon="-1.877132"><ele>594</ele><time>2021-10-07T12:31:59Z</time><name>PT3444</name></trkpt>
<trkpt lat="53.396356" lon="-1.877124"><ele>594</ele><time>2021-10-07T12:32:00Z</time><name>PT3445</name></trkpt>
<trkpt lat="53.396331" lon="-1.877122"><ele>594</ele><time>2021-10-07T12:32:04Z</time><name>PT3446</name></trkpt>
<trkpt lat="53.396316" lon="-1.877125"><ele>593</ele><time>2021-10-07T12:32:08Z</time><name>PT3447</name></trkpt>
<trkpt lat="53.396316" lon="-1.877108"><ele>593</ele><time>2021-10-07T12:32:12Z</time><name>PT3448</name></trkpt>
<trkpt lat="53.396319" lon="-1.877103"><ele>594</ele><time>2021-10-07T12:32:16Z</time><name>PT3449</name></trkpt>
<trkpt lat="53.396316" lon="-1.877101"><ele>594</ele><time>2021-10-07T12:32:20Z</time><name>PT3450</name></trkpt>
<trkpt lat="53.396314" lon="-1.877081"><ele>595</ele><time>2021-10-07T12:32:24Z</time><name>PT3451</name></trkpt>
<trkpt lat="53.396314" lon="-1.877071"><ele>596</ele><time>2021-10-07T12:32:28Z</time><name>PT3452</name></trkpt>
<trkpt lat="53.396329" lon="-1.877050"><ele>597</ele><time>2021-10-07T12:32:32Z</time><name>PT3453</name></trkpt>
<trkpt lat="53.396305" lon="-1.877030"><ele>598</ele><time>2021-10-07T12:32:36Z</time><name>PT3454</name></trkpt>
<trkpt lat="53.396294" lon="-1.877032"><ele>598</ele><time>2021-10-07T12:32:37Z</time><name>PT3455</name></trkpt>
<trkpt lat="53.396284" lon="-1.877040"><ele>599</ele><time>2021-10-07T12:32:38Z</time><name>PT3456</name></trkpt>
<trkpt lat="53.396274" lon="-1.877049"><ele>599</ele><time>2021-10-07T12:32:39Z</time><name>PT3457</name></trkpt>
<trkpt lat="53.396265" lon="-1.877050"><ele>600</ele><time>2021-10-07T12:32:40Z</time><name>PT3458</name></trkpt>
<trkpt lat="53.396255" lon="-1.877043"><ele>601</ele><time>2021-10-07T12:32:41Z</time><name>PT3459</name></trkpt>
<trkpt lat="53.396246" lon="-1.877041"><ele>600</ele><time>2021-10-07T12:32:42Z</time><name>PT3460</name></trkpt>
<trkpt lat="53.396234" lon="-1.877048"><ele>600</ele><time>2021-10-07T12:32:43Z</time><name>PT3461</name></trkpt>
<trkpt lat="53.396224" lon="-1.877051"><ele>600</ele><time>2021-10-07T12:32:44Z</time><name>PT3462</name></trkpt>
<trkpt lat="53.396216" lon="-1.877057"><ele>600</ele><time>2021-10-07T12:32:45Z</time><name>PT3463</name></trkpt>
<trkpt lat="53.396208" lon="-1.877068"><ele>601</ele><time>2021-10-07T12:32:46Z</time><name>PT3464</name></trkpt>
<trkpt lat="53.396204" lon="-1.877084"><ele>601</ele><time>2021-10-07T12:32:48Z</time><name>PT3465</name></trkpt>
<trkpt lat="53.396200" lon="-1.877097"><ele>600</ele><time>2021-10-07T12:32:48Z</time><name>PT3466</name></trkpt>
<trkpt lat="53.396191" lon="-1.877109"><ele>600</ele><time>2021-10-07T12:32:49Z</time><name>PT3467</name></trkpt>
<trkpt lat="53.396182" lon="-1.877115"><ele>600</ele><time>2021-10-07T12:32:50Z</time><name>PT3468</name></trkpt>
<trkpt lat="53.396171" lon="-1.877118"><ele>600</ele><time>2021-10-07T12:32:51Z</time><name>PT3469</name></trkpt>
<trkpt lat="53.396160" lon="-1.877117"><ele>600</ele><time>2021-10-07T12:32:52Z</time><name>PT3470</name></trkpt>
<trkpt lat="53.396148" lon="-1.877114"><ele>600</ele><time>2021-10-07T12:32:53Z</time><name>PT3471</name></trkpt>
<trkpt lat="53.396137" lon="-1.877110"><ele>600</ele><time>2021-10-07T12:32:54Z</time><name>PT3472</name></trkpt>
<trkpt lat="53.396127" lon="-1.877103"><ele>601</ele><time>2021-10-07T12:32:55Z</time><name>PT3473</name></trkpt>
<trkpt lat="53.396116" lon="-1.877096"><ele>601</ele><time>2021-10-07T12:32:56Z</time><name>PT3474</name></trkpt>
<trkpt lat="53.396108" lon="-1.877092"><ele>601</ele><time>2021-10-07T12:32:57Z</time><name>PT3475</name></trkpt>
<trkpt lat="53.396101" lon="-1.877084"><ele>601</ele><time>2021-10-07T12:32:58Z</time><name>PT3476</name></trkpt>
<trkpt lat="53.396094" lon="-1.877069"><ele>601</ele><time>2021-10-07T12:32:59Z</time><name>PT3477</name></trkpt>
<trkpt lat="53.396090" lon="-1.877068"><ele>601</ele><time>2021-10-07T12:33:00Z</time><name>PT3478</name></trkpt>
<trkpt lat="53.396082" lon="-1.877074"><ele>600</ele><time>2021-10-07T12:33:01Z</time><name>PT3479</name></trkpt>
<trkpt lat="53.396075" lon="-1.877077"><ele>600</ele><time>2021-10-07T12:33:03Z</time><name>PT3480</name></trkpt>
<trkpt lat="53.396070" lon="-1.877082"><ele>600</ele><time>2021-10-07T12:33:03Z</time><name>PT3481</name></trkpt>
<trkpt lat="53.396066" lon="-1.877089"><ele>600</ele><time>2021-10-07T12:33:04Z</time><name>PT3482</name></trkpt>
<trkpt lat="53.396060" lon="-1.877089"><ele>600</ele><time>2021-10-07T12:33:05Z</time><name>PT3483</name></trkpt>
<trkpt lat="53.396052" lon="-1.877095"><ele>600</ele><time>2021-10-07T12:33:06Z</time><name>PT3484</name></trkpt>
<trkpt lat="53.396048" lon="-1.877099"><ele>600</ele><time>2021-10-07T12:33:07Z</time><name>PT3485</name></trkpt>
<trkpt lat="53.396049" lon="-1.877110"><ele>600</ele><time>2021-10-07T12:33:08Z</time><name>PT3486</name></trkpt>
<trkpt lat="53.396045" lon="-1.877118"><ele>600</ele><time>2021-10-07T12:33:09Z</time><name>PT3487</name></trkpt>
<trkpt lat="53.396041" lon="-1.877121"><ele>601</ele><time>2021-10-07T12:33:10Z</time><name>PT3488</name></trkpt>
<trkpt lat="53.396038" lon="-1.877121"><ele>601</ele><time>2021-10-07T12:33:12Z</time><name>PT3489</name></trkpt>
<trkpt lat="53.396031" lon="-1.877124"><ele>601</ele><time>2021-10-07T12:33:12Z</time><name>PT3490</name></trkpt>
<trkpt lat="53.396025" lon="-1.877127"><ele>601</ele><time>2021-10-07T12:33:13Z</time><name>PT3491</name></trkpt>
<trkpt lat="53.396022" lon="-1.877121"><ele>601</ele><time>2021-10-07T12:33:14Z</time><name>PT3492</name></trkpt>
<trkpt lat="53.396017" lon="-1.877112"><ele>601</ele><time>2021-10-07T12:33:15Z</time><name>PT3493</name></trkpt>
<trkpt lat="53.396009" lon="-1.877106"><ele>601</ele><time>2021-10-07T12:33:16Z</time><name>PT3494</name></trkpt>
<trkpt lat="53.396001" lon="-1.877107"><ele>602</ele><time>2021-10-07T12:33:17Z</time><name>PT3495</name></trkpt>
<trkpt lat="53.395997" lon="-1.877110"><ele>602</ele><time>2021-10-07T12:33:18Z</time><name>PT3496</name></trkpt>
<trkpt lat="53.395995" lon="-1.877115"><ele>602</ele><time>2021-10-07T12:33:19Z</time><name>PT3497</name></trkpt>
<trkpt lat="53.395994" lon="-1.877114"><ele>602</ele><time>2021-10-07T12:33:20Z</time><name>PT3498</name></trkpt>
<trkpt lat="53.395993" lon="-1.877117"><ele>602</ele><time>2021-10-07T12:33:24Z</time><name>PT3499</name></trkpt>
<trkpt lat="53.395980" lon="-1.877122"><ele>601</ele><time>2021-10-07T12:33:25Z</time><name>PT3500</name></trkpt>
<trkpt lat="53.395970" lon="-1.877130"><ele>601</ele><time>2021-10-07T12:33:26Z</time><name>PT3501</name></trkpt>
<trkpt lat="53.395964" lon="-1.877136"><ele>601</ele><time>2021-10-07T12:33:27Z</time><name>PT3502</name></trkpt>
<trkpt lat="53.395962" lon="-1.877140"><ele>601</ele><time>2021-10-07T12:33:28Z</time><name>PT3503</name></trkpt>
<trkpt lat="53.395958" lon="-1.877145"><ele>602</ele><time>2021-10-07T12:33:29Z</time><name>PT3504</name></trkpt>
<trkpt lat="53.395951" lon="-1.877151"><ele>601</ele><time>2021-10-07T12:33:30Z</time><name>PT3505</name></trkpt>
<trkpt lat="53.395943" lon="-1.877155"><ele>602</ele><time>2021-10-07T12:33:31Z</time><name>PT3506</name></trkpt>
<trkpt lat="53.395937" lon="-1.877150"><ele>601</ele><time>2021-10-07T12:33:32Z</time><name>PT3507</name></trkpt>
<trkpt lat="53.395931" lon="-1.877148"><ele>601</ele><time>2021-10-07T12:33:33Z</time><name>PT3508</name></trkpt>
<trkpt lat="53.395922" lon="-1.877150"><ele>601</ele><time>2021-10-07T12:33:34Z</time><name>PT3509</name></trkpt>
<trkpt lat="53.395910" lon="-1.877159"><ele>601</ele><time>2021-10-07T12:33:35Z</time><name>PT3510</name></trkpt>
<trkpt lat="53.395903" lon="-1.877164"><ele>601</ele><time>2021-10-07T12:33:36Z</time><name>PT3511</name></trkpt>
<trkpt lat="53.395896" lon="-1.877169"><ele>602</ele><time>2021-10-07T12:33:37Z</time><name>PT3512</name></trkpt>
<trkpt lat="53.395894" lon="-1.877182"><ele>601</ele><time>2021-10-07T12:33:38Z</time><name>PT3513</name></trkpt>
<trkpt lat="53.395888" lon="-1.877191"><ele>601</ele><time>2021-10-07T12:33:39Z</time><name>PT3514</name></trkpt>
<trkpt lat="53.395886" lon="-1.877203"><ele>601</ele><time>2021-10-07T12:33:40Z</time><name>PT3515</name></trkpt>
<trkpt lat="53.395885" lon="-1.877207"><ele>601</ele><time>2021-10-07T12:33:41Z</time><name>PT3516</name></trkpt>
<trkpt lat="53.395885" lon="-1.877213"><ele>601</ele><time>2021-10-07T12:33:42Z</time><name>PT3517</name></trkpt>
<trkpt lat="53.395887" lon="-1.877223"><ele>601</ele><time>2021-10-07T12:33:43Z</time><name>PT3518</name></trkpt>
<trkpt lat="53.395883" lon="-1.877230"><ele>601</ele><time>2021-10-07T12:33:44Z</time><name>PT3519</name></trkpt>
<trkpt lat="53.395880" lon="-1.877236"><ele>601</ele><time>2021-10-07T12:33:45Z</time><name>PT3520</name></trkpt>
<trkpt lat="53.395875" lon="-1.877244"><ele>602</ele><time>2021-10-07T12:33:46Z</time><name>PT3521</name></trkpt>
<trkpt lat="53.395869" lon="-1.877247"><ele>602</ele><time>2021-10-07T12:33:47Z</time><name>PT3522</name></trkpt>
<trkpt lat="53.395864" lon="-1.877246"><ele>601</ele><time>2021-10-07T12:33:48Z</time><name>PT3523</name></trkpt>
<trkpt lat="53.395858" lon="-1.877249"><ele>601</ele><time>2021-10-07T12:33:49Z</time><name>PT3524</name></trkpt>
<trkpt lat="53.395851" lon="-1.877258"><ele>601</ele><time>2021-10-07T12:33:51Z</time><name>PT3525</name></trkpt>
<trkpt lat="53.395848" lon="-1.877262"><ele>600</ele><time>2021-10-07T12:33:51Z</time><name>PT3526</name></trkpt>
<trkpt lat="53.395840" lon="-1.877268"><ele>600</ele><time>2021-10-07T12:33:52Z</time><name>PT3527</name></trkpt>
<trkpt lat="53.395835" lon="-1.877274"><ele>599</ele><time>2021-10-07T12:33:53Z</time><name>PT3528</name></trkpt>
<trkpt lat="53.395833" lon="-1.877278"><ele>599</ele><time>2021-10-07T12:33:54Z</time><name>PT3529</name></trkpt>
<trkpt lat="53.395836" lon="-1.877293"><ele>599</ele><time>2021-10-07T12:33:55Z</time><name>PT3530</name></trkpt>
<trkpt lat="53.395837" lon="-1.877305"><ele>599</ele><time>2021-10-07T12:33:56Z</time><name>PT3531</name></trkpt>
<trkpt lat="53.395840" lon="-1.877319"><ele>599</ele><time>2021-10-07T12:33:57Z</time><name>PT3532</name></trkpt>
<trkpt lat="53.395838" lon="-1.877328"><ele>599</ele><time>2021-10-07T12:33:58Z</time><name>PT3533</name></trkpt>
<trkpt lat="53.395836" lon="-1.877341"><ele>598</ele><time>2021-10-07T12:33:59Z</time><name>PT3534</name></trkpt>
<trkpt lat="53.395831" lon="-1.877349"><ele>598</ele><time>2021-10-07T12:34:00Z</time><name>PT3535</name></trkpt>
<trkpt lat="53.395823" lon="-1.877349"><ele>599</ele><time>2021-10-07T12:34:01Z</time><name>PT3536</name></trkpt>
<trkpt lat="53.395814" lon="-1.877347"><ele>599</ele><time>2021-10-07T12:34:02Z</time><name>PT3537</name></trkpt>
<trkpt lat="53.395806" lon="-1.877343"><ele>599</ele><time>2021-10-07T12:34:03Z</time><name>PT3538</name></trkpt>
<trkpt lat="53.395798" lon="-1.877340"><ele>599</ele><time>2021-10-07T12:34:04Z</time><name>PT3539</name></trkpt>
<trkpt lat="53.395787" lon="-1.877340"><ele>598</ele><time>2021-10-07T12:34:05Z</time><name>PT3540</name></trkpt>
<trkpt lat="53.395779" lon="-1.877340"><ele>598</ele><time>2021-10-07T12:34:06Z</time><name>PT3541</name></trkpt>
<trkpt lat="53.395769" lon="-1.877339"><ele>598</ele><time>2021-10-07T12:34:07Z</time><name>PT3542</name></trkpt>
<trkpt lat="53.395758" lon="-1.877335"><ele>598</ele><time>2021-10-07T12:34:08Z</time><name>PT3543</name></trkpt>
<trkpt lat="53.395748" lon="-1.877331"><ele>598</ele><time>2021-10-07T12:34:09Z</time><name>PT3544</name></trkpt>
<trkpt lat="53.395739" lon="-1.877326"><ele>598</ele><time>2021-10-07T12:34:10Z</time><name>PT3545</name></trkpt>
<trkpt lat="53.395730" lon="-1.877315"><ele>599</ele><time>2021-10-07T12:34:12Z</time><name>PT3546</name></trkpt>
<trkpt lat="53.395721" lon="-1.877314"><ele>598</ele><time>2021-10-07T12:34:12Z</time><name>PT3547</name></trkpt>
<trkpt lat="53.395711" lon="-1.877311"><ele>599</ele><time>2021-10-07T12:34:13Z</time><name>PT3548</name></trkpt>
<trkpt lat="53.395700" lon="-1.877310"><ele>598</ele><time>2021-10-07T12:34:14Z</time><name>PT3549</name></trkpt>
<trkpt lat="53.395691" lon="-1.877311"><ele>598</ele><time>2021-10-07T12:34:15Z</time><name>PT3550</name></trkpt>
<trkpt lat="53.395681" lon="-1.877313"><ele>598</ele><time>2021-10-07T12:34:16Z</time><name>PT3551</name></trkpt>
<trkpt lat="53.395670" lon="-1.877319"><ele>598</ele><time>2021-10-07T12:34:17Z</time><name>PT3552</name></trkpt>
<trkpt lat="53.395660" lon="-1.877322"><ele>598</ele><time>2021-10-07T12:34:18Z</time><name>PT3553</name></trkpt>
<trkpt lat="53.395653" lon="-1.877326"><ele>598</ele><time>2021-10-07T12:34:19Z</time><name>PT3554</name></trkpt>
<trkpt lat="53.395644" lon="-1.877329"><ele>598</ele><time>2021-10-07T12:34:20Z</time><name>PT3555</name></trkpt>
<trkpt lat="53.395636" lon="-1.877330"><ele>598</ele><time>2021-10-07T12:34:21Z</time><name>PT3556</name></trkpt>
<trkpt lat="53.395628" lon="-1.877339"><ele>597</ele><time>2021-10-07T12:34:22Z</time><name>PT3557</name></trkpt>
<trkpt lat="53.395620" lon="-1.877342"><ele>597</ele><time>2021-10-07T12:34:23Z</time><name>PT3558</name></trkpt>
<trkpt lat="53.395612" lon="-1.877345"><ele>597</ele><time>2021-10-07T12:34:24Z</time><name>PT3559</name></trkpt>
<trkpt lat="53.395603" lon="-1.877341"><ele>598</ele><time>2021-10-07T12:34:25Z</time><name>PT3560</name></trkpt>
<trkpt lat="53.395596" lon="-1.877347"><ele>597</ele><time>2021-10-07T12:34:27Z</time><name>PT3561</name></trkpt>
<trkpt lat="53.395589" lon="-1.877349"><ele>597</ele><time>2021-10-07T12:34:27Z</time><name>PT3562</name></trkpt>
<trkpt lat="53.395586" lon="-1.877348"><ele>597</ele><time>2021-10-07T12:34:28Z</time><name>PT3563</name></trkpt>
<trkpt lat="53.395580" lon="-1.877345"><ele>597</ele><time>2021-10-07T12:34:29Z</time><name>PT3564</name></trkpt>
<trkpt lat="53.395572" lon="-1.877343"><ele>597</ele><time>2021-10-07T12:34:30Z</time><name>PT3565</name></trkpt>
<trkpt lat="53.395562" lon="-1.877353"><ele>597</ele><time>2021-10-07T12:34:31Z</time><name>PT3566</name></trkpt>
<trkpt lat="53.395555" lon="-1.877347"><ele>597</ele><time>2021-10-07T12:34:32Z</time><name>PT3567</name></trkpt>
<trkpt lat="53.395551" lon="-1.877344"><ele>597</ele><time>2021-10-07T12:34:33Z</time><name>PT3568</name></trkpt>
<trkpt lat="53.395551" lon="-1.877349"><ele>598</ele><time>2021-10-07T12:34:34Z</time><name>PT3569</name></trkpt>
<trkpt lat="53.395547" lon="-1.877351"><ele>597</ele><time>2021-10-07T12:34:35Z</time><name>PT3570</name></trkpt>
<trkpt lat="53.395539" lon="-1.877360"><ele>596</ele><time>2021-10-07T12:34:38Z</time><name>PT3571</name></trkpt>
<trkpt lat="53.395529" lon="-1.877365"><ele>596</ele><time>2021-10-07T12:34:42Z</time><name>PT3572</name></trkpt>
<trkpt lat="53.395501" lon="-1.877390"><ele>596</ele><time>2021-10-07T12:34:46Z</time><name>PT3573</name></trkpt>
<trkpt lat="53.395472" lon="-1.877448"><ele>595</ele><time>2021-10-07T12:34:50Z</time><name>PT3574</name></trkpt>
<trkpt lat="53.395438" lon="-1.877490"><ele>595</ele><time>2021-10-07T12:34:54Z</time><name>PT3575</name></trkpt>
<trkpt lat="53.395402" lon="-1.877518"><ele>596</ele><time>2021-10-07T12:34:58Z</time><name>PT3576</name></trkpt>
<trkpt lat="53.395353" lon="-1.877524"><ele>596</ele><time>2021-10-07T12:35:02Z</time><name>PT3577</name></trkpt>
<trkpt lat="53.395306" lon="-1.877537"><ele>597</ele><time>2021-10-07T12:35:06Z</time><name>PT3578</name></trkpt>
<trkpt lat="53.395268" lon="-1.877551"><ele>598</ele><time>2021-10-07T12:35:10Z</time><name>PT3579</name></trkpt>
<trkpt lat="53.395228" lon="-1.877547"><ele>598</ele><time>2021-10-07T12:35:14Z</time><name>PT3580</name></trkpt>
<trkpt lat="53.395191" lon="-1.877561"><ele>599</ele><time>2021-10-07T12:35:18Z</time><name>PT3581</name></trkpt>
<trkpt lat="53.395162" lon="-1.877574"><ele>598</ele><time>2021-10-07T12:35:22Z</time><name>PT3582</name></trkpt>
<trkpt lat="53.395134" lon="-1.877577"><ele>599</ele><time>2021-10-07T12:35:26Z</time><name>PT3583</name></trkpt>
<trkpt lat="53.395103" lon="-1.877558"><ele>599</ele><time>2021-10-07T12:35:30Z</time><name>PT3584</name></trkpt>
<trkpt lat="53.395063" lon="-1.877544"><ele>599</ele><time>2021-10-07T12:35:34Z</time><name>PT3585</name></trkpt>
<trkpt lat="53.395026" lon="-1.877516"><ele>600</ele><time>2021-10-07T12:35:38Z</time><name>PT3586</name></trkpt>
<trkpt lat="53.394989" lon="-1.877485"><ele>600</ele><time>2021-10-07T12:35:42Z</time><name>PT3587</name></trkpt>
<trkpt lat="53.394942" lon="-1.877472"><ele>600</ele><time>2021-10-07T12:35:46Z</time><name>PT3588</name></trkpt>
<trkpt lat="53.394897" lon="-1.877449"><ele>600</ele><time>2021-10-07T12:35:50Z</time><name>PT3589</name></trkpt>
<trkpt lat="53.394845" lon="-1.877463"><ele>601</ele><time>2021-10-07T12:35:54Z</time><name>PT3590</name></trkpt>
<trkpt lat="53.394794" lon="-1.877488"><ele>602</ele><time>2021-10-07T12:35:58Z</time><name>PT3591</name></trkpt>
<trkpt lat="53.394747" lon="-1.877521"><ele>602</ele><time>2021-10-07T12:36:02Z</time><name>PT3592</name></trkpt>
<trkpt lat="53.394701" lon="-1.877545"><ele>602</ele><time>2021-10-07T12:36:06Z</time><name>PT3593</name></trkpt>
<trkpt lat="53.394660" lon="-1.877580"><ele>601</ele><time>2021-10-07T12:36:10Z</time><name>PT3594</name></trkpt>
<trkpt lat="53.394610" lon="-1.877607"><ele>601</ele><time>2021-10-07T12:36:14Z</time><name>PT3595</name></trkpt>
<trkpt lat="53.394567" lon="-1.877637"><ele>601</ele><time>2021-10-07T12:36:18Z</time><name>PT3596</name></trkpt>
<trkpt lat="53.394520" lon="-1.877669"><ele>601</ele><time>2021-10-07T12:36:22Z</time><name>PT3597</name></trkpt>
<trkpt lat="53.394485" lon="-1.877704"><ele>600</ele><time>2021-10-07T12:36:26Z</time><name>PT3598</name></trkpt>
<trkpt lat="53.394450" lon="-1.877744"><ele>599</ele><time>2021-10-07T12:36:30Z</time><name>PT3599</name></trkpt>
<trkpt lat="53.394419" lon="-1.877763"><ele>599</ele><time>2021-10-07T12:36:34Z</time><name>PT3600</name></trkpt>
<trkpt lat="53.394395" lon="-1.877787"><ele>600</ele><time>2021-10-07T12:36:38Z</time><name>PT3601</name></trkpt>
<trkpt lat="53.394359" lon="-1.877797"><ele>599</ele><time>2021-10-07T12:36:42Z</time><name>PT3602</name></trkpt>
<trkpt lat="53.394339" lon="-1.877837"><ele>599</ele><time>2021-10-07T12:36:46Z</time><name>PT3603</name></trkpt>
<trkpt lat="53.394317" lon="-1.877870"><ele>599</ele><time>2021-10-07T12:36:50Z</time><name>PT3604</name></trkpt>
<trkpt lat="53.394282" lon="-1.877902"><ele>598</ele><time>2021-10-07T12:36:53Z</time><name>PT3605</name></trkpt>
<trkpt lat="53.394248" lon="-1.877917"><ele>598</ele><time>2021-10-07T12:36:57Z</time><name>PT3606</name></trkpt>
<trkpt lat="53.394205" lon="-1.877945"><ele>599</ele><time>2021-10-07T12:37:00Z</time><name>PT3607</name></trkpt>
<trkpt lat="53.394161" lon="-1.877984"><ele>598</ele><time>2021-10-07T12:37:04Z</time><name>PT3608</name></trkpt>
<trkpt lat="53.394117" lon="-1.878014"><ele>599</ele><time>2021-10-07T12:37:08Z</time><name>PT3609</name></trkpt>
<trkpt lat="53.394070" lon="-1.878044"><ele>599</ele><time>2021-10-07T12:37:12Z</time><name>PT3610</name></trkpt>
<trkpt lat="53.394023" lon="-1.878057"><ele>598</ele><time>2021-10-07T12:37:16Z</time><name>PT3611</name></trkpt>
<trkpt lat="53.393986" lon="-1.878047"><ele>598</ele><time>2021-10-07T12:37:20Z</time><name>PT3612</name></trkpt>
<trkpt lat="53.393941" lon="-1.878068"><ele>598</ele><time>2021-10-07T12:37:24Z</time><name>PT3613</name></trkpt>
<trkpt lat="53.393908" lon="-1.878085"><ele>597</ele><time>2021-10-07T12:37:28Z</time><name>PT3614</name></trkpt>
<trkpt lat="53.393891" lon="-1.878101"><ele>598</ele><time>2021-10-07T12:37:32Z</time><name>PT3615</name></trkpt>
<trkpt lat="53.393853" lon="-1.878126"><ele>598</ele><time>2021-10-07T12:37:36Z</time><name>PT3616</name></trkpt>
<trkpt lat="53.393807" lon="-1.878163"><ele>596</ele><time>2021-10-07T12:37:40Z</time><name>PT3617</name></trkpt>
<trkpt lat="53.393763" lon="-1.878196"><ele>596</ele><time>2021-10-07T12:37:44Z</time><name>PT3618</name></trkpt>
<trkpt lat="53.393717" lon="-1.878246"><ele>596</ele><time>2021-10-07T12:37:48Z</time><name>PT3619</name></trkpt>
<trkpt lat="53.393676" lon="-1.878299"><ele>596</ele><time>2021-10-07T12:37:52Z</time><name>PT3620</name></trkpt>
<trkpt lat="53.393636" lon="-1.878323"><ele>596</ele><time>2021-10-07T12:37:56Z</time><name>PT3621</name></trkpt>
<trkpt lat="53.393618" lon="-1.878335"><ele>597</ele><time>2021-10-07T12:38:00Z</time><name>PT3622</name></trkpt>
<trkpt lat="53.393586" lon="-1.878360"><ele>597</ele><time>2021-10-07T12:38:04Z</time><name>PT3623</name></trkpt>
<trkpt lat="53.393557" lon="-1.878380"><ele>598</ele><time>2021-10-07T12:38:08Z</time><name>PT3624</name></trkpt>
<trkpt lat="53.393530" lon="-1.878393"><ele>600</ele><time>2021-10-07T12:38:12Z</time><name>PT3625</name></trkpt>
<trkpt lat="53.393502" lon="-1.878422"><ele>599</ele><time>2021-10-07T12:38:16Z</time><name>PT3626</name></trkpt>
<trkpt lat="53.393474" lon="-1.878455"><ele>600</ele><time>2021-10-07T12:38:20Z</time><name>PT3627</name></trkpt>
<trkpt lat="53.393433" lon="-1.878473"><ele>600</ele><time>2021-10-07T12:38:24Z</time><name>PT3628</name></trkpt>
<trkpt lat="53.393401" lon="-1.878501"><ele>600</ele><time>2021-10-07T12:38:28Z</time><name>PT3629</name></trkpt>
<trkpt lat="53.393366" lon="-1.878521"><ele>601</ele><time>2021-10-07T12:38:32Z</time><name>PT3630</name></trkpt>
<trkpt lat="53.393334" lon="-1.878521"><ele>601</ele><time>2021-10-07T12:38:36Z</time><name>PT3631</name></trkpt>
<trkpt lat="53.393305" lon="-1.878554"><ele>601</ele><time>2021-10-07T12:38:40Z</time><name>PT3632</name></trkpt>
<trkpt lat="53.393272" lon="-1.878587"><ele>601</ele><time>2021-10-07T12:38:44Z</time><name>PT3633</name></trkpt>
<trkpt lat="53.393233" lon="-1.878610"><ele>601</ele><time>2021-10-07T12:38:48Z</time><name>PT3634</name></trkpt>
<trkpt lat="53.393192" lon="-1.878654"><ele>601</ele><time>2021-10-07T12:38:52Z</time><name>PT3635</name></trkpt>
<trkpt lat="53.393151" lon="-1.878668"><ele>603</ele><time>2021-10-07T12:38:56Z</time><name>PT3636</name></trkpt>
<trkpt lat="53.393111" lon="-1.878659"><ele>602</ele><time>2021-10-07T12:39:00Z</time><name>PT3637</name></trkpt>
<trkpt lat="53.393068" lon="-1.878625"><ele>603</ele><time>2021-10-07T12:39:04Z</time><name>PT3638</name></trkpt>
<trkpt lat="53.393034" lon="-1.878595"><ele>604</ele><time>2021-10-07T12:39:08Z</time><name>PT3639</name></trkpt>
<trkpt lat="53.392999" lon="-1.878615"><ele>604</ele><time>2021-10-07T12:39:12Z</time><name>PT3640</name></trkpt>
<trkpt lat="53.392968" lon="-1.878629"><ele>603</ele><time>2021-10-07T12:39:16Z</time><name>PT3641</name></trkpt>
<trkpt lat="53.392923" lon="-1.878624"><ele>603</ele><time>2021-10-07T12:39:20Z</time><name>PT3642</name></trkpt>
<trkpt lat="53.392884" lon="-1.878637"><ele>604</ele><time>2021-10-07T12:39:24Z</time><name>PT3643</name></trkpt>
<trkpt lat="53.392845" lon="-1.878651"><ele>603</ele><time>2021-10-07T12:39:28Z</time><name>PT3644</name></trkpt>
<trkpt lat="53.392801" lon="-1.878644"><ele>604</ele><time>2021-10-07T12:39:32Z</time><name>PT3645</name></trkpt>
<trkpt lat="53.392775" lon="-1.878638"><ele>603</ele><time>2021-10-07T12:39:36Z</time><name>PT3646</name></trkpt>
<trkpt lat="53.392737" lon="-1.878632"><ele>604</ele><time>2021-10-07T12:39:40Z</time><name>PT3647</name></trkpt>
<trkpt lat="53.392703" lon="-1.878629"><ele>604</ele><time>2021-10-07T12:39:44Z</time><name>PT3648</name></trkpt>
<trkpt lat="53.392676" lon="-1.878610"><ele>604</ele><time>2021-10-07T12:39:48Z</time><name>PT3649</name></trkpt>
<trkpt lat="53.392644" lon="-1.878596"><ele>605</ele><time>2021-10-07T12:39:52Z</time><name>PT3650</name></trkpt>
<trkpt lat="53.392608" lon="-1.878605"><ele>605</ele><time>2021-10-07T12:39:56Z</time><name>PT3651</name></trkpt>
<trkpt lat="53.392566" lon="-1.878606"><ele>604</ele><time>2021-10-07T12:40:00Z</time><name>PT3652</name></trkpt>
<trkpt lat="53.392525" lon="-1.878620"><ele>604</ele><time>2021-10-07T12:40:04Z</time><name>PT3653</name></trkpt>
<trkpt lat="53.392487" lon="-1.878640"><ele>604</ele><time>2021-10-07T12:40:08Z</time><name>PT3654</name></trkpt>
<trkpt lat="53.392439" lon="-1.878656"><ele>603</ele><time>2021-10-07T12:40:12Z</time><name>PT3655</name></trkpt>
<trkpt lat="53.392402" lon="-1.878681"><ele>603</ele><time>2021-10-07T12:40:16Z</time><name>PT3656</name></trkpt>
<trkpt lat="53.392363" lon="-1.878705"><ele>603</ele><time>2021-10-07T12:40:20Z</time><name>PT3657</name></trkpt>
<trkpt lat="53.392320" lon="-1.878716"><ele>604</ele><time>2021-10-07T12:40:24Z</time><name>PT3658</name></trkpt>
<trkpt lat="53.392284" lon="-1.878703"><ele>604</ele><time>2021-10-07T12:40:28Z</time><name>PT3659</name></trkpt>
<trkpt lat="53.392238" lon="-1.878713"><ele>604</ele><time>2021-10-07T12:40:32Z</time><name>PT3660</name></trkpt>
<trkpt lat="53.392198" lon="-1.878761"><ele>604</ele><time>2021-10-07T12:40:36Z</time><name>PT3661</name></trkpt>
<trkpt lat="53.392163" lon="-1.878778"><ele>604</ele><time>2021-10-07T12:40:40Z</time><name>PT3662</name></trkpt>
<trkpt lat="53.392129" lon="-1.878790"><ele>604</ele><time>2021-10-07T12:40:44Z</time><name>PT3663</name></trkpt>
<trkpt lat="53.392097" lon="-1.878790"><ele>604</ele><time>2021-10-07T12:40:48Z</time><name>PT3664</name></trkpt>
<trkpt lat="53.392056" lon="-1.878793"><ele>604</ele><time>2021-10-07T12:40:52Z</time><name>PT3665</name></trkpt>
<trkpt lat="53.392021" lon="-1.878796"><ele>605</ele><time>2021-10-07T12:40:56Z</time><name>PT3666</name></trkpt>
<trkpt lat="53.391980" lon="-1.878800"><ele>605</ele><time>2021-10-07T12:41:00Z</time><name>PT3667</name></trkpt>
<trkpt lat="53.391930" lon="-1.878815"><ele>606</ele><time>2021-10-07T12:41:04Z</time><name>PT3668</name></trkpt>
<trkpt lat="53.391895" lon="-1.878823"><ele>606</ele><time>2021-10-07T12:41:08Z</time><name>PT3669</name></trkpt>
<trkpt lat="53.391859" lon="-1.878830"><ele>606</ele><time>2021-10-07T12:41:12Z</time><name>PT3670</name></trkpt>
<trkpt lat="53.391819" lon="-1.878826"><ele>607</ele><time>2021-10-07T12:41:16Z</time><name>PT3671</name></trkpt>
<trkpt lat="53.391781" lon="-1.878829"><ele>608</ele><time>2021-10-07T12:41:20Z</time><name>PT3672</name></trkpt>
<trkpt lat="53.391750" lon="-1.878855"><ele>607</ele><time>2021-10-07T12:41:24Z</time><name>PT3673</name></trkpt>
<trkpt lat="53.391715" lon="-1.878882"><ele>605</ele><time>2021-10-07T12:41:28Z</time><name>PT3674</name></trkpt>
<trkpt lat="53.391695" lon="-1.878893"><ele>605</ele><time>2021-10-07T12:41:31Z</time><name>PT3675</name></trkpt>
<trkpt lat="53.391645" lon="-1.878915"><ele>605</ele><time>2021-10-07T12:41:35Z</time><name>PT3676</name></trkpt>
<trkpt lat="53.391618" lon="-1.878974"><ele>605</ele><time>2021-10-07T12:41:39Z</time><name>PT3677</name></trkpt>
<trkpt lat="53.391574" lon="-1.879012"><ele>605</ele><time>2021-10-07T12:41:43Z</time><name>PT3678</name></trkpt>
<trkpt lat="53.391531" lon="-1.879047"><ele>606</ele><time>2021-10-07T12:41:47Z</time><name>PT3679</name></trkpt>
<trkpt lat="53.391490" lon="-1.879091"><ele>605</ele><time>2021-10-07T12:41:51Z</time><name>PT3680</name></trkpt>
<trkpt lat="53.391450" lon="-1.879113"><ele>605</ele><time>2021-10-07T12:41:55Z</time><name>PT3681</name></trkpt>
<trkpt lat="53.391406" lon="-1.879154"><ele>604</ele><time>2021-10-07T12:41:59Z</time><name>PT3682</name></trkpt>
<trkpt lat="53.391357" lon="-1.879187"><ele>604</ele><time>2021-10-07T12:42:03Z</time><name>PT3683</name></trkpt>
<trkpt lat="53.391313" lon="-1.879209"><ele>605</ele><time>2021-10-07T12:42:07Z</time><name>PT3684</name></trkpt>
<trkpt lat="53.391269" lon="-1.879244"><ele>605</ele><time>2021-10-07T12:42:11Z</time><name>PT3685</name></trkpt>
<trkpt lat="53.391222" lon="-1.879280"><ele>605</ele><time>2021-10-07T12:42:15Z</time><name>PT3686</name></trkpt>
<trkpt lat="53.391177" lon="-1.879322"><ele>604</ele><time>2021-10-07T12:42:19Z</time><name>PT3687</name></trkpt>
<trkpt lat="53.391138" lon="-1.879359"><ele>604</ele><time>2021-10-07T12:42:23Z</time><name>PT3688</name></trkpt>
<trkpt lat="53.391090" lon="-1.879404"><ele>604</ele><time>2021-10-07T12:42:27Z</time><name>PT3689</name></trkpt>
<trkpt lat="53.391043" lon="-1.879445"><ele>604</ele><time>2021-10-07T12:42:31Z</time><name>PT3690</name></trkpt>
<trkpt lat="53.390998" lon="-1.879480"><ele>604</ele><time>2021-10-07T12:42:35Z</time><name>PT3691</name></trkpt>
<trkpt lat="53.390954" lon="-1.879517"><ele>604</ele><time>2021-10-07T12:42:39Z</time><name>PT3692</name></trkpt>
<trkpt lat="53.390906" lon="-1.879528"><ele>603</ele><time>2021-10-07T12:42:43Z</time><name>PT3693</name></trkpt>
<trkpt lat="53.390865" lon="-1.879549"><ele>601</ele><time>2021-10-07T12:42:47Z</time><name>PT3694</name></trkpt>
<trkpt lat="53.390815" lon="-1.879572"><ele>601</ele><time>2021-10-07T12:42:51Z</time><name>PT3695</name></trkpt>
<trkpt lat="53.390771" lon="-1.879597"><ele>601</ele><time>2021-10-07T12:42:55Z</time><name>PT3696</name></trkpt>
<trkpt lat="53.390721" lon="-1.879633"><ele>602</ele><time>2021-10-07T12:42:59Z</time><name>PT3697</name></trkpt>
<trkpt lat="53.390674" lon="-1.879649"><ele>601</ele><time>2021-10-07T12:43:03Z</time><name>PT3698</name></trkpt>
<trkpt lat="53.390622" lon="-1.879651"><ele>600</ele><time>2021-10-07T12:43:07Z</time><name>PT3699</name></trkpt>
<trkpt lat="53.390573" lon="-1.879652"><ele>600</ele><time>2021-10-07T12:43:11Z</time><name>PT3700</name></trkpt>
<trkpt lat="53.390526" lon="-1.879640"><ele>601</ele><time>2021-10-07T12:43:15Z</time><name>PT3701</name></trkpt>
<trkpt lat="53.390480" lon="-1.879652"><ele>601</ele><time>2021-10-07T12:43:19Z</time><name>PT3702</name></trkpt>
<trkpt lat="53.390432" lon="-1.879655"><ele>601</ele><time>2021-10-07T12:43:23Z</time><name>PT3703</name></trkpt>
<trkpt lat="53.390389" lon="-1.879701"><ele>601</ele><time>2021-10-07T12:43:27Z</time><name>PT3704</name></trkpt>
<trkpt lat="53.390339" lon="-1.879738"><ele>600</ele><time>2021-10-07T12:43:31Z</time><name>PT3705</name></trkpt>
<trkpt lat="53.390299" lon="-1.879768"><ele>601</ele><time>2021-10-07T12:43:35Z</time><name>PT3706</name></trkpt>
<trkpt lat="53.390258" lon="-1.879802"><ele>601</ele><time>2021-10-07T12:43:39Z</time><name>PT3707</name></trkpt>
<trkpt lat="53.390213" lon="-1.879828"><ele>602</ele><time>2021-10-07T12:43:43Z</time><name>PT3708</name></trkpt>
<trkpt lat="53.390172" lon="-1.879864"><ele>601</ele><time>2021-10-07T12:43:47Z</time><name>PT3709</name></trkpt>
<trkpt lat="53.390132" lon="-1.879924"><ele>602</ele><time>2021-10-07T12:43:51Z</time><name>PT3710</name></trkpt>
<trkpt lat="53.390094" lon="-1.879958"><ele>603</ele><time>2021-10-07T12:43:55Z</time><name>PT3711</name></trkpt>
<trkpt lat="53.390061" lon="-1.879999"><ele>604</ele><time>2021-10-07T12:43:59Z</time><name>PT3712</name></trkpt>
<trkpt lat="53.390026" lon="-1.880035"><ele>605</ele><time>2021-10-07T12:44:03Z</time><name>PT3713</name></trkpt>
<trkpt lat="53.389984" lon="-1.880069"><ele>605</ele><time>2021-10-07T12:44:07Z</time><name>PT3714</name></trkpt>
<trkpt lat="53.389932" lon="-1.880108"><ele>603</ele><time>2021-10-07T12:44:11Z</time><name>PT3715</name></trkpt>
<trkpt lat="53.389887" lon="-1.880123"><ele>603</ele><time>2021-10-07T12:44:15Z</time><name>PT3716</name></trkpt>
<trkpt lat="53.389853" lon="-1.880165"><ele>605</ele><time>2021-10-07T12:44:19Z</time><name>PT3717</name></trkpt>
<trkpt lat="53.389825" lon="-1.880197"><ele>606</ele><time>2021-10-07T12:44:23Z</time><name>PT3718</name></trkpt>
<trkpt lat="53.389790" lon="-1.880236"><ele>605</ele><time>2021-10-07T12:44:27Z</time><name>PT3719</name></trkpt>
<trkpt lat="53.389747" lon="-1.880281"><ele>605</ele><time>2021-10-07T12:44:31Z</time><name>PT3720</name></trkpt>
<trkpt lat="53.389722" lon="-1.880340"><ele>605</ele><time>2021-10-07T12:44:35Z</time><name>PT3721</name></trkpt>
<trkpt lat="53.389706" lon="-1.880396"><ele>605</ele><time>2021-10-07T12:44:39Z</time><name>PT3722</name></trkpt>
<trkpt lat="53.389673" lon="-1.880443"><ele>605</ele><time>2021-10-07T12:44:43Z</time><name>PT3723</name></trkpt>
<trkpt lat="53.389641" lon="-1.880468"><ele>605</ele><time>2021-10-07T12:44:46Z</time><name>PT3724</name></trkpt>
<trkpt lat="53.389607" lon="-1.880476"><ele>604</ele><time>2021-10-07T12:44:50Z</time><name>PT3725</name></trkpt>
<trkpt lat="53.389573" lon="-1.880497"><ele>604</ele><time>2021-10-07T12:44:54Z</time><name>PT3726</name></trkpt>
<trkpt lat="53.389534" lon="-1.880501"><ele>604</ele><time>2021-10-07T12:44:58Z</time><name>PT3727</name></trkpt>
<trkpt lat="53.389496" lon="-1.880483"><ele>603</ele><time>2021-10-07T12:45:02Z</time><name>PT3728</name></trkpt>
<trkpt lat="53.389455" lon="-1.880489"><ele>601</ele><time>2021-10-07T12:45:06Z</time><name>PT3729</name></trkpt>
<trkpt lat="53.389413" lon="-1.880492"><ele>601</ele><time>2021-10-07T12:45:10Z</time><name>PT3730</name></trkpt>
<trkpt lat="53.389364" lon="-1.880487"><ele>601</ele><time>2021-10-07T12:45:14Z</time><name>PT3731</name></trkpt>
<trkpt lat="53.389315" lon="-1.880501"><ele>600</ele><time>2021-10-07T12:45:18Z</time><name>PT3732</name></trkpt>
<trkpt lat="53.389260" lon="-1.880493"><ele>600</ele><time>2021-10-07T12:45:22Z</time><name>PT3733</name></trkpt>
<trkpt lat="53.389214" lon="-1.880479"><ele>599</ele><time>2021-10-07T12:45:26Z</time><name>PT3734</name></trkpt>
<trkpt lat="53.389169" lon="-1.880480"><ele>598</ele><time>2021-10-07T12:45:30Z</time><name>PT3735</name></trkpt>
<trkpt lat="53.389114" lon="-1.880490"><ele>599</ele><time>2021-10-07T12:45:34Z</time><name>PT3736</name></trkpt>
<trkpt lat="53.389069" lon="-1.880486"><ele>600</ele><time>2021-10-07T12:45:38Z</time><name>PT3737</name></trkpt>
<trkpt lat="53.389031" lon="-1.880480"><ele>600</ele><time>2021-10-07T12:45:42Z</time><name>PT3738</name></trkpt>
<trkpt lat="53.388992" lon="-1.880476"><ele>601</ele><time>2021-10-07T12:45:46Z</time><name>PT3739</name></trkpt>
<trkpt lat="53.388949" lon="-1.880467"><ele>600</ele><time>2021-10-07T12:45:50Z</time><name>PT3740</name></trkpt>
<trkpt lat="53.388900" lon="-1.880454"><ele>599</ele><time>2021-10-07T12:45:54Z</time><name>PT3741</name></trkpt>
<trkpt lat="53.388851" lon="-1.880439"><ele>600</ele><time>2021-10-07T12:45:58Z</time><name>PT3742</name></trkpt>
<trkpt lat="53.388809" lon="-1.880428"><ele>600</ele><time>2021-10-07T12:46:02Z</time><name>PT3743</name></trkpt>
<trkpt lat="53.388769" lon="-1.880429"><ele>600</ele><time>2021-10-07T12:46:06Z</time><name>PT3744</name></trkpt>
<trkpt lat="53.388730" lon="-1.880417"><ele>599</ele><time>2021-10-07T12:46:10Z</time><name>PT3745</name></trkpt>
<trkpt lat="53.388695" lon="-1.880418"><ele>598</ele><time>2021-10-07T12:46:14Z</time><name>PT3746</name></trkpt>
<trkpt lat="53.388653" lon="-1.880430"><ele>598</ele><time>2021-10-07T12:46:18Z</time><name>PT3747</name></trkpt>
<trkpt lat="53.388609" lon="-1.880439"><ele>599</ele><time>2021-10-07T12:46:22Z</time><name>PT3748</name></trkpt>
<trkpt lat="53.388572" lon="-1.880436"><ele>599</ele><time>2021-10-07T12:46:26Z</time><name>PT3749</name></trkpt>
<trkpt lat="53.388555" lon="-1.880463"><ele>598</ele><time>2021-10-07T12:46:30Z</time><name>PT3750</name></trkpt>
<trkpt lat="53.388527" lon="-1.880506"><ele>599</ele><time>2021-10-07T12:46:34Z</time><name>PT3751</name></trkpt>
<trkpt lat="53.388526" lon="-1.880510"><ele>599</ele><time>2021-10-07T12:46:38Z</time><name>PT3752</name></trkpt>
<trkpt lat="53.388534" lon="-1.880602"><ele>602</ele><time>2021-10-07T12:47:34Z</time><name>PT3753</name></trkpt>
<trkpt lat="53.388546" lon="-1.880688"><ele>602</ele><time>2021-10-07T12:47:38Z</time><name>PT3754</name></trkpt>
<trkpt lat="53.388549" lon="-1.880769"><ele>601</ele><time>2021-10-07T12:47:42Z</time><name>PT3755</name></trkpt>
<trkpt lat="53.388553" lon="-1.880846"><ele>602</ele><time>2021-10-07T12:47:46Z</time><name>PT3756</name></trkpt>
<trkpt lat="53.388536" lon="-1.880933"><ele>602</ele><time>2021-10-07T12:47:50Z</time><name>PT3757</name></trkpt>
<trkpt lat="53.388533" lon="-1.881017"><ele>600</ele><time>2021-10-07T12:47:54Z</time><name>PT3758</name></trkpt>
<trkpt lat="53.388517" lon="-1.881094"><ele>600</ele><time>2021-10-07T12:47:58Z</time><name>PT3759</name></trkpt>
<trkpt lat="53.388500" lon="-1.881160"><ele>601</ele><time>2021-10-07T12:48:02Z</time><name>PT3760</name></trkpt>
<trkpt lat="53.388483" lon="-1.881228"><ele>602</ele><time>2021-10-07T12:48:06Z</time><name>PT3761</name></trkpt>
<trkpt lat="53.388477" lon="-1.881307"><ele>602</ele><time>2021-10-07T12:48:10Z</time><name>PT3762</name></trkpt>
<trkpt lat="53.388461" lon="-1.881378"><ele>602</ele><time>2021-10-07T12:48:14Z</time><name>PT3763</name></trkpt>
<trkpt lat="53.388442" lon="-1.881452"><ele>602</ele><time>2021-10-07T12:48:18Z</time><name>PT3764</name></trkpt>
<trkpt lat="53.388433" lon="-1.881516"><ele>603</ele><time>2021-10-07T12:48:22Z</time><name>PT3765</name></trkpt>
<trkpt lat="53.388422" lon="-1.881581"><ele>602</ele><time>2021-10-07T12:48:26Z</time><name>PT3766</name></trkpt>
<trkpt lat="53.388408" lon="-1.881662"><ele>603</ele><time>2021-10-07T12:48:30Z</time><name>PT3767</name></trkpt>
<trkpt lat="53.388392" lon="-1.881721"><ele>603</ele><time>2021-10-07T12:48:34Z</time><name>PT3768</name></trkpt>
<trkpt lat="53.388369" lon="-1.881748"><ele>604</ele><time>2021-10-07T12:48:38Z</time><name>PT3769</name></trkpt>
<trkpt lat="53.388345" lon="-1.881796"><ele>604</ele><time>2021-10-07T12:48:42Z</time><name>PT3770</name></trkpt>
<trkpt lat="53.388319" lon="-1.881855"><ele>604</ele><time>2021-10-07T12:48:46Z</time><name>PT3771</name></trkpt>
<trkpt lat="53.388280" lon="-1.881906"><ele>605</ele><time>2021-10-07T12:48:50Z</time><name>PT3772</name></trkpt>
<trkpt lat="53.388244" lon="-1.881965"><ele>605</ele><time>2021-10-07T12:48:54Z</time><name>PT3773</name></trkpt>
<trkpt lat="53.388217" lon="-1.881989"><ele>604</ele><time>2021-10-07T12:48:58Z</time><name>PT3774</name></trkpt>
<trkpt lat="53.388182" lon="-1.881992"><ele>603</ele><time>2021-10-07T12:49:02Z</time><name>PT3775</name></trkpt>
<trkpt lat="53.388141" lon="-1.882011"><ele>603</ele><time>2021-10-07T12:49:05Z</time><name>PT3776</name></trkpt>
<trkpt lat="53.388114" lon="-1.882057"><ele>603</ele><time>2021-10-07T12:49:09Z</time><name>PT3777</name></trkpt>
<trkpt lat="53.388094" lon="-1.882103"><ele>603</ele><time>2021-10-07T12:49:13Z</time><name>PT3778</name></trkpt>
<trkpt lat="53.388058" lon="-1.882142"><ele>604</ele><time>2021-10-07T12:49:17Z</time><name>PT3779</name></trkpt>
<trkpt lat="53.388026" lon="-1.882151"><ele>603</ele><time>2021-10-07T12:49:21Z</time><name>PT3780</name></trkpt>
<trkpt lat="53.387996" lon="-1.882174"><ele>603</ele><time>2021-10-07T12:49:25Z</time><name>PT3781</name></trkpt>
<trkpt lat="53.387955" lon="-1.882180"><ele>604</ele><time>2021-10-07T12:49:29Z</time><name>PT3782</name></trkpt>
<trkpt lat="53.387916" lon="-1.882209"><ele>605</ele><time>2021-10-07T12:49:33Z</time><name>PT3783</name></trkpt>
<trkpt lat="53.387879" lon="-1.882241"><ele>607</ele><time>2021-10-07T12:49:37Z</time><name>PT3784</name></trkpt>
<trkpt lat="53.387851" lon="-1.882291"><ele>608</ele><time>2021-10-07T12:49:41Z</time><name>PT3785</name></trkpt>
<trkpt lat="53.387828" lon="-1.882354"><ele>608</ele><time>2021-10-07T12:49:45Z</time><name>PT3786</name></trkpt>
<trkpt lat="53.387812" lon="-1.882412"><ele>608</ele><time>2021-10-07T12:49:49Z</time><name>PT3787</name></trkpt>
<trkpt lat="53.387791" lon="-1.882465"><ele>608</ele><time>2021-10-07T12:49:52Z</time><name>PT3788</name></trkpt>
<trkpt lat="53.387781" lon="-1.882482"><ele>608</ele><time>2021-10-07T12:49:53Z</time><name>PT3789</name></trkpt>
<trkpt lat="53.387773" lon="-1.882500"><ele>608</ele><time>2021-10-07T12:49:54Z</time><name>PT3790</name></trkpt>
<trkpt lat="53.387766" lon="-1.882522"><ele>608</ele><time>2021-10-07T12:49:55Z</time><name>PT3791</name></trkpt>
<trkpt lat="53.387761" lon="-1.882539"><ele>608</ele><time>2021-10-07T12:49:56Z</time><name>PT3792</name></trkpt>
<trkpt lat="53.387754" lon="-1.882549"><ele>608</ele><time>2021-10-07T12:49:57Z</time><name>PT3793</name></trkpt>
<trkpt lat="53.387745" lon="-1.882557"><ele>608</ele><time>2021-10-07T12:49:58Z</time><name>PT3794</name></trkpt>
<trkpt lat="53.387735" lon="-1.882568"><ele>608</ele><time>2021-10-07T12:49:59Z</time><name>PT3795</name></trkpt>
<trkpt lat="53.387726" lon="-1.882580"><ele>609</ele><time>2021-10-07T12:50:00Z</time><name>PT3796</name></trkpt>
<trkpt lat="53.387718" lon="-1.882598"><ele>609</ele><time>2021-10-07T12:50:01Z</time><name>PT3797</name></trkpt>
<trkpt lat="53.387708" lon="-1.882615"><ele>608</ele><time>2021-10-07T12:50:02Z</time><name>PT3798</name></trkpt>
<trkpt lat="53.387701" lon="-1.882629"><ele>608</ele><time>2021-10-07T12:50:03Z</time><name>PT3799</name></trkpt>
<trkpt lat="53.387692" lon="-1.882640"><ele>608</ele><time>2021-10-07T12:50:04Z</time><name>PT3800</name></trkpt>
<trkpt lat="53.387684" lon="-1.882653"><ele>608</ele><time>2021-10-07T12:50:05Z</time><name>PT3801</name></trkpt>
<trkpt lat="53.387677" lon="-1.882661"><ele>608</ele><time>2021-10-07T12:50:06Z</time><name>PT3802</name></trkpt>
<trkpt lat="53.387668" lon="-1.882674"><ele>608</ele><time>2021-10-07T12:50:07Z</time><name>PT3803</name></trkpt>
<trkpt lat="53.387660" lon="-1.882687"><ele>608</ele><time>2021-10-07T12:50:08Z</time><name>PT3804</name></trkpt>
<trkpt lat="53.387651" lon="-1.882694"><ele>608</ele><time>2021-10-07T12:50:09Z</time><name>PT3805</name></trkpt>
<trkpt lat="53.387643" lon="-1.882694"><ele>608</ele><time>2021-10-07T12:50:10Z</time><name>PT3806</name></trkpt>
<trkpt lat="53.387632" lon="-1.882698"><ele>608</ele><time>2021-10-07T12:50:11Z</time><name>PT3807</name></trkpt>
<trkpt lat="53.387620" lon="-1.882710"><ele>608</ele><time>2021-10-07T12:50:12Z</time><name>PT3808</name></trkpt>
<trkpt lat="53.387608" lon="-1.882723"><ele>608</ele><time>2021-10-07T12:50:13Z</time><name>PT3809</name></trkpt>
<trkpt lat="53.387598" lon="-1.882731"><ele>608</ele><time>2021-10-07T12:50:14Z</time><name>PT3810</name></trkpt>
<trkpt lat="53.387588" lon="-1.882737"><ele>608</ele><time>2021-10-07T12:50:15Z</time><name>PT3811</name></trkpt>
<trkpt lat="53.387576" lon="-1.882739"><ele>608</ele><time>2021-10-07T12:50:16Z</time><name>PT3812</name></trkpt>
<trkpt lat="53.387567" lon="-1.882742"><ele>608</ele><time>2021-10-07T12:50:17Z</time><name>PT3813</name></trkpt>
<trkpt lat="53.387558" lon="-1.882748"><ele>609</ele><time>2021-10-07T12:50:18Z</time><name>PT3814</name></trkpt>
<trkpt lat="53.387547" lon="-1.882760"><ele>609</ele><time>2021-10-07T12:50:19Z</time><name>PT3815</name></trkpt>
<trkpt lat="53.387536" lon="-1.882767"><ele>609</ele><time>2021-10-07T12:50:20Z</time><name>PT3816</name></trkpt>
<trkpt lat="53.387526" lon="-1.882773"><ele>609</ele><time>2021-10-07T12:50:21Z</time><name>PT3817</name></trkpt>
<trkpt lat="53.387518" lon="-1.882786"><ele>609</ele><time>2021-10-07T12:50:22Z</time><name>PT3818</name></trkpt>
<trkpt lat="53.387511" lon="-1.882799"><ele>609</ele><time>2021-10-07T12:50:23Z</time><name>PT3819</name></trkpt>
<trkpt lat="53.387501" lon="-1.882812"><ele>610</ele><time>2021-10-07T12:50:24Z</time><name>PT3820</name></trkpt>
<trkpt lat="53.387492" lon="-1.882821"><ele>610</ele><time>2021-10-07T12:50:25Z</time><name>PT3821</name></trkpt>
<trkpt lat="53.387481" lon="-1.882826"><ele>610</ele><time>2021-10-07T12:50:26Z</time><name>PT3822</name></trkpt>
<trkpt lat="53.387467" lon="-1.882834"><ele>611</ele><time>2021-10-07T12:50:27Z</time><name>PT3823</name></trkpt>
<trkpt lat="53.387458" lon="-1.882845"><ele>611</ele><time>2021-10-07T12:50:28Z</time><name>PT3824</name></trkpt>
<trkpt lat="53.387448" lon="-1.882854"><ele>611</ele><time>2021-10-07T12:50:29Z</time><name>PT3825</name></trkpt>
<trkpt lat="53.387434" lon="-1.882858"><ele>611</ele><time>2021-10-07T12:50:30Z</time><name>PT3826</name></trkpt>
<trkpt lat="53.387421" lon="-1.882863"><ele>611</ele><time>2021-10-07T12:50:31Z</time><name>PT3827</name></trkpt>
<trkpt lat="53.387410" lon="-1.882867"><ele>611</ele><time>2021-10-07T12:50:32Z</time><name>PT3828</name></trkpt>
<trkpt lat="53.387398" lon="-1.882869"><ele>611</ele><time>2021-10-07T12:50:33Z</time><name>PT3829</name></trkpt>
<trkpt lat="53.387387" lon="-1.882876"><ele>611</ele><time>2021-10-07T12:50:34Z</time><name>PT3830</name></trkpt>
<trkpt lat="53.387381" lon="-1.882887"><ele>609</ele><time>2021-10-07T12:50:35Z</time><name>PT3831</name></trkpt>
<trkpt lat="53.387370" lon="-1.882899"><ele>609</ele><time>2021-10-07T12:50:36Z</time><name>PT3832</name></trkpt>
<trkpt lat="53.387357" lon="-1.882910"><ele>609</ele><time>2021-10-07T12:50:37Z</time><name>PT3833</name></trkpt>
<trkpt lat="53.387351" lon="-1.882915"><ele>609</ele><time>2021-10-07T12:50:38Z</time><name>PT3834</name></trkpt>
<trkpt lat="53.387343" lon="-1.882917"><ele>610</ele><time>2021-10-07T12:50:39Z</time><name>PT3835</name></trkpt>
<trkpt lat="53.387334" lon="-1.882918"><ele>610</ele><time>2021-10-07T12:50:40Z</time><name>PT3836</name></trkpt>
<trkpt lat="53.387329" lon="-1.882925"><ele>609</ele><time>2021-10-07T12:50:41Z</time><name>PT3837</name></trkpt>
<trkpt lat="53.387319" lon="-1.882932"><ele>608</ele><time>2021-10-07T12:50:42Z</time><name>PT3838</name></trkpt>
<trkpt lat="53.387310" lon="-1.882940"><ele>609</ele><time>2021-10-07T12:50:43Z</time><name>PT3839</name></trkpt>
<trkpt lat="53.387300" lon="-1.882944"><ele>609</ele><time>2021-10-07T12:50:44Z</time><name>PT3840</name></trkpt>
<trkpt lat="53.387290" lon="-1.882945"><ele>609</ele><time>2021-10-07T12:50:45Z</time><name>PT3841</name></trkpt>
<trkpt lat="53.387280" lon="-1.882948"><ele>610</ele><time>2021-10-07T12:50:46Z</time><name>PT3842</name></trkpt>
<trkpt lat="53.387272" lon="-1.882949"><ele>610</ele><time>2021-10-07T12:50:47Z</time><name>PT3843</name></trkpt>
<trkpt lat="53.387263" lon="-1.882947"><ele>610</ele><time>2021-10-07T12:50:48Z</time><name>PT3844</name></trkpt>
<trkpt lat="53.387254" lon="-1.882949"><ele>610</ele><time>2021-10-07T12:50:49Z</time><name>PT3845</name></trkpt>
<trkpt lat="53.387246" lon="-1.882957"><ele>610</ele><time>2021-10-07T12:50:50Z</time><name>PT3846</name></trkpt>
<trkpt lat="53.387239" lon="-1.882964"><ele>610</ele><time>2021-10-07T12:50:51Z</time><name>PT3847</name></trkpt>
<trkpt lat="53.387237" lon="-1.882963"><ele>609</ele><time>2021-10-07T12:50:52Z</time><name>PT3848</name></trkpt>
<trkpt lat="53.387231" lon="-1.882963"><ele>610</ele><time>2021-10-07T12:50:53Z</time><name>PT3849</name></trkpt>
<trkpt lat="53.387223" lon="-1.882961"><ele>610</ele><time>2021-10-07T12:50:54Z</time><name>PT3850</name></trkpt>
<trkpt lat="53.387211" lon="-1.882965"><ele>610</ele><time>2021-10-07T12:50:55Z</time><name>PT3851</name></trkpt>
<trkpt lat="53.387198" lon="-1.882960"><ele>611</ele><time>2021-10-07T12:50:56Z</time><name>PT3852</name></trkpt>
<trkpt lat="53.387192" lon="-1.882956"><ele>611</ele><time>2021-10-07T12:50:57Z</time><name>PT3853</name></trkpt>
<trkpt lat="53.387184" lon="-1.882952"><ele>611</ele><time>2021-10-07T12:50:58Z</time><name>PT3854</name></trkpt>
<trkpt lat="53.387177" lon="-1.882947"><ele>611</ele><time>2021-10-07T12:50:59Z</time><name>PT3855</name></trkpt>
<trkpt lat="53.387164" lon="-1.882945"><ele>611</ele><time>2021-10-07T12:51:00Z</time><name>PT3856</name></trkpt>
<trkpt lat="53.387152" lon="-1.882942"><ele>611</ele><time>2021-10-07T12:51:01Z</time><name>PT3857</name></trkpt>
<trkpt lat="53.387138" lon="-1.882939"><ele>611</ele><time>2021-10-07T12:51:02Z</time><name>PT3858</name></trkpt>
<trkpt lat="53.387127" lon="-1.882943"><ele>612</ele><time>2021-10-07T12:51:03Z</time><name>PT3859</name></trkpt>
<trkpt lat="53.387116" lon="-1.882941"><ele>612</ele><time>2021-10-07T12:51:04Z</time><name>PT3860</name></trkpt>
<trkpt lat="53.387102" lon="-1.882939"><ele>612</ele><time>2021-10-07T12:51:05Z</time><name>PT3861</name></trkpt>
<trkpt lat="53.387092" lon="-1.882937"><ele>613</ele><time>2021-10-07T12:51:06Z</time><name>PT3862</name></trkpt>
<trkpt lat="53.387080" lon="-1.882927"><ele>613</ele><time>2021-10-07T12:51:07Z</time><name>PT3863</name></trkpt>
<trkpt lat="53.387073" lon="-1.882915"><ele>614</ele><time>2021-10-07T12:51:08Z</time><name>PT3864</name></trkpt>
<trkpt lat="53.387065" lon="-1.882904"><ele>614</ele><time>2021-10-07T12:51:09Z</time><name>PT3865</name></trkpt>
<trkpt lat="53.387056" lon="-1.882893"><ele>614</ele><time>2021-10-07T12:51:10Z</time><name>PT3866</name></trkpt>
<trkpt lat="53.387046" lon="-1.882886"><ele>614</ele><time>2021-10-07T12:51:11Z</time><name>PT3867</name></trkpt>
<trkpt lat="53.387035" lon="-1.882885"><ele>615</ele><time>2021-10-07T12:51:12Z</time><name>PT3868</name></trkpt>
<trkpt lat="53.387019" lon="-1.882893"><ele>615</ele><time>2021-10-07T12:51:13Z</time><name>PT3869</name></trkpt>
<trkpt lat="53.387004" lon="-1.882900"><ele>615</ele><time>2021-10-07T12:51:14Z</time><name>PT3870</name></trkpt>
<trkpt lat="53.386989" lon="-1.882893"><ele>615</ele><time>2021-10-07T12:51:15Z</time><name>PT3871</name></trkpt>
<trkpt lat="53.386980" lon="-1.882888"><ele>615</ele><time>2021-10-07T12:51:16Z</time><name>PT3872</name></trkpt>
<trkpt lat="53.386969" lon="-1.882882"><ele>616</ele><time>2021-10-07T12:51:17Z</time><name>PT3873</name></trkpt>
<trkpt lat="53.386956" lon="-1.882879"><ele>616</ele><time>2021-10-07T12:51:18Z</time><name>PT3874</name></trkpt>
<trkpt lat="53.386944" lon="-1.882878"><ele>616</ele><time>2021-10-07T12:51:19Z</time><name>PT3875</name></trkpt>
<trkpt lat="53.386939" lon="-1.882874"><ele>616</ele><time>2021-10-07T12:51:20Z</time><name>PT3876</name></trkpt>
<trkpt lat="53.386929" lon="-1.882871"><ele>616</ele><time>2021-10-07T12:51:21Z</time><name>PT3877</name></trkpt>
<trkpt lat="53.386920" lon="-1.882870"><ele>616</ele><time>2021-10-07T12:51:22Z</time><name>PT3878</name></trkpt>
<trkpt lat="53.386911" lon="-1.882866"><ele>616</ele><time>2021-10-07T12:51:23Z</time><name>PT3879</name></trkpt>
<trkpt lat="53.386902" lon="-1.882863"><ele>616</ele><time>2021-10-07T12:51:24Z</time><name>PT3880</name></trkpt>
<trkpt lat="53.386894" lon="-1.882856"><ele>616</ele><time>2021-10-07T12:51:25Z</time><name>PT3881</name></trkpt>
<trkpt lat="53.386884" lon="-1.882847"><ele>617</ele><time>2021-10-07T12:51:26Z</time><name>PT3882</name></trkpt>
<trkpt lat="53.386874" lon="-1.882844"><ele>616</ele><time>2021-10-07T12:51:27Z</time><name>PT3883</name></trkpt>
<trkpt lat="53.386863" lon="-1.882842"><ele>617</ele><time>2021-10-07T12:51:28Z</time><name>PT3884</name></trkpt>
<trkpt lat="53.386854" lon="-1.882844"><ele>617</ele><time>2021-10-07T12:51:29Z</time><name>PT3885</name></trkpt>
<trkpt lat="53.386843" lon="-1.882845"><ele>617</ele><time>2021-10-07T12:51:30Z</time><name>PT3886</name></trkpt>
<trkpt lat="53.386833" lon="-1.882850"><ele>617</ele><time>2021-10-07T12:51:31Z</time><name>PT3887</name></trkpt>
<trkpt lat="53.386825" lon="-1.882851"><ele>616</ele><time>2021-10-07T12:51:32Z</time><name>PT3888</name></trkpt>
<trkpt lat="53.386819" lon="-1.882852"><ele>615</ele><time>2021-10-07T12:51:33Z</time><name>PT3889</name></trkpt>
<trkpt lat="53.386808" lon="-1.882845"><ele>615</ele><time>2021-10-07T12:51:34Z</time><name>PT3890</name></trkpt>
<trkpt lat="53.386801" lon="-1.882844"><ele>615</ele><time>2021-10-07T12:51:35Z</time><name>PT3891</name></trkpt>
<trkpt lat="53.386789" lon="-1.882844"><ele>615</ele><time>2021-10-07T12:51:36Z</time><name>PT3892</name></trkpt>
<trkpt lat="53.386777" lon="-1.882847"><ele>615</ele><time>2021-10-07T12:51:37Z</time><name>PT3893</name></trkpt>
<trkpt lat="53.386770" lon="-1.882857"><ele>615</ele><time>2021-10-07T12:51:38Z</time><name>PT3894</name></trkpt>
<trkpt lat="53.386758" lon="-1.882867"><ele>615</ele><time>2021-10-07T12:51:39Z</time><name>PT3895</name></trkpt>
<trkpt lat="53.386746" lon="-1.882878"><ele>615</ele><time>2021-10-07T12:51:40Z</time><name>PT3896</name></trkpt>
<trkpt lat="53.386738" lon="-1.882892"><ele>615</ele><time>2021-10-07T12:51:41Z</time><name>PT3897</name></trkpt>
<trkpt lat="53.386729" lon="-1.882903"><ele>614</ele><time>2021-10-07T12:51:42Z</time><name>PT3898</name></trkpt>
<trkpt lat="53.386718" lon="-1.882907"><ele>614</ele><time>2021-10-07T12:51:43Z</time><name>PT3899</name></trkpt>
<trkpt lat="53.386711" lon="-1.882911"><ele>613</ele><time>2021-10-07T12:51:44Z</time><name>PT3900</name></trkpt>
<trkpt lat="53.386702" lon="-1.882906"><ele>613</ele><time>2021-10-07T12:51:45Z</time><name>PT3901</name></trkpt>
<trkpt lat="53.386691" lon="-1.882900"><ele>613</ele><time>2021-10-07T12:51:46Z</time><name>PT3902</name></trkpt>
<trkpt lat="53.386680" lon="-1.882902"><ele>612</ele><time>2021-10-07T12:51:47Z</time><name>PT3903</name></trkpt>
<trkpt lat="53.386668" lon="-1.882906"><ele>612</ele><time>2021-10-07T12:51:48Z</time><name>PT3904</name></trkpt>
<trkpt lat="53.386653" lon="-1.882909"><ele>612</ele><time>2021-10-07T12:51:49Z</time><name>PT3905</name></trkpt>
<trkpt lat="53.386640" lon="-1.882910"><ele>613</ele><time>2021-10-07T12:51:50Z</time><name>PT3906</name></trkpt>
<trkpt lat="53.386629" lon="-1.882910"><ele>613</ele><time>2021-10-07T12:51:51Z</time><name>PT3907</name></trkpt>
<trkpt lat="53.386616" lon="-1.882910"><ele>612</ele><time>2021-10-07T12:51:52Z</time><name>PT3908</name></trkpt>
<trkpt lat="53.386605" lon="-1.882914"><ele>612</ele><time>2021-10-07T12:51:53Z</time><name>PT3909</name></trkpt>
<trkpt lat="53.386593" lon="-1.882917"><ele>612</ele><time>2021-10-07T12:51:54Z</time><name>PT3910</name></trkpt>
<trkpt lat="53.386582" lon="-1.882922"><ele>612</ele><time>2021-10-07T12:51:55Z</time><name>PT3911</name></trkpt>
<trkpt lat="53.386575" lon="-1.882932"><ele>611</ele><time>2021-10-07T12:51:56Z</time><name>PT3912</name></trkpt>
<trkpt lat="53.386567" lon="-1.882941"><ele>612</ele><time>2021-10-07T12:51:57Z</time><name>PT3913</name></trkpt>
<trkpt lat="53.386559" lon="-1.882951"><ele>612</ele><time>2021-10-07T12:51:59Z</time><name>PT3914</name></trkpt>
<trkpt lat="53.386548" lon="-1.882960"><ele>613</ele><time>2021-10-07T12:51:59Z</time><name>PT3915</name></trkpt>
<trkpt lat="53.386537" lon="-1.882968"><ele>613</ele><time>2021-10-07T12:52:00Z</time><name>PT3916</name></trkpt>
<trkpt lat="53.386527" lon="-1.882974"><ele>612</ele><time>2021-10-07T12:52:01Z</time><name>PT3917</name></trkpt>
<trkpt lat="53.386513" lon="-1.882978"><ele>612</ele><time>2021-10-07T12:52:02Z</time><name>PT3918</name></trkpt>
<trkpt lat="53.386504" lon="-1.882992"><ele>612</ele><time>2021-10-07T12:52:03Z</time><name>PT3919</name></trkpt>
<trkpt lat="53.386498" lon="-1.883007"><ele>612</ele><time>2021-10-07T12:52:04Z</time><name>PT3920</name></trkpt>
<trkpt lat="53.386488" lon="-1.883016"><ele>612</ele><time>2021-10-07T12:52:05Z</time><name>PT3921</name></trkpt>
<trkpt lat="53.386479" lon="-1.883019"><ele>611</ele><time>2021-10-07T12:52:06Z</time><name>PT3922</name></trkpt>
<trkpt lat="53.386469" lon="-1.883026"><ele>611</ele><time>2021-10-07T12:52:08Z</time><name>PT3923</name></trkpt>
<trkpt lat="53.386458" lon="-1.883034"><ele>611</ele><time>2021-10-07T12:52:08Z</time><name>PT3924</name></trkpt>
<trkpt lat="53.386450" lon="-1.883038"><ele>611</ele><time>2021-10-07T12:52:09Z</time><name>PT3925</name></trkpt>
<trkpt lat="53.386443" lon="-1.883044"><ele>611</ele><time>2021-10-07T12:52:10Z</time><name>PT3926</name></trkpt>
<trkpt lat="53.386434" lon="-1.883047"><ele>611</ele><time>2021-10-07T12:52:11Z</time><name>PT3927</name></trkpt>
<trkpt lat="53.386422" lon="-1.883056"><ele>611</ele><time>2021-10-07T12:52:12Z</time><name>PT3928</name></trkpt>
<trkpt lat="53.386411" lon="-1.883062"><ele>610</ele><time>2021-10-07T12:52:13Z</time><name>PT3929</name></trkpt>
<trkpt lat="53.386398" lon="-1.883071"><ele>611</ele><time>2021-10-07T12:52:14Z</time><name>PT3930</name></trkpt>
<trkpt lat="53.386386" lon="-1.883084"><ele>611</ele><time>2021-10-07T12:52:15Z</time><name>PT3931</name></trkpt>
<trkpt lat="53.386375" lon="-1.883089"><ele>612</ele><time>2021-10-07T12:52:16Z</time><name>PT3932</name></trkpt>
<trkpt lat="53.386365" lon="-1.883089"><ele>612</ele><time>2021-10-07T12:52:17Z</time><name>PT3933</name></trkpt>
<trkpt lat="53.386352" lon="-1.883085"><ele>612</ele><time>2021-10-07T12:52:19Z</time><name>PT3934</name></trkpt>
<trkpt lat="53.386340" lon="-1.883090"><ele>612</ele><time>2021-10-07T12:52:19Z</time><name>PT3935</name></trkpt>
<trkpt lat="53.386329" lon="-1.883094"><ele>612</ele><time>2021-10-07T12:52:20Z</time><name>PT3936</name></trkpt>
<trkpt lat="53.386316" lon="-1.883094"><ele>612</ele><time>2021-10-07T12:52:21Z</time><name>PT3937</name></trkpt>
<trkpt lat="53.386301" lon="-1.883092"><ele>612</ele><time>2021-10-07T12:52:22Z</time><name>PT3938</name></trkpt>
<trkpt lat="53.386290" lon="-1.883092"><ele>612</ele><time>2021-10-07T12:52:23Z</time><name>PT3939</name></trkpt>
<trkpt lat="53.386282" lon="-1.883101"><ele>612</ele><time>2021-10-07T12:52:24Z</time><name>PT3940</name></trkpt>
<trkpt lat="53.386274" lon="-1.883114"><ele>611</ele><time>2021-10-07T12:52:25Z</time><name>PT3941</name></trkpt>
<trkpt lat="53.386263" lon="-1.883130"><ele>611</ele><time>2021-10-07T12:52:26Z</time><name>PT3942</name></trkpt>
<trkpt lat="53.386255" lon="-1.883147"><ele>612</ele><time>2021-10-07T12:52:27Z</time><name>PT3943</name></trkpt>
<trkpt lat="53.386247" lon="-1.883162"><ele>612</ele><time>2021-10-07T12:52:28Z</time><name>PT3944</name></trkpt>
<trkpt lat="53.386239" lon="-1.883178"><ele>611</ele><time>2021-10-07T12:52:29Z</time><name>PT3945</name></trkpt>
<trkpt lat="53.386227" lon="-1.883193"><ele>612</ele><time>2021-10-07T12:52:30Z</time><name>PT3946</name></trkpt>
<trkpt lat="53.386216" lon="-1.883205"><ele>611</ele><time>2021-10-07T12:52:31Z</time><name>PT3947</name></trkpt>
<trkpt lat="53.386206" lon="-1.883214"><ele>611</ele><time>2021-10-07T12:52:32Z</time><name>PT3948</name></trkpt>
<trkpt lat="53.386194" lon="-1.883222"><ele>611</ele><time>2021-10-07T12:52:33Z</time><name>PT3949</name></trkpt>
<trkpt lat="53.386185" lon="-1.883232"><ele>611</ele><time>2021-10-07T12:52:34Z</time><name>PT3950</name></trkpt>
<trkpt lat="53.386177" lon="-1.883239"><ele>611</ele><time>2021-10-07T12:52:35Z</time><name>PT3951</name></trkpt>
<trkpt lat="53.386167" lon="-1.883250"><ele>611</ele><time>2021-10-07T12:52:36Z</time><name>PT3952</name></trkpt>
<trkpt lat="53.386156" lon="-1.883262"><ele>610</ele><time>2021-10-07T12:52:37Z</time><name>PT3953</name></trkpt>
<trkpt lat="53.386145" lon="-1.883276"><ele>610</ele><time>2021-10-07T12:52:38Z</time><name>PT3954</name></trkpt>
<trkpt lat="53.386137" lon="-1.883290"><ele>610</ele><time>2021-10-07T12:52:39Z</time><name>PT3955</name></trkpt>
<trkpt lat="53.386126" lon="-1.883301"><ele>610</ele><time>2021-10-07T12:52:40Z</time><name>PT3956</name></trkpt>
<trkpt lat="53.386116" lon="-1.883305"><ele>610</ele><time>2021-10-07T12:52:41Z</time><name>PT3957</name></trkpt>
<trkpt lat="53.386102" lon="-1.883306"><ele>610</ele><time>2021-10-07T12:52:42Z</time><name>PT3958</name></trkpt>
<trkpt lat="53.386087" lon="-1.883310"><ele>610</ele><time>2021-10-07T12:52:43Z</time><name>PT3959</name></trkpt>
<trkpt lat="53.386075" lon="-1.883317"><ele>610</ele><time>2021-10-07T12:52:44Z</time><name>PT3960</name></trkpt>
<trkpt lat="53.386062" lon="-1.883325"><ele>609</ele><time>2021-10-07T12:52:45Z</time><name>PT3961</name></trkpt>
<trkpt lat="53.386051" lon="-1.883328"><ele>609</ele><time>2021-10-07T12:52:46Z</time><name>PT3962</name></trkpt>
<trkpt lat="53.386037" lon="-1.883326"><ele>609</ele><time>2021-10-07T12:52:47Z</time><name>PT3963</name></trkpt>
<trkpt lat="53.386025" lon="-1.883330"><ele>608</ele><time>2021-10-07T12:52:48Z</time><name>PT3964</name></trkpt>
<trkpt lat="53.386011" lon="-1.883334"><ele>608</ele><time>2021-10-07T12:52:49Z</time><name>PT3965</name></trkpt>
<trkpt lat="53.385997" lon="-1.883334"><ele>609</ele><time>2021-10-07T12:52:50Z</time><name>PT3966</name></trkpt>
<trkpt lat="53.385984" lon="-1.883337"><ele>609</ele><time>2021-10-07T12:52:51Z</time><name>PT3967</name></trkpt>
<trkpt lat="53.385971" lon="-1.883340"><ele>609</ele><time>2021-10-07T12:52:52Z</time><name>PT3968</name></trkpt>
<trkpt lat="53.385957" lon="-1.883343"><ele>609</ele><time>2021-10-07T12:52:53Z</time><name>PT3969</name></trkpt>
<trkpt lat="53.385947" lon="-1.883351"><ele>608</ele><time>2021-10-07T12:52:54Z</time><name>PT3970</name></trkpt>
<trkpt lat="53.385937" lon="-1.883357"><ele>608</ele><time>2021-10-07T12:52:55Z</time><name>PT3971</name></trkpt>
<trkpt lat="53.385928" lon="-1.883364"><ele>608</ele><time>2021-10-07T12:52:56Z</time><name>PT3972</name></trkpt>
<trkpt lat="53.385917" lon="-1.883372"><ele>608</ele><time>2021-10-07T12:52:57Z</time><name>PT3973</name></trkpt>
<trkpt lat="53.385902" lon="-1.883383"><ele>609</ele><time>2021-10-07T12:52:58Z</time><name>PT3974</name></trkpt>
<trkpt lat="53.385889" lon="-1.883387"><ele>609</ele><time>2021-10-07T12:52:59Z</time><name>PT3975</name></trkpt>
<trkpt lat="53.385879" lon="-1.883385"><ele>609</ele><time>2021-10-07T12:53:00Z</time><name>PT3976</name></trkpt>
<trkpt lat="53.385868" lon="-1.883386"><ele>609</ele><time>2021-10-07T12:53:01Z</time><name>PT3977</name></trkpt>
<trkpt lat="53.385854" lon="-1.883384"><ele>609</ele><time>2021-10-07T12:53:02Z</time><name>PT3978</name></trkpt>
<trkpt lat="53.385841" lon="-1.883382"><ele>609</ele><time>2021-10-07T12:53:03Z</time><name>PT3979</name></trkpt>
<trkpt lat="53.385830" lon="-1.883383"><ele>609</ele><time>2021-10-07T12:53:04Z</time><name>PT3980</name></trkpt>
<trkpt lat="53.385819" lon="-1.883386"><ele>609</ele><time>2021-10-07T12:53:05Z</time><name>PT3981</name></trkpt>
<trkpt lat="53.385807" lon="-1.883383"><ele>609</ele><time>2021-10-07T12:53:06Z</time><name>PT3982</name></trkpt>
<trkpt lat="53.385797" lon="-1.883376"><ele>609</ele><time>2021-10-07T12:53:07Z</time><name>PT3983</name></trkpt>
<trkpt lat="53.385788" lon="-1.883373"><ele>610</ele><time>2021-10-07T12:53:08Z</time><name>PT3984</name></trkpt>
<trkpt lat="53.385777" lon="-1.883374"><ele>610</ele><time>2021-10-07T12:53:09Z</time><name>PT3985</name></trkpt>
<trkpt lat="53.385764" lon="-1.883374"><ele>610</ele><time>2021-10-07T12:53:10Z</time><name>PT3986</name></trkpt>
<trkpt lat="53.385726" lon="-1.883386"><ele>610</ele><time>2021-10-07T12:53:14Z</time><name>PT3987</name></trkpt>
<trkpt lat="53.385683" lon="-1.883382"><ele>610</ele><time>2021-10-07T12:53:18Z</time><name>PT3988</name></trkpt>
<trkpt lat="53.385636" lon="-1.883383"><ele>611</ele><time>2021-10-07T12:53:22Z</time><name>PT3989</name></trkpt>
<trkpt lat="53.385589" lon="-1.883376"><ele>612</ele><time>2021-10-07T12:53:26Z</time><name>PT3990</name></trkpt>
<trkpt lat="53.385543" lon="-1.883399"><ele>612</ele><time>2021-10-07T12:53:30Z</time><name>PT3991</name></trkpt>
<trkpt lat="53.385494" lon="-1.883401"><ele>611</ele><time>2021-10-07T12:53:34Z</time><name>PT3992</name></trkpt>
<trkpt lat="53.385444" lon="-1.883403"><ele>612</ele><time>2021-10-07T12:53:38Z</time><name>PT3993</name></trkpt>
<trkpt lat="53.385396" lon="-1.883410"><ele>612</ele><time>2021-10-07T12:53:42Z</time><name>PT3994</name></trkpt>
<trkpt lat="53.385348" lon="-1.883422"><ele>612</ele><time>2021-10-07T12:53:46Z</time><name>PT3995</name></trkpt>
<trkpt lat="53.385315" lon="-1.883437"><ele>610</ele><time>2021-10-07T12:53:50Z</time><name>PT3996</name></trkpt>
<trkpt lat="53.385283" lon="-1.883484"><ele>610</ele><time>2021-10-07T12:53:54Z</time><name>PT3997</name></trkpt>
<trkpt lat="53.385245" lon="-1.883546"><ele>611</ele><time>2021-10-07T12:53:58Z</time><name>PT3998</name></trkpt>
<trkpt lat="53.385205" lon="-1.883592"><ele>610</ele><time>2021-10-07T12:54:02Z</time><name>PT3999</name></trkpt>
<trkpt lat="53.385161" lon="-1.883597"><ele>611</ele><time>2021-10-07T12:54:06Z</time><name>PT4000</name></trkpt>
<trkpt lat="53.385118" lon="-1.883602"><ele>610</ele><time>2021-10-07T12:54:10Z</time><name>PT4001</name></trkpt>
<trkpt lat="53.385069" lon="-1.883593"><ele>610</ele><time>2021-10-07T12:54:14Z</time><name>PT4002</name></trkpt>
<trkpt lat="53.385025" lon="-1.883615"><ele>610</ele><time>2021-10-07T12:54:18Z</time><name>PT4003</name></trkpt>
<trkpt lat="53.384990" lon="-1.883650"><ele>611</ele><time>2021-10-07T12:54:21Z</time><name>PT4004</name></trkpt>
<trkpt lat="53.384981" lon="-1.883659"><ele>611</ele><time>2021-10-07T12:54:22Z</time><name>PT4005</name></trkpt>
<trkpt lat="53.384970" lon="-1.883671"><ele>611</ele><time>2021-10-07T12:54:23Z</time><name>PT4006</name></trkpt>
<trkpt lat="53.384959" lon="-1.883681"><ele>611</ele><time>2021-10-07T12:54:24Z</time><name>PT4007</name></trkpt>
<trkpt lat="53.384950" lon="-1.883690"><ele>611</ele><time>2021-10-07T12:54:25Z</time><name>PT4008</name></trkpt>
<trkpt lat="53.384941" lon="-1.883696"><ele>611</ele><time>2021-10-07T12:54:26Z</time><name>PT4009</name></trkpt>
<trkpt lat="53.384928" lon="-1.883711"><ele>611</ele><time>2021-10-07T12:54:27Z</time><name>PT4010</name></trkpt>
<trkpt lat="53.384919" lon="-1.883713"><ele>611</ele><time>2021-10-07T12:54:28Z</time><name>PT4011</name></trkpt>
<trkpt lat="53.384909" lon="-1.883713"><ele>612</ele><time>2021-10-07T12:54:30Z</time><name>PT4012</name></trkpt>
<trkpt lat="53.384899" lon="-1.883713"><ele>612</ele><time>2021-10-07T12:54:30Z</time><name>PT4013</name></trkpt>
<trkpt lat="53.384889" lon="-1.883719"><ele>612</ele><time>2021-10-07T12:54:31Z</time><name>PT4014</name></trkpt>
<trkpt lat="53.384878" lon="-1.883726"><ele>612</ele><time>2021-10-07T12:54:32Z</time><name>PT4015</name></trkpt>
<trkpt lat="53.384866" lon="-1.883733"><ele>612</ele><time>2021-10-07T12:54:33Z</time><name>PT4016</name></trkpt>
<trkpt lat="53.384856" lon="-1.883737"><ele>612</ele><time>2021-10-07T12:54:34Z</time><name>PT4017</name></trkpt>
<trkpt lat="53.384848" lon="-1.883741"><ele>612</ele><time>2021-10-07T12:54:35Z</time><name>PT4018</name></trkpt>
<trkpt lat="53.384839" lon="-1.883748"><ele>612</ele><time>2021-10-07T12:54:37Z</time><name>PT4019</name></trkpt>
<trkpt lat="53.384828" lon="-1.883756"><ele>612</ele><time>2021-10-07T12:54:37Z</time><name>PT4020</name></trkpt>
<trkpt lat="53.384818" lon="-1.883763"><ele>612</ele><time>2021-10-07T12:54:38Z</time><name>PT4021</name></trkpt>
<trkpt lat="53.384808" lon="-1.883771"><ele>612</ele><time>2021-10-07T12:54:39Z</time><name>PT4022</name></trkpt>
<trkpt lat="53.384797" lon="-1.883780"><ele>612</ele><time>2021-10-07T12:54:40Z</time><name>PT4023</name></trkpt>
<trkpt lat="53.384787" lon="-1.883789"><ele>612</ele><time>2021-10-07T12:54:41Z</time><name>PT4024</name></trkpt>
<trkpt lat="53.384778" lon="-1.883798"><ele>612</ele><time>2021-10-07T12:54:42Z</time><name>PT4025</name></trkpt>
<trkpt lat="53.384770" lon="-1.883807"><ele>612</ele><time>2021-10-07T12:54:43Z</time><name>PT4026</name></trkpt>
<trkpt lat="53.384764" lon="-1.883820"><ele>613</ele><time>2021-10-07T12:54:44Z</time><name>PT4027</name></trkpt>
<trkpt lat="53.384758" lon="-1.883834"><ele>613</ele><time>2021-10-07T12:54:45Z</time><name>PT4028</name></trkpt>
<trkpt lat="53.384750" lon="-1.883846"><ele>613</ele><time>2021-10-07T12:54:46Z</time><name>PT4029</name></trkpt>
<trkpt lat="53.384741" lon="-1.883854"><ele>613</ele><time>2021-10-07T12:54:47Z</time><name>PT4030</name></trkpt>
<trkpt lat="53.384729" lon="-1.883860"><ele>613</ele><time>2021-10-07T12:54:48Z</time><name>PT4031</name></trkpt>
<trkpt lat="53.384719" lon="-1.883869"><ele>613</ele><time>2021-10-07T12:54:49Z</time><name>PT4032</name></trkpt>
<trkpt lat="53.384709" lon="-1.883879"><ele>613</ele><time>2021-10-07T12:54:50Z</time><name>PT4033</name></trkpt>
<trkpt lat="53.384700" lon="-1.883890"><ele>613</ele><time>2021-10-07T12:54:51Z</time><name>PT4034</name></trkpt>
<trkpt lat="53.384693" lon="-1.883904"><ele>613</ele><time>2021-10-07T12:54:52Z</time><name>PT4035</name></trkpt>
<trkpt lat="53.384685" lon="-1.883915"><ele>612</ele><time>2021-10-07T12:54:53Z</time><name>PT4036</name></trkpt>
<trkpt lat="53.384677" lon="-1.883927"><ele>612</ele><time>2021-10-07T12:54:54Z</time><name>PT4037</name></trkpt>
<trkpt lat="53.384670" lon="-1.883939"><ele>612</ele><time>2021-10-07T12:54:55Z</time><name>PT4038</name></trkpt>
<trkpt lat="53.384661" lon="-1.883953"><ele>612</ele><time>2021-10-07T12:54:56Z</time><name>PT4039</name></trkpt>
<trkpt lat="53.384652" lon="-1.883969"><ele>612</ele><time>2021-10-07T12:54:57Z</time><name>PT4040</name></trkpt>
<trkpt lat="53.384643" lon="-1.883983"><ele>612</ele><time>2021-10-07T12:54:58Z</time><name>PT4041</name></trkpt>
<trkpt lat="53.384638" lon="-1.883999"><ele>612</ele><time>2021-10-07T12:54:59Z</time><name>PT4042</name></trkpt>
<trkpt lat="53.384635" lon="-1.884015"><ele>612</ele><time>2021-10-07T12:55:00Z</time><name>PT4043</name></trkpt>
<trkpt lat="53.384630" lon="-1.884032"><ele>612</ele><time>2021-10-07T12:55:01Z</time><name>PT4044</name></trkpt>
<trkpt lat="53.384624" lon="-1.884051"><ele>612</ele><time>2021-10-07T12:55:02Z</time><name>PT4045</name></trkpt>
<trkpt lat="53.384619" lon="-1.884070"><ele>612</ele><time>2021-10-07T12:55:03Z</time><name>PT4046</name></trkpt>
<trkpt lat="53.384613" lon="-1.884085"><ele>612</ele><time>2021-10-07T12:55:04Z</time><name>PT4047</name></trkpt>
<trkpt lat="53.384604" lon="-1.884096"><ele>611</ele><time>2021-10-07T12:55:05Z</time><name>PT4048</name></trkpt>
<trkpt lat="53.384595" lon="-1.884111"><ele>611</ele><time>2021-10-07T12:55:06Z</time><name>PT4049</name></trkpt>
<trkpt lat="53.384587" lon="-1.884125"><ele>611</ele><time>2021-10-07T12:55:07Z</time><name>PT4050</name></trkpt>
<trkpt lat="53.384576" lon="-1.884139"><ele>611</ele><time>2021-10-07T12:55:08Z</time><name>PT4051</name></trkpt>
<trkpt lat="53.384566" lon="-1.884150"><ele>611</ele><time>2021-10-07T12:55:09Z</time><name>PT4052</name></trkpt>
<trkpt lat="53.384554" lon="-1.884160"><ele>610</ele><time>2021-10-07T12:55:10Z</time><name>PT4053</name></trkpt>
<trkpt lat="53.384542" lon="-1.884164"><ele>610</ele><time>2021-10-07T12:55:11Z</time><name>PT4054</name></trkpt>
<trkpt lat="53.384529" lon="-1.884174"><ele>610</ele><time>2021-10-07T12:55:12Z</time><name>PT4055</name></trkpt>
<trkpt lat="53.384519" lon="-1.884184"><ele>610</ele><time>2021-10-07T12:55:13Z</time><name>PT4056</name></trkpt>
<trkpt lat="53.384508" lon="-1.884195"><ele>611</ele><time>2021-10-07T12:55:14Z</time><name>PT4057</name></trkpt>
<trkpt lat="53.384497" lon="-1.884207"><ele>610</ele><time>2021-10-07T12:55:15Z</time><name>PT4058</name></trkpt>
<trkpt lat="53.384485" lon="-1.884216"><ele>610</ele><time>2021-10-07T12:55:16Z</time><name>PT4059</name></trkpt>
<trkpt lat="53.384474" lon="-1.884224"><ele>610</ele><time>2021-10-07T12:55:17Z</time><name>PT4060</name></trkpt>
<trkpt lat="53.384463" lon="-1.884233"><ele>610</ele><time>2021-10-07T12:55:18Z</time><name>PT4061</name></trkpt>
<trkpt lat="53.384451" lon="-1.884243"><ele>610</ele><time>2021-10-07T12:55:19Z</time><name>PT4062</name></trkpt>
<trkpt lat="53.384442" lon="-1.884255"><ele>611</ele><time>2021-10-07T12:55:20Z</time><name>PT4063</name></trkpt>
<trkpt lat="53.384435" lon="-1.884263"><ele>611</ele><time>2021-10-07T12:55:21Z</time><name>PT4064</name></trkpt>
<trkpt lat="53.384426" lon="-1.884270"><ele>611</ele><time>2021-10-07T12:55:22Z</time><name>PT4065</name></trkpt>
<trkpt lat="53.384414" lon="-1.884277"><ele>611</ele><time>2021-10-07T12:55:23Z</time><name>PT4066</name></trkpt>
<trkpt lat="53.384400" lon="-1.884282"><ele>611</ele><time>2021-10-07T12:55:24Z</time><name>PT4067</name></trkpt>
<trkpt lat="53.384389" lon="-1.884286"><ele>611</ele><time>2021-10-07T12:55:25Z</time><name>PT4068</name></trkpt>
<trkpt lat="53.384381" lon="-1.884299"><ele>611</ele><time>2021-10-07T12:55:26Z</time><name>PT4069</name></trkpt>
<trkpt lat="53.384370" lon="-1.884309"><ele>610</ele><time>2021-10-07T12:55:27Z</time><name>PT4070</name></trkpt>
<trkpt lat="53.384360" lon="-1.884313"><ele>610</ele><time>2021-10-07T12:55:28Z</time><name>PT4071</name></trkpt>
<trkpt lat="53.384349" lon="-1.884314"><ele>610</ele><time>2021-10-07T12:55:29Z</time><name>PT4072</name></trkpt>
<trkpt lat="53.384338" lon="-1.884316"><ele>610</ele><time>2021-10-07T12:55:30Z</time><name>PT4073</name></trkpt>
<trkpt lat="53.384326" lon="-1.884320"><ele>609</ele><time>2021-10-07T12:55:31Z</time><name>PT4074</name></trkpt>
<trkpt lat="53.384317" lon="-1.884324"><ele>609</ele><time>2021-10-07T12:55:32Z</time><name>PT4075</name></trkpt>
<trkpt lat="53.384306" lon="-1.884329"><ele>609</ele><time>2021-10-07T12:55:33Z</time><name>PT4076</name></trkpt>
<trkpt lat="53.384299" lon="-1.884342"><ele>608</ele><time>2021-10-07T12:55:34Z</time><name>PT4077</name></trkpt>
<trkpt lat="53.384294" lon="-1.884358"><ele>609</ele><time>2021-10-07T12:55:35Z</time><name>PT4078</name></trkpt>
<trkpt lat="53.384285" lon="-1.884371"><ele>609</ele><time>2021-10-07T12:55:36Z</time><name>PT4079</name></trkpt>
<trkpt lat="53.384275" lon="-1.884382"><ele>609</ele><time>2021-10-07T12:55:37Z</time><name>PT4080</name></trkpt>
<trkpt lat="53.384265" lon="-1.884390"><ele>608</ele><time>2021-10-07T12:55:38Z</time><name>PT4081</name></trkpt>
<trkpt lat="53.384258" lon="-1.884398"><ele>608</ele><time>2021-10-07T12:55:39Z</time><name>PT4082</name></trkpt>
<trkpt lat="53.384250" lon="-1.884405"><ele>609</ele><time>2021-10-07T12:55:40Z</time><name>PT4083</name></trkpt>
<trkpt lat="53.384243" lon="-1.884415"><ele>608</ele><time>2021-10-07T12:55:41Z</time><name>PT4084</name></trkpt>
<trkpt lat="53.384236" lon="-1.884421"><ele>608</ele><time>2021-10-07T12:55:42Z</time><name>PT4085</name></trkpt>
<trkpt lat="53.384225" lon="-1.884427"><ele>608</ele><time>2021-10-07T12:55:43Z</time><name>PT4086</name></trkpt>
<trkpt lat="53.384213" lon="-1.884432"><ele>609</ele><time>2021-10-07T12:55:44Z</time><name>PT4087</name></trkpt>
<trkpt lat="53.384209" lon="-1.884441"><ele>609</ele><time>2021-10-07T12:55:45Z</time><name>PT4088</name></trkpt>
<trkpt lat="53.384201" lon="-1.884446"><ele>609</ele><time>2021-10-07T12:55:46Z</time><name>PT4089</name></trkpt>
<trkpt lat="53.384191" lon="-1.884444"><ele>609</ele><time>2021-10-07T12:55:47Z</time><name>PT4090</name></trkpt>
<trkpt lat="53.384183" lon="-1.884450"><ele>609</ele><time>2021-10-07T12:55:48Z</time><name>PT4091</name></trkpt>
<trkpt lat="53.384176" lon="-1.884456"><ele>609</ele><time>2021-10-07T12:55:49Z</time><name>PT4092</name></trkpt>
<trkpt lat="53.384168" lon="-1.884455"><ele>609</ele><time>2021-10-07T12:55:50Z</time><name>PT4093</name></trkpt>
<trkpt lat="53.384158" lon="-1.884454"><ele>610</ele><time>2021-10-07T12:55:51Z</time><name>PT4094</name></trkpt>
<trkpt lat="53.384149" lon="-1.884451"><ele>610</ele><time>2021-10-07T12:55:52Z</time><name>PT4095</name></trkpt>
<trkpt lat="53.384143" lon="-1.884455"><ele>610</ele><time>2021-10-07T12:55:53Z</time><name>PT4096</name></trkpt>
<trkpt lat="53.384138" lon="-1.884465"><ele>611</ele><time>2021-10-07T12:55:54Z</time><name>PT4097</name></trkpt>
<trkpt lat="53.384130" lon="-1.884468"><ele>611</ele><time>2021-10-07T12:55:55Z</time><name>PT4098</name></trkpt>
<trkpt lat="53.384124" lon="-1.884476"><ele>612</ele><time>2021-10-07T12:55:56Z</time><name>PT4099</name></trkpt>
<trkpt lat="53.384119" lon="-1.884478"><ele>612</ele><time>2021-10-07T12:55:57Z</time><name>PT4100</name></trkpt>
<trkpt lat="53.384115" lon="-1.884480"><ele>613</ele><time>2021-10-07T12:55:58Z</time><name>PT4101</name></trkpt>
<trkpt lat="53.384105" lon="-1.884483"><ele>613</ele><time>2021-10-07T12:55:59Z</time><name>PT4102</name></trkpt>
<trkpt lat="53.384095" lon="-1.884479"><ele>613</ele><time>2021-10-07T12:56:00Z</time><name>PT4103</name></trkpt>
<trkpt lat="53.384083" lon="-1.884476"><ele>613</ele><time>2021-10-07T12:56:01Z</time><name>PT4104</name></trkpt>
<trkpt lat="53.384071" lon="-1.884474"><ele>614</ele><time>2021-10-07T12:56:02Z</time><name>PT4105</name></trkpt>
<trkpt lat="53.384057" lon="-1.884469"><ele>614</ele><time>2021-10-07T12:56:03Z</time><name>PT4106</name></trkpt>
<trkpt lat="53.384046" lon="-1.884463"><ele>614</ele><time>2021-10-07T12:56:04Z</time><name>PT4107</name></trkpt>
<trkpt lat="53.384036" lon="-1.884463"><ele>613</ele><time>2021-10-07T12:56:05Z</time><name>PT4108</name></trkpt>
<trkpt lat="53.384024" lon="-1.884466"><ele>613</ele><time>2021-10-07T12:56:06Z</time><name>PT4109</name></trkpt>
<trkpt lat="53.384013" lon="-1.884471"><ele>613</ele><time>2021-10-07T12:56:07Z</time><name>PT4110</name></trkpt>
<trkpt lat="53.384000" lon="-1.884472"><ele>613</ele><time>2021-10-07T12:56:08Z</time><name>PT4111</name></trkpt>
<trkpt lat="53.383986" lon="-1.884470"><ele>613</ele><time>2021-10-07T12:56:09Z</time><name>PT4112</name></trkpt>
<trkpt lat="53.383974" lon="-1.884462"><ele>614</ele><time>2021-10-07T12:56:10Z</time><name>PT4113</name></trkpt>
<trkpt lat="53.383963" lon="-1.884455"><ele>614</ele><time>2021-10-07T12:56:11Z</time><name>PT4114</name></trkpt>
<trkpt lat="53.383953" lon="-1.884445"><ele>613</ele><time>2021-10-07T12:56:12Z</time><name>PT4115</name></trkpt>
<trkpt lat="53.383943" lon="-1.884439"><ele>613</ele><time>2021-10-07T12:56:13Z</time><name>PT4116</name></trkpt>
<trkpt lat="53.383928" lon="-1.884432"><ele>613</ele><time>2021-10-07T12:56:14Z</time><name>PT4117</name></trkpt>
<trkpt lat="53.383916" lon="-1.884429"><ele>613</ele><time>2021-10-07T12:56:15Z</time><name>PT4118</name></trkpt>
<trkpt lat="53.383905" lon="-1.884426"><ele>613</ele><time>2021-10-07T12:56:16Z</time><name>PT4119</name></trkpt>
<trkpt lat="53.383892" lon="-1.884424"><ele>613</ele><time>2021-10-07T12:56:17Z</time><name>PT4120</name></trkpt>
<trkpt lat="53.383879" lon="-1.884422"><ele>613</ele><time>2021-10-07T12:56:18Z</time><name>PT4121</name></trkpt>
<trkpt lat="53.383867" lon="-1.884420"><ele>613</ele><time>2021-10-07T12:56:19Z</time><name>PT4122</name></trkpt>
<trkpt lat="53.383856" lon="-1.884419"><ele>613</ele><time>2021-10-07T12:56:20Z</time><name>PT4123</name></trkpt>
<trkpt lat="53.383843" lon="-1.884414"><ele>613</ele><time>2021-10-07T12:56:21Z</time><name>PT4124</name></trkpt>
<trkpt lat="53.383831" lon="-1.884408"><ele>613</ele><time>2021-10-07T12:56:22Z</time><name>PT4125</name></trkpt>
<trkpt lat="53.383821" lon="-1.884399"><ele>613</ele><time>2021-10-07T12:56:23Z</time><name>PT4126</name></trkpt>
<trkpt lat="53.383809" lon="-1.884386"><ele>613</ele><time>2021-10-07T12:56:24Z</time><name>PT4127</name></trkpt>
<trkpt lat="53.383796" lon="-1.884375"><ele>613</ele><time>2021-10-07T12:56:25Z</time><name>PT4128</name></trkpt>
<trkpt lat="53.383785" lon="-1.884364"><ele>613</ele><time>2021-10-07T12:56:26Z</time><name>PT4129</name></trkpt>
<trkpt lat="53.383774" lon="-1.884355"><ele>613</ele><time>2021-10-07T12:56:27Z</time><name>PT4130</name></trkpt>
<trkpt lat="53.383761" lon="-1.884347"><ele>613</ele><time>2021-10-07T12:56:28Z</time><name>PT4131</name></trkpt>
<trkpt lat="53.383750" lon="-1.884340"><ele>613</ele><time>2021-10-07T12:56:29Z</time><name>PT4132</name></trkpt>
<trkpt lat="53.383742" lon="-1.884333"><ele>613</ele><time>2021-10-07T12:56:30Z</time><name>PT4133</name></trkpt>
<trkpt lat="53.383733" lon="-1.884327"><ele>613</ele><time>2021-10-07T12:56:31Z</time><name>PT4134</name></trkpt>
<trkpt lat="53.383723" lon="-1.884322"><ele>613</ele><time>2021-10-07T12:56:32Z</time><name>PT4135</name></trkpt>
<trkpt lat="53.383711" lon="-1.884318"><ele>613</ele><time>2021-10-07T12:56:33Z</time><name>PT4136</name></trkpt>
<trkpt lat="53.383699" lon="-1.884315"><ele>613</ele><time>2021-10-07T12:56:34Z</time><name>PT4137</name></trkpt>
<trkpt lat="53.383690" lon="-1.884314"><ele>613</ele><time>2021-10-07T12:56:35Z</time><name>PT4138</name></trkpt>
<trkpt lat="53.383681" lon="-1.884309"><ele>613</ele><time>2021-10-07T12:56:36Z</time><name>PT4139</name></trkpt>
<trkpt lat="53.383673" lon="-1.884302"><ele>614</ele><time>2021-10-07T12:56:37Z</time><name>PT4140</name></trkpt>
<trkpt lat="53.383660" lon="-1.884291"><ele>614</ele><time>2021-10-07T12:56:38Z</time><name>PT4141</name></trkpt>
<trkpt lat="53.383650" lon="-1.884278"><ele>615</ele><time>2021-10-07T12:56:39Z</time><name>PT4142</name></trkpt>
<trkpt lat="53.383638" lon="-1.884262"><ele>615</ele><time>2021-10-07T12:56:40Z</time><name>PT4143</name></trkpt>
<trkpt lat="53.383632" lon="-1.884247"><ele>615</ele><time>2021-10-07T12:56:41Z</time><name>PT4144</name></trkpt>
<trkpt lat="53.383624" lon="-1.884233"><ele>615</ele><time>2021-10-07T12:56:42Z</time><name>PT4145</name></trkpt>
<trkpt lat="53.383615" lon="-1.884217"><ele>615</ele><time>2021-10-07T12:56:43Z</time><name>PT4146</name></trkpt>
<trkpt lat="53.383604" lon="-1.884203"><ele>615</ele><time>2021-10-07T12:56:44Z</time><name>PT4147</name></trkpt>
<trkpt lat="53.383598" lon="-1.884193"><ele>615</ele><time>2021-10-07T12:56:45Z</time><name>PT4148</name></trkpt>
<trkpt lat="53.383588" lon="-1.884177"><ele>615</ele><time>2021-10-07T12:56:46Z</time><name>PT4149</name></trkpt>
<trkpt lat="53.383578" lon="-1.884163"><ele>615</ele><time>2021-10-07T12:56:47Z</time><name>PT4150</name></trkpt>
<trkpt lat="53.383570" lon="-1.884155"><ele>615</ele><time>2021-10-07T12:56:48Z</time><name>PT4151</name></trkpt>
<trkpt lat="53.383558" lon="-1.884144"><ele>615</ele><time>2021-10-07T12:56:49Z</time><name>PT4152</name></trkpt>
<trkpt lat="53.383548" lon="-1.884131"><ele>615</ele><time>2021-10-07T12:56:50Z</time><name>PT4153</name></trkpt>
<trkpt lat="53.383540" lon="-1.884118"><ele>615</ele><time>2021-10-07T12:56:51Z</time><name>PT4154</name></trkpt>
<trkpt lat="53.383533" lon="-1.884108"><ele>616</ele><time>2021-10-07T12:56:52Z</time><name>PT4155</name></trkpt>
<trkpt lat="53.383524" lon="-1.884097"><ele>615</ele><time>2021-10-07T12:56:53Z</time><name>PT4156</name></trkpt>
<trkpt lat="53.383516" lon="-1.884088"><ele>615</ele><time>2021-10-07T12:56:54Z</time><name>PT4157</name></trkpt>
<trkpt lat="53.383508" lon="-1.884078"><ele>615</ele><time>2021-10-07T12:56:55Z</time><name>PT4158</name></trkpt>
<trkpt lat="53.383497" lon="-1.884070"><ele>615</ele><time>2021-10-07T12:56:56Z</time><name>PT4159</name></trkpt>
<trkpt lat="53.383491" lon="-1.884063"><ele>615</ele><time>2021-10-07T12:56:57Z</time><name>PT4160</name></trkpt>
<trkpt lat="53.383482" lon="-1.884053"><ele>615</ele><time>2021-10-07T12:56:58Z</time><name>PT4161</name></trkpt>
<trkpt lat="53.383471" lon="-1.884045"><ele>615</ele><time>2021-10-07T12:56:59Z</time><name>PT4162</name></trkpt>
<trkpt lat="53.383461" lon="-1.884041"><ele>615</ele><time>2021-10-07T12:57:00Z</time><name>PT4163</name></trkpt>
<trkpt lat="53.383451" lon="-1.884034"><ele>615</ele><time>2021-10-07T12:57:01Z</time><name>PT4164</name></trkpt>
<trkpt lat="53.383445" lon="-1.884022"><ele>615</ele><time>2021-10-07T12:57:02Z</time><name>PT4165</name></trkpt>
<trkpt lat="53.383441" lon="-1.884005"><ele>615</ele><time>2021-10-07T12:57:03Z</time><name>PT4166</name></trkpt>
<trkpt lat="53.383436" lon="-1.883988"><ele>615</ele><time>2021-10-07T12:57:04Z</time><name>PT4167</name></trkpt>
<trkpt lat="53.383410" lon="-1.883937"><ele>614</ele><time>2021-10-07T12:57:08Z</time><name>PT4168</name></trkpt>
<trkpt lat="53.383393" lon="-1.883885"><ele>614</ele><time>2021-10-07T12:57:12Z</time><name>PT4169</name></trkpt>
<trkpt lat="53.383373" lon="-1.883820"><ele>616</ele><time>2021-10-07T12:57:16Z</time><name>PT4170</name></trkpt>
<trkpt lat="53.383343" lon="-1.883751"><ele>617</ele><time>2021-10-07T12:57:20Z</time><name>PT4171</name></trkpt>
<trkpt lat="53.383299" lon="-1.883712"><ele>618</ele><time>2021-10-07T12:57:24Z</time><name>PT4172</name></trkpt>
<trkpt lat="53.383269" lon="-1.883656"><ele>618</ele><time>2021-10-07T12:57:28Z</time><name>PT4173</name></trkpt>
<trkpt lat="53.383240" lon="-1.883615"><ele>618</ele><time>2021-10-07T12:57:31Z</time><name>PT4174</name></trkpt>
<trkpt lat="53.383230" lon="-1.883604"><ele>618</ele><time>2021-10-07T12:57:33Z</time><name>PT4175</name></trkpt>
<trkpt lat="53.383221" lon="-1.883591"><ele>618</ele><time>2021-10-07T12:57:33Z</time><name>PT4176</name></trkpt>
<trkpt lat="53.383209" lon="-1.883582"><ele>619</ele><time>2021-10-07T12:57:34Z</time><name>PT4177</name></trkpt>
<trkpt lat="53.383197" lon="-1.883573"><ele>619</ele><time>2021-10-07T12:57:35Z</time><name>PT4178</name></trkpt>
<trkpt lat="53.383187" lon="-1.883564"><ele>620</ele><time>2021-10-07T12:57:36Z</time><name>PT4179</name></trkpt>
<trkpt lat="53.383178" lon="-1.883564"><ele>619</ele><time>2021-10-07T12:57:37Z</time><name>PT4180</name></trkpt>
<trkpt lat="53.383168" lon="-1.883559"><ele>619</ele><time>2021-10-07T12:57:38Z</time><name>PT4181</name></trkpt>
<trkpt lat="53.383159" lon="-1.883549"><ele>619</ele><time>2021-10-07T12:57:39Z</time><name>PT4182</name></trkpt>
<trkpt lat="53.383150" lon="-1.883536"><ele>619</ele><time>2021-10-07T12:57:40Z</time><name>PT4183</name></trkpt>
<trkpt lat="53.383140" lon="-1.883523"><ele>619</ele><time>2021-10-07T12:57:41Z</time><name>PT4184</name></trkpt>
<trkpt lat="53.383136" lon="-1.883510"><ele>620</ele><time>2021-10-07T12:57:42Z</time><name>PT4185</name></trkpt>
<trkpt lat="53.383127" lon="-1.883498"><ele>620</ele><time>2021-10-07T12:57:43Z</time><name>PT4186</name></trkpt>
<trkpt lat="53.383121" lon="-1.883490"><ele>620</ele><time>2021-10-07T12:57:44Z</time><name>PT4187</name></trkpt>
<trkpt lat="53.383113" lon="-1.883478"><ele>620</ele><time>2021-10-07T12:57:45Z</time><name>PT4188</name></trkpt>
<trkpt lat="53.383103" lon="-1.883464"><ele>620</ele><time>2021-10-07T12:57:46Z</time><name>PT4189</name></trkpt>
<trkpt lat="53.383095" lon="-1.883452"><ele>621</ele><time>2021-10-07T12:57:47Z</time><name>PT4190</name></trkpt>
<trkpt lat="53.383086" lon="-1.883441"><ele>621</ele><time>2021-10-07T12:57:48Z</time><name>PT4191</name></trkpt>
<trkpt lat="53.383077" lon="-1.883429"><ele>621</ele><time>2021-10-07T12:57:49Z</time><name>PT4192</name></trkpt>
<trkpt lat="53.383070" lon="-1.883416"><ele>621</ele><time>2021-10-07T12:57:50Z</time><name>PT4193</name></trkpt>
<trkpt lat="53.383067" lon="-1.883402"><ele>621</ele><time>2021-10-07T12:57:51Z</time><name>PT4194</name></trkpt>
<trkpt lat="53.383062" lon="-1.883385"><ele>621</ele><time>2021-10-07T12:57:52Z</time><name>PT4195</name></trkpt>
<trkpt lat="53.383056" lon="-1.883367"><ele>622</ele><time>2021-10-07T12:57:53Z</time><name>PT4196</name></trkpt>
<trkpt lat="53.383052" lon="-1.883352"><ele>622</ele><time>2021-10-07T12:57:54Z</time><name>PT4197</name></trkpt>
<trkpt lat="53.383048" lon="-1.883335"><ele>622</ele><time>2021-10-07T12:57:55Z</time><name>PT4198</name></trkpt>
<trkpt lat="53.383047" lon="-1.883316"><ele>622</ele><time>2021-10-07T12:57:56Z</time><name>PT4199</name></trkpt>
<trkpt lat="53.383046" lon="-1.883300"><ele>623</ele><time>2021-10-07T12:57:57Z</time><name>PT4200</name></trkpt>
<trkpt lat="53.383046" lon="-1.883286"><ele>623</ele><time>2021-10-07T12:57:58Z</time><name>PT4201</name></trkpt>
<trkpt lat="53.383042" lon="-1.883271"><ele>623</ele><time>2021-10-07T12:57:59Z</time><name>PT4202</name></trkpt>
<trkpt lat="53.383037" lon="-1.883256"><ele>624</ele><time>2021-10-07T12:58:00Z</time><name>PT4203</name></trkpt>
<trkpt lat="53.383035" lon="-1.883240"><ele>624</ele><time>2021-10-07T12:58:01Z</time><name>PT4204</name></trkpt>
<trkpt lat="53.383034" lon="-1.883226"><ele>623</ele><time>2021-10-07T12:58:02Z</time><name>PT4205</name></trkpt>
<trkpt lat="53.383029" lon="-1.883207"><ele>624</ele><time>2021-10-07T12:58:03Z</time><name>PT4206</name></trkpt>
<trkpt lat="53.383025" lon="-1.883195"><ele>624</ele><time>2021-10-07T12:58:04Z</time><name>PT4207</name></trkpt>
<trkpt lat="53.383020" lon="-1.883181"><ele>624</ele><time>2021-10-07T12:58:05Z</time><name>PT4208</name></trkpt>
<trkpt lat="53.383015" lon="-1.883167"><ele>624</ele><time>2021-10-07T12:58:06Z</time><name>PT4209</name></trkpt>
<trkpt lat="53.383010" lon="-1.883151"><ele>624</ele><time>2021-10-07T12:58:07Z</time><name>PT4210</name></trkpt>
<trkpt lat="53.383005" lon="-1.883139"><ele>624</ele><time>2021-10-07T12:58:08Z</time><name>PT4211</name></trkpt>
<trkpt lat="53.383002" lon="-1.883123"><ele>624</ele><time>2021-10-07T12:58:09Z</time><name>PT4212</name></trkpt>
<trkpt lat="53.383000" lon="-1.883108"><ele>624</ele><time>2021-10-07T12:58:10Z</time><name>PT4213</name></trkpt>
<trkpt lat="53.382997" lon="-1.883090"><ele>624</ele><time>2021-10-07T12:58:12Z</time><name>PT4214</name></trkpt>
<trkpt lat="53.382991" lon="-1.883077"><ele>624</ele><time>2021-10-07T12:58:12Z</time><name>PT4215</name></trkpt>
<trkpt lat="53.382983" lon="-1.883068"><ele>625</ele><time>2021-10-07T12:58:13Z</time><name>PT4216</name></trkpt>
<trkpt lat="53.382973" lon="-1.883063"><ele>625</ele><time>2021-10-07T12:58:14Z</time><name>PT4217</name></trkpt>
<trkpt lat="53.382969" lon="-1.883058"><ele>625</ele><time>2021-10-07T12:58:15Z</time><name>PT4218</name></trkpt>
<trkpt lat="53.382967" lon="-1.883049"><ele>625</ele><time>2021-10-07T12:58:16Z</time><name>PT4219</name></trkpt>
<trkpt lat="53.382965" lon="-1.883037"><ele>625</ele><time>2021-10-07T12:58:17Z</time><name>PT4220</name></trkpt>
<trkpt lat="53.382960" lon="-1.883026"><ele>626</ele><time>2021-10-07T12:58:18Z</time><name>PT4221</name></trkpt>
<trkpt lat="53.382953" lon="-1.883014"><ele>626</ele><time>2021-10-07T12:58:19Z</time><name>PT4222</name></trkpt>
<trkpt lat="53.382948" lon="-1.883007"><ele>626</ele><time>2021-10-07T12:58:20Z</time><name>PT4223</name></trkpt>
<trkpt lat="53.382942" lon="-1.883001"><ele>626</ele><time>2021-10-07T12:58:21Z</time><name>PT4224</name></trkpt>
<trkpt lat="53.382937" lon="-1.882991"><ele>627</ele><time>2021-10-07T12:58:22Z</time><name>PT4225</name></trkpt>
<trkpt lat="53.382930" lon="-1.882980"><ele>627</ele><time>2021-10-07T12:58:23Z</time><name>PT4226</name></trkpt>
<trkpt lat="53.382924" lon="-1.882974"><ele>627</ele><time>2021-10-07T12:58:25Z</time><name>PT4227</name></trkpt>
<trkpt lat="53.382918" lon="-1.882967"><ele>627</ele><time>2021-10-07T12:58:25Z</time><name>PT4228</name></trkpt>
<trkpt lat="53.382913" lon="-1.882957"><ele>627</ele><time>2021-10-07T12:58:26Z</time><name>PT4229</name></trkpt>
<trkpt lat="53.382907" lon="-1.882945"><ele>628</ele><time>2021-10-07T12:58:27Z</time><name>PT4230</name></trkpt>
<trkpt lat="53.382899" lon="-1.882936"><ele>628</ele><time>2021-10-07T12:58:28Z</time><name>PT4231</name></trkpt>
<trkpt lat="53.382894" lon="-1.882927"><ele>627</ele><time>2021-10-07T12:58:29Z</time><name>PT4232</name></trkpt>
<trkpt lat="53.382888" lon="-1.882914"><ele>627</ele><time>2021-10-07T12:58:30Z</time><name>PT4233</name></trkpt>
<trkpt lat="53.382884" lon="-1.882905"><ele>627</ele><time>2021-10-07T12:58:31Z</time><name>PT4234</name></trkpt>
<trkpt lat="53.382878" lon="-1.882895"><ele>627</ele><time>2021-10-07T12:58:32Z</time><name>PT4235</name></trkpt>
<trkpt lat="53.382873" lon="-1.882888"><ele>627</ele><time>2021-10-07T12:58:33Z</time><name>PT4236</name></trkpt>
<trkpt lat="53.382862" lon="-1.882880"><ele>627</ele><time>2021-10-07T12:58:34Z</time><name>PT4237</name></trkpt>
<trkpt lat="53.382854" lon="-1.882875"><ele>627</ele><time>2021-10-07T12:58:35Z</time><name>PT4238</name></trkpt>
<trkpt lat="53.382848" lon="-1.882871"><ele>627</ele><time>2021-10-07T12:58:36Z</time><name>PT4239</name></trkpt>
<trkpt lat="53.382837" lon="-1.882863"><ele>627</ele><time>2021-10-07T12:58:37Z</time><name>PT4240</name></trkpt>
<trkpt lat="53.382829" lon="-1.882860"><ele>627</ele><time>2021-10-07T12:58:38Z</time><name>PT4241</name></trkpt>
<trkpt lat="53.382821" lon="-1.882857"><ele>627</ele><time>2021-10-07T12:58:39Z</time><name>PT4242</name></trkpt>
<trkpt lat="53.382812" lon="-1.882856"><ele>627</ele><time>2021-10-07T12:58:40Z</time><name>PT4243</name></trkpt>
<trkpt lat="53.382805" lon="-1.882856"><ele>628</ele><time>2021-10-07T12:58:41Z</time><name>PT4244</name></trkpt>
<trkpt lat="53.382795" lon="-1.882856"><ele>628</ele><time>2021-10-07T12:58:42Z</time><name>PT4245</name></trkpt>
<trkpt lat="53.382792" lon="-1.882859"><ele>628</ele><time>2021-10-07T12:58:43Z</time><name>PT4246</name></trkpt>
<trkpt lat="53.382788" lon="-1.882860"><ele>628</ele><time>2021-10-07T12:58:44Z</time><name>PT4247</name></trkpt>
<trkpt lat="53.382779" lon="-1.882862"><ele>627</ele><time>2021-10-07T12:58:45Z</time><name>PT4248</name></trkpt>
<trkpt lat="53.382771" lon="-1.882862"><ele>627</ele><time>2021-10-07T12:58:46Z</time><name>PT4249</name></trkpt>
<trkpt lat="53.382768" lon="-1.882863"><ele>627</ele><time>2021-10-07T12:58:47Z</time><name>PT4250</name></trkpt>
<trkpt lat="53.382767" lon="-1.882861"><ele>627</ele><time>2021-10-07T12:58:48Z</time><name>PT4251</name></trkpt>
<trkpt lat="53.382765" lon="-1.882858"><ele>627</ele><time>2021-10-07T12:58:49Z</time><name>PT4252</name></trkpt>
<trkpt lat="53.382759" lon="-1.882851"><ele>627</ele><time>2021-10-07T12:58:50Z</time><name>PT4253</name></trkpt>
<trkpt lat="53.382752" lon="-1.882848"><ele>627</ele><time>2021-10-07T12:58:51Z</time><name>PT4254</name></trkpt>
<trkpt lat="53.382741" lon="-1.882844"><ele>627</ele><time>2021-10-07T12:58:52Z</time><name>PT4255</name></trkpt>
<trkpt lat="53.382729" lon="-1.882843"><ele>627</ele><time>2021-10-07T12:58:53Z</time><name>PT4256</name></trkpt>
<trkpt lat="53.382720" lon="-1.882845"><ele>627</ele><time>2021-10-07T12:58:54Z</time><name>PT4257</name></trkpt>
<trkpt lat="53.382705" lon="-1.882845"><ele>628</ele><time>2021-10-07T12:58:55Z</time><name>PT4258</name></trkpt>
<trkpt lat="53.382694" lon="-1.882847"><ele>627</ele><time>2021-10-07T12:58:56Z</time><name>PT4259</name></trkpt>
<trkpt lat="53.382682" lon="-1.882844"><ele>628</ele><time>2021-10-07T12:58:57Z</time><name>PT4260</name></trkpt>
<trkpt lat="53.382671" lon="-1.882837"><ele>628</ele><time>2021-10-07T12:58:58Z</time><name>PT4261</name></trkpt>
<trkpt lat="53.382661" lon="-1.882828"><ele>627</ele><time>2021-10-07T12:58:59Z</time><name>PT4262</name></trkpt>
<trkpt lat="53.382650" lon="-1.882818"><ele>627</ele><time>2021-10-07T12:59:00Z</time><name>PT4263</name></trkpt>
<trkpt lat="53.382636" lon="-1.882807"><ele>627</ele><time>2021-10-07T12:59:01Z</time><name>PT4264</name></trkpt>
<trkpt lat="53.382626" lon="-1.882800"><ele>627</ele><time>2021-10-07T12:59:02Z</time><name>PT4265</name></trkpt>
<trkpt lat="53.382615" lon="-1.882795"><ele>627</ele><time>2021-10-07T12:59:03Z</time><name>PT4266</name></trkpt>
<trkpt lat="53.382605" lon="-1.882783"><ele>627</ele><time>2021-10-07T12:59:04Z</time><name>PT4267</name></trkpt>
<trkpt lat="53.382592" lon="-1.882773"><ele>627</ele><time>2021-10-07T12:59:05Z</time><name>PT4268</name></trkpt>
<trkpt lat="53.382579" lon="-1.882769"><ele>628</ele><time>2021-10-07T12:59:06Z</time><name>PT4269</name></trkpt>
<trkpt lat="53.382566" lon="-1.882765"><ele>628</ele><time>2021-10-07T12:59:07Z</time><name>PT4270</name></trkpt>
<trkpt lat="53.382555" lon="-1.882756"><ele>628</ele><time>2021-10-07T12:59:08Z</time><name>PT4271</name></trkpt>
<trkpt lat="53.382545" lon="-1.882754"><ele>628</ele><time>2021-10-07T12:59:09Z</time><name>PT4272</name></trkpt>
<trkpt lat="53.382537" lon="-1.882744"><ele>629</ele><time>2021-10-07T12:59:10Z</time><name>PT4273</name></trkpt>
<trkpt lat="53.382530" lon="-1.882730"><ele>629</ele><time>2021-10-07T12:59:11Z</time><name>PT4274</name></trkpt>
<trkpt lat="53.382520" lon="-1.882718"><ele>629</ele><time>2021-10-07T12:59:12Z</time><name>PT4275</name></trkpt>
<trkpt lat="53.382510" lon="-1.882710"><ele>629</ele><time>2021-10-07T12:59:14Z</time><name>PT4276</name></trkpt>
<trkpt lat="53.382496" lon="-1.882699"><ele>629</ele><time>2021-10-07T12:59:14Z</time><name>PT4277</name></trkpt>
<trkpt lat="53.382482" lon="-1.882692"><ele>629</ele><time>2021-10-07T12:59:15Z</time><name>PT4278</name></trkpt>
<trkpt lat="53.382469" lon="-1.882685"><ele>629</ele><time>2021-10-07T12:59:16Z</time><name>PT4279</name></trkpt>
<trkpt lat="53.382461" lon="-1.882675"><ele>629</ele><time>2021-10-07T12:59:17Z</time><name>PT4280</name></trkpt>
<trkpt lat="53.382448" lon="-1.882665"><ele>629</ele><time>2021-10-07T12:59:18Z</time><name>PT4281</name></trkpt>
<trkpt lat="53.382438" lon="-1.882658"><ele>629</ele><time>2021-10-07T12:59:19Z</time><name>PT4282</name></trkpt>
<trkpt lat="53.382426" lon="-1.882658"><ele>629</ele><time>2021-10-07T12:59:20Z</time><name>PT4283</name></trkpt>
<trkpt lat="53.382415" lon="-1.882657"><ele>629</ele><time>2021-10-07T12:59:21Z</time><name>PT4284</name></trkpt>
<trkpt lat="53.382401" lon="-1.882653"><ele>629</ele><time>2021-10-07T12:59:22Z</time><name>PT4285</name></trkpt>
<trkpt lat="53.382387" lon="-1.882652"><ele>629</ele><time>2021-10-07T12:59:23Z</time><name>PT4286</name></trkpt>
<trkpt lat="53.382374" lon="-1.882646"><ele>629</ele><time>2021-10-07T12:59:24Z</time><name>PT4287</name></trkpt>
<trkpt lat="53.382360" lon="-1.882639"><ele>629</ele><time>2021-10-07T12:59:25Z</time><name>PT4288</name></trkpt>
<trkpt lat="53.382350" lon="-1.882635"><ele>629</ele><time>2021-10-07T12:59:26Z</time><name>PT4289</name></trkpt>
<trkpt lat="53.382334" lon="-1.882628"><ele>629</ele><time>2021-10-07T12:59:27Z</time><name>PT4290</name></trkpt>
<trkpt lat="53.382322" lon="-1.882621"><ele>629</ele><time>2021-10-07T12:59:28Z</time><name>PT4291</name></trkpt>
<trkpt lat="53.382314" lon="-1.882613"><ele>629</ele><time>2021-10-07T12:59:29Z</time><name>PT4292</name></trkpt>
<trkpt lat="53.382304" lon="-1.882603"><ele>629</ele><time>2021-10-07T12:59:30Z</time><name>PT4293</name></trkpt>
<trkpt lat="53.382265" lon="-1.882567"><ele>630</ele><time>2021-10-07T12:59:33Z</time><name>PT4294</name></trkpt>
<trkpt lat="53.382217" lon="-1.882531"><ele>629</ele><time>2021-10-07T12:59:37Z</time><name>PT4295</name></trkpt>
<trkpt lat="53.382167" lon="-1.882498"><ele>629</ele><time>2021-10-07T12:59:41Z</time><name>PT4296</name></trkpt>
<trkpt lat="53.382124" lon="-1.882474"><ele>628</ele><time>2021-10-07T12:59:45Z</time><name>PT4297</name></trkpt>
<trkpt lat="53.382073" lon="-1.882448"><ele>629</ele><time>2021-10-07T12:59:49Z</time><name>PT4298</name></trkpt>
<trkpt lat="53.382026" lon="-1.882431"><ele>630</ele><time>2021-10-07T12:59:53Z</time><name>PT4299</name></trkpt>
<trkpt lat="53.381985" lon="-1.882417"><ele>629</ele><time>2021-10-07T12:59:57Z</time><name>PT4300</name></trkpt>
<trkpt lat="53.381940" lon="-1.882403"><ele>630</ele><time>2021-10-07T13:00:00Z</time><name>PT4301</name></trkpt>
<trkpt lat="53.381898" lon="-1.882383"><ele>630</ele><time>2021-10-07T13:00:04Z</time><name>PT4302</name></trkpt>
<trkpt lat="53.381852" lon="-1.882355"><ele>630</ele><time>2021-10-07T13:00:07Z</time><name>PT4303</name></trkpt>
<trkpt lat="53.381810" lon="-1.882331"><ele>630</ele><time>2021-10-07T13:00:11Z</time><name>PT4304</name></trkpt>
<trkpt lat="53.381763" lon="-1.882318"><ele>630</ele><time>2021-10-07T13:00:15Z</time><name>PT4305</name></trkpt>
<trkpt lat="53.381725" lon="-1.882297"><ele>630</ele><time>2021-10-07T13:00:19Z</time><name>PT4306</name></trkpt>
<trkpt lat="53.381671" lon="-1.882279"><ele>630</ele><time>2021-10-07T13:00:22Z</time><name>PT4307</name></trkpt>
<trkpt lat="53.381628" lon="-1.882239"><ele>631</ele><time>2021-10-07T13:00:26Z</time><name>PT4308</name></trkpt>
<trkpt lat="53.381593" lon="-1.882222"><ele>631</ele><time>2021-10-07T13:00:29Z</time><name>PT4309</name></trkpt>
<trkpt lat="53.381549" lon="-1.882201"><ele>632</ele><time>2021-10-07T13:00:33Z</time><name>PT4310</name></trkpt>
<trkpt lat="53.381504" lon="-1.882174"><ele>632</ele><time>2021-10-07T13:00:37Z</time><name>PT4311</name></trkpt>
<trkpt lat="53.381454" lon="-1.882150"><ele>633</ele><time>2021-10-07T13:00:41Z</time><name>PT4312</name></trkpt>
<trkpt lat="53.381408" lon="-1.882158"><ele>633</ele><time>2021-10-07T13:00:45Z</time><name>PT4313</name></trkpt>
<trkpt lat="53.381356" lon="-1.882146"><ele>633</ele><time>2021-10-07T13:00:49Z</time><name>PT4314</name></trkpt>
<trkpt lat="53.381308" lon="-1.882155"><ele>633</ele><time>2021-10-07T13:00:53Z</time><name>PT4315</name></trkpt>
<trkpt lat="53.381263" lon="-1.882148"><ele>632</ele><time>2021-10-07T13:00:57Z</time><name>PT4316</name></trkpt>
<trkpt lat="53.381218" lon="-1.882146"><ele>632</ele><time>2021-10-07T13:01:01Z</time><name>PT4317</name></trkpt>
<trkpt lat="53.381176" lon="-1.882145"><ele>632</ele><time>2021-10-07T13:01:05Z</time><name>PT4318</name></trkpt>
<trkpt lat="53.381127" lon="-1.882151"><ele>632</ele><time>2021-10-07T13:01:08Z</time><name>PT4319</name></trkpt>
<trkpt lat="53.381070" lon="-1.882181"><ele>632</ele><time>2021-10-07T13:01:12Z</time><name>PT4320</name></trkpt>
<trkpt lat="53.381016" lon="-1.882214"><ele>631</ele><time>2021-10-07T13:01:16Z</time><name>PT4321</name></trkpt>
<trkpt lat="53.380975" lon="-1.882243"><ele>631</ele><time>2021-10-07T13:01:19Z</time><name>PT4322</name></trkpt>
<trkpt lat="53.380930" lon="-1.882265"><ele>631</ele><time>2021-10-07T13:01:23Z</time><name>PT4323</name></trkpt>
<trkpt lat="53.380880" lon="-1.882290"><ele>632</ele><time>2021-10-07T13:01:27Z</time><name>PT4324</name></trkpt>
<trkpt lat="53.380827" lon="-1.882296"><ele>632</ele><time>2021-10-07T13:01:31Z</time><name>PT4325</name></trkpt>
<trkpt lat="53.380797" lon="-1.882295"><ele>632</ele><time>2021-10-07T13:01:35Z</time><name>PT4326</name></trkpt>
<trkpt lat="53.380797" lon="-1.882297"><ele>633</ele><time>2021-10-07T13:01:39Z</time><name>PT4327</name></trkpt>
<trkpt lat="53.380769" lon="-1.882319"><ele>633</ele><time>2021-10-07T13:01:52Z</time><name>PT4328</name></trkpt>
<trkpt lat="53.380735" lon="-1.882361"><ele>633</ele><time>2021-10-07T13:01:56Z</time><name>PT4329</name></trkpt>
<trkpt lat="53.380689" lon="-1.882395"><ele>633</ele><time>2021-10-07T13:02:00Z</time><name>PT4330</name></trkpt>
<trkpt lat="53.380644" lon="-1.882428"><ele>634</ele><time>2021-10-07T13:02:04Z</time><name>PT4331</name></trkpt>
<trkpt lat="53.380596" lon="-1.882456"><ele>634</ele><time>2021-10-07T13:02:08Z</time><name>PT4332</name></trkpt>
<trkpt lat="53.380547" lon="-1.882487"><ele>634</ele><time>2021-10-07T13:02:12Z</time><name>PT4333</name></trkpt>
<trkpt lat="53.380502" lon="-1.882514"><ele>633</ele><time>2021-10-07T13:02:16Z</time><name>PT4334</name></trkpt>
<trkpt lat="53.380459" lon="-1.882540"><ele>634</ele><time>2021-10-07T13:02:20Z</time><name>PT4335</name></trkpt>
<trkpt lat="53.380411" lon="-1.882559"><ele>635</ele><time>2021-10-07T13:02:24Z</time><name>PT4336</name></trkpt>
<trkpt lat="53.380367" lon="-1.882565"><ele>635</ele><time>2021-10-07T13:02:28Z</time><name>PT4337</name></trkpt>
<trkpt lat="53.380352" lon="-1.882580"><ele>635</ele><time>2021-10-07T13:02:32Z</time><name>PT4338</name></trkpt>
<trkpt lat="53.380344" lon="-1.882594"><ele>636</ele><time>2021-10-07T13:02:35Z</time><name>PT4339</name></trkpt>
<trkpt lat="53.380332" lon="-1.882587"><ele>636</ele><time>2021-10-07T13:02:39Z</time><name>PT4340</name></trkpt>
<trkpt lat="53.380319" lon="-1.882629"><ele>637</ele><time>2021-10-07T13:02:43Z</time><name>PT4341</name></trkpt>
<trkpt lat="53.380324" lon="-1.882632"><ele>638</ele><time>2021-10-07T13:02:46Z</time><name>PT4342</name></trkpt>
<trkpt lat="53.380327" lon="-1.882625"><ele>638</ele><time>2021-10-07T13:02:50Z</time><name>PT4343</name></trkpt>
<trkpt lat="53.380333" lon="-1.882621"><ele>638</ele><time>2021-10-07T13:02:54Z</time><name>PT4344</name></trkpt>
<trkpt lat="53.380332" lon="-1.882619"><ele>638</ele><time>2021-10-07T13:02:58Z</time><name>PT4345</name></trkpt>
<trkpt lat="53.380339" lon="-1.882614"><ele>639</ele><time>2021-10-07T13:03:23Z</time><name>PT4346</name></trkpt>
<trkpt lat="53.380343" lon="-1.882610"><ele>639</ele><time>2021-10-07T13:03:24Z</time><name>PT4347</name></trkpt>
<trkpt lat="53.380345" lon="-1.882607"><ele>639</ele><time>2021-10-07T13:03:25Z</time><name>PT4348</name></trkpt>
<trkpt lat="53.380347" lon="-1.882612"><ele>639</ele><time>2021-10-07T13:03:27Z</time><name>PT4349</name></trkpt>
<trkpt lat="53.380346" lon="-1.882624"><ele>639</ele><time>2021-10-07T13:03:27Z</time><name>PT4350</name></trkpt>
<trkpt lat="53.380344" lon="-1.882626"><ele>639</ele><time>2021-10-07T13:03:28Z</time><name>PT4351</name></trkpt>
<trkpt lat="53.380343" lon="-1.882627"><ele>639</ele><time>2021-10-07T13:03:29Z</time><name>PT4352</name></trkpt>
<trkpt lat="53.380341" lon="-1.882628"><ele>639</ele><time>2021-10-07T13:03:30Z</time><name>PT4353</name></trkpt>
<trkpt lat="53.380341" lon="-1.882627"><ele>639</ele><time>2021-10-07T13:03:31Z</time><name>PT4354</name></trkpt>
<trkpt lat="53.380341" lon="-1.882626"><ele>639</ele><time>2021-10-07T13:03:32Z</time><name>PT4355</name></trkpt>
<trkpt lat="53.380341" lon="-1.882626"><ele>638</ele><time>2021-10-07T13:03:33Z</time><name>PT4356</name></trkpt>
<trkpt lat="53.380339" lon="-1.882626"><ele>638</ele><time>2021-10-07T13:03:34Z</time><name>PT4357</name></trkpt>
<trkpt lat="53.380336" lon="-1.882627"><ele>638</ele><time>2021-10-07T13:03:36Z</time><name>PT4358</name></trkpt>
<trkpt lat="53.380336" lon="-1.882628"><ele>638</ele><time>2021-10-07T13:03:37Z</time><name>PT4359</name></trkpt>
<trkpt lat="53.380337" lon="-1.882628"><ele>638</ele><time>2021-10-07T13:03:38Z</time><name>PT4360</name></trkpt>
<trkpt lat="53.380339" lon="-1.882628"><ele>638</ele><time>2021-10-07T13:04:35Z</time><name>PT4361</name></trkpt>
<trkpt lat="53.380337" lon="-1.882633"><ele>638</ele><time>2021-10-07T13:04:36Z</time><name>PT4362</name></trkpt>
<trkpt lat="53.380338" lon="-1.882638"><ele>638</ele><time>2021-10-07T13:04:37Z</time><name>PT4363</name></trkpt>
<trkpt lat="53.380339" lon="-1.882644"><ele>637</ele><time>2021-10-07T13:04:38Z</time><name>PT4364</name></trkpt>
<trkpt lat="53.380338" lon="-1.882646"><ele>637</ele><time>2021-10-07T13:04:39Z</time><name>PT4365</name></trkpt>
<trkpt lat="53.380339" lon="-1.882646"><ele>637</ele><time>2021-10-07T13:04:40Z</time><name>PT4366</name></trkpt>
<trkpt lat="53.380333" lon="-1.882648"><ele>637</ele><time>2021-10-07T13:04:41Z</time><name>PT4367</name></trkpt>
<trkpt lat="53.380326" lon="-1.882646"><ele>637</ele><time>2021-10-07T13:04:42Z</time><name>PT4368</name></trkpt>
<trkpt lat="53.380321" lon="-1.882650"><ele>637</ele><time>2021-10-07T13:04:43Z</time><name>PT4369</name></trkpt>
<trkpt lat="53.380316" lon="-1.882648"><ele>637</ele><time>2021-10-07T13:04:44Z</time><name>PT4370</name></trkpt>
<trkpt lat="53.380311" lon="-1.882644"><ele>637</ele><time>2021-10-07T13:04:45Z</time><name>PT4371</name></trkpt>
<trkpt lat="53.380307" lon="-1.882638"><ele>636</ele><time>2021-10-07T13:04:46Z</time><name>PT4372</name></trkpt>
<trkpt lat="53.380305" lon="-1.882634"><ele>636</ele><time>2021-10-07T13:04:47Z</time><name>PT4373</name></trkpt>
<trkpt lat="53.380304" lon="-1.882629"><ele>636</ele><time>2021-10-07T13:04:48Z</time><name>PT4374</name></trkpt>
<trkpt lat="53.380302" lon="-1.882625"><ele>636</ele><time>2021-10-07T13:04:49Z</time><name>PT4375</name></trkpt>
<trkpt lat="53.380303" lon="-1.882629"><ele>636</ele><time>2021-10-07T13:04:50Z</time><name>PT4376</name></trkpt>
<trkpt lat="53.380301" lon="-1.882626"><ele>636</ele><time>2021-10-07T13:04:51Z</time><name>PT4377</name></trkpt>
<trkpt lat="53.380299" lon="-1.882621"><ele>636</ele><time>2021-10-07T13:04:52Z</time><name>PT4378</name></trkpt>
<trkpt lat="53.380298" lon="-1.882621"><ele>636</ele><time>2021-10-07T13:04:53Z</time><name>PT4379</name></trkpt>
<trkpt lat="53.380298" lon="-1.882619"><ele>636</ele><time>2021-10-07T13:04:54Z</time><name>PT4380</name></trkpt>
<trkpt lat="53.380296" lon="-1.882616"><ele>636</ele><time>2021-10-07T13:04:55Z</time><name>PT4381</name></trkpt>
<trkpt lat="53.380294" lon="-1.882616"><ele>636</ele><time>2021-10-07T13:04:56Z</time><name>PT4382</name></trkpt>
<trkpt lat="53.380294" lon="-1.882615"><ele>636</ele><time>2021-10-07T13:04:57Z</time><name>PT4383</name></trkpt>
<trkpt lat="53.380293" lon="-1.882618"><ele>636</ele><time>2021-10-07T13:04:58Z</time><name>PT4384</name></trkpt>
<trkpt lat="53.380289" lon="-1.882620"><ele>636</ele><time>2021-10-07T13:06:55Z</time><name>PT4385</name></trkpt>
<trkpt lat="53.380287" lon="-1.882615"><ele>636</ele><time>2021-10-07T13:06:56Z</time><name>PT4386</name></trkpt>
<trkpt lat="53.380287" lon="-1.882609"><ele>636</ele><time>2021-10-07T13:06:57Z</time><name>PT4387</name></trkpt>
<trkpt lat="53.380287" lon="-1.882604"><ele>636</ele><time>2021-10-07T13:06:58Z</time><name>PT4388</name></trkpt>
<trkpt lat="53.380289" lon="-1.882604"><ele>636</ele><time>2021-10-07T13:06:59Z</time><name>PT4389</name></trkpt>
<trkpt lat="53.380288" lon="-1.882603"><ele>636</ele><time>2021-10-07T13:07:00Z</time><name>PT4390</name></trkpt>
<trkpt lat="53.380291" lon="-1.882602"><ele>635</ele><time>2021-10-07T13:07:01Z</time><name>PT4391</name></trkpt>
<trkpt lat="53.380293" lon="-1.882603"><ele>635</ele><time>2021-10-07T13:07:02Z</time><name>PT4392</name></trkpt>
<trkpt lat="53.380296" lon="-1.882601"><ele>635</ele><time>2021-10-07T13:07:03Z</time><name>PT4393</name></trkpt>
<trkpt lat="53.380293" lon="-1.882609"><ele>635</ele><time>2021-10-07T13:07:11Z</time><name>PT4394</name></trkpt>
<trkpt lat="53.380296" lon="-1.882607"><ele>635</ele><time>2021-10-07T13:07:12Z</time><name>PT4395</name></trkpt>
<trkpt lat="53.380298" lon="-1.882596"><ele>635</ele><time>2021-10-07T13:07:13Z</time><name>PT4396</name></trkpt>
<trkpt lat="53.380291" lon="-1.882583"><ele>635</ele><time>2021-10-07T13:07:14Z</time><name>PT4397</name></trkpt>
<trkpt lat="53.380290" lon="-1.882571"><ele>635</ele><time>2021-10-07T13:07:15Z</time><name>PT4398</name></trkpt>
<trkpt lat="53.380289" lon="-1.882552"><ele>635</ele><time>2021-10-07T13:07:16Z</time><name>PT4399</name></trkpt>
<trkpt lat="53.380288" lon="-1.882538"><ele>636</ele><time>2021-10-07T13:07:17Z</time><name>PT4400</name></trkpt>
<trkpt lat="53.380287" lon="-1.882520"><ele>636</ele><time>2021-10-07T13:07:18Z</time><name>PT4401</name></trkpt>
<trkpt lat="53.380286" lon="-1.882505"><ele>636</ele><time>2021-10-07T13:07:19Z</time><name>PT4402</name></trkpt>
<trkpt lat="53.380284" lon="-1.882490"><ele>636</ele><time>2021-10-07T13:07:20Z</time><name>PT4403</name></trkpt>
<trkpt lat="53.380283" lon="-1.882477"><ele>637</ele><time>2021-10-07T13:07:21Z</time><name>PT4404</name></trkpt>
<trkpt lat="53.380284" lon="-1.882465"><ele>636</ele><time>2021-10-07T13:07:22Z</time><name>PT4405</name></trkpt>
<trkpt lat="53.380285" lon="-1.882447"><ele>636</ele><time>2021-10-07T13:07:23Z</time><name>PT4406</name></trkpt>
<trkpt lat="53.380285" lon="-1.882429"><ele>636</ele><time>2021-10-07T13:07:24Z</time><name>PT4407</name></trkpt>
<trkpt lat="53.380286" lon="-1.882409"><ele>636</ele><time>2021-10-07T13:07:25Z</time><name>PT4408</name></trkpt>
<trkpt lat="53.380289" lon="-1.882395"><ele>636</ele><time>2021-10-07T13:07:26Z</time><name>PT4409</name></trkpt>
<trkpt lat="53.380291" lon="-1.882380"><ele>636</ele><time>2021-10-07T13:07:27Z</time><name>PT4410</name></trkpt>
<trkpt lat="53.380294" lon="-1.882369"><ele>636</ele><time>2021-10-07T13:07:28Z</time><name>PT4411</name></trkpt>
<trkpt lat="53.380293" lon="-1.882357"><ele>635</ele><time>2021-10-07T13:07:29Z</time><name>PT4412</name></trkpt>
<trkpt lat="53.380293" lon="-1.882342"><ele>635</ele><time>2021-10-07T13:07:30Z</time><name>PT4413</name></trkpt>
<trkpt lat="53.380291" lon="-1.882336"><ele>635</ele><time>2021-10-07T13:07:31Z</time><name>PT4414</name></trkpt>
<trkpt lat="53.380290" lon="-1.882332"><ele>635</ele><time>2021-10-07T13:07:32Z</time><name>PT4415</name></trkpt>
<trkpt lat="53.380290" lon="-1.882330"><ele>635</ele><time>2021-10-07T13:07:33Z</time><name>PT4416</name></trkpt>
<trkpt lat="53.380287" lon="-1.882331"><ele>635</ele><time>2021-10-07T13:07:52Z</time><name>PT4417</name></trkpt>
<trkpt lat="53.380287" lon="-1.882345"><ele>635</ele><time>2021-10-07T13:07:53Z</time><name>PT4418</name></trkpt>
<trkpt lat="53.380285" lon="-1.882357"><ele>635</ele><time>2021-10-07T13:07:54Z</time><name>PT4419</name></trkpt>
<trkpt lat="53.380284" lon="-1.882373"><ele>635</ele><time>2021-10-07T13:07:55Z</time><name>PT4420</name></trkpt>
<trkpt lat="53.380282" lon="-1.882385"><ele>635</ele><time>2021-10-07T13:07:56Z</time><name>PT4421</name></trkpt>
<trkpt lat="53.380281" lon="-1.882399"><ele>635</ele><time>2021-10-07T13:07:57Z</time><name>PT4422</name></trkpt>
<trkpt lat="53.380284" lon="-1.882412"><ele>635</ele><time>2021-10-07T13:07:58Z</time><name>PT4423</name></trkpt>
<trkpt lat="53.380283" lon="-1.882427"><ele>635</ele><time>2021-10-07T13:07:59Z</time><name>PT4424</name></trkpt>
<trkpt lat="53.380281" lon="-1.882445"><ele>635</ele><time>2021-10-07T13:08:00Z</time><name>PT4425</name></trkpt>
<trkpt lat="53.380279" lon="-1.882465"><ele>635</ele><time>2021-10-07T13:08:01Z</time><name>PT4426</name></trkpt>
<trkpt lat="53.380284" lon="-1.882481"><ele>635</ele><time>2021-10-07T13:08:02Z</time><name>PT4427</name></trkpt>
<trkpt lat="53.380286" lon="-1.882497"><ele>635</ele><time>2021-10-07T13:08:03Z</time><name>PT4428</name></trkpt>
<trkpt lat="53.380289" lon="-1.882508"><ele>636</ele><time>2021-10-07T13:08:04Z</time><name>PT4429</name></trkpt>
<trkpt lat="53.380292" lon="-1.882514"><ele>636</ele><time>2021-10-07T13:08:05Z</time><name>PT4430</name></trkpt>
<trkpt lat="53.380293" lon="-1.882521"><ele>636</ele><time>2021-10-07T13:08:06Z</time><name>PT4431</name></trkpt>
<trkpt lat="53.380297" lon="-1.882529"><ele>636</ele><time>2021-10-07T13:08:07Z</time><name>PT4432</name></trkpt>
<trkpt lat="53.380300" lon="-1.882542"><ele>636</ele><time>2021-10-07T13:08:08Z</time><name>PT4433</name></trkpt>
<trkpt lat="53.380304" lon="-1.882552"><ele>636</ele><time>2021-10-07T13:08:09Z</time><name>PT4434</name></trkpt>
<trkpt lat="53.380305" lon="-1.882559"><ele>636</ele><time>2021-10-07T13:08:10Z</time><name>PT4435</name></trkpt>
<trkpt lat="53.380306" lon="-1.882565"><ele>636</ele><time>2021-10-07T13:08:11Z</time><name>PT4436</name></trkpt>
<trkpt lat="53.380306" lon="-1.882564"><ele>636</ele><time>2021-10-07T13:08:12Z</time><name>PT4437</name></trkpt>
<trkpt lat="53.380306" lon="-1.882567"><ele>636</ele><time>2021-10-07T13:08:13Z</time><name>PT4438</name></trkpt>
<trkpt lat="53.380306" lon="-1.882569"><ele>635</ele><time>2021-10-07T13:08:14Z</time><name>PT4439</name></trkpt>
<trkpt lat="53.380299" lon="-1.882594"><ele>636</ele><time>2021-10-07T13:08:18Z</time><name>PT4440</name></trkpt>
<trkpt lat="53.380290" lon="-1.882602"><ele>636</ele><time>2021-10-07T13:08:22Z</time><name>PT4441</name></trkpt>
<trkpt lat="53.380273" lon="-1.882598"><ele>636</ele><time>2021-10-07T13:08:26Z</time><name>PT4442</name></trkpt>
<trkpt lat="53.380267" lon="-1.882587"><ele>637</ele><time>2021-10-07T13:08:30Z</time><name>PT4443</name></trkpt>
<trkpt lat="53.380278" lon="-1.882596"><ele>637</ele><time>2021-10-07T13:08:34Z</time><name>PT4444</name></trkpt>
<trkpt lat="53.380279" lon="-1.882607"><ele>637</ele><time>2021-10-07T13:08:38Z</time><name>PT4445</name></trkpt>
<trkpt lat="53.380285" lon="-1.882610"><ele>637</ele><time>2021-10-07T13:08:45Z</time><name>PT4446</name></trkpt>
<trkpt lat="53.380286" lon="-1.882603"><ele>636</ele><time>2021-10-07T13:08:49Z</time><name>PT4447</name></trkpt>
<trkpt lat="53.380287" lon="-1.882595"><ele>634</ele><time>2021-10-07T13:09:05Z</time><name>PT4448</name></trkpt>
<trkpt lat="53.380287" lon="-1.882596"><ele>634</ele><time>2021-10-07T13:09:09Z</time><name>PT4449</name></trkpt>
<trkpt lat="53.380286" lon="-1.882603"><ele>634</ele><time>2021-10-07T13:09:13Z</time><name>PT4450</name></trkpt>
<trkpt lat="53.380290" lon="-1.882602"><ele>634</ele><time>2021-10-07T13:09:14Z</time><name>PT4451</name></trkpt>
<trkpt lat="53.380288" lon="-1.882598"><ele>633</ele><time>2021-10-07T13:09:15Z</time><name>PT4452</name></trkpt>
<trkpt lat="53.380290" lon="-1.882590"><ele>633</ele><time>2021-10-07T13:09:16Z</time><name>PT4453</name></trkpt>
<trkpt lat="53.380290" lon="-1.882590"><ele>632</ele><time>2021-10-07T13:09:17Z</time><name>PT4454</name></trkpt>
<trkpt lat="53.380288" lon="-1.882587"><ele>632</ele><time>2021-10-07T13:09:18Z</time><name>PT4455</name></trkpt>
<trkpt lat="53.380288" lon="-1.882586"><ele>632</ele><time>2021-10-07T13:09:19Z</time><name>PT4456</name></trkpt>
<trkpt lat="53.380292" lon="-1.882587"><ele>632</ele><time>2021-10-07T13:09:33Z</time><name>PT4457</name></trkpt>
<trkpt lat="53.380301" lon="-1.882587"><ele>631</ele><time>2021-10-07T13:09:34Z</time><name>PT4458</name></trkpt>
<trkpt lat="53.380306" lon="-1.882579"><ele>631</ele><time>2021-10-07T13:09:35Z</time><name>PT4459</name></trkpt>
<trkpt lat="53.380311" lon="-1.882578"><ele>631</ele><time>2021-10-07T13:09:36Z</time><name>PT4460</name></trkpt>
<trkpt lat="53.380310" lon="-1.882577"><ele>631</ele><time>2021-10-07T13:09:37Z</time><name>PT4461</name></trkpt>
<trkpt lat="53.380311" lon="-1.882586"><ele>630</ele><time>2021-10-07T13:09:38Z</time><name>PT4462</name></trkpt>
<trkpt lat="53.380309" lon="-1.882565"><ele>630</ele><time>2021-10-07T13:09:39Z</time><name>PT4463</name></trkpt>
<trkpt lat="53.380303" lon="-1.882569"><ele>631</ele><time>2021-10-07T13:10:10Z</time><name>PT4464</name></trkpt>
<trkpt lat="53.380298" lon="-1.882567"><ele>631</ele><time>2021-10-07T13:10:11Z</time><name>PT4465</name></trkpt>
<trkpt lat="53.380287" lon="-1.882565"><ele>631</ele><time>2021-10-07T13:10:12Z</time><name>PT4466</name></trkpt>
<trkpt lat="53.380283" lon="-1.882565"><ele>631</ele><time>2021-10-07T13:10:13Z</time><name>PT4467</name></trkpt>
<trkpt lat="53.380279" lon="-1.882563"><ele>631</ele><time>2021-10-07T13:10:14Z</time><name>PT4468</name></trkpt>
<trkpt lat="53.380277" lon="-1.882564"><ele>631</ele><time>2021-10-07T13:10:15Z</time><name>PT4469</name></trkpt>
<trkpt lat="53.380276" lon="-1.882560"><ele>631</ele><time>2021-10-07T13:10:16Z</time><name>PT4470</name></trkpt>
<trkpt lat="53.380279" lon="-1.882555"><ele>631</ele><time>2021-10-07T13:10:17Z</time><name>PT4471</name></trkpt>
<trkpt lat="53.380276" lon="-1.882548"><ele>631</ele><time>2021-10-07T13:10:18Z</time><name>PT4472</name></trkpt>
<trkpt lat="53.380279" lon="-1.882539"><ele>630</ele><time>2021-10-07T13:10:30Z</time><name>PT4473</name></trkpt>
<trkpt lat="53.380280" lon="-1.882535"><ele>630</ele><time>2021-10-07T13:10:31Z</time><name>PT4474</name></trkpt>
<trkpt lat="53.380284" lon="-1.882538"><ele>630</ele><time>2021-10-07T13:10:32Z</time><name>PT4475</name></trkpt>
<trkpt lat="53.380288" lon="-1.882535"><ele>630</ele><time>2021-10-07T13:10:33Z</time><name>PT4476</name></trkpt>
<trkpt lat="53.380292" lon="-1.882533"><ele>630</ele><time>2021-10-07T13:10:34Z</time><name>PT4477</name></trkpt>
<trkpt lat="53.380297" lon="-1.882536"><ele>630</ele><time>2021-10-07T13:10:35Z</time><name>PT4478</name></trkpt>
<trkpt lat="53.380301" lon="-1.882527"><ele>630</ele><time>2021-10-07T13:10:36Z</time><name>PT4479</name></trkpt>
<trkpt lat="53.380304" lon="-1.882524"><ele>630</ele><time>2021-10-07T13:10:37Z</time><name>PT4480</name></trkpt>
<trkpt lat="53.380307" lon="-1.882515"><ele>630</ele><time>2021-10-07T13:10:38Z</time><name>PT4481</name></trkpt>
<trkpt lat="53.380310" lon="-1.882514"><ele>629</ele><time>2021-10-07T13:10:47Z</time><name>PT4482</name></trkpt>
<trkpt lat="53.380316" lon="-1.882505"><ele>629</ele><time>2021-10-07T13:10:48Z</time><name>PT4483</name></trkpt>
<trkpt lat="53.380318" lon="-1.882503"><ele>629</ele><time>2021-10-07T13:10:49Z</time><name>PT4484</name></trkpt>
<trkpt lat="53.380319" lon="-1.882500"><ele>629</ele><time>2021-10-07T13:10:50Z</time><name>PT4485</name></trkpt>
<trkpt lat="53.380320" lon="-1.882493"><ele>629</ele><time>2021-10-07T13:10:55Z</time><name>PT4486</name></trkpt>
<trkpt lat="53.380324" lon="-1.882495"><ele>629</ele><time>2021-10-07T13:10:56Z</time><name>PT4487</name></trkpt>
<trkpt lat="53.380327" lon="-1.882494"><ele>628</ele><time>2021-10-07T13:10:57Z</time><name>PT4488</name></trkpt>
<trkpt lat="53.380332" lon="-1.882494"><ele>628</ele><time>2021-10-07T13:10:58Z</time><name>PT4489</name></trkpt>
<trkpt lat="53.380330" lon="-1.882489"><ele>628</ele><time>2021-10-07T13:11:00Z</time><name>PT4490</name></trkpt>
<trkpt lat="53.380331" lon="-1.882494"><ele>628</ele><time>2021-10-07T13:11:01Z</time><name>PT4491</name></trkpt>
<trkpt lat="53.380333" lon="-1.882492"><ele>629</ele><time>2021-10-07T13:11:02Z</time><name>PT4492</name></trkpt>
<trkpt lat="53.380332" lon="-1.882485"><ele>629</ele><time>2021-10-07T13:11:03Z</time><name>PT4493</name></trkpt>
<trkpt lat="53.380331" lon="-1.882481"><ele>629</ele><time>2021-10-07T13:11:04Z</time><name>PT4494</name></trkpt>
<trkpt lat="53.380326" lon="-1.882490"><ele>629</ele><time>2021-10-07T13:11:05Z</time><name>PT4495</name></trkpt>
<trkpt lat="53.380329" lon="-1.882489"><ele>629</ele><time>2021-10-07T13:11:06Z</time><name>PT4496</name></trkpt>
<trkpt lat="53.380331" lon="-1.882482"><ele>629</ele><time>2021-10-07T13:11:07Z</time><name>PT4497</name></trkpt>
<trkpt lat="53.380329" lon="-1.882482"><ele>628</ele><time>2021-10-07T13:11:08Z</time><name>PT4498</name></trkpt>
<trkpt lat="53.380327" lon="-1.882482"><ele>628</ele><time>2021-10-07T13:11:17Z</time><name>PT4499</name></trkpt>
<trkpt lat="53.380323" lon="-1.882488"><ele>628</ele><time>2021-10-07T13:11:18Z</time><name>PT4500</name></trkpt>
<trkpt lat="53.380319" lon="-1.882498"><ele>628</ele><time>2021-10-07T13:12:04Z</time><name>PT4501</name></trkpt>
<trkpt lat="53.380318" lon="-1.882508"><ele>629</ele><time>2021-10-07T13:12:05Z</time><name>PT4502</name></trkpt>
<trkpt lat="53.380317" lon="-1.882512"><ele>629</ele><time>2021-10-07T13:12:06Z</time><name>PT4503</name></trkpt>
<trkpt lat="53.380311" lon="-1.882519"><ele>630</ele><time>2021-10-07T13:12:07Z</time><name>PT4504</name></trkpt>
<trkpt lat="53.380309" lon="-1.882530"><ele>630</ele><time>2021-10-07T13:12:08Z</time><name>PT4505</name></trkpt>
<trkpt lat="53.380311" lon="-1.882525"><ele>630</ele><time>2021-10-07T13:12:09Z</time><name>PT4506</name></trkpt>
<trkpt lat="53.380308" lon="-1.882530"><ele>630</ele><time>2021-10-07T13:12:10Z</time><name>PT4507</name></trkpt>
<trkpt lat="53.380307" lon="-1.882531"><ele>630</ele><time>2021-10-07T13:12:11Z</time><name>PT4508</name></trkpt>
<trkpt lat="53.380308" lon="-1.882532"><ele>630</ele><time>2021-10-07T13:12:35Z</time><name>PT4509</name></trkpt>
<trkpt lat="53.380306" lon="-1.882534"><ele>630</ele><time>2021-10-07T13:12:36Z</time><name>PT4510</name></trkpt>
<trkpt lat="53.380307" lon="-1.882530"><ele>631</ele><time>2021-10-07T13:12:44Z</time><name>PT4511</name></trkpt>
<trkpt lat="53.380311" lon="-1.882526"><ele>631</ele><time>2021-10-07T13:12:45Z</time><name>PT4512</name></trkpt>
<trkpt lat="53.380312" lon="-1.882528"><ele>631</ele><time>2021-10-07T13:12:46Z</time><name>PT4513</name></trkpt>
<trkpt lat="53.380306" lon="-1.882533"><ele>631</ele><time>2021-10-07T13:13:26Z</time><name>PT4514</name></trkpt>
<trkpt lat="53.380302" lon="-1.882539"><ele>631</ele><time>2021-10-07T13:13:27Z</time><name>PT4515</name></trkpt>
<trkpt lat="53.380301" lon="-1.882540"><ele>632</ele><time>2021-10-07T13:13:32Z</time><name>PT4516</name></trkpt>
<trkpt lat="53.380291" lon="-1.882544"><ele>632</ele><time>2021-10-07T13:13:33Z</time><name>PT4517</name></trkpt>
<trkpt lat="53.380286" lon="-1.882538"><ele>632</ele><time>2021-10-07T13:13:34Z</time><name>PT4518</name></trkpt>
<trkpt lat="53.380292" lon="-1.882534"><ele>632</ele><time>2021-10-07T13:13:40Z</time><name>PT4519</name></trkpt>
<trkpt lat="53.380297" lon="-1.882536"><ele>632</ele><time>2021-10-07T13:13:41Z</time><name>PT4520</name></trkpt>
<trkpt lat="53.380299" lon="-1.882537"><ele>632</ele><time>2021-10-07T13:13:42Z</time><name>PT4521</name></trkpt>
<trkpt lat="53.380293" lon="-1.882533"><ele>632</ele><time>2021-10-07T13:14:01Z</time><name>PT4522</name></trkpt>
<trkpt lat="53.380292" lon="-1.882526"><ele>631</ele><time>2021-10-07T13:14:02Z</time><name>PT4523</name></trkpt>
<trkpt lat="53.380290" lon="-1.882519"><ele>631</ele><time>2021-10-07T13:14:03Z</time><name>PT4524</name></trkpt>
<trkpt lat="53.380286" lon="-1.882515"><ele>631</ele><time>2021-10-07T13:14:12Z</time><name>PT4525</name></trkpt>
<trkpt lat="53.380283" lon="-1.882502"><ele>631</ele><time>2021-10-07T13:14:13Z</time><name>PT4526</name></trkpt>
<trkpt lat="53.380279" lon="-1.882499"><ele>631</ele><time>2021-10-07T13:14:14Z</time><name>PT4527</name></trkpt>
<trkpt lat="53.380275" lon="-1.882488"><ele>630</ele><time>2021-10-07T13:14:15Z</time><name>PT4528</name></trkpt>
<trkpt lat="53.380274" lon="-1.882486"><ele>630</ele><time>2021-10-07T13:14:16Z</time><name>PT4529</name></trkpt>
<trkpt lat="53.380275" lon="-1.882487"><ele>630</ele><time>2021-10-07T13:14:17Z</time><name>PT4530</name></trkpt>
<trkpt lat="53.380275" lon="-1.882483"><ele>630</ele><time>2021-10-07T13:14:18Z</time><name>PT4531</name></trkpt>
<trkpt lat="53.380274" lon="-1.882486"><ele>630</ele><time>2021-10-07T13:14:19Z</time><name>PT4532</name></trkpt>
<trkpt lat="53.380278" lon="-1.882540"><ele>631</ele><time>2021-10-07T13:15:49Z</time><name>PT4533</name></trkpt>
<trkpt lat="53.380253" lon="-1.882580"><ele>631</ele><time>2021-10-07T13:15:53Z</time><name>PT4534</name></trkpt>
<trkpt lat="53.380245" lon="-1.882573"><ele>632</ele><time>2021-10-07T13:15:57Z</time><name>PT4535</name></trkpt>
<trkpt lat="53.380240" lon="-1.882613"><ele>631</ele><time>2021-10-07T13:16:01Z</time><name>PT4536</name></trkpt>
<trkpt lat="53.380246" lon="-1.882613"><ele>631</ele><time>2021-10-07T13:16:05Z</time><name>PT4537</name></trkpt>
<trkpt lat="53.380260" lon="-1.882613"><ele>631</ele><time>2021-10-07T13:16:13Z</time><name>PT4538</name></trkpt>
<trkpt lat="53.380270" lon="-1.882615"><ele>631</ele><time>2021-10-07T13:16:17Z</time><name>PT4539</name></trkpt>
<trkpt lat="53.380267" lon="-1.882610"><ele>631</ele><time>2021-10-07T13:16:21Z</time><name>PT4540</name></trkpt>
<trkpt lat="53.380282" lon="-1.882636"><ele>632</ele><time>2021-10-07T13:16:29Z</time><name>PT4541</name></trkpt>
<trkpt lat="53.380295" lon="-1.882602"><ele>630</ele><time>2021-10-07T13:16:37Z</time><name>PT4542</name></trkpt>
<trkpt lat="53.380297" lon="-1.882578"><ele>630</ele><time>2021-10-07T13:16:41Z</time><name>PT4543</name></trkpt>
<trkpt lat="53.380303" lon="-1.882558"><ele>629</ele><time>2021-10-07T13:16:49Z</time><name>PT4544</name></trkpt>
<trkpt lat="53.380303" lon="-1.882566"><ele>630</ele><time>2021-10-07T13:16:57Z</time><name>PT4545</name></trkpt>
<trkpt lat="53.380313" lon="-1.882550"><ele>630</ele><time>2021-10-07T13:17:01Z</time><name>PT4546</name></trkpt>
<trkpt lat="53.380316" lon="-1.882552"><ele>630</ele><time>2021-10-07T13:17:05Z</time><name>PT4547</name></trkpt>
<trkpt lat="53.380315" lon="-1.882548"><ele>630</ele><time>2021-10-07T13:17:09Z</time><name>PT4548</name></trkpt>
<trkpt lat="53.380316" lon="-1.882537"><ele>630</ele><time>2021-10-07T13:17:13Z</time><name>PT4549</name></trkpt>
<trkpt lat="53.380311" lon="-1.882532"><ele>630</ele><time>2021-10-07T13:17:21Z</time><name>PT4550</name></trkpt>
<trkpt lat="53.380300" lon="-1.882527"><ele>631</ele><time>2021-10-07T13:17:25Z</time><name>PT4551</name></trkpt>
<trkpt lat="53.380310" lon="-1.882516"><ele>631</ele><time>2021-10-07T13:17:37Z</time><name>PT4552</name></trkpt>
<trkpt lat="53.380340" lon="-1.882540"><ele>631</ele><time>2021-10-07T13:17:41Z</time><name>PT4553</name></trkpt>
<trkpt lat="53.380330" lon="-1.882524"><ele>631</ele><time>2021-10-07T13:17:45Z</time><name>PT4554</name></trkpt>
<trkpt lat="53.380327" lon="-1.882530"><ele>631</ele><time>2021-10-07T13:17:49Z</time><name>PT4555</name></trkpt>
<trkpt lat="53.380323" lon="-1.882557"><ele>633</ele><time>2021-10-07T13:19:21Z</time><name>PT4556</name></trkpt>
<trkpt lat="53.380318" lon="-1.882571"><ele>634</ele><time>2021-10-07T13:19:25Z</time><name>PT4557</name></trkpt>
<trkpt lat="53.380311" lon="-1.882578"><ele>634</ele><time>2021-10-07T13:19:29Z</time><name>PT4558</name></trkpt>
<trkpt lat="53.380308" lon="-1.882576"><ele>636</ele><time>2021-10-07T13:19:33Z</time><name>PT4559</name></trkpt>
<trkpt lat="53.380307" lon="-1.882575"><ele>636</ele><time>2021-10-07T13:19:37Z</time><name>PT4560</name></trkpt>
<trkpt lat="53.380299" lon="-1.882595"><ele>636</ele><time>2021-10-07T13:23:05Z</time><name>PT4561</name></trkpt>
<trkpt lat="53.380302" lon="-1.882597"><ele>636</ele><time>2021-10-07T13:23:06Z</time><name>PT4562</name></trkpt>
<trkpt lat="53.380305" lon="-1.882611"><ele>636</ele><time>2021-10-07T13:23:07Z</time><name>PT4563</name></trkpt>
<trkpt lat="53.380302" lon="-1.882609"><ele>636</ele><time>2021-10-07T13:23:08Z</time><name>PT4564</name></trkpt>
<trkpt lat="53.380304" lon="-1.882606"><ele>636</ele><time>2021-10-07T13:23:09Z</time><name>PT4565</name></trkpt>
<trkpt lat="53.380306" lon="-1.882620"><ele>635</ele><time>2021-10-07T13:23:10Z</time><name>PT4566</name></trkpt>
<trkpt lat="53.380306" lon="-1.882618"><ele>636</ele><time>2021-10-07T13:23:11Z</time><name>PT4567</name></trkpt>
<trkpt lat="53.380305" lon="-1.882619"><ele>636</ele><time>2021-10-07T13:23:12Z</time><name>PT4568</name></trkpt>
<trkpt lat="53.380306" lon="-1.882617"><ele>636</ele><time>2021-10-07T13:23:13Z</time><name>PT4569</name></trkpt>
<trkpt lat="53.380306" lon="-1.882622"><ele>635</ele><time>2021-10-07T13:23:14Z</time><name>PT4570</name></trkpt>
<trkpt lat="53.380294" lon="-1.882612"><ele>635</ele><time>2021-10-07T13:23:15Z</time><name>PT4571</name></trkpt>
<trkpt lat="53.380297" lon="-1.882616"><ele>635</ele><time>2021-10-07T13:23:16Z</time><name>PT4572</name></trkpt>
<trkpt lat="53.380299" lon="-1.882620"><ele>635</ele><time>2021-10-07T13:24:03Z</time><name>PT4573</name></trkpt>
<trkpt lat="53.380300" lon="-1.882622"><ele>635</ele><time>2021-10-07T13:24:03Z</time><name>PT4574</name></trkpt>
<trkpt lat="53.380300" lon="-1.882630"><ele>636</ele><time>2021-10-07T13:24:04Z</time><name>PT4575</name></trkpt>
<trkpt lat="53.380299" lon="-1.882639"><ele>636</ele><time>2021-10-07T13:24:05Z</time><name>PT4576</name></trkpt>
<trkpt lat="53.380298" lon="-1.882647"><ele>636</ele><time>2021-10-07T13:24:06Z</time><name>PT4577</name></trkpt>
<trkpt lat="53.380297" lon="-1.882652"><ele>636</ele><time>2021-10-07T13:24:07Z</time><name>PT4578</name></trkpt>
<trkpt lat="53.380297" lon="-1.882655"><ele>636</ele><time>2021-10-07T13:24:08Z</time><name>PT4579</name></trkpt>
<trkpt lat="53.380294" lon="-1.882659"><ele>636</ele><time>2021-10-07T13:24:09Z</time><name>PT4580</name></trkpt>
<trkpt lat="53.380292" lon="-1.882665"><ele>635</ele><time>2021-10-07T13:24:10Z</time><name>PT4581</name></trkpt>
<trkpt lat="53.380292" lon="-1.882663"><ele>636</ele><time>2021-10-07T13:24:12Z</time><name>PT4582</name></trkpt>
<trkpt lat="53.380292" lon="-1.882663"><ele>636</ele><time>2021-10-07T13:24:13Z</time><name>PT4583</name></trkpt>
<trkpt lat="53.380294" lon="-1.882658"><ele>635</ele><time>2021-10-07T13:24:33Z</time><name>PT4584</name></trkpt>
<trkpt lat="53.380296" lon="-1.882656"><ele>635</ele><time>2021-10-07T13:24:34Z</time><name>PT4585</name></trkpt>
<trkpt lat="53.380295" lon="-1.882655"><ele>635</ele><time>2021-10-07T13:24:35Z</time><name>PT4586</name></trkpt>
<trkpt lat="53.380294" lon="-1.882655"><ele>635</ele><time>2021-10-07T13:24:36Z</time><name>PT4587</name></trkpt>
<trkpt lat="53.380294" lon="-1.882657"><ele>635</ele><time>2021-10-07T13:24:37Z</time><name>PT4588</name></trkpt>
<trkpt lat="53.380279" lon="-1.882652"><ele>636</ele><time>2021-10-07T13:25:39Z</time><name>PT4589</name></trkpt>
<trkpt lat="53.380264" lon="-1.882661"><ele>636</ele><time>2021-10-07T13:25:41Z</time><name>PT4590</name></trkpt>
<trkpt lat="53.380255" lon="-1.882660"><ele>636</ele><time>2021-10-07T13:25:41Z</time><name>PT4591</name></trkpt>
<trkpt lat="53.380247" lon="-1.882656"><ele>636</ele><time>2021-10-07T13:25:42Z</time><name>PT4592</name></trkpt>
<trkpt lat="53.380233" lon="-1.882652"><ele>636</ele><time>2021-10-07T13:25:43Z</time><name>PT4593</name></trkpt>
<trkpt lat="53.380220" lon="-1.882649"><ele>636</ele><time>2021-10-07T13:25:44Z</time><name>PT4594</name></trkpt>
<trkpt lat="53.380210" lon="-1.882649"><ele>637</ele><time>2021-10-07T13:25:45Z</time><name>PT4595</name></trkpt>
<trkpt lat="53.380202" lon="-1.882650"><ele>637</ele><time>2021-10-07T13:25:46Z</time><name>PT4596</name></trkpt>
<trkpt lat="53.380194" lon="-1.882648"><ele>637</ele><time>2021-10-07T13:25:48Z</time><name>PT4597</name></trkpt>
<trkpt lat="53.380181" lon="-1.882648"><ele>636</ele><time>2021-10-07T13:25:48Z</time><name>PT4598</name></trkpt>
<trkpt lat="53.380167" lon="-1.882656"><ele>636</ele><time>2021-10-07T13:25:49Z</time><name>PT4599</name></trkpt>
<trkpt lat="53.380155" lon="-1.882660"><ele>636</ele><time>2021-10-07T13:25:50Z</time><name>PT4600</name></trkpt>
<trkpt lat="53.380145" lon="-1.882666"><ele>636</ele><time>2021-10-07T13:25:51Z</time><name>PT4601</name></trkpt>
<trkpt lat="53.380133" lon="-1.882665"><ele>636</ele><time>2021-10-07T13:25:52Z</time><name>PT4602</name></trkpt>
<trkpt lat="53.380120" lon="-1.882671"><ele>636</ele><time>2021-10-07T13:25:53Z</time><name>PT4603</name></trkpt>
<trkpt lat="53.380108" lon="-1.882678"><ele>635</ele><time>2021-10-07T13:25:54Z</time><name>PT4604</name></trkpt>
<trkpt lat="53.380095" lon="-1.882680"><ele>636</ele><time>2021-10-07T13:25:55Z</time><name>PT4605</name></trkpt>
<trkpt lat="53.380086" lon="-1.882681"><ele>636</ele><time>2021-10-07T13:25:56Z</time><name>PT4606</name></trkpt>
<trkpt lat="53.380080" lon="-1.882683"><ele>636</ele><time>2021-10-07T13:25:57Z</time><name>PT4607</name></trkpt>
<trkpt lat="53.380073" lon="-1.882686"><ele>636</ele><time>2021-10-07T13:25:59Z</time><name>PT4608</name></trkpt>
<trkpt lat="53.380067" lon="-1.882685"><ele>636</ele><time>2021-10-07T13:25:59Z</time><name>PT4609</name></trkpt>
<trkpt lat="53.380063" lon="-1.882685"><ele>636</ele><time>2021-10-07T13:26:00Z</time><name>PT4610</name></trkpt>
<trkpt lat="53.380062" lon="-1.882685"><ele>636</ele><time>2021-10-07T13:26:02Z</time><name>PT4611</name></trkpt>
<trkpt lat="53.380061" lon="-1.882684"><ele>636</ele><time>2021-10-07T13:26:02Z</time><name>PT4612</name></trkpt>
<trkpt lat="53.380061" lon="-1.882683"><ele>636</ele><time>2021-10-07T13:26:03Z</time><name>PT4613</name></trkpt>
<trkpt lat="53.380061" lon="-1.882685"><ele>636</ele><time>2021-10-07T13:26:06Z</time><name>PT4614</name></trkpt>
<trkpt lat="53.380052" lon="-1.882684"><ele>637</ele><time>2021-10-07T13:26:23Z</time><name>PT4615</name></trkpt>
<trkpt lat="53.380033" lon="-1.882692"><ele>636</ele><time>2021-10-07T13:26:23Z</time><name>PT4616</name></trkpt>
<trkpt lat="53.380020" lon="-1.882702"><ele>636</ele><time>2021-10-07T13:26:24Z</time><name>PT4617</name></trkpt>
<trkpt lat="53.380009" lon="-1.882706"><ele>636</ele><time>2021-10-07T13:26:26Z</time><name>PT4618</name></trkpt>
<trkpt lat="53.379997" lon="-1.882703"><ele>636</ele><time>2021-10-07T13:26:26Z</time><name>PT4619</name></trkpt>
<trkpt lat="53.379984" lon="-1.882699"><ele>636</ele><time>2021-10-07T13:26:27Z</time><name>PT4620</name></trkpt>
<trkpt lat="53.379975" lon="-1.882699"><ele>636</ele><time>2021-10-07T13:26:28Z</time><name>PT4621</name></trkpt>
<trkpt lat="53.379966" lon="-1.882695"><ele>636</ele><time>2021-10-07T13:26:29Z</time><name>PT4622</name></trkpt>
<trkpt lat="53.379954" lon="-1.882688"><ele>636</ele><time>2021-10-07T13:26:31Z</time><name>PT4623</name></trkpt>
<trkpt lat="53.379941" lon="-1.882685"><ele>635</ele><time>2021-10-07T13:26:31Z</time><name>PT4624</name></trkpt>
<trkpt lat="53.379926" lon="-1.882683"><ele>635</ele><time>2021-10-07T13:26:32Z</time><name>PT4625</name></trkpt>
<trkpt lat="53.379911" lon="-1.882683"><ele>636</ele><time>2021-10-07T13:26:33Z</time><name>PT4626</name></trkpt>
<trkpt lat="53.379899" lon="-1.882687"><ele>637</ele><time>2021-10-07T13:26:34Z</time><name>PT4627</name></trkpt>
<trkpt lat="53.379887" lon="-1.882691"><ele>637</ele><time>2021-10-07T13:26:35Z</time><name>PT4628</name></trkpt>
<trkpt lat="53.379875" lon="-1.882697"><ele>637</ele><time>2021-10-07T13:26:36Z</time><name>PT4629</name></trkpt>
<trkpt lat="53.379865" lon="-1.882707"><ele>637</ele><time>2021-10-07T13:26:37Z</time><name>PT4630</name></trkpt>
<trkpt lat="53.379855" lon="-1.882714"><ele>637</ele><time>2021-10-07T13:26:38Z</time><name>PT4631</name></trkpt>
<trkpt lat="53.379847" lon="-1.882721"><ele>637</ele><time>2021-10-07T13:26:39Z</time><name>PT4632</name></trkpt>
<trkpt lat="53.379837" lon="-1.882729"><ele>637</ele><time>2021-10-07T13:26:40Z</time><name>PT4633</name></trkpt>
<trkpt lat="53.379826" lon="-1.882732"><ele>637</ele><time>2021-10-07T13:26:41Z</time><name>PT4634</name></trkpt>
<trkpt lat="53.379813" lon="-1.882734"><ele>637</ele><time>2021-10-07T13:26:42Z</time><name>PT4635</name></trkpt>
<trkpt lat="53.379800" lon="-1.882736"><ele>637</ele><time>2021-10-07T13:26:43Z</time><name>PT4636</name></trkpt>
<trkpt lat="53.379788" lon="-1.882742"><ele>637</ele><time>2021-10-07T13:26:44Z</time><name>PT4637</name></trkpt>
<trkpt lat="53.379777" lon="-1.882748"><ele>637</ele><time>2021-10-07T13:26:45Z</time><name>PT4638</name></trkpt>
<trkpt lat="53.379768" lon="-1.882754"><ele>637</ele><time>2021-10-07T13:26:46Z</time><name>PT4639</name></trkpt>
<trkpt lat="53.379759" lon="-1.882762"><ele>636</ele><time>2021-10-07T13:26:47Z</time><name>PT4640</name></trkpt>
<trkpt lat="53.379748" lon="-1.882764"><ele>636</ele><time>2021-10-07T13:26:48Z</time><name>PT4641</name></trkpt>
<trkpt lat="53.379738" lon="-1.882768"><ele>636</ele><time>2021-10-07T13:26:49Z</time><name>PT4642</name></trkpt>
<trkpt lat="53.379724" lon="-1.882769"><ele>635</ele><time>2021-10-07T13:26:50Z</time><name>PT4643</name></trkpt>
<trkpt lat="53.379713" lon="-1.882770"><ele>635</ele><time>2021-10-07T13:26:51Z</time><name>PT4644</name></trkpt>
<trkpt lat="53.379701" lon="-1.882770"><ele>635</ele><time>2021-10-07T13:26:52Z</time><name>PT4645</name></trkpt>
<trkpt lat="53.379688" lon="-1.882771"><ele>635</ele><time>2021-10-07T13:26:54Z</time><name>PT4646</name></trkpt>
<trkpt lat="53.379678" lon="-1.882772"><ele>636</ele><time>2021-10-07T13:26:54Z</time><name>PT4647</name></trkpt>
<trkpt lat="53.379668" lon="-1.882772"><ele>636</ele><time>2021-10-07T13:26:55Z</time><name>PT4648</name></trkpt>
<trkpt lat="53.379659" lon="-1.882777"><ele>636</ele><time>2021-10-07T13:26:56Z</time><name>PT4649</name></trkpt>
<trkpt lat="53.379649" lon="-1.882778"><ele>636</ele><time>2021-10-07T13:26:57Z</time><name>PT4650</name></trkpt>
<trkpt lat="53.379641" lon="-1.882789"><ele>637</ele><time>2021-10-07T13:26:58Z</time><name>PT4651</name></trkpt>
<trkpt lat="53.379634" lon="-1.882793"><ele>636</ele><time>2021-10-07T13:26:59Z</time><name>PT4652</name></trkpt>
<trkpt lat="53.379622" lon="-1.882794"><ele>636</ele><time>2021-10-07T13:27:00Z</time><name>PT4653</name></trkpt>
<trkpt lat="53.379609" lon="-1.882798"><ele>636</ele><time>2021-10-07T13:27:01Z</time><name>PT4654</name></trkpt>
<trkpt lat="53.379594" lon="-1.882798"><ele>636</ele><time>2021-10-07T13:27:02Z</time><name>PT4655</name></trkpt>
<trkpt lat="53.379581" lon="-1.882797"><ele>636</ele><time>2021-10-07T13:27:03Z</time><name>PT4656</name></trkpt>
<trkpt lat="53.379571" lon="-1.882795"><ele>636</ele><time>2021-10-07T13:27:04Z</time><name>PT4657</name></trkpt>
<trkpt lat="53.379562" lon="-1.882793"><ele>635</ele><time>2021-10-07T13:27:05Z</time><name>PT4658</name></trkpt>
<trkpt lat="53.379552" lon="-1.882790"><ele>635</ele><time>2021-10-07T13:27:06Z</time><name>PT4659</name></trkpt>
<trkpt lat="53.379543" lon="-1.882787"><ele>635</ele><time>2021-10-07T13:27:07Z</time><name>PT4660</name></trkpt>
<trkpt lat="53.379535" lon="-1.882785"><ele>635</ele><time>2021-10-07T13:27:08Z</time><name>PT4661</name></trkpt>
<trkpt lat="53.379523" lon="-1.882783"><ele>635</ele><time>2021-10-07T13:27:09Z</time><name>PT4662</name></trkpt>
<trkpt lat="53.379516" lon="-1.882784"><ele>636</ele><time>2021-10-07T13:27:10Z</time><name>PT4663</name></trkpt>
<trkpt lat="53.379509" lon="-1.882789"><ele>635</ele><time>2021-10-07T13:27:11Z</time><name>PT4664</name></trkpt>
<trkpt lat="53.379501" lon="-1.882791"><ele>635</ele><time>2021-10-07T13:27:12Z</time><name>PT4665</name></trkpt>
<trkpt lat="53.379493" lon="-1.882796"><ele>635</ele><time>2021-10-07T13:27:13Z</time><name>PT4666</name></trkpt>
<trkpt lat="53.379484" lon="-1.882800"><ele>635</ele><time>2021-10-07T13:27:14Z</time><name>PT4667</name></trkpt>
<trkpt lat="53.379472" lon="-1.882807"><ele>635</ele><time>2021-10-07T13:27:15Z</time><name>PT4668</name></trkpt>
<trkpt lat="53.379459" lon="-1.882814"><ele>635</ele><time>2021-10-07T13:27:16Z</time><name>PT4669</name></trkpt>
<trkpt lat="53.379448" lon="-1.882822"><ele>635</ele><time>2021-10-07T13:27:17Z</time><name>PT4670</name></trkpt>
<trkpt lat="53.379439" lon="-1.882826"><ele>634</ele><time>2021-10-07T13:27:18Z</time><name>PT4671</name></trkpt>
<trkpt lat="53.379428" lon="-1.882825"><ele>634</ele><time>2021-10-07T13:27:19Z</time><name>PT4672</name></trkpt>
<trkpt lat="53.379416" lon="-1.882827"><ele>634</ele><time>2021-10-07T13:27:20Z</time><name>PT4673</name></trkpt>
<trkpt lat="53.379408" lon="-1.882827"><ele>634</ele><time>2021-10-07T13:27:21Z</time><name>PT4674</name></trkpt>
<trkpt lat="53.379398" lon="-1.882834"><ele>634</ele><time>2021-10-07T13:27:22Z</time><name>PT4675</name></trkpt>
<trkpt lat="53.379386" lon="-1.882839"><ele>634</ele><time>2021-10-07T13:27:23Z</time><name>PT4676</name></trkpt>
<trkpt lat="53.379377" lon="-1.882841"><ele>634</ele><time>2021-10-07T13:27:24Z</time><name>PT4677</name></trkpt>
<trkpt lat="53.379366" lon="-1.882835"><ele>634</ele><time>2021-10-07T13:27:25Z</time><name>PT4678</name></trkpt>
<trkpt lat="53.379354" lon="-1.882831"><ele>633</ele><time>2021-10-07T13:27:26Z</time><name>PT4679</name></trkpt>
<trkpt lat="53.379342" lon="-1.882829"><ele>633</ele><time>2021-10-07T13:27:27Z</time><name>PT4680</name></trkpt>
<trkpt lat="53.379329" lon="-1.882831"><ele>633</ele><time>2021-10-07T13:27:28Z</time><name>PT4681</name></trkpt>
<trkpt lat="53.379329" lon="-1.882824"><ele>633</ele><time>2021-10-07T13:27:29Z</time><name>PT4682</name></trkpt>
<trkpt lat="53.379329" lon="-1.882823"><ele>633</ele><time>2021-10-07T13:27:30Z</time><name>PT4683</name></trkpt>
<trkpt lat="53.379328" lon="-1.882825"><ele>633</ele><time>2021-10-07T13:27:31Z</time><name>PT4684</name></trkpt>
<trkpt lat="53.379324" lon="-1.882824"><ele>633</ele><time>2021-10-07T13:27:32Z</time><name>PT4685</name></trkpt>
<trkpt lat="53.379316" lon="-1.882821"><ele>633</ele><time>2021-10-07T13:27:33Z</time><name>PT4686</name></trkpt>
<trkpt lat="53.379307" lon="-1.882818"><ele>633</ele><time>2021-10-07T13:27:34Z</time><name>PT4687</name></trkpt>
<trkpt lat="53.379296" lon="-1.882817"><ele>633</ele><time>2021-10-07T13:27:35Z</time><name>PT4688</name></trkpt>
<trkpt lat="53.379285" lon="-1.882815"><ele>633</ele><time>2021-10-07T13:27:36Z</time><name>PT4689</name></trkpt>
<trkpt lat="53.379275" lon="-1.882808"><ele>633</ele><time>2021-10-07T13:27:37Z</time><name>PT4690</name></trkpt>
<trkpt lat="53.379265" lon="-1.882797"><ele>633</ele><time>2021-10-07T13:27:38Z</time><name>PT4691</name></trkpt>
<trkpt lat="53.379257" lon="-1.882788"><ele>632</ele><time>2021-10-07T13:27:39Z</time><name>PT4692</name></trkpt>
<trkpt lat="53.379251" lon="-1.882785"><ele>632</ele><time>2021-10-07T13:27:40Z</time><name>PT4693</name></trkpt>
<trkpt lat="53.379247" lon="-1.882783"><ele>633</ele><time>2021-10-07T13:27:41Z</time><name>PT4694</name></trkpt>
<trkpt lat="53.379240" lon="-1.882778"><ele>632</ele><time>2021-10-07T13:27:42Z</time><name>PT4695</name></trkpt>
<trkpt lat="53.379235" lon="-1.882772"><ele>632</ele><time>2021-10-07T13:27:43Z</time><name>PT4696</name></trkpt>
<trkpt lat="53.379229" lon="-1.882759"><ele>633</ele><time>2021-10-07T13:27:44Z</time><name>PT4697</name></trkpt>
<trkpt lat="53.379224" lon="-1.882748"><ele>632</ele><time>2021-10-07T13:27:45Z</time><name>PT4698</name></trkpt>
<trkpt lat="53.379216" lon="-1.882733"><ele>632</ele><time>2021-10-07T13:27:46Z</time><name>PT4699</name></trkpt>
<trkpt lat="53.379208" lon="-1.882722"><ele>632</ele><time>2021-10-07T13:27:47Z</time><name>PT4700</name></trkpt>
<trkpt lat="53.379198" lon="-1.882714"><ele>632</ele><time>2021-10-07T13:27:48Z</time><name>PT4701</name></trkpt>
<trkpt lat="53.379188" lon="-1.882704"><ele>632</ele><time>2021-10-07T13:27:49Z</time><name>PT4702</name></trkpt>
<trkpt lat="53.379181" lon="-1.882696"><ele>632</ele><time>2021-10-07T13:27:50Z</time><name>PT4703</name></trkpt>
<trkpt lat="53.379175" lon="-1.882687"><ele>632</ele><time>2021-10-07T13:27:51Z</time><name>PT4704</name></trkpt>
<trkpt lat="53.379169" lon="-1.882677"><ele>632</ele><time>2021-10-07T13:27:52Z</time><name>PT4705</name></trkpt>
<trkpt lat="53.379163" lon="-1.882666"><ele>631</ele><time>2021-10-07T13:27:53Z</time><name>PT4706</name></trkpt>
<trkpt lat="53.379156" lon="-1.882650"><ele>632</ele><time>2021-10-07T13:27:54Z</time><name>PT4707</name></trkpt>
<trkpt lat="53.379147" lon="-1.882637"><ele>632</ele><time>2021-10-07T13:27:55Z</time><name>PT4708</name></trkpt>
<trkpt lat="53.379137" lon="-1.882633"><ele>631</ele><time>2021-10-07T13:27:56Z</time><name>PT4709</name></trkpt>
<trkpt lat="53.379127" lon="-1.882632"><ele>631</ele><time>2021-10-07T13:27:57Z</time><name>PT4710</name></trkpt>
<trkpt lat="53.379117" lon="-1.882634"><ele>631</ele><time>2021-10-07T13:27:58Z</time><name>PT4711</name></trkpt>
<trkpt lat="53.379108" lon="-1.882636"><ele>631</ele><time>2021-10-07T13:27:59Z</time><name>PT4712</name></trkpt>
<trkpt lat="53.379102" lon="-1.882635"><ele>630</ele><time>2021-10-07T13:28:00Z</time><name>PT4713</name></trkpt>
<trkpt lat="53.379093" lon="-1.882632"><ele>630</ele><time>2021-10-07T13:28:01Z</time><name>PT4714</name></trkpt>
<trkpt lat="53.379084" lon="-1.882634"><ele>630</ele><time>2021-10-07T13:28:02Z</time><name>PT4715</name></trkpt>
<trkpt lat="53.379078" lon="-1.882637"><ele>630</ele><time>2021-10-07T13:28:03Z</time><name>PT4716</name></trkpt>
<trkpt lat="53.379074" lon="-1.882638"><ele>630</ele><time>2021-10-07T13:28:04Z</time><name>PT4717</name></trkpt>
<trkpt lat="53.379068" lon="-1.882639"><ele>629</ele><time>2021-10-07T13:28:05Z</time><name>PT4718</name></trkpt>
<trkpt lat="53.379059" lon="-1.882638"><ele>629</ele><time>2021-10-07T13:28:06Z</time><name>PT4719</name></trkpt>
<trkpt lat="53.379049" lon="-1.882638"><ele>629</ele><time>2021-10-07T13:28:07Z</time><name>PT4720</name></trkpt>
<trkpt lat="53.379041" lon="-1.882636"><ele>628</ele><time>2021-10-07T13:28:08Z</time><name>PT4721</name></trkpt>
<trkpt lat="53.379035" lon="-1.882620"><ele>628</ele><time>2021-10-07T13:28:09Z</time><name>PT4722</name></trkpt>
<trkpt lat="53.379030" lon="-1.882608"><ele>628</ele><time>2021-10-07T13:28:10Z</time><name>PT4723</name></trkpt>
<trkpt lat="53.379024" lon="-1.882597"><ele>628</ele><time>2021-10-07T13:28:11Z</time><name>PT4724</name></trkpt>
<trkpt lat="53.379015" lon="-1.882588"><ele>629</ele><time>2021-10-07T13:28:12Z</time><name>PT4725</name></trkpt>
<trkpt lat="53.379004" lon="-1.882577"><ele>628</ele><time>2021-10-07T13:28:13Z</time><name>PT4726</name></trkpt>
<trkpt lat="53.378993" lon="-1.882566"><ele>628</ele><time>2021-10-07T13:28:14Z</time><name>PT4727</name></trkpt>
<trkpt lat="53.378985" lon="-1.882555"><ele>628</ele><time>2021-10-07T13:28:15Z</time><name>PT4728</name></trkpt>
<trkpt lat="53.378976" lon="-1.882542"><ele>628</ele><time>2021-10-07T13:28:16Z</time><name>PT4729</name></trkpt>
<trkpt lat="53.378967" lon="-1.882533"><ele>628</ele><time>2021-10-07T13:28:17Z</time><name>PT4730</name></trkpt>
<trkpt lat="53.378957" lon="-1.882527"><ele>627</ele><time>2021-10-07T13:28:18Z</time><name>PT4731</name></trkpt>
<trkpt lat="53.378945" lon="-1.882520"><ele>628</ele><time>2021-10-07T13:28:19Z</time><name>PT4732</name></trkpt>
<trkpt lat="53.378933" lon="-1.882519"><ele>628</ele><time>2021-10-07T13:28:20Z</time><name>PT4733</name></trkpt>
<trkpt lat="53.378921" lon="-1.882522"><ele>628</ele><time>2021-10-07T13:28:21Z</time><name>PT4734</name></trkpt>
<trkpt lat="53.378911" lon="-1.882522"><ele>627</ele><time>2021-10-07T13:28:22Z</time><name>PT4735</name></trkpt>
<trkpt lat="53.378903" lon="-1.882517"><ele>627</ele><time>2021-10-07T13:28:23Z</time><name>PT4736</name></trkpt>
<trkpt lat="53.378896" lon="-1.882510"><ele>627</ele><time>2021-10-07T13:28:24Z</time><name>PT4737</name></trkpt>
<trkpt lat="53.378887" lon="-1.882503"><ele>627</ele><time>2021-10-07T13:28:25Z</time><name>PT4738</name></trkpt>
<trkpt lat="53.378841" lon="-1.882495"><ele>626</ele><time>2021-10-07T13:28:29Z</time><name>PT4739</name></trkpt>
<trkpt lat="53.378803" lon="-1.882464"><ele>626</ele><time>2021-10-07T13:28:33Z</time><name>PT4740</name></trkpt>
<trkpt lat="53.378760" lon="-1.882436"><ele>625</ele><time>2021-10-07T13:28:37Z</time><name>PT4741</name></trkpt>
<trkpt lat="53.378723" lon="-1.882427"><ele>625</ele><time>2021-10-07T13:28:41Z</time><name>PT4742</name></trkpt>
<trkpt lat="53.378689" lon="-1.882407"><ele>624</ele><time>2021-10-07T13:28:45Z</time><name>PT4743</name></trkpt>
<trkpt lat="53.378651" lon="-1.882398"><ele>624</ele><time>2021-10-07T13:28:49Z</time><name>PT4744</name></trkpt>
<trkpt lat="53.378609" lon="-1.882383"><ele>623</ele><time>2021-10-07T13:28:53Z</time><name>PT4745</name></trkpt>
<trkpt lat="53.378575" lon="-1.882368"><ele>623</ele><time>2021-10-07T13:28:57Z</time><name>PT4746</name></trkpt>
<trkpt lat="53.378538" lon="-1.882406"><ele>622</ele><time>2021-10-07T13:29:01Z</time><name>PT4747</name></trkpt>
<trkpt lat="53.378488" lon="-1.882402"><ele>622</ele><time>2021-10-07T13:29:05Z</time><name>PT4748</name></trkpt>
<trkpt lat="53.378466" lon="-1.882383"><ele>623</ele><time>2021-10-07T13:29:07Z</time><name>PT4749</name></trkpt>
<trkpt lat="53.378452" lon="-1.882376"><ele>623</ele><time>2021-10-07T13:29:08Z</time><name>PT4750</name></trkpt>
<trkpt lat="53.378439" lon="-1.882370"><ele>623</ele><time>2021-10-07T13:29:09Z</time><name>PT4751</name></trkpt>
<trkpt lat="53.378434" lon="-1.882366"><ele>622</ele><time>2021-10-07T13:29:10Z</time><name>PT4752</name></trkpt>
<trkpt lat="53.378426" lon="-1.882364"><ele>622</ele><time>2021-10-07T13:29:11Z</time><name>PT4753</name></trkpt>
<trkpt lat="53.378418" lon="-1.882363"><ele>622</ele><time>2021-10-07T13:29:12Z</time><name>PT4754</name></trkpt>
<trkpt lat="53.378408" lon="-1.882369"><ele>621</ele><time>2021-10-07T13:29:13Z</time><name>PT4755</name></trkpt>
<trkpt lat="53.378396" lon="-1.882373"><ele>622</ele><time>2021-10-07T13:29:14Z</time><name>PT4756</name></trkpt>
<trkpt lat="53.378387" lon="-1.882382"><ele>622</ele><time>2021-10-07T13:29:15Z</time><name>PT4757</name></trkpt>
<trkpt lat="53.378379" lon="-1.882382"><ele>622</ele><time>2021-10-07T13:29:16Z</time><name>PT4758</name></trkpt>
<trkpt lat="53.378368" lon="-1.882381"><ele>622</ele><time>2021-10-07T13:29:17Z</time><name>PT4759</name></trkpt>
<trkpt lat="53.378358" lon="-1.882379"><ele>622</ele><time>2021-10-07T13:29:19Z</time><name>PT4760</name></trkpt>
<trkpt lat="53.378346" lon="-1.882370"><ele>622</ele><time>2021-10-07T13:29:19Z</time><name>PT4761</name></trkpt>
<trkpt lat="53.378328" lon="-1.882369"><ele>622</ele><time>2021-10-07T13:29:20Z</time><name>PT4762</name></trkpt>
<trkpt lat="53.378313" lon="-1.882370"><ele>621</ele><time>2021-10-07T13:29:21Z</time><name>PT4763</name></trkpt>
<trkpt lat="53.378303" lon="-1.882373"><ele>622</ele><time>2021-10-07T13:29:22Z</time><name>PT4764</name></trkpt>
<trkpt lat="53.378293" lon="-1.882377"><ele>621</ele><time>2021-10-07T13:29:23Z</time><name>PT4765</name></trkpt>
<trkpt lat="53.378279" lon="-1.882377"><ele>621</ele><time>2021-10-07T13:29:24Z</time><name>PT4766</name></trkpt>
<trkpt lat="53.378267" lon="-1.882379"><ele>620</ele><time>2021-10-07T13:29:25Z</time><name>PT4767</name></trkpt>
<trkpt lat="53.378254" lon="-1.882378"><ele>620</ele><time>2021-10-07T13:29:26Z</time><name>PT4768</name></trkpt>
<trkpt lat="53.378241" lon="-1.882374"><ele>620</ele><time>2021-10-07T13:29:28Z</time><name>PT4769</name></trkpt>
<trkpt lat="53.378235" lon="-1.882377"><ele>620</ele><time>2021-10-07T13:29:28Z</time><name>PT4770</name></trkpt>
<trkpt lat="53.378230" lon="-1.882386"><ele>620</ele><time>2021-10-07T13:29:29Z</time><name>PT4771</name></trkpt>
<trkpt lat="53.378222" lon="-1.882391"><ele>620</ele><time>2021-10-07T13:29:30Z</time><name>PT4772</name></trkpt>
<trkpt lat="53.378212" lon="-1.882392"><ele>621</ele><time>2021-10-07T13:29:31Z</time><name>PT4773</name></trkpt>
<trkpt lat="53.378208" lon="-1.882395"><ele>621</ele><time>2021-10-07T13:29:32Z</time><name>PT4774</name></trkpt>
<trkpt lat="53.378205" lon="-1.882392"><ele>620</ele><time>2021-10-07T13:29:33Z</time><name>PT4775</name></trkpt>
<trkpt lat="53.378200" lon="-1.882386"><ele>621</ele><time>2021-10-07T13:29:34Z</time><name>PT4776</name></trkpt>
<trkpt lat="53.378202" lon="-1.882388"><ele>620</ele><time>2021-10-07T13:29:35Z</time><name>PT4777</name></trkpt>
<trkpt lat="53.378202" lon="-1.882392"><ele>620</ele><time>2021-10-07T13:29:36Z</time><name>PT4778</name></trkpt>
<trkpt lat="53.378202" lon="-1.882393"><ele>620</ele><time>2021-10-07T13:29:37Z</time><name>PT4779</name></trkpt>
<trkpt lat="53.378200" lon="-1.882406"><ele>620</ele><time>2021-10-07T13:29:39Z</time><name>PT4780</name></trkpt>
<trkpt lat="53.378193" lon="-1.882414"><ele>620</ele><time>2021-10-07T13:29:40Z</time><name>PT4781</name></trkpt>
<trkpt lat="53.378190" lon="-1.882416"><ele>620</ele><time>2021-10-07T13:29:41Z</time><name>PT4782</name></trkpt>
<trkpt lat="53.378181" lon="-1.882415"><ele>620</ele><time>2021-10-07T13:29:42Z</time><name>PT4783</name></trkpt>
<trkpt lat="53.378173" lon="-1.882421"><ele>620</ele><time>2021-10-07T13:29:43Z</time><name>PT4784</name></trkpt>
<trkpt lat="53.378167" lon="-1.882429"><ele>619</ele><time>2021-10-07T13:29:44Z</time><name>PT4785</name></trkpt>
<trkpt lat="53.378159" lon="-1.882431"><ele>619</ele><time>2021-10-07T13:29:45Z</time><name>PT4786</name></trkpt>
<trkpt lat="53.378151" lon="-1.882432"><ele>619</ele><time>2021-10-07T13:29:46Z</time><name>PT4787</name></trkpt>
<trkpt lat="53.378144" lon="-1.882434"><ele>619</ele><time>2021-10-07T13:29:47Z</time><name>PT4788</name></trkpt>
<trkpt lat="53.378138" lon="-1.882431"><ele>619</ele><time>2021-10-07T13:29:48Z</time><name>PT4789</name></trkpt>
<trkpt lat="53.378126" lon="-1.882427"><ele>619</ele><time>2021-10-07T13:29:49Z</time><name>PT4790</name></trkpt>
<trkpt lat="53.378119" lon="-1.882417"><ele>619</ele><time>2021-10-07T13:29:50Z</time><name>PT4791</name></trkpt>
<trkpt lat="53.378110" lon="-1.882409"><ele>619</ele><time>2021-10-07T13:29:51Z</time><name>PT4792</name></trkpt>
<trkpt lat="53.378098" lon="-1.882399"><ele>618</ele><time>2021-10-07T13:29:52Z</time><name>PT4793</name></trkpt>
<trkpt lat="53.378087" lon="-1.882392"><ele>617</ele><time>2021-10-07T13:29:53Z</time><name>PT4794</name></trkpt>
<trkpt lat="53.378074" lon="-1.882390"><ele>617</ele><time>2021-10-07T13:29:54Z</time><name>PT4795</name></trkpt>
<trkpt lat="53.378063" lon="-1.882385"><ele>617</ele><time>2021-10-07T13:29:55Z</time><name>PT4796</name></trkpt>
<trkpt lat="53.378052" lon="-1.882382"><ele>617</ele><time>2021-10-07T13:29:56Z</time><name>PT4797</name></trkpt>
<trkpt lat="53.378037" lon="-1.882380"><ele>617</ele><time>2021-10-07T13:29:57Z</time><name>PT4798</name></trkpt>
<trkpt lat="53.378024" lon="-1.882379"><ele>617</ele><time>2021-10-07T13:29:58Z</time><name>PT4799</name></trkpt>
<trkpt lat="53.378014" lon="-1.882375"><ele>617</ele><time>2021-10-07T13:29:59Z</time><name>PT4800</name></trkpt>
<trkpt lat="53.378001" lon="-1.882370"><ele>617</ele><time>2021-10-07T13:30:00Z</time><name>PT4801</name></trkpt>
<trkpt lat="53.377989" lon="-1.882363"><ele>617</ele><time>2021-10-07T13:30:01Z</time><name>PT4802</name></trkpt>
<trkpt lat="53.377978" lon="-1.882358"><ele>617</ele><time>2021-10-07T13:30:02Z</time><name>PT4803</name></trkpt>
<trkpt lat="53.377968" lon="-1.882353"><ele>617</ele><time>2021-10-07T13:30:03Z</time><name>PT4804</name></trkpt>
<trkpt lat="53.377956" lon="-1.882346"><ele>617</ele><time>2021-10-07T13:30:04Z</time><name>PT4805</name></trkpt>
<trkpt lat="53.377948" lon="-1.882338"><ele>617</ele><time>2021-10-07T13:30:05Z</time><name>PT4806</name></trkpt>
<trkpt lat="53.377939" lon="-1.882329"><ele>617</ele><time>2021-10-07T13:30:06Z</time><name>PT4807</name></trkpt>
<trkpt lat="53.377928" lon="-1.882320"><ele>617</ele><time>2021-10-07T13:30:07Z</time><name>PT4808</name></trkpt>
<trkpt lat="53.377919" lon="-1.882311"><ele>617</ele><time>2021-10-07T13:30:08Z</time><name>PT4809</name></trkpt>
<trkpt lat="53.377910" lon="-1.882299"><ele>617</ele><time>2021-10-07T13:30:09Z</time><name>PT4810</name></trkpt>
<trkpt lat="53.377898" lon="-1.882287"><ele>617</ele><time>2021-10-07T13:30:10Z</time><name>PT4811</name></trkpt>
<trkpt lat="53.377889" lon="-1.882276"><ele>617</ele><time>2021-10-07T13:30:11Z</time><name>PT4812</name></trkpt>
<trkpt lat="53.377882" lon="-1.882265"><ele>617</ele><time>2021-10-07T13:30:12Z</time><name>PT4813</name></trkpt>
<trkpt lat="53.377874" lon="-1.882258"><ele>618</ele><time>2021-10-07T13:30:13Z</time><name>PT4814</name></trkpt>
<trkpt lat="53.377867" lon="-1.882253"><ele>617</ele><time>2021-10-07T13:30:14Z</time><name>PT4815</name></trkpt>
<trkpt lat="53.377858" lon="-1.882248"><ele>618</ele><time>2021-10-07T13:30:15Z</time><name>PT4816</name></trkpt>
<trkpt lat="53.377852" lon="-1.882242"><ele>618</ele><time>2021-10-07T13:30:16Z</time><name>PT4817</name></trkpt>
<trkpt lat="53.377845" lon="-1.882233"><ele>618</ele><time>2021-10-07T13:30:17Z</time><name>PT4818</name></trkpt>
<trkpt lat="53.377836" lon="-1.882230"><ele>618</ele><time>2021-10-07T13:30:18Z</time><name>PT4819</name></trkpt>
<trkpt lat="53.377830" lon="-1.882231"><ele>618</ele><time>2021-10-07T13:30:19Z</time><name>PT4820</name></trkpt>
<trkpt lat="53.377822" lon="-1.882229"><ele>619</ele><time>2021-10-07T13:30:20Z</time><name>PT4821</name></trkpt>
<trkpt lat="53.377815" lon="-1.882231"><ele>618</ele><time>2021-10-07T13:30:21Z</time><name>PT4822</name></trkpt>
<trkpt lat="53.377803" lon="-1.882234"><ele>619</ele><time>2021-10-07T13:30:22Z</time><name>PT4823</name></trkpt>
<trkpt lat="53.377796" lon="-1.882232"><ele>619</ele><time>2021-10-07T13:30:23Z</time><name>PT4824</name></trkpt>
<trkpt lat="53.377790" lon="-1.882223"><ele>618</ele><time>2021-10-07T13:30:24Z</time><name>PT4825</name></trkpt>
<trkpt lat="53.377787" lon="-1.882214"><ele>618</ele><time>2021-10-07T13:30:25Z</time><name>PT4826</name></trkpt>
<trkpt lat="53.377779" lon="-1.882204"><ele>617</ele><time>2021-10-07T13:30:26Z</time><name>PT4827</name></trkpt>
<trkpt lat="53.377769" lon="-1.882197"><ele>617</ele><time>2021-10-07T13:30:27Z</time><name>PT4828</name></trkpt>
<trkpt lat="53.377761" lon="-1.882188"><ele>617</ele><time>2021-10-07T13:30:28Z</time><name>PT4829</name></trkpt>
<trkpt lat="53.377754" lon="-1.882179"><ele>617</ele><time>2021-10-07T13:30:29Z</time><name>PT4830</name></trkpt>
<trkpt lat="53.377744" lon="-1.882171"><ele>617</ele><time>2021-10-07T13:30:30Z</time><name>PT4831</name></trkpt>
<trkpt lat="53.377731" lon="-1.882169"><ele>617</ele><time>2021-10-07T13:30:31Z</time><name>PT4832</name></trkpt>
<trkpt lat="53.377718" lon="-1.882172"><ele>616</ele><time>2021-10-07T13:30:32Z</time><name>PT4833</name></trkpt>
<trkpt lat="53.377707" lon="-1.882177"><ele>616</ele><time>2021-10-07T13:30:33Z</time><name>PT4834</name></trkpt>
<trkpt lat="53.377696" lon="-1.882185"><ele>616</ele><time>2021-10-07T13:30:34Z</time><name>PT4835</name></trkpt>
<trkpt lat="53.377684" lon="-1.882192"><ele>616</ele><time>2021-10-07T13:30:35Z</time><name>PT4836</name></trkpt>
<trkpt lat="53.377672" lon="-1.882198"><ele>615</ele><time>2021-10-07T13:30:36Z</time><name>PT4837</name></trkpt>
<trkpt lat="53.377666" lon="-1.882197"><ele>615</ele><time>2021-10-07T13:30:37Z</time><name>PT4838</name></trkpt>
<trkpt lat="53.377657" lon="-1.882193"><ele>615</ele><time>2021-10-07T13:30:38Z</time><name>PT4839</name></trkpt>
<trkpt lat="53.377646" lon="-1.882192"><ele>615</ele><time>2021-10-07T13:30:39Z</time><name>PT4840</name></trkpt>
<trkpt lat="53.377635" lon="-1.882195"><ele>614</ele><time>2021-10-07T13:30:40Z</time><name>PT4841</name></trkpt>
<trkpt lat="53.377625" lon="-1.882194"><ele>614</ele><time>2021-10-07T13:30:41Z</time><name>PT4842</name></trkpt>
<trkpt lat="53.377615" lon="-1.882193"><ele>614</ele><time>2021-10-07T13:30:42Z</time><name>PT4843</name></trkpt>
<trkpt lat="53.377605" lon="-1.882198"><ele>614</ele><time>2021-10-07T13:30:43Z</time><name>PT4844</name></trkpt>
<trkpt lat="53.377595" lon="-1.882202"><ele>614</ele><time>2021-10-07T13:30:44Z</time><name>PT4845</name></trkpt>
<trkpt lat="53.377583" lon="-1.882197"><ele>613</ele><time>2021-10-07T13:30:45Z</time><name>PT4846</name></trkpt>
<trkpt lat="53.377573" lon="-1.882194"><ele>613</ele><time>2021-10-07T13:30:46Z</time><name>PT4847</name></trkpt>
<trkpt lat="53.377564" lon="-1.882192"><ele>613</ele><time>2021-10-07T13:30:47Z</time><name>PT4848</name></trkpt>
<trkpt lat="53.377554" lon="-1.882190"><ele>612</ele><time>2021-10-07T13:30:48Z</time><name>PT4849</name></trkpt>
<trkpt lat="53.377541" lon="-1.882192"><ele>612</ele><time>2021-10-07T13:30:49Z</time><name>PT4850</name></trkpt>
<trkpt lat="53.377526" lon="-1.882197"><ele>612</ele><time>2021-10-07T13:30:50Z</time><name>PT4851</name></trkpt>
<trkpt lat="53.377518" lon="-1.882198"><ele>612</ele><time>2021-10-07T13:30:51Z</time><name>PT4852</name></trkpt>
<trkpt lat="53.377506" lon="-1.882202"><ele>612</ele><time>2021-10-07T13:30:52Z</time><name>PT4853</name></trkpt>
<trkpt lat="53.377494" lon="-1.882206"><ele>612</ele><time>2021-10-07T13:30:53Z</time><name>PT4854</name></trkpt>
<trkpt lat="53.377485" lon="-1.882208"><ele>611</ele><time>2021-10-07T13:30:54Z</time><name>PT4855</name></trkpt>
<trkpt lat="53.377484" lon="-1.882206"><ele>611</ele><time>2021-10-07T13:30:55Z</time><name>PT4856</name></trkpt>
<trkpt lat="53.377471" lon="-1.882204"><ele>611</ele><time>2021-10-07T13:30:56Z</time><name>PT4857</name></trkpt>
<trkpt lat="53.377467" lon="-1.882195"><ele>611</ele><time>2021-10-07T13:30:57Z</time><name>PT4858</name></trkpt>
<trkpt lat="53.377461" lon="-1.882190"><ele>610</ele><time>2021-10-07T13:30:58Z</time><name>PT4859</name></trkpt>
<trkpt lat="53.377458" lon="-1.882189"><ele>610</ele><time>2021-10-07T13:30:59Z</time><name>PT4860</name></trkpt>
<trkpt lat="53.377449" lon="-1.882190"><ele>609</ele><time>2021-10-07T13:31:00Z</time><name>PT4861</name></trkpt>
<trkpt lat="53.377441" lon="-1.882188"><ele>609</ele><time>2021-10-07T13:31:01Z</time><name>PT4862</name></trkpt>
<trkpt lat="53.377434" lon="-1.882187"><ele>608</ele><time>2021-10-07T13:31:02Z</time><name>PT4863</name></trkpt>
<trkpt lat="53.377424" lon="-1.882182"><ele>608</ele><time>2021-10-07T13:31:03Z</time><name>PT4864</name></trkpt>
<trkpt lat="53.377416" lon="-1.882180"><ele>608</ele><time>2021-10-07T13:31:04Z</time><name>PT4865</name></trkpt>
<trkpt lat="53.377409" lon="-1.882184"><ele>607</ele><time>2021-10-07T13:31:05Z</time><name>PT4866</name></trkpt>
<trkpt lat="53.377400" lon="-1.882189"><ele>607</ele><time>2021-10-07T13:31:06Z</time><name>PT4867</name></trkpt>
<trkpt lat="53.377375" lon="-1.882189"><ele>607</ele><time>2021-10-07T13:31:09Z</time><name>PT4868</name></trkpt>
<trkpt lat="53.377329" lon="-1.882187"><ele>607</ele><time>2021-10-07T13:31:13Z</time><name>PT4869</name></trkpt>
<trkpt lat="53.377287" lon="-1.882177"><ele>606</ele><time>2021-10-07T13:31:17Z</time><name>PT4870</name></trkpt>
<trkpt lat="53.377246" lon="-1.882174"><ele>606</ele><time>2021-10-07T13:31:21Z</time><name>PT4871</name></trkpt>
<trkpt lat="53.377213" lon="-1.882176"><ele>605</ele><time>2021-10-07T13:31:25Z</time><name>PT4872</name></trkpt>
<trkpt lat="53.377201" lon="-1.882143"><ele>605</ele><time>2021-10-07T13:31:29Z</time><name>PT4873</name></trkpt>
<trkpt lat="53.377173" lon="-1.882123"><ele>603</ele><time>2021-10-07T13:31:33Z</time><name>PT4874</name></trkpt>
<trkpt lat="53.377147" lon="-1.882077"><ele>602</ele><time>2021-10-07T13:31:37Z</time><name>PT4875</name></trkpt>
<trkpt lat="53.377117" lon="-1.882056"><ele>601</ele><time>2021-10-07T13:31:41Z</time><name>PT4876</name></trkpt>
<trkpt lat="53.377085" lon="-1.882036"><ele>600</ele><time>2021-10-07T13:31:45Z</time><name>PT4877</name></trkpt>
<trkpt lat="53.377044" lon="-1.882022"><ele>599</ele><time>2021-10-07T13:31:49Z</time><name>PT4878</name></trkpt>
<trkpt lat="53.377000" lon="-1.882006"><ele>598</ele><time>2021-10-07T13:31:53Z</time><name>PT4879</name></trkpt>
<trkpt lat="53.376956" lon="-1.881955"><ele>597</ele><time>2021-10-07T13:31:57Z</time><name>PT4880</name></trkpt>
<trkpt lat="53.376915" lon="-1.881930"><ele>596</ele><time>2021-10-07T13:32:01Z</time><name>PT4881</name></trkpt>
<trkpt lat="53.376883" lon="-1.881897"><ele>595</ele><time>2021-10-07T13:32:05Z</time><name>PT4882</name></trkpt>
<trkpt lat="53.376841" lon="-1.881876"><ele>594</ele><time>2021-10-07T13:32:09Z</time><name>PT4883</name></trkpt>
<trkpt lat="53.376791" lon="-1.881875"><ele>593</ele><time>2021-10-07T13:32:13Z</time><name>PT4884</name></trkpt>
<trkpt lat="53.376735" lon="-1.881849"><ele>593</ele><time>2021-10-07T13:32:17Z</time><name>PT4885</name></trkpt>
<trkpt lat="53.376697" lon="-1.881811"><ele>592</ele><time>2021-10-07T13:32:21Z</time><name>PT4886</name></trkpt>
<trkpt lat="53.376650" lon="-1.881795"><ele>591</ele><time>2021-10-07T13:32:25Z</time><name>PT4887</name></trkpt>
<trkpt lat="53.376615" lon="-1.881840"><ele>590</ele><time>2021-10-07T13:32:29Z</time><name>PT4888</name></trkpt>
<trkpt lat="53.376565" lon="-1.881858"><ele>589</ele><time>2021-10-07T13:32:33Z</time><name>PT4889</name></trkpt>
<trkpt lat="53.376511" lon="-1.881866"><ele>591</ele><time>2021-10-07T13:32:37Z</time><name>PT4890</name></trkpt>
<trkpt lat="53.376479" lon="-1.881858"><ele>590</ele><time>2021-10-07T13:32:41Z</time><name>PT4891</name></trkpt>
<trkpt lat="53.376428" lon="-1.881838"><ele>590</ele><time>2021-10-07T13:32:44Z</time><name>PT4892</name></trkpt>
<trkpt lat="53.376373" lon="-1.881846"><ele>590</ele><time>2021-10-07T13:32:48Z</time><name>PT4893</name></trkpt>
<trkpt lat="53.376325" lon="-1.881850"><ele>589</ele><time>2021-10-07T13:32:52Z</time><name>PT4894</name></trkpt>
<trkpt lat="53.376286" lon="-1.881859"><ele>588</ele><time>2021-10-07T13:32:56Z</time><name>PT4895</name></trkpt>
<trkpt lat="53.376252" lon="-1.881864"><ele>588</ele><time>2021-10-07T13:32:59Z</time><name>PT4896</name></trkpt>
<trkpt lat="53.376192" lon="-1.881880"><ele>587</ele><time>2021-10-07T13:33:03Z</time><name>PT4897</name></trkpt>
<trkpt lat="53.376150" lon="-1.881913"><ele>587</ele><time>2021-10-07T13:33:07Z</time><name>PT4898</name></trkpt>
<trkpt lat="53.376101" lon="-1.881931"><ele>587</ele><time>2021-10-07T13:33:11Z</time><name>PT4899</name></trkpt>
<trkpt lat="53.376053" lon="-1.881964"><ele>586</ele><time>2021-10-07T13:33:15Z</time><name>PT4900</name></trkpt>
<trkpt lat="53.376015" lon="-1.882025"><ele>585</ele><time>2021-10-07T13:33:19Z</time><name>PT4901</name></trkpt>
<trkpt lat="53.375972" lon="-1.882082"><ele>585</ele><time>2021-10-07T13:33:23Z</time><name>PT4902</name></trkpt>
<trkpt lat="53.375933" lon="-1.882103"><ele>585</ele><time>2021-10-07T13:33:27Z</time><name>PT4903</name></trkpt>
<trkpt lat="53.375886" lon="-1.882112"><ele>585</ele><time>2021-10-07T13:33:31Z</time><name>PT4904</name></trkpt>
<trkpt lat="53.375853" lon="-1.882117"><ele>584</ele><time>2021-10-07T13:33:35Z</time><name>PT4905</name></trkpt>
<trkpt lat="53.375812" lon="-1.882105"><ele>583</ele><time>2021-10-07T13:33:39Z</time><name>PT4906</name></trkpt>
<trkpt lat="53.375766" lon="-1.882104"><ele>583</ele><time>2021-10-07T13:33:43Z</time><name>PT4907</name></trkpt>
<trkpt lat="53.375725" lon="-1.882104"><ele>582</ele><time>2021-10-07T13:33:47Z</time><name>PT4908</name></trkpt>
<trkpt lat="53.375691" lon="-1.882092"><ele>581</ele><time>2021-10-07T13:33:51Z</time><name>PT4909</name></trkpt>
<trkpt lat="53.375652" lon="-1.882092"><ele>580</ele><time>2021-10-07T13:33:55Z</time><name>PT4910</name></trkpt>
<trkpt lat="53.375607" lon="-1.882081"><ele>579</ele><time>2021-10-07T13:33:59Z</time><name>PT4911</name></trkpt>
<trkpt lat="53.375574" lon="-1.882052"><ele>579</ele><time>2021-10-07T13:34:03Z</time><name>PT4912</name></trkpt>
<trkpt lat="53.375557" lon="-1.881984"><ele>580</ele><time>2021-10-07T13:34:07Z</time><name>PT4913</name></trkpt>
<trkpt lat="53.375528" lon="-1.881915"><ele>579</ele><time>2021-10-07T13:34:11Z</time><name>PT4914</name></trkpt>
<trkpt lat="53.375490" lon="-1.881871"><ele>579</ele><time>2021-10-07T13:34:15Z</time><name>PT4915</name></trkpt>
<trkpt lat="53.375458" lon="-1.881836"><ele>578</ele><time>2021-10-07T13:34:19Z</time><name>PT4916</name></trkpt>
<trkpt lat="53.375423" lon="-1.881776"><ele>577</ele><time>2021-10-07T13:34:23Z</time><name>PT4917</name></trkpt>
<trkpt lat="53.375373" lon="-1.881737"><ele>577</ele><time>2021-10-07T13:34:27Z</time><name>PT4918</name></trkpt>
<trkpt lat="53.375333" lon="-1.881726"><ele>577</ele><time>2021-10-07T13:34:31Z</time><name>PT4919</name></trkpt>
<trkpt lat="53.375282" lon="-1.881735"><ele>576</ele><time>2021-10-07T13:34:35Z</time><name>PT4920</name></trkpt>
<trkpt lat="53.375241" lon="-1.881754"><ele>578</ele><time>2021-10-07T13:34:39Z</time><name>PT4921</name></trkpt>
<trkpt lat="53.375208" lon="-1.881773"><ele>578</ele><time>2021-10-07T13:34:42Z</time><name>PT4922</name></trkpt>
<trkpt lat="53.375178" lon="-1.881780"><ele>578</ele><time>2021-10-07T13:34:45Z</time><name>PT4923</name></trkpt>
<trkpt lat="53.375170" lon="-1.881783"><ele>578</ele><time>2021-10-07T13:34:46Z</time><name>PT4924</name></trkpt>
<trkpt lat="53.375160" lon="-1.881784"><ele>579</ele><time>2021-10-07T13:34:47Z</time><name>PT4925</name></trkpt>
<trkpt lat="53.375149" lon="-1.881782"><ele>579</ele><time>2021-10-07T13:34:48Z</time><name>PT4926</name></trkpt>
<trkpt lat="53.375142" lon="-1.881783"><ele>579</ele><time>2021-10-07T13:34:49Z</time><name>PT4927</name></trkpt>
<trkpt lat="53.375133" lon="-1.881791"><ele>579</ele><time>2021-10-07T13:34:50Z</time><name>PT4928</name></trkpt>
<trkpt lat="53.375124" lon="-1.881797"><ele>579</ele><time>2021-10-07T13:34:51Z</time><name>PT4929</name></trkpt>
<trkpt lat="53.375112" lon="-1.881799"><ele>579</ele><time>2021-10-07T13:34:52Z</time><name>PT4930</name></trkpt>
<trkpt lat="53.375101" lon="-1.881803"><ele>579</ele><time>2021-10-07T13:34:53Z</time><name>PT4931</name></trkpt>
<trkpt lat="53.375090" lon="-1.881805"><ele>579</ele><time>2021-10-07T13:34:54Z</time><name>PT4932</name></trkpt>
<trkpt lat="53.375080" lon="-1.881808"><ele>579</ele><time>2021-10-07T13:34:55Z</time><name>PT4933</name></trkpt>
<trkpt lat="53.375068" lon="-1.881815"><ele>579</ele><time>2021-10-07T13:34:56Z</time><name>PT4934</name></trkpt>
<trkpt lat="53.375056" lon="-1.881815"><ele>579</ele><time>2021-10-07T13:34:58Z</time><name>PT4935</name></trkpt>
<trkpt lat="53.375043" lon="-1.881817"><ele>579</ele><time>2021-10-07T13:34:58Z</time><name>PT4936</name></trkpt>
<trkpt lat="53.375035" lon="-1.881821"><ele>579</ele><time>2021-10-07T13:34:59Z</time><name>PT4937</name></trkpt>
<trkpt lat="53.375027" lon="-1.881829"><ele>579</ele><time>2021-10-07T13:35:00Z</time><name>PT4938</name></trkpt>
<trkpt lat="53.375017" lon="-1.881836"><ele>579</ele><time>2021-10-07T13:35:01Z</time><name>PT4939</name></trkpt>
<trkpt lat="53.375007" lon="-1.881840"><ele>579</ele><time>2021-10-07T13:35:02Z</time><name>PT4940</name></trkpt>
<trkpt lat="53.374996" lon="-1.881840"><ele>579</ele><time>2021-10-07T13:35:03Z</time><name>PT4941</name></trkpt>
<trkpt lat="53.374985" lon="-1.881839"><ele>579</ele><time>2021-10-07T13:35:04Z</time><name>PT4942</name></trkpt>
<trkpt lat="53.374974" lon="-1.881843"><ele>579</ele><time>2021-10-07T13:35:05Z</time><name>PT4943</name></trkpt>
<trkpt lat="53.374965" lon="-1.881848"><ele>579</ele><time>2021-10-07T13:35:06Z</time><name>PT4944</name></trkpt>
<trkpt lat="53.374954" lon="-1.881857"><ele>579</ele><time>2021-10-07T13:35:07Z</time><name>PT4945</name></trkpt>
<trkpt lat="53.374943" lon="-1.881862"><ele>579</ele><time>2021-10-07T13:35:08Z</time><name>PT4946</name></trkpt>
<trkpt lat="53.374933" lon="-1.881865"><ele>579</ele><time>2021-10-07T13:35:09Z</time><name>PT4947</name></trkpt>
<trkpt lat="53.374923" lon="-1.881873"><ele>580</ele><time>2021-10-07T13:35:10Z</time><name>PT4948</name></trkpt>
<trkpt lat="53.374910" lon="-1.881879"><ele>580</ele><time>2021-10-07T13:35:11Z</time><name>PT4949</name></trkpt>
<trkpt lat="53.374899" lon="-1.881885"><ele>580</ele><time>2021-10-07T13:35:12Z</time><name>PT4950</name></trkpt>
<trkpt lat="53.374887" lon="-1.881892"><ele>580</ele><time>2021-10-07T13:35:13Z</time><name>PT4951</name></trkpt>
<trkpt lat="53.374877" lon="-1.881898"><ele>580</ele><time>2021-10-07T13:35:14Z</time><name>PT4952</name></trkpt>
<trkpt lat="53.374866" lon="-1.881901"><ele>580</ele><time>2021-10-07T13:35:15Z</time><name>PT4953</name></trkpt>
<trkpt lat="53.374854" lon="-1.881906"><ele>580</ele><time>2021-10-07T13:35:16Z</time><name>PT4954</name></trkpt>
<trkpt lat="53.374843" lon="-1.881911"><ele>581</ele><time>2021-10-07T13:35:17Z</time><name>PT4955</name></trkpt>
<trkpt lat="53.374833" lon="-1.881915"><ele>580</ele><time>2021-10-07T13:35:18Z</time><name>PT4956</name></trkpt>
<trkpt lat="53.374819" lon="-1.881921"><ele>579</ele><time>2021-10-07T13:35:19Z</time><name>PT4957</name></trkpt>
<trkpt lat="53.374808" lon="-1.881926"><ele>580</ele><time>2021-10-07T13:35:20Z</time><name>PT4958</name></trkpt>
<trkpt lat="53.374797" lon="-1.881924"><ele>580</ele><time>2021-10-07T13:35:21Z</time><name>PT4959</name></trkpt>
<trkpt lat="53.374788" lon="-1.881920"><ele>580</ele><time>2021-10-07T13:35:22Z</time><name>PT4960</name></trkpt>
<trkpt lat="53.374777" lon="-1.881916"><ele>580</ele><time>2021-10-07T13:35:23Z</time><name>PT4961</name></trkpt>
<trkpt lat="53.374767" lon="-1.881915"><ele>580</ele><time>2021-10-07T13:35:24Z</time><name>PT4962</name></trkpt>
<trkpt lat="53.374756" lon="-1.881912"><ele>580</ele><time>2021-10-07T13:35:25Z</time><name>PT4963</name></trkpt>
<trkpt lat="53.374742" lon="-1.881910"><ele>580</ele><time>2021-10-07T13:35:26Z</time><name>PT4964</name></trkpt>
<trkpt lat="53.374730" lon="-1.881908"><ele>581</ele><time>2021-10-07T13:35:27Z</time><name>PT4965</name></trkpt>
<trkpt lat="53.374718" lon="-1.881900"><ele>581</ele><time>2021-10-07T13:35:28Z</time><name>PT4966</name></trkpt>
<trkpt lat="53.374708" lon="-1.881896"><ele>581</ele><time>2021-10-07T13:35:29Z</time><name>PT4967</name></trkpt>
<trkpt lat="53.374700" lon="-1.881894"><ele>581</ele><time>2021-10-07T13:35:30Z</time><name>PT4968</name></trkpt>
<trkpt lat="53.374687" lon="-1.881888"><ele>581</ele><time>2021-10-07T13:35:31Z</time><name>PT4969</name></trkpt>
<trkpt lat="53.374668" lon="-1.881881"><ele>581</ele><time>2021-10-07T13:35:32Z</time><name>PT4970</name></trkpt>
<trkpt lat="53.374656" lon="-1.881878"><ele>581</ele><time>2021-10-07T13:35:33Z</time><name>PT4971</name></trkpt>
<trkpt lat="53.374646" lon="-1.881877"><ele>581</ele><time>2021-10-07T13:35:34Z</time><name>PT4972</name></trkpt>
<trkpt lat="53.374633" lon="-1.881877"><ele>581</ele><time>2021-10-07T13:35:35Z</time><name>PT4973</name></trkpt>
<trkpt lat="53.374620" lon="-1.881877"><ele>581</ele><time>2021-10-07T13:35:36Z</time><name>PT4974</name></trkpt>
<trkpt lat="53.374609" lon="-1.881878"><ele>581</ele><time>2021-10-07T13:35:37Z</time><name>PT4975</name></trkpt>
<trkpt lat="53.374597" lon="-1.881875"><ele>581</ele><time>2021-10-07T13:35:38Z</time><name>PT4976</name></trkpt>
<trkpt lat="53.374587" lon="-1.881878"><ele>581</ele><time>2021-10-07T13:35:39Z</time><name>PT4977</name></trkpt>
<trkpt lat="53.374577" lon="-1.881878"><ele>581</ele><time>2021-10-07T13:35:40Z</time><name>PT4978</name></trkpt>
<trkpt lat="53.374568" lon="-1.881879"><ele>581</ele><time>2021-10-07T13:35:41Z</time><name>PT4979</name></trkpt>
<trkpt lat="53.374558" lon="-1.881879"><ele>580</ele><time>2021-10-07T13:35:42Z</time><name>PT4980</name></trkpt>
<trkpt lat="53.374547" lon="-1.881879"><ele>581</ele><time>2021-10-07T13:35:43Z</time><name>PT4981</name></trkpt>
<trkpt lat="53.374534" lon="-1.881883"><ele>581</ele><time>2021-10-07T13:35:44Z</time><name>PT4982</name></trkpt>
<trkpt lat="53.374521" lon="-1.881882"><ele>581</ele><time>2021-10-07T13:35:45Z</time><name>PT4983</name></trkpt>
<trkpt lat="53.374507" lon="-1.881884"><ele>581</ele><time>2021-10-07T13:35:46Z</time><name>PT4984</name></trkpt>
<trkpt lat="53.374496" lon="-1.881884"><ele>582</ele><time>2021-10-07T13:35:47Z</time><name>PT4985</name></trkpt>
<trkpt lat="53.374485" lon="-1.881885"><ele>581</ele><time>2021-10-07T13:35:48Z</time><name>PT4986</name></trkpt>
<trkpt lat="53.374472" lon="-1.881885"><ele>582</ele><time>2021-10-07T13:35:49Z</time><name>PT4987</name></trkpt>
<trkpt lat="53.374463" lon="-1.881882"><ele>581</ele><time>2021-10-07T13:35:50Z</time><name>PT4988</name></trkpt>
<trkpt lat="53.374457" lon="-1.881879"><ele>581</ele><time>2021-10-07T13:35:51Z</time><name>PT4989</name></trkpt>
<trkpt lat="53.374444" lon="-1.881869"><ele>582</ele><time>2021-10-07T13:35:52Z</time><name>PT4990</name></trkpt>
<trkpt lat="53.374435" lon="-1.881870"><ele>582</ele><time>2021-10-07T13:35:53Z</time><name>PT4991</name></trkpt>
<trkpt lat="53.374425" lon="-1.881869"><ele>582</ele><time>2021-10-07T13:35:54Z</time><name>PT4992</name></trkpt>
<trkpt lat="53.374408" lon="-1.881871"><ele>582</ele><time>2021-10-07T13:35:55Z</time><name>PT4993</name></trkpt>
<trkpt lat="53.374402" lon="-1.881877"><ele>582</ele><time>2021-10-07T13:35:56Z</time><name>PT4994</name></trkpt>
<trkpt lat="53.374397" lon="-1.881885"><ele>582</ele><time>2021-10-07T13:35:57Z</time><name>PT4995</name></trkpt>
<trkpt lat="53.374388" lon="-1.881885"><ele>582</ele><time>2021-10-07T13:35:58Z</time><name>PT4996</name></trkpt>
<trkpt lat="53.374376" lon="-1.881881"><ele>583</ele><time>2021-10-07T13:35:59Z</time><name>PT4997</name></trkpt>
<trkpt lat="53.374364" lon="-1.881887"><ele>583</ele><time>2021-10-07T13:36:00Z</time><name>PT4998</name></trkpt>
<trkpt lat="53.374354" lon="-1.881888"><ele>583</ele><time>2021-10-07T13:36:01Z</time><name>PT4999</name></trkpt>
<trkpt lat="53.374346" lon="-1.881890"><ele>583</ele><time>2021-10-07T13:36:02Z</time><name>PT5000</name></trkpt>
<trkpt lat="53.374337" lon="-1.881893"><ele>583</ele><time>2021-10-07T13:36:03Z</time><name>PT5001</name></trkpt>
<trkpt lat="53.374328" lon="-1.881891"><ele>583</ele><time>2021-10-07T13:36:04Z</time><name>PT5002</name></trkpt>
<trkpt lat="53.374322" lon="-1.881890"><ele>583</ele><time>2021-10-07T13:36:05Z</time><name>PT5003</name></trkpt>
<trkpt lat="53.374320" lon="-1.881888"><ele>583</ele><time>2021-10-07T13:36:06Z</time><name>PT5004</name></trkpt>
<trkpt lat="53.374319" lon="-1.881888"><ele>583</ele><time>2021-10-07T13:36:07Z</time><name>PT5005</name></trkpt>
<trkpt lat="53.374315" lon="-1.881890"><ele>583</ele><time>2021-10-07T13:36:08Z</time><name>PT5006</name></trkpt>
<trkpt lat="53.374307" lon="-1.881890"><ele>583</ele><time>2021-10-07T13:36:09Z</time><name>PT5007</name></trkpt>
<trkpt lat="53.374303" lon="-1.881890"><ele>583</ele><time>2021-10-07T13:36:10Z</time><name>PT5008</name></trkpt>
<trkpt lat="53.374300" lon="-1.881892"><ele>583</ele><time>2021-10-07T13:36:11Z</time><name>PT5009</name></trkpt>
<trkpt lat="53.374290" lon="-1.881896"><ele>583</ele><time>2021-10-07T13:36:12Z</time><name>PT5010</name></trkpt>
<trkpt lat="53.374281" lon="-1.881900"><ele>583</ele><time>2021-10-07T13:36:13Z</time><name>PT5011</name></trkpt>
<trkpt lat="53.374271" lon="-1.881908"><ele>583</ele><time>2021-10-07T13:36:14Z</time><name>PT5012</name></trkpt>
<trkpt lat="53.374258" lon="-1.881912"><ele>583</ele><time>2021-10-07T13:36:15Z</time><name>PT5013</name></trkpt>
<trkpt lat="53.374247" lon="-1.881909"><ele>583</ele><time>2021-10-07T13:36:16Z</time><name>PT5014</name></trkpt>
<trkpt lat="53.374238" lon="-1.881909"><ele>583</ele><time>2021-10-07T13:36:17Z</time><name>PT5015</name></trkpt>
<trkpt lat="53.374227" lon="-1.881913"><ele>583</ele><time>2021-10-07T13:36:18Z</time><name>PT5016</name></trkpt>
<trkpt lat="53.374217" lon="-1.881917"><ele>584</ele><time>2021-10-07T13:36:19Z</time><name>PT5017</name></trkpt>
<trkpt lat="53.374204" lon="-1.881920"><ele>584</ele><time>2021-10-07T13:36:20Z</time><name>PT5018</name></trkpt>
<trkpt lat="53.374198" lon="-1.881923"><ele>584</ele><time>2021-10-07T13:36:21Z</time><name>PT5019</name></trkpt>
<trkpt lat="53.374188" lon="-1.881925"><ele>585</ele><time>2021-10-07T13:36:22Z</time><name>PT5020</name></trkpt>
<trkpt lat="53.374177" lon="-1.881934"><ele>584</ele><time>2021-10-07T13:36:23Z</time><name>PT5021</name></trkpt>
<trkpt lat="53.374166" lon="-1.881937"><ele>584</ele><time>2021-10-07T13:36:24Z</time><name>PT5022</name></trkpt>
<trkpt lat="53.374156" lon="-1.881937"><ele>584</ele><time>2021-10-07T13:36:25Z</time><name>PT5023</name></trkpt>
<trkpt lat="53.374145" lon="-1.881942"><ele>584</ele><time>2021-10-07T13:36:26Z</time><name>PT5024</name></trkpt>
<trkpt lat="53.374139" lon="-1.881952"><ele>584</ele><time>2021-10-07T13:36:27Z</time><name>PT5025</name></trkpt>
<trkpt lat="53.374133" lon="-1.881959"><ele>583</ele><time>2021-10-07T13:36:28Z</time><name>PT5026</name></trkpt>
<trkpt lat="53.374124" lon="-1.881961"><ele>583</ele><time>2021-10-07T13:36:29Z</time><name>PT5027</name></trkpt>
<trkpt lat="53.374111" lon="-1.881961"><ele>583</ele><time>2021-10-07T13:36:30Z</time><name>PT5028</name></trkpt>
<trkpt lat="53.374099" lon="-1.881967"><ele>583</ele><time>2021-10-07T13:36:31Z</time><name>PT5029</name></trkpt>
<trkpt lat="53.374088" lon="-1.881972"><ele>583</ele><time>2021-10-07T13:36:32Z</time><name>PT5030</name></trkpt>
<trkpt lat="53.374079" lon="-1.881974"><ele>584</ele><time>2021-10-07T13:36:33Z</time><name>PT5031</name></trkpt>
<trkpt lat="53.374071" lon="-1.881980"><ele>584</ele><time>2021-10-07T13:36:34Z</time><name>PT5032</name></trkpt>
<trkpt lat="53.374064" lon="-1.881976"><ele>583</ele><time>2021-10-07T13:36:35Z</time><name>PT5033</name></trkpt>
<trkpt lat="53.374064" lon="-1.881977"><ele>583</ele><time>2021-10-07T13:36:36Z</time><name>PT5034</name></trkpt>
<trkpt lat="53.374062" lon="-1.881975"><ele>583</ele><time>2021-10-07T13:36:37Z</time><name>PT5035</name></trkpt>
<trkpt lat="53.374062" lon="-1.881974"><ele>583</ele><time>2021-10-07T13:36:38Z</time><name>PT5036</name></trkpt>
<trkpt lat="53.374059" lon="-1.881969"><ele>584</ele><time>2021-10-07T13:36:39Z</time><name>PT5037</name></trkpt>
<trkpt lat="53.374061" lon="-1.881967"><ele>584</ele><time>2021-10-07T13:36:40Z</time><name>PT5038</name></trkpt>
<trkpt lat="53.374060" lon="-1.881964"><ele>584</ele><time>2021-10-07T13:36:41Z</time><name>PT5039</name></trkpt>
<trkpt lat="53.374058" lon="-1.881960"><ele>585</ele><time>2021-10-07T13:36:42Z</time><name>PT5040</name></trkpt>
<trkpt lat="53.374057" lon="-1.881958"><ele>585</ele><time>2021-10-07T13:36:43Z</time><name>PT5041</name></trkpt>
<trkpt lat="53.374058" lon="-1.881960"><ele>584</ele><time>2021-10-07T13:36:48Z</time><name>PT5042</name></trkpt>
<trkpt lat="53.374062" lon="-1.881961"><ele>584</ele><time>2021-10-07T13:36:49Z</time><name>PT5043</name></trkpt>
<trkpt lat="53.374059" lon="-1.881964"><ele>584</ele><time>2021-10-07T13:36:50Z</time><name>PT5044</name></trkpt>
<trkpt lat="53.374055" lon="-1.881963"><ele>584</ele><time>2021-10-07T13:36:51Z</time><name>PT5045</name></trkpt>
<trkpt lat="53.374050" lon="-1.881965"><ele>583</ele><time>2021-10-07T13:36:52Z</time><name>PT5046</name></trkpt>
<trkpt lat="53.374047" lon="-1.881965"><ele>583</ele><time>2021-10-07T13:36:53Z</time><name>PT5047</name></trkpt>
<trkpt lat="53.374039" lon="-1.881968"><ele>583</ele><time>2021-10-07T13:37:00Z</time><name>PT5048</name></trkpt>
<trkpt lat="53.374029" lon="-1.881973"><ele>583</ele><time>2021-10-07T13:37:01Z</time><name>PT5049</name></trkpt>
<trkpt lat="53.374018" lon="-1.881978"><ele>583</ele><time>2021-10-07T13:37:02Z</time><name>PT5050</name></trkpt>
<trkpt lat="53.374009" lon="-1.881983"><ele>583</ele><time>2021-10-07T13:37:03Z</time><name>PT5051</name></trkpt>
<trkpt lat="53.374001" lon="-1.881989"><ele>583</ele><time>2021-10-07T13:37:04Z</time><name>PT5052</name></trkpt>
<trkpt lat="53.373994" lon="-1.881994"><ele>583</ele><time>2021-10-07T13:37:05Z</time><name>PT5053</name></trkpt>
<trkpt lat="53.373987" lon="-1.881999"><ele>583</ele><time>2021-10-07T13:37:06Z</time><name>PT5054</name></trkpt>
<trkpt lat="53.373982" lon="-1.882003"><ele>583</ele><time>2021-10-07T13:37:07Z</time><name>PT5055</name></trkpt>
<trkpt lat="53.373973" lon="-1.882008"><ele>582</ele><time>2021-10-07T13:37:08Z</time><name>PT5056</name></trkpt>
<trkpt lat="53.373962" lon="-1.882010"><ele>582</ele><time>2021-10-07T13:37:09Z</time><name>PT5057</name></trkpt>
<trkpt lat="53.373951" lon="-1.882011"><ele>582</ele><time>2021-10-07T13:37:10Z</time><name>PT5058</name></trkpt>
<trkpt lat="53.373944" lon="-1.882012"><ele>582</ele><time>2021-10-07T13:37:11Z</time><name>PT5059</name></trkpt>
<trkpt lat="53.373938" lon="-1.882015"><ele>582</ele><time>2021-10-07T13:37:12Z</time><name>PT5060</name></trkpt>
<trkpt lat="53.373926" lon="-1.882020"><ele>582</ele><time>2021-10-07T13:37:13Z</time><name>PT5061</name></trkpt>
<trkpt lat="53.373918" lon="-1.882026"><ele>582</ele><time>2021-10-07T13:37:14Z</time><name>PT5062</name></trkpt>
<trkpt lat="53.373909" lon="-1.882029"><ele>582</ele><time>2021-10-07T13:37:15Z</time><name>PT5063</name></trkpt>
<trkpt lat="53.373899" lon="-1.882030"><ele>582</ele><time>2021-10-07T13:37:16Z</time><name>PT5064</name></trkpt>
<trkpt lat="53.373888" lon="-1.882029"><ele>581</ele><time>2021-10-07T13:37:17Z</time><name>PT5065</name></trkpt>
<trkpt lat="53.373878" lon="-1.882026"><ele>581</ele><time>2021-10-07T13:37:18Z</time><name>PT5066</name></trkpt>
<trkpt lat="53.373867" lon="-1.882025"><ele>580</ele><time>2021-10-07T13:37:19Z</time><name>PT5067</name></trkpt>
<trkpt lat="53.373854" lon="-1.882024"><ele>580</ele><time>2021-10-07T13:37:20Z</time><name>PT5068</name></trkpt>
<trkpt lat="53.373844" lon="-1.882028"><ele>580</ele><time>2021-10-07T13:37:21Z</time><name>PT5069</name></trkpt>
<trkpt lat="53.373833" lon="-1.882035"><ele>580</ele><time>2021-10-07T13:37:22Z</time><name>PT5070</name></trkpt>
<trkpt lat="53.373826" lon="-1.882042"><ele>579</ele><time>2021-10-07T13:37:23Z</time><name>PT5071</name></trkpt>
<trkpt lat="53.373817" lon="-1.882054"><ele>579</ele><time>2021-10-07T13:37:24Z</time><name>PT5072</name></trkpt>
<trkpt lat="53.373809" lon="-1.882064"><ele>579</ele><time>2021-10-07T13:37:25Z</time><name>PT5073</name></trkpt>
<trkpt lat="53.373802" lon="-1.882073"><ele>579</ele><time>2021-10-07T13:37:26Z</time><name>PT5074</name></trkpt>
<trkpt lat="53.373797" lon="-1.882078"><ele>579</ele><time>2021-10-07T13:37:27Z</time><name>PT5075</name></trkpt>
<trkpt lat="53.373787" lon="-1.882078"><ele>579</ele><time>2021-10-07T13:37:28Z</time><name>PT5076</name></trkpt>
<trkpt lat="53.373777" lon="-1.882082"><ele>579</ele><time>2021-10-07T13:37:29Z</time><name>PT5077</name></trkpt>
<trkpt lat="53.373769" lon="-1.882089"><ele>578</ele><time>2021-10-07T13:37:30Z</time><name>PT5078</name></trkpt>
<trkpt lat="53.373757" lon="-1.882100"><ele>578</ele><time>2021-10-07T13:37:31Z</time><name>PT5079</name></trkpt>
<trkpt lat="53.373743" lon="-1.882111"><ele>578</ele><time>2021-10-07T13:37:32Z</time><name>PT5080</name></trkpt>
<trkpt lat="53.373735" lon="-1.882122"><ele>578</ele><time>2021-10-07T13:37:33Z</time><name>PT5081</name></trkpt>
<trkpt lat="53.373722" lon="-1.882127"><ele>578</ele><time>2021-10-07T13:37:34Z</time><name>PT5082</name></trkpt>
<trkpt lat="53.373710" lon="-1.882131"><ele>578</ele><time>2021-10-07T13:37:35Z</time><name>PT5083</name></trkpt>
<trkpt lat="53.373701" lon="-1.882139"><ele>577</ele><time>2021-10-07T13:37:36Z</time><name>PT5084</name></trkpt>
<trkpt lat="53.373690" lon="-1.882150"><ele>576</ele><time>2021-10-07T13:37:37Z</time><name>PT5085</name></trkpt>
<trkpt lat="53.373681" lon="-1.882159"><ele>576</ele><time>2021-10-07T13:37:38Z</time><name>PT5086</name></trkpt>
<trkpt lat="53.373672" lon="-1.882166"><ele>576</ele><time>2021-10-07T13:37:39Z</time><name>PT5087</name></trkpt>
<trkpt lat="53.373661" lon="-1.882166"><ele>576</ele><time>2021-10-07T13:37:40Z</time><name>PT5088</name></trkpt>
<trkpt lat="53.373649" lon="-1.882172"><ele>575</ele><time>2021-10-07T13:37:41Z</time><name>PT5089</name></trkpt>
<trkpt lat="53.373639" lon="-1.882183"><ele>575</ele><time>2021-10-07T13:37:42Z</time><name>PT5090</name></trkpt>
<trkpt lat="53.373628" lon="-1.882192"><ele>575</ele><time>2021-10-07T13:37:43Z</time><name>PT5091</name></trkpt>
<trkpt lat="53.373620" lon="-1.882207"><ele>575</ele><time>2021-10-07T13:37:44Z</time><name>PT5092</name></trkpt>
<trkpt lat="53.373614" lon="-1.882217"><ele>574</ele><time>2021-10-07T13:37:45Z</time><name>PT5093</name></trkpt>
<trkpt lat="53.373602" lon="-1.882222"><ele>574</ele><time>2021-10-07T13:37:46Z</time><name>PT5094</name></trkpt>
<trkpt lat="53.373594" lon="-1.882227"><ele>575</ele><time>2021-10-07T13:37:47Z</time><name>PT5095</name></trkpt>
<trkpt lat="53.373555" lon="-1.882268"><ele>573</ele><time>2021-10-07T13:37:51Z</time><name>PT5096</name></trkpt>
<trkpt lat="53.373517" lon="-1.882307"><ele>573</ele><time>2021-10-07T13:37:55Z</time><name>PT5097</name></trkpt>
<trkpt lat="53.373485" lon="-1.882344"><ele>573</ele><time>2021-10-07T13:37:59Z</time><name>PT5098</name></trkpt>
<trkpt lat="53.373451" lon="-1.882383"><ele>575</ele><time>2021-10-07T13:38:03Z</time><name>PT5099</name></trkpt>
<trkpt lat="53.373416" lon="-1.882434"><ele>574</ele><time>2021-10-07T13:38:07Z</time><name>PT5100</name></trkpt>
<trkpt lat="53.373393" lon="-1.882485"><ele>575</ele><time>2021-10-07T13:38:11Z</time><name>PT5101</name></trkpt>
<trkpt lat="53.373358" lon="-1.882529"><ele>575</ele><time>2021-10-07T13:38:15Z</time><name>PT5102</name></trkpt>
<trkpt lat="53.373315" lon="-1.882566"><ele>576</ele><time>2021-10-07T13:38:19Z</time><name>PT5103</name></trkpt>
<trkpt lat="53.373285" lon="-1.882618"><ele>577</ele><time>2021-10-07T13:38:23Z</time><name>PT5104</name></trkpt>
<trkpt lat="53.373260" lon="-1.882680"><ele>575</ele><time>2021-10-07T13:38:27Z</time><name>PT5105</name></trkpt>
<trkpt lat="53.373235" lon="-1.882748"><ele>575</ele><time>2021-10-07T13:38:31Z</time><name>PT5106</name></trkpt>
<trkpt lat="53.373205" lon="-1.882801"><ele>575</ele><time>2021-10-07T13:38:35Z</time><name>PT5107</name></trkpt>
<trkpt lat="53.373179" lon="-1.882847"><ele>576</ele><time>2021-10-07T13:38:39Z</time><name>PT5108</name></trkpt>
<trkpt lat="53.373146" lon="-1.882892"><ele>576</ele><time>2021-10-07T13:38:43Z</time><name>PT5109</name></trkpt>
<trkpt lat="53.373118" lon="-1.882964"><ele>575</ele><time>2021-10-07T13:38:47Z</time><name>PT5110</name></trkpt>
<trkpt lat="53.373089" lon="-1.883016"><ele>575</ele><time>2021-10-07T13:38:51Z</time><name>PT5111</name></trkpt>
<trkpt lat="53.373062" lon="-1.883078"><ele>576</ele><time>2021-10-07T13:38:55Z</time><name>PT5112</name></trkpt>
<trkpt lat="53.373040" lon="-1.883148"><ele>575</ele><time>2021-10-07T13:38:59Z</time><name>PT5113</name></trkpt>
<trkpt lat="53.373008" lon="-1.883205"><ele>574</ele><time>2021-10-07T13:39:03Z</time><name>PT5114</name></trkpt>
<trkpt lat="53.372983" lon="-1.883289"><ele>574</ele><time>2021-10-07T13:39:07Z</time><name>PT5115</name></trkpt>
<trkpt lat="53.372958" lon="-1.883358"><ele>573</ele><time>2021-10-07T13:39:11Z</time><name>PT5116</name></trkpt>
<trkpt lat="53.372944" lon="-1.883421"><ele>573</ele><time>2021-10-07T13:39:15Z</time><name>PT5117</name></trkpt>
<trkpt lat="53.372918" lon="-1.883483"><ele>574</ele><time>2021-10-07T13:39:19Z</time><name>PT5118</name></trkpt>
<trkpt lat="53.372907" lon="-1.883562"><ele>573</ele><time>2021-10-07T13:39:23Z</time><name>PT5119</name></trkpt>
<trkpt lat="53.372884" lon="-1.883635"><ele>571</ele><time>2021-10-07T13:39:27Z</time><name>PT5120</name></trkpt>
<trkpt lat="53.372868" lon="-1.883705"><ele>571</ele><time>2021-10-07T13:39:31Z</time><name>PT5121</name></trkpt>
<trkpt lat="53.372852" lon="-1.883777"><ele>570</ele><time>2021-10-07T13:39:35Z</time><name>PT5122</name></trkpt>
<trkpt lat="53.372838" lon="-1.883850"><ele>569</ele><time>2021-10-07T13:39:39Z</time><name>PT5123</name></trkpt>
<trkpt lat="53.372821" lon="-1.883929"><ele>568</ele><time>2021-10-07T13:39:43Z</time><name>PT5124</name></trkpt>
<trkpt lat="53.372805" lon="-1.883980"><ele>568</ele><time>2021-10-07T13:39:47Z</time><name>PT5125</name></trkpt>
<trkpt lat="53.372783" lon="-1.884052"><ele>569</ele><time>2021-10-07T13:39:51Z</time><name>PT5126</name></trkpt>
<trkpt lat="53.372765" lon="-1.884126"><ele>568</ele><time>2021-10-07T13:39:55Z</time><name>PT5127</name></trkpt>
<trkpt lat="53.372749" lon="-1.884199"><ele>566</ele><time>2021-10-07T13:39:59Z</time><name>PT5128</name></trkpt>
<trkpt lat="53.372722" lon="-1.884250"><ele>567</ele><time>2021-10-07T13:40:03Z</time><name>PT5129</name></trkpt>
<trkpt lat="53.372700" lon="-1.884306"><ele>568</ele><time>2021-10-07T13:40:07Z</time><name>PT5130</name></trkpt>
<trkpt lat="53.372684" lon="-1.884383"><ele>568</ele><time>2021-10-07T13:40:11Z</time><name>PT5131</name></trkpt>
<trkpt lat="53.372662" lon="-1.884466"><ele>567</ele><time>2021-10-07T13:40:15Z</time><name>PT5132</name></trkpt>
<trkpt lat="53.372641" lon="-1.884554"><ele>567</ele><time>2021-10-07T13:40:19Z</time><name>PT5133</name></trkpt>
<trkpt lat="53.372608" lon="-1.884632"><ele>568</ele><time>2021-10-07T13:40:23Z</time><name>PT5134</name></trkpt>
<trkpt lat="53.372590" lon="-1.884704"><ele>569</ele><time>2021-10-07T13:40:27Z</time><name>PT5135</name></trkpt>
<trkpt lat="53.372574" lon="-1.884774"><ele>568</ele><time>2021-10-07T13:40:31Z</time><name>PT5136</name></trkpt>
<trkpt lat="53.372556" lon="-1.884855"><ele>568</ele><time>2021-10-07T13:40:35Z</time><name>PT5137</name></trkpt>
<trkpt lat="53.372532" lon="-1.884921"><ele>567</ele><time>2021-10-07T13:40:39Z</time><name>PT5138</name></trkpt>
<trkpt lat="53.372532" lon="-1.884995"><ele>565</ele><time>2021-10-07T13:40:43Z</time><name>PT5139</name></trkpt>
<trkpt lat="53.372515" lon="-1.885041"><ele>564</ele><time>2021-10-07T13:40:47Z</time><name>PT5140</name></trkpt>
<trkpt lat="53.372473" lon="-1.885084"><ele>563</ele><time>2021-10-07T13:40:51Z</time><name>PT5141</name></trkpt>
<trkpt lat="53.372437" lon="-1.885117"><ele>563</ele><time>2021-10-07T13:40:55Z</time><name>PT5142</name></trkpt>
<trkpt lat="53.372402" lon="-1.885117"><ele>560</ele><time>2021-10-07T13:40:59Z</time><name>PT5143</name></trkpt>
<trkpt lat="53.372370" lon="-1.885104"><ele>559</ele><time>2021-10-07T13:41:03Z</time><name>PT5144</name></trkpt>
<trkpt lat="53.372328" lon="-1.885119"><ele>558</ele><time>2021-10-07T13:41:07Z</time><name>PT5145</name></trkpt>
<trkpt lat="53.372295" lon="-1.885133"><ele>558</ele><time>2021-10-07T13:41:11Z</time><name>PT5146</name></trkpt>
<trkpt lat="53.372258" lon="-1.885149"><ele>558</ele><time>2021-10-07T13:41:15Z</time><name>PT5147</name></trkpt>
<trkpt lat="53.372209" lon="-1.885153"><ele>557</ele><time>2021-10-07T13:41:19Z</time><name>PT5148</name></trkpt>
<trkpt lat="53.372161" lon="-1.885160"><ele>556</ele><time>2021-10-07T13:41:23Z</time><name>PT5149</name></trkpt>
<trkpt lat="53.372106" lon="-1.885170"><ele>556</ele><time>2021-10-07T13:41:27Z</time><name>PT5150</name></trkpt>
<trkpt lat="53.372062" lon="-1.885185"><ele>555</ele><time>2021-10-07T13:41:31Z</time><name>PT5151</name></trkpt>
<trkpt lat="53.372021" lon="-1.885211"><ele>554</ele><time>2021-10-07T13:41:35Z</time><name>PT5152</name></trkpt>
<trkpt lat="53.371974" lon="-1.885226"><ele>554</ele><time>2021-10-07T13:41:39Z</time><name>PT5153</name></trkpt>
<trkpt lat="53.371936" lon="-1.885240"><ele>555</ele><time>2021-10-07T13:41:43Z</time><name>PT5154</name></trkpt>
<trkpt lat="53.371890" lon="-1.885259"><ele>553</ele><time>2021-10-07T13:41:47Z</time><name>PT5155</name></trkpt>
<trkpt lat="53.371850" lon="-1.885296"><ele>553</ele><time>2021-10-07T13:41:51Z</time><name>PT5156</name></trkpt>
<trkpt lat="53.371820" lon="-1.885316"><ele>553</ele><time>2021-10-07T13:41:55Z</time><name>PT5157</name></trkpt>
<trkpt lat="53.371777" lon="-1.885315"><ele>551</ele><time>2021-10-07T13:41:59Z</time><name>PT5158</name></trkpt>
<trkpt lat="53.371735" lon="-1.885324"><ele>551</ele><time>2021-10-07T13:42:03Z</time><name>PT5159</name></trkpt>
<trkpt lat="53.371699" lon="-1.885312"><ele>550</ele><time>2021-10-07T13:42:07Z</time><name>PT5160</name></trkpt>
<trkpt lat="53.371668" lon="-1.885297"><ele>550</ele><time>2021-10-07T13:42:11Z</time><name>PT5161</name></trkpt>
<trkpt lat="53.371659" lon="-1.885300"><ele>550</ele><time>2021-10-07T13:42:15Z</time><name>PT5162</name></trkpt>
<trkpt lat="53.371658" lon="-1.885303"><ele>550</ele><time>2021-10-07T13:42:19Z</time><name>PT5163</name></trkpt>
<trkpt lat="53.371646" lon="-1.885337"><ele>549</ele><time>2021-10-07T13:42:31Z</time><name>PT5164</name></trkpt>
<trkpt lat="53.371617" lon="-1.885364"><ele>550</ele><time>2021-10-07T13:42:35Z</time><name>PT5165</name></trkpt>
<trkpt lat="53.371604" lon="-1.885402"><ele>549</ele><time>2021-10-07T13:42:39Z</time><name>PT5166</name></trkpt>
<trkpt lat="53.371616" lon="-1.885424"><ele>549</ele><time>2021-10-07T13:42:43Z</time><name>PT5167</name></trkpt>
<trkpt lat="53.371632" lon="-1.885425"><ele>549</ele><time>2021-10-07T13:42:47Z</time><name>PT5168</name></trkpt>
<trkpt lat="53.371638" lon="-1.885421"><ele>550</ele><time>2021-10-07T13:42:51Z</time><name>PT5169</name></trkpt>
<trkpt lat="53.371647" lon="-1.885410"><ele>550</ele><time>2021-10-07T13:42:55Z</time><name>PT5170</name></trkpt>
<trkpt lat="53.371656" lon="-1.885396"><ele>550</ele><time>2021-10-07T13:42:59Z</time><name>PT5171</name></trkpt>
<trkpt lat="53.371654" lon="-1.885399"><ele>550</ele><time>2021-10-07T13:43:11Z</time><name>PT5172</name></trkpt>
<trkpt lat="53.371653" lon="-1.885402"><ele>550</ele><time>2021-10-07T13:43:15Z</time><name>PT5173</name></trkpt>
<trkpt lat="53.371650" lon="-1.885420"><ele>549</ele><time>2021-10-07T13:43:27Z</time><name>PT5174</name></trkpt>
<trkpt lat="53.371650" lon="-1.885420"><ele>548</ele><time>2021-10-07T13:43:31Z</time><name>PT5175</name></trkpt>
<trkpt lat="53.371644" lon="-1.885431"><ele>548</ele><time>2021-10-07T13:43:47Z</time><name>PT5176</name></trkpt>
<trkpt lat="53.371623" lon="-1.885446"><ele>547</ele><time>2021-10-07T13:43:51Z</time><name>PT5177</name></trkpt>
<trkpt lat="53.371620" lon="-1.885451"><ele>547</ele><time>2021-10-07T13:43:55Z</time><name>PT5178</name></trkpt>
<trkpt lat="53.371621" lon="-1.885447"><ele>547</ele><time>2021-10-07T13:44:31Z</time><name>PT5179</name></trkpt>
<trkpt lat="53.371621" lon="-1.885448"><ele>547</ele><time>2021-10-07T13:44:35Z</time><name>PT5180</name></trkpt>
<trkpt lat="53.371619" lon="-1.885447"><ele>546</ele><time>2021-10-07T13:44:55Z</time><name>PT5181</name></trkpt>
<trkpt lat="53.371618" lon="-1.885449"><ele>546</ele><time>2021-10-07T13:44:59Z</time><name>PT5182</name></trkpt>
<trkpt lat="53.371631" lon="-1.885493"><ele>546</ele><time>2021-10-07T13:45:11Z</time><name>PT5183</name></trkpt>
<trkpt lat="53.371645" lon="-1.885549"><ele>546</ele><time>2021-10-07T13:45:15Z</time><name>PT5184</name></trkpt>
<trkpt lat="53.371656" lon="-1.885611"><ele>545</ele><time>2021-10-07T13:45:19Z</time><name>PT5185</name></trkpt>
<trkpt lat="53.371667" lon="-1.885664"><ele>545</ele><time>2021-10-07T13:45:23Z</time><name>PT5186</name></trkpt>
<trkpt lat="53.371676" lon="-1.885727"><ele>545</ele><time>2021-10-07T13:45:27Z</time><name>PT5187</name></trkpt>
<trkpt lat="53.371679" lon="-1.885765"><ele>547</ele><time>2021-10-07T13:45:31Z</time><name>PT5188</name></trkpt>
<trkpt lat="53.371691" lon="-1.885827"><ele>546</ele><time>2021-10-07T13:45:35Z</time><name>PT5189</name></trkpt>
<trkpt lat="53.371702" lon="-1.885898"><ele>544</ele><time>2021-10-07T13:45:39Z</time><name>PT5190</name></trkpt>
<trkpt lat="53.371717" lon="-1.885966"><ele>544</ele><time>2021-10-07T13:45:43Z</time><name>PT5191</name></trkpt>
<trkpt lat="53.371721" lon="-1.886027"><ele>542</ele><time>2021-10-07T13:45:47Z</time><name>PT5192</name></trkpt>
<trkpt lat="53.371736" lon="-1.886096"><ele>544</ele><time>2021-10-07T13:45:51Z</time><name>PT5193</name></trkpt>
<trkpt lat="53.371739" lon="-1.886164"><ele>543</ele><time>2021-10-07T13:45:55Z</time><name>PT5194</name></trkpt>
<trkpt lat="53.371748" lon="-1.886240"><ele>543</ele><time>2021-10-07T13:45:59Z</time><name>PT5195</name></trkpt>
<trkpt lat="53.371754" lon="-1.886302"><ele>542</ele><time>2021-10-07T13:46:03Z</time><name>PT5196</name></trkpt>
<trkpt lat="53.371772" lon="-1.886353"><ele>540</ele><time>2021-10-07T13:46:07Z</time><name>PT5197</name></trkpt>
<trkpt lat="53.371780" lon="-1.886424"><ele>538</ele><time>2021-10-07T13:46:11Z</time><name>PT5198</name></trkpt>
<trkpt lat="53.371793" lon="-1.886507"><ele>538</ele><time>2021-10-07T13:46:15Z</time><name>PT5199</name></trkpt>
<trkpt lat="53.371806" lon="-1.886593"><ele>538</ele><time>2021-10-07T13:46:19Z</time><name>PT5200</name></trkpt>
<trkpt lat="53.371812" lon="-1.886666"><ele>538</ele><time>2021-10-07T13:46:23Z</time><name>PT5201</name></trkpt>
<trkpt lat="53.371807" lon="-1.886738"><ele>536</ele><time>2021-10-07T13:46:27Z</time><name>PT5202</name></trkpt>
<trkpt lat="53.371815" lon="-1.886824"><ele>537</ele><time>2021-10-07T13:46:31Z</time><name>PT5203</name></trkpt>
<trkpt lat="53.371823" lon="-1.886901"><ele>536</ele><time>2021-10-07T13:46:35Z</time><name>PT5204</name></trkpt>
<trkpt lat="53.371832" lon="-1.886964"><ele>536</ele><time>2021-10-07T13:46:39Z</time><name>PT5205</name></trkpt>
<trkpt lat="53.371842" lon="-1.887051"><ele>536</ele><time>2021-10-07T13:46:43Z</time><name>PT5206</name></trkpt>
<trkpt lat="53.371866" lon="-1.887119"><ele>535</ele><time>2021-10-07T13:46:47Z</time><name>PT5207</name></trkpt>
<trkpt lat="53.371897" lon="-1.887191"><ele>534</ele><time>2021-10-07T13:46:51Z</time><name>PT5208</name></trkpt>
<trkpt lat="53.371924" lon="-1.887257"><ele>534</ele><time>2021-10-07T13:46:55Z</time><name>PT5209</name></trkpt>
<trkpt lat="53.371952" lon="-1.887313"><ele>533</ele><time>2021-10-07T13:46:59Z</time><name>PT5210</name></trkpt>
<trkpt lat="53.371977" lon="-1.887387"><ele>533</ele><time>2021-10-07T13:47:03Z</time><name>PT5211</name></trkpt>
<trkpt lat="53.371995" lon="-1.887451"><ele>530</ele><time>2021-10-07T13:47:07Z</time><name>PT5212</name></trkpt>
<trkpt lat="53.372023" lon="-1.887515"><ele>529</ele><time>2021-10-07T13:47:11Z</time><name>PT5213</name></trkpt>
<trkpt lat="53.372048" lon="-1.887572"><ele>527</ele><time>2021-10-07T13:47:15Z</time><name>PT5214</name></trkpt>
<trkpt lat="53.372072" lon="-1.887640"><ele>526</ele><time>2021-10-07T13:47:19Z</time><name>PT5215</name></trkpt>
<trkpt lat="53.372095" lon="-1.887708"><ele>524</ele><time>2021-10-07T13:47:23Z</time><name>PT5216</name></trkpt>
<trkpt lat="53.372115" lon="-1.887760"><ele>524</ele><time>2021-10-07T13:47:27Z</time><name>PT5217</name></trkpt>
<trkpt lat="53.372137" lon="-1.887815"><ele>521</ele><time>2021-10-07T13:47:31Z</time><name>PT5218</name></trkpt>
<trkpt lat="53.372161" lon="-1.887871"><ele>521</ele><time>2021-10-07T13:47:35Z</time><name>PT5219</name></trkpt>
<trkpt lat="53.372194" lon="-1.887936"><ele>520</ele><time>2021-10-07T13:47:39Z</time><name>PT5220</name></trkpt>
<trkpt lat="53.372226" lon="-1.888013"><ele>520</ele><time>2021-10-07T13:47:43Z</time><name>PT5221</name></trkpt>
<trkpt lat="53.372254" lon="-1.888069"><ele>519</ele><time>2021-10-07T13:47:47Z</time><name>PT5222</name></trkpt>
<trkpt lat="53.372283" lon="-1.888121"><ele>517</ele><time>2021-10-07T13:47:51Z</time><name>PT5223</name></trkpt>
<trkpt lat="53.372311" lon="-1.888166"><ele>516</ele><time>2021-10-07T13:47:55Z</time><name>PT5224</name></trkpt>
<trkpt lat="53.372334" lon="-1.888205"><ele>514</ele><time>2021-10-07T13:47:59Z</time><name>PT5225</name></trkpt>
<trkpt lat="53.372373" lon="-1.888254"><ele>514</ele><time>2021-10-07T13:48:03Z</time><name>PT5226</name></trkpt>
<trkpt lat="53.372404" lon="-1.888287"><ele>514</ele><time>2021-10-07T13:48:07Z</time><name>PT5227</name></trkpt>
<trkpt lat="53.372427" lon="-1.888351"><ele>513</ele><time>2021-10-07T13:48:11Z</time><name>PT5228</name></trkpt>
<trkpt lat="53.372434" lon="-1.888424"><ele>513</ele><time>2021-10-07T13:48:15Z</time><name>PT5229</name></trkpt>
<trkpt lat="53.372438" lon="-1.888505"><ele>513</ele><time>2021-10-07T13:48:19Z</time><name>PT5230</name></trkpt>
<trkpt lat="53.372439" lon="-1.888574"><ele>513</ele><time>2021-10-07T13:48:23Z</time><name>PT5231</name></trkpt>
<trkpt lat="53.372433" lon="-1.888656"><ele>513</ele><time>2021-10-07T13:48:27Z</time><name>PT5232</name></trkpt>
<trkpt lat="53.372448" lon="-1.888741"><ele>514</ele><time>2021-10-07T13:48:31Z</time><name>PT5233</name></trkpt>
<trkpt lat="53.372469" lon="-1.888823"><ele>515</ele><time>2021-10-07T13:48:35Z</time><name>PT5234</name></trkpt>
<trkpt lat="53.372481" lon="-1.888893"><ele>515</ele><time>2021-10-07T13:48:39Z</time><name>PT5235</name></trkpt>
<trkpt lat="53.372497" lon="-1.888950"><ele>516</ele><time>2021-10-07T13:48:43Z</time><name>PT5236</name></trkpt>
<trkpt lat="53.372509" lon="-1.889020"><ele>517</ele><time>2021-10-07T13:48:47Z</time><name>PT5237</name></trkpt>
<trkpt lat="53.372516" lon="-1.889127"><ele>516</ele><time>2021-10-07T13:48:51Z</time><name>PT5238</name></trkpt>
<trkpt lat="53.372521" lon="-1.889200"><ele>516</ele><time>2021-10-07T13:48:55Z</time><name>PT5239</name></trkpt>
<trkpt lat="53.372539" lon="-1.889285"><ele>514</ele><time>2021-10-07T13:48:59Z</time><name>PT5240</name></trkpt>
<trkpt lat="53.372552" lon="-1.889362"><ele>514</ele><time>2021-10-07T13:49:03Z</time><name>PT5241</name></trkpt>
<trkpt lat="53.372571" lon="-1.889436"><ele>513</ele><time>2021-10-07T13:49:07Z</time><name>PT5242</name></trkpt>
<trkpt lat="53.372574" lon="-1.889507"><ele>513</ele><time>2021-10-07T13:49:11Z</time><name>PT5243</name></trkpt>
<trkpt lat="53.372578" lon="-1.889572"><ele>512</ele><time>2021-10-07T13:49:15Z</time><name>PT5244</name></trkpt>
<trkpt lat="53.372580" lon="-1.889633"><ele>512</ele><time>2021-10-07T13:49:19Z</time><name>PT5245</name></trkpt>
<trkpt lat="53.372580" lon="-1.889685"><ele>511</ele><time>2021-10-07T13:49:23Z</time><name>PT5246</name></trkpt>
<trkpt lat="53.372591" lon="-1.889757"><ele>512</ele><time>2021-10-07T13:49:27Z</time><name>PT5247</name></trkpt>
<trkpt lat="53.372607" lon="-1.889821"><ele>510</ele><time>2021-10-07T13:49:31Z</time><name>PT5248</name></trkpt>
<trkpt lat="53.372620" lon="-1.889903"><ele>509</ele><time>2021-10-07T13:49:35Z</time><name>PT5249</name></trkpt>
<trkpt lat="53.372620" lon="-1.889965"><ele>508</ele><time>2021-10-07T13:49:39Z</time><name>PT5250</name></trkpt>
<trkpt lat="53.372617" lon="-1.890050"><ele>506</ele><time>2021-10-07T13:49:43Z</time><name>PT5251</name></trkpt>
<trkpt lat="53.372623" lon="-1.890123"><ele>506</ele><time>2021-10-07T13:49:47Z</time><name>PT5252</name></trkpt>
<trkpt lat="53.372640" lon="-1.890190"><ele>505</ele><time>2021-10-07T13:49:51Z</time><name>PT5253</name></trkpt>
<trkpt lat="53.372667" lon="-1.890244"><ele>502</ele><time>2021-10-07T13:49:55Z</time><name>PT5254</name></trkpt>
<trkpt lat="53.372680" lon="-1.890307"><ele>502</ele><time>2021-10-07T13:49:59Z</time><name>PT5255</name></trkpt>
<trkpt lat="53.372694" lon="-1.890376"><ele>501</ele><time>2021-10-07T13:50:03Z</time><name>PT5256</name></trkpt>
<trkpt lat="53.372721" lon="-1.890444"><ele>501</ele><time>2021-10-07T13:50:07Z</time><name>PT5257</name></trkpt>
<trkpt lat="53.372751" lon="-1.890503"><ele>501</ele><time>2021-10-07T13:50:11Z</time><name>PT5258</name></trkpt>
<trkpt lat="53.372776" lon="-1.890579"><ele>499</ele><time>2021-10-07T13:50:15Z</time><name>PT5259</name></trkpt>
<trkpt lat="53.372797" lon="-1.890625"><ele>498</ele><time>2021-10-07T13:50:19Z</time><name>PT5260</name></trkpt>
<trkpt lat="53.372821" lon="-1.890682"><ele>498</ele><time>2021-10-07T13:50:23Z</time><name>PT5261</name></trkpt>
<trkpt lat="53.372830" lon="-1.890758"><ele>498</ele><time>2021-10-07T13:50:27Z</time><name>PT5262</name></trkpt>
<trkpt lat="53.372860" lon="-1.890805"><ele>496</ele><time>2021-10-07T13:50:31Z</time><name>PT5263</name></trkpt>
<trkpt lat="53.372883" lon="-1.890861"><ele>494</ele><time>2021-10-07T13:50:35Z</time><name>PT5264</name></trkpt>
<trkpt lat="53.372899" lon="-1.890924"><ele>493</ele><time>2021-10-07T13:50:39Z</time><name>PT5265</name></trkpt>
<trkpt lat="53.372914" lon="-1.891005"><ele>492</ele><time>2021-10-07T13:50:43Z</time><name>PT5266</name></trkpt>
<trkpt lat="53.372930" lon="-1.891087"><ele>490</ele><time>2021-10-07T13:50:47Z</time><name>PT5267</name></trkpt>
<trkpt lat="53.372930" lon="-1.891165"><ele>488</ele><time>2021-10-07T13:50:51Z</time><name>PT5268</name></trkpt>
<trkpt lat="53.372947" lon="-1.891220"><ele>489</ele><time>2021-10-07T13:50:55Z</time><name>PT5269</name></trkpt>
<trkpt lat="53.372974" lon="-1.891284"><ele>488</ele><time>2021-10-07T13:50:59Z</time><name>PT5270</name></trkpt>
<trkpt lat="53.372989" lon="-1.891358"><ele>488</ele><time>2021-10-07T13:51:03Z</time><name>PT5271</name></trkpt>
<trkpt lat="53.373007" lon="-1.891426"><ele>488</ele><time>2021-10-07T13:51:07Z</time><name>PT5272</name></trkpt>
<trkpt lat="53.373021" lon="-1.891496"><ele>488</ele><time>2021-10-07T13:51:11Z</time><name>PT5273</name></trkpt>
<trkpt lat="53.373023" lon="-1.891556"><ele>487</ele><time>2021-10-07T13:51:15Z</time><name>PT5274</name></trkpt>
<trkpt lat="53.373024" lon="-1.891637"><ele>486</ele><time>2021-10-07T13:51:19Z</time><name>PT5275</name></trkpt>
<trkpt lat="53.373032" lon="-1.891706"><ele>485</ele><time>2021-10-07T13:51:23Z</time><name>PT5276</name></trkpt>
<trkpt lat="53.373031" lon="-1.891781"><ele>484</ele><time>2021-10-07T13:51:27Z</time><name>PT5277</name></trkpt>
<trkpt lat="53.373028" lon="-1.891847"><ele>483</ele><time>2021-10-07T13:51:31Z</time><name>PT5278</name></trkpt>
<trkpt lat="53.373023" lon="-1.891924"><ele>481</ele><time>2021-10-07T13:51:35Z</time><name>PT5279</name></trkpt>
<trkpt lat="53.373006" lon="-1.891991"><ele>481</ele><time>2021-10-07T13:51:39Z</time><name>PT5280</name></trkpt>
<trkpt lat="53.372992" lon="-1.892084"><ele>479</ele><time>2021-10-07T13:51:43Z</time><name>PT5281</name></trkpt>
<trkpt lat="53.372982" lon="-1.892154"><ele>477</ele><time>2021-10-07T13:51:47Z</time><name>PT5282</name></trkpt>
<trkpt lat="53.372990" lon="-1.892215"><ele>475</ele><time>2021-10-07T13:51:51Z</time><name>PT5283</name></trkpt>
<trkpt lat="53.373010" lon="-1.892259"><ele>474</ele><time>2021-10-07T13:51:55Z</time><name>PT5284</name></trkpt>
<trkpt lat="53.373020" lon="-1.892325"><ele>475</ele><time>2021-10-07T13:51:59Z</time><name>PT5285</name></trkpt>
<trkpt lat="53.373017" lon="-1.892388"><ele>473</ele><time>2021-10-07T13:52:03Z</time><name>PT5286</name></trkpt>
<trkpt lat="53.372993" lon="-1.892436"><ele>472</ele><time>2021-10-07T13:52:07Z</time><name>PT5287</name></trkpt>
<trkpt lat="53.372987" lon="-1.892508"><ele>471</ele><time>2021-10-07T13:52:11Z</time><name>PT5288</name></trkpt>
<trkpt lat="53.372952" lon="-1.892571"><ele>471</ele><time>2021-10-07T13:52:15Z</time><name>PT5289</name></trkpt>
<trkpt lat="53.372920" lon="-1.892614"><ele>471</ele><time>2021-10-07T13:52:19Z</time><name>PT5290</name></trkpt>
<trkpt lat="53.372886" lon="-1.892682"><ele>469</ele><time>2021-10-07T13:52:23Z</time><name>PT5291</name></trkpt>
<trkpt lat="53.372869" lon="-1.892753"><ele>471</ele><time>2021-10-07T13:52:27Z</time><name>PT5292</name></trkpt>
<trkpt lat="53.372865" lon="-1.892827"><ele>470</ele><time>2021-10-07T13:52:31Z</time><name>PT5293</name></trkpt>
<trkpt lat="53.372855" lon="-1.892873"><ele>472</ele><time>2021-10-07T13:52:35Z</time><name>PT5294</name></trkpt>
<trkpt lat="53.372856" lon="-1.892879"><ele>471</ele><time>2021-10-07T13:52:37Z</time><name>PT5295</name></trkpt>
<trkpt lat="53.372854" lon="-1.892883"><ele>471</ele><time>2021-10-07T13:52:38Z</time><name>PT5296</name></trkpt>
<trkpt lat="53.372854" lon="-1.892883"><ele>471</ele><time>2021-10-07T13:52:39Z</time><name>PT5297</name></trkpt>
<trkpt lat="53.372852" lon="-1.892883"><ele>471</ele><time>2021-10-07T13:52:40Z</time><name>PT5298</name></trkpt>
<trkpt lat="53.372850" lon="-1.892886"><ele>471</ele><time>2021-10-07T13:52:41Z</time><name>PT5299</name></trkpt>
<trkpt lat="53.372851" lon="-1.892892"><ele>471</ele><time>2021-10-07T13:52:42Z</time><name>PT5300</name></trkpt>
<trkpt lat="53.372849" lon="-1.892894"><ele>471</ele><time>2021-10-07T13:52:43Z</time><name>PT5301</name></trkpt>
<trkpt lat="53.372846" lon="-1.892894"><ele>472</ele><time>2021-10-07T13:52:44Z</time><name>PT5302</name></trkpt>
<trkpt lat="53.372844" lon="-1.892901"><ele>472</ele><time>2021-10-07T13:52:45Z</time><name>PT5303</name></trkpt>
<trkpt lat="53.372845" lon="-1.892906"><ele>472</ele><time>2021-10-07T13:52:46Z</time><name>PT5304</name></trkpt>
<trkpt lat="53.372847" lon="-1.892907"><ele>472</ele><time>2021-10-07T13:52:47Z</time><name>PT5305</name></trkpt>
<trkpt lat="53.372847" lon="-1.892909"><ele>471</ele><time>2021-10-07T13:52:48Z</time><name>PT5306</name></trkpt>
<trkpt lat="53.372848" lon="-1.892916"><ele>471</ele><time>2021-10-07T13:52:49Z</time><name>PT5307</name></trkpt>
<trkpt lat="53.372849" lon="-1.892919"><ele>471</ele><time>2021-10-07T13:52:50Z</time><name>PT5308</name></trkpt>
<trkpt lat="53.372849" lon="-1.892920"><ele>470</ele><time>2021-10-07T13:52:51Z</time><name>PT5309</name></trkpt>
<trkpt lat="53.372848" lon="-1.892922"><ele>470</ele><time>2021-10-07T13:52:52Z</time><name>PT5310</name></trkpt>
<trkpt lat="53.372846" lon="-1.892918"><ele>470</ele><time>2021-10-07T13:53:12Z</time><name>PT5311</name></trkpt>
<trkpt lat="53.372846" lon="-1.892918"><ele>470</ele><time>2021-10-07T13:53:13Z</time><name>PT5312</name></trkpt>
<trkpt lat="53.372845" lon="-1.892922"><ele>470</ele><time>2021-10-07T13:53:14Z</time><name>PT5313</name></trkpt>
<trkpt lat="53.372845" lon="-1.892923"><ele>470</ele><time>2021-10-07T13:53:15Z</time><name>PT5314</name></trkpt>
<trkpt lat="53.372844" lon="-1.892925"><ele>470</ele><time>2021-10-07T13:53:16Z</time><name>PT5315</name></trkpt>
<trkpt lat="53.372838" lon="-1.892935"><ele>470</ele><time>2021-10-07T13:53:23Z</time><name>PT5316</name></trkpt>
<trkpt lat="53.372835" lon="-1.892935"><ele>470</ele><time>2021-10-07T13:53:24Z</time><name>PT5317</name></trkpt>
<trkpt lat="53.372834" lon="-1.892940"><ele>469</ele><time>2021-10-07T13:53:25Z</time><name>PT5318</name></trkpt>
<trkpt lat="53.372834" lon="-1.892942"><ele>469</ele><time>2021-10-07T13:53:26Z</time><name>PT5319</name></trkpt>
<trkpt lat="53.372835" lon="-1.892941"><ele>469</ele><time>2021-10-07T13:53:27Z</time><name>PT5320</name></trkpt>
<trkpt lat="53.372834" lon="-1.892940"><ele>469</ele><time>2021-10-07T13:53:28Z</time><name>PT5321</name></trkpt>
<trkpt lat="53.372833" lon="-1.892940"><ele>469</ele><time>2021-10-07T13:53:29Z</time><name>PT5322</name></trkpt>
<trkpt lat="53.372832" lon="-1.892938"><ele>469</ele><time>2021-10-07T13:54:32Z</time><name>PT5323</name></trkpt>
<trkpt lat="53.372827" lon="-1.892937"><ele>470</ele><time>2021-10-07T13:54:33Z</time><name>PT5324</name></trkpt>
<trkpt lat="53.372829" lon="-1.892934"><ele>469</ele><time>2021-10-07T13:54:39Z</time><name>PT5325</name></trkpt>
<trkpt lat="53.372833" lon="-1.892941"><ele>470</ele><time>2021-10-07T13:54:43Z</time><name>PT5326</name></trkpt>
<trkpt lat="53.372825" lon="-1.892926"><ele>469</ele><time>2021-10-07T13:55:51Z</time><name>PT5327</name></trkpt>
<trkpt lat="53.372825" lon="-1.892917"><ele>470</ele><time>2021-10-07T13:55:55Z</time><name>PT5328</name></trkpt>
<trkpt lat="53.372822" lon="-1.892912"><ele>470</ele><time>2021-10-07T13:55:59Z</time><name>PT5329</name></trkpt>
<trkpt lat="53.372817" lon="-1.892908"><ele>470</ele><time>2021-10-07T13:56:43Z</time><name>PT5330</name></trkpt>
<trkpt lat="53.372792" lon="-1.892929"><ele>471</ele><time>2021-10-07T13:56:47Z</time><name>PT5331</name></trkpt>
<trkpt lat="53.372773" lon="-1.892963"><ele>471</ele><time>2021-10-07T13:56:51Z</time><name>PT5332</name></trkpt>
<trkpt lat="53.372759" lon="-1.893008"><ele>471</ele><time>2021-10-07T13:56:55Z</time><name>PT5333</name></trkpt>
<trkpt lat="53.372748" lon="-1.893061"><ele>469</ele><time>2021-10-07T13:56:59Z</time><name>PT5334</name></trkpt>
<trkpt lat="53.372740" lon="-1.893114"><ele>467</ele><time>2021-10-07T13:57:03Z</time><name>PT5335</name></trkpt>
<trkpt lat="53.372724" lon="-1.893156"><ele>466</ele><time>2021-10-07T13:57:07Z</time><name>PT5336</name></trkpt>
<trkpt lat="53.372724" lon="-1.893198"><ele>466</ele><time>2021-10-07T13:57:11Z</time><name>PT5337</name></trkpt>
<trkpt lat="53.372719" lon="-1.893254"><ele>466</ele><time>2021-10-07T13:57:15Z</time><name>PT5338</name></trkpt>
<trkpt lat="53.372715" lon="-1.893313"><ele>465</ele><time>2021-10-07T13:57:19Z</time><name>PT5339</name></trkpt>
<trkpt lat="53.372716" lon="-1.893384"><ele>463</ele><time>2021-10-07T13:57:23Z</time><name>PT5340</name></trkpt>
<trkpt lat="53.372716" lon="-1.893459"><ele>461</ele><time>2021-10-07T13:57:27Z</time><name>PT5341</name></trkpt>
<trkpt lat="53.372711" lon="-1.893544"><ele>461</ele><time>2021-10-07T13:57:31Z</time><name>PT5342</name></trkpt>
<trkpt lat="53.372707" lon="-1.893611"><ele>460</ele><time>2021-10-07T13:57:35Z</time><name>PT5343</name></trkpt>
<trkpt lat="53.372703" lon="-1.893687"><ele>460</ele><time>2021-10-07T13:57:39Z</time><name>PT5344</name></trkpt>
<trkpt lat="53.372695" lon="-1.893741"><ele>459</ele><time>2021-10-07T13:57:43Z</time><name>PT5345</name></trkpt>
<trkpt lat="53.372690" lon="-1.893768"><ele>459</ele><time>2021-10-07T13:57:47Z</time><name>PT5346</name></trkpt>
<trkpt lat="53.372682" lon="-1.893817"><ele>460</ele><time>2021-10-07T13:57:51Z</time><name>PT5347</name></trkpt>
<trkpt lat="53.372668" lon="-1.893860"><ele>463</ele><time>2021-10-07T13:57:55Z</time><name>PT5348</name></trkpt>
<trkpt lat="53.372654" lon="-1.893931"><ele>464</ele><time>2021-10-07T13:57:59Z</time><name>PT5349</name></trkpt>
<trkpt lat="53.372645" lon="-1.893989"><ele>464</ele><time>2021-10-07T13:58:03Z</time><name>PT5350</name></trkpt>
<trkpt lat="53.372622" lon="-1.894053"><ele>463</ele><time>2021-10-07T13:58:07Z</time><name>PT5351</name></trkpt>
<trkpt lat="53.372614" lon="-1.894113"><ele>463</ele><time>2021-10-07T13:58:11Z</time><name>PT5352</name></trkpt>
<trkpt lat="53.372607" lon="-1.894176"><ele>462</ele><time>2021-10-07T13:58:15Z</time><name>PT5353</name></trkpt>
<trkpt lat="53.372599" lon="-1.894234"><ele>461</ele><time>2021-10-07T13:58:19Z</time><name>PT5354</name></trkpt>
<trkpt lat="53.372597" lon="-1.894292"><ele>459</ele><time>2021-10-07T13:58:23Z</time><name>PT5355</name></trkpt>
<trkpt lat="53.372589" lon="-1.894360"><ele>458</ele><time>2021-10-07T13:58:27Z</time><name>PT5356</name></trkpt>
<trkpt lat="53.372582" lon="-1.894433"><ele>457</ele><time>2021-10-07T13:58:31Z</time><name>PT5357</name></trkpt>
<trkpt lat="53.372570" lon="-1.894485"><ele>457</ele><time>2021-10-07T13:58:35Z</time><name>PT5358</name></trkpt>
<trkpt lat="53.372553" lon="-1.894551"><ele>456</ele><time>2021-10-07T13:58:39Z</time><name>PT5359</name></trkpt>
<trkpt lat="53.372544" lon="-1.894621"><ele>455</ele><time>2021-10-07T13:58:43Z</time><name>PT5360</name></trkpt>
<trkpt lat="53.372532" lon="-1.894699"><ele>453</ele><time>2021-10-07T13:58:47Z</time><name>PT5361</name></trkpt>
<trkpt lat="53.372514" lon="-1.894774"><ele>453</ele><time>2021-10-07T13:58:51Z</time><name>PT5362</name></trkpt>
<trkpt lat="53.372496" lon="-1.894871"><ele>451</ele><time>2021-10-07T13:58:55Z</time><name>PT5363</name></trkpt>
<trkpt lat="53.372481" lon="-1.894937"><ele>451</ele><time>2021-10-07T13:58:59Z</time><name>PT5364</name></trkpt>
<trkpt lat="53.372455" lon="-1.895033"><ele>452</ele><time>2021-10-07T13:59:03Z</time><name>PT5365</name></trkpt>
<trkpt lat="53.372432" lon="-1.895116"><ele>451</ele><time>2021-10-07T13:59:07Z</time><name>PT5366</name></trkpt>
<trkpt lat="53.372417" lon="-1.895198"><ele>452</ele><time>2021-10-07T13:59:11Z</time><name>PT5367</name></trkpt>
<trkpt lat="53.372396" lon="-1.895265"><ele>451</ele><time>2021-10-07T13:59:15Z</time><name>PT5368</name></trkpt>
<trkpt lat="53.372372" lon="-1.895345"><ele>451</ele><time>2021-10-07T13:59:19Z</time><name>PT5369</name></trkpt>
<trkpt lat="53.372346" lon="-1.895411"><ele>450</ele><time>2021-10-07T13:59:23Z</time><name>PT5370</name></trkpt>
<trkpt lat="53.372326" lon="-1.895495"><ele>450</ele><time>2021-10-07T13:59:27Z</time><name>PT5371</name></trkpt>
<trkpt lat="53.372298" lon="-1.895578"><ele>449</ele><time>2021-10-07T13:59:31Z</time><name>PT5372</name></trkpt>
<trkpt lat="53.372274" lon="-1.895669"><ele>448</ele><time>2021-10-07T13:59:35Z</time><name>PT5373</name></trkpt>
<trkpt lat="53.372243" lon="-1.895739"><ele>447</ele><time>2021-10-07T13:59:39Z</time><name>PT5374</name></trkpt>
<trkpt lat="53.372222" lon="-1.895808"><ele>446</ele><time>2021-10-07T13:59:43Z</time><name>PT5375</name></trkpt>
<trkpt lat="53.372181" lon="-1.895876"><ele>446</ele><time>2021-10-07T13:59:47Z</time><name>PT5376</name></trkpt>
<trkpt lat="53.372151" lon="-1.895954"><ele>447</ele><time>2021-10-07T13:59:51Z</time><name>PT5377</name></trkpt>
<trkpt lat="53.372122" lon="-1.896022"><ele>447</ele><time>2021-10-07T13:59:55Z</time><name>PT5378</name></trkpt>
<trkpt lat="53.372095" lon="-1.896103"><ele>447</ele><time>2021-10-07T13:59:59Z</time><name>PT5379</name></trkpt>
<trkpt lat="53.372075" lon="-1.896171"><ele>447</ele><time>2021-10-07T14:00:03Z</time><name>PT5380</name></trkpt>
<trkpt lat="53.372044" lon="-1.896253"><ele>446</ele><time>2021-10-07T14:00:07Z</time><name>PT5381</name></trkpt>
<trkpt lat="53.372018" lon="-1.896335"><ele>445</ele><time>2021-10-07T14:00:11Z</time><name>PT5382</name></trkpt>
<trkpt lat="53.371998" lon="-1.896409"><ele>444</ele><time>2021-10-07T14:00:15Z</time><name>PT5383</name></trkpt>
<trkpt lat="53.371970" lon="-1.896477"><ele>443</ele><time>2021-10-07T14:00:19Z</time><name>PT5384</name></trkpt>
<trkpt lat="53.371939" lon="-1.896567"><ele>443</ele><time>2021-10-07T14:00:23Z</time><name>PT5385</name></trkpt>
<trkpt lat="53.371911" lon="-1.896651"><ele>442</ele><time>2021-10-07T14:00:27Z</time><name>PT5386</name></trkpt>
<trkpt lat="53.371899" lon="-1.896723"><ele>440</ele><time>2021-10-07T14:00:31Z</time><name>PT5387</name></trkpt>
<trkpt lat="53.371870" lon="-1.896818"><ele>440</ele><time>2021-10-07T14:00:35Z</time><name>PT5388</name></trkpt>
<trkpt lat="53.371840" lon="-1.896891"><ele>440</ele><time>2021-10-07T14:00:39Z</time><name>PT5389</name></trkpt>
<trkpt lat="53.371818" lon="-1.897000"><ele>440</ele><time>2021-10-07T14:00:43Z</time><name>PT5390</name></trkpt>
<trkpt lat="53.371785" lon="-1.897080"><ele>439</ele><time>2021-10-07T14:00:47Z</time><name>PT5391</name></trkpt>
<trkpt lat="53.371763" lon="-1.897166"><ele>439</ele><time>2021-10-07T14:00:51Z</time><name>PT5392</name></trkpt>
<trkpt lat="53.371744" lon="-1.897249"><ele>439</ele><time>2021-10-07T14:00:55Z</time><name>PT5393</name></trkpt>
<trkpt lat="53.371716" lon="-1.897326"><ele>438</ele><time>2021-10-07T14:00:59Z</time><name>PT5394</name></trkpt>
<trkpt lat="53.371693" lon="-1.897397"><ele>438</ele><time>2021-10-07T14:01:03Z</time><name>PT5395</name></trkpt>
<trkpt lat="53.371682" lon="-1.897476"><ele>437</ele><time>2021-10-07T14:01:07Z</time><name>PT5396</name></trkpt>
<trkpt lat="53.371657" lon="-1.897560"><ele>438</ele><time>2021-10-07T14:01:11Z</time><name>PT5397</name></trkpt>
<trkpt lat="53.371624" lon="-1.897635"><ele>438</ele><time>2021-10-07T14:01:15Z</time><name>PT5398</name></trkpt>
<trkpt lat="53.371618" lon="-1.897716"><ele>437</ele><time>2021-10-07T14:01:19Z</time><name>PT5399</name></trkpt>
<trkpt lat="53.371581" lon="-1.897791"><ele>439</ele><time>2021-10-07T14:01:23Z</time><name>PT5400</name></trkpt>
<trkpt lat="53.371562" lon="-1.897866"><ele>439</ele><time>2021-10-07T14:01:27Z</time><name>PT5401</name></trkpt>
<trkpt lat="53.371544" lon="-1.897942"><ele>438</ele><time>2021-10-07T14:01:31Z</time><name>PT5402</name></trkpt>
<trkpt lat="53.371521" lon="-1.898024"><ele>438</ele><time>2021-10-07T14:01:35Z</time><name>PT5403</name></trkpt>
<trkpt lat="53.371492" lon="-1.898111"><ele>436</ele><time>2021-10-07T14:01:39Z</time><name>PT5404</name></trkpt>
<trkpt lat="53.371464" lon="-1.898189"><ele>434</ele><time>2021-10-07T14:01:43Z</time><name>PT5405</name></trkpt>
<trkpt lat="53.371440" lon="-1.898268"><ele>433</ele><time>2021-10-07T14:01:47Z</time><name>PT5406</name></trkpt>
<trkpt lat="53.371431" lon="-1.898360"><ele>431</ele><time>2021-10-07T14:01:51Z</time><name>PT5407</name></trkpt>
<trkpt lat="53.371421" lon="-1.898445"><ele>431</ele><time>2021-10-07T14:01:55Z</time><name>PT5408</name></trkpt>
<trkpt lat="53.371415" lon="-1.898527"><ele>429</ele><time>2021-10-07T14:01:59Z</time><name>PT5409</name></trkpt>
<trkpt lat="53.371405" lon="-1.898619"><ele>428</ele><time>2021-10-07T14:02:03Z</time><name>PT5410</name></trkpt>
<trkpt lat="53.371393" lon="-1.898715"><ele>429</ele><time>2021-10-07T14:02:07Z</time><name>PT5411</name></trkpt>
<trkpt lat="53.371387" lon="-1.898815"><ele>428</ele><time>2021-10-07T14:02:11Z</time><name>PT5412</name></trkpt>
<trkpt lat="53.371369" lon="-1.898902"><ele>428</ele><time>2021-10-07T14:02:15Z</time><name>PT5413</name></trkpt>
<trkpt lat="53.371355" lon="-1.898990"><ele>427</ele><time>2021-10-07T14:02:19Z</time><name>PT5414</name></trkpt>
<trkpt lat="53.371346" lon="-1.899071"><ele>426</ele><time>2021-10-07T14:02:23Z</time><name>PT5415</name></trkpt>
<trkpt lat="53.371346" lon="-1.899150"><ele>426</ele><time>2021-10-07T14:02:27Z</time><name>PT5416</name></trkpt>
<trkpt lat="53.371346" lon="-1.899231"><ele>425</ele><time>2021-10-07T14:02:31Z</time><name>PT5417</name></trkpt>
<trkpt lat="53.371353" lon="-1.899270"><ele>425</ele><time>2021-10-07T14:02:35Z</time><name>PT5418</name></trkpt>
<trkpt lat="53.371346" lon="-1.899296"><ele>424</ele><time>2021-10-07T14:02:39Z</time><name>PT5419</name></trkpt>
<trkpt lat="53.371341" lon="-1.899299"><ele>425</ele><time>2021-10-07T14:02:42Z</time><name>PT5420</name></trkpt>
<trkpt lat="53.371338" lon="-1.899328"><ele>426</ele><time>2021-10-07T14:02:46Z</time><name>PT5421</name></trkpt>
<trkpt lat="53.371338" lon="-1.899339"><ele>426</ele><time>2021-10-07T14:02:47Z</time><name>PT5422</name></trkpt>
<trkpt lat="53.371339" lon="-1.899350"><ele>426</ele><time>2021-10-07T14:02:48Z</time><name>PT5423</name></trkpt>
<trkpt lat="53.371337" lon="-1.899354"><ele>426</ele><time>2021-10-07T14:02:49Z</time><name>PT5424</name></trkpt>
<trkpt lat="53.371333" lon="-1.899358"><ele>425</ele><time>2021-10-07T14:02:50Z</time><name>PT5425</name></trkpt>
<trkpt lat="53.371328" lon="-1.899372"><ele>425</ele><time>2021-10-07T14:02:51Z</time><name>PT5426</name></trkpt>
<trkpt lat="53.371326" lon="-1.899385"><ele>425</ele><time>2021-10-07T14:02:52Z</time><name>PT5427</name></trkpt>
<trkpt lat="53.371324" lon="-1.899402"><ele>425</ele><time>2021-10-07T14:02:53Z</time><name>PT5428</name></trkpt>
<trkpt lat="53.371322" lon="-1.899418"><ele>425</ele><time>2021-10-07T14:02:54Z</time><name>PT5429</name></trkpt>
<trkpt lat="53.371320" lon="-1.899433"><ele>425</ele><time>2021-10-07T14:02:55Z</time><name>PT5430</name></trkpt>
<trkpt lat="53.371319" lon="-1.899450"><ele>424</ele><time>2021-10-07T14:02:56Z</time><name>PT5431</name></trkpt>
<trkpt lat="53.371318" lon="-1.899468"><ele>424</ele><time>2021-10-07T14:02:57Z</time><name>PT5432</name></trkpt>
<trkpt lat="53.371317" lon="-1.899486"><ele>424</ele><time>2021-10-07T14:02:58Z</time><name>PT5433</name></trkpt>
<trkpt lat="53.371317" lon="-1.899504"><ele>424</ele><time>2021-10-07T14:02:59Z</time><name>PT5434</name></trkpt>
<trkpt lat="53.371316" lon="-1.899522"><ele>424</ele><time>2021-10-07T14:03:00Z</time><name>PT5435</name></trkpt>
<trkpt lat="53.371315" lon="-1.899539"><ele>424</ele><time>2021-10-07T14:03:01Z</time><name>PT5436</name></trkpt>
<trkpt lat="53.371312" lon="-1.899557"><ele>424</ele><time>2021-10-07T14:03:02Z</time><name>PT5437</name></trkpt>
<trkpt lat="53.371311" lon="-1.899576"><ele>424</ele><time>2021-10-07T14:03:03Z</time><name>PT5438</name></trkpt>
<trkpt lat="53.371311" lon="-1.899593"><ele>424</ele><time>2021-10-07T14:03:04Z</time><name>PT5439</name></trkpt>
<trkpt lat="53.371310" lon="-1.899613"><ele>424</ele><time>2021-10-07T14:03:05Z</time><name>PT5440</name></trkpt>
<trkpt lat="53.371309" lon="-1.899628"><ele>424</ele><time>2021-10-07T14:03:06Z</time><name>PT5441</name></trkpt>
<trkpt lat="53.371309" lon="-1.899642"><ele>424</ele><time>2021-10-07T14:03:07Z</time><name>PT5442</name></trkpt>
<trkpt lat="53.371305" lon="-1.899659"><ele>424</ele><time>2021-10-07T14:03:08Z</time><name>PT5443</name></trkpt>
<trkpt lat="53.371302" lon="-1.899676"><ele>424</ele><time>2021-10-07T14:03:09Z</time><name>PT5444</name></trkpt>
<trkpt lat="53.371298" lon="-1.899695"><ele>424</ele><time>2021-10-07T14:03:10Z</time><name>PT5445</name></trkpt>
<trkpt lat="53.371295" lon="-1.899717"><ele>424</ele><time>2021-10-07T14:03:11Z</time><name>PT5446</name></trkpt>
<trkpt lat="53.371292" lon="-1.899738"><ele>423</ele><time>2021-10-07T14:03:12Z</time><name>PT5447</name></trkpt>
<trkpt lat="53.371290" lon="-1.899757"><ele>423</ele><time>2021-10-07T14:03:13Z</time><name>PT5448</name></trkpt>
<trkpt lat="53.371288" lon="-1.899782"><ele>423</ele><time>2021-10-07T14:03:14Z</time><name>PT5449</name></trkpt>
<trkpt lat="53.371286" lon="-1.899802"><ele>423</ele><time>2021-10-07T14:03:15Z</time><name>PT5450</name></trkpt>
<trkpt lat="53.371283" lon="-1.899823"><ele>423</ele><time>2021-10-07T14:03:16Z</time><name>PT5451</name></trkpt>
<trkpt lat="53.371280" lon="-1.899843"><ele>423</ele><time>2021-10-07T14:03:17Z</time><name>PT5452</name></trkpt>
<trkpt lat="53.371280" lon="-1.899862"><ele>423</ele><time>2021-10-07T14:03:18Z</time><name>PT5453</name></trkpt>
<trkpt lat="53.371278" lon="-1.899881"><ele>423</ele><time>2021-10-07T14:03:19Z</time><name>PT5454</name></trkpt>
<trkpt lat="53.371279" lon="-1.899900"><ele>422</ele><time>2021-10-07T14:03:20Z</time><name>PT5455</name></trkpt>
<trkpt lat="53.371280" lon="-1.899917"><ele>422</ele><time>2021-10-07T14:03:21Z</time><name>PT5456</name></trkpt>
<trkpt lat="53.371284" lon="-1.899935"><ele>422</ele><time>2021-10-07T14:03:22Z</time><name>PT5457</name></trkpt>
<trkpt lat="53.371286" lon="-1.899953"><ele>422</ele><time>2021-10-07T14:03:23Z</time><name>PT5458</name></trkpt>
<trkpt lat="53.371284" lon="-1.899972"><ele>422</ele><time>2021-10-07T14:03:24Z</time><name>PT5459</name></trkpt>
<trkpt lat="53.371282" lon="-1.899993"><ele>422</ele><time>2021-10-07T14:03:25Z</time><name>PT5460</name></trkpt>
<trkpt lat="53.371281" lon="-1.900010"><ele>422</ele><time>2021-10-07T14:03:26Z</time><name>PT5461</name></trkpt>
<trkpt lat="53.371279" lon="-1.900031"><ele>422</ele><time>2021-10-07T14:03:27Z</time><name>PT5462</name></trkpt>
<trkpt lat="53.371279" lon="-1.900053"><ele>421</ele><time>2021-10-07T14:03:28Z</time><name>PT5463</name></trkpt>
<trkpt lat="53.371278" lon="-1.900071"><ele>421</ele><time>2021-10-07T14:03:29Z</time><name>PT5464</name></trkpt>
<trkpt lat="53.371278" lon="-1.900095"><ele>421</ele><time>2021-10-07T14:03:30Z</time><name>PT5465</name></trkpt>
<trkpt lat="53.371278" lon="-1.900116"><ele>421</ele><time>2021-10-07T14:03:31Z</time><name>PT5466</name></trkpt>
<trkpt lat="53.371279" lon="-1.900136"><ele>421</ele><time>2021-10-07T14:03:32Z</time><name>PT5467</name></trkpt>
<trkpt lat="53.371279" lon="-1.900159"><ele>421</ele><time>2021-10-07T14:03:33Z</time><name>PT5468</name></trkpt>
<trkpt lat="53.371279" lon="-1.900184"><ele>421</ele><time>2021-10-07T14:03:34Z</time><name>PT5469</name></trkpt>
<trkpt lat="53.371279" lon="-1.900210"><ele>421</ele><time>2021-10-07T14:03:35Z</time><name>PT5470</name></trkpt>
<trkpt lat="53.371281" lon="-1.900230"><ele>421</ele><time>2021-10-07T14:03:36Z</time><name>PT5471</name></trkpt>
<trkpt lat="53.371283" lon="-1.900246"><ele>421</ele><time>2021-10-07T14:03:37Z</time><name>PT5472</name></trkpt>
<trkpt lat="53.371285" lon="-1.900270"><ele>421</ele><time>2021-10-07T14:03:38Z</time><name>PT5473</name></trkpt>
<trkpt lat="53.371285" lon="-1.900296"><ele>421</ele><time>2021-10-07T14:03:39Z</time><name>PT5474</name></trkpt>
<trkpt lat="53.371284" lon="-1.900321"><ele>421</ele><time>2021-10-07T14:03:40Z</time><name>PT5475</name></trkpt>
<trkpt lat="53.371284" lon="-1.900347"><ele>421</ele><time>2021-10-07T14:03:41Z</time><name>PT5476</name></trkpt>
<trkpt lat="53.371286" lon="-1.900368"><ele>420</ele><time>2021-10-07T14:03:42Z</time><name>PT5477</name></trkpt>
<trkpt lat="53.371289" lon="-1.900392"><ele>420</ele><time>2021-10-07T14:03:43Z</time><name>PT5478</name></trkpt>
<trkpt lat="53.371292" lon="-1.900415"><ele>421</ele><time>2021-10-07T14:03:44Z</time><name>PT5479</name></trkpt>
<trkpt lat="53.371296" lon="-1.900439"><ele>421</ele><time>2021-10-07T14:03:45Z</time><name>PT5480</name></trkpt>
<trkpt lat="53.371298" lon="-1.900463"><ele>420</ele><time>2021-10-07T14:03:46Z</time><name>PT5481</name></trkpt>
<trkpt lat="53.371299" lon="-1.900484"><ele>421</ele><time>2021-10-07T14:03:47Z</time><name>PT5482</name></trkpt>
<trkpt lat="53.371301" lon="-1.900507"><ele>420</ele><time>2021-10-07T14:03:48Z</time><name>PT5483</name></trkpt>
<trkpt lat="53.371301" lon="-1.900529"><ele>421</ele><time>2021-10-07T14:03:49Z</time><name>PT5484</name></trkpt>
<trkpt lat="53.371303" lon="-1.900551"><ele>420</ele><time>2021-10-07T14:03:50Z</time><name>PT5485</name></trkpt>
<trkpt lat="53.371309" lon="-1.900576"><ele>419</ele><time>2021-10-07T14:03:51Z</time><name>PT5486</name></trkpt>
<trkpt lat="53.371318" lon="-1.900595"><ele>418</ele><time>2021-10-07T14:03:52Z</time><name>PT5487</name></trkpt>
<trkpt lat="53.371324" lon="-1.900616"><ele>418</ele><time>2021-10-07T14:03:53Z</time><name>PT5488</name></trkpt>
<trkpt lat="53.371330" lon="-1.900637"><ele>418</ele><time>2021-10-07T14:03:54Z</time><name>PT5489</name></trkpt>
<trkpt lat="53.371338" lon="-1.900658"><ele>418</ele><time>2021-10-07T14:03:55Z</time><name>PT5490</name></trkpt>
<trkpt lat="53.371346" lon="-1.900679"><ele>418</ele><time>2021-10-07T14:03:56Z</time><name>PT5491</name></trkpt>
<trkpt lat="53.371354" lon="-1.900700"><ele>417</ele><time>2021-10-07T14:03:57Z</time><name>PT5492</name></trkpt>
<trkpt lat="53.371360" lon="-1.900721"><ele>417</ele><time>2021-10-07T14:03:58Z</time><name>PT5493</name></trkpt>
<trkpt lat="53.371366" lon="-1.900742"><ele>417</ele><time>2021-10-07T14:03:59Z</time><name>PT5494</name></trkpt>
<trkpt lat="53.371373" lon="-1.900767"><ele>418</ele><time>2021-10-07T14:04:00Z</time><name>PT5495</name></trkpt>
<trkpt lat="53.371380" lon="-1.900793"><ele>418</ele><time>2021-10-07T14:04:01Z</time><name>PT5496</name></trkpt>
<trkpt lat="53.371386" lon="-1.900816"><ele>418</ele><time>2021-10-07T14:04:02Z</time><name>PT5497</name></trkpt>
<trkpt lat="53.371394" lon="-1.900836"><ele>417</ele><time>2021-10-07T14:04:03Z</time><name>PT5498</name></trkpt>
<trkpt lat="53.371403" lon="-1.900853"><ele>417</ele><time>2021-10-07T14:04:04Z</time><name>PT5499</name></trkpt>
<trkpt lat="53.371411" lon="-1.900873"><ele>417</ele><time>2021-10-07T14:04:05Z</time><name>PT5500</name></trkpt>
<trkpt lat="53.371418" lon="-1.900893"><ele>418</ele><time>2021-10-07T14:04:06Z</time><name>PT5501</name></trkpt>
<trkpt lat="53.371425" lon="-1.900912"><ele>418</ele><time>2021-10-07T14:04:07Z</time><name>PT5502</name></trkpt>
<trkpt lat="53.371431" lon="-1.900930"><ele>418</ele><time>2021-10-07T14:04:08Z</time><name>PT5503</name></trkpt>
<trkpt lat="53.371436" lon="-1.900951"><ele>417</ele><time>2021-10-07T14:04:09Z</time><name>PT5504</name></trkpt>
<trkpt lat="53.371446" lon="-1.900967"><ele>416</ele><time>2021-10-07T14:04:10Z</time><name>PT5505</name></trkpt>
<trkpt lat="53.371453" lon="-1.900986"><ele>417</ele><time>2021-10-07T14:04:11Z</time><name>PT5506</name></trkpt>
<trkpt lat="53.371461" lon="-1.901004"><ele>416</ele><time>2021-10-07T14:04:12Z</time><name>PT5507</name></trkpt>
<trkpt lat="53.371471" lon="-1.901021"><ele>416</ele><time>2021-10-07T14:04:13Z</time><name>PT5508</name></trkpt>
<trkpt lat="53.371479" lon="-1.901040"><ele>416</ele><time>2021-10-07T14:04:14Z</time><name>PT5509</name></trkpt>
<trkpt lat="53.371489" lon="-1.901058"><ele>416</ele><time>2021-10-07T14:04:15Z</time><name>PT5510</name></trkpt>
<trkpt lat="53.371499" lon="-1.901078"><ele>416</ele><time>2021-10-07T14:04:16Z</time><name>PT5511</name></trkpt>
<trkpt lat="53.371508" lon="-1.901102"><ele>415</ele><time>2021-10-07T14:04:17Z</time><name>PT5512</name></trkpt>
<trkpt lat="53.371515" lon="-1.901119"><ele>415</ele><time>2021-10-07T14:04:18Z</time><name>PT5513</name></trkpt>
<trkpt lat="53.371522" lon="-1.901137"><ele>415</ele><time>2021-10-07T14:04:19Z</time><name>PT5514</name></trkpt>
<trkpt lat="53.371526" lon="-1.901157"><ele>415</ele><time>2021-10-07T14:04:20Z</time><name>PT5515</name></trkpt>
<trkpt lat="53.371532" lon="-1.901176"><ele>415</ele><time>2021-10-07T14:04:21Z</time><name>PT5516</name></trkpt>
<trkpt lat="53.371540" lon="-1.901198"><ele>415</ele><time>2021-10-07T14:04:22Z</time><name>PT5517</name></trkpt>
<trkpt lat="53.371548" lon="-1.901216"><ele>415</ele><time>2021-10-07T14:04:23Z</time><name>PT5518</name></trkpt>
<trkpt lat="53.371558" lon="-1.901236"><ele>415</ele><time>2021-10-07T14:04:24Z</time><name>PT5519</name></trkpt>
<trkpt lat="53.371567" lon="-1.901257"><ele>415</ele><time>2021-10-07T14:04:25Z</time><name>PT5520</name></trkpt>
<trkpt lat="53.371574" lon="-1.901278"><ele>415</ele><time>2021-10-07T14:04:26Z</time><name>PT5521</name></trkpt>
<trkpt lat="53.371583" lon="-1.901294"><ele>415</ele><time>2021-10-07T14:04:27Z</time><name>PT5522</name></trkpt>
<trkpt lat="53.371591" lon="-1.901309"><ele>415</ele><time>2021-10-07T14:04:28Z</time><name>PT5523</name></trkpt>
<trkpt lat="53.371596" lon="-1.901323"><ele>415</ele><time>2021-10-07T14:04:29Z</time><name>PT5524</name></trkpt>
<trkpt lat="53.371604" lon="-1.901342"><ele>415</ele><time>2021-10-07T14:04:30Z</time><name>PT5525</name></trkpt>
<trkpt lat="53.371610" lon="-1.901363"><ele>415</ele><time>2021-10-07T14:04:31Z</time><name>PT5526</name></trkpt>
<trkpt lat="53.371618" lon="-1.901384"><ele>415</ele><time>2021-10-07T14:04:32Z</time><name>PT5527</name></trkpt>
<trkpt lat="53.371628" lon="-1.901403"><ele>414</ele><time>2021-10-07T14:04:33Z</time><name>PT5528</name></trkpt>
<trkpt lat="53.371640" lon="-1.901419"><ele>414</ele><time>2021-10-07T14:04:34Z</time><name>PT5529</name></trkpt>
<trkpt lat="53.371649" lon="-1.901427"><ele>413</ele><time>2021-10-07T14:04:35Z</time><name>PT5530</name></trkpt>
<trkpt lat="53.371658" lon="-1.901438"><ele>413</ele><time>2021-10-07T14:04:36Z</time><name>PT5531</name></trkpt>
<trkpt lat="53.371666" lon="-1.901451"><ele>413</ele><time>2021-10-07T14:04:37Z</time><name>PT5532</name></trkpt>
<trkpt lat="53.371668" lon="-1.901458"><ele>413</ele><time>2021-10-07T14:04:38Z</time><name>PT5533</name></trkpt>
<trkpt lat="53.371670" lon="-1.901465"><ele>412</ele><time>2021-10-07T14:04:39Z</time><name>PT5534</name></trkpt>
<trkpt lat="53.371671" lon="-1.901471"><ele>412</ele><time>2021-10-07T14:04:40Z</time><name>PT5535</name></trkpt>
<trkpt lat="53.371675" lon="-1.901480"><ele>412</ele><time>2021-10-07T14:04:41Z</time><name>PT5536</name></trkpt>
<trkpt lat="53.371679" lon="-1.901492"><ele>412</ele><time>2021-10-07T14:04:42Z</time><name>PT5537</name></trkpt>
<trkpt lat="53.371682" lon="-1.901507"><ele>412</ele><time>2021-10-07T14:04:43Z</time><name>PT5538</name></trkpt>
<trkpt lat="53.371684" lon="-1.901528"><ele>411</ele><time>2021-10-07T14:04:44Z</time><name>PT5539</name></trkpt>
<trkpt lat="53.371691" lon="-1.901548"><ele>411</ele><time>2021-10-07T14:04:45Z</time><name>PT5540</name></trkpt>
<trkpt lat="53.371705" lon="-1.901611"><ele>411</ele><time>2021-10-07T14:04:48Z</time><name>PT5541</name></trkpt>
<trkpt lat="53.371715" lon="-1.901686"><ele>409</ele><time>2021-10-07T14:04:52Z</time><name>PT5542</name></trkpt>
<trkpt lat="53.371722" lon="-1.901773"><ele>409</ele><time>2021-10-07T14:04:56Z</time><name>PT5543</name></trkpt>
<trkpt lat="53.371728" lon="-1.901832"><ele>408</ele><time>2021-10-07T14:05:00Z</time><name>PT5544</name></trkpt>
<trkpt lat="53.371738" lon="-1.901898"><ele>408</ele><time>2021-10-07T14:05:04Z</time><name>PT5545</name></trkpt>
<trkpt lat="53.371736" lon="-1.901970"><ele>408</ele><time>2021-10-07T14:05:08Z</time><name>PT5546</name></trkpt>
<trkpt lat="53.371737" lon="-1.902047"><ele>409</ele><time>2021-10-07T14:05:12Z</time><name>PT5547</name></trkpt>
<trkpt lat="53.371741" lon="-1.902125"><ele>409</ele><time>2021-10-07T14:05:16Z</time><name>PT5548</name></trkpt>
<trkpt lat="53.371740" lon="-1.902212"><ele>409</ele><time>2021-10-07T14:05:20Z</time><name>PT5549</name></trkpt>
<trkpt lat="53.371734" lon="-1.902274"><ele>409</ele><time>2021-10-07T14:05:23Z</time><name>PT5550</name></trkpt>
<trkpt lat="53.371733" lon="-1.902359"><ele>409</ele><time>2021-10-07T14:05:27Z</time><name>PT5551</name></trkpt>
<trkpt lat="53.371726" lon="-1.902418"><ele>410</ele><time>2021-10-07T14:05:31Z</time><name>PT5552</name></trkpt>
<trkpt lat="53.371723" lon="-1.902439"><ele>409</ele><time>2021-10-07T14:05:35Z</time><name>PT5553</name></trkpt>
<trkpt lat="53.371739" lon="-1.902509"><ele>410</ele><time>2021-10-07T14:05:39Z</time><name>PT5554</name></trkpt>
<trkpt lat="53.371753" lon="-1.902583"><ele>410</ele><time>2021-10-07T14:05:43Z</time><name>PT5555</name></trkpt>
<trkpt lat="53.371750" lon="-1.902637"><ele>410</ele><time>2021-10-07T14:05:47Z</time><name>PT5556</name></trkpt>
<trkpt lat="53.371744" lon="-1.902654"><ele>410</ele><time>2021-10-07T14:05:51Z</time><name>PT5557</name></trkpt>
<trkpt lat="53.371745" lon="-1.902670"><ele>411</ele><time>2021-10-07T14:05:59Z</time><name>PT5558</name></trkpt>
<trkpt lat="53.371752" lon="-1.902745"><ele>410</ele><time>2021-10-07T14:06:47Z</time><name>PT5559</name></trkpt>
<trkpt lat="53.371756" lon="-1.902807"><ele>410</ele><time>2021-10-07T14:06:51Z</time><name>PT5560</name></trkpt>
<trkpt lat="53.371756" lon="-1.902856"><ele>409</ele><time>2021-10-07T14:06:54Z</time><name>PT5561</name></trkpt>
<trkpt lat="53.371763" lon="-1.902934"><ele>408</ele><time>2021-10-07T14:06:58Z</time><name>PT5562</name></trkpt>
<trkpt lat="53.371756" lon="-1.902999"><ele>408</ele><time>2021-10-07T14:07:01Z</time><name>PT5563</name></trkpt>
<trkpt lat="53.371756" lon="-1.903088"><ele>408</ele><time>2021-10-07T14:07:05Z</time><name>PT5564</name></trkpt>
<trkpt lat="53.371755" lon="-1.903159"><ele>407</ele><time>2021-10-07T14:07:09Z</time><name>PT5565</name></trkpt>
<trkpt lat="53.371754" lon="-1.903234"><ele>407</ele><time>2021-10-07T14:07:13Z</time><name>PT5566</name></trkpt>
<trkpt lat="53.371752" lon="-1.903297"><ele>406</ele><time>2021-10-07T14:07:16Z</time><name>PT5567</name></trkpt>
<trkpt lat="53.371749" lon="-1.903329"><ele>406</ele><time>2021-10-07T14:07:17Z</time><name>PT5568</name></trkpt>
<trkpt lat="53.371749" lon="-1.903351"><ele>406</ele><time>2021-10-07T14:07:19Z</time><name>PT5569</name></trkpt>
<trkpt lat="53.371747" lon="-1.903375"><ele>406</ele><time>2021-10-07T14:07:19Z</time><name>PT5570</name></trkpt>
<trkpt lat="53.371746" lon="-1.903396"><ele>405</ele><time>2021-10-07T14:07:20Z</time><name>PT5571</name></trkpt>
<trkpt lat="53.371744" lon="-1.903410"><ele>405</ele><time>2021-10-07T14:07:22Z</time><name>PT5572</name></trkpt>
<trkpt lat="53.371741" lon="-1.903423"><ele>404</ele><time>2021-10-07T14:07:22Z</time><name>PT5573</name></trkpt>
<trkpt lat="53.371743" lon="-1.903428"><ele>405</ele><time>2021-10-07T14:07:23Z</time><name>PT5574</name></trkpt>
<trkpt lat="53.371744" lon="-1.903429"><ele>405</ele><time>2021-10-07T14:07:24Z</time><name>PT5575</name></trkpt>
<trkpt lat="53.371742" lon="-1.903429"><ele>405</ele><time>2021-10-07T14:07:25Z</time><name>PT5576</name></trkpt>
<trkpt lat="53.371741" lon="-1.903430"><ele>405</ele><time>2021-10-07T14:07:26Z</time><name>PT5577</name></trkpt>
<trkpt lat="53.371740" lon="-1.903432"><ele>404</ele><time>2021-10-07T14:07:27Z</time><name>PT5578</name></trkpt>
<trkpt lat="53.371741" lon="-1.903434"><ele>404</ele><time>2021-10-07T14:07:28Z</time><name>PT5579</name></trkpt>
<trkpt lat="53.371741" lon="-1.903439"><ele>404</ele><time>2021-10-07T14:07:29Z</time><name>PT5580</name></trkpt>
<trkpt lat="53.371739" lon="-1.903451"><ele>405</ele><time>2021-10-07T14:07:30Z</time><name>PT5581</name></trkpt>
<trkpt lat="53.371740" lon="-1.903467"><ele>404</ele><time>2021-10-07T14:07:31Z</time><name>PT5582</name></trkpt>
<trkpt lat="53.371738" lon="-1.903481"><ele>404</ele><time>2021-10-07T14:07:32Z</time><name>PT5583</name></trkpt>
<trkpt lat="53.371736" lon="-1.903490"><ele>404</ele><time>2021-10-07T14:07:33Z</time><name>PT5584</name></trkpt>
<trkpt lat="53.371733" lon="-1.903506"><ele>404</ele><time>2021-10-07T14:07:34Z</time><name>PT5585</name></trkpt>
<trkpt lat="53.371733" lon="-1.903522"><ele>404</ele><time>2021-10-07T14:07:35Z</time><name>PT5586</name></trkpt>
<trkpt lat="53.371732" lon="-1.903538"><ele>404</ele><time>2021-10-07T14:07:36Z</time><name>PT5587</name></trkpt>
<trkpt lat="53.371731" lon="-1.903558"><ele>405</ele><time>2021-10-07T14:07:37Z</time><name>PT5588</name></trkpt>
<trkpt lat="53.371732" lon="-1.903577"><ele>404</ele><time>2021-10-07T14:07:38Z</time><name>PT5589</name></trkpt>
<trkpt lat="53.371729" lon="-1.903592"><ele>404</ele><time>2021-10-07T14:07:39Z</time><name>PT5590</name></trkpt>
<trkpt lat="53.371727" lon="-1.903604"><ele>404</ele><time>2021-10-07T14:07:40Z</time><name>PT5591</name></trkpt>
<trkpt lat="53.371726" lon="-1.903617"><ele>403</ele><time>2021-10-07T14:07:41Z</time><name>PT5592</name></trkpt>
<trkpt lat="53.371725" lon="-1.903632"><ele>403</ele><time>2021-10-07T14:07:42Z</time><name>PT5593</name></trkpt>
<trkpt lat="53.371724" lon="-1.903650"><ele>402</ele><time>2021-10-07T14:07:43Z</time><name>PT5594</name></trkpt>
<trkpt lat="53.371723" lon="-1.903666"><ele>402</ele><time>2021-10-07T14:07:44Z</time><name>PT5595</name></trkpt>
<trkpt lat="53.371721" lon="-1.903684"><ele>402</ele><time>2021-10-07T14:07:45Z</time><name>PT5596</name></trkpt>
<trkpt lat="53.371721" lon="-1.903703"><ele>403</ele><time>2021-10-07T14:07:46Z</time><name>PT5597</name></trkpt>
<trkpt lat="53.371720" lon="-1.903719"><ele>403</ele><time>2021-10-07T14:07:47Z</time><name>PT5598</name></trkpt>
<trkpt lat="53.371720" lon="-1.903734"><ele>403</ele><time>2021-10-07T14:07:48Z</time><name>PT5599</name></trkpt>
<trkpt lat="53.371718" lon="-1.903757"><ele>403</ele><time>2021-10-07T14:07:49Z</time><name>PT5600</name></trkpt>
<trkpt lat="53.371717" lon="-1.903774"><ele>402</ele><time>2021-10-07T14:07:50Z</time><name>PT5601</name></trkpt>
<trkpt lat="53.371715" lon="-1.903790"><ele>402</ele><time>2021-10-07T14:07:51Z</time><name>PT5602</name></trkpt>
<trkpt lat="53.371712" lon="-1.903801"><ele>402</ele><time>2021-10-07T14:07:52Z</time><name>PT5603</name></trkpt>
<trkpt lat="53.371708" lon="-1.903815"><ele>402</ele><time>2021-10-07T14:07:53Z</time><name>PT5604</name></trkpt>
<trkpt lat="53.371705" lon="-1.903837"><ele>402</ele><time>2021-10-07T14:07:54Z</time><name>PT5605</name></trkpt>
<trkpt lat="53.371702" lon="-1.903857"><ele>402</ele><time>2021-10-07T14:07:55Z</time><name>PT5606</name></trkpt>
<trkpt lat="53.371700" lon="-1.903877"><ele>402</ele><time>2021-10-07T14:07:56Z</time><name>PT5607</name></trkpt>
<trkpt lat="53.371698" lon="-1.903896"><ele>402</ele><time>2021-10-07T14:07:57Z</time><name>PT5608</name></trkpt>
<trkpt lat="53.371697" lon="-1.903919"><ele>402</ele><time>2021-10-07T14:07:58Z</time><name>PT5609</name></trkpt>
<trkpt lat="53.371693" lon="-1.903935"><ele>402</ele><time>2021-10-07T14:07:59Z</time><name>PT5610</name></trkpt>
<trkpt lat="53.371691" lon="-1.903949"><ele>402</ele><time>2021-10-07T14:08:00Z</time><name>PT5611</name></trkpt>
<trkpt lat="53.371687" lon="-1.903964"><ele>402</ele><time>2021-10-07T14:08:01Z</time><name>PT5612</name></trkpt>
<trkpt lat="53.371684" lon="-1.903982"><ele>402</ele><time>2021-10-07T14:08:02Z</time><name>PT5613</name></trkpt>
<trkpt lat="53.371680" lon="-1.903999"><ele>402</ele><time>2021-10-07T14:08:03Z</time><name>PT5614</name></trkpt>
<trkpt lat="53.371679" lon="-1.904016"><ele>402</ele><time>2021-10-07T14:08:04Z</time><name>PT5615</name></trkpt>
<trkpt lat="53.371677" lon="-1.904032"><ele>402</ele><time>2021-10-07T14:08:05Z</time><name>PT5616</name></trkpt>
<trkpt lat="53.371677" lon="-1.904044"><ele>402</ele><time>2021-10-07T14:08:06Z</time><name>PT5617</name></trkpt>
<trkpt lat="53.371678" lon="-1.904053"><ele>401</ele><time>2021-10-07T14:08:07Z</time><name>PT5618</name></trkpt>
<trkpt lat="53.371677" lon="-1.904067"><ele>401</ele><time>2021-10-07T14:08:08Z</time><name>PT5619</name></trkpt>
<trkpt lat="53.371676" lon="-1.904079"><ele>400</ele><time>2021-10-07T14:08:09Z</time><name>PT5620</name></trkpt>
<trkpt lat="53.371673" lon="-1.904092"><ele>400</ele><time>2021-10-07T14:08:10Z</time><name>PT5621</name></trkpt>
<trkpt lat="53.371670" lon="-1.904108"><ele>400</ele><time>2021-10-07T14:08:11Z</time><name>PT5622</name></trkpt>
<trkpt lat="53.371666" lon="-1.904130"><ele>400</ele><time>2021-10-07T14:08:12Z</time><name>PT5623</name></trkpt>
<trkpt lat="53.371663" lon="-1.904149"><ele>400</ele><time>2021-10-07T14:08:13Z</time><name>PT5624</name></trkpt>
<trkpt lat="53.371662" lon="-1.904163"><ele>400</ele><time>2021-10-07T14:08:14Z</time><name>PT5625</name></trkpt>
<trkpt lat="53.371662" lon="-1.904183"><ele>400</ele><time>2021-10-07T14:08:15Z</time><name>PT5626</name></trkpt>
<trkpt lat="53.371662" lon="-1.904202"><ele>399</ele><time>2021-10-07T14:08:16Z</time><name>PT5627</name></trkpt>
<trkpt lat="53.371661" lon="-1.904216"><ele>399</ele><time>2021-10-07T14:08:17Z</time><name>PT5628</name></trkpt>
<trkpt lat="53.371657" lon="-1.904231"><ele>399</ele><time>2021-10-07T14:08:18Z</time><name>PT5629</name></trkpt>
<trkpt lat="53.371653" lon="-1.904246"><ele>399</ele><time>2021-10-07T14:08:19Z</time><name>PT5630</name></trkpt>
<trkpt lat="53.371650" lon="-1.904264"><ele>399</ele><time>2021-10-07T14:08:20Z</time><name>PT5631</name></trkpt>
<trkpt lat="53.371648" lon="-1.904282"><ele>398</ele><time>2021-10-07T14:08:21Z</time><name>PT5632</name></trkpt>
<trkpt lat="53.371647" lon="-1.904298"><ele>398</ele><time>2021-10-07T14:08:22Z</time><name>PT5633</name></trkpt>
<trkpt lat="53.371644" lon="-1.904317"><ele>398</ele><time>2021-10-07T14:08:23Z</time><name>PT5634</name></trkpt>
<trkpt lat="53.371643" lon="-1.904335"><ele>398</ele><time>2021-10-07T14:08:24Z</time><name>PT5635</name></trkpt>
<trkpt lat="53.371640" lon="-1.904354"><ele>397</ele><time>2021-10-07T14:08:25Z</time><name>PT5636</name></trkpt>
<trkpt lat="53.371635" lon="-1.904378"><ele>398</ele><time>2021-10-07T14:08:26Z</time><name>PT5637</name></trkpt>
<trkpt lat="53.371634" lon="-1.904395"><ele>397</ele><time>2021-10-07T14:08:27Z</time><name>PT5638</name></trkpt>
<trkpt lat="53.371630" lon="-1.904410"><ele>397</ele><time>2021-10-07T14:08:28Z</time><name>PT5639</name></trkpt>
<trkpt lat="53.371626" lon="-1.904425"><ele>397</ele><time>2021-10-07T14:08:29Z</time><name>PT5640</name></trkpt>
<trkpt lat="53.371622" lon="-1.904446"><ele>397</ele><time>2021-10-07T14:08:30Z</time><name>PT5641</name></trkpt>
<trkpt lat="53.371620" lon="-1.904462"><ele>397</ele><time>2021-10-07T14:08:31Z</time><name>PT5642</name></trkpt>
<trkpt lat="53.371618" lon="-1.904476"><ele>396</ele><time>2021-10-07T14:08:32Z</time><name>PT5643</name></trkpt>
<trkpt lat="53.371616" lon="-1.904493"><ele>397</ele><time>2021-10-07T14:08:33Z</time><name>PT5644</name></trkpt>
<trkpt lat="53.371615" lon="-1.904512"><ele>396</ele><time>2021-10-07T14:08:34Z</time><name>PT5645</name></trkpt>
<trkpt lat="53.371614" lon="-1.904531"><ele>396</ele><time>2021-10-07T14:08:35Z</time><name>PT5646</name></trkpt>
<trkpt lat="53.371613" lon="-1.904552"><ele>395</ele><time>2021-10-07T14:08:36Z</time><name>PT5647</name></trkpt>
<trkpt lat="53.371611" lon="-1.904571"><ele>395</ele><time>2021-10-07T14:08:37Z</time><name>PT5648</name></trkpt>
<trkpt lat="53.371608" lon="-1.904593"><ele>395</ele><time>2021-10-07T14:08:38Z</time><name>PT5649</name></trkpt>
<trkpt lat="53.371606" lon="-1.904614"><ele>395</ele><time>2021-10-07T14:08:39Z</time><name>PT5650</name></trkpt>
<trkpt lat="53.371604" lon="-1.904633"><ele>394</ele><time>2021-10-07T14:08:40Z</time><name>PT5651</name></trkpt>
<trkpt lat="53.371600" lon="-1.904653"><ele>394</ele><time>2021-10-07T14:08:41Z</time><name>PT5652</name></trkpt>
<trkpt lat="53.371598" lon="-1.904670"><ele>394</ele><time>2021-10-07T14:08:42Z</time><name>PT5653</name></trkpt>
<trkpt lat="53.371597" lon="-1.904688"><ele>394</ele><time>2021-10-07T14:08:43Z</time><name>PT5654</name></trkpt>
<trkpt lat="53.371597" lon="-1.904705"><ele>394</ele><time>2021-10-07T14:08:44Z</time><name>PT5655</name></trkpt>
<trkpt lat="53.371597" lon="-1.904720"><ele>394</ele><time>2021-10-07T14:08:45Z</time><name>PT5656</name></trkpt>
<trkpt lat="53.371596" lon="-1.904738"><ele>394</ele><time>2021-10-07T14:08:46Z</time><name>PT5657</name></trkpt>
<trkpt lat="53.371595" lon="-1.904757"><ele>393</ele><time>2021-10-07T14:08:47Z</time><name>PT5658</name></trkpt>
<trkpt lat="53.371593" lon="-1.904774"><ele>393</ele><time>2021-10-07T14:08:48Z</time><name>PT5659</name></trkpt>
<trkpt lat="53.371591" lon="-1.904789"><ele>393</ele><time>2021-10-07T14:08:49Z</time><name>PT5660</name></trkpt>
<trkpt lat="53.371588" lon="-1.904804"><ele>393</ele><time>2021-10-07T14:08:50Z</time><name>PT5661</name></trkpt>
<trkpt lat="53.371584" lon="-1.904819"><ele>393</ele><time>2021-10-07T14:08:51Z</time><name>PT5662</name></trkpt>
<trkpt lat="53.371585" lon="-1.904835"><ele>393</ele><time>2021-10-07T14:08:52Z</time><name>PT5663</name></trkpt>
<trkpt lat="53.371585" lon="-1.904849"><ele>393</ele><time>2021-10-07T14:08:53Z</time><name>PT5664</name></trkpt>
<trkpt lat="53.371585" lon="-1.904864"><ele>393</ele><time>2021-10-07T14:08:54Z</time><name>PT5665</name></trkpt>
<trkpt lat="53.371583" lon="-1.904881"><ele>393</ele><time>2021-10-07T14:08:55Z</time><name>PT5666</name></trkpt>
<trkpt lat="53.371580" lon="-1.904901"><ele>392</ele><time>2021-10-07T14:08:56Z</time><name>PT5667</name></trkpt>
<trkpt lat="53.371578" lon="-1.904909"><ele>392</ele><time>2021-10-07T14:08:57Z</time><name>PT5668</name></trkpt>
<trkpt lat="53.371578" lon="-1.904920"><ele>392</ele><time>2021-10-07T14:08:58Z</time><name>PT5669</name></trkpt>
<trkpt lat="53.371574" lon="-1.904937"><ele>392</ele><time>2021-10-07T14:08:59Z</time><name>PT5670</name></trkpt>
<trkpt lat="53.371572" lon="-1.904955"><ele>391</ele><time>2021-10-07T14:09:00Z</time><name>PT5671</name></trkpt>
<trkpt lat="53.371570" lon="-1.904962"><ele>392</ele><time>2021-10-07T14:09:01Z</time><name>PT5672</name></trkpt>
<trkpt lat="53.371569" lon="-1.904968"><ele>391</ele><time>2021-10-07T14:09:02Z</time><name>PT5673</name></trkpt>
<trkpt lat="53.371567" lon="-1.904980"><ele>391</ele><time>2021-10-07T14:09:03Z</time><name>PT5674</name></trkpt>
<trkpt lat="53.371562" lon="-1.904996"><ele>391</ele><time>2021-10-07T14:09:04Z</time><name>PT5675</name></trkpt>
<trkpt lat="53.371561" lon="-1.905016"><ele>391</ele><time>2021-10-07T14:09:05Z</time><name>PT5676</name></trkpt>
<trkpt lat="53.371560" lon="-1.905035"><ele>391</ele><time>2021-10-07T14:09:06Z</time><name>PT5677</name></trkpt>
<trkpt lat="53.371556" lon="-1.905052"><ele>392</ele><time>2021-10-07T14:09:07Z</time><name>PT5678</name></trkpt>
<trkpt lat="53.371555" lon="-1.905074"><ele>392</ele><time>2021-10-07T14:09:08Z</time><name>PT5679</name></trkpt>
<trkpt lat="53.371556" lon="-1.905094"><ele>391</ele><time>2021-10-07T14:09:09Z</time><name>PT5680</name></trkpt>
<trkpt lat="53.371556" lon="-1.905109"><ele>391</ele><time>2021-10-07T14:09:10Z</time><name>PT5681</name></trkpt>
<trkpt lat="53.371558" lon="-1.905124"><ele>391</ele><time>2021-10-07T14:09:11Z</time><name>PT5682</name></trkpt>
<trkpt lat="53.371558" lon="-1.905140"><ele>391</ele><time>2021-10-07T14:09:12Z</time><name>PT5683</name></trkpt>
<trkpt lat="53.371556" lon="-1.905159"><ele>391</ele><time>2021-10-07T14:09:13Z</time><name>PT5684</name></trkpt>
<trkpt lat="53.371556" lon="-1.905182"><ele>390</ele><time>2021-10-07T14:09:14Z</time><name>PT5685</name></trkpt>
<trkpt lat="53.371553" lon="-1.905203"><ele>390</ele><time>2021-10-07T14:09:15Z</time><name>PT5686</name></trkpt>
<trkpt lat="53.371550" lon="-1.905225"><ele>390</ele><time>2021-10-07T14:09:16Z</time><name>PT5687</name></trkpt>
<trkpt lat="53.371548" lon="-1.905276"><ele>388</ele><time>2021-10-07T14:09:19Z</time><name>PT5688</name></trkpt>
<trkpt lat="53.371528" lon="-1.905360"><ele>389</ele><time>2021-10-07T14:09:23Z</time><name>PT5689</name></trkpt>
<trkpt lat="53.371529" lon="-1.905419"><ele>388</ele><time>2021-10-07T14:09:27Z</time><name>PT5690</name></trkpt>
<trkpt lat="53.371526" lon="-1.905462"><ele>387</ele><time>2021-10-07T14:09:31Z</time><name>PT5691</name></trkpt>
<trkpt lat="53.371527" lon="-1.905520"><ele>386</ele><time>2021-10-07T14:09:35Z</time><name>PT5692</name></trkpt>
<trkpt lat="53.371516" lon="-1.905584"><ele>385</ele><time>2021-10-07T14:09:39Z</time><name>PT5693</name></trkpt>
<trkpt lat="53.371511" lon="-1.905663"><ele>383</ele><time>2021-10-07T14:09:43Z</time><name>PT5694</name></trkpt>
<trkpt lat="53.371500" lon="-1.905718"><ele>383</ele><time>2021-10-07T14:09:47Z</time><name>PT5695</name></trkpt>
<trkpt lat="53.371496" lon="-1.905790"><ele>381</ele><time>2021-10-07T14:09:51Z</time><name>PT5696</name></trkpt>
<trkpt lat="53.371491" lon="-1.905870"><ele>380</ele><time>2021-10-07T14:09:55Z</time><name>PT5697</name></trkpt>
<trkpt lat="53.371487" lon="-1.905952"><ele>380</ele><time>2021-10-07T14:09:59Z</time><name>PT5698</name></trkpt>
<trkpt lat="53.371474" lon="-1.906028"><ele>380</ele><time>2021-10-07T14:10:03Z</time><name>PT5699</name></trkpt>
<trkpt lat="53.371460" lon="-1.906116"><ele>380</ele><time>2021-10-07T14:10:07Z</time><name>PT5700</name></trkpt>
<trkpt lat="53.371449" lon="-1.906201"><ele>381</ele><time>2021-10-07T14:10:11Z</time><name>PT5701</name></trkpt>
<trkpt lat="53.371440" lon="-1.906280"><ele>380</ele><time>2021-10-07T14:10:15Z</time><name>PT5702</name></trkpt>
<trkpt lat="53.371429" lon="-1.906362"><ele>380</ele><time>2021-10-07T14:10:19Z</time><name>PT5703</name></trkpt>
<trkpt lat="53.371427" lon="-1.906428"><ele>379</ele><time>2021-10-07T14:10:23Z</time><name>PT5704</name></trkpt>
<trkpt lat="53.371425" lon="-1.906514"><ele>379</ele><time>2021-10-07T14:10:27Z</time><name>PT5705</name></trkpt>
<trkpt lat="53.371419" lon="-1.906592"><ele>378</ele><time>2021-10-07T14:10:31Z</time><name>PT5706</name></trkpt>
<trkpt lat="53.371414" lon="-1.906671"><ele>377</ele><time>2021-10-07T14:10:35Z</time><name>PT5707</name></trkpt>
<trkpt lat="53.371409" lon="-1.906736"><ele>376</ele><time>2021-10-07T14:10:39Z</time><name>PT5708</name></trkpt>
<trkpt lat="53.371396" lon="-1.906816"><ele>374</ele><time>2021-10-07T14:10:43Z</time><name>PT5709</name></trkpt>
<trkpt lat="53.371387" lon="-1.906890"><ele>374</ele><time>2021-10-07T14:10:47Z</time><name>PT5710</name></trkpt>
<trkpt lat="53.371378" lon="-1.906978"><ele>373</ele><time>2021-10-07T14:10:51Z</time><name>PT5711</name></trkpt>
<trkpt lat="53.371368" lon="-1.907057"><ele>372</ele><time>2021-10-07T14:10:55Z</time><name>PT5712</name></trkpt>
<trkpt lat="53.371361" lon="-1.907129"><ele>371</ele><time>2021-10-07T14:10:59Z</time><name>PT5713</name></trkpt>
<trkpt lat="53.371359" lon="-1.907199"><ele>372</ele><time>2021-10-07T14:11:03Z</time><name>PT5714</name></trkpt>
<trkpt lat="53.371353" lon="-1.907280"><ele>371</ele><time>2021-10-07T14:11:07Z</time><name>PT5715</name></trkpt>
<trkpt lat="53.371344" lon="-1.907358"><ele>369</ele><time>2021-10-07T14:11:11Z</time><name>PT5716</name></trkpt>
<trkpt lat="53.371331" lon="-1.907438"><ele>368</ele><time>2021-10-07T14:11:15Z</time><name>PT5717</name></trkpt>
<trkpt lat="53.371325" lon="-1.907508"><ele>367</ele><time>2021-10-07T14:11:19Z</time><name>PT5718</name></trkpt>
<trkpt lat="53.371324" lon="-1.907580"><ele>367</ele><time>2021-10-07T14:11:23Z</time><name>PT5719</name></trkpt>
<trkpt lat="53.371317" lon="-1.907670"><ele>366</ele><time>2021-10-07T14:11:27Z</time><name>PT5720</name></trkpt>
<trkpt lat="53.371308" lon="-1.907753"><ele>365</ele><time>2021-10-07T14:11:31Z</time><name>PT5721</name></trkpt>
<trkpt lat="53.371302" lon="-1.907841"><ele>364</ele><time>2021-10-07T14:11:35Z</time><name>PT5722</name></trkpt>
<trkpt lat="53.371301" lon="-1.907909"><ele>363</ele><time>2021-10-07T14:11:39Z</time><name>PT5723</name></trkpt>
<trkpt lat="53.371295" lon="-1.907993"><ele>363</ele><time>2021-10-07T14:11:43Z</time><name>PT5724</name></trkpt>
<trkpt lat="53.371285" lon="-1.908062"><ele>362</ele><time>2021-10-07T14:11:47Z</time><name>PT5725</name></trkpt>
<trkpt lat="53.371274" lon="-1.908147"><ele>361</ele><time>2021-10-07T14:11:51Z</time><name>PT5726</name></trkpt>
<trkpt lat="53.371275" lon="-1.908229"><ele>360</ele><time>2021-10-07T14:11:55Z</time><name>PT5727</name></trkpt>
<trkpt lat="53.371274" lon="-1.908319"><ele>360</ele><time>2021-10-07T14:11:59Z</time><name>PT5728</name></trkpt>
<trkpt lat="53.371264" lon="-1.908399"><ele>359</ele><time>2021-10-07T14:12:03Z</time><name>PT5729</name></trkpt>
<trkpt lat="53.371256" lon="-1.908477"><ele>358</ele><time>2021-10-07T14:12:07Z</time><name>PT5730</name></trkpt>
<trkpt lat="53.371245" lon="-1.908553"><ele>357</ele><time>2021-10-07T14:12:11Z</time><name>PT5731</name></trkpt>
<trkpt lat="53.371233" lon="-1.908621"><ele>356</ele><time>2021-10-07T14:12:15Z</time><name>PT5732</name></trkpt>
<trkpt lat="53.371226" lon="-1.908678"><ele>357</ele><time>2021-10-07T14:12:19Z</time><name>PT5733</name></trkpt>
<trkpt lat="53.371213" lon="-1.908760"><ele>356</ele><time>2021-10-07T14:12:23Z</time><name>PT5734</name></trkpt>
<trkpt lat="53.371209" lon="-1.908851"><ele>355</ele><time>2021-10-07T14:12:27Z</time><name>PT5735</name></trkpt>
<trkpt lat="53.371217" lon="-1.908930"><ele>354</ele><time>2021-10-07T14:12:31Z</time><name>PT5736</name></trkpt>
<trkpt lat="53.371225" lon="-1.909031"><ele>353</ele><time>2021-10-07T14:12:35Z</time><name>PT5737</name></trkpt>
<trkpt lat="53.371232" lon="-1.909115"><ele>352</ele><time>2021-10-07T14:12:39Z</time><name>PT5738</name></trkpt>
<trkpt lat="53.371240" lon="-1.909188"><ele>351</ele><time>2021-10-07T14:12:43Z</time><name>PT5739</name></trkpt>
<trkpt lat="53.371245" lon="-1.909273"><ele>351</ele><time>2021-10-07T14:12:47Z</time><name>PT5740</name></trkpt>
<trkpt lat="53.371242" lon="-1.909319"><ele>351</ele><time>2021-10-07T14:12:51Z</time><name>PT5741</name></trkpt>
<trkpt lat="53.371241" lon="-1.909380"><ele>350</ele><time>2021-10-07T14:12:55Z</time><name>PT5742</name></trkpt>
<trkpt lat="53.371233" lon="-1.909458"><ele>349</ele><time>2021-10-07T14:12:59Z</time><name>PT5743</name></trkpt>
<trkpt lat="53.371229" lon="-1.909530"><ele>347</ele><time>2021-10-07T14:13:03Z</time><name>PT5744</name></trkpt>
<trkpt lat="53.371218" lon="-1.909609"><ele>346</ele><time>2021-10-07T14:13:07Z</time><name>PT5745</name></trkpt>
<trkpt lat="53.371217" lon="-1.909639"><ele>346</ele><time>2021-10-07T14:13:08Z</time><name>PT5746</name></trkpt>
<trkpt lat="53.371218" lon="-1.909665"><ele>345</ele><time>2021-10-07T14:13:09Z</time><name>PT5747</name></trkpt>
<trkpt lat="53.371214" lon="-1.909691"><ele>346</ele><time>2021-10-07T14:13:10Z</time><name>PT5748</name></trkpt>
<trkpt lat="53.371212" lon="-1.909711"><ele>345</ele><time>2021-10-07T14:13:11Z</time><name>PT5749</name></trkpt>
<trkpt lat="53.371208" lon="-1.909734"><ele>344</ele><time>2021-10-07T14:13:12Z</time><name>PT5750</name></trkpt>
<trkpt lat="53.371205" lon="-1.909758"><ele>344</ele><time>2021-10-07T14:13:13Z</time><name>PT5751</name></trkpt>
<trkpt lat="53.371201" lon="-1.909782"><ele>344</ele><time>2021-10-07T14:13:14Z</time><name>PT5752</name></trkpt>
<trkpt lat="53.371196" lon="-1.909806"><ele>344</ele><time>2021-10-07T14:13:15Z</time><name>PT5753</name></trkpt>
<trkpt lat="53.371193" lon="-1.909827"><ele>344</ele><time>2021-10-07T14:13:16Z</time><name>PT5754</name></trkpt>
<trkpt lat="53.371188" lon="-1.909844"><ele>343</ele><time>2021-10-07T14:13:17Z</time><name>PT5755</name></trkpt>
<trkpt lat="53.371186" lon="-1.909859"><ele>343</ele><time>2021-10-07T14:13:18Z</time><name>PT5756</name></trkpt>
<trkpt lat="53.371181" lon="-1.909874"><ele>343</ele><time>2021-10-07T14:13:19Z</time><name>PT5757</name></trkpt>
<trkpt lat="53.371176" lon="-1.909888"><ele>343</ele><time>2021-10-07T14:13:20Z</time><name>PT5758</name></trkpt>
<trkpt lat="53.371171" lon="-1.909901"><ele>343</ele><time>2021-10-07T14:13:21Z</time><name>PT5759</name></trkpt>
<trkpt lat="53.371166" lon="-1.909915"><ele>342</ele><time>2021-10-07T14:13:22Z</time><name>PT5760</name></trkpt>
<trkpt lat="53.371163" lon="-1.909930"><ele>343</ele><time>2021-10-07T14:13:23Z</time><name>PT5761</name></trkpt>
<trkpt lat="53.371160" lon="-1.909946"><ele>342</ele><time>2021-10-07T14:13:24Z</time><name>PT5762</name></trkpt>
<trkpt lat="53.371158" lon="-1.909961"><ele>342</ele><time>2021-10-07T14:13:25Z</time><name>PT5763</name></trkpt>
<trkpt lat="53.371153" lon="-1.909973"><ele>342</ele><time>2021-10-07T14:13:26Z</time><name>PT5764</name></trkpt>
<trkpt lat="53.371149" lon="-1.909987"><ele>341</ele><time>2021-10-07T14:13:27Z</time><name>PT5765</name></trkpt>
<trkpt lat="53.371146" lon="-1.910003"><ele>341</ele><time>2021-10-07T14:13:28Z</time><name>PT5766</name></trkpt>
<trkpt lat="53.371142" lon="-1.910018"><ele>341</ele><time>2021-10-07T14:13:29Z</time><name>PT5767</name></trkpt>
<trkpt lat="53.371138" lon="-1.910028"><ele>341</ele><time>2021-10-07T14:13:30Z</time><name>PT5768</name></trkpt>
<trkpt lat="53.371134" lon="-1.910041"><ele>341</ele><time>2021-10-07T14:13:31Z</time><name>PT5769</name></trkpt>
<trkpt lat="53.371129" lon="-1.910063"><ele>341</ele><time>2021-10-07T14:13:32Z</time><name>PT5770</name></trkpt>
<trkpt lat="53.371124" lon="-1.910081"><ele>341</ele><time>2021-10-07T14:13:33Z</time><name>PT5771</name></trkpt>
<trkpt lat="53.371118" lon="-1.910098"><ele>341</ele><time>2021-10-07T14:13:34Z</time><name>PT5772</name></trkpt>
<trkpt lat="53.371113" lon="-1.910109"><ele>341</ele><time>2021-10-07T14:13:35Z</time><name>PT5773</name></trkpt>
<trkpt lat="53.371106" lon="-1.910122"><ele>342</ele><time>2021-10-07T14:13:36Z</time><name>PT5774</name></trkpt>
<trkpt lat="53.371100" lon="-1.910136"><ele>341</ele><time>2021-10-07T14:13:37Z</time><name>PT5775</name></trkpt>
<trkpt lat="53.371093" lon="-1.910151"><ele>342</ele><time>2021-10-07T14:13:38Z</time><name>PT5776</name></trkpt>
<trkpt lat="53.371088" lon="-1.910165"><ele>341</ele><time>2021-10-07T14:13:39Z</time><name>PT5777</name></trkpt>
<trkpt lat="53.371081" lon="-1.910182"><ele>341</ele><time>2021-10-07T14:13:40Z</time><name>PT5778</name></trkpt>
<trkpt lat="53.371073" lon="-1.910204"><ele>341</ele><time>2021-10-07T14:13:41Z</time><name>PT5779</name></trkpt>
<trkpt lat="53.371065" lon="-1.910220"><ele>340</ele><time>2021-10-07T14:13:42Z</time><name>PT5780</name></trkpt>
<trkpt lat="53.371057" lon="-1.910238"><ele>339</ele><time>2021-10-07T14:13:43Z</time><name>PT5781</name></trkpt>
<trkpt lat="53.371052" lon="-1.910251"><ele>339</ele><time>2021-10-07T14:13:44Z</time><name>PT5782</name></trkpt>
<trkpt lat="53.371046" lon="-1.910266"><ele>339</ele><time>2021-10-07T14:13:45Z</time><name>PT5783</name></trkpt>
<trkpt lat="53.371041" lon="-1.910277"><ele>338</ele><time>2021-10-07T14:13:46Z</time><name>PT5784</name></trkpt>
<trkpt lat="53.371037" lon="-1.910298"><ele>338</ele><time>2021-10-07T14:13:47Z</time><name>PT5785</name></trkpt>
<trkpt lat="53.371032" lon="-1.910318"><ele>338</ele><time>2021-10-07T14:13:48Z</time><name>PT5786</name></trkpt>
<trkpt lat="53.371026" lon="-1.910351"><ele>337</ele><time>2021-10-07T14:13:49Z</time><name>PT5787</name></trkpt>
<trkpt lat="53.371017" lon="-1.910373"><ele>337</ele><time>2021-10-07T14:13:50Z</time><name>PT5788</name></trkpt>
<trkpt lat="53.371006" lon="-1.910399"><ele>337</ele><time>2021-10-07T14:13:51Z</time><name>PT5789</name></trkpt>
<trkpt lat="53.370994" lon="-1.910420"><ele>337</ele><time>2021-10-07T14:13:52Z</time><name>PT5790</name></trkpt>
<trkpt lat="53.370987" lon="-1.910437"><ele>337</ele><time>2021-10-07T14:13:53Z</time><name>PT5791</name></trkpt>
<trkpt lat="53.370980" lon="-1.910452"><ele>336</ele><time>2021-10-07T14:13:54Z</time><name>PT5792</name></trkpt>
<trkpt lat="53.370973" lon="-1.910469"><ele>336</ele><time>2021-10-07T14:13:55Z</time><name>PT5793</name></trkpt>
<trkpt lat="53.370970" lon="-1.910485"><ele>335</ele><time>2021-10-07T14:13:56Z</time><name>PT5794</name></trkpt>
<trkpt lat="53.370962" lon="-1.910505"><ele>335</ele><time>2021-10-07T14:13:57Z</time><name>PT5795</name></trkpt>
<trkpt lat="53.370951" lon="-1.910525"><ele>335</ele><time>2021-10-07T14:13:58Z</time><name>PT5796</name></trkpt>
<trkpt lat="53.370943" lon="-1.910542"><ele>334</ele><time>2021-10-07T14:13:59Z</time><name>PT5797</name></trkpt>
<trkpt lat="53.370936" lon="-1.910557"><ele>334</ele><time>2021-10-07T14:14:00Z</time><name>PT5798</name></trkpt>
<trkpt lat="53.370931" lon="-1.910573"><ele>334</ele><time>2021-10-07T14:14:01Z</time><name>PT5799</name></trkpt>
<trkpt lat="53.370921" lon="-1.910593"><ele>334</ele><time>2021-10-07T14:14:02Z</time><name>PT5800</name></trkpt>
<trkpt lat="53.370912" lon="-1.910612"><ele>333</ele><time>2021-10-07T14:14:03Z</time><name>PT5801</name></trkpt>
<trkpt lat="53.370903" lon="-1.910627"><ele>333</ele><time>2021-10-07T14:14:04Z</time><name>PT5802</name></trkpt>
<trkpt lat="53.370894" lon="-1.910644"><ele>333</ele><time>2021-10-07T14:14:05Z</time><name>PT5803</name></trkpt>
<trkpt lat="53.370885" lon="-1.910659"><ele>333</ele><time>2021-10-07T14:14:06Z</time><name>PT5804</name></trkpt>
<trkpt lat="53.370876" lon="-1.910672"><ele>333</ele><time>2021-10-07T14:14:07Z</time><name>PT5805</name></trkpt>
<trkpt lat="53.370869" lon="-1.910688"><ele>333</ele><time>2021-10-07T14:14:08Z</time><name>PT5806</name></trkpt>
<trkpt lat="53.370861" lon="-1.910699"><ele>333</ele><time>2021-10-07T14:14:09Z</time><name>PT5807</name></trkpt>
<trkpt lat="53.370852" lon="-1.910709"><ele>333</ele><time>2021-10-07T14:14:10Z</time><name>PT5808</name></trkpt>
<trkpt lat="53.370844" lon="-1.910718"><ele>332</ele><time>2021-10-07T14:14:11Z</time><name>PT5809</name></trkpt>
<trkpt lat="53.370835" lon="-1.910734"><ele>332</ele><time>2021-10-07T14:14:12Z</time><name>PT5810</name></trkpt>
<trkpt lat="53.370823" lon="-1.910749"><ele>332</ele><time>2021-10-07T14:14:13Z</time><name>PT5811</name></trkpt>
<trkpt lat="53.370814" lon="-1.910762"><ele>332</ele><time>2021-10-07T14:14:14Z</time><name>PT5812</name></trkpt>
<trkpt lat="53.370806" lon="-1.910775"><ele>332</ele><time>2021-10-07T14:14:15Z</time><name>PT5813</name></trkpt>
<trkpt lat="53.370800" lon="-1.910787"><ele>331</ele><time>2021-10-07T14:14:16Z</time><name>PT5814</name></trkpt>
<trkpt lat="53.370793" lon="-1.910804"><ele>331</ele><time>2021-10-07T14:14:17Z</time><name>PT5815</name></trkpt>
<trkpt lat="53.370786" lon="-1.910818"><ele>331</ele><time>2021-10-07T14:14:18Z</time><name>PT5816</name></trkpt>
<trkpt lat="53.370777" lon="-1.910834"><ele>331</ele><time>2021-10-07T14:14:19Z</time><name>PT5817</name></trkpt>
<trkpt lat="53.370765" lon="-1.910853"><ele>330</ele><time>2021-10-07T14:14:20Z</time><name>PT5818</name></trkpt>
<trkpt lat="53.370756" lon="-1.910868"><ele>330</ele><time>2021-10-07T14:14:21Z</time><name>PT5819</name></trkpt>
<trkpt lat="53.370747" lon="-1.910881"><ele>329</ele><time>2021-10-07T14:14:22Z</time><name>PT5820</name></trkpt>
<trkpt lat="53.370739" lon="-1.910883"><ele>328</ele><time>2021-10-07T14:14:23Z</time><name>PT5821</name></trkpt>
<trkpt lat="53.370726" lon="-1.910894"><ele>328</ele><time>2021-10-07T14:14:24Z</time><name>PT5822</name></trkpt>
<trkpt lat="53.370718" lon="-1.910904"><ele>328</ele><time>2021-10-07T14:14:25Z</time><name>PT5823</name></trkpt>
<trkpt lat="53.370709" lon="-1.910918"><ele>327</ele><time>2021-10-07T14:14:26Z</time><name>PT5824</name></trkpt>
<trkpt lat="53.370703" lon="-1.910929"><ele>327</ele><time>2021-10-07T14:14:27Z</time><name>PT5825</name></trkpt>
<trkpt lat="53.370698" lon="-1.910941"><ele>327</ele><time>2021-10-07T14:14:28Z</time><name>PT5826</name></trkpt>
<trkpt lat="53.370692" lon="-1.910953"><ele>328</ele><time>2021-10-07T14:14:29Z</time><name>PT5827</name></trkpt>
<trkpt lat="53.370686" lon="-1.910967"><ele>328</ele><time>2021-10-07T14:14:30Z</time><name>PT5828</name></trkpt>
<trkpt lat="53.370679" lon="-1.910981"><ele>327</ele><time>2021-10-07T14:14:31Z</time><name>PT5829</name></trkpt>
<trkpt lat="53.370674" lon="-1.910993"><ele>328</ele><time>2021-10-07T14:14:32Z</time><name>PT5830</name></trkpt>
<trkpt lat="53.370667" lon="-1.911004"><ele>327</ele><time>2021-10-07T14:14:33Z</time><name>PT5831</name></trkpt>
<trkpt lat="53.370658" lon="-1.911013"><ele>328</ele><time>2021-10-07T14:14:34Z</time><name>PT5832</name></trkpt>
<trkpt lat="53.370650" lon="-1.911024"><ele>327</ele><time>2021-10-07T14:14:35Z</time><name>PT5833</name></trkpt>
<trkpt lat="53.370646" lon="-1.911031"><ele>327</ele><time>2021-10-07T14:14:36Z</time><name>PT5834</name></trkpt>
<trkpt lat="53.370640" lon="-1.911044"><ele>327</ele><time>2021-10-07T14:14:37Z</time><name>PT5835</name></trkpt>
<trkpt lat="53.370633" lon="-1.911056"><ele>326</ele><time>2021-10-07T14:14:38Z</time><name>PT5836</name></trkpt>
<trkpt lat="53.370627" lon="-1.911065"><ele>326</ele><time>2021-10-07T14:14:39Z</time><name>PT5837</name></trkpt>
<trkpt lat="53.370620" lon="-1.911080"><ele>326</ele><time>2021-10-07T14:14:40Z</time><name>PT5838</name></trkpt>
<trkpt lat="53.370614" lon="-1.911096"><ele>326</ele><time>2021-10-07T14:14:41Z</time><name>PT5839</name></trkpt>
<trkpt lat="53.370609" lon="-1.911112"><ele>325</ele><time>2021-10-07T14:14:42Z</time><name>PT5840</name></trkpt>
<trkpt lat="53.370602" lon="-1.911131"><ele>326</ele><time>2021-10-07T14:14:43Z</time><name>PT5841</name></trkpt>
<trkpt lat="53.370596" lon="-1.911148"><ele>325</ele><time>2021-10-07T14:14:44Z</time><name>PT5842</name></trkpt>
<trkpt lat="53.370587" lon="-1.911173"><ele>325</ele><time>2021-10-07T14:14:45Z</time><name>PT5843</name></trkpt>
<trkpt lat="53.370582" lon="-1.911194"><ele>324</ele><time>2021-10-07T14:14:46Z</time><name>PT5844</name></trkpt>
<trkpt lat="53.370576" lon="-1.911211"><ele>324</ele><time>2021-10-07T14:14:47Z</time><name>PT5845</name></trkpt>
<trkpt lat="53.370570" lon="-1.911230"><ele>323</ele><time>2021-10-07T14:14:48Z</time><name>PT5846</name></trkpt>
<trkpt lat="53.370563" lon="-1.911248"><ele>323</ele><time>2021-10-07T14:14:49Z</time><name>PT5847</name></trkpt>
<trkpt lat="53.370557" lon="-1.911268"><ele>323</ele><time>2021-10-07T14:14:50Z</time><name>PT5848</name></trkpt>
<trkpt lat="53.370551" lon="-1.911279"><ele>323</ele><time>2021-10-07T14:14:51Z</time><name>PT5849</name></trkpt>
<trkpt lat="53.370547" lon="-1.911288"><ele>323</ele><time>2021-10-07T14:14:52Z</time><name>PT5850</name></trkpt>
<trkpt lat="53.370542" lon="-1.911299"><ele>322</ele><time>2021-10-07T14:14:53Z</time><name>PT5851</name></trkpt>
<trkpt lat="53.370538" lon="-1.911309"><ele>322</ele><time>2021-10-07T14:14:54Z</time><name>PT5852</name></trkpt>
<trkpt lat="53.370531" lon="-1.911323"><ele>322</ele><time>2021-10-07T14:14:55Z</time><name>PT5853</name></trkpt>
<trkpt lat="53.370526" lon="-1.911341"><ele>322</ele><time>2021-10-07T14:14:56Z</time><name>PT5854</name></trkpt>
<trkpt lat="53.370521" lon="-1.911357"><ele>321</ele><time>2021-10-07T14:14:57Z</time><name>PT5855</name></trkpt>
<trkpt lat="53.370514" lon="-1.911368"><ele>321</ele><time>2021-10-07T14:14:58Z</time><name>PT5856</name></trkpt>
<trkpt lat="53.370508" lon="-1.911377"><ele>321</ele><time>2021-10-07T14:14:59Z</time><name>PT5857</name></trkpt>
<trkpt lat="53.370503" lon="-1.911389"><ele>321</ele><time>2021-10-07T14:15:00Z</time><name>PT5858</name></trkpt>
<trkpt lat="53.370498" lon="-1.911400"><ele>321</ele><time>2021-10-07T14:15:01Z</time><name>PT5859</name></trkpt>
<trkpt lat="53.370493" lon="-1.911412"><ele>322</ele><time>2021-10-07T14:15:02Z</time><name>PT5860</name></trkpt>
<trkpt lat="53.370490" lon="-1.911430"><ele>321</ele><time>2021-10-07T14:15:03Z</time><name>PT5861</name></trkpt>
<trkpt lat="53.370485" lon="-1.911448"><ele>321</ele><time>2021-10-07T14:15:04Z</time><name>PT5862</name></trkpt>
<trkpt lat="53.370481" lon="-1.911467"><ele>321</ele><time>2021-10-07T14:15:05Z</time><name>PT5863</name></trkpt>
<trkpt lat="53.370476" lon="-1.911484"><ele>321</ele><time>2021-10-07T14:15:06Z</time><name>PT5864</name></trkpt>
<trkpt lat="53.370455" lon="-1.911539"><ele>320</ele><time>2021-10-07T14:15:09Z</time><name>PT5865</name></trkpt>
<trkpt lat="53.370427" lon="-1.911596"><ele>320</ele><time>2021-10-07T14:15:13Z</time><name>PT5866</name></trkpt>
<trkpt lat="53.370401" lon="-1.911658"><ele>318</ele><time>2021-10-07T14:15:17Z</time><name>PT5867</name></trkpt>
<trkpt lat="53.370381" lon="-1.911714"><ele>318</ele><time>2021-10-07T14:15:21Z</time><name>PT5868</name></trkpt>
<trkpt lat="53.370368" lon="-1.911774"><ele>317</ele><time>2021-10-07T14:15:25Z</time><name>PT5869</name></trkpt>
<trkpt lat="53.370369" lon="-1.911778"><ele>316</ele><time>2021-10-07T14:15:29Z</time><name>PT5870</name></trkpt>
<trkpt lat="53.370367" lon="-1.911783"><ele>316</ele><time>2021-10-07T14:15:33Z</time><name>PT5871</name></trkpt>
<trkpt lat="53.370364" lon="-1.911810"><ele>317</ele><time>2021-10-07T14:15:41Z</time><name>PT5872</name></trkpt>
<trkpt lat="53.370345" lon="-1.911871"><ele>316</ele><time>2021-10-07T14:15:45Z</time><name>PT5873</name></trkpt>
<trkpt lat="53.370323" lon="-1.911939"><ele>315</ele><time>2021-10-07T14:15:49Z</time><name>PT5874</name></trkpt>
<trkpt lat="53.370304" lon="-1.911985"><ele>314</ele><time>2021-10-07T14:15:53Z</time><name>PT5875</name></trkpt>
<trkpt lat="53.370284" lon="-1.912031"><ele>313</ele><time>2021-10-07T14:15:57Z</time><name>PT5876</name></trkpt>
<trkpt lat="53.370261" lon="-1.912103"><ele>312</ele><time>2021-10-07T14:16:01Z</time><name>PT5877</name></trkpt>
<trkpt lat="53.370241" lon="-1.912152"><ele>311</ele><time>2021-10-07T14:16:05Z</time><name>PT5878</name></trkpt>
<trkpt lat="53.370215" lon="-1.912216"><ele>310</ele><time>2021-10-07T14:16:09Z</time><name>PT5879</name></trkpt>
<trkpt lat="53.370197" lon="-1.912280"><ele>309</ele><time>2021-10-07T14:16:13Z</time><name>PT5880</name></trkpt>
<trkpt lat="53.370182" lon="-1.912347"><ele>309</ele><time>2021-10-07T14:16:17Z</time><name>PT5881</name></trkpt>
<trkpt lat="53.370167" lon="-1.912398"><ele>308</ele><time>2021-10-07T14:16:21Z</time><name>PT5882</name></trkpt>
<trkpt lat="53.370150" lon="-1.912459"><ele>307</ele><time>2021-10-07T14:16:25Z</time><name>PT5883</name></trkpt>
<trkpt lat="53.370137" lon="-1.912538"><ele>306</ele><time>2021-10-07T14:16:29Z</time><name>PT5884</name></trkpt>
<trkpt lat="53.370115" lon="-1.912602"><ele>305</ele><time>2021-10-07T14:16:33Z</time><name>PT5885</name></trkpt>
<trkpt lat="53.370097" lon="-1.912673"><ele>304</ele><time>2021-10-07T14:16:37Z</time><name>PT5886</name></trkpt>
<trkpt lat="53.370077" lon="-1.912743"><ele>303</ele><time>2021-10-07T14:16:41Z</time><name>PT5887</name></trkpt>
<trkpt lat="53.370065" lon="-1.912811"><ele>302</ele><time>2021-10-07T14:16:45Z</time><name>PT5888</name></trkpt>
<trkpt lat="53.370049" lon="-1.912877"><ele>300</ele><time>2021-10-07T14:16:49Z</time><name>PT5889</name></trkpt>
<trkpt lat="53.370031" lon="-1.912955"><ele>300</ele><time>2021-10-07T14:16:53Z</time><name>PT5890</name></trkpt>
<trkpt lat="53.370026" lon="-1.913035"><ele>299</ele><time>2021-10-07T14:16:57Z</time><name>PT5891</name></trkpt>
<trkpt lat="53.370029" lon="-1.913105"><ele>299</ele><time>2021-10-07T14:17:01Z</time><name>PT5892</name></trkpt>
<trkpt lat="53.370036" lon="-1.913170"><ele>298</ele><time>2021-10-07T14:17:05Z</time><name>PT5893</name></trkpt>
<trkpt lat="53.370047" lon="-1.913262"><ele>297</ele><time>2021-10-07T14:17:09Z</time><name>PT5894</name></trkpt>
<trkpt lat="53.370052" lon="-1.913333"><ele>296</ele><time>2021-10-07T14:17:13Z</time><name>PT5895</name></trkpt>
<trkpt lat="53.370057" lon="-1.913395"><ele>295</ele><time>2021-10-07T14:17:17Z</time><name>PT5896</name></trkpt>
<trkpt lat="53.370050" lon="-1.913464"><ele>294</ele><time>2021-10-07T14:17:21Z</time><name>PT5897</name></trkpt>
<trkpt lat="53.370066" lon="-1.913553"><ele>294</ele><time>2021-10-07T14:17:25Z</time><name>PT5898</name></trkpt>
<trkpt lat="53.370065" lon="-1.913652"><ele>295</ele><time>2021-10-07T14:17:29Z</time><name>PT5899</name></trkpt>
<trkpt lat="53.370065" lon="-1.913711"><ele>295</ele><time>2021-10-07T14:17:33Z</time><name>PT5900</name></trkpt>
<trkpt lat="53.370064" lon="-1.913755"><ele>295</ele><time>2021-10-07T14:17:37Z</time><name>PT5901</name></trkpt>
<trkpt lat="53.370045" lon="-1.913837"><ele>295</ele><time>2021-10-07T14:17:57Z</time><name>PT5902</name></trkpt>
<trkpt lat="53.370024" lon="-1.913913"><ele>295</ele><time>2021-10-07T14:18:01Z</time><name>PT5903</name></trkpt>
<trkpt lat="53.370005" lon="-1.913965"><ele>295</ele><time>2021-10-07T14:18:05Z</time><name>PT5904</name></trkpt>
<trkpt lat="53.369994" lon="-1.914008"><ele>295</ele><time>2021-10-07T14:18:08Z</time><name>PT5905</name></trkpt>
<trkpt lat="53.369991" lon="-1.914036"><ele>295</ele><time>2021-10-07T14:18:09Z</time><name>PT5906</name></trkpt>
<trkpt lat="53.369987" lon="-1.914062"><ele>294</ele><time>2021-10-07T14:18:10Z</time><name>PT5907</name></trkpt>
<trkpt lat="53.369983" lon="-1.914086"><ele>294</ele><time>2021-10-07T14:18:11Z</time><name>PT5908</name></trkpt>
<trkpt lat="53.369980" lon="-1.914107"><ele>294</ele><time>2021-10-07T14:18:12Z</time><name>PT5909</name></trkpt>
<trkpt lat="53.369975" lon="-1.914125"><ele>294</ele><time>2021-10-07T14:18:13Z</time><name>PT5910</name></trkpt>
<trkpt lat="53.369971" lon="-1.914142"><ele>294</ele><time>2021-10-07T14:18:14Z</time><name>PT5911</name></trkpt>
<trkpt lat="53.369967" lon="-1.914162"><ele>294</ele><time>2021-10-07T14:18:15Z</time><name>PT5912</name></trkpt>
<trkpt lat="53.369963" lon="-1.914186"><ele>294</ele><time>2021-10-07T14:18:16Z</time><name>PT5913</name></trkpt>
<trkpt lat="53.369958" lon="-1.914210"><ele>293</ele><time>2021-10-07T14:18:17Z</time><name>PT5914</name></trkpt>
<trkpt lat="53.369954" lon="-1.914224"><ele>292</ele><time>2021-10-07T14:18:18Z</time><name>PT5915</name></trkpt>
<trkpt lat="53.369949" lon="-1.914238"><ele>292</ele><time>2021-10-07T14:18:19Z</time><name>PT5916</name></trkpt>
<trkpt lat="53.369945" lon="-1.914251"><ele>292</ele><time>2021-10-07T14:18:20Z</time><name>PT5917</name></trkpt>
<trkpt lat="53.369941" lon="-1.914269"><ele>292</ele><time>2021-10-07T14:18:21Z</time><name>PT5918</name></trkpt>
<trkpt lat="53.369937" lon="-1.914289"><ele>292</ele><time>2021-10-07T14:18:22Z</time><name>PT5919</name></trkpt>
<trkpt lat="53.369932" lon="-1.914309"><ele>291</ele><time>2021-10-07T14:18:23Z</time><name>PT5920</name></trkpt>
<trkpt lat="53.369927" lon="-1.914325"><ele>291</ele><time>2021-10-07T14:18:24Z</time><name>PT5921</name></trkpt>
<trkpt lat="53.369922" lon="-1.914341"><ele>291</ele><time>2021-10-07T14:18:25Z</time><name>PT5922</name></trkpt>
<trkpt lat="53.369916" lon="-1.914359"><ele>291</ele><time>2021-10-07T14:18:26Z</time><name>PT5923</name></trkpt>
<trkpt lat="53.369907" lon="-1.914380"><ele>290</ele><time>2021-10-07T14:18:27Z</time><name>PT5924</name></trkpt>
<trkpt lat="53.369902" lon="-1.914403"><ele>290</ele><time>2021-10-07T14:18:28Z</time><name>PT5925</name></trkpt>
<trkpt lat="53.369898" lon="-1.914422"><ele>290</ele><time>2021-10-07T14:18:29Z</time><name>PT5926</name></trkpt>
<trkpt lat="53.369895" lon="-1.914437"><ele>290</ele><time>2021-10-07T14:18:30Z</time><name>PT5927</name></trkpt>
<trkpt lat="53.369890" lon="-1.914453"><ele>290</ele><time>2021-10-07T14:18:31Z</time><name>PT5928</name></trkpt>
<trkpt lat="53.369887" lon="-1.914471"><ele>289</ele><time>2021-10-07T14:18:32Z</time><name>PT5929</name></trkpt>
<trkpt lat="53.369882" lon="-1.914491"><ele>289</ele><time>2021-10-07T14:18:33Z</time><name>PT5930</name></trkpt>
<trkpt lat="53.369877" lon="-1.914503"><ele>289</ele><time>2021-10-07T14:18:34Z</time><name>PT5931</name></trkpt>
<trkpt lat="53.369877" lon="-1.914520"><ele>288</ele><time>2021-10-07T14:18:35Z</time><name>PT5932</name></trkpt>
<trkpt lat="53.369873" lon="-1.914539"><ele>289</ele><time>2021-10-07T14:18:36Z</time><name>PT5933</name></trkpt>
<trkpt lat="53.369871" lon="-1.914552"><ele>289</ele><time>2021-10-07T14:18:37Z</time><name>PT5934</name></trkpt>
<trkpt lat="53.369870" lon="-1.914567"><ele>289</ele><time>2021-10-07T14:18:38Z</time><name>PT5935</name></trkpt>
<trkpt lat="53.369866" lon="-1.914581"><ele>289</ele><time>2021-10-07T14:18:39Z</time><name>PT5936</name></trkpt>
<trkpt lat="53.369862" lon="-1.914600"><ele>289</ele><time>2021-10-07T14:18:40Z</time><name>PT5937</name></trkpt>
<trkpt lat="53.369858" lon="-1.914618"><ele>288</ele><time>2021-10-07T14:18:41Z</time><name>PT5938</name></trkpt>
<trkpt lat="53.369854" lon="-1.914636"><ele>288</ele><time>2021-10-07T14:18:42Z</time><name>PT5939</name></trkpt>
<trkpt lat="53.369852" lon="-1.914654"><ele>288</ele><time>2021-10-07T14:18:43Z</time><name>PT5940</name></trkpt>
<trkpt lat="53.369851" lon="-1.914673"><ele>288</ele><time>2021-10-07T14:18:44Z</time><name>PT5941</name></trkpt>
<trkpt lat="53.369849" lon="-1.914692"><ele>288</ele><time>2021-10-07T14:18:45Z</time><name>PT5942</name></trkpt>
<trkpt lat="53.369847" lon="-1.914703"><ele>287</ele><time>2021-10-07T14:18:46Z</time><name>PT5943</name></trkpt>
<trkpt lat="53.369843" lon="-1.914718"><ele>287</ele><time>2021-10-07T14:18:47Z</time><name>PT5944</name></trkpt>
<trkpt lat="53.369840" lon="-1.914733"><ele>287</ele><time>2021-10-07T14:18:48Z</time><name>PT5945</name></trkpt>
<trkpt lat="53.369838" lon="-1.914755"><ele>286</ele><time>2021-10-07T14:18:49Z</time><name>PT5946</name></trkpt>
<trkpt lat="53.369835" lon="-1.914775"><ele>286</ele><time>2021-10-07T14:18:50Z</time><name>PT5947</name></trkpt>
<trkpt lat="53.369833" lon="-1.914794"><ele>286</ele><time>2021-10-07T14:18:51Z</time><name>PT5948</name></trkpt>
<trkpt lat="53.369831" lon="-1.914814"><ele>286</ele><time>2021-10-07T14:18:52Z</time><name>PT5949</name></trkpt>
<trkpt lat="53.369825" lon="-1.914843"><ele>287</ele><time>2021-10-07T14:18:53Z</time><name>PT5950</name></trkpt>
<trkpt lat="53.369821" lon="-1.914869"><ele>286</ele><time>2021-10-07T14:18:54Z</time><name>PT5951</name></trkpt>
<trkpt lat="53.369818" lon="-1.914890"><ele>286</ele><time>2021-10-07T14:18:55Z</time><name>PT5952</name></trkpt>
<trkpt lat="53.369815" lon="-1.914913"><ele>287</ele><time>2021-10-07T14:18:56Z</time><name>PT5953</name></trkpt>
<trkpt lat="53.369810" lon="-1.914938"><ele>287</ele><time>2021-10-07T14:18:57Z</time><name>PT5954</name></trkpt>
<trkpt lat="53.369805" lon="-1.914957"><ele>287</ele><time>2021-10-07T14:18:58Z</time><name>PT5955</name></trkpt>
<trkpt lat="53.369802" lon="-1.914978"><ele>287</ele><time>2021-10-07T14:18:59Z</time><name>PT5956</name></trkpt>
<trkpt lat="53.369800" lon="-1.914995"><ele>287</ele><time>2021-10-07T14:19:00Z</time><name>PT5957</name></trkpt>
<trkpt lat="53.369796" lon="-1.915013"><ele>286</ele><time>2021-10-07T14:19:01Z</time><name>PT5958</name></trkpt>
<trkpt lat="53.369793" lon="-1.915042"><ele>286</ele><time>2021-10-07T14:19:02Z</time><name>PT5959</name></trkpt>
<trkpt lat="53.369790" lon="-1.915064"><ele>286</ele><time>2021-10-07T14:19:03Z</time><name>PT5960</name></trkpt>
<trkpt lat="53.369788" lon="-1.915078"><ele>286</ele><time>2021-10-07T14:19:04Z</time><name>PT5961</name></trkpt>
<trkpt lat="53.369784" lon="-1.915096"><ele>285</ele><time>2021-10-07T14:19:05Z</time><name>PT5962</name></trkpt>
<trkpt lat="53.369781" lon="-1.915125"><ele>284</ele><time>2021-10-07T14:19:06Z</time><name>PT5963</name></trkpt>
<trkpt lat="53.369780" lon="-1.915149"><ele>284</ele><time>2021-10-07T14:19:07Z</time><name>PT5964</name></trkpt>
<trkpt lat="53.369779" lon="-1.915164"><ele>283</ele><time>2021-10-07T14:19:08Z</time><name>PT5965</name></trkpt>
<trkpt lat="53.369777" lon="-1.915180"><ele>284</ele><time>2021-10-07T14:19:09Z</time><name>PT5966</name></trkpt>
<trkpt lat="53.369778" lon="-1.915196"><ele>285</ele><time>2021-10-07T14:19:10Z</time><name>PT5967</name></trkpt>
<trkpt lat="53.369774" lon="-1.915214"><ele>285</ele><time>2021-10-07T14:19:11Z</time><name>PT5968</name></trkpt>
<trkpt lat="53.369769" lon="-1.915231"><ele>285</ele><time>2021-10-07T14:19:12Z</time><name>PT5969</name></trkpt>
<trkpt lat="53.369765" lon="-1.915253"><ele>284</ele><time>2021-10-07T14:19:13Z</time><name>PT5970</name></trkpt>
<trkpt lat="53.369762" lon="-1.915271"><ele>284</ele><time>2021-10-07T14:19:14Z</time><name>PT5971</name></trkpt>
<trkpt lat="53.369760" lon="-1.915290"><ele>284</ele><time>2021-10-07T14:19:15Z</time><name>PT5972</name></trkpt>
<trkpt lat="53.369759" lon="-1.915305"><ele>284</ele><time>2021-10-07T14:19:16Z</time><name>PT5973</name></trkpt>
<trkpt lat="53.369758" lon="-1.915317"><ele>285</ele><time>2021-10-07T14:19:17Z</time><name>PT5974</name></trkpt>
<trkpt lat="53.369757" lon="-1.915346"><ele>285</ele><time>2021-10-07T14:19:18Z</time><name>PT5975</name></trkpt>
<trkpt lat="53.369754" lon="-1.915365"><ele>284</ele><time>2021-10-07T14:19:19Z</time><name>PT5976</name></trkpt>
<trkpt lat="53.369749" lon="-1.915385"><ele>285</ele><time>2021-10-07T14:19:20Z</time><name>PT5977</name></trkpt>
<trkpt lat="53.369743" lon="-1.915398"><ele>285</ele><time>2021-10-07T14:19:21Z</time><name>PT5978</name></trkpt>
<trkpt lat="53.369739" lon="-1.915407"><ele>285</ele><time>2021-10-07T14:19:22Z</time><name>PT5979</name></trkpt>
<trkpt lat="53.369730" lon="-1.915423"><ele>285</ele><time>2021-10-07T14:19:23Z</time><name>PT5980</name></trkpt>
<trkpt lat="53.369725" lon="-1.915438"><ele>285</ele><time>2021-10-07T14:19:24Z</time><name>PT5981</name></trkpt>
<trkpt lat="53.369724" lon="-1.915452"><ele>286</ele><time>2021-10-07T14:19:25Z</time><name>PT5982</name></trkpt>
<trkpt lat="53.369720" lon="-1.915468"><ele>286</ele><time>2021-10-07T14:19:26Z</time><name>PT5983</name></trkpt>
<trkpt lat="53.369714" lon="-1.915487"><ele>286</ele><time>2021-10-07T14:19:27Z</time><name>PT5984</name></trkpt>
<trkpt lat="53.369708" lon="-1.915496"><ele>286</ele><time>2021-10-07T14:19:28Z</time><name>PT5985</name></trkpt>
<trkpt lat="53.369706" lon="-1.915504"><ele>286</ele><time>2021-10-07T14:19:29Z</time><name>PT5986</name></trkpt>
<trkpt lat="53.369702" lon="-1.915516"><ele>287</ele><time>2021-10-07T14:19:30Z</time><name>PT5987</name></trkpt>
<trkpt lat="53.369696" lon="-1.915526"><ele>286</ele><time>2021-10-07T14:19:31Z</time><name>PT5988</name></trkpt>
<trkpt lat="53.369691" lon="-1.915539"><ele>286</ele><time>2021-10-07T14:19:32Z</time><name>PT5989</name></trkpt>
<trkpt lat="53.369688" lon="-1.915554"><ele>286</ele><time>2021-10-07T14:19:33Z</time><name>PT5990</name></trkpt>
<trkpt lat="53.369683" lon="-1.915564"><ele>286</ele><time>2021-10-07T14:19:34Z</time><name>PT5991</name></trkpt>
<trkpt lat="53.369676" lon="-1.915580"><ele>286</ele><time>2021-10-07T14:19:35Z</time><name>PT5992</name></trkpt>
<trkpt lat="53.369668" lon="-1.915590"><ele>285</ele><time>2021-10-07T14:19:36Z</time><name>PT5993</name></trkpt>
<trkpt lat="53.369659" lon="-1.915608"><ele>284</ele><time>2021-10-07T14:19:37Z</time><name>PT5994</name></trkpt>
<trkpt lat="53.369656" lon="-1.915621"><ele>283</ele><time>2021-10-07T14:19:38Z</time><name>PT5995</name></trkpt>
<trkpt lat="53.369653" lon="-1.915634"><ele>282</ele><time>2021-10-07T14:19:39Z</time><name>PT5996</name></trkpt>
<trkpt lat="53.369651" lon="-1.915642"><ele>282</ele><time>2021-10-07T14:19:40Z</time><name>PT5997</name></trkpt>
<trkpt lat="53.369651" lon="-1.915655"><ele>283</ele><time>2021-10-07T14:19:41Z</time><name>PT5998</name></trkpt>
<trkpt lat="53.369647" lon="-1.915672"><ele>282</ele><time>2021-10-07T14:19:42Z</time><name>PT5999</name></trkpt>
<trkpt lat="53.369641" lon="-1.915702"><ele>282</ele><time>2021-10-07T14:19:43Z</time><name>PT6000</name></trkpt>
<trkpt lat="53.369636" lon="-1.915722"><ele>282</ele><time>2021-10-07T14:19:44Z</time><name>PT6001</name></trkpt>
<trkpt lat="53.369631" lon="-1.915739"><ele>282</ele><time>2021-10-07T14:19:45Z</time><name>PT6002</name></trkpt>
<trkpt lat="53.369622" lon="-1.915754"><ele>282</ele><time>2021-10-07T14:19:46Z</time><name>PT6003</name></trkpt>
<trkpt lat="53.369618" lon="-1.915758"><ele>281</ele><time>2021-10-07T14:19:47Z</time><name>PT6004</name></trkpt>
<trkpt lat="53.369613" lon="-1.915783"><ele>281</ele><time>2021-10-07T14:19:48Z</time><name>PT6005</name></trkpt>
<trkpt lat="53.369608" lon="-1.915794"><ele>281</ele><time>2021-10-07T14:19:49Z</time><name>PT6006</name></trkpt>
<trkpt lat="53.369598" lon="-1.915830"><ele>283</ele><time>2021-10-07T14:19:50Z</time><name>PT6007</name></trkpt>
<trkpt lat="53.369595" lon="-1.915863"><ele>282</ele><time>2021-10-07T14:19:51Z</time><name>PT6008</name></trkpt>
<trkpt lat="53.369592" lon="-1.915901"><ele>283</ele><time>2021-10-07T14:19:52Z</time><name>PT6009</name></trkpt>
<trkpt lat="53.369591" lon="-1.915927"><ele>283</ele><time>2021-10-07T14:19:53Z</time><name>PT6010</name></trkpt>
<trkpt lat="53.369574" lon="-1.916032"><ele>284</ele><time>2021-10-07T14:19:54Z</time><name>PT6011</name></trkpt>
<trkpt lat="53.369568" lon="-1.916065"><ele>284</ele><time>2021-10-07T14:19:55Z</time><name>PT6012</name></trkpt>
<trkpt lat="53.369555" lon="-1.916132"><ele>283</ele><time>2021-10-07T14:19:56Z</time><name>PT6013</name></trkpt>
<trkpt lat="53.369551" lon="-1.916154"><ele>283</ele><time>2021-10-07T14:19:57Z</time><name>PT6014</name></trkpt>
<trkpt lat="53.369549" lon="-1.916174"><ele>283</ele><time>2021-10-07T14:19:58Z</time><name>PT6015</name></trkpt>
<trkpt lat="53.369549" lon="-1.916195"><ele>283</ele><time>2021-10-07T14:19:59Z</time><name>PT6016</name></trkpt>
<trkpt lat="53.369547" lon="-1.916215"><ele>284</ele><time>2021-10-07T14:20:00Z</time><name>PT6017</name></trkpt>
<trkpt lat="53.369547" lon="-1.916232"><ele>284</ele><time>2021-10-07T14:20:01Z</time><name>PT6018</name></trkpt>
<trkpt lat="53.369543" lon="-1.916253"><ele>284</ele><time>2021-10-07T14:20:02Z</time><name>PT6019</name></trkpt>
<trkpt lat="53.369540" lon="-1.916278"><ele>284</ele><time>2021-10-07T14:20:03Z</time><name>PT6020</name></trkpt>
<trkpt lat="53.369537" lon="-1.916292"><ele>284</ele><time>2021-10-07T14:20:04Z</time><name>PT6021</name></trkpt>
<trkpt lat="53.369534" lon="-1.916312"><ele>284</ele><time>2021-10-07T14:20:05Z</time><name>PT6022</name></trkpt>
<trkpt lat="53.369530" lon="-1.916336"><ele>284</ele><time>2021-10-07T14:20:06Z</time><name>PT6023</name></trkpt>
<trkpt lat="53.369528" lon="-1.916358"><ele>285</ele><time>2021-10-07T14:20:07Z</time><name>PT6024</name></trkpt>
<trkpt lat="53.369524" lon="-1.916376"><ele>285</ele><time>2021-10-07T14:20:08Z</time><name>PT6025</name></trkpt>
<trkpt lat="53.369521" lon="-1.916392"><ele>284</ele><time>2021-10-07T14:20:09Z</time><name>PT6026</name></trkpt>
<trkpt lat="53.369519" lon="-1.916402"><ele>284</ele><time>2021-10-07T14:20:10Z</time><name>PT6027</name></trkpt>
<trkpt lat="53.369517" lon="-1.916412"><ele>284</ele><time>2021-10-07T14:20:11Z</time><name>PT6028</name></trkpt>
<trkpt lat="53.369514" lon="-1.916418"><ele>284</ele><time>2021-10-07T14:20:12Z</time><name>PT6029</name></trkpt>
<trkpt lat="53.369511" lon="-1.916425"><ele>285</ele><time>2021-10-07T14:20:13Z</time><name>PT6030</name></trkpt>
<trkpt lat="53.369509" lon="-1.916429"><ele>285</ele><time>2021-10-07T14:20:14Z</time><name>PT6031</name></trkpt>
<trkpt lat="53.369500" lon="-1.916452"><ele>284</ele><time>2021-10-07T14:20:16Z</time><name>PT6032</name></trkpt>
<trkpt lat="53.369490" lon="-1.916453"><ele>283</ele><time>2021-10-07T14:20:17Z</time><name>PT6033</name></trkpt>
<trkpt lat="53.369487" lon="-1.916460"><ele>283</ele><time>2021-10-07T14:20:18Z</time><name>PT6034</name></trkpt>
<trkpt lat="53.369491" lon="-1.916479"><ele>284</ele><time>2021-10-07T14:20:25Z</time><name>PT6035</name></trkpt>
<trkpt lat="53.369492" lon="-1.916492"><ele>284</ele><time>2021-10-07T14:20:26Z</time><name>PT6036</name></trkpt>
<trkpt lat="53.369488" lon="-1.916515"><ele>284</ele><time>2021-10-07T14:20:27Z</time><name>PT6037</name></trkpt>
<trkpt lat="53.369484" lon="-1.916527"><ele>284</ele><time>2021-10-07T14:20:28Z</time><name>PT6038</name></trkpt>
<trkpt lat="53.369481" lon="-1.916546"><ele>284</ele><time>2021-10-07T14:20:29Z</time><name>PT6039</name></trkpt>
<trkpt lat="53.369478" lon="-1.916560"><ele>284</ele><time>2021-10-07T14:20:30Z</time><name>PT6040</name></trkpt>
<trkpt lat="53.369476" lon="-1.916575"><ele>283</ele><time>2021-10-07T14:20:31Z</time><name>PT6041</name></trkpt>
<trkpt lat="53.369474" lon="-1.916592"><ele>283</ele><time>2021-10-07T14:20:32Z</time><name>PT6042</name></trkpt>
<trkpt lat="53.369473" lon="-1.916601"><ele>283</ele><time>2021-10-07T14:20:33Z</time><name>PT6043</name></trkpt>
<trkpt lat="53.369470" lon="-1.916612"><ele>282</ele><time>2021-10-07T14:20:34Z</time><name>PT6044</name></trkpt>
<trkpt lat="53.369467" lon="-1.916607"><ele>282</ele><time>2021-10-07T14:20:35Z</time><name>PT6045</name></trkpt>
<trkpt lat="53.369464" lon="-1.916606"><ele>283</ele><time>2021-10-07T14:20:36Z</time><name>PT6046</name></trkpt>
<trkpt lat="53.369465" lon="-1.916603"><ele>283</ele><time>2021-10-07T14:20:37Z</time><name>PT6047</name></trkpt>
<trkpt lat="53.369467" lon="-1.916595"><ele>283</ele><time>2021-10-07T14:20:38Z</time><name>PT6048</name></trkpt>
<trkpt lat="53.369469" lon="-1.916587"><ele>282</ele><time>2021-10-07T14:20:39Z</time><name>PT6049</name></trkpt>
<trkpt lat="53.369472" lon="-1.916575"><ele>283</ele><time>2021-10-07T14:20:40Z</time><name>PT6050</name></trkpt>
<trkpt lat="53.369477" lon="-1.916568"><ele>283</ele><time>2021-10-07T14:20:41Z</time><name>PT6051</name></trkpt>
<trkpt lat="53.369481" lon="-1.916557"><ele>284</ele><time>2021-10-07T14:20:42Z</time><name>PT6052</name></trkpt>
<trkpt lat="53.369481" lon="-1.916553"><ele>283</ele><time>2021-10-07T14:20:43Z</time><name>PT6053</name></trkpt>
<trkpt lat="53.369481" lon="-1.916564"><ele>282</ele><time>2021-10-07T14:20:44Z</time><name>PT6054</name></trkpt>
<trkpt lat="53.369481" lon="-1.916569"><ele>281</ele><time>2021-10-07T14:20:45Z</time><name>PT6055</name></trkpt>
<trkpt lat="53.369481" lon="-1.916572"><ele>281</ele><time>2021-10-07T14:20:46Z</time><name>PT6056</name></trkpt>
<trkpt lat="53.369481" lon="-1.916580"><ele>281</ele><time>2021-10-07T14:20:50Z</time><name>PT6057</name></trkpt>
<trkpt lat="53.369478" lon="-1.916598"><ele>281</ele><time>2021-10-07T14:20:51Z</time><name>PT6058</name></trkpt>
<trkpt lat="53.369481" lon="-1.916611"><ele>280</ele><time>2021-10-07T14:20:52Z</time><name>PT6059</name></trkpt>
<trkpt lat="53.369480" lon="-1.916623"><ele>281</ele><time>2021-10-07T14:20:53Z</time><name>PT6060</name></trkpt>
<trkpt lat="53.369479" lon="-1.916626"><ele>280</ele><time>2021-10-07T14:20:54Z</time><name>PT6061</name></trkpt>
<trkpt lat="53.369477" lon="-1.916638"><ele>280</ele><time>2021-10-07T14:20:55Z</time><name>PT6062</name></trkpt>
<trkpt lat="53.369475" lon="-1.916647"><ele>279</ele><time>2021-10-07T14:20:56Z</time><name>PT6063</name></trkpt>
<trkpt lat="53.369470" lon="-1.916648"><ele>281</ele><time>2021-10-07T14:20:57Z</time><name>PT6064</name></trkpt>
<trkpt lat="53.369465" lon="-1.916663"><ele>281</ele><time>2021-10-07T14:20:58Z</time><name>PT6065</name></trkpt>
<trkpt lat="53.369456" lon="-1.916684"><ele>281</ele><time>2021-10-07T14:20:59Z</time><name>PT6066</name></trkpt>
<trkpt lat="53.369454" lon="-1.916704"><ele>281</ele><time>2021-10-07T14:21:00Z</time><name>PT6067</name></trkpt>
<trkpt lat="53.369448" lon="-1.916727"><ele>280</ele><time>2021-10-07T14:21:01Z</time><name>PT6068</name></trkpt>
<trkpt lat="53.369451" lon="-1.916739"><ele>279</ele><time>2021-10-07T14:21:02Z</time><name>PT6069</name></trkpt>
<trkpt lat="53.369449" lon="-1.916756"><ele>279</ele><time>2021-10-07T14:21:03Z</time><name>PT6070</name></trkpt>
<trkpt lat="53.369446" lon="-1.916762"><ele>279</ele><time>2021-10-07T14:21:04Z</time><name>PT6071</name></trkpt>
<trkpt lat="53.369442" lon="-1.916767"><ele>279</ele><time>2021-10-07T14:21:05Z</time><name>PT6072</name></trkpt>
<trkpt lat="53.369443" lon="-1.916765"><ele>280</ele><time>2021-10-07T14:21:06Z</time><name>PT6073</name></trkpt>
<trkpt lat="53.369444" lon="-1.916765"><ele>280</ele><time>2021-10-07T14:21:07Z</time><name>PT6074</name></trkpt>
<trkpt lat="53.369441" lon="-1.916763"><ele>280</ele><time>2021-10-07T14:21:08Z</time><name>PT6075</name></trkpt>
<trkpt lat="53.369437" lon="-1.916761"><ele>281</ele><time>2021-10-07T14:21:09Z</time><name>PT6076</name></trkpt>
<trkpt lat="53.369430" lon="-1.916760"><ele>281</ele><time>2021-10-07T14:21:10Z</time><name>PT6077</name></trkpt>
<trkpt lat="53.369423" lon="-1.916769"><ele>281</ele><time>2021-10-07T14:21:11Z</time><name>PT6078</name></trkpt>
<trkpt lat="53.369418" lon="-1.916774"><ele>280</ele><time>2021-10-07T14:21:12Z</time><name>PT6079</name></trkpt>
<trkpt lat="53.369412" lon="-1.916799"><ele>280</ele><time>2021-10-07T14:21:13Z</time><name>PT6080</name></trkpt>
<trkpt lat="53.369409" lon="-1.916819"><ele>280</ele><time>2021-10-07T14:21:14Z</time><name>PT6081</name></trkpt>
<trkpt lat="53.369403" lon="-1.916833"><ele>279</ele><time>2021-10-07T14:21:15Z</time><name>PT6082</name></trkpt>
<trkpt lat="53.369396" lon="-1.916846"><ele>279</ele><time>2021-10-07T14:21:16Z</time><name>PT6083</name></trkpt>
<trkpt lat="53.369393" lon="-1.916855"><ele>278</ele><time>2021-10-07T14:21:17Z</time><name>PT6084</name></trkpt>
<trkpt lat="53.369391" lon="-1.916864"><ele>278</ele><time>2021-10-07T14:21:18Z</time><name>PT6085</name></trkpt>
<trkpt lat="53.369390" lon="-1.916877"><ele>278</ele><time>2021-10-07T14:21:19Z</time><name>PT6086</name></trkpt>
<trkpt lat="53.369389" lon="-1.916892"><ele>277</ele><time>2021-10-07T14:21:20Z</time><name>PT6087</name></trkpt>
<trkpt lat="53.369385" lon="-1.916902"><ele>277</ele><time>2021-10-07T14:21:21Z</time><name>PT6088</name></trkpt>
<trkpt lat="53.369382" lon="-1.916910"><ele>276</ele><time>2021-10-07T14:21:22Z</time><name>PT6089</name></trkpt>
<trkpt lat="53.369378" lon="-1.916918"><ele>276</ele><time>2021-10-07T14:21:23Z</time><name>PT6090</name></trkpt>
<trkpt lat="53.369374" lon="-1.916926"><ele>275</ele><time>2021-10-07T14:21:24Z</time><name>PT6091</name></trkpt>
<trkpt lat="53.369366" lon="-1.916941"><ele>275</ele><time>2021-10-07T14:21:25Z</time><name>PT6092</name></trkpt>
<trkpt lat="53.369360" lon="-1.916954"><ele>275</ele><time>2021-10-07T14:21:26Z</time><name>PT6093</name></trkpt>
<trkpt lat="53.369360" lon="-1.916958"><ele>274</ele><time>2021-10-07T14:21:27Z</time><name>PT6094</name></trkpt>
<trkpt lat="53.369353" lon="-1.916973"><ele>274</ele><time>2021-10-07T14:21:28Z</time><name>PT6095</name></trkpt>
<trkpt lat="53.369349" lon="-1.916994"><ele>274</ele><time>2021-10-07T14:21:29Z</time><name>PT6096</name></trkpt>
<trkpt lat="53.369345" lon="-1.917014"><ele>274</ele><time>2021-10-07T14:21:30Z</time><name>PT6097</name></trkpt>
<trkpt lat="53.369346" lon="-1.917026"><ele>274</ele><time>2021-10-07T14:21:31Z</time><name>PT6098</name></trkpt>
<trkpt lat="53.369347" lon="-1.917036"><ele>273</ele><time>2021-10-07T14:21:32Z</time><name>PT6099</name></trkpt>
<trkpt lat="53.369344" lon="-1.917047"><ele>274</ele><time>2021-10-07T14:21:33Z</time><name>PT6100</name></trkpt>
<trkpt lat="53.369341" lon="-1.917063"><ele>274</ele><time>2021-10-07T14:21:34Z</time><name>PT6101</name></trkpt>
<trkpt lat="53.369341" lon="-1.917080"><ele>273</ele><time>2021-10-07T14:21:35Z</time><name>PT6102</name></trkpt>
<trkpt lat="53.369337" lon="-1.917106"><ele>273</ele><time>2021-10-07T14:21:36Z</time><name>PT6103</name></trkpt>
<trkpt lat="53.369334" lon="-1.917124"><ele>273</ele><time>2021-10-07T14:21:37Z</time><name>PT6104</name></trkpt>
<trkpt lat="53.369330" lon="-1.917139"><ele>273</ele><time>2021-10-07T14:21:38Z</time><name>PT6105</name></trkpt>
<trkpt lat="53.369326" lon="-1.917154"><ele>272</ele><time>2021-10-07T14:21:39Z</time><name>PT6106</name></trkpt>
<trkpt lat="53.369323" lon="-1.917180"><ele>272</ele><time>2021-10-07T14:21:40Z</time><name>PT6107</name></trkpt>
<trkpt lat="53.369317" lon="-1.917203"><ele>272</ele><time>2021-10-07T14:21:41Z</time><name>PT6108</name></trkpt>
<trkpt lat="53.369313" lon="-1.917220"><ele>271</ele><time>2021-10-07T14:21:42Z</time><name>PT6109</name></trkpt>
<trkpt lat="53.369312" lon="-1.917240"><ele>271</ele><time>2021-10-07T14:21:43Z</time><name>PT6110</name></trkpt>
<trkpt lat="53.369309" lon="-1.917260"><ele>271</ele><time>2021-10-07T14:21:44Z</time><name>PT6111</name></trkpt>
<trkpt lat="53.369302" lon="-1.917279"><ele>272</ele><time>2021-10-07T14:21:45Z</time><name>PT6112</name></trkpt>
<trkpt lat="53.369301" lon="-1.917296"><ele>271</ele><time>2021-10-07T14:21:46Z</time><name>PT6113</name></trkpt>
<trkpt lat="53.369297" lon="-1.917314"><ele>271</ele><time>2021-10-07T14:21:47Z</time><name>PT6114</name></trkpt>
<trkpt lat="53.369295" lon="-1.917332"><ele>272</ele><time>2021-10-07T14:21:48Z</time><name>PT6115</name></trkpt>
<trkpt lat="53.369295" lon="-1.917357"><ele>272</ele><time>2021-10-07T14:21:49Z</time><name>PT6116</name></trkpt>
<trkpt lat="53.369292" lon="-1.917381"><ele>272</ele><time>2021-10-07T14:21:50Z</time><name>PT6117</name></trkpt>
<trkpt lat="53.369288" lon="-1.917402"><ele>272</ele><time>2021-10-07T14:21:51Z</time><name>PT6118</name></trkpt>
<trkpt lat="53.369288" lon="-1.917428"><ele>272</ele><time>2021-10-07T14:21:52Z</time><name>PT6119</name></trkpt>
<trkpt lat="53.369287" lon="-1.917454"><ele>272</ele><time>2021-10-07T14:21:53Z</time><name>PT6120</name></trkpt>
<trkpt lat="53.369286" lon="-1.917475"><ele>272</ele><time>2021-10-07T14:21:54Z</time><name>PT6121</name></trkpt>
<trkpt lat="53.369281" lon="-1.917513"><ele>272</ele><time>2021-10-07T14:21:55Z</time><name>PT6122</name></trkpt>
<trkpt lat="53.369282" lon="-1.917531"><ele>271</ele><time>2021-10-07T14:21:56Z</time><name>PT6123</name></trkpt>
<trkpt lat="53.369281" lon="-1.917552"><ele>272</ele><time>2021-10-07T14:21:57Z</time><name>PT6124</name></trkpt>
<trkpt lat="53.369282" lon="-1.917576"><ele>272</ele><time>2021-10-07T14:21:58Z</time><name>PT6125</name></trkpt>
<trkpt lat="53.369285" lon="-1.917599"><ele>271</ele><time>2021-10-07T14:21:59Z</time><name>PT6126</name></trkpt>
<trkpt lat="53.369289" lon="-1.917613"><ele>270</ele><time>2021-10-07T14:22:00Z</time><name>PT6127</name></trkpt>
<trkpt lat="53.369290" lon="-1.917628"><ele>270</ele><time>2021-10-07T14:22:01Z</time><name>PT6128</name></trkpt>
<trkpt lat="53.369291" lon="-1.917646"><ele>270</ele><time>2021-10-07T14:22:02Z</time><name>PT6129</name></trkpt>
<trkpt lat="53.369290" lon="-1.917668"><ele>270</ele><time>2021-10-07T14:22:03Z</time><name>PT6130</name></trkpt>
<trkpt lat="53.369291" lon="-1.917688"><ele>269</ele><time>2021-10-07T14:22:04Z</time><name>PT6131</name></trkpt>
<trkpt lat="53.369294" lon="-1.917704"><ele>268</ele><time>2021-10-07T14:22:05Z</time><name>PT6132</name></trkpt>
<trkpt lat="53.369293" lon="-1.917725"><ele>267</ele><time>2021-10-07T14:22:06Z</time><name>PT6133</name></trkpt>
<trkpt lat="53.369293" lon="-1.917745"><ele>267</ele><time>2021-10-07T14:22:07Z</time><name>PT6134</name></trkpt>
<trkpt lat="53.369291" lon="-1.917770"><ele>266</ele><time>2021-10-07T14:22:08Z</time><name>PT6135</name></trkpt>
<trkpt lat="53.369292" lon="-1.917780"><ele>265</ele><time>2021-10-07T14:22:09Z</time><name>PT6136</name></trkpt>
<trkpt lat="53.369295" lon="-1.917799"><ele>265</ele><time>2021-10-07T14:22:10Z</time><name>PT6137</name></trkpt>
<trkpt lat="53.369295" lon="-1.917816"><ele>265</ele><time>2021-10-07T14:22:11Z</time><name>PT6138</name></trkpt>
<trkpt lat="53.369295" lon="-1.917829"><ele>265</ele><time>2021-10-07T14:22:12Z</time><name>PT6139</name></trkpt>
<trkpt lat="53.369295" lon="-1.917846"><ele>265</ele><time>2021-10-07T14:22:13Z</time><name>PT6140</name></trkpt>
<trkpt lat="53.369296" lon="-1.917867"><ele>265</ele><time>2021-10-07T14:22:14Z</time><name>PT6141</name></trkpt>
<trkpt lat="53.369297" lon="-1.917887"><ele>264</ele><time>2021-10-07T14:22:15Z</time><name>PT6142</name></trkpt>
<trkpt lat="53.369300" lon="-1.917901"><ele>264</ele><time>2021-10-07T14:22:16Z</time><name>PT6143</name></trkpt>
<trkpt lat="53.369302" lon="-1.917917"><ele>264</ele><time>2021-10-07T14:22:17Z</time><name>PT6144</name></trkpt>
<trkpt lat="53.369304" lon="-1.917928"><ele>263</ele><time>2021-10-07T14:22:18Z</time><name>PT6145</name></trkpt>
<trkpt lat="53.369310" lon="-1.917944"><ele>263</ele><time>2021-10-07T14:22:19Z</time><name>PT6146</name></trkpt>
<trkpt lat="53.369308" lon="-1.917961"><ele>261</ele><time>2021-10-07T14:22:20Z</time><name>PT6147</name></trkpt>
<trkpt lat="53.369305" lon="-1.917979"><ele>260</ele><time>2021-10-07T14:22:21Z</time><name>PT6148</name></trkpt>
<trkpt lat="53.369303" lon="-1.917999"><ele>260</ele><time>2021-10-07T14:22:22Z</time><name>PT6149</name></trkpt>
<trkpt lat="53.369299" lon="-1.918022"><ele>258</ele><time>2021-10-07T14:22:23Z</time><name>PT6150</name></trkpt>
<trkpt lat="53.369298" lon="-1.918039"><ele>258</ele><time>2021-10-07T14:22:24Z</time><name>PT6151</name></trkpt>
<trkpt lat="53.369297" lon="-1.918056"><ele>258</ele><time>2021-10-07T14:22:25Z</time><name>PT6152</name></trkpt>
<trkpt lat="53.369298" lon="-1.918069"><ele>257</ele><time>2021-10-07T14:22:26Z</time><name>PT6153</name></trkpt>
<trkpt lat="53.369302" lon="-1.918079"><ele>258</ele><time>2021-10-07T14:22:27Z</time><name>PT6154</name></trkpt>
<trkpt lat="53.369304" lon="-1.918099"><ele>258</ele><time>2021-10-07T14:22:28Z</time><name>PT6155</name></trkpt>
<trkpt lat="53.369305" lon="-1.918120"><ele>258</ele><time>2021-10-07T14:22:29Z</time><name>PT6156</name></trkpt>
<trkpt lat="53.369306" lon="-1.918139"><ele>258</ele><time>2021-10-07T14:22:30Z</time><name>PT6157</name></trkpt>
<trkpt lat="53.369307" lon="-1.918158"><ele>258</ele><time>2021-10-07T14:22:31Z</time><name>PT6158</name></trkpt>
<trkpt lat="53.369304" lon="-1.918184"><ele>257</ele><time>2021-10-07T14:22:32Z</time><name>PT6159</name></trkpt>
<trkpt lat="53.369302" lon="-1.918211"><ele>256</ele><time>2021-10-07T14:22:33Z</time><name>PT6160</name></trkpt>
<trkpt lat="53.369302" lon="-1.918231"><ele>255</ele><time>2021-10-07T14:22:34Z</time><name>PT6161</name></trkpt>
<trkpt lat="53.369306" lon="-1.918250"><ele>257</ele><time>2021-10-07T14:22:35Z</time><name>PT6162</name></trkpt>
<trkpt lat="53.369310" lon="-1.918265"><ele>257</ele><time>2021-10-07T14:22:36Z</time><name>PT6163</name></trkpt>
<trkpt lat="53.369314" lon="-1.918299"><ele>258</ele><time>2021-10-07T14:22:37Z</time><name>PT6164</name></trkpt>
<trkpt lat="53.369318" lon="-1.918318"><ele>258</ele><time>2021-10-07T14:22:38Z</time><name>PT6165</name></trkpt>
<trkpt lat="53.369321" lon="-1.918337"><ele>259</ele><time>2021-10-07T14:22:39Z</time><name>PT6166</name></trkpt>
<trkpt lat="53.369322" lon="-1.918362"><ele>260</ele><time>2021-10-07T14:22:40Z</time><name>PT6167</name></trkpt>
<trkpt lat="53.369322" lon="-1.918384"><ele>260</ele><time>2021-10-07T14:22:41Z</time><name>PT6168</name></trkpt>
<trkpt lat="53.369324" lon="-1.918409"><ele>260</ele><time>2021-10-07T14:22:42Z</time><name>PT6169</name></trkpt>
<trkpt lat="53.369328" lon="-1.918432"><ele>261</ele><time>2021-10-07T14:22:43Z</time><name>PT6170</name></trkpt>
<trkpt lat="53.369332" lon="-1.918458"><ele>261</ele><time>2021-10-07T14:22:44Z</time><name>PT6171</name></trkpt>
<trkpt lat="53.369335" lon="-1.918484"><ele>260</ele><time>2021-10-07T14:22:45Z</time><name>PT6172</name></trkpt>
<trkpt lat="53.369337" lon="-1.918515"><ele>260</ele><time>2021-10-07T14:22:46Z</time><name>PT6173</name></trkpt>
<trkpt lat="53.369343" lon="-1.918541"><ele>260</ele><time>2021-10-07T14:22:47Z</time><name>PT6174</name></trkpt>
<trkpt lat="53.369347" lon="-1.918567"><ele>260</ele><time>2021-10-07T14:22:48Z</time><name>PT6175</name></trkpt>
<trkpt lat="53.369353" lon="-1.918592"><ele>260</ele><time>2021-10-07T14:22:49Z</time><name>PT6176</name></trkpt>
<trkpt lat="53.369357" lon="-1.918619"><ele>259</ele><time>2021-10-07T14:22:50Z</time><name>PT6177</name></trkpt>
<trkpt lat="53.369359" lon="-1.918638"><ele>259</ele><time>2021-10-07T14:22:51Z</time><name>PT6178</name></trkpt>
<trkpt lat="53.369363" lon="-1.918659"><ele>259</ele><time>2021-10-07T14:22:52Z</time><name>PT6179</name></trkpt>
<trkpt lat="53.369368" lon="-1.918680"><ele>258</ele><time>2021-10-07T14:22:53Z</time><name>PT6180</name></trkpt>
<trkpt lat="53.369374" lon="-1.918700"><ele>258</ele><time>2021-10-07T14:22:54Z</time><name>PT6181</name></trkpt>
<trkpt lat="53.369398" lon="-1.918738"><ele>258</ele><time>2021-10-07T14:22:57Z</time><name>PT6182</name></trkpt>
<trkpt lat="53.369435" lon="-1.918795"><ele>258</ele><time>2021-10-07T14:23:01Z</time><name>PT6183</name></trkpt>
<trkpt lat="53.369473" lon="-1.918863"><ele>258</ele><time>2021-10-07T14:23:05Z</time><name>PT6184</name></trkpt>
<trkpt lat="53.369514" lon="-1.918925"><ele>257</ele><time>2021-10-07T14:23:09Z</time><name>PT6185</name></trkpt>
<trkpt lat="53.369556" lon="-1.918985"><ele>256</ele><time>2021-10-07T14:23:13Z</time><name>PT6186</name></trkpt>
<trkpt lat="53.369600" lon="-1.919033"><ele>257</ele><time>2021-10-07T14:23:17Z</time><name>PT6187</name></trkpt>
<trkpt lat="53.369637" lon="-1.919087"><ele>256</ele><time>2021-10-07T14:23:21Z</time><name>PT6188</name></trkpt>
<trkpt lat="53.369670" lon="-1.919127"><ele>254</ele><time>2021-10-07T14:23:25Z</time><name>PT6189</name></trkpt>
<trkpt lat="53.369705" lon="-1.919173"><ele>253</ele><time>2021-10-07T14:23:29Z</time><name>PT6190</name></trkpt>
<trkpt lat="53.369742" lon="-1.919229"><ele>252</ele><time>2021-10-07T14:23:33Z</time><name>PT6191</name></trkpt>
<trkpt lat="53.369780" lon="-1.919264"><ele>251</ele><time>2021-10-07T14:23:37Z</time><name>PT6192</name></trkpt>
<trkpt lat="53.369802" lon="-1.919309"><ele>247</ele><time>2021-10-07T14:23:41Z</time><name>PT6193</name></trkpt>
<trkpt lat="53.369838" lon="-1.919344"><ele>244</ele><time>2021-10-07T14:23:45Z</time><name>PT6194</name></trkpt>
<trkpt lat="53.369870" lon="-1.919390"><ele>241</ele><time>2021-10-07T14:23:49Z</time><name>PT6195</name></trkpt>
<trkpt lat="53.369873" lon="-1.919400"><ele>240</ele><time>2021-10-07T14:23:50Z</time><name>PT6196</name></trkpt>
<trkpt lat="53.369876" lon="-1.919406"><ele>240</ele><time>2021-10-07T14:23:51Z</time><name>PT6197</name></trkpt>
<trkpt lat="53.369899" lon="-1.919413"><ele>241</ele><time>2021-10-07T14:23:52Z</time><name>PT6198</name></trkpt>
<trkpt lat="53.369918" lon="-1.919420"><ele>241</ele><time>2021-10-07T14:23:53Z</time><name>PT6199</name></trkpt>
<trkpt lat="53.369962" lon="-1.919430"><ele>244</ele><time>2021-10-07T14:23:54Z</time><name>PT6200</name></trkpt>
<trkpt lat="53.369984" lon="-1.919445"><ele>246</ele><time>2021-10-07T14:23:55Z</time><name>PT6201</name></trkpt>
<trkpt lat="53.370003" lon="-1.919458"><ele>247</ele><time>2021-10-07T14:23:56Z</time><name>PT6202</name></trkpt>
<trkpt lat="53.370020" lon="-1.919461"><ele>247</ele><time>2021-10-07T14:23:57Z</time><name>PT6203</name></trkpt>
<trkpt lat="53.370038" lon="-1.919471"><ele>248</ele><time>2021-10-07T14:23:58Z</time><name>PT6204</name></trkpt>
<trkpt lat="53.370057" lon="-1.919480"><ele>249</ele><time>2021-10-07T14:23:59Z</time><name>PT6205</name></trkpt>
<trkpt lat="53.370074" lon="-1.919491"><ele>250</ele><time>2021-10-07T14:24:00Z</time><name>PT6206</name></trkpt>
<trkpt lat="53.370088" lon="-1.919500"><ele>250</ele><time>2021-10-07T14:24:01Z</time><name>PT6207</name></trkpt>
<trkpt lat="53.370100" lon="-1.919509"><ele>250</ele><time>2021-10-07T14:24:02Z</time><name>PT6208</name></trkpt>
<trkpt lat="53.370112" lon="-1.919516"><ele>250</ele><time>2021-10-07T14:24:03Z</time><name>PT6209</name></trkpt>
<trkpt lat="53.370126" lon="-1.919522"><ele>250</ele><time>2021-10-07T14:24:04Z</time><name>PT6210</name></trkpt>
<trkpt lat="53.370136" lon="-1.919525"><ele>250</ele><time>2021-10-07T14:24:05Z</time><name>PT6211</name></trkpt>
<trkpt lat="53.370145" lon="-1.919530"><ele>249</ele><time>2021-10-07T14:24:06Z</time><name>PT6212</name></trkpt>
<trkpt lat="53.370157" lon="-1.919538"><ele>249</ele><time>2021-10-07T14:24:07Z</time><name>PT6213</name></trkpt>
<trkpt lat="53.370168" lon="-1.919541"><ele>249</ele><time>2021-10-07T14:24:08Z</time><name>PT6214</name></trkpt>
<trkpt lat="53.370180" lon="-1.919545"><ele>249</ele><time>2021-10-07T14:24:09Z</time><name>PT6215</name></trkpt>
<trkpt lat="53.370197" lon="-1.919550"><ele>249</ele><time>2021-10-07T14:24:10Z</time><name>PT6216</name></trkpt>
<trkpt lat="53.370212" lon="-1.919559"><ele>249</ele><time>2021-10-07T14:24:11Z</time><name>PT6217</name></trkpt>
<trkpt lat="53.370224" lon="-1.919564"><ele>249</ele><time>2021-10-07T14:24:12Z</time><name>PT6218</name></trkpt>
<trkpt lat="53.370239" lon="-1.919572"><ele>249</ele><time>2021-10-07T14:24:13Z</time><name>PT6219</name></trkpt>
<trkpt lat="53.370251" lon="-1.919578"><ele>249</ele><time>2021-10-07T14:24:14Z</time><name>PT6220</name></trkpt>
<trkpt lat="53.370265" lon="-1.919580"><ele>249</ele><time>2021-10-07T14:24:15Z</time><name>PT6221</name></trkpt>
<trkpt lat="53.370275" lon="-1.919587"><ele>249</ele><time>2021-10-07T14:24:16Z</time><name>PT6222</name></trkpt>
<trkpt lat="53.370288" lon="-1.919592"><ele>249</ele><time>2021-10-07T14:24:17Z</time><name>PT6223</name></trkpt>
<trkpt lat="53.370298" lon="-1.919594"><ele>248</ele><time>2021-10-07T14:24:18Z</time><name>PT6224</name></trkpt>
<trkpt lat="53.370309" lon="-1.919597"><ele>248</ele><time>2021-10-07T14:24:19Z</time><name>PT6225</name></trkpt>
<trkpt lat="53.370320" lon="-1.919598"><ele>248</ele><time>2021-10-07T14:24:20Z</time><name>PT6226</name></trkpt>
<trkpt lat="53.370326" lon="-1.919596"><ele>248</ele><time>2021-10-07T14:24:21Z</time><name>PT6227</name></trkpt>
<trkpt lat="53.370328" lon="-1.919594"><ele>248</ele><time>2021-10-07T14:24:22Z</time><name>PT6228</name></trkpt>
<trkpt lat="53.370329" lon="-1.919594"><ele>248</ele><time>2021-10-07T14:24:23Z</time><name>PT6229</name></trkpt>
<trkpt lat="53.370332" lon="-1.919591"><ele>248</ele><time>2021-10-07T14:24:24Z</time><name>PT6230</name></trkpt>
<trkpt lat="53.370334" lon="-1.919590"><ele>248</ele><time>2021-10-07T14:24:26Z</time><name>PT6231</name></trkpt>
<trkpt lat="53.370343" lon="-1.919588"><ele>248</ele><time>2021-10-07T14:24:27Z</time><name>PT6232</name></trkpt>
<trkpt lat="53.370349" lon="-1.919588"><ele>248</ele><time>2021-10-07T14:24:28Z</time><name>PT6233</name></trkpt>
<trkpt lat="53.370353" lon="-1.919586"><ele>249</ele><time>2021-10-07T14:24:29Z</time><name>PT6234</name></trkpt>
<trkpt lat="53.370354" lon="-1.919587"><ele>249</ele><time>2021-10-07T14:24:30Z</time><name>PT6235</name></trkpt>
<trkpt lat="53.370355" lon="-1.919587"><ele>248</ele><time>2021-10-07T14:24:31Z</time><name>PT6236</name></trkpt>
<trkpt lat="53.370363" lon="-1.919586"><ele>249</ele><time>2021-10-07T14:24:35Z</time><name>PT6237</name></trkpt>
<trkpt lat="53.370368" lon="-1.919586"><ele>249</ele><time>2021-10-07T14:24:36Z</time><name>PT6238</name></trkpt>
<trkpt lat="53.370372" lon="-1.919585"><ele>249</ele><time>2021-10-07T14:24:37Z</time><name>PT6239</name></trkpt>
<trkpt lat="53.370374" lon="-1.919587"><ele>249</ele><time>2021-10-07T14:24:38Z</time><name>PT6240</name></trkpt>
<trkpt lat="53.370382" lon="-1.919589"><ele>249</ele><time>2021-10-07T14:24:39Z</time><name>PT6241</name></trkpt>
<trkpt lat="53.370388" lon="-1.919598"><ele>248</ele><time>2021-10-07T14:24:40Z</time><name>PT6242</name></trkpt>
<trkpt lat="53.370392" lon="-1.919598"><ele>248</ele><time>2021-10-07T14:24:41Z</time><name>PT6243</name></trkpt>
<trkpt lat="53.370393" lon="-1.919600"><ele>248</ele><time>2021-10-07T14:24:42Z</time><name>PT6244</name></trkpt>
<trkpt lat="53.370394" lon="-1.919596"><ele>249</ele><time>2021-10-07T14:24:43Z</time><name>PT6245</name></trkpt>
<trkpt lat="53.370398" lon="-1.919605"><ele>249</ele><time>2021-10-07T14:24:55Z</time><name>PT6246</name></trkpt>
<trkpt lat="53.370406" lon="-1.919618"><ele>249</ele><time>2021-10-07T14:24:56Z</time><name>PT6247</name></trkpt>
<trkpt lat="53.370418" lon="-1.919632"><ele>249</ele><time>2021-10-07T14:24:57Z</time><name>PT6248</name></trkpt>
<trkpt lat="53.370426" lon="-1.919637"><ele>249</ele><time>2021-10-07T14:24:58Z</time><name>PT6249</name></trkpt>
<trkpt lat="53.370433" lon="-1.919642"><ele>248</ele><time>2021-10-07T14:24:59Z</time><name>PT6250</name></trkpt>
<trkpt lat="53.370445" lon="-1.919652"><ele>248</ele><time>2021-10-07T14:25:00Z</time><name>PT6251</name></trkpt>
<trkpt lat="53.370456" lon="-1.919662"><ele>248</ele><time>2021-10-07T14:25:01Z</time><name>PT6252</name></trkpt>
<trkpt lat="53.370470" lon="-1.919671"><ele>248</ele><time>2021-10-07T14:25:02Z</time><name>PT6253</name></trkpt>
<trkpt lat="53.370483" lon="-1.919679"><ele>248</ele><time>2021-10-07T14:25:03Z</time><name>PT6254</name></trkpt>
<trkpt lat="53.370496" lon="-1.919686"><ele>248</ele><time>2021-10-07T14:25:04Z</time><name>PT6255</name></trkpt>
<trkpt lat="53.370510" lon="-1.919692"><ele>248</ele><time>2021-10-07T14:25:05Z</time><name>PT6256</name></trkpt>
<trkpt lat="53.370522" lon="-1.919699"><ele>248</ele><time>2021-10-07T14:25:06Z</time><name>PT6257</name></trkpt>
<trkpt lat="53.370536" lon="-1.919707"><ele>249</ele><time>2021-10-07T14:25:07Z</time><name>PT6258</name></trkpt>
<trkpt lat="53.370548" lon="-1.919716"><ele>249</ele><time>2021-10-07T14:25:08Z</time><name>PT6259</name></trkpt>
<trkpt lat="53.370561" lon="-1.919725"><ele>249</ele><time>2021-10-07T14:25:09Z</time><name>PT6260</name></trkpt>
<trkpt lat="53.370574" lon="-1.919734"><ele>249</ele><time>2021-10-07T14:25:10Z</time><name>PT6261</name></trkpt>
<trkpt lat="53.370586" lon="-1.919743"><ele>249</ele><time>2021-10-07T14:25:11Z</time><name>PT6262</name></trkpt>
<trkpt lat="53.370599" lon="-1.919752"><ele>249</ele><time>2021-10-07T14:25:12Z</time><name>PT6263</name></trkpt>
<trkpt lat="53.370610" lon="-1.919761"><ele>249</ele><time>2021-10-07T14:25:13Z</time><name>PT6264</name></trkpt>
<trkpt lat="53.370620" lon="-1.919771"><ele>249</ele><time>2021-10-07T14:25:14Z</time><name>PT6265</name></trkpt>
<trkpt lat="53.370630" lon="-1.919782"><ele>249</ele><time>2021-10-07T14:25:15Z</time><name>PT6266</name></trkpt>
<trkpt lat="53.370641" lon="-1.919793"><ele>249</ele><time>2021-10-07T14:25:16Z</time><name>PT6267</name></trkpt>
<trkpt lat="53.370653" lon="-1.919800"><ele>249</ele><time>2021-10-07T14:25:17Z</time><name>PT6268</name></trkpt>
<trkpt lat="53.370665" lon="-1.919807"><ele>249</ele><time>2021-10-07T14:25:18Z</time><name>PT6269</name></trkpt>
<trkpt lat="53.370677" lon="-1.919815"><ele>248</ele><time>2021-10-07T14:25:19Z</time><name>PT6270</name></trkpt>
<trkpt lat="53.370689" lon="-1.919820"><ele>248</ele><time>2021-10-07T14:25:20Z</time><name>PT6271</name></trkpt>
<trkpt lat="53.370701" lon="-1.919826"><ele>248</ele><time>2021-10-07T14:25:21Z</time><name>PT6272</name></trkpt>
<trkpt lat="53.370713" lon="-1.919833"><ele>248</ele><time>2021-10-07T14:25:22Z</time><name>PT6273</name></trkpt>
<trkpt lat="53.370726" lon="-1.919844"><ele>248</ele><time>2021-10-07T14:25:23Z</time><name>PT6274</name></trkpt>
<trkpt lat="53.370737" lon="-1.919854"><ele>248</ele><time>2021-10-07T14:25:24Z</time><name>PT6275</name></trkpt>
<trkpt lat="53.370747" lon="-1.919865"><ele>248</ele><time>2021-10-07T14:25:25Z</time><name>PT6276</name></trkpt>
<trkpt lat="53.370758" lon="-1.919876"><ele>248</ele><time>2021-10-07T14:25:26Z</time><name>PT6277</name></trkpt>
<trkpt lat="53.370770" lon="-1.919887"><ele>248</ele><time>2021-10-07T14:25:27Z</time><name>PT6278</name></trkpt>
<trkpt lat="53.370781" lon="-1.919899"><ele>248</ele><time>2021-10-07T14:25:28Z</time><name>PT6279</name></trkpt>
<trkpt lat="53.370791" lon="-1.919910"><ele>248</ele><time>2021-10-07T14:25:29Z</time><name>PT6280</name></trkpt>
<trkpt lat="53.370801" lon="-1.919920"><ele>248</ele><time>2021-10-07T14:25:30Z</time><name>PT6281</name></trkpt>
<trkpt lat="53.370810" lon="-1.919930"><ele>248</ele><time>2021-10-07T14:25:31Z</time><name>PT6282</name></trkpt>
<trkpt lat="53.370819" lon="-1.919942"><ele>248</ele><time>2021-10-07T14:25:32Z</time><name>PT6283</name></trkpt>
<trkpt lat="53.370830" lon="-1.919959"><ele>247</ele><time>2021-10-07T14:25:33Z</time><name>PT6284</name></trkpt>
<trkpt lat="53.370840" lon="-1.919967"><ele>248</ele><time>2021-10-07T14:25:34Z</time><name>PT6285</name></trkpt>
<trkpt lat="53.370852" lon="-1.919977"><ele>249</ele><time>2021-10-07T14:25:35Z</time><name>PT6286</name></trkpt>
<trkpt lat="53.370863" lon="-1.919985"><ele>249</ele><time>2021-10-07T14:25:36Z</time><name>PT6287</name></trkpt>
<trkpt lat="53.370876" lon="-1.919996"><ele>249</ele><time>2021-10-07T14:25:37Z</time><name>PT6288</name></trkpt>
<trkpt lat="53.370885" lon="-1.920010"><ele>249</ele><time>2021-10-07T14:25:38Z</time><name>PT6289</name></trkpt>
<trkpt lat="53.370896" lon="-1.920017"><ele>249</ele><time>2021-10-07T14:25:39Z</time><name>PT6290</name></trkpt>
<trkpt lat="53.370906" lon="-1.920023"><ele>250</ele><time>2021-10-07T14:25:40Z</time><name>PT6291</name></trkpt>
<trkpt lat="53.370915" lon="-1.920028"><ele>250</ele><time>2021-10-07T14:25:41Z</time><name>PT6292</name></trkpt>
<trkpt lat="53.370922" lon="-1.920037"><ele>250</ele><time>2021-10-07T14:25:42Z</time><name>PT6293</name></trkpt>
<trkpt lat="53.370928" lon="-1.920056"><ele>250</ele><time>2021-10-07T14:25:43Z</time><name>PT6294</name></trkpt>
<trkpt lat="53.370938" lon="-1.920070"><ele>250</ele><time>2021-10-07T14:25:44Z</time><name>PT6295</name></trkpt>
<trkpt lat="53.370948" lon="-1.920077"><ele>251</ele><time>2021-10-07T14:25:45Z</time><name>PT6296</name></trkpt>
<trkpt lat="53.370955" lon="-1.920086"><ele>251</ele><time>2021-10-07T14:25:46Z</time><name>PT6297</name></trkpt>
<trkpt lat="53.370958" lon="-1.920098"><ele>249</ele><time>2021-10-07T14:25:47Z</time><name>PT6298</name></trkpt>
<trkpt lat="53.370965" lon="-1.920104"><ele>249</ele><time>2021-10-07T14:25:48Z</time><name>PT6299</name></trkpt>
<trkpt lat="53.370972" lon="-1.920118"><ele>248</ele><time>2021-10-07T14:25:49Z</time><name>PT6300</name></trkpt>
<trkpt lat="53.370981" lon="-1.920126"><ele>248</ele><time>2021-10-07T14:25:50Z</time><name>PT6301</name></trkpt>
<trkpt lat="53.370989" lon="-1.920140"><ele>247</ele><time>2021-10-07T14:25:51Z</time><name>PT6302</name></trkpt>
<trkpt lat="53.370993" lon="-1.920154"><ele>247</ele><time>2021-10-07T14:25:52Z</time><name>PT6303</name></trkpt>
<trkpt lat="53.371000" lon="-1.920173"><ele>246</ele><time>2021-10-07T14:25:53Z</time><name>PT6304</name></trkpt>
<trkpt lat="53.371010" lon="-1.920178"><ele>247</ele><time>2021-10-07T14:25:54Z</time><name>PT6305</name></trkpt>
<trkpt lat="53.371017" lon="-1.920188"><ele>246</ele><time>2021-10-07T14:25:55Z</time><name>PT6306</name></trkpt>
<trkpt lat="53.371028" lon="-1.920198"><ele>246</ele><time>2021-10-07T14:25:56Z</time><name>PT6307</name></trkpt>
<trkpt lat="53.371040" lon="-1.920210"><ele>247</ele><time>2021-10-07T14:25:57Z</time><name>PT6308</name></trkpt>
<trkpt lat="53.371047" lon="-1.920224"><ele>248</ele><time>2021-10-07T14:25:58Z</time><name>PT6309</name></trkpt>
<trkpt lat="53.371052" lon="-1.920238"><ele>248</ele><time>2021-10-07T14:25:59Z</time><name>PT6310</name></trkpt>
<trkpt lat="53.371063" lon="-1.920243"><ele>248</ele><time>2021-10-07T14:26:00Z</time><name>PT6311</name></trkpt>
<trkpt lat="53.371074" lon="-1.920254"><ele>249</ele><time>2021-10-07T14:26:01Z</time><name>PT6312</name></trkpt>
<trkpt lat="53.371085" lon="-1.920272"><ele>248</ele><time>2021-10-07T14:26:02Z</time><name>PT6313</name></trkpt>
<trkpt lat="53.371095" lon="-1.920294"><ele>246</ele><time>2021-10-07T14:26:03Z</time><name>PT6314</name></trkpt>
<trkpt lat="53.371105" lon="-1.920309"><ele>246</ele><time>2021-10-07T14:26:04Z</time><name>PT6315</name></trkpt>
<trkpt lat="53.371110" lon="-1.920324"><ele>247</ele><time>2021-10-07T14:26:05Z</time><name>PT6316</name></trkpt>
<trkpt lat="53.371118" lon="-1.920344"><ele>246</ele><time>2021-10-07T14:26:06Z</time><name>PT6317</name></trkpt>
<trkpt lat="53.371124" lon="-1.920358"><ele>246</ele><time>2021-10-07T14:26:07Z</time><name>PT6318</name></trkpt>
<trkpt lat="53.371131" lon="-1.920369"><ele>246</ele><time>2021-10-07T14:26:08Z</time><name>PT6319</name></trkpt>
<trkpt lat="53.371138" lon="-1.920385"><ele>246</ele><time>2021-10-07T14:26:09Z</time><name>PT6320</name></trkpt>
<trkpt lat="53.371143" lon="-1.920404"><ele>246</ele><time>2021-10-07T14:26:10Z</time><name>PT6321</name></trkpt>
<trkpt lat="53.371151" lon="-1.920422"><ele>246</ele><time>2021-10-07T14:26:11Z</time><name>PT6322</name></trkpt>
<trkpt lat="53.371154" lon="-1.920435"><ele>246</ele><time>2021-10-07T14:26:12Z</time><name>PT6323</name></trkpt>
<trkpt lat="53.371155" lon="-1.920440"><ele>246</ele><time>2021-10-07T14:26:13Z</time><name>PT6324</name></trkpt>
<trkpt lat="53.371160" lon="-1.920448"><ele>245</ele><time>2021-10-07T14:26:14Z</time><name>PT6325</name></trkpt>
<trkpt lat="53.371167" lon="-1.920455"><ele>246</ele><time>2021-10-07T14:26:15Z</time><name>PT6326</name></trkpt>
<trkpt lat="53.371173" lon="-1.920468"><ele>246</ele><time>2021-10-07T14:26:16Z</time><name>PT6327</name></trkpt>
<trkpt lat="53.371179" lon="-1.920482"><ele>246</ele><time>2021-10-07T14:26:17Z</time><name>PT6328</name></trkpt>
<trkpt lat="53.371180" lon="-1.920511"><ele>246</ele><time>2021-10-07T14:26:18Z</time><name>PT6329</name></trkpt>
<trkpt lat="53.371184" lon="-1.920523"><ele>247</ele><time>2021-10-07T14:26:19Z</time><name>PT6330</name></trkpt>
<trkpt lat="53.371192" lon="-1.920533"><ele>247</ele><time>2021-10-07T14:26:20Z</time><name>PT6331</name></trkpt>
<trkpt lat="53.371199" lon="-1.920545"><ele>248</ele><time>2021-10-07T14:26:21Z</time><name>PT6332</name></trkpt>
<trkpt lat="53.371206" lon="-1.920567"><ele>247</ele><time>2021-10-07T14:26:22Z</time><name>PT6333</name></trkpt>
<trkpt lat="53.371212" lon="-1.920579"><ele>247</ele><time>2021-10-07T14:26:23Z</time><name>PT6334</name></trkpt>
<trkpt lat="53.371222" lon="-1.920593"><ele>247</ele><time>2021-10-07T14:26:24Z</time><name>PT6335</name></trkpt>
<trkpt lat="53.371228" lon="-1.920612"><ele>246</ele><time>2021-10-07T14:26:25Z</time><name>PT6336</name></trkpt>
<trkpt lat="53.371236" lon="-1.920623"><ele>246</ele><time>2021-10-07T14:26:26Z</time><name>PT6337</name></trkpt>
<trkpt lat="53.371237" lon="-1.920625"><ele>248</ele><time>2021-10-07T14:26:27Z</time><name>PT6338</name></trkpt>
<trkpt lat="53.371244" lon="-1.920636"><ele>248</ele><time>2021-10-07T14:26:28Z</time><name>PT6339</name></trkpt>
<trkpt lat="53.371255" lon="-1.920649"><ele>249</ele><time>2021-10-07T14:26:29Z</time><name>PT6340</name></trkpt>
<trkpt lat="53.371263" lon="-1.920663"><ele>250</ele><time>2021-10-07T14:26:30Z</time><name>PT6341</name></trkpt>
<trkpt lat="53.371270" lon="-1.920673"><ele>250</ele><time>2021-10-07T14:26:31Z</time><name>PT6342</name></trkpt>
<trkpt lat="53.371276" lon="-1.920683"><ele>251</ele><time>2021-10-07T14:26:32Z</time><name>PT6343</name></trkpt>
<trkpt lat="53.371283" lon="-1.920705"><ele>251</ele><time>2021-10-07T14:26:33Z</time><name>PT6344</name></trkpt>
<trkpt lat="53.371294" lon="-1.920723"><ele>251</ele><time>2021-10-07T14:26:34Z</time><name>PT6345</name></trkpt>
<trkpt lat="53.371300" lon="-1.920734"><ele>252</ele><time>2021-10-07T14:26:35Z</time><name>PT6346</name></trkpt>
<trkpt lat="53.371309" lon="-1.920749"><ele>252</ele><time>2021-10-07T14:26:36Z</time><name>PT6347</name></trkpt>
<trkpt lat="53.371314" lon="-1.920768"><ele>250</ele><time>2021-10-07T14:26:37Z</time><name>PT6348</name></trkpt>
<trkpt lat="53.371319" lon="-1.920783"><ele>249</ele><time>2021-10-07T14:26:38Z</time><name>PT6349</name></trkpt>
<trkpt lat="53.371325" lon="-1.920787"><ele>249</ele><time>2021-10-07T14:26:39Z</time><name>PT6350</name></trkpt>
<trkpt lat="53.371328" lon="-1.920794"><ele>250</ele><time>2021-10-07T14:26:40Z</time><name>PT6351</name></trkpt>
<trkpt lat="53.371335" lon="-1.920803"><ele>250</ele><time>2021-10-07T14:26:41Z</time><name>PT6352</name></trkpt>
<trkpt lat="53.371337" lon="-1.920808"><ele>250</ele><time>2021-10-07T14:26:42Z</time><name>PT6353</name></trkpt>
<trkpt lat="53.371344" lon="-1.920819"><ele>250</ele><time>2021-10-07T14:26:43Z</time><name>PT6354</name></trkpt>
<trkpt lat="53.371351" lon="-1.920827"><ele>250</ele><time>2021-10-07T14:26:44Z</time><name>PT6355</name></trkpt>
<trkpt lat="53.371359" lon="-1.920839"><ele>250</ele><time>2021-10-07T14:26:45Z</time><name>PT6356</name></trkpt>
<trkpt lat="53.371367" lon="-1.920854"><ele>250</ele><time>2021-10-07T14:26:46Z</time><name>PT6357</name></trkpt>
<trkpt lat="53.371374" lon="-1.920870"><ele>249</ele><time>2021-10-07T14:26:47Z</time><name>PT6358</name></trkpt>
<trkpt lat="53.371381" lon="-1.920888"><ele>248</ele><time>2021-10-07T14:26:48Z</time><name>PT6359</name></trkpt>
<trkpt lat="53.371391" lon="-1.920894"><ele>249</ele><time>2021-10-07T14:26:49Z</time><name>PT6360</name></trkpt>
<trkpt lat="53.371400" lon="-1.920909"><ele>247</ele><time>2021-10-07T14:26:50Z</time><name>PT6361</name></trkpt>
<trkpt lat="53.371412" lon="-1.920920"><ele>249</ele><time>2021-10-07T14:26:51Z</time><name>PT6362</name></trkpt>
<trkpt lat="53.371420" lon="-1.920931"><ele>249</ele><time>2021-10-07T14:26:52Z</time><name>PT6363</name></trkpt>
<trkpt lat="53.371426" lon="-1.920942"><ele>250</ele><time>2021-10-07T14:26:53Z</time><name>PT6364</name></trkpt>
<trkpt lat="53.371429" lon="-1.920956"><ele>250</ele><time>2021-10-07T14:26:54Z</time><name>PT6365</name></trkpt>
<trkpt lat="53.371439" lon="-1.920954"><ele>251</ele><time>2021-10-07T14:26:55Z</time><name>PT6366</name></trkpt>
<trkpt lat="53.371445" lon="-1.920961"><ele>250</ele><time>2021-10-07T14:26:56Z</time><name>PT6367</name></trkpt>
<trkpt lat="53.371454" lon="-1.920969"><ele>250</ele><time>2021-10-07T14:26:57Z</time><name>PT6368</name></trkpt>
<trkpt lat="53.371464" lon="-1.920979"><ele>250</ele><time>2021-10-07T14:26:58Z</time><name>PT6369</name></trkpt>
<trkpt lat="53.371473" lon="-1.920981"><ele>251</ele><time>2021-10-07T14:26:59Z</time><name>PT6370</name></trkpt>
<trkpt lat="53.371482" lon="-1.920987"><ele>252</ele><time>2021-10-07T14:27:00Z</time><name>PT6371</name></trkpt>
<trkpt lat="53.371489" lon="-1.920996"><ele>252</ele><time>2021-10-07T14:27:01Z</time><name>PT6372</name></trkpt>
<trkpt lat="53.371497" lon="-1.921000"><ele>253</ele><time>2021-10-07T14:27:02Z</time><name>PT6373</name></trkpt>
<trkpt lat="53.371505" lon="-1.921008"><ele>254</ele><time>2021-10-07T14:27:03Z</time><name>PT6374</name></trkpt>
<trkpt lat="53.371516" lon="-1.921011"><ele>255</ele><time>2021-10-07T14:27:04Z</time><name>PT6375</name></trkpt>
<trkpt lat="53.371523" lon="-1.921022"><ele>253</ele><time>2021-10-07T14:27:05Z</time><name>PT6376</name></trkpt>
<trkpt lat="53.371529" lon="-1.921042"><ele>252</ele><time>2021-10-07T14:27:06Z</time><name>PT6377</name></trkpt>
<trkpt lat="53.371535" lon="-1.921050"><ele>253</ele><time>2021-10-07T14:27:07Z</time><name>PT6378</name></trkpt>
<trkpt lat="53.371536" lon="-1.921056"><ele>255</ele><time>2021-10-07T14:27:08Z</time><name>PT6379</name></trkpt>
<trkpt lat="53.371547" lon="-1.921061"><ele>255</ele><time>2021-10-07T14:27:09Z</time><name>PT6380</name></trkpt>
<trkpt lat="53.371557" lon="-1.921066"><ele>256</ele><time>2021-10-07T14:27:10Z</time><name>PT6381</name></trkpt>
<trkpt lat="53.371567" lon="-1.921073"><ele>256</ele><time>2021-10-07T14:27:11Z</time><name>PT6382</name></trkpt>
<trkpt lat="53.371578" lon="-1.921076"><ele>256</ele><time>2021-10-07T14:27:12Z</time><name>PT6383</name></trkpt>
<trkpt lat="53.371584" lon="-1.921087"><ele>256</ele><time>2021-10-07T14:27:13Z</time><name>PT6384</name></trkpt>
<trkpt lat="53.371589" lon="-1.921096"><ele>257</ele><time>2021-10-07T14:27:14Z</time><name>PT6385</name></trkpt>
<trkpt lat="53.371593" lon="-1.921104"><ele>257</ele><time>2021-10-07T14:27:15Z</time><name>PT6386</name></trkpt>
<trkpt lat="53.371597" lon="-1.921105"><ele>258</ele><time>2021-10-07T14:27:16Z</time><name>PT6387</name></trkpt>
<trkpt lat="53.371600" lon="-1.921121"><ele>255</ele><time>2021-10-07T14:27:17Z</time><name>PT6388</name></trkpt>
<trkpt lat="53.371610" lon="-1.921130"><ele>255</ele><time>2021-10-07T14:27:18Z</time><name>PT6389</name></trkpt>
<trkpt lat="53.371617" lon="-1.921141"><ele>255</ele><time>2021-10-07T14:27:19Z</time><name>PT6390</name></trkpt>
<trkpt lat="53.371622" lon="-1.921149"><ele>254</ele><time>2021-10-07T14:27:20Z</time><name>PT6391</name></trkpt>
<trkpt lat="53.371637" lon="-1.921152"><ele>254</ele><time>2021-10-07T14:27:21Z</time><name>PT6392</name></trkpt>
<trkpt lat="53.371648" lon="-1.921157"><ele>253</ele><time>2021-10-07T14:27:22Z</time><name>PT6393</name></trkpt>
<trkpt lat="53.371669" lon="-1.921152"><ele>254</ele><time>2021-10-07T14:27:23Z</time><name>PT6394</name></trkpt>
<trkpt lat="53.371685" lon="-1.921151"><ele>254</ele><time>2021-10-07T14:27:24Z</time><name>PT6395</name></trkpt>
<trkpt lat="53.371696" lon="-1.921156"><ele>256</ele><time>2021-10-07T14:27:25Z</time><name>PT6396</name></trkpt>
<trkpt lat="53.371705" lon="-1.921163"><ele>255</ele><time>2021-10-07T14:27:26Z</time><name>PT6397</name></trkpt>
<trkpt lat="53.371710" lon="-1.921179"><ele>255</ele><time>2021-10-07T14:27:27Z</time><name>PT6398</name></trkpt>
<trkpt lat="53.371721" lon="-1.921186"><ele>254</ele><time>2021-10-07T14:27:28Z</time><name>PT6399</name></trkpt>
<trkpt lat="53.371734" lon="-1.921191"><ele>255</ele><time>2021-10-07T14:27:29Z</time><name>PT6400</name></trkpt>
<trkpt lat="53.371743" lon="-1.921196"><ele>255</ele><time>2021-10-07T14:27:30Z</time><name>PT6401</name></trkpt>
<trkpt lat="53.371752" lon="-1.921197"><ele>255</ele><time>2021-10-07T14:27:31Z</time><name>PT6402</name></trkpt>
<trkpt lat="53.371764" lon="-1.921202"><ele>255</ele><time>2021-10-07T14:27:32Z</time><name>PT6403</name></trkpt>
<trkpt lat="53.371772" lon="-1.921206"><ele>255</ele><time>2021-10-07T14:27:33Z</time><name>PT6404</name></trkpt>
<trkpt lat="53.371778" lon="-1.921213"><ele>255</ele><time>2021-10-07T14:27:34Z</time><name>PT6405</name></trkpt>
<trkpt lat="53.371791" lon="-1.921220"><ele>256</ele><time>2021-10-07T14:27:35Z</time><name>PT6406</name></trkpt>
<trkpt lat="53.371801" lon="-1.921233"><ele>256</ele><time>2021-10-07T14:27:36Z</time><name>PT6407</name></trkpt>
<trkpt lat="53.371814" lon="-1.921243"><ele>255</ele><time>2021-10-07T14:27:37Z</time><name>PT6408</name></trkpt>
<trkpt lat="53.371823" lon="-1.921250"><ele>254</ele><time>2021-10-07T14:27:38Z</time><name>PT6409</name></trkpt>
<trkpt lat="53.371838" lon="-1.921258"><ele>255</ele><time>2021-10-07T14:27:39Z</time><name>PT6410</name></trkpt>
<trkpt lat="53.371852" lon="-1.921265"><ele>256</ele><time>2021-10-07T14:27:40Z</time><name>PT6411</name></trkpt>
<trkpt lat="53.371861" lon="-1.921274"><ele>256</ele><time>2021-10-07T14:27:41Z</time><name>PT6412</name></trkpt>
<trkpt lat="53.371873" lon="-1.921282"><ele>256</ele><time>2021-10-07T14:27:42Z</time><name>PT6413</name></trkpt>
<trkpt lat="53.371885" lon="-1.921283"><ele>257</ele><time>2021-10-07T14:27:43Z</time><name>PT6414</name></trkpt>
<trkpt lat="53.371895" lon="-1.921287"><ele>258</ele><time>2021-10-07T14:27:44Z</time><name>PT6415</name></trkpt>
<trkpt lat="53.371906" lon="-1.921290"><ele>257</ele><time>2021-10-07T14:27:45Z</time><name>PT6416</name></trkpt>
<trkpt lat="53.371914" lon="-1.921292"><ele>258</ele><time>2021-10-07T14:27:46Z</time><name>PT6417</name></trkpt>
<trkpt lat="53.371928" lon="-1.921292"><ele>258</ele><time>2021-10-07T14:27:47Z</time><name>PT6418</name></trkpt>
<trkpt lat="53.371939" lon="-1.921288"><ele>258</ele><time>2021-10-07T14:27:48Z</time><name>PT6419</name></trkpt>
<trkpt lat="53.371946" lon="-1.921291"><ele>259</ele><time>2021-10-07T14:27:49Z</time><name>PT6420</name></trkpt>
<trkpt lat="53.371963" lon="-1.921292"><ele>260</ele><time>2021-10-07T14:27:50Z</time><name>PT6421</name></trkpt>
<trkpt lat="53.371974" lon="-1.921294"><ele>260</ele><time>2021-10-07T14:27:51Z</time><name>PT6422</name></trkpt>
<trkpt lat="53.371984" lon="-1.921297"><ele>260</ele><time>2021-10-07T14:27:52Z</time><name>PT6423</name></trkpt>
<trkpt lat="53.371996" lon="-1.921300"><ele>261</ele><time>2021-10-07T14:27:53Z</time><name>PT6424</name></trkpt>
<trkpt lat="53.372007" lon="-1.921303"><ele>261</ele><time>2021-10-07T14:27:54Z</time><name>PT6425</name></trkpt>
<trkpt lat="53.372021" lon="-1.921303"><ele>263</ele><time>2021-10-07T14:27:55Z</time><name>PT6426</name></trkpt>
<trkpt lat="53.372031" lon="-1.921306"><ele>263</ele><time>2021-10-07T14:27:56Z</time><name>PT6427</name></trkpt>
<trkpt lat="53.372044" lon="-1.921307"><ele>263</ele><time>2021-10-07T14:27:57Z</time><name>PT6428</name></trkpt>
<trkpt lat="53.372052" lon="-1.921310"><ele>263</ele><time>2021-10-07T14:27:58Z</time><name>PT6429</name></trkpt>
<trkpt lat="53.372063" lon="-1.921315"><ele>262</ele><time>2021-10-07T14:27:59Z</time><name>PT6430</name></trkpt>
<trkpt lat="53.372075" lon="-1.921320"><ele>262</ele><time>2021-10-07T14:28:00Z</time><name>PT6431</name></trkpt>
<trkpt lat="53.372087" lon="-1.921329"><ele>262</ele><time>2021-10-07T14:28:01Z</time><name>PT6432</name></trkpt>
<trkpt lat="53.372099" lon="-1.921341"><ele>261</ele><time>2021-10-07T14:28:02Z</time><name>PT6433</name></trkpt>
<trkpt lat="53.372110" lon="-1.921347"><ele>261</ele><time>2021-10-07T14:28:03Z</time><name>PT6434</name></trkpt>
<trkpt lat="53.372122" lon="-1.921350"><ele>262</ele><time>2021-10-07T14:28:04Z</time><name>PT6435</name></trkpt>
<trkpt lat="53.372132" lon="-1.921354"><ele>262</ele><time>2021-10-07T14:28:05Z</time><name>PT6436</name></trkpt>
<trkpt lat="53.372140" lon="-1.921362"><ele>263</ele><time>2021-10-07T14:28:06Z</time><name>PT6437</name></trkpt>
<trkpt lat="53.372150" lon="-1.921376"><ele>262</ele><time>2021-10-07T14:28:07Z</time><name>PT6438</name></trkpt>
<trkpt lat="53.372161" lon="-1.921380"><ele>261</ele><time>2021-10-07T14:28:08Z</time><name>PT6439</name></trkpt>
<trkpt lat="53.372174" lon="-1.921384"><ele>261</ele><time>2021-10-07T14:28:09Z</time><name>PT6440</name></trkpt>
<trkpt lat="53.372185" lon="-1.921388"><ele>262</ele><time>2021-10-07T14:28:10Z</time><name>PT6441</name></trkpt>
<trkpt lat="53.372192" lon="-1.921400"><ele>260</ele><time>2021-10-07T14:28:11Z</time><name>PT6442</name></trkpt>
<trkpt lat="53.372201" lon="-1.921410"><ele>261</ele><time>2021-10-07T14:28:12Z</time><name>PT6443</name></trkpt>
<trkpt lat="53.372214" lon="-1.921413"><ele>262</ele><time>2021-10-07T14:28:13Z</time><name>PT6444</name></trkpt>
<trkpt lat="53.372222" lon="-1.921416"><ele>261</ele><time>2021-10-07T14:28:14Z</time><name>PT6445</name></trkpt>
<trkpt lat="53.372232" lon="-1.921423"><ele>262</ele><time>2021-10-07T14:28:15Z</time><name>PT6446</name></trkpt>
<trkpt lat="53.372241" lon="-1.921430"><ele>262</ele><time>2021-10-07T14:28:16Z</time><name>PT6447</name></trkpt>
<trkpt lat="53.372252" lon="-1.921436"><ele>263</ele><time>2021-10-07T14:28:17Z</time><name>PT6448</name></trkpt>
<trkpt lat="53.372262" lon="-1.921438"><ele>263</ele><time>2021-10-07T14:28:18Z</time><name>PT6449</name></trkpt>
<trkpt lat="53.372271" lon="-1.921441"><ele>263</ele><time>2021-10-07T14:28:19Z</time><name>PT6450</name></trkpt>
<trkpt lat="53.372280" lon="-1.921447"><ele>263</ele><time>2021-10-07T14:28:20Z</time><name>PT6451</name></trkpt>
<trkpt lat="53.372288" lon="-1.921451"><ele>264</ele><time>2021-10-07T14:28:21Z</time><name>PT6452</name></trkpt>
<trkpt lat="53.372296" lon="-1.921455"><ele>265</ele><time>2021-10-07T14:28:22Z</time><name>PT6453</name></trkpt>
<trkpt lat="53.372302" lon="-1.921464"><ele>265</ele><time>2021-10-07T14:28:23Z</time><name>PT6454</name></trkpt>
<trkpt lat="53.372309" lon="-1.921474"><ele>266</ele><time>2021-10-07T14:28:24Z</time><name>PT6455</name></trkpt>
<trkpt lat="53.372319" lon="-1.921479"><ele>266</ele><time>2021-10-07T14:28:25Z</time><name>PT6456</name></trkpt>
<trkpt lat="53.372327" lon="-1.921483"><ele>266</ele><time>2021-10-07T14:28:26Z</time><name>PT6457</name></trkpt>
<trkpt lat="53.372334" lon="-1.921481"><ele>266</ele><time>2021-10-07T14:28:27Z</time><name>PT6458</name></trkpt>
<trkpt lat="53.372337" lon="-1.921478"><ele>267</ele><time>2021-10-07T14:28:28Z</time><name>PT6459</name></trkpt>
<trkpt lat="53.372339" lon="-1.921481"><ele>266</ele><time>2021-10-07T14:28:29Z</time><name>PT6460</name></trkpt>
<trkpt lat="53.372341" lon="-1.921480"><ele>266</ele><time>2021-10-07T14:28:30Z</time><name>PT6461</name></trkpt>
<trkpt lat="53.372340" lon="-1.921469"><ele>266</ele><time>2021-10-07T14:28:32Z</time><name>PT6462</name></trkpt>
<trkpt lat="53.372350" lon="-1.921473"><ele>266</ele><time>2021-10-07T14:28:33Z</time><name>PT6463</name></trkpt>
<trkpt lat="53.372360" lon="-1.921482"><ele>266</ele><time>2021-10-07T14:28:34Z</time><name>PT6464</name></trkpt>
<trkpt lat="53.372369" lon="-1.921492"><ele>266</ele><time>2021-10-07T14:28:35Z</time><name>PT6465</name></trkpt>
<trkpt lat="53.372376" lon="-1.921500"><ele>266</ele><time>2021-10-07T14:28:36Z</time><name>PT6466</name></trkpt>
<trkpt lat="53.372388" lon="-1.921504"><ele>266</ele><time>2021-10-07T14:28:37Z</time><name>PT6467</name></trkpt>
<trkpt lat="53.372399" lon="-1.921507"><ele>266</ele><time>2021-10-07T14:28:38Z</time><name>PT6468</name></trkpt>
<trkpt lat="53.372410" lon="-1.921511"><ele>267</ele><time>2021-10-07T14:28:39Z</time><name>PT6469</name></trkpt>
<trkpt lat="53.372418" lon="-1.921515"><ele>267</ele><time>2021-10-07T14:28:40Z</time><name>PT6470</name></trkpt>
<trkpt lat="53.372427" lon="-1.921518"><ele>267</ele><time>2021-10-07T14:28:41Z</time><name>PT6471</name></trkpt>
<trkpt lat="53.372435" lon="-1.921520"><ele>267</ele><time>2021-10-07T14:28:42Z</time><name>PT6472</name></trkpt>
<trkpt lat="53.372444" lon="-1.921520"><ele>268</ele><time>2021-10-07T14:28:43Z</time><name>PT6473</name></trkpt>
<trkpt lat="53.372453" lon="-1.921517"><ele>268</ele><time>2021-10-07T14:28:44Z</time><name>PT6474</name></trkpt>
<trkpt lat="53.372463" lon="-1.921518"><ele>268</ele><time>2021-10-07T14:28:45Z</time><name>PT6475</name></trkpt>
<trkpt lat="53.372473" lon="-1.921523"><ele>268</ele><time>2021-10-07T14:28:46Z</time><name>PT6476</name></trkpt>
<trkpt lat="53.372485" lon="-1.921525"><ele>268</ele><time>2021-10-07T14:28:47Z</time><name>PT6477</name></trkpt>
<trkpt lat="53.372494" lon="-1.921527"><ele>269</ele><time>2021-10-07T14:28:48Z</time><name>PT6478</name></trkpt>
<trkpt lat="53.372504" lon="-1.921530"><ele>269</ele><time>2021-10-07T14:28:49Z</time><name>PT6479</name></trkpt>
<trkpt lat="53.372514" lon="-1.921532"><ele>269</ele><time>2021-10-07T14:28:50Z</time><name>PT6480</name></trkpt>
<trkpt lat="53.372523" lon="-1.921534"><ele>269</ele><time>2021-10-07T14:28:51Z</time><name>PT6481</name></trkpt>
<trkpt lat="53.372532" lon="-1.921534"><ele>270</ele><time>2021-10-07T14:28:52Z</time><name>PT6482</name></trkpt>
<trkpt lat="53.372538" lon="-1.921535"><ele>270</ele><time>2021-10-07T14:28:53Z</time><name>PT6483</name></trkpt>
<trkpt lat="53.372550" lon="-1.921532"><ele>271</ele><time>2021-10-07T14:28:54Z</time><name>PT6484</name></trkpt>
<trkpt lat="53.372557" lon="-1.921530"><ele>271</ele><time>2021-10-07T14:28:55Z</time><name>PT6485</name></trkpt>
<trkpt lat="53.372563" lon="-1.921531"><ele>272</ele><time>2021-10-07T14:28:56Z</time><name>PT6486</name></trkpt>
<trkpt lat="53.372571" lon="-1.921532"><ele>272</ele><time>2021-10-07T14:28:57Z</time><name>PT6487</name></trkpt>
<trkpt lat="53.372584" lon="-1.921532"><ele>272</ele><time>2021-10-07T14:28:58Z</time><name>PT6488</name></trkpt>
<trkpt lat="53.372595" lon="-1.921532"><ele>271</ele><time>2021-10-07T14:28:59Z</time><name>PT6489</name></trkpt>
<trkpt lat="53.372606" lon="-1.921528"><ele>272</ele><time>2021-10-07T14:29:00Z</time><name>PT6490</name></trkpt>
<trkpt lat="53.372616" lon="-1.921525"><ele>272</ele><time>2021-10-07T14:29:01Z</time><name>PT6491</name></trkpt>
<trkpt lat="53.372627" lon="-1.921522"><ele>272</ele><time>2021-10-07T14:29:02Z</time><name>PT6492</name></trkpt>
<trkpt lat="53.372637" lon="-1.921519"><ele>272</ele><time>2021-10-07T14:29:03Z</time><name>PT6493</name></trkpt>
<trkpt lat="53.372648" lon="-1.921508"><ele>272</ele><time>2021-10-07T14:29:04Z</time><name>PT6494</name></trkpt>
<trkpt lat="53.372659" lon="-1.921505"><ele>272</ele><time>2021-10-07T14:29:05Z</time><name>PT6495</name></trkpt>
<trkpt lat="53.372676" lon="-1.921500"><ele>272</ele><time>2021-10-07T14:29:06Z</time><name>PT6496</name></trkpt>
<trkpt lat="53.372687" lon="-1.921493"><ele>272</ele><time>2021-10-07T14:29:07Z</time><name>PT6497</name></trkpt>
<trkpt lat="53.372699" lon="-1.921487"><ele>272</ele><time>2021-10-07T14:29:08Z</time><name>PT6498</name></trkpt>
<trkpt lat="53.372710" lon="-1.921477"><ele>273</ele><time>2021-10-07T14:29:09Z</time><name>PT6499</name></trkpt>
<trkpt lat="53.372721" lon="-1.921472"><ele>273</ele><time>2021-10-07T14:29:10Z</time><name>PT6500</name></trkpt>
<trkpt lat="53.372730" lon="-1.921462"><ele>274</ele><time>2021-10-07T14:29:11Z</time><name>PT6501</name></trkpt>
<trkpt lat="53.372739" lon="-1.921453"><ele>274</ele><time>2021-10-07T14:29:12Z</time><name>PT6502</name></trkpt>
<trkpt lat="53.372750" lon="-1.921438"><ele>274</ele><time>2021-10-07T14:29:13Z</time><name>PT6503</name></trkpt>
<trkpt lat="53.372757" lon="-1.921425"><ele>275</ele><time>2021-10-07T14:29:14Z</time><name>PT6504</name></trkpt>
<trkpt lat="53.372769" lon="-1.921414"><ele>275</ele><time>2021-10-07T14:29:15Z</time><name>PT6505</name></trkpt>
<trkpt lat="53.372779" lon="-1.921413"><ele>275</ele><time>2021-10-07T14:29:16Z</time><name>PT6506</name></trkpt>
<trkpt lat="53.372787" lon="-1.921409"><ele>275</ele><time>2021-10-07T14:29:17Z</time><name>PT6507</name></trkpt>
<trkpt lat="53.372798" lon="-1.921405"><ele>274</ele><time>2021-10-07T14:29:18Z</time><name>PT6508</name></trkpt>
<trkpt lat="53.372809" lon="-1.921397"><ele>274</ele><time>2021-10-07T14:29:19Z</time><name>PT6509</name></trkpt>
<trkpt lat="53.372820" lon="-1.921388"><ele>274</ele><time>2021-10-07T14:29:20Z</time><name>PT6510</name></trkpt>
<trkpt lat="53.372832" lon="-1.921378"><ele>273</ele><time>2021-10-07T14:29:21Z</time><name>PT6511</name></trkpt>
<trkpt lat="53.372842" lon="-1.921368"><ele>273</ele><time>2021-10-07T14:29:22Z</time><name>PT6512</name></trkpt>
<trkpt lat="53.372850" lon="-1.921360"><ele>273</ele><time>2021-10-07T14:29:23Z</time><name>PT6513</name></trkpt>
<trkpt lat="53.372860" lon="-1.921350"><ele>273</ele><time>2021-10-07T14:29:24Z</time><name>PT6514</name></trkpt>
<trkpt lat="53.372872" lon="-1.921339"><ele>274</ele><time>2021-10-07T14:29:25Z</time><name>PT6515</name></trkpt>
<trkpt lat="53.372885" lon="-1.921335"><ele>273</ele><time>2021-10-07T14:29:26Z</time><name>PT6516</name></trkpt>
<trkpt lat="53.372896" lon="-1.921327"><ele>274</ele><time>2021-10-07T14:29:27Z</time><name>PT6517</name></trkpt>
<trkpt lat="53.372907" lon="-1.921321"><ele>274</ele><time>2021-10-07T14:29:28Z</time><name>PT6518</name></trkpt>
<trkpt lat="53.372920" lon="-1.921315"><ele>274</ele><time>2021-10-07T14:29:29Z</time><name>PT6519</name></trkpt>
<trkpt lat="53.372932" lon="-1.921309"><ele>274</ele><time>2021-10-07T14:29:30Z</time><name>PT6520</name></trkpt>
<trkpt lat="53.372965" lon="-1.921272"><ele>276</ele><time>2021-10-07T14:29:33Z</time><name>PT6521</name></trkpt>
<trkpt lat="53.373010" lon="-1.921233"><ele>277</ele><time>2021-10-07T14:29:37Z</time><name>PT6522</name></trkpt>
<trkpt lat="53.373048" lon="-1.921216"><ele>276</ele><time>2021-10-07T14:29:41Z</time><name>PT6523</name></trkpt>
<trkpt lat="53.373081" lon="-1.921196"><ele>275</ele><time>2021-10-07T14:29:45Z</time><name>PT6524</name></trkpt>
<trkpt lat="53.373122" lon="-1.921185"><ele>275</ele><time>2021-10-07T14:29:49Z</time><name>PT6525</name></trkpt>
<trkpt lat="53.373170" lon="-1.921178"><ele>275</ele><time>2021-10-07T14:29:53Z</time><name>PT6526</name></trkpt>
<trkpt lat="53.373212" lon="-1.921184"><ele>275</ele><time>2021-10-07T14:29:57Z</time><name>PT6527</name></trkpt>
<trkpt lat="53.373252" lon="-1.921184"><ele>276</ele><time>2021-10-07T14:30:01Z</time><name>PT6528</name></trkpt>
<trkpt lat="53.373290" lon="-1.921180"><ele>276</ele><time>2021-10-07T14:30:05Z</time><name>PT6529</name></trkpt>
<trkpt lat="53.373313" lon="-1.921165"><ele>276</ele><time>2021-10-07T14:30:09Z</time><name>PT6530</name></trkpt>
<trkpt lat="53.373316" lon="-1.921163"><ele>277</ele><time>2021-10-07T14:30:13Z</time><name>PT6531</name></trkpt>
<trkpt lat="53.373368" lon="-1.921184"><ele>277</ele><time>2021-10-07T14:30:24Z</time><name>PT6532</name></trkpt>
<trkpt lat="53.373418" lon="-1.921194"><ele>277</ele><time>2021-10-07T14:30:28Z</time><name>PT6533</name></trkpt>
<trkpt lat="53.373458" lon="-1.921227"><ele>275</ele><time>2021-10-07T14:30:32Z</time><name>PT6534</name></trkpt>
<trkpt lat="53.373488" lon="-1.921247"><ele>271</ele><time>2021-10-07T14:30:36Z</time><name>PT6535</name></trkpt>
<trkpt lat="53.373535" lon="-1.921264"><ele>270</ele><time>2021-10-07T14:30:40Z</time><name>PT6536</name></trkpt>
<trkpt lat="53.373561" lon="-1.921288"><ele>269</ele><time>2021-10-07T14:30:43Z</time><name>PT6537</name></trkpt>
<trkpt lat="53.373574" lon="-1.921294"><ele>268</ele><time>2021-10-07T14:30:44Z</time><name>PT6538</name></trkpt>
<trkpt lat="53.373587" lon="-1.921303"><ele>268</ele><time>2021-10-07T14:30:45Z</time><name>PT6539</name></trkpt>
<trkpt lat="53.373594" lon="-1.921311"><ele>268</ele><time>2021-10-07T14:30:46Z</time><name>PT6540</name></trkpt>
<trkpt lat="53.373602" lon="-1.921310"><ele>267</ele><time>2021-10-07T14:30:47Z</time><name>PT6541</name></trkpt>
<trkpt lat="53.373622" lon="-1.921309"><ele>268</ele><time>2021-10-07T14:30:48Z</time><name>PT6542</name></trkpt>
<trkpt lat="53.373641" lon="-1.921317"><ele>269</ele><time>2021-10-07T14:30:49Z</time><name>PT6543</name></trkpt>
<trkpt lat="53.373658" lon="-1.921328"><ele>270</ele><time>2021-10-07T14:30:50Z</time><name>PT6544</name></trkpt>
<trkpt lat="53.373673" lon="-1.921336"><ele>269</ele><time>2021-10-07T14:30:51Z</time><name>PT6545</name></trkpt>
<trkpt lat="53.373685" lon="-1.921347"><ele>269</ele><time>2021-10-07T14:30:52Z</time><name>PT6546</name></trkpt>
<trkpt lat="53.373698" lon="-1.921349"><ele>268</ele><time>2021-10-07T14:30:53Z</time><name>PT6547</name></trkpt>
<trkpt lat="53.373715" lon="-1.921355"><ele>269</ele><time>2021-10-07T14:30:54Z</time><name>PT6548</name></trkpt>
<trkpt lat="53.373729" lon="-1.921362"><ele>269</ele><time>2021-10-07T14:30:55Z</time><name>PT6549</name></trkpt>
<trkpt lat="53.373747" lon="-1.921364"><ele>269</ele><time>2021-10-07T14:30:56Z</time><name>PT6550</name></trkpt>
<trkpt lat="53.373762" lon="-1.921372"><ele>269</ele><time>2021-10-07T14:30:57Z</time><name>PT6551</name></trkpt>
<trkpt lat="53.373777" lon="-1.921380"><ele>269</ele><time>2021-10-07T14:30:58Z</time><name>PT6552</name></trkpt>
<trkpt lat="53.373790" lon="-1.921387"><ele>269</ele><time>2021-10-07T14:30:59Z</time><name>PT6553</name></trkpt>
<trkpt lat="53.373801" lon="-1.921397"><ele>269</ele><time>2021-10-07T14:31:00Z</time><name>PT6554</name></trkpt>
<trkpt lat="53.373810" lon="-1.921404"><ele>268</ele><time>2021-10-07T14:31:01Z</time><name>PT6555</name></trkpt>
<trkpt lat="53.373821" lon="-1.921409"><ele>268</ele><time>2021-10-07T14:31:02Z</time><name>PT6556</name></trkpt>
<trkpt lat="53.373829" lon="-1.921414"><ele>268</ele><time>2021-10-07T14:31:03Z</time><name>PT6557</name></trkpt>
<trkpt lat="53.373838" lon="-1.921421"><ele>267</ele><time>2021-10-07T14:31:04Z</time><name>PT6558</name></trkpt>
<trkpt lat="53.373848" lon="-1.921429"><ele>267</ele><time>2021-10-07T14:31:05Z</time><name>PT6559</name></trkpt>
<trkpt lat="53.373863" lon="-1.921440"><ele>267</ele><time>2021-10-07T14:31:06Z</time><name>PT6560</name></trkpt>
<trkpt lat="53.373878" lon="-1.921451"><ele>267</ele><time>2021-10-07T14:31:07Z</time><name>PT6561</name></trkpt>
<trkpt lat="53.373890" lon="-1.921457"><ele>267</ele><time>2021-10-07T14:31:08Z</time><name>PT6562</name></trkpt>
<trkpt lat="53.373901" lon="-1.921461"><ele>267</ele><time>2021-10-07T14:31:09Z</time><name>PT6563</name></trkpt>
<trkpt lat="53.373912" lon="-1.921468"><ele>267</ele><time>2021-10-07T14:31:10Z</time><name>PT6564</name></trkpt>
<trkpt lat="53.373923" lon="-1.921477"><ele>267</ele><time>2021-10-07T14:31:11Z</time><name>PT6565</name></trkpt>
<trkpt lat="53.373934" lon="-1.921481"><ele>267</ele><time>2021-10-07T14:31:12Z</time><name>PT6566</name></trkpt>
<trkpt lat="53.373941" lon="-1.921484"><ele>267</ele><time>2021-10-07T14:31:13Z</time><name>PT6567</name></trkpt>
<trkpt lat="53.373949" lon="-1.921492"><ele>267</ele><time>2021-10-07T14:31:14Z</time><name>PT6568</name></trkpt>
<trkpt lat="53.373957" lon="-1.921506"><ele>267</ele><time>2021-10-07T14:31:15Z</time><name>PT6569</name></trkpt>
<trkpt lat="53.373965" lon="-1.921514"><ele>266</ele><time>2021-10-07T14:31:16Z</time><name>PT6570</name></trkpt>
<trkpt lat="53.373978" lon="-1.921517"><ele>266</ele><time>2021-10-07T14:31:17Z</time><name>PT6571</name></trkpt>
<trkpt lat="53.373991" lon="-1.921521"><ele>266</ele><time>2021-10-07T14:31:18Z</time><name>PT6572</name></trkpt>
<trkpt lat="53.374000" lon="-1.921526"><ele>266</ele><time>2021-10-07T14:31:19Z</time><name>PT6573</name></trkpt>
<trkpt lat="53.374012" lon="-1.921533"><ele>266</ele><time>2021-10-07T14:31:20Z</time><name>PT6574</name></trkpt>
<trkpt lat="53.374026" lon="-1.921537"><ele>267</ele><time>2021-10-07T14:31:21Z</time><name>PT6575</name></trkpt>
<trkpt lat="53.374036" lon="-1.921538"><ele>266</ele><time>2021-10-07T14:31:22Z</time><name>PT6576</name></trkpt>
<trkpt lat="53.374042" lon="-1.921543"><ele>266</ele><time>2021-10-07T14:31:23Z</time><name>PT6577</name></trkpt>
<trkpt lat="53.374047" lon="-1.921550"><ele>266</ele><time>2021-10-07T14:31:24Z</time><name>PT6578</name></trkpt>
<trkpt lat="53.374059" lon="-1.921560"><ele>266</ele><time>2021-10-07T14:31:25Z</time><name>PT6579</name></trkpt>
<trkpt lat="53.374072" lon="-1.921565"><ele>267</ele><time>2021-10-07T14:31:26Z</time><name>PT6580</name></trkpt>
<trkpt lat="53.374083" lon="-1.921569"><ele>266</ele><time>2021-10-07T14:31:28Z</time><name>PT6581</name></trkpt>
<trkpt lat="53.374096" lon="-1.921573"><ele>266</ele><time>2021-10-07T14:31:28Z</time><name>PT6582</name></trkpt>
<trkpt lat="53.374110" lon="-1.921573"><ele>266</ele><time>2021-10-07T14:31:29Z</time><name>PT6583</name></trkpt>
<trkpt lat="53.374120" lon="-1.921573"><ele>267</ele><time>2021-10-07T14:31:30Z</time><name>PT6584</name></trkpt>
<trkpt lat="53.374130" lon="-1.921577"><ele>267</ele><time>2021-10-07T14:31:31Z</time><name>PT6585</name></trkpt>
<trkpt lat="53.374143" lon="-1.921585"><ele>267</ele><time>2021-10-07T14:31:32Z</time><name>PT6586</name></trkpt>
<trkpt lat="53.374155" lon="-1.921591"><ele>266</ele><time>2021-10-07T14:31:33Z</time><name>PT6587</name></trkpt>
<trkpt lat="53.374168" lon="-1.921593"><ele>266</ele><time>2021-10-07T14:31:34Z</time><name>PT6588</name></trkpt>
<trkpt lat="53.374182" lon="-1.921594"><ele>267</ele><time>2021-10-07T14:31:35Z</time><name>PT6589</name></trkpt>
<trkpt lat="53.374194" lon="-1.921599"><ele>266</ele><time>2021-10-07T14:31:36Z</time><name>PT6590</name></trkpt>
<trkpt lat="53.374208" lon="-1.921601"><ele>266</ele><time>2021-10-07T14:31:37Z</time><name>PT6591</name></trkpt>
<trkpt lat="53.374219" lon="-1.921603"><ele>266</ele><time>2021-10-07T14:31:38Z</time><name>PT6592</name></trkpt>
<trkpt lat="53.374230" lon="-1.921602"><ele>266</ele><time>2021-10-07T14:31:39Z</time><name>PT6593</name></trkpt>
<trkpt lat="53.374240" lon="-1.921604"><ele>266</ele><time>2021-10-07T14:31:40Z</time><name>PT6594</name></trkpt>
<trkpt lat="53.374250" lon="-1.921604"><ele>266</ele><time>2021-10-07T14:31:41Z</time><name>PT6595</name></trkpt>
<trkpt lat="53.374261" lon="-1.921607"><ele>266</ele><time>2021-10-07T14:31:42Z</time><name>PT6596</name></trkpt>
<trkpt lat="53.374271" lon="-1.921608"><ele>265</ele><time>2021-10-07T14:31:43Z</time><name>PT6597</name></trkpt>
<trkpt lat="53.374279" lon="-1.921611"><ele>265</ele><time>2021-10-07T14:31:44Z</time><name>PT6598</name></trkpt>
<trkpt lat="53.374286" lon="-1.921613"><ele>265</ele><time>2021-10-07T14:31:45Z</time><name>PT6599</name></trkpt>
<trkpt lat="53.374293" lon="-1.921614"><ele>264</ele><time>2021-10-07T14:31:46Z</time><name>PT6600</name></trkpt>
<trkpt lat="53.374300" lon="-1.921623"><ele>264</ele><time>2021-10-07T14:31:47Z</time><name>PT6601</name></trkpt>
<trkpt lat="53.374310" lon="-1.921631"><ele>264</ele><time>2021-10-07T14:31:48Z</time><name>PT6602</name></trkpt>
<trkpt lat="53.374322" lon="-1.921638"><ele>263</ele><time>2021-10-07T14:31:49Z</time><name>PT6603</name></trkpt>
<trkpt lat="53.374333" lon="-1.921645"><ele>263</ele><time>2021-10-07T14:31:50Z</time><name>PT6604</name></trkpt>
<trkpt lat="53.374346" lon="-1.921645"><ele>262</ele><time>2021-10-07T14:31:51Z</time><name>PT6605</name></trkpt>
<trkpt lat="53.374359" lon="-1.921643"><ele>263</ele><time>2021-10-07T14:31:52Z</time><name>PT6606</name></trkpt>
<trkpt lat="53.374370" lon="-1.921638"><ele>263</ele><time>2021-10-07T14:31:53Z</time><name>PT6607</name></trkpt>
<trkpt lat="53.374382" lon="-1.921636"><ele>263</ele><time>2021-10-07T14:31:54Z</time><name>PT6608</name></trkpt>
<trkpt lat="53.374393" lon="-1.921642"><ele>263</ele><time>2021-10-07T14:31:55Z</time><name>PT6609</name></trkpt>
<trkpt lat="53.374409" lon="-1.921647"><ele>263</ele><time>2021-10-07T14:31:56Z</time><name>PT6610</name></trkpt>
<trkpt lat="53.374425" lon="-1.921653"><ele>262</ele><time>2021-10-07T14:31:57Z</time><name>PT6611</name></trkpt>
<trkpt lat="53.374439" lon="-1.921654"><ele>262</ele><time>2021-10-07T14:31:58Z</time><name>PT6612</name></trkpt>
<trkpt lat="53.374449" lon="-1.921660"><ele>262</ele><time>2021-10-07T14:31:59Z</time><name>PT6613</name></trkpt>
<trkpt lat="53.374459" lon="-1.921661"><ele>261</ele><time>2021-10-07T14:32:00Z</time><name>PT6614</name></trkpt>
<trkpt lat="53.374472" lon="-1.921660"><ele>262</ele><time>2021-10-07T14:32:01Z</time><name>PT6615</name></trkpt>
<trkpt lat="53.374487" lon="-1.921665"><ele>262</ele><time>2021-10-07T14:32:02Z</time><name>PT6616</name></trkpt>
<trkpt lat="53.374501" lon="-1.921671"><ele>262</ele><time>2021-10-07T14:32:03Z</time><name>PT6617</name></trkpt>
<trkpt lat="53.374513" lon="-1.921675"><ele>261</ele><time>2021-10-07T14:32:04Z</time><name>PT6618</name></trkpt>
<trkpt lat="53.374525" lon="-1.921676"><ele>261</ele><time>2021-10-07T14:32:05Z</time><name>PT6619</name></trkpt>
<trkpt lat="53.374536" lon="-1.921676"><ele>261</ele><time>2021-10-07T14:32:06Z</time><name>PT6620</name></trkpt>
<trkpt lat="53.374552" lon="-1.921677"><ele>261</ele><time>2021-10-07T14:32:07Z</time><name>PT6621</name></trkpt>
<trkpt lat="53.374565" lon="-1.921677"><ele>261</ele><time>2021-10-07T14:32:08Z</time><name>PT6622</name></trkpt>
<trkpt lat="53.374568" lon="-1.921674"><ele>261</ele><time>2021-10-07T14:32:09Z</time><name>PT6623</name></trkpt>
<trkpt lat="53.374573" lon="-1.921668"><ele>261</ele><time>2021-10-07T14:32:10Z</time><name>PT6624</name></trkpt>
<trkpt lat="53.374578" lon="-1.921660"><ele>261</ele><time>2021-10-07T14:32:11Z</time><name>PT6625</name></trkpt>
<trkpt lat="53.374585" lon="-1.921662"><ele>262</ele><time>2021-10-07T14:32:12Z</time><name>PT6626</name></trkpt>
<trkpt lat="53.374595" lon="-1.921670"><ele>261</ele><time>2021-10-07T14:32:13Z</time><name>PT6627</name></trkpt>
<trkpt lat="53.374607" lon="-1.921674"><ele>262</ele><time>2021-10-07T14:32:14Z</time><name>PT6628</name></trkpt>
<trkpt lat="53.374615" lon="-1.921682"><ele>261</ele><time>2021-10-07T14:32:15Z</time><name>PT6629</name></trkpt>
<trkpt lat="53.374626" lon="-1.921690"><ele>261</ele><time>2021-10-07T14:32:16Z</time><name>PT6630</name></trkpt>
<trkpt lat="53.374642" lon="-1.921695"><ele>261</ele><time>2021-10-07T14:32:17Z</time><name>PT6631</name></trkpt>
<trkpt lat="53.374657" lon="-1.921700"><ele>261</ele><time>2021-10-07T14:32:18Z</time><name>PT6632</name></trkpt>
<trkpt lat="53.374671" lon="-1.921706"><ele>261</ele><time>2021-10-07T14:32:19Z</time><name>PT6633</name></trkpt>
<trkpt lat="53.374686" lon="-1.921706"><ele>261</ele><time>2021-10-07T14:32:20Z</time><name>PT6634</name></trkpt>
<trkpt lat="53.374697" lon="-1.921707"><ele>261</ele><time>2021-10-07T14:32:21Z</time><name>PT6635</name></trkpt>
<trkpt lat="53.374710" lon="-1.921708"><ele>261</ele><time>2021-10-07T14:32:22Z</time><name>PT6636</name></trkpt>
<trkpt lat="53.374724" lon="-1.921712"><ele>261</ele><time>2021-10-07T14:32:23Z</time><name>PT6637</name></trkpt>
<trkpt lat="53.374737" lon="-1.921713"><ele>261</ele><time>2021-10-07T14:32:24Z</time><name>PT6638</name></trkpt>
<trkpt lat="53.374748" lon="-1.921715"><ele>261</ele><time>2021-10-07T14:32:25Z</time><name>PT6639</name></trkpt>
<trkpt lat="53.374761" lon="-1.921713"><ele>261</ele><time>2021-10-07T14:32:26Z</time><name>PT6640</name></trkpt>
<trkpt lat="53.374772" lon="-1.921714"><ele>261</ele><time>2021-10-07T14:32:27Z</time><name>PT6641</name></trkpt>
<trkpt lat="53.374781" lon="-1.921726"><ele>259</ele><time>2021-10-07T14:32:28Z</time><name>PT6642</name></trkpt>
<trkpt lat="53.374792" lon="-1.921731"><ele>259</ele><time>2021-10-07T14:32:29Z</time><name>PT6643</name></trkpt>
<trkpt lat="53.374802" lon="-1.921736"><ele>258</ele><time>2021-10-07T14:32:30Z</time><name>PT6644</name></trkpt>
<trkpt lat="53.374812" lon="-1.921742"><ele>258</ele><time>2021-10-07T14:32:31Z</time><name>PT6645</name></trkpt>
<trkpt lat="53.374822" lon="-1.921743"><ele>258</ele><time>2021-10-07T14:32:32Z</time><name>PT6646</name></trkpt>
<trkpt lat="53.374832" lon="-1.921742"><ele>258</ele><time>2021-10-07T14:32:33Z</time><name>PT6647</name></trkpt>
<trkpt lat="53.374839" lon="-1.921740"><ele>258</ele><time>2021-10-07T14:32:34Z</time><name>PT6648</name></trkpt>
<trkpt lat="53.374846" lon="-1.921745"><ele>257</ele><time>2021-10-07T14:32:35Z</time><name>PT6649</name></trkpt>
<trkpt lat="53.374852" lon="-1.921746"><ele>257</ele><time>2021-10-07T14:32:36Z</time><name>PT6650</name></trkpt>
<trkpt lat="53.374856" lon="-1.921744"><ele>257</ele><time>2021-10-07T14:32:37Z</time><name>PT6651</name></trkpt>
<trkpt lat="53.374862" lon="-1.921743"><ele>258</ele><time>2021-10-07T14:32:38Z</time><name>PT6652</name></trkpt>
<trkpt lat="53.374859" lon="-1.921746"><ele>257</ele><time>2021-10-07T14:32:39Z</time><name>PT6653</name></trkpt>
<trkpt lat="53.374856" lon="-1.921748"><ele>257</ele><time>2021-10-07T14:32:40Z</time><name>PT6654</name></trkpt>
<trkpt lat="53.374853" lon="-1.921754"><ele>257</ele><time>2021-10-07T14:32:41Z</time><name>PT6655</name></trkpt>
<trkpt lat="53.374852" lon="-1.921754"><ele>256</ele><time>2021-10-07T14:32:43Z</time><name>PT6656</name></trkpt>
<trkpt lat="53.374857" lon="-1.921749"><ele>257</ele><time>2021-10-07T14:32:45Z</time><name>PT6657</name></trkpt>
<trkpt lat="53.374859" lon="-1.921750"><ele>256</ele><time>2021-10-07T14:32:45Z</time><name>PT6658</name></trkpt>
<trkpt lat="53.374859" lon="-1.921751"><ele>256</ele><time>2021-10-07T14:32:46Z</time><name>PT6659</name></trkpt>
<trkpt lat="53.374861" lon="-1.921750"><ele>256</ele><time>2021-10-07T14:32:47Z</time><name>PT6660</name></trkpt>
<trkpt lat="53.374866" lon="-1.921744"><ele>256</ele><time>2021-10-07T14:32:50Z</time><name>PT6661</name></trkpt>
<trkpt lat="53.374879" lon="-1.921747"><ele>256</ele><time>2021-10-07T14:32:50Z</time><name>PT6662</name></trkpt>
<trkpt lat="53.374892" lon="-1.921756"><ele>256</ele><time>2021-10-07T14:32:51Z</time><name>PT6663</name></trkpt>
<trkpt lat="53.374906" lon="-1.921768"><ele>256</ele><time>2021-10-07T14:32:52Z</time><name>PT6664</name></trkpt>
<trkpt lat="53.374919" lon="-1.921778"><ele>256</ele><time>2021-10-07T14:32:53Z</time><name>PT6665</name></trkpt>
<trkpt lat="53.374928" lon="-1.921785"><ele>255</ele><time>2021-10-07T14:32:55Z</time><name>PT6666</name></trkpt>
<trkpt lat="53.374940" lon="-1.921793"><ele>255</ele><time>2021-10-07T14:32:55Z</time><name>PT6667</name></trkpt>
<trkpt lat="53.374950" lon="-1.921797"><ele>254</ele><time>2021-10-07T14:32:56Z</time><name>PT6668</name></trkpt>
<trkpt lat="53.374958" lon="-1.921806"><ele>254</ele><time>2021-10-07T14:32:58Z</time><name>PT6669</name></trkpt>
<trkpt lat="53.374967" lon="-1.921818"><ele>253</ele><time>2021-10-07T14:32:58Z</time><name>PT6670</name></trkpt>
<trkpt lat="53.374975" lon="-1.921829"><ele>253</ele><time>2021-10-07T14:32:59Z</time><name>PT6671</name></trkpt>
<trkpt lat="53.374978" lon="-1.921840"><ele>252</ele><time>2021-10-07T14:33:01Z</time><name>PT6672</name></trkpt>
<trkpt lat="53.374991" lon="-1.921844"><ele>252</ele><time>2021-10-07T14:33:01Z</time><name>PT6673</name></trkpt>
<trkpt lat="53.375000" lon="-1.921849"><ele>252</ele><time>2021-10-07T14:33:02Z</time><name>PT6674</name></trkpt>
<trkpt lat="53.375007" lon="-1.921856"><ele>251</ele><time>2021-10-07T14:33:03Z</time><name>PT6675</name></trkpt>
<trkpt lat="53.375016" lon="-1.921860"><ele>251</ele><time>2021-10-07T14:33:04Z</time><name>PT6676</name></trkpt>
<trkpt lat="53.375022" lon="-1.921870"><ele>251</ele><time>2021-10-07T14:33:05Z</time><name>PT6677</name></trkpt>
<trkpt lat="53.375030" lon="-1.921882"><ele>250</ele><time>2021-10-07T14:33:06Z</time><name>PT6678</name></trkpt>
<trkpt lat="53.375040" lon="-1.921887"><ele>250</ele><time>2021-10-07T14:33:07Z</time><name>PT6679</name></trkpt>
<trkpt lat="53.375053" lon="-1.921894"><ele>251</ele><time>2021-10-07T14:33:08Z</time><name>PT6680</name></trkpt>
<trkpt lat="53.375062" lon="-1.921905"><ele>250</ele><time>2021-10-07T14:33:09Z</time><name>PT6681</name></trkpt>
<trkpt lat="53.375072" lon="-1.921915"><ele>249</ele><time>2021-10-07T14:33:10Z</time><name>PT6682</name></trkpt>
<trkpt lat="53.375081" lon="-1.921927"><ele>248</ele><time>2021-10-07T14:33:11Z</time><name>PT6683</name></trkpt>
<trkpt lat="53.375090" lon="-1.921934"><ele>248</ele><time>2021-10-07T14:33:12Z</time><name>PT6684</name></trkpt>
<trkpt lat="53.375094" lon="-1.921948"><ele>248</ele><time>2021-10-07T14:33:13Z</time><name>PT6685</name></trkpt>
<trkpt lat="53.375102" lon="-1.921956"><ele>247</ele><time>2021-10-07T14:33:14Z</time><name>PT6686</name></trkpt>
<trkpt lat="53.375110" lon="-1.921962"><ele>246</ele><time>2021-10-07T14:33:15Z</time><name>PT6687</name></trkpt>
<trkpt lat="53.375115" lon="-1.921971"><ele>246</ele><time>2021-10-07T14:33:16Z</time><name>PT6688</name></trkpt>
<trkpt lat="53.375121" lon="-1.921974"><ele>246</ele><time>2021-10-07T14:33:17Z</time><name>PT6689</name></trkpt>
<trkpt lat="53.375125" lon="-1.921982"><ele>245</ele><time>2021-10-07T14:33:18Z</time><name>PT6690</name></trkpt>
<trkpt lat="53.375133" lon="-1.921989"><ele>245</ele><time>2021-10-07T14:33:19Z</time><name>PT6691</name></trkpt>
<trkpt lat="53.375145" lon="-1.921998"><ele>245</ele><time>2021-10-07T14:33:20Z</time><name>PT6692</name></trkpt>
<trkpt lat="53.375154" lon="-1.922002"><ele>245</ele><time>2021-10-07T14:33:21Z</time><name>PT6693</name></trkpt>
<trkpt lat="53.375163" lon="-1.922008"><ele>245</ele><time>2021-10-07T14:33:22Z</time><name>PT6694</name></trkpt>
<trkpt lat="53.375175" lon="-1.922014"><ele>245</ele><time>2021-10-07T14:33:23Z</time><name>PT6695</name></trkpt>
<trkpt lat="53.375185" lon="-1.922018"><ele>246</ele><time>2021-10-07T14:33:24Z</time><name>PT6696</name></trkpt>
<trkpt lat="53.375191" lon="-1.922025"><ele>245</ele><time>2021-10-07T14:33:25Z</time><name>PT6697</name></trkpt>
<trkpt lat="53.375201" lon="-1.922030"><ele>246</ele><time>2021-10-07T14:33:26Z</time><name>PT6698</name></trkpt>
<trkpt lat="53.375204" lon="-1.922039"><ele>244</ele><time>2021-10-07T14:33:27Z</time><name>PT6699</name></trkpt>
<trkpt lat="53.375212" lon="-1.922047"><ele>244</ele><time>2021-10-07T14:33:28Z</time><name>PT6700</name></trkpt>
<trkpt lat="53.375224" lon="-1.922050"><ele>244</ele><time>2021-10-07T14:33:29Z</time><name>PT6701</name></trkpt>
<trkpt lat="53.375241" lon="-1.922052"><ele>245</ele><time>2021-10-07T14:33:30Z</time><name>PT6702</name></trkpt>
<trkpt lat="53.375253" lon="-1.922052"><ele>244</ele><time>2021-10-07T14:33:31Z</time><name>PT6703</name></trkpt>
<trkpt lat="53.375264" lon="-1.922061"><ele>244</ele><time>2021-10-07T14:33:32Z</time><name>PT6704</name></trkpt>
<trkpt lat="53.375274" lon="-1.922070"><ele>244</ele><time>2021-10-07T14:33:33Z</time><name>PT6705</name></trkpt>
<trkpt lat="53.375286" lon="-1.922076"><ele>244</ele><time>2021-10-07T14:33:34Z</time><name>PT6706</name></trkpt>
<trkpt lat="53.375301" lon="-1.922077"><ele>245</ele><time>2021-10-07T14:33:35Z</time><name>PT6707</name></trkpt>
<trkpt lat="53.375313" lon="-1.922076"><ele>245</ele><time>2021-10-07T14:33:36Z</time><name>PT6708</name></trkpt>
<trkpt lat="53.375326" lon="-1.922079"><ele>245</ele><time>2021-10-07T14:33:37Z</time><name>PT6709</name></trkpt>
<trkpt lat="53.375340" lon="-1.922084"><ele>245</ele><time>2021-10-07T14:33:38Z</time><name>PT6710</name></trkpt>
<trkpt lat="53.375355" lon="-1.922094"><ele>246</ele><time>2021-10-07T14:33:39Z</time><name>PT6711</name></trkpt>
<trkpt lat="53.375366" lon="-1.922103"><ele>246</ele><time>2021-10-07T14:33:40Z</time><name>PT6712</name></trkpt>
<trkpt lat="53.375380" lon="-1.922114"><ele>246</ele><time>2021-10-07T14:33:41Z</time><name>PT6713</name></trkpt>
<trkpt lat="53.375393" lon="-1.922124"><ele>247</ele><time>2021-10-07T14:33:42Z</time><name>PT6714</name></trkpt>
<trkpt lat="53.375407" lon="-1.922129"><ele>247</ele><time>2021-10-07T14:33:43Z</time><name>PT6715</name></trkpt>
<trkpt lat="53.375417" lon="-1.922133"><ele>247</ele><time>2021-10-07T14:33:44Z</time><name>PT6716</name></trkpt>
<trkpt lat="53.375429" lon="-1.922138"><ele>247</ele><time>2021-10-07T14:33:45Z</time><name>PT6717</name></trkpt>
<trkpt lat="53.375438" lon="-1.922146"><ele>247</ele><time>2021-10-07T14:33:46Z</time><name>PT6718</name></trkpt>
<trkpt lat="53.375447" lon="-1.922157"><ele>246</ele><time>2021-10-07T14:33:47Z</time><name>PT6719</name></trkpt>
<trkpt lat="53.375462" lon="-1.922166"><ele>247</ele><time>2021-10-07T14:33:48Z</time><name>PT6720</name></trkpt>
<trkpt lat="53.375477" lon="-1.922172"><ele>247</ele><time>2021-10-07T14:33:49Z</time><name>PT6721</name></trkpt>
<trkpt lat="53.375492" lon="-1.922177"><ele>247</ele><time>2021-10-07T14:33:50Z</time><name>PT6722</name></trkpt>
<trkpt lat="53.375505" lon="-1.922184"><ele>248</ele><time>2021-10-07T14:33:51Z</time><name>PT6723</name></trkpt>
<trkpt lat="53.375518" lon="-1.922190"><ele>248</ele><time>2021-10-07T14:33:52Z</time><name>PT6724</name></trkpt>
<trkpt lat="53.375530" lon="-1.922195"><ele>248</ele><time>2021-10-07T14:33:53Z</time><name>PT6725</name></trkpt>
<trkpt lat="53.375541" lon="-1.922205"><ele>248</ele><time>2021-10-07T14:33:54Z</time><name>PT6726</name></trkpt>
<trkpt lat="53.375549" lon="-1.922218"><ele>248</ele><time>2021-10-07T14:33:55Z</time><name>PT6727</name></trkpt>
<trkpt lat="53.375558" lon="-1.922230"><ele>248</ele><time>2021-10-07T14:33:56Z</time><name>PT6728</name></trkpt>
<trkpt lat="53.375572" lon="-1.922243"><ele>248</ele><time>2021-10-07T14:33:57Z</time><name>PT6729</name></trkpt>
<trkpt lat="53.375585" lon="-1.922252"><ele>248</ele><time>2021-10-07T14:33:58Z</time><name>PT6730</name></trkpt>
<trkpt lat="53.375596" lon="-1.922250"><ele>248</ele><time>2021-10-07T14:33:59Z</time><name>PT6731</name></trkpt>
<trkpt lat="53.375609" lon="-1.922246"><ele>248</ele><time>2021-10-07T14:34:00Z</time><name>PT6732</name></trkpt>
<trkpt lat="53.375617" lon="-1.922249"><ele>248</ele><time>2021-10-07T14:34:01Z</time><name>PT6733</name></trkpt>
<trkpt lat="53.375632" lon="-1.922252"><ele>248</ele><time>2021-10-07T14:34:02Z</time><name>PT6734</name></trkpt>
<trkpt lat="53.375641" lon="-1.922257"><ele>248</ele><time>2021-10-07T14:34:03Z</time><name>PT6735</name></trkpt>
<trkpt lat="53.375653" lon="-1.922257"><ele>248</ele><time>2021-10-07T14:34:04Z</time><name>PT6736</name></trkpt>
<trkpt lat="53.375661" lon="-1.922254"><ele>248</ele><time>2021-10-07T14:34:05Z</time><name>PT6737</name></trkpt>
<trkpt lat="53.375663" lon="-1.922249"><ele>248</ele><time>2021-10-07T14:34:06Z</time><name>PT6738</name></trkpt>
<trkpt lat="53.375667" lon="-1.922247"><ele>249</ele><time>2021-10-07T14:34:07Z</time><name>PT6739</name></trkpt>
<trkpt lat="53.375668" lon="-1.922245"><ele>249</ele><time>2021-10-07T14:34:08Z</time><name>PT6740</name></trkpt>
<trkpt lat="53.375672" lon="-1.922247"><ele>249</ele><time>2021-10-07T14:34:20Z</time><name>PT6741</name></trkpt>
<trkpt lat="53.375672" lon="-1.922251"><ele>249</ele><time>2021-10-07T14:34:21Z</time><name>PT6742</name></trkpt>
<trkpt lat="53.375672" lon="-1.922232"><ele>249</ele><time>2021-10-07T14:34:22Z</time><name>PT6743</name></trkpt>
<trkpt lat="53.375672" lon="-1.922230"><ele>249</ele><time>2021-10-07T14:34:23Z</time><name>PT6744</name></trkpt>
<trkpt lat="53.375673" lon="-1.922246"><ele>249</ele><time>2021-10-07T14:34:24Z</time><name>PT6745</name></trkpt>
<trkpt lat="53.375686" lon="-1.922264"><ele>249</ele><time>2021-10-07T14:34:25Z</time><name>PT6746</name></trkpt>
<trkpt lat="53.375698" lon="-1.922272"><ele>248</ele><time>2021-10-07T14:34:26Z</time><name>PT6747</name></trkpt>
<trkpt lat="53.375704" lon="-1.922281"><ele>247</ele><time>2021-10-07T14:34:27Z</time><name>PT6748</name></trkpt>
<trkpt lat="53.375717" lon="-1.922281"><ele>248</ele><time>2021-10-07T14:34:28Z</time><name>PT6749</name></trkpt>
<trkpt lat="53.375727" lon="-1.922281"><ele>248</ele><time>2021-10-07T14:34:29Z</time><name>PT6750</name></trkpt>
<trkpt lat="53.375739" lon="-1.922284"><ele>248</ele><time>2021-10-07T14:34:30Z</time><name>PT6751</name></trkpt>
<trkpt lat="53.375747" lon="-1.922284"><ele>247</ele><time>2021-10-07T14:34:31Z</time><name>PT6752</name></trkpt>
<trkpt lat="53.375756" lon="-1.922293"><ele>247</ele><time>2021-10-07T14:34:32Z</time><name>PT6753</name></trkpt>
<trkpt lat="53.375765" lon="-1.922313"><ele>247</ele><time>2021-10-07T14:34:33Z</time><name>PT6754</name></trkpt>
<trkpt lat="53.375774" lon="-1.922326"><ele>246</ele><time>2021-10-07T14:34:34Z</time><name>PT6755</name></trkpt>
<trkpt lat="53.375785" lon="-1.922335"><ele>246</ele><time>2021-10-07T14:34:35Z</time><name>PT6756</name></trkpt>
<trkpt lat="53.375796" lon="-1.922344"><ele>245</ele><time>2021-10-07T14:34:36Z</time><name>PT6757</name></trkpt>
<trkpt lat="53.375809" lon="-1.922350"><ele>245</ele><time>2021-10-07T14:34:37Z</time><name>PT6758</name></trkpt>
<trkpt lat="53.375819" lon="-1.922354"><ele>245</ele><time>2021-10-07T14:34:38Z</time><name>PT6759</name></trkpt>
<trkpt lat="53.375829" lon="-1.922362"><ele>245</ele><time>2021-10-07T14:34:39Z</time><name>PT6760</name></trkpt>
<trkpt lat="53.375839" lon="-1.922372"><ele>245</ele><time>2021-10-07T14:34:40Z</time><name>PT6761</name></trkpt>
<trkpt lat="53.375849" lon="-1.922381"><ele>245</ele><time>2021-10-07T14:34:41Z</time><name>PT6762</name></trkpt>
<trkpt lat="53.375861" lon="-1.922396"><ele>244</ele><time>2021-10-07T14:34:42Z</time><name>PT6763</name></trkpt>
<trkpt lat="53.375871" lon="-1.922409"><ele>244</ele><time>2021-10-07T14:34:43Z</time><name>PT6764</name></trkpt>
<trkpt lat="53.375884" lon="-1.922420"><ele>243</ele><time>2021-10-07T14:34:44Z</time><name>PT6765</name></trkpt>
<trkpt lat="53.375893" lon="-1.922426"><ele>242</ele><time>2021-10-07T14:34:45Z</time><name>PT6766</name></trkpt>
<trkpt lat="53.375905" lon="-1.922435"><ele>242</ele><time>2021-10-07T14:34:46Z</time><name>PT6767</name></trkpt>
<trkpt lat="53.375917" lon="-1.922439"><ele>242</ele><time>2021-10-07T14:34:47Z</time><name>PT6768</name></trkpt>
<trkpt lat="53.375927" lon="-1.922444"><ele>241</ele><time>2021-10-07T14:34:48Z</time><name>PT6769</name></trkpt>
<trkpt lat="53.375935" lon="-1.922447"><ele>240</ele><time>2021-10-07T14:34:49Z</time><name>PT6770</name></trkpt>
<trkpt lat="53.375944" lon="-1.922449"><ele>240</ele><time>2021-10-07T14:34:50Z</time><name>PT6771</name></trkpt>
<trkpt lat="53.375956" lon="-1.922456"><ele>240</ele><time>2021-10-07T14:34:51Z</time><name>PT6772</name></trkpt>
<trkpt lat="53.375967" lon="-1.922465"><ele>240</ele><time>2021-10-07T14:34:52Z</time><name>PT6773</name></trkpt>
<trkpt lat="53.375974" lon="-1.922472"><ele>239</ele><time>2021-10-07T14:34:53Z</time><name>PT6774</name></trkpt>
<trkpt lat="53.375982" lon="-1.922476"><ele>239</ele><time>2021-10-07T14:34:54Z</time><name>PT6775</name></trkpt>
<trkpt lat="53.375993" lon="-1.922479"><ele>238</ele><time>2021-10-07T14:34:55Z</time><name>PT6776</name></trkpt>
<trkpt lat="53.376005" lon="-1.922482"><ele>238</ele><time>2021-10-07T14:34:56Z</time><name>PT6777</name></trkpt>
<trkpt lat="53.376014" lon="-1.922485"><ele>238</ele><time>2021-10-07T14:34:57Z</time><name>PT6778</name></trkpt>
<trkpt lat="53.376021" lon="-1.922491"><ele>237</ele><time>2021-10-07T14:34:58Z</time><name>PT6779</name></trkpt>
<trkpt lat="53.376027" lon="-1.922500"><ele>237</ele><time>2021-10-07T14:34:59Z</time><name>PT6780</name></trkpt>
<trkpt lat="53.376039" lon="-1.922512"><ele>237</ele><time>2021-10-07T14:35:00Z</time><name>PT6781</name></trkpt>
<trkpt lat="53.376046" lon="-1.922521"><ele>236</ele><time>2021-10-07T14:35:01Z</time><name>PT6782</name></trkpt>
<trkpt lat="53.376055" lon="-1.922525"><ele>236</ele><time>2021-10-07T14:35:02Z</time><name>PT6783</name></trkpt>
<trkpt lat="53.376066" lon="-1.922529"><ele>236</ele><time>2021-10-07T14:35:03Z</time><name>PT6784</name></trkpt>
<trkpt lat="53.376080" lon="-1.922533"><ele>236</ele><time>2021-10-07T14:35:04Z</time><name>PT6785</name></trkpt>
<trkpt lat="53.376091" lon="-1.922541"><ele>236</ele><time>2021-10-07T14:35:05Z</time><name>PT6786</name></trkpt>
<trkpt lat="53.376098" lon="-1.922550"><ele>235</ele><time>2021-10-07T14:35:06Z</time><name>PT6787</name></trkpt>
<trkpt lat="53.376107" lon="-1.922562"><ele>235</ele><time>2021-10-07T14:35:07Z</time><name>PT6788</name></trkpt>
<trkpt lat="53.376114" lon="-1.922569"><ele>235</ele><time>2021-10-07T14:35:08Z</time><name>PT6789</name></trkpt>
<trkpt lat="53.376120" lon="-1.922573"><ele>235</ele><time>2021-10-07T14:35:09Z</time><name>PT6790</name></trkpt>
<trkpt lat="53.376129" lon="-1.922577"><ele>235</ele><time>2021-10-07T14:35:10Z</time><name>PT6791</name></trkpt>
<trkpt lat="53.376141" lon="-1.922577"><ele>236</ele><time>2021-10-07T14:35:11Z</time><name>PT6792</name></trkpt>
<trkpt lat="53.376145" lon="-1.922587"><ele>235</ele><time>2021-10-07T14:35:12Z</time><name>PT6793</name></trkpt>
<trkpt lat="53.376151" lon="-1.922599"><ele>234</ele><time>2021-10-07T14:35:13Z</time><name>PT6794</name></trkpt>
<trkpt lat="53.376159" lon="-1.922606"><ele>235</ele><time>2021-10-07T14:35:14Z</time><name>PT6795</name></trkpt>
<trkpt lat="53.376167" lon="-1.922608"><ele>234</ele><time>2021-10-07T14:35:15Z</time><name>PT6796</name></trkpt>
<trkpt lat="53.376181" lon="-1.922609"><ele>235</ele><time>2021-10-07T14:35:16Z</time><name>PT6797</name></trkpt>
<trkpt lat="53.376195" lon="-1.922611"><ele>235</ele><time>2021-10-07T14:35:17Z</time><name>PT6798</name></trkpt>
<trkpt lat="53.376203" lon="-1.922615"><ele>235</ele><time>2021-10-07T14:35:18Z</time><name>PT6799</name></trkpt>
<trkpt lat="53.376209" lon="-1.922625"><ele>235</ele><time>2021-10-07T14:35:19Z</time><name>PT6800</name></trkpt>
<trkpt lat="53.376217" lon="-1.922639"><ele>235</ele><time>2021-10-07T14:35:20Z</time><name>PT6801</name></trkpt>
<trkpt lat="53.376224" lon="-1.922653"><ele>236</ele><time>2021-10-07T14:35:21Z</time><name>PT6802</name></trkpt>
<trkpt lat="53.376236" lon="-1.922666"><ele>236</ele><time>2021-10-07T14:35:22Z</time><name>PT6803</name></trkpt>
<trkpt lat="53.376246" lon="-1.922671"><ele>235</ele><time>2021-10-07T14:35:23Z</time><name>PT6804</name></trkpt>
<trkpt lat="53.376260" lon="-1.922676"><ele>235</ele><time>2021-10-07T14:35:24Z</time><name>PT6805</name></trkpt>
<trkpt lat="53.376274" lon="-1.922679"><ele>235</ele><time>2021-10-07T14:35:25Z</time><name>PT6806</name></trkpt>
<trkpt lat="53.376281" lon="-1.922687"><ele>235</ele><time>2021-10-07T14:35:26Z</time><name>PT6807</name></trkpt>
<trkpt lat="53.376284" lon="-1.922705"><ele>234</ele><time>2021-10-07T14:35:27Z</time><name>PT6808</name></trkpt>
<trkpt lat="53.376292" lon="-1.922721"><ele>234</ele><time>2021-10-07T14:35:28Z</time><name>PT6809</name></trkpt>
<trkpt lat="53.376297" lon="-1.922731"><ele>233</ele><time>2021-10-07T14:35:29Z</time><name>PT6810</name></trkpt>
<trkpt lat="53.376307" lon="-1.922737"><ele>233</ele><time>2021-10-07T14:35:30Z</time><name>PT6811</name></trkpt>
<trkpt lat="53.376319" lon="-1.922743"><ele>233</ele><time>2021-10-07T14:35:31Z</time><name>PT6812</name></trkpt>
<trkpt lat="53.376335" lon="-1.922750"><ele>233</ele><time>2021-10-07T14:35:32Z</time><name>PT6813</name></trkpt>
<trkpt lat="53.376348" lon="-1.922764"><ele>233</ele><time>2021-10-07T14:35:33Z</time><name>PT6814</name></trkpt>
<trkpt lat="53.376355" lon="-1.922776"><ele>233</ele><time>2021-10-07T14:35:34Z</time><name>PT6815</name></trkpt>
<trkpt lat="53.376367" lon="-1.922790"><ele>233</ele><time>2021-10-07T14:35:35Z</time><name>PT6816</name></trkpt>
<trkpt lat="53.376380" lon="-1.922804"><ele>232</ele><time>2021-10-07T14:35:36Z</time><name>PT6817</name></trkpt>
<trkpt lat="53.376392" lon="-1.922812"><ele>232</ele><time>2021-10-07T14:35:37Z</time><name>PT6818</name></trkpt>
<trkpt lat="53.376403" lon="-1.922817"><ele>232</ele><time>2021-10-07T14:35:38Z</time><name>PT6819</name></trkpt>
<trkpt lat="53.376412" lon="-1.922822"><ele>232</ele><time>2021-10-07T14:35:39Z</time><name>PT6820</name></trkpt>
<trkpt lat="53.376420" lon="-1.922826"><ele>231</ele><time>2021-10-07T14:35:40Z</time><name>PT6821</name></trkpt>
<trkpt lat="53.376432" lon="-1.922838"><ele>232</ele><time>2021-10-07T14:35:41Z</time><name>PT6822</name></trkpt>
<trkpt lat="53.376442" lon="-1.922853"><ele>232</ele><time>2021-10-07T14:35:42Z</time><name>PT6823</name></trkpt>
<trkpt lat="53.376450" lon="-1.922869"><ele>231</ele><time>2021-10-07T14:35:43Z</time><name>PT6824</name></trkpt>
<trkpt lat="53.376457" lon="-1.922876"><ele>231</ele><time>2021-10-07T14:35:44Z</time><name>PT6825</name></trkpt>
<trkpt lat="53.376463" lon="-1.922882"><ele>230</ele><time>2021-10-07T14:35:45Z</time><name>PT6826</name></trkpt>
<trkpt lat="53.376480" lon="-1.922883"><ele>231</ele><time>2021-10-07T14:35:46Z</time><name>PT6827</name></trkpt>
<trkpt lat="53.376497" lon="-1.922888"><ele>231</ele><time>2021-10-07T14:35:47Z</time><name>PT6828</name></trkpt>
<trkpt lat="53.376505" lon="-1.922896"><ele>231</ele><time>2021-10-07T14:35:48Z</time><name>PT6829</name></trkpt>
<trkpt lat="53.376510" lon="-1.922902"><ele>232</ele><time>2021-10-07T14:35:49Z</time><name>PT6830</name></trkpt>
<trkpt lat="53.376517" lon="-1.922914"><ele>231</ele><time>2021-10-07T14:35:50Z</time><name>PT6831</name></trkpt>
<trkpt lat="53.376525" lon="-1.922923"><ele>230</ele><time>2021-10-07T14:35:51Z</time><name>PT6832</name></trkpt>
<trkpt lat="53.376531" lon="-1.922929"><ele>229</ele><time>2021-10-07T14:35:52Z</time><name>PT6833</name></trkpt>
<trkpt lat="53.376537" lon="-1.922932"><ele>228</ele><time>2021-10-07T14:35:53Z</time><name>PT6834</name></trkpt>
<trkpt lat="53.376547" lon="-1.922935"><ele>228</ele><time>2021-10-07T14:35:54Z</time><name>PT6835</name></trkpt>
<trkpt lat="53.376558" lon="-1.922945"><ele>227</ele><time>2021-10-07T14:35:55Z</time><name>PT6836</name></trkpt>
<trkpt lat="53.376570" lon="-1.922957"><ele>226</ele><time>2021-10-07T14:35:56Z</time><name>PT6837</name></trkpt>
<trkpt lat="53.376582" lon="-1.922969"><ele>226</ele><time>2021-10-07T14:35:57Z</time><name>PT6838</name></trkpt>
<trkpt lat="53.376591" lon="-1.922983"><ele>226</ele><time>2021-10-07T14:35:58Z</time><name>PT6839</name></trkpt>
<trkpt lat="53.376602" lon="-1.922993"><ele>225</ele><time>2021-10-07T14:35:59Z</time><name>PT6840</name></trkpt>
<trkpt lat="53.376613" lon="-1.923001"><ele>225</ele><time>2021-10-07T14:36:00Z</time><name>PT6841</name></trkpt>
<trkpt lat="53.376621" lon="-1.923005"><ele>224</ele><time>2021-10-07T14:36:01Z</time><name>PT6842</name></trkpt>
<trkpt lat="53.376634" lon="-1.923008"><ele>224</ele><time>2021-10-07T14:36:02Z</time><name>PT6843</name></trkpt>
<trkpt lat="53.376642" lon="-1.923010"><ele>224</ele><time>2021-10-07T14:36:03Z</time><name>PT6844</name></trkpt>
<trkpt lat="53.376650" lon="-1.923019"><ele>224</ele><time>2021-10-07T14:36:04Z</time><name>PT6845</name></trkpt>
<trkpt lat="53.376659" lon="-1.923028"><ele>223</ele><time>2021-10-07T14:36:05Z</time><name>PT6846</name></trkpt>
<trkpt lat="53.376671" lon="-1.923044"><ele>223</ele><time>2021-10-07T14:36:06Z</time><name>PT6847</name></trkpt>
<trkpt lat="53.376687" lon="-1.923054"><ele>224</ele><time>2021-10-07T14:36:07Z</time><name>PT6848</name></trkpt>
<trkpt lat="53.376719" lon="-1.923066"><ele>224</ele><time>2021-10-07T14:36:10Z</time><name>PT6849</name></trkpt>
<trkpt lat="53.376767" lon="-1.923097"><ele>223</ele><time>2021-10-07T14:36:14Z</time><name>PT6850</name></trkpt>
<trkpt lat="53.376801" lon="-1.923106"><ele>222</ele><time>2021-10-07T14:36:18Z</time><name>PT6851</name></trkpt>
<trkpt lat="53.376869" lon="-1.923138"><ele>224</ele><time>2021-10-07T14:36:22Z</time><name>PT6852</name></trkpt>
<trkpt lat="53.376916" lon="-1.923165"><ele>223</ele><time>2021-10-07T14:36:26Z</time><name>PT6853</name></trkpt>
<trkpt lat="53.376959" lon="-1.923200"><ele>223</ele><time>2021-10-07T14:36:30Z</time><name>PT6854</name></trkpt>
<trkpt lat="53.377007" lon="-1.923213"><ele>224</ele><time>2021-10-07T14:36:34Z</time><name>PT6855</name></trkpt>
<trkpt lat="53.377064" lon="-1.923236"><ele>225</ele><time>2021-10-07T14:36:38Z</time><name>PT6856</name></trkpt>
<trkpt lat="53.377122" lon="-1.923269"><ele>224</ele><time>2021-10-07T14:36:42Z</time><name>PT6857</name></trkpt>
<trkpt lat="53.377171" lon="-1.923295"><ele>224</ele><time>2021-10-07T14:36:46Z</time><name>PT6858</name></trkpt>
<trkpt lat="53.377232" lon="-1.923334"><ele>227</ele><time>2021-10-07T14:36:50Z</time><name>PT6859</name></trkpt>
<trkpt lat="53.377267" lon="-1.923354"><ele>225</ele><time>2021-10-07T14:36:53Z</time><name>PT6860</name></trkpt>
<trkpt lat="53.377276" lon="-1.923360"><ele>226</ele><time>2021-10-07T14:36:54Z</time><name>PT6861</name></trkpt>
<trkpt lat="53.377287" lon="-1.923368"><ele>226</ele><time>2021-10-07T14:36:55Z</time><name>PT6862</name></trkpt>
<trkpt lat="53.377302" lon="-1.923376"><ele>226</ele><time>2021-10-07T14:36:56Z</time><name>PT6863</name></trkpt>
<trkpt lat="53.377312" lon="-1.923383"><ele>225</ele><time>2021-10-07T14:36:57Z</time><name>PT6864</name></trkpt>
<trkpt lat="53.377319" lon="-1.923392"><ele>225</ele><time>2021-10-07T14:36:58Z</time><name>PT6865</name></trkpt>
<trkpt lat="53.377331" lon="-1.923401"><ele>225</ele><time>2021-10-07T14:36:59Z</time><name>PT6866</name></trkpt>
<trkpt lat="53.377342" lon="-1.923407"><ele>225</ele><time>2021-10-07T14:37:00Z</time><name>PT6867</name></trkpt>
<trkpt lat="53.377351" lon="-1.923414"><ele>225</ele><time>2021-10-07T14:37:01Z</time><name>PT6868</name></trkpt>
<trkpt lat="53.377358" lon="-1.923417"><ele>224</ele><time>2021-10-07T14:37:02Z</time><name>PT6869</name></trkpt>
<trkpt lat="53.377364" lon="-1.923420"><ele>224</ele><time>2021-10-07T14:37:03Z</time><name>PT6870</name></trkpt>
<trkpt lat="53.377368" lon="-1.923418"><ele>223</ele><time>2021-10-07T14:37:04Z</time><name>PT6871</name></trkpt>
<trkpt lat="53.377376" lon="-1.923422"><ele>223</ele><time>2021-10-07T14:37:05Z</time><name>PT6872</name></trkpt>
<trkpt lat="53.377380" lon="-1.923426"><ele>222</ele><time>2021-10-07T14:37:06Z</time><name>PT6873</name></trkpt>
<trkpt lat="53.377392" lon="-1.923424"><ele>223</ele><time>2021-10-07T14:37:07Z</time><name>PT6874</name></trkpt>
<trkpt lat="53.377399" lon="-1.923429"><ele>223</ele><time>2021-10-07T14:37:08Z</time><name>PT6875</name></trkpt>
<trkpt lat="53.377408" lon="-1.923433"><ele>222</ele><time>2021-10-07T14:37:09Z</time><name>PT6876</name></trkpt>
<trkpt lat="53.377415" lon="-1.923438"><ele>220</ele><time>2021-10-07T14:37:10Z</time><name>PT6877</name></trkpt>
<trkpt lat="53.377427" lon="-1.923440"><ele>221</ele><time>2021-10-07T14:37:11Z</time><name>PT6878</name></trkpt>
<trkpt lat="53.377436" lon="-1.923440"><ele>220</ele><time>2021-10-07T14:37:12Z</time><name>PT6879</name></trkpt>
<trkpt lat="53.377441" lon="-1.923439"><ele>220</ele><time>2021-10-07T14:37:13Z</time><name>PT6880</name></trkpt>
<trkpt lat="53.377457" lon="-1.923445"><ele>219</ele><time>2021-10-07T14:37:14Z</time><name>PT6881</name></trkpt>
<trkpt lat="53.377482" lon="-1.923453"><ele>220</ele><time>2021-10-07T14:37:15Z</time><name>PT6882</name></trkpt>
<trkpt lat="53.377498" lon="-1.923471"><ele>221</ele><time>2021-10-07T14:37:16Z</time><name>PT6883</name></trkpt>
<trkpt lat="53.377514" lon="-1.923486"><ele>222</ele><time>2021-10-07T14:37:17Z</time><name>PT6884</name></trkpt>
<trkpt lat="53.377525" lon="-1.923499"><ele>222</ele><time>2021-10-07T14:37:18Z</time><name>PT6885</name></trkpt>
<trkpt lat="53.377533" lon="-1.923510"><ele>223</ele><time>2021-10-07T14:37:19Z</time><name>PT6886</name></trkpt>
<trkpt lat="53.377540" lon="-1.923522"><ele>222</ele><time>2021-10-07T14:37:20Z</time><name>PT6887</name></trkpt>
<trkpt lat="53.377545" lon="-1.923534"><ele>222</ele><time>2021-10-07T14:37:21Z</time><name>PT6888</name></trkpt>
<trkpt lat="53.377551" lon="-1.923547"><ele>222</ele><time>2021-10-07T14:37:22Z</time><name>PT6889</name></trkpt>
<trkpt lat="53.377556" lon="-1.923556"><ele>222</ele><time>2021-10-07T14:37:23Z</time><name>PT6890</name></trkpt>
<trkpt lat="53.377564" lon="-1.923568"><ele>222</ele><time>2021-10-07T14:37:24Z</time><name>PT6891</name></trkpt>
<trkpt lat="53.377567" lon="-1.923580"><ele>221</ele><time>2021-10-07T14:37:25Z</time><name>PT6892</name></trkpt>
<trkpt lat="53.377577" lon="-1.923589"><ele>222</ele><time>2021-10-07T14:37:26Z</time><name>PT6893</name></trkpt>
<trkpt lat="53.377589" lon="-1.923608"><ele>223</ele><time>2021-10-07T14:37:27Z</time><name>PT6894</name></trkpt>
<trkpt lat="53.377597" lon="-1.923625"><ele>223</ele><time>2021-10-07T14:37:28Z</time><name>PT6895</name></trkpt>
<trkpt lat="53.377611" lon="-1.923638"><ele>224</ele><time>2021-10-07T14:37:29Z</time><name>PT6896</name></trkpt>
<trkpt lat="53.377624" lon="-1.923665"><ele>226</ele><time>2021-10-07T14:37:30Z</time><name>PT6897</name></trkpt>
<trkpt lat="53.377631" lon="-1.923680"><ele>226</ele><time>2021-10-07T14:37:31Z</time><name>PT6898</name></trkpt>
<trkpt lat="53.377636" lon="-1.923701"><ele>225</ele><time>2021-10-07T14:37:32Z</time><name>PT6899</name></trkpt>
<trkpt lat="53.377643" lon="-1.923715"><ele>225</ele><time>2021-10-07T14:37:33Z</time><name>PT6900</name></trkpt>
<trkpt lat="53.377648" lon="-1.923731"><ele>224</ele><time>2021-10-07T14:37:34Z</time><name>PT6901</name></trkpt>
<trkpt lat="53.377657" lon="-1.923746"><ele>224</ele><time>2021-10-07T14:37:35Z</time><name>PT6902</name></trkpt>
<trkpt lat="53.377659" lon="-1.923765"><ele>223</ele><time>2021-10-07T14:37:36Z</time><name>PT6903</name></trkpt>
<trkpt lat="53.377660" lon="-1.923782"><ele>222</ele><time>2021-10-07T14:37:37Z</time><name>PT6904</name></trkpt>
<trkpt lat="53.377667" lon="-1.923806"><ele>223</ele><time>2021-10-07T14:37:38Z</time><name>PT6905</name></trkpt>
<trkpt lat="53.377669" lon="-1.923837"><ele>223</ele><time>2021-10-07T14:37:39Z</time><name>PT6906</name></trkpt>
<trkpt lat="53.377677" lon="-1.923860"><ele>223</ele><time>2021-10-07T14:37:40Z</time><name>PT6907</name></trkpt>
<trkpt lat="53.377679" lon="-1.923877"><ele>223</ele><time>2021-10-07T14:37:41Z</time><name>PT6908</name></trkpt>
<trkpt lat="53.377687" lon="-1.923895"><ele>223</ele><time>2021-10-07T14:37:42Z</time><name>PT6909</name></trkpt>
<trkpt lat="53.377692" lon="-1.923913"><ele>223</ele><time>2021-10-07T14:37:43Z</time><name>PT6910</name></trkpt>
<trkpt lat="53.377699" lon="-1.923924"><ele>222</ele><time>2021-10-07T14:37:44Z</time><name>PT6911</name></trkpt>
<trkpt lat="53.377704" lon="-1.923940"><ele>222</ele><time>2021-10-07T14:37:45Z</time><name>PT6912</name></trkpt>
<trkpt lat="53.377705" lon="-1.923967"><ele>221</ele><time>2021-10-07T14:37:46Z</time><name>PT6913</name></trkpt>
<trkpt lat="53.377709" lon="-1.923983"><ele>221</ele><time>2021-10-07T14:37:47Z</time><name>PT6914</name></trkpt>
<trkpt lat="53.377714" lon="-1.923992"><ele>221</ele><time>2021-10-07T14:37:48Z</time><name>PT6915</name></trkpt>
<trkpt lat="53.377713" lon="-1.924003"><ele>220</ele><time>2021-10-07T14:37:49Z</time><name>PT6916</name></trkpt>
<trkpt lat="53.377718" lon="-1.924010"><ele>221</ele><time>2021-10-07T14:37:50Z</time><name>PT6917</name></trkpt>
<trkpt lat="53.377727" lon="-1.924022"><ele>221</ele><time>2021-10-07T14:37:51Z</time><name>PT6918</name></trkpt>
<trkpt lat="53.377735" lon="-1.924029"><ele>220</ele><time>2021-10-07T14:37:52Z</time><name>PT6919</name></trkpt>
<trkpt lat="53.377742" lon="-1.924042"><ele>220</ele><time>2021-10-07T14:37:53Z</time><name>PT6920</name></trkpt>
<trkpt lat="53.377751" lon="-1.924050"><ele>220</ele><time>2021-10-07T14:37:54Z</time><name>PT6921</name></trkpt>
<trkpt lat="53.377760" lon="-1.924066"><ele>220</ele><time>2021-10-07T14:37:55Z</time><name>PT6922</name></trkpt>
<trkpt lat="53.377766" lon="-1.924083"><ele>220</ele><time>2021-10-07T14:37:56Z</time><name>PT6923</name></trkpt>
<trkpt lat="53.377775" lon="-1.924091"><ele>220</ele><time>2021-10-07T14:37:57Z</time><name>PT6924</name></trkpt>
<trkpt lat="53.377791" lon="-1.924100"><ele>221</ele><time>2021-10-07T14:37:58Z</time><name>PT6925</name></trkpt>
<trkpt lat="53.377801" lon="-1.924112"><ele>220</ele><time>2021-10-07T14:37:59Z</time><name>PT6926</name></trkpt>
<trkpt lat="53.377811" lon="-1.924126"><ele>220</ele><time>2021-10-07T14:38:00Z</time><name>PT6927</name></trkpt>
<trkpt lat="53.377816" lon="-1.924137"><ele>219</ele><time>2021-10-07T14:38:01Z</time><name>PT6928</name></trkpt>
<trkpt lat="53.377824" lon="-1.924148"><ele>219</ele><time>2021-10-07T14:38:02Z</time><name>PT6929</name></trkpt>
<trkpt lat="53.377831" lon="-1.924164"><ele>218</ele><time>2021-10-07T14:38:03Z</time><name>PT6930</name></trkpt>
<trkpt lat="53.377838" lon="-1.924186"><ele>217</ele><time>2021-10-07T14:38:04Z</time><name>PT6931</name></trkpt>
<trkpt lat="53.377844" lon="-1.924198"><ele>217</ele><time>2021-10-07T14:38:05Z</time><name>PT6932</name></trkpt>
<trkpt lat="53.377856" lon="-1.924203"><ele>217</ele><time>2021-10-07T14:38:06Z</time><name>PT6933</name></trkpt>
<trkpt lat="53.377865" lon="-1.924208"><ele>217</ele><time>2021-10-07T14:38:07Z</time><name>PT6934</name></trkpt>
<trkpt lat="53.377876" lon="-1.924220"><ele>218</ele><time>2021-10-07T14:38:08Z</time><name>PT6935</name></trkpt>
<trkpt lat="53.377887" lon="-1.924230"><ele>218</ele><time>2021-10-07T14:38:09Z</time><name>PT6936</name></trkpt>
<trkpt lat="53.377898" lon="-1.924248"><ele>217</ele><time>2021-10-07T14:38:10Z</time><name>PT6937</name></trkpt>
<trkpt lat="53.377911" lon="-1.924261"><ele>217</ele><time>2021-10-07T14:38:11Z</time><name>PT6938</name></trkpt>
<trkpt lat="53.377919" lon="-1.924268"><ele>217</ele><time>2021-10-07T14:38:12Z</time><name>PT6939</name></trkpt>
<trkpt lat="53.377925" lon="-1.924272"><ele>217</ele><time>2021-10-07T14:38:13Z</time><name>PT6940</name></trkpt>
<trkpt lat="53.377929" lon="-1.924280"><ele>216</ele><time>2021-10-07T14:38:14Z</time><name>PT6941</name></trkpt>
<trkpt lat="53.377940" lon="-1.924285"><ele>217</ele><time>2021-10-07T14:38:15Z</time><name>PT6942</name></trkpt>
<trkpt lat="53.377947" lon="-1.924292"><ele>217</ele><time>2021-10-07T14:38:16Z</time><name>PT6943</name></trkpt>
<trkpt lat="53.377949" lon="-1.924291"><ele>218</ele><time>2021-10-07T14:38:17Z</time><name>PT6944</name></trkpt>
<trkpt lat="53.377954" lon="-1.924292"><ele>217</ele><time>2021-10-07T14:38:18Z</time><name>PT6945</name></trkpt>
<trkpt lat="53.377958" lon="-1.924304"><ele>217</ele><time>2021-10-07T14:38:19Z</time><name>PT6946</name></trkpt>
<trkpt lat="53.377963" lon="-1.924307"><ele>217</ele><time>2021-10-07T14:38:20Z</time><name>PT6947</name></trkpt>
<trkpt lat="53.377973" lon="-1.924311"><ele>217</ele><time>2021-10-07T14:38:21Z</time><name>PT6948</name></trkpt>
<trkpt lat="53.377989" lon="-1.924320"><ele>217</ele><time>2021-10-07T14:38:22Z</time><name>PT6949</name></trkpt>
<trkpt lat="53.377997" lon="-1.924332"><ele>216</ele><time>2021-10-07T14:38:23Z</time><name>PT6950</name></trkpt>
<trkpt lat="53.378006" lon="-1.924339"><ele>216</ele><time>2021-10-07T14:38:24Z</time><name>PT6951</name></trkpt>
<trkpt lat="53.378025" lon="-1.924344"><ele>217</ele><time>2021-10-07T14:38:25Z</time><name>PT6952</name></trkpt>
<trkpt lat="53.378036" lon="-1.924353"><ele>217</ele><time>2021-10-07T14:38:26Z</time><name>PT6953</name></trkpt>
<trkpt lat="53.378045" lon="-1.924366"><ele>215</ele><time>2021-10-07T14:38:27Z</time><name>PT6954</name></trkpt>
<trkpt lat="53.378056" lon="-1.924374"><ele>215</ele><time>2021-10-07T14:38:28Z</time><name>PT6955</name></trkpt>
<trkpt lat="53.378069" lon="-1.924386"><ele>215</ele><time>2021-10-07T14:38:29Z</time><name>PT6956</name></trkpt>
<trkpt lat="53.378092" lon="-1.924395"><ele>215</ele><time>2021-10-07T14:38:30Z</time><name>PT6957</name></trkpt>
<trkpt lat="53.378110" lon="-1.924411"><ele>215</ele><time>2021-10-07T14:38:31Z</time><name>PT6958</name></trkpt>
<trkpt lat="53.378121" lon="-1.924432"><ele>215</ele><time>2021-10-07T14:38:32Z</time><name>PT6959</name></trkpt>
<trkpt lat="53.378131" lon="-1.924454"><ele>215</ele><time>2021-10-07T14:38:33Z</time><name>PT6960</name></trkpt>
<trkpt lat="53.378144" lon="-1.924465"><ele>216</ele><time>2021-10-07T14:38:34Z</time><name>PT6961</name></trkpt>
<trkpt lat="53.378159" lon="-1.924469"><ele>216</ele><time>2021-10-07T14:38:35Z</time><name>PT6962</name></trkpt>
<trkpt lat="53.378177" lon="-1.924475"><ele>218</ele><time>2021-10-07T14:38:36Z</time><name>PT6963</name></trkpt>
<trkpt lat="53.378192" lon="-1.924482"><ele>218</ele><time>2021-10-07T14:38:37Z</time><name>PT6964</name></trkpt>
<trkpt lat="53.378204" lon="-1.924496"><ele>217</ele><time>2021-10-07T14:38:38Z</time><name>PT6965</name></trkpt>
<trkpt lat="53.378214" lon="-1.924501"><ele>217</ele><time>2021-10-07T14:38:39Z</time><name>PT6966</name></trkpt>
<trkpt lat="53.378224" lon="-1.924514"><ele>218</ele><time>2021-10-07T14:38:40Z</time><name>PT6967</name></trkpt>
<trkpt lat="53.378237" lon="-1.924518"><ele>220</ele><time>2021-10-07T14:38:41Z</time><name>PT6968</name></trkpt>
<trkpt lat="53.378249" lon="-1.924522"><ele>220</ele><time>2021-10-07T14:38:42Z</time><name>PT6969</name></trkpt>
<trkpt lat="53.378261" lon="-1.924529"><ele>220</ele><time>2021-10-07T14:38:43Z</time><name>PT6970</name></trkpt>
<trkpt lat="53.378272" lon="-1.924532"><ele>221</ele><time>2021-10-07T14:38:44Z</time><name>PT6971</name></trkpt>
<trkpt lat="53.378293" lon="-1.924543"><ele>221</ele><time>2021-10-07T14:38:45Z</time><name>PT6972</name></trkpt>
<trkpt lat="53.378308" lon="-1.924555"><ele>221</ele><time>2021-10-07T14:38:46Z</time><name>PT6973</name></trkpt>
<trkpt lat="53.378321" lon="-1.924566"><ele>221</ele><time>2021-10-07T14:38:47Z</time><name>PT6974</name></trkpt>
<trkpt lat="53.378333" lon="-1.924582"><ele>221</ele><time>2021-10-07T14:38:48Z</time><name>PT6975</name></trkpt>
<trkpt lat="53.378344" lon="-1.924598"><ele>220</ele><time>2021-10-07T14:38:49Z</time><name>PT6976</name></trkpt>
<trkpt lat="53.378355" lon="-1.924601"><ele>220</ele><time>2021-10-07T14:38:50Z</time><name>PT6977</name></trkpt>
<trkpt lat="53.378370" lon="-1.924606"><ele>220</ele><time>2021-10-07T14:38:51Z</time><name>PT6978</name></trkpt>
<trkpt lat="53.378379" lon="-1.924611"><ele>220</ele><time>2021-10-07T14:38:52Z</time><name>PT6979</name></trkpt>
<trkpt lat="53.378392" lon="-1.924619"><ele>221</ele><time>2021-10-07T14:38:53Z</time><name>PT6980</name></trkpt>
<trkpt lat="53.378400" lon="-1.924624"><ele>221</ele><time>2021-10-07T14:38:54Z</time><name>PT6981</name></trkpt>
<trkpt lat="53.378416" lon="-1.924640"><ele>222</ele><time>2021-10-07T14:38:55Z</time><name>PT6982</name></trkpt>
<trkpt lat="53.378436" lon="-1.924649"><ele>223</ele><time>2021-10-07T14:38:56Z</time><name>PT6983</name></trkpt>
<trkpt lat="53.378452" lon="-1.924657"><ele>224</ele><time>2021-10-07T14:38:57Z</time><name>PT6984</name></trkpt>
<trkpt lat="53.378462" lon="-1.924674"><ele>224</ele><time>2021-10-07T14:38:58Z</time><name>PT6985</name></trkpt>
<trkpt lat="53.378468" lon="-1.924681"><ele>224</ele><time>2021-10-07T14:38:59Z</time><name>PT6986</name></trkpt>
<trkpt lat="53.378476" lon="-1.924689"><ele>223</ele><time>2021-10-07T14:39:00Z</time><name>PT6987</name></trkpt>
<trkpt lat="53.378484" lon="-1.924696"><ele>223</ele><time>2021-10-07T14:39:01Z</time><name>PT6988</name></trkpt>
<trkpt lat="53.378495" lon="-1.924714"><ele>222</ele><time>2021-10-07T14:39:02Z</time><name>PT6989</name></trkpt>
<trkpt lat="53.378508" lon="-1.924733"><ele>222</ele><time>2021-10-07T14:39:03Z</time><name>PT6990</name></trkpt>
<trkpt lat="53.378523" lon="-1.924746"><ele>222</ele><time>2021-10-07T14:39:04Z</time><name>PT6991</name></trkpt>
<trkpt lat="53.378532" lon="-1.924752"><ele>222</ele><time>2021-10-07T14:39:05Z</time><name>PT6992</name></trkpt>
<trkpt lat="53.378542" lon="-1.924770"><ele>222</ele><time>2021-10-07T14:39:06Z</time><name>PT6993</name></trkpt>
<trkpt lat="53.378587" lon="-1.924814"><ele>221</ele><time>2021-10-07T14:39:10Z</time><name>PT6994</name></trkpt>
<trkpt lat="53.378646" lon="-1.924873"><ele>221</ele><time>2021-10-07T14:39:14Z</time><name>PT6995</name></trkpt>
<trkpt lat="53.378686" lon="-1.924927"><ele>219</ele><time>2021-10-07T14:39:18Z</time><name>PT6996</name></trkpt>
<trkpt lat="53.378732" lon="-1.924977"><ele>217</ele><time>2021-10-07T14:39:22Z</time><name>PT6997</name></trkpt>
<trkpt lat="53.378767" lon="-1.925024"><ele>216</ele><time>2021-10-07T14:39:26Z</time><name>PT6998</name></trkpt>
<trkpt lat="53.378805" lon="-1.925061"><ele>216</ele><time>2021-10-07T14:39:30Z</time><name>PT6999</name></trkpt>
<trkpt lat="53.378832" lon="-1.925112"><ele>211</ele><time>2021-10-07T14:39:34Z</time><name>PT7000</name></trkpt>
<trkpt lat="53.378863" lon="-1.925151"><ele>213</ele><time>2021-10-07T14:39:38Z</time><name>PT7001</name></trkpt>
<trkpt lat="53.378866" lon="-1.925176"><ele>213</ele><time>2021-10-07T14:39:42Z</time><name>PT7002</name></trkpt>
<trkpt lat="53.378922" lon="-1.925229"><ele>215</ele><time>2021-10-07T14:39:46Z</time><name>PT7003</name></trkpt>
<trkpt lat="53.378978" lon="-1.925266"><ele>216</ele><time>2021-10-07T14:39:50Z</time><name>PT7004</name></trkpt>
<trkpt lat="53.379038" lon="-1.925324"><ele>215</ele><time>2021-10-07T14:39:54Z</time><name>PT7005</name></trkpt>
<trkpt lat="53.379080" lon="-1.925366"><ele>214</ele><time>2021-10-07T14:39:58Z</time><name>PT7006</name></trkpt>
<trkpt lat="53.379116" lon="-1.925414"><ele>213</ele><time>2021-10-07T14:40:02Z</time><name>PT7007</name></trkpt>
<trkpt lat="53.379157" lon="-1.925467"><ele>215</ele><time>2021-10-07T14:40:06Z</time><name>PT7008</name></trkpt>
<trkpt lat="53.379204" lon="-1.925520"><ele>214</ele><time>2021-10-07T14:40:10Z</time><name>PT7009</name></trkpt>
<trkpt lat="53.379237" lon="-1.925567"><ele>213</ele><time>2021-10-07T14:40:14Z</time><name>PT7010</name></trkpt>
<trkpt lat="53.379279" lon="-1.925612"><ele>213</ele><time>2021-10-07T14:40:18Z</time><name>PT7011</name></trkpt>
<trkpt lat="53.379318" lon="-1.925666"><ele>211</ele><time>2021-10-07T14:40:22Z</time><name>PT7012</name></trkpt>
<trkpt lat="53.379364" lon="-1.925715"><ele>212</ele><time>2021-10-07T14:40:26Z</time><name>PT7013</name></trkpt>
<trkpt lat="53.379405" lon="-1.925744"><ele>213</ele><time>2021-10-07T14:40:30Z</time><name>PT7014</name></trkpt>
<trkpt lat="53.379442" lon="-1.925784"><ele>212</ele><time>2021-10-07T14:40:34Z</time><name>PT7015</name></trkpt>
<trkpt lat="53.379474" lon="-1.925828"><ele>210</ele><time>2021-10-07T14:40:38Z</time><name>PT7016</name></trkpt>
<trkpt lat="53.379515" lon="-1.925877"><ele>210</ele><time>2021-10-07T14:40:42Z</time><name>PT7017</name></trkpt>
<trkpt lat="53.379549" lon="-1.925908"><ele>212</ele><time>2021-10-07T14:40:46Z</time><name>PT7018</name></trkpt>
<trkpt lat="53.379572" lon="-1.925955"><ele>209</ele><time>2021-10-07T14:40:50Z</time><name>PT7019</name></trkpt>
<trkpt lat="53.379613" lon="-1.925998"><ele>209</ele><time>2021-10-07T14:40:54Z</time><name>PT7020</name></trkpt>
<trkpt lat="53.379651" lon="-1.926055"><ele>208</ele><time>2021-10-07T14:40:58Z</time><name>PT7021</name></trkpt>
<trkpt lat="53.379687" lon="-1.926118"><ele>210</ele><time>2021-10-07T14:41:02Z</time><name>PT7022</name></trkpt>
<trkpt lat="53.379728" lon="-1.926190"><ele>207</ele><time>2021-10-07T14:41:06Z</time><name>PT7023</name></trkpt>
<trkpt lat="53.379758" lon="-1.926270"><ele>207</ele><time>2021-10-07T14:41:10Z</time><name>PT7024</name></trkpt>
<trkpt lat="53.379771" lon="-1.926324"><ele>208</ele><time>2021-10-07T14:41:14Z</time><name>PT7025</name></trkpt>
<trkpt lat="53.379776" lon="-1.926387"><ele>210</ele><time>2021-10-07T14:41:18Z</time><name>PT7026</name></trkpt>
<trkpt lat="53.379781" lon="-1.926465"><ele>212</ele><time>2021-10-07T14:41:22Z</time><name>PT7027</name></trkpt>
<trkpt lat="53.379800" lon="-1.926529"><ele>207</ele><time>2021-10-07T14:41:26Z</time><name>PT7028</name></trkpt>
<trkpt lat="53.379824" lon="-1.926520"><ele>205</ele><time>2021-10-07T14:41:30Z</time><name>PT7029</name></trkpt>
<trkpt lat="53.379830" lon="-1.926512"><ele>202</ele><time>2021-10-07T14:41:34Z</time><name>PT7030</name></trkpt>
<trkpt lat="53.379838" lon="-1.926508"><ele>203</ele><time>2021-10-07T14:41:38Z</time><name>PT7031</name></trkpt>
<trkpt lat="53.379855" lon="-1.926489"><ele>204</ele><time>2021-10-07T14:41:46Z</time><name>PT7032</name></trkpt>
<trkpt lat="53.379851" lon="-1.926474"><ele>204</ele><time>2021-10-07T14:41:50Z</time><name>PT7033</name></trkpt>
<trkpt lat="53.379865" lon="-1.926489"><ele>206</ele><time>2021-10-07T14:41:54Z</time><name>PT7034</name></trkpt>
<trkpt lat="53.379840" lon="-1.926522"><ele>205</ele><time>2021-10-07T14:41:58Z</time><name>PT7035</name></trkpt>
<trkpt lat="53.379819" lon="-1.926576"><ele>205</ele><time>2021-10-07T14:42:02Z</time><name>PT7036</name></trkpt>
<trkpt lat="53.379815" lon="-1.926647"><ele>207</ele><time>2021-10-07T14:42:06Z</time><name>PT7037</name></trkpt>
<trkpt lat="53.379814" lon="-1.926721"><ele>207</ele><time>2021-10-07T14:42:10Z</time><name>PT7038</name></trkpt>
<trkpt lat="53.379810" lon="-1.926800"><ele>204</ele><time>2021-10-07T14:42:14Z</time><name>PT7039</name></trkpt>
<trkpt lat="53.379810" lon="-1.926866"><ele>203</ele><time>2021-10-07T14:42:18Z</time><name>PT7040</name></trkpt>
<trkpt lat="53.379807" lon="-1.926919"><ele>200</ele><time>2021-10-07T14:42:22Z</time><name>PT7041</name></trkpt>
<trkpt lat="53.379794" lon="-1.926975"><ele>202</ele><time>2021-10-07T14:42:26Z</time><name>PT7042</name></trkpt>
<trkpt lat="53.379779" lon="-1.927028"><ele>199</ele><time>2021-10-07T14:42:30Z</time><name>PT7043</name></trkpt>
<trkpt lat="53.379754" lon="-1.927094"><ele>201</ele><time>2021-10-07T14:42:34Z</time><name>PT7044</name></trkpt>
<trkpt lat="53.379732" lon="-1.927149"><ele>203</ele><time>2021-10-07T14:42:38Z</time><name>PT7045</name></trkpt>
<trkpt lat="53.379699" lon="-1.927210"><ele>204</ele><time>2021-10-07T14:42:42Z</time><name>PT7046</name></trkpt>
<trkpt lat="53.379669" lon="-1.927278"><ele>204</ele><time>2021-10-07T14:42:46Z</time><name>PT7047</name></trkpt>
<trkpt lat="53.379644" lon="-1.927324"><ele>207</ele><time>2021-10-07T14:42:50Z</time><name>PT7048</name></trkpt>
<trkpt lat="53.379619" lon="-1.927375"><ele>211</ele><time>2021-10-07T14:42:54Z</time><name>PT7049</name></trkpt>
<trkpt lat="53.379575" lon="-1.927445"><ele>210</ele><time>2021-10-07T14:42:58Z</time><name>PT7050</name></trkpt>
<trkpt lat="53.379541" lon="-1.927497"><ele>208</ele><time>2021-10-07T14:43:02Z</time><name>PT7051</name></trkpt>
<trkpt lat="53.379499" lon="-1.927556"><ele>208</ele><time>2021-10-07T14:43:06Z</time><name>PT7052</name></trkpt>
<trkpt lat="53.379458" lon="-1.927622"><ele>204</ele><time>2021-10-07T14:43:10Z</time><name>PT7053</name></trkpt>
<trkpt lat="53.379445" lon="-1.927628"><ele>203</ele><time>2021-10-07T14:43:11Z</time><name>PT7054</name></trkpt>
<trkpt lat="53.379428" lon="-1.927656"><ele>202</ele><time>2021-10-07T14:43:12Z</time><name>PT7055</name></trkpt>
<trkpt lat="53.379412" lon="-1.927668"><ele>201</ele><time>2021-10-07T14:43:13Z</time><name>PT7056</name></trkpt>
<trkpt lat="53.379396" lon="-1.927683"><ele>201</ele><time>2021-10-07T14:43:14Z</time><name>PT7057</name></trkpt>
<trkpt lat="53.379382" lon="-1.927700"><ele>203</ele><time>2021-10-07T14:43:15Z</time><name>PT7058</name></trkpt>
<trkpt lat="53.379369" lon="-1.927715"><ele>203</ele><time>2021-10-07T14:43:16Z</time><name>PT7059</name></trkpt>
<trkpt lat="53.379361" lon="-1.927728"><ele>201</ele><time>2021-10-07T14:43:17Z</time><name>PT7060</name></trkpt>
<trkpt lat="53.379351" lon="-1.927739"><ele>200</ele><time>2021-10-07T14:43:18Z</time><name>PT7061</name></trkpt>
<trkpt lat="53.379341" lon="-1.927744"><ele>200</ele><time>2021-10-07T14:43:19Z</time><name>PT7062</name></trkpt>
<trkpt lat="53.379330" lon="-1.927753"><ele>200</ele><time>2021-10-07T14:43:20Z</time><name>PT7063</name></trkpt>
<trkpt lat="53.379316" lon="-1.927764"><ele>201</ele><time>2021-10-07T14:43:21Z</time><name>PT7064</name></trkpt>
<trkpt lat="53.379305" lon="-1.927781"><ele>200</ele><time>2021-10-07T14:43:22Z</time><name>PT7065</name></trkpt>
<trkpt lat="53.379293" lon="-1.927789"><ele>200</ele><time>2021-10-07T14:43:23Z</time><name>PT7066</name></trkpt>
<trkpt lat="53.379281" lon="-1.927798"><ele>200</ele><time>2021-10-07T14:43:24Z</time><name>PT7067</name></trkpt>
<trkpt lat="53.379268" lon="-1.927813"><ele>200</ele><time>2021-10-07T14:43:25Z</time><name>PT7068</name></trkpt>
<trkpt lat="53.379257" lon="-1.927826"><ele>200</ele><time>2021-10-07T14:43:26Z</time><name>PT7069</name></trkpt>
<trkpt lat="53.379245" lon="-1.927838"><ele>200</ele><time>2021-10-07T14:43:27Z</time><name>PT7070</name></trkpt>
<trkpt lat="53.379233" lon="-1.927848"><ele>200</ele><time>2021-10-07T14:43:28Z</time><name>PT7071</name></trkpt>
<trkpt lat="53.379222" lon="-1.927856"><ele>200</ele><time>2021-10-07T14:43:29Z</time><name>PT7072</name></trkpt>
<trkpt lat="53.379209" lon="-1.927869"><ele>201</ele><time>2021-10-07T14:43:30Z</time><name>PT7073</name></trkpt>
<trkpt lat="53.379197" lon="-1.927882"><ele>201</ele><time>2021-10-07T14:43:31Z</time><name>PT7074</name></trkpt>
<trkpt lat="53.379184" lon="-1.927887"><ele>200</ele><time>2021-10-07T14:43:32Z</time><name>PT7075</name></trkpt>
<trkpt lat="53.379169" lon="-1.927899"><ele>200</ele><time>2021-10-07T14:43:33Z</time><name>PT7076</name></trkpt>
<trkpt lat="53.379156" lon="-1.927914"><ele>200</ele><time>2021-10-07T14:43:34Z</time><name>PT7077</name></trkpt>
<trkpt lat="53.379147" lon="-1.927927"><ele>200</ele><time>2021-10-07T14:43:35Z</time><name>PT7078</name></trkpt>
<trkpt lat="53.379138" lon="-1.927938"><ele>200</ele><time>2021-10-07T14:43:36Z</time><name>PT7079</name></trkpt>
<trkpt lat="53.379128" lon="-1.927946"><ele>200</ele><time>2021-10-07T14:43:37Z</time><name>PT7080</name></trkpt>
<trkpt lat="53.379118" lon="-1.927957"><ele>200</ele><time>2021-10-07T14:43:38Z</time><name>PT7081</name></trkpt>
<trkpt lat="53.379105" lon="-1.927971"><ele>199</ele><time>2021-10-07T14:43:39Z</time><name>PT7082</name></trkpt>
<trkpt lat="53.379093" lon="-1.927986"><ele>199</ele><time>2021-10-07T14:43:40Z</time><name>PT7083</name></trkpt>
<trkpt lat="53.379083" lon="-1.928010"><ele>199</ele><time>2021-10-07T14:43:41Z</time><name>PT7084</name></trkpt>
<trkpt lat="53.379077" lon="-1.928030"><ele>198</ele><time>2021-10-07T14:43:42Z</time><name>PT7085</name></trkpt>
<trkpt lat="53.379072" lon="-1.928048"><ele>199</ele><time>2021-10-07T14:43:43Z</time><name>PT7086</name></trkpt>
<trkpt lat="53.379070" lon="-1.928060"><ele>199</ele><time>2021-10-07T14:43:44Z</time><name>PT7087</name></trkpt>
<trkpt lat="53.379069" lon="-1.928084"><ele>199</ele><time>2021-10-07T14:43:45Z</time><name>PT7088</name></trkpt>
<trkpt lat="53.379073" lon="-1.928112"><ele>200</ele><time>2021-10-07T14:43:46Z</time><name>PT7089</name></trkpt>
<trkpt lat="53.379074" lon="-1.928145"><ele>201</ele><time>2021-10-07T14:43:47Z</time><name>PT7090</name></trkpt>
<trkpt lat="53.379076" lon="-1.928175"><ele>201</ele><time>2021-10-07T14:43:48Z</time><name>PT7091</name></trkpt>
<trkpt lat="53.379075" lon="-1.928198"><ele>201</ele><time>2021-10-07T14:43:49Z</time><name>PT7092</name></trkpt>
<trkpt lat="53.379073" lon="-1.928212"><ele>201</ele><time>2021-10-07T14:43:50Z</time><name>PT7093</name></trkpt>
<trkpt lat="53.379072" lon="-1.928222"><ele>201</ele><time>2021-10-07T14:43:51Z</time><name>PT7094</name></trkpt>
<trkpt lat="53.379073" lon="-1.928241"><ele>202</ele><time>2021-10-07T14:43:52Z</time><name>PT7095</name></trkpt>
<trkpt lat="53.379074" lon="-1.928267"><ele>202</ele><time>2021-10-07T14:43:53Z</time><name>PT7096</name></trkpt>
<trkpt lat="53.379073" lon="-1.928293"><ele>204</ele><time>2021-10-07T14:43:54Z</time><name>PT7097</name></trkpt>
<trkpt lat="53.379070" lon="-1.928309"><ele>204</ele><time>2021-10-07T14:43:55Z</time><name>PT7098</name></trkpt>
<trkpt lat="53.379066" lon="-1.928318"><ele>206</ele><time>2021-10-07T14:43:56Z</time><name>PT7099</name></trkpt>
<trkpt lat="53.379066" lon="-1.928317"><ele>206</ele><time>2021-10-07T14:43:57Z</time><name>PT7100</name></trkpt>
<trkpt lat="53.379061" lon="-1.928325"><ele>206</ele><time>2021-10-07T14:43:58Z</time><name>PT7101</name></trkpt>
<trkpt lat="53.379059" lon="-1.928330"><ele>207</ele><time>2021-10-07T14:43:59Z</time><name>PT7102</name></trkpt>
<trkpt lat="53.379054" lon="-1.928334"><ele>208</ele><time>2021-10-07T14:44:00Z</time><name>PT7103</name></trkpt>
<trkpt lat="53.379047" lon="-1.928341"><ele>208</ele><time>2021-10-07T14:44:01Z</time><name>PT7104</name></trkpt>
<trkpt lat="53.379042" lon="-1.928355"><ele>207</ele><time>2021-10-07T14:44:02Z</time><name>PT7105</name></trkpt>
<trkpt lat="53.379034" lon="-1.928371"><ele>208</ele><time>2021-10-07T14:44:03Z</time><name>PT7106</name></trkpt>
<trkpt lat="53.379027" lon="-1.928388"><ele>208</ele><time>2021-10-07T14:44:04Z</time><name>PT7107</name></trkpt>
<trkpt lat="53.379019" lon="-1.928404"><ele>208</ele><time>2021-10-07T14:44:05Z</time><name>PT7108</name></trkpt>
<trkpt lat="53.379012" lon="-1.928420"><ele>208</ele><time>2021-10-07T14:44:06Z</time><name>PT7109</name></trkpt>
<trkpt lat="53.379005" lon="-1.928437"><ele>208</ele><time>2021-10-07T14:44:07Z</time><name>PT7110</name></trkpt>
<trkpt lat="53.378996" lon="-1.928452"><ele>208</ele><time>2021-10-07T14:44:08Z</time><name>PT7111</name></trkpt>
<trkpt lat="53.378986" lon="-1.928464"><ele>208</ele><time>2021-10-07T14:44:09Z</time><name>PT7112</name></trkpt>
<trkpt lat="53.378978" lon="-1.928478"><ele>208</ele><time>2021-10-07T14:44:10Z</time><name>PT7113</name></trkpt>
<trkpt lat="53.378970" lon="-1.928493"><ele>208</ele><time>2021-10-07T14:44:11Z</time><name>PT7114</name></trkpt>
<trkpt lat="53.378962" lon="-1.928506"><ele>207</ele><time>2021-10-07T14:44:12Z</time><name>PT7115</name></trkpt>
<trkpt lat="53.378953" lon="-1.928520"><ele>207</ele><time>2021-10-07T14:44:13Z</time><name>PT7116</name></trkpt>
<trkpt lat="53.378945" lon="-1.928534"><ele>207</ele><time>2021-10-07T14:44:14Z</time><name>PT7117</name></trkpt>
<trkpt lat="53.378935" lon="-1.928548"><ele>207</ele><time>2021-10-07T14:44:15Z</time><name>PT7118</name></trkpt>
<trkpt lat="53.378927" lon="-1.928558"><ele>206</ele><time>2021-10-07T14:44:16Z</time><name>PT7119</name></trkpt>
<trkpt lat="53.378919" lon="-1.928571"><ele>206</ele><time>2021-10-07T14:44:17Z</time><name>PT7120</name></trkpt>
<trkpt lat="53.378911" lon="-1.928587"><ele>206</ele><time>2021-10-07T14:44:18Z</time><name>PT7121</name></trkpt>
<trkpt lat="53.378904" lon="-1.928600"><ele>205</ele><time>2021-10-07T14:44:19Z</time><name>PT7122</name></trkpt>
<trkpt lat="53.378895" lon="-1.928613"><ele>206</ele><time>2021-10-07T14:44:20Z</time><name>PT7123</name></trkpt>
<trkpt lat="53.378885" lon="-1.928629"><ele>206</ele><time>2021-10-07T14:44:21Z</time><name>PT7124</name></trkpt>
<trkpt lat="53.378877" lon="-1.928644"><ele>206</ele><time>2021-10-07T14:44:22Z</time><name>PT7125</name></trkpt>
<trkpt lat="53.378871" lon="-1.928659"><ele>207</ele><time>2021-10-07T14:44:23Z</time><name>PT7126</name></trkpt>
<trkpt lat="53.378863" lon="-1.928673"><ele>207</ele><time>2021-10-07T14:44:24Z</time><name>PT7127</name></trkpt>
<trkpt lat="53.378855" lon="-1.928689"><ele>207</ele><time>2021-10-07T14:44:25Z</time><name>PT7128</name></trkpt>
<trkpt lat="53.378848" lon="-1.928705"><ele>206</ele><time>2021-10-07T14:44:26Z</time><name>PT7129</name></trkpt>
<trkpt lat="53.378839" lon="-1.928721"><ele>207</ele><time>2021-10-07T14:44:27Z</time><name>PT7130</name></trkpt>
<trkpt lat="53.378829" lon="-1.928737"><ele>207</ele><time>2021-10-07T14:44:28Z</time><name>PT7131</name></trkpt>
<trkpt lat="53.378821" lon="-1.928748"><ele>207</ele><time>2021-10-07T14:44:29Z</time><name>PT7132</name></trkpt>
<trkpt lat="53.378815" lon="-1.928760"><ele>207</ele><time>2021-10-07T14:44:30Z</time><name>PT7133</name></trkpt>
<trkpt lat="53.378808" lon="-1.928774"><ele>208</ele><time>2021-10-07T14:44:31Z</time><name>PT7134</name></trkpt>
<trkpt lat="53.378801" lon="-1.928789"><ele>207</ele><time>2021-10-07T14:44:32Z</time><name>PT7135</name></trkpt>
<trkpt lat="53.378795" lon="-1.928804"><ele>208</ele><time>2021-10-07T14:44:33Z</time><name>PT7136</name></trkpt>
<trkpt lat="53.378788" lon="-1.928820"><ele>207</ele><time>2021-10-07T14:44:34Z</time><name>PT7137</name></trkpt>
<trkpt lat="53.378779" lon="-1.928839"><ele>207</ele><time>2021-10-07T14:44:35Z</time><name>PT7138</name></trkpt>
<trkpt lat="53.378773" lon="-1.928853"><ele>208</ele><time>2021-10-07T14:44:36Z</time><name>PT7139</name></trkpt>
<trkpt lat="53.378767" lon="-1.928864"><ele>207</ele><time>2021-10-07T14:44:37Z</time><name>PT7140</name></trkpt>
<trkpt lat="53.378759" lon="-1.928880"><ele>208</ele><time>2021-10-07T14:44:38Z</time><name>PT7141</name></trkpt>
<trkpt lat="53.378753" lon="-1.928893"><ele>208</ele><time>2021-10-07T14:44:39Z</time><name>PT7142</name></trkpt>
<trkpt lat="53.378751" lon="-1.928906"><ele>207</ele><time>2021-10-07T14:44:40Z</time><name>PT7143</name></trkpt>
<trkpt lat="53.378748" lon="-1.928919"><ele>208</ele><time>2021-10-07T14:44:41Z</time><name>PT7144</name></trkpt>
<trkpt lat="53.378743" lon="-1.928934"><ele>208</ele><time>2021-10-07T14:44:42Z</time><name>PT7145</name></trkpt>
<trkpt lat="53.378734" lon="-1.928947"><ele>209</ele><time>2021-10-07T14:44:43Z</time><name>PT7146</name></trkpt>
<trkpt lat="53.378728" lon="-1.928961"><ele>210</ele><time>2021-10-07T14:44:44Z</time><name>PT7147</name></trkpt>
<trkpt lat="53.378723" lon="-1.928975"><ele>209</ele><time>2021-10-07T14:44:45Z</time><name>PT7148</name></trkpt>
<trkpt lat="53.378720" lon="-1.928996"><ele>210</ele><time>2021-10-07T14:44:46Z</time><name>PT7149</name></trkpt>
<trkpt lat="53.378716" lon="-1.929014"><ele>211</ele><time>2021-10-07T14:44:47Z</time><name>PT7150</name></trkpt>
<trkpt lat="53.378712" lon="-1.929031"><ele>211</ele><time>2021-10-07T14:44:48Z</time><name>PT7151</name></trkpt>
<trkpt lat="53.378701" lon="-1.929049"><ele>212</ele><time>2021-10-07T14:44:49Z</time><name>PT7152</name></trkpt>
<trkpt lat="53.378695" lon="-1.929063"><ele>213</ele><time>2021-10-07T14:44:50Z</time><name>PT7153</name></trkpt>
<trkpt lat="53.378692" lon="-1.929075"><ele>212</ele><time>2021-10-07T14:44:51Z</time><name>PT7154</name></trkpt>
<trkpt lat="53.378687" lon="-1.929093"><ele>212</ele><time>2021-10-07T14:44:52Z</time><name>PT7155</name></trkpt>
<trkpt lat="53.378683" lon="-1.929109"><ele>212</ele><time>2021-10-07T14:44:53Z</time><name>PT7156</name></trkpt>
<trkpt lat="53.378678" lon="-1.929123"><ele>212</ele><time>2021-10-07T14:44:54Z</time><name>PT7157</name></trkpt>
<trkpt lat="53.378674" lon="-1.929140"><ele>212</ele><time>2021-10-07T14:44:55Z</time><name>PT7158</name></trkpt>
<trkpt lat="53.378671" lon="-1.929157"><ele>212</ele><time>2021-10-07T14:44:56Z</time><name>PT7159</name></trkpt>
<trkpt lat="53.378662" lon="-1.929171"><ele>212</ele><time>2021-10-07T14:44:57Z</time><name>PT7160</name></trkpt>
<trkpt lat="53.378659" lon="-1.929188"><ele>211</ele><time>2021-10-07T14:44:58Z</time><name>PT7161</name></trkpt>
<trkpt lat="53.378653" lon="-1.929201"><ele>211</ele><time>2021-10-07T14:44:59Z</time><name>PT7162</name></trkpt>
<trkpt lat="53.378646" lon="-1.929212"><ele>211</ele><time>2021-10-07T14:45:00Z</time><name>PT7163</name></trkpt>
<trkpt lat="53.378640" lon="-1.929224"><ele>212</ele><time>2021-10-07T14:45:01Z</time><name>PT7164</name></trkpt>
<trkpt lat="53.378633" lon="-1.929236"><ele>212</ele><time>2021-10-07T14:45:02Z</time><name>PT7165</name></trkpt></trkseg></trk></gpx>